<?xml version='1.0' encoding='UTF-8'?><gpx version="1.1" creator="JPX - https://github.com/jenetics/jpx" xmlns="http://www.topografix.com/GPX/1/1"><trk><trkseg><trkpt lat="45.4663936" lon="11.1841808"><ele>162.0</ele><time>2026-04-25T12:45:24.013Z</time></trkpt><trkpt lat="45.4663346" lon="11.1842564"><ele>162.0</ele><time>2026-04-25T12:45:30.357Z</time></trkpt><trkpt lat="45.4663993" lon="11.1842345"><ele>162.0</ele><time>2026-04-25T12:45:51.306Z</time></trkpt><trkpt lat="45.4664306" lon="11.1843791"><ele>162.0</ele><time>2026-04-25T12:46:34.306Z</time></trkpt><trkpt lat="45.4665091" lon="11.1843765"><ele>162.0</ele><time>2026-04-25T12:46:36.306Z</time></trkpt><trkpt lat="45.4665509" lon="11.184253"><ele>162.0</ele><time>2026-04-25T12:46:38.307Z</time></trkpt><trkpt lat="45.4665409" lon="11.1841534"><ele>162.2</ele><time>2026-04-25T12:46:39.306Z</time></trkpt><trkpt lat="45.4665162" lon="11.1839835"><ele>162.39999999999998</ele><time>2026-04-25T12:46:41.307Z</time></trkpt><trkpt lat="45.4664491" lon="11.1838438"><ele>162.60000000000002</ele><time>2026-04-25T12:46:43.306Z</time></trkpt><trkpt lat="45.4663334" lon="11.1837999"><ele>162.8</ele><time>2026-04-25T12:46:45.307Z</time></trkpt><trkpt lat="45.4662514" lon="11.1837904"><ele>163.0</ele><time>2026-04-25T12:46:46.307Z</time></trkpt><trkpt lat="45.4661644" lon="11.1837818"><ele>162.5</ele><time>2026-04-25T12:46:47.306Z</time></trkpt><trkpt lat="45.4660866" lon="11.1837905"><ele>162.0</ele><time>2026-04-25T12:46:48.306Z</time></trkpt><trkpt lat="45.4660151" lon="11.1838003"><ele>161.5</ele><time>2026-04-25T12:46:49.307Z</time></trkpt><trkpt lat="45.4659494" lon="11.1837883"><ele>161.0</ele><time>2026-04-25T12:46:50.306Z</time></trkpt><trkpt lat="45.465866" lon="11.1836717"><ele>160.5</ele><time>2026-04-25T12:46:52.306Z</time></trkpt><trkpt lat="45.4658314" lon="11.1835347"><ele>160.0</ele><time>2026-04-25T12:46:53.307Z</time></trkpt><trkpt lat="45.4658169" lon="11.1833646"><ele>160.0</ele><time>2026-04-25T12:46:54.306Z</time></trkpt><trkpt lat="45.465806" lon="11.1832065"><ele>160.0</ele><time>2026-04-25T12:46:55.306Z</time></trkpt><trkpt lat="45.4657935" lon="11.1830507"><ele>160.0</ele><time>2026-04-25T12:46:56.306Z</time></trkpt><trkpt lat="45.4657852" lon="11.1828983"><ele>160.0</ele><time>2026-04-25T12:46:57.306Z</time></trkpt><trkpt lat="45.4657732" lon="11.1827682"><ele>160.0</ele><time>2026-04-25T12:46:58.307Z</time></trkpt><trkpt lat="45.465768" lon="11.1826382"><ele>160.2</ele><time>2026-04-25T12:46:59.307Z</time></trkpt><trkpt lat="45.4657676" lon="11.1825161"><ele>160.4</ele><time>2026-04-25T12:47:00.307Z</time></trkpt><trkpt lat="45.4657724" lon="11.1823934"><ele>160.60000000000002</ele><time>2026-04-25T12:47:01.307Z</time></trkpt><trkpt lat="45.4657796" lon="11.182264"><ele>160.8</ele><time>2026-04-25T12:47:02.306Z</time></trkpt><trkpt lat="45.4657859" lon="11.1821226"><ele>161.0</ele><time>2026-04-25T12:47:03.307Z</time></trkpt><trkpt lat="45.4657881" lon="11.1819688"><ele>161.0</ele><time>2026-04-25T12:47:04.307Z</time></trkpt><trkpt lat="45.465791" lon="11.1818222"><ele>161.0</ele><time>2026-04-25T12:47:05.306Z</time></trkpt><trkpt lat="45.4657981" lon="11.1816916"><ele>161.0</ele><time>2026-04-25T12:47:06.306Z</time></trkpt><trkpt lat="45.4658081" lon="11.181569"><ele>161.0</ele><time>2026-04-25T12:47:07.306Z</time></trkpt><trkpt lat="45.4658205" lon="11.1814584"><ele>161.0</ele><time>2026-04-25T12:47:08.306Z</time></trkpt><trkpt lat="45.4658401" lon="11.1813511"><ele>161.0</ele><time>2026-04-25T12:47:09.307Z</time></trkpt><trkpt lat="45.4658551" lon="11.1812255"><ele>161.0</ele><time>2026-04-25T12:47:10.306Z</time></trkpt><trkpt lat="45.4658655" lon="11.181075"><ele>161.0</ele><time>2026-04-25T12:47:11.306Z</time></trkpt><trkpt lat="45.465874" lon="11.1809123"><ele>161.0</ele><time>2026-04-25T12:47:12.307Z</time></trkpt><trkpt lat="45.4658803" lon="11.18075"><ele>161.0</ele><time>2026-04-25T12:47:13.306Z</time></trkpt><trkpt lat="45.4658824" lon="11.1805943"><ele>161.0</ele><time>2026-04-25T12:47:14.306Z</time></trkpt><trkpt lat="45.4658844" lon="11.1804491"><ele>161.0</ele><time>2026-04-25T12:47:15.306Z</time></trkpt><trkpt lat="45.4658863" lon="11.1803124"><ele>161.0</ele><time>2026-04-25T12:47:16.307Z</time></trkpt><trkpt lat="45.4658855" lon="11.1801846"><ele>161.0</ele><time>2026-04-25T12:47:17.306Z</time></trkpt><trkpt lat="45.4658832" lon="11.1800548"><ele>161.0</ele><time>2026-04-25T12:47:18.306Z</time></trkpt><trkpt lat="45.4658826" lon="11.1799347"><ele>161.0</ele><time>2026-04-25T12:47:19.307Z</time></trkpt><trkpt lat="45.4658878" lon="11.1798318"><ele>161.0</ele><time>2026-04-25T12:47:20.307Z</time></trkpt><trkpt lat="45.4659331" lon="11.1796888"><ele>161.0</ele><time>2026-04-25T12:47:23.306Z</time></trkpt><trkpt lat="45.466047" lon="11.1796808"><ele>161.0</ele><time>2026-04-25T12:47:25.306Z</time></trkpt><trkpt lat="45.4661233" lon="11.1797009"><ele>161.0</ele><time>2026-04-25T12:47:26.306Z</time></trkpt><trkpt lat="45.4662258" lon="11.1797252"><ele>161.0</ele><time>2026-04-25T12:47:27.307Z</time></trkpt><trkpt lat="45.4663316" lon="11.1797492"><ele>161.0</ele><time>2026-04-25T12:47:28.307Z</time></trkpt><trkpt lat="45.4664411" lon="11.1797777"><ele>161.60000000000002</ele><time>2026-04-25T12:47:29.308Z</time></trkpt><trkpt lat="45.4665525" lon="11.1798064"><ele>162.2</ele><time>2026-04-25T12:47:30.307Z</time></trkpt><trkpt lat="45.466659" lon="11.1798321"><ele>162.8</ele><time>2026-04-25T12:47:31.307Z</time></trkpt><trkpt lat="45.4667672" lon="11.1798641"><ele>163.39999999999998</ele><time>2026-04-25T12:47:32.307Z</time></trkpt><trkpt lat="45.4668743" lon="11.1798977"><ele>164.0</ele><time>2026-04-25T12:47:33.307Z</time></trkpt><trkpt lat="45.4669765" lon="11.1799332"><ele>164.2</ele><time>2026-04-25T12:47:34.307Z</time></trkpt><trkpt lat="45.4670745" lon="11.1799674"><ele>164.39999999999998</ele><time>2026-04-25T12:47:35.308Z</time></trkpt><trkpt lat="45.4671809" lon="11.1800107"><ele>164.6</ele><time>2026-04-25T12:47:36.307Z</time></trkpt><trkpt lat="45.467286" lon="11.1800495"><ele>164.8</ele><time>2026-04-25T12:47:37.307Z</time></trkpt><trkpt lat="45.4673943" lon="11.1800872"><ele>165.0</ele><time>2026-04-25T12:47:38.307Z</time></trkpt><trkpt lat="45.4675034" lon="11.1801182"><ele>165.4</ele><time>2026-04-25T12:47:39.307Z</time></trkpt><trkpt lat="45.4676073" lon="11.1801482"><ele>165.8</ele><time>2026-04-25T12:47:40.307Z</time></trkpt><trkpt lat="45.4677213" lon="11.1801679"><ele>166.2</ele><time>2026-04-25T12:47:41.307Z</time></trkpt><trkpt lat="45.4678329" lon="11.1801779"><ele>166.6</ele><time>2026-04-25T12:47:42.308Z</time></trkpt><trkpt lat="45.4679482" lon="11.1801859"><ele>167.0</ele><time>2026-04-25T12:47:43.307Z</time></trkpt><trkpt lat="45.4680602" lon="11.1801812"><ele>167.75</ele><time>2026-04-25T12:47:44.307Z</time></trkpt><trkpt lat="45.4681734" lon="11.1801707"><ele>168.5</ele><time>2026-04-25T12:47:45.307Z</time></trkpt><trkpt lat="45.4682814" lon="11.1801576"><ele>169.25</ele><time>2026-04-25T12:47:46.307Z</time></trkpt><trkpt lat="45.4683947" lon="11.1801372"><ele>170.0</ele><time>2026-04-25T12:47:47.307Z</time></trkpt><trkpt lat="45.4685127" lon="11.180126"><ele>170.0</ele><time>2026-04-25T12:47:48.308Z</time></trkpt><trkpt lat="45.4686337" lon="11.1801126"><ele>170.0</ele><time>2026-04-25T12:47:49.307Z</time></trkpt><trkpt lat="45.4687596" lon="11.1801009"><ele>170.0</ele><time>2026-04-25T12:47:50.307Z</time></trkpt><trkpt lat="45.4688763" lon="11.1800811"><ele>170.0</ele><time>2026-04-25T12:47:51.308Z</time></trkpt><trkpt lat="45.4689871" lon="11.1800643"><ele>170.75</ele><time>2026-04-25T12:47:52.307Z</time></trkpt><trkpt lat="45.4691058" lon="11.1800501"><ele>171.5</ele><time>2026-04-25T12:47:53.307Z</time></trkpt><trkpt lat="45.4692286" lon="11.1800468"><ele>172.25</ele><time>2026-04-25T12:47:54.308Z</time></trkpt><trkpt lat="45.469356" lon="11.1800598"><ele>173.0</ele><time>2026-04-25T12:47:55.307Z</time></trkpt><trkpt lat="45.4694809" lon="11.1800849"><ele>173.0</ele><time>2026-04-25T12:47:56.307Z</time></trkpt><trkpt lat="45.4695984" lon="11.18012"><ele>173.0</ele><time>2026-04-25T12:47:57.308Z</time></trkpt><trkpt lat="45.4697114" lon="11.1801617"><ele>173.0</ele><time>2026-04-25T12:47:58.308Z</time></trkpt><trkpt lat="45.4698221" lon="11.1802157"><ele>173.0</ele><time>2026-04-25T12:47:59.307Z</time></trkpt><trkpt lat="45.469933" lon="11.1802784"><ele>173.5</ele><time>2026-04-25T12:48:00.307Z</time></trkpt><trkpt lat="45.4700459" lon="11.1803418"><ele>174.0</ele><time>2026-04-25T12:48:01.307Z</time></trkpt><trkpt lat="45.4701595" lon="11.1804097"><ele>174.5</ele><time>2026-04-25T12:48:02.308Z</time></trkpt><trkpt lat="45.4702736" lon="11.1804803"><ele>175.0</ele><time>2026-04-25T12:48:03.307Z</time></trkpt><trkpt lat="45.4703981" lon="11.18054"><ele>175.5</ele><time>2026-04-25T12:48:04.307Z</time></trkpt><trkpt lat="45.4705257" lon="11.1805992"><ele>176.0</ele><time>2026-04-25T12:48:05.308Z</time></trkpt><trkpt lat="45.4706638" lon="11.1806594"><ele>176.5</ele><time>2026-04-25T12:48:06.307Z</time></trkpt><trkpt lat="45.4708042" lon="11.1807203"><ele>177.0</ele><time>2026-04-25T12:48:07.307Z</time></trkpt><trkpt lat="45.4709471" lon="11.1807786"><ele>177.25</ele><time>2026-04-25T12:48:08.307Z</time></trkpt><trkpt lat="45.4710939" lon="11.1808259"><ele>177.5</ele><time>2026-04-25T12:48:09.307Z</time></trkpt><trkpt lat="45.4712398" lon="11.1808631"><ele>177.75</ele><time>2026-04-25T12:48:10.307Z</time></trkpt><trkpt lat="45.4713824" lon="11.1808706"><ele>178.0</ele><time>2026-04-25T12:48:11.308Z</time></trkpt><trkpt lat="45.4715187" lon="11.1808675"><ele>178.0</ele><time>2026-04-25T12:48:12.307Z</time></trkpt><trkpt lat="45.4716504" lon="11.1808602"><ele>178.0</ele><time>2026-04-25T12:48:13.307Z</time></trkpt><trkpt lat="45.4717762" lon="11.1808576"><ele>178.0</ele><time>2026-04-25T12:48:14.308Z</time></trkpt><trkpt lat="45.4718964" lon="11.1808547"><ele>178.0</ele><time>2026-04-25T12:48:15.307Z</time></trkpt><trkpt lat="45.4720162" lon="11.1808541"><ele>178.5</ele><time>2026-04-25T12:48:16.307Z</time></trkpt><trkpt lat="45.4721369" lon="11.1808669"><ele>179.0</ele><time>2026-04-25T12:48:17.307Z</time></trkpt><trkpt lat="45.4722576" lon="11.1808931"><ele>179.5</ele><time>2026-04-25T12:48:18.307Z</time></trkpt><trkpt lat="45.472378" lon="11.180923"><ele>180.0</ele><time>2026-04-25T12:48:19.307Z</time></trkpt><trkpt lat="45.4724995" lon="11.180953"><ele>180.0</ele><time>2026-04-25T12:48:20.308Z</time></trkpt><trkpt lat="45.4726245" lon="11.180973"><ele>180.0</ele><time>2026-04-25T12:48:21.308Z</time></trkpt><trkpt lat="45.4727494" lon="11.1809804"><ele>180.0</ele><time>2026-04-25T12:48:22.308Z</time></trkpt><trkpt lat="45.472874" lon="11.1809798"><ele>180.0</ele><time>2026-04-25T12:48:23.307Z</time></trkpt><trkpt lat="45.4730013" lon="11.1809743"><ele>180.75</ele><time>2026-04-25T12:48:24.308Z</time></trkpt><trkpt lat="45.4731286" lon="11.1809653"><ele>181.5</ele><time>2026-04-25T12:48:25.307Z</time></trkpt><trkpt lat="45.4732575" lon="11.1809563"><ele>182.25</ele><time>2026-04-25T12:48:26.307Z</time></trkpt><trkpt lat="45.4733875" lon="11.1809511"><ele>183.0</ele><time>2026-04-25T12:48:27.308Z</time></trkpt><trkpt lat="45.4735178" lon="11.1809484"><ele>183.0</ele><time>2026-04-25T12:48:28.308Z</time></trkpt><trkpt lat="45.473649" lon="11.1809477"><ele>183.0</ele><time>2026-04-25T12:48:29.307Z</time></trkpt><trkpt lat="45.4737805" lon="11.180948"><ele>183.0</ele><time>2026-04-25T12:48:30.307Z</time></trkpt><trkpt lat="45.4739156" lon="11.1809517"><ele>183.0</ele><time>2026-04-25T12:48:31.307Z</time></trkpt><trkpt lat="45.4740498" lon="11.1809555"><ele>183.5</ele><time>2026-04-25T12:48:32.308Z</time></trkpt><trkpt lat="45.4741882" lon="11.1809593"><ele>184.0</ele><time>2026-04-25T12:48:33.308Z</time></trkpt><trkpt lat="45.4743316" lon="11.1809653"><ele>184.5</ele><time>2026-04-25T12:48:34.309Z</time></trkpt><trkpt lat="45.4744798" lon="11.1809741"><ele>185.0</ele><time>2026-04-25T12:48:35.308Z</time></trkpt><trkpt lat="45.4746339" lon="11.1809834"><ele>185.33333333333331</ele><time>2026-04-25T12:48:36.308Z</time></trkpt><trkpt lat="45.4747928" lon="11.1809924"><ele>185.66666666666666</ele><time>2026-04-25T12:48:37.308Z</time></trkpt><trkpt lat="45.4749514" lon="11.181002"><ele>186.0</ele><time>2026-04-25T12:48:38.309Z</time></trkpt><trkpt lat="45.4751094" lon="11.1810143"><ele>186.0</ele><time>2026-04-25T12:48:39.308Z</time></trkpt><trkpt lat="45.4752678" lon="11.1810274"><ele>186.0</ele><time>2026-04-25T12:48:40.309Z</time></trkpt><trkpt lat="45.4754263" lon="11.1810412"><ele>186.0</ele><time>2026-04-25T12:48:41.309Z</time></trkpt><trkpt lat="45.4755834" lon="11.1810531"><ele>187.0</ele><time>2026-04-25T12:48:42.308Z</time></trkpt><trkpt lat="45.475739" lon="11.1810583"><ele>188.0</ele><time>2026-04-25T12:48:43.308Z</time></trkpt><trkpt lat="45.4758948" lon="11.1810546"><ele>189.0</ele><time>2026-04-25T12:48:44.309Z</time></trkpt><trkpt lat="45.4760453" lon="11.1810443"><ele>189.0</ele><time>2026-04-25T12:48:45.308Z</time></trkpt><trkpt lat="45.4761916" lon="11.1810337"><ele>189.0</ele><time>2026-04-25T12:48:46.308Z</time></trkpt><trkpt lat="45.4763365" lon="11.1810227"><ele>189.0</ele><time>2026-04-25T12:48:47.309Z</time></trkpt><trkpt lat="45.4764802" lon="11.1810065"><ele>189.0</ele><time>2026-04-25T12:48:48.308Z</time></trkpt><trkpt lat="45.4766254" lon="11.1809781"><ele>189.66666666666666</ele><time>2026-04-25T12:48:49.308Z</time></trkpt><trkpt lat="45.4767742" lon="11.1809343"><ele>190.33333333333331</ele><time>2026-04-25T12:48:50.308Z</time></trkpt><trkpt lat="45.4769296" lon="11.1808868"><ele>191.0</ele><time>2026-04-25T12:48:51.308Z</time></trkpt><trkpt lat="45.4770956" lon="11.1808487"><ele>192.33333333333331</ele><time>2026-04-25T12:48:52.308Z</time></trkpt><trkpt lat="45.477271" lon="11.1808209"><ele>193.66666666666666</ele><time>2026-04-25T12:48:53.308Z</time></trkpt><trkpt lat="45.4774522" lon="11.1807852"><ele>195.0</ele><time>2026-04-25T12:48:54.309Z</time></trkpt><trkpt lat="45.4776288" lon="11.1807186"><ele>195.0</ele><time>2026-04-25T12:48:55.308Z</time></trkpt><trkpt lat="45.4777975" lon="11.1806204"><ele>195.0</ele><time>2026-04-25T12:48:56.308Z</time></trkpt><trkpt lat="45.477958" lon="11.1805014"><ele>195.0</ele><time>2026-04-25T12:48:57.309Z</time></trkpt><trkpt lat="45.4781129" lon="11.1803707"><ele>195.66666666666669</ele><time>2026-04-25T12:48:58.309Z</time></trkpt><trkpt lat="45.4782642" lon="11.1802354"><ele>196.33333333333334</ele><time>2026-04-25T12:48:59.308Z</time></trkpt><trkpt lat="45.4784133" lon="11.1801059"><ele>197.0</ele><time>2026-04-25T12:49:00.309Z</time></trkpt><trkpt lat="45.4785618" lon="11.1799793"><ele>197.0</ele><time>2026-04-25T12:49:01.309Z</time></trkpt><trkpt lat="45.4787073" lon="11.1798562"><ele>197.0</ele><time>2026-04-25T12:49:02.308Z</time></trkpt><trkpt lat="45.478851" lon="11.1797353"><ele>197.0</ele><time>2026-04-25T12:49:03.308Z</time></trkpt><trkpt lat="45.4789921" lon="11.1796158"><ele>198.0</ele><time>2026-04-25T12:49:04.308Z</time></trkpt><trkpt lat="45.4791229" lon="11.1794919"><ele>199.0</ele><time>2026-04-25T12:49:05.308Z</time></trkpt><trkpt lat="45.4792505" lon="11.1793679"><ele>200.0</ele><time>2026-04-25T12:49:06.308Z</time></trkpt><trkpt lat="45.4793769" lon="11.1792473"><ele>200.0</ele><time>2026-04-25T12:49:07.308Z</time></trkpt><trkpt lat="45.4795027" lon="11.1791305"><ele>200.0</ele><time>2026-04-25T12:49:08.308Z</time></trkpt><trkpt lat="45.4796253" lon="11.179017"><ele>200.0</ele><time>2026-04-25T12:49:09.308Z</time></trkpt><trkpt lat="45.4797471" lon="11.1789097"><ele>200.0</ele><time>2026-04-25T12:49:10.308Z</time></trkpt><trkpt lat="45.4798651" lon="11.178803"><ele>200.5</ele><time>2026-04-25T12:49:11.308Z</time></trkpt><trkpt lat="45.479982" lon="11.1786933"><ele>201.0</ele><time>2026-04-25T12:49:12.308Z</time></trkpt><trkpt lat="45.4800976" lon="11.178582"><ele>201.5</ele><time>2026-04-25T12:49:13.308Z</time></trkpt><trkpt lat="45.4802126" lon="11.178472"><ele>202.0</ele><time>2026-04-25T12:49:14.309Z</time></trkpt><trkpt lat="45.4803262" lon="11.1783672"><ele>203.0</ele><time>2026-04-25T12:49:15.308Z</time></trkpt><trkpt lat="45.4804409" lon="11.178267"><ele>204.0</ele><time>2026-04-25T12:49:16.308Z</time></trkpt><trkpt lat="45.4805579" lon="11.1781755"><ele>205.0</ele><time>2026-04-25T12:49:17.309Z</time></trkpt><trkpt lat="45.4806802" lon="11.1781014"><ele>206.0</ele><time>2026-04-25T12:49:18.308Z</time></trkpt><trkpt lat="45.4808124" lon="11.1780468"><ele>206.5</ele><time>2026-04-25T12:49:19.308Z</time></trkpt><trkpt lat="45.4809519" lon="11.1780086"><ele>207.0</ele><time>2026-04-25T12:49:20.308Z</time></trkpt><trkpt lat="45.4810956" lon="11.1779809"><ele>207.5</ele><time>2026-04-25T12:49:21.308Z</time></trkpt><trkpt lat="45.4812416" lon="11.1779606"><ele>208.0</ele><time>2026-04-25T12:49:22.308Z</time></trkpt><trkpt lat="45.4813899" lon="11.1779415"><ele>208.5</ele><time>2026-04-25T12:49:23.31Z</time></trkpt><trkpt lat="45.4815344" lon="11.1779224"><ele>209.0</ele><time>2026-04-25T12:49:24.309Z</time></trkpt><trkpt lat="45.4816764" lon="11.1779018"><ele>209.5</ele><time>2026-04-25T12:49:25.308Z</time></trkpt><trkpt lat="45.481814" lon="11.1778836"><ele>210.0</ele><time>2026-04-25T12:49:26.308Z</time></trkpt><trkpt lat="45.4819526" lon="11.1778687"><ele>210.0</ele><time>2026-04-25T12:49:27.308Z</time></trkpt><trkpt lat="45.4820944" lon="11.1778506"><ele>210.0</ele><time>2026-04-25T12:49:28.308Z</time></trkpt><trkpt lat="45.4822347" lon="11.177832"><ele>210.0</ele><time>2026-04-25T12:49:29.309Z</time></trkpt><trkpt lat="45.4823797" lon="11.1778214"><ele>210.0</ele><time>2026-04-25T12:49:30.309Z</time></trkpt><trkpt lat="45.4825228" lon="11.1777976"><ele>210.5</ele><time>2026-04-25T12:49:31.308Z</time></trkpt><trkpt lat="45.4826626" lon="11.1777717"><ele>211.0</ele><time>2026-04-25T12:49:32.308Z</time></trkpt><trkpt lat="45.4828064" lon="11.1777443"><ele>211.5</ele><time>2026-04-25T12:49:33.309Z</time></trkpt><trkpt lat="45.4829469" lon="11.1777158"><ele>212.0</ele><time>2026-04-25T12:49:34.308Z</time></trkpt><trkpt lat="45.4830899" lon="11.1776852"><ele>212.75</ele><time>2026-04-25T12:49:35.308Z</time></trkpt><trkpt lat="45.4832305" lon="11.1776589"><ele>213.5</ele><time>2026-04-25T12:49:36.308Z</time></trkpt><trkpt lat="45.4833687" lon="11.177629"><ele>214.25</ele><time>2026-04-25T12:49:37.309Z</time></trkpt><trkpt lat="45.4835045" lon="11.1775946"><ele>215.0</ele><time>2026-04-25T12:49:38.309Z</time></trkpt><trkpt lat="45.4836374" lon="11.1775608"><ele>215.5</ele><time>2026-04-25T12:49:39.309Z</time></trkpt><trkpt lat="45.483769" lon="11.1775258"><ele>216.0</ele><time>2026-04-25T12:49:40.309Z</time></trkpt><trkpt lat="45.4838999" lon="11.1774857"><ele>216.5</ele><time>2026-04-25T12:49:41.31Z</time></trkpt><trkpt lat="45.4840279" lon="11.1774417"><ele>217.0</ele><time>2026-04-25T12:49:42.31Z</time></trkpt><trkpt lat="45.4841581" lon="11.1773942"><ele>217.0</ele><time>2026-04-25T12:49:43.31Z</time></trkpt><trkpt lat="45.4842904" lon="11.1773439"><ele>217.0</ele><time>2026-04-25T12:49:44.309Z</time></trkpt><trkpt lat="45.4844279" lon="11.1773004"><ele>217.0</ele><time>2026-04-25T12:49:45.31Z</time></trkpt><trkpt lat="45.4845729" lon="11.1772718"><ele>217.0</ele><time>2026-04-25T12:49:46.309Z</time></trkpt><trkpt lat="45.4847281" lon="11.1772381"><ele>218.0</ele><time>2026-04-25T12:49:47.309Z</time></trkpt><trkpt lat="45.4848802" lon="11.1772074"><ele>219.0</ele><time>2026-04-25T12:49:48.31Z</time></trkpt><trkpt lat="45.4850401" lon="11.1771812"><ele>220.0</ele><time>2026-04-25T12:49:49.31Z</time></trkpt><trkpt lat="45.4851814" lon="11.177143"><ele>220.0</ele><time>2026-04-25T12:49:50.309Z</time></trkpt><trkpt lat="45.4853226" lon="11.1771123"><ele>220.0</ele><time>2026-04-25T12:49:51.31Z</time></trkpt><trkpt lat="45.4854665" lon="11.1770857"><ele>220.0</ele><time>2026-04-25T12:49:52.309Z</time></trkpt><trkpt lat="45.4856141" lon="11.1770617"><ele>220.0</ele><time>2026-04-25T12:49:53.309Z</time></trkpt><trkpt lat="45.4857549" lon="11.1770287"><ele>220.25</ele><time>2026-04-25T12:49:54.309Z</time></trkpt><trkpt lat="45.4858948" lon="11.1769981"><ele>220.5</ele><time>2026-04-25T12:49:55.309Z</time></trkpt><trkpt lat="45.4860363" lon="11.176973"><ele>220.75</ele><time>2026-04-25T12:49:56.31Z</time></trkpt><trkpt lat="45.4861803" lon="11.1769438"><ele>221.0</ele><time>2026-04-25T12:49:57.31Z</time></trkpt><trkpt lat="45.4863239" lon="11.1769112"><ele>221.75</ele><time>2026-04-25T12:49:58.309Z</time></trkpt><trkpt lat="45.4864646" lon="11.1768792"><ele>222.5</ele><time>2026-04-25T12:49:59.31Z</time></trkpt><trkpt lat="45.4866008" lon="11.1768509"><ele>223.25</ele><time>2026-04-25T12:50:00.31Z</time></trkpt><trkpt lat="45.4867405" lon="11.1768153"><ele>224.0</ele><time>2026-04-25T12:50:01.31Z</time></trkpt><trkpt lat="45.4868742" lon="11.1767725"><ele>224.0</ele><time>2026-04-25T12:50:02.309Z</time></trkpt><trkpt lat="45.4870142" lon="11.1767195"><ele>224.0</ele><time>2026-04-25T12:50:03.309Z</time></trkpt><trkpt lat="45.4871534" lon="11.1766576"><ele>224.0</ele><time>2026-04-25T12:50:04.309Z</time></trkpt><trkpt lat="45.4872931" lon="11.1765932"><ele>224.0</ele><time>2026-04-25T12:50:05.309Z</time></trkpt><trkpt lat="45.4874333" lon="11.1765344"><ele>225.0</ele><time>2026-04-25T12:50:06.309Z</time></trkpt><trkpt lat="45.4875762" lon="11.1764741"><ele>226.0</ele><time>2026-04-25T12:50:07.31Z</time></trkpt><trkpt lat="45.4877194" lon="11.1764141"><ele>227.0</ele><time>2026-04-25T12:50:08.31Z</time></trkpt><trkpt lat="45.4878631" lon="11.1763501"><ele>228.0</ele><time>2026-04-25T12:50:09.309Z</time></trkpt><trkpt lat="45.4880075" lon="11.1762868"><ele>228.66666666666669</ele><time>2026-04-25T12:50:10.309Z</time></trkpt><trkpt lat="45.4881547" lon="11.1762221"><ele>229.33333333333334</ele><time>2026-04-25T12:50:11.309Z</time></trkpt><trkpt lat="45.4883037" lon="11.1761608"><ele>230.0</ele><time>2026-04-25T12:50:12.31Z</time></trkpt><trkpt lat="45.4884547" lon="11.1761013"><ele>230.0</ele><time>2026-04-25T12:50:13.309Z</time></trkpt><trkpt lat="45.4886025" lon="11.1760439"><ele>230.0</ele><time>2026-04-25T12:50:14.309Z</time></trkpt><trkpt lat="45.48875" lon="11.1759864"><ele>230.0</ele><time>2026-04-25T12:50:15.309Z</time></trkpt><trkpt lat="45.4888997" lon="11.1759284"><ele>231.0</ele><time>2026-04-25T12:50:16.31Z</time></trkpt><trkpt lat="45.489052" lon="11.1758633"><ele>232.0</ele><time>2026-04-25T12:50:17.309Z</time></trkpt><trkpt lat="45.489202" lon="11.1757975"><ele>233.0</ele><time>2026-04-25T12:50:18.309Z</time></trkpt><trkpt lat="45.4893543" lon="11.1757306"><ele>233.0</ele><time>2026-04-25T12:50:19.309Z</time></trkpt><trkpt lat="45.4895054" lon="11.1756675"><ele>233.0</ele><time>2026-04-25T12:50:20.309Z</time></trkpt><trkpt lat="45.4896563" lon="11.1756045"><ele>233.0</ele><time>2026-04-25T12:50:21.31Z</time></trkpt><trkpt lat="45.4898037" lon="11.1755388"><ele>233.5</ele><time>2026-04-25T12:50:22.309Z</time></trkpt><trkpt lat="45.4899468" lon="11.1754754"><ele>234.0</ele><time>2026-04-25T12:50:23.31Z</time></trkpt><trkpt lat="45.4900889" lon="11.1754132"><ele>234.5</ele><time>2026-04-25T12:50:24.309Z</time></trkpt><trkpt lat="45.4902312" lon="11.1753539"><ele>235.0</ele><time>2026-04-25T12:50:25.31Z</time></trkpt><trkpt lat="45.4903758" lon="11.1752956"><ele>235.66666666666666</ele><time>2026-04-25T12:50:26.31Z</time></trkpt><trkpt lat="45.4905304" lon="11.175238"><ele>236.33333333333331</ele><time>2026-04-25T12:50:27.309Z</time></trkpt><trkpt lat="45.4907014" lon="11.1751886"><ele>237.0</ele><time>2026-04-25T12:50:28.309Z</time></trkpt><trkpt lat="45.490886" lon="11.1751618"><ele>237.0</ele><time>2026-04-25T12:50:29.31Z</time></trkpt><trkpt lat="45.4910729" lon="11.1751726"><ele>237.0</ele><time>2026-04-25T12:50:30.309Z</time></trkpt><trkpt lat="45.4912637" lon="11.1752236"><ele>237.0</ele><time>2026-04-25T12:50:31.309Z</time></trkpt><trkpt lat="45.4914492" lon="11.1752997"><ele>238.0</ele><time>2026-04-25T12:50:32.309Z</time></trkpt><trkpt lat="45.4916282" lon="11.1753809"><ele>239.0</ele><time>2026-04-25T12:50:33.309Z</time></trkpt><trkpt lat="45.4918028" lon="11.175451"><ele>240.0</ele><time>2026-04-25T12:50:34.309Z</time></trkpt><trkpt lat="45.491983" lon="11.175501"><ele>241.0</ele><time>2026-04-25T12:50:35.309Z</time></trkpt><trkpt lat="45.4921647" lon="11.1755301"><ele>242.0</ele><time>2026-04-25T12:50:36.309Z</time></trkpt><trkpt lat="45.4923445" lon="11.1755271"><ele>243.0</ele><time>2026-04-25T12:50:37.309Z</time></trkpt><trkpt lat="45.4925144" lon="11.1754982"><ele>243.0</ele><time>2026-04-25T12:50:38.309Z</time></trkpt><trkpt lat="45.4926659" lon="11.1754546"><ele>243.0</ele><time>2026-04-25T12:50:39.311Z</time></trkpt><trkpt lat="45.4928068" lon="11.1754085"><ele>243.0</ele><time>2026-04-25T12:50:40.309Z</time></trkpt><trkpt lat="45.4929447" lon="11.1753678"><ele>243.0</ele><time>2026-04-25T12:50:41.31Z</time></trkpt><trkpt lat="45.4930838" lon="11.1753279"><ele>243.33333333333331</ele><time>2026-04-25T12:50:42.31Z</time></trkpt><trkpt lat="45.4932296" lon="11.1752828"><ele>243.66666666666666</ele><time>2026-04-25T12:50:43.31Z</time></trkpt><trkpt lat="45.4933792" lon="11.1752359"><ele>244.0</ele><time>2026-04-25T12:50:44.311Z</time></trkpt><trkpt lat="45.4935273" lon="11.1751932"><ele>244.0</ele><time>2026-04-25T12:50:45.311Z</time></trkpt><trkpt lat="45.4936748" lon="11.1751562"><ele>244.0</ele><time>2026-04-25T12:50:46.31Z</time></trkpt><trkpt lat="45.4938208" lon="11.1751195"><ele>244.0</ele><time>2026-04-25T12:50:47.31Z</time></trkpt><trkpt lat="45.4939678" lon="11.17508"><ele>244.0</ele><time>2026-04-25T12:50:48.31Z</time></trkpt><trkpt lat="45.4941139" lon="11.1750392"><ele>244.25</ele><time>2026-04-25T12:50:49.31Z</time></trkpt><trkpt lat="45.4942601" lon="11.1750003"><ele>244.5</ele><time>2026-04-25T12:50:50.311Z</time></trkpt><trkpt lat="45.494407" lon="11.1749598"><ele>244.75</ele><time>2026-04-25T12:50:51.31Z</time></trkpt><trkpt lat="45.4945541" lon="11.1749113"><ele>245.0</ele><time>2026-04-25T12:50:52.31Z</time></trkpt><trkpt lat="45.4947013" lon="11.1748507"><ele>246.0</ele><time>2026-04-25T12:50:53.311Z</time></trkpt><trkpt lat="45.4948452" lon="11.1747752"><ele>247.0</ele><time>2026-04-25T12:50:54.31Z</time></trkpt><trkpt lat="45.4949881" lon="11.1746805"><ele>248.0</ele><time>2026-04-25T12:50:55.31Z</time></trkpt><trkpt lat="45.4951312" lon="11.1745799"><ele>248.0</ele><time>2026-04-25T12:50:56.311Z</time></trkpt><trkpt lat="45.4952753" lon="11.1744759"><ele>248.0</ele><time>2026-04-25T12:50:57.311Z</time></trkpt><trkpt lat="45.4954202" lon="11.1743607"><ele>248.0</ele><time>2026-04-25T12:50:58.31Z</time></trkpt><trkpt lat="45.4955674" lon="11.1742305"><ele>249.33333333333334</ele><time>2026-04-25T12:50:59.311Z</time></trkpt><trkpt lat="45.4957165" lon="11.1740949"><ele>250.66666666666669</ele><time>2026-04-25T12:51:00.311Z</time></trkpt><trkpt lat="45.49587" lon="11.1739621"><ele>252.0</ele><time>2026-04-25T12:51:01.311Z</time></trkpt><trkpt lat="45.4960223" lon="11.1738418"><ele>252.33333333333331</ele><time>2026-04-25T12:51:02.31Z</time></trkpt><trkpt lat="45.4961739" lon="11.1737246"><ele>252.66666666666666</ele><time>2026-04-25T12:51:03.31Z</time></trkpt><trkpt lat="45.4963199" lon="11.173608"><ele>253.0</ele><time>2026-04-25T12:51:04.311Z</time></trkpt><trkpt lat="45.4964608" lon="11.1734932"><ele>253.66666666666666</ele><time>2026-04-25T12:51:05.311Z</time></trkpt><trkpt lat="45.4966005" lon="11.1733809"><ele>254.33333333333331</ele><time>2026-04-25T12:51:06.31Z</time></trkpt><trkpt lat="45.4967407" lon="11.1732686"><ele>255.0</ele><time>2026-04-25T12:51:07.311Z</time></trkpt><trkpt lat="45.4968857" lon="11.1731543"><ele>255.0</ele><time>2026-04-25T12:51:08.31Z</time></trkpt><trkpt lat="45.4970264" lon="11.1730467"><ele>255.0</ele><time>2026-04-25T12:51:09.31Z</time></trkpt><trkpt lat="45.4971675" lon="11.1729407"><ele>255.0</ele><time>2026-04-25T12:51:10.31Z</time></trkpt><trkpt lat="45.4973067" lon="11.1728345"><ele>256.0</ele><time>2026-04-25T12:51:11.31Z</time></trkpt><trkpt lat="45.4974451" lon="11.1727233"><ele>257.0</ele><time>2026-04-25T12:51:12.311Z</time></trkpt><trkpt lat="45.4975814" lon="11.1726094"><ele>258.0</ele><time>2026-04-25T12:51:13.311Z</time></trkpt><trkpt lat="45.497717" lon="11.1724968"><ele>258.0</ele><time>2026-04-25T12:51:14.31Z</time></trkpt><trkpt lat="45.4978521" lon="11.1723856"><ele>258.0</ele><time>2026-04-25T12:51:15.31Z</time></trkpt><trkpt lat="45.4979891" lon="11.1722767"><ele>258.0</ele><time>2026-04-25T12:51:16.31Z</time></trkpt><trkpt lat="45.4981276" lon="11.1721687"><ele>258.6666666666667</ele><time>2026-04-25T12:51:17.311Z</time></trkpt><trkpt lat="45.4982671" lon="11.172058"><ele>259.33333333333337</ele><time>2026-04-25T12:51:18.311Z</time></trkpt><trkpt lat="45.4984087" lon="11.1719456"><ele>260.0</ele><time>2026-04-25T12:51:19.311Z</time></trkpt><trkpt lat="45.4985506" lon="11.1718353"><ele>260.0</ele><time>2026-04-25T12:51:20.31Z</time></trkpt><trkpt lat="45.4986937" lon="11.1717242"><ele>260.0</ele><time>2026-04-25T12:51:21.31Z</time></trkpt><trkpt lat="45.4988362" lon="11.1716089"><ele>260.0</ele><time>2026-04-25T12:51:22.31Z</time></trkpt><trkpt lat="45.4989795" lon="11.1714901"><ele>261.33333333333337</ele><time>2026-04-25T12:51:23.311Z</time></trkpt><trkpt lat="45.499124" lon="11.1713726"><ele>262.6666666666667</ele><time>2026-04-25T12:51:24.31Z</time></trkpt><trkpt lat="45.49927" lon="11.1712579"><ele>264.0</ele><time>2026-04-25T12:51:25.31Z</time></trkpt><trkpt lat="45.4994186" lon="11.1711419"><ele>264.0</ele><time>2026-04-25T12:51:26.31Z</time></trkpt><trkpt lat="45.4995652" lon="11.171027"><ele>264.0</ele><time>2026-04-25T12:51:27.311Z</time></trkpt><trkpt lat="45.4997117" lon="11.1709099"><ele>264.0</ele><time>2026-04-25T12:51:28.31Z</time></trkpt><trkpt lat="45.499859" lon="11.1707927"><ele>265.0</ele><time>2026-04-25T12:51:29.31Z</time></trkpt><trkpt lat="45.5000091" lon="11.1706743"><ele>266.0</ele><time>2026-04-25T12:51:30.31Z</time></trkpt><trkpt lat="45.5001584" lon="11.1705591"><ele>267.0</ele><time>2026-04-25T12:51:31.31Z</time></trkpt><trkpt lat="45.5003097" lon="11.1704412"><ele>267.6666666666667</ele><time>2026-04-25T12:51:32.31Z</time></trkpt><trkpt lat="45.5004648" lon="11.1703168"><ele>268.33333333333337</ele><time>2026-04-25T12:51:33.31Z</time></trkpt><trkpt lat="45.50062" lon="11.170193"><ele>269.0</ele><time>2026-04-25T12:51:34.311Z</time></trkpt><trkpt lat="45.5007757" lon="11.1700688"><ele>269.0</ele><time>2026-04-25T12:51:35.31Z</time></trkpt><trkpt lat="45.500933" lon="11.169947"><ele>269.0</ele><time>2026-04-25T12:51:36.311Z</time></trkpt><trkpt lat="45.5010894" lon="11.169827"><ele>269.0</ele><time>2026-04-25T12:51:37.311Z</time></trkpt><trkpt lat="45.5012431" lon="11.1697064"><ele>270.0</ele><time>2026-04-25T12:51:38.31Z</time></trkpt><trkpt lat="45.5013938" lon="11.1695875"><ele>271.0</ele><time>2026-04-25T12:51:39.311Z</time></trkpt><trkpt lat="45.5015426" lon="11.1694724"><ele>272.0</ele><time>2026-04-25T12:51:40.31Z</time></trkpt><trkpt lat="45.5016883" lon="11.1693594"><ele>272.0</ele><time>2026-04-25T12:51:41.31Z</time></trkpt><trkpt lat="45.5018317" lon="11.1692445"><ele>272.0</ele><time>2026-04-25T12:51:42.31Z</time></trkpt><trkpt lat="45.5019696" lon="11.1691154"><ele>272.0</ele><time>2026-04-25T12:51:43.31Z</time></trkpt><trkpt lat="45.5021003" lon="11.1689695"><ele>273.0</ele><time>2026-04-25T12:51:44.31Z</time></trkpt><trkpt lat="45.5022303" lon="11.1688066"><ele>274.0</ele><time>2026-04-25T12:51:45.31Z</time></trkpt><trkpt lat="45.5023508" lon="11.1686382"><ele>275.0</ele><time>2026-04-25T12:51:46.31Z</time></trkpt><trkpt lat="45.5024636" lon="11.1684602"><ele>275.0</ele><time>2026-04-25T12:51:47.31Z</time></trkpt><trkpt lat="45.5025697" lon="11.168273"><ele>275.0</ele><time>2026-04-25T12:51:48.312Z</time></trkpt><trkpt lat="45.5026754" lon="11.1680794"><ele>275.0</ele><time>2026-04-25T12:51:49.312Z</time></trkpt><trkpt lat="45.5027798" lon="11.1678815"><ele>275.33333333333337</ele><time>2026-04-25T12:51:50.312Z</time></trkpt><trkpt lat="45.5028816" lon="11.1676794"><ele>275.6666666666667</ele><time>2026-04-25T12:51:51.311Z</time></trkpt><trkpt lat="45.502983" lon="11.1674731"><ele>276.0</ele><time>2026-04-25T12:51:52.311Z</time></trkpt><trkpt lat="45.5030815" lon="11.1672712"><ele>276.6666666666667</ele><time>2026-04-25T12:51:53.312Z</time></trkpt><trkpt lat="45.5031848" lon="11.1670706"><ele>277.33333333333337</ele><time>2026-04-25T12:51:54.311Z</time></trkpt><trkpt lat="45.50329" lon="11.1668725"><ele>278.0</ele><time>2026-04-25T12:51:55.311Z</time></trkpt><trkpt lat="45.5033978" lon="11.1666752"><ele>277.6666666666667</ele><time>2026-04-25T12:51:56.311Z</time></trkpt><trkpt lat="45.5035071" lon="11.1664747"><ele>277.3333333333333</ele><time>2026-04-25T12:51:57.312Z</time></trkpt><trkpt lat="45.5036191" lon="11.1662677"><ele>277.0</ele><time>2026-04-25T12:51:58.311Z</time></trkpt><trkpt lat="45.5037318" lon="11.166061"><ele>278.66666666666663</ele><time>2026-04-25T12:51:59.311Z</time></trkpt><trkpt lat="45.5038456" lon="11.1658468"><ele>280.3333333333333</ele><time>2026-04-25T12:52:00.311Z</time></trkpt><trkpt lat="45.5039589" lon="11.1656327"><ele>282.0</ele><time>2026-04-25T12:52:01.311Z</time></trkpt><trkpt lat="45.5040709" lon="11.1654219"><ele>282.0</ele><time>2026-04-25T12:52:02.311Z</time></trkpt><trkpt lat="45.5041833" lon="11.1652163"><ele>282.0</ele><time>2026-04-25T12:52:03.311Z</time></trkpt><trkpt lat="45.5042997" lon="11.1650107"><ele>282.0</ele><time>2026-04-25T12:52:04.311Z</time></trkpt><trkpt lat="45.5044143" lon="11.1648176"><ele>282.0</ele><time>2026-04-25T12:52:05.311Z</time></trkpt><trkpt lat="45.5045401" lon="11.1646345"><ele>282.0</ele><time>2026-04-25T12:52:06.311Z</time></trkpt><trkpt lat="45.5046754" lon="11.1644714"><ele>282.0</ele><time>2026-04-25T12:52:07.311Z</time></trkpt><trkpt lat="45.5048191" lon="11.164325"><ele>281.6666666666667</ele><time>2026-04-25T12:52:08.311Z</time></trkpt><trkpt lat="45.5049631" lon="11.1641882"><ele>281.33333333333337</ele><time>2026-04-25T12:52:09.312Z</time></trkpt><trkpt lat="45.5051055" lon="11.1640682"><ele>281.0</ele><time>2026-04-25T12:52:10.312Z</time></trkpt><trkpt lat="45.5052494" lon="11.1639606"><ele>281.0</ele><time>2026-04-25T12:52:11.311Z</time></trkpt><trkpt lat="45.5053723" lon="11.1638574"><ele>281.0</ele><time>2026-04-25T12:52:12.311Z</time></trkpt><trkpt lat="45.5054865" lon="11.1637664"><ele>281.0</ele><time>2026-04-25T12:52:13.311Z</time></trkpt><trkpt lat="45.5055987" lon="11.1636913"><ele>281.0</ele><time>2026-04-25T12:52:14.311Z</time></trkpt><trkpt lat="45.5057366" lon="11.1636449"><ele>282.0</ele><time>2026-04-25T12:52:15.311Z</time></trkpt><trkpt lat="45.5058693" lon="11.163604"><ele>283.0</ele><time>2026-04-25T12:52:16.311Z</time></trkpt><trkpt lat="45.5060096" lon="11.1635736"><ele>284.0</ele><time>2026-04-25T12:52:17.312Z</time></trkpt><trkpt lat="45.5061467" lon="11.1635457"><ele>285.0</ele><time>2026-04-25T12:52:18.311Z</time></trkpt><trkpt lat="45.5062814" lon="11.1635139"><ele>286.6666666666667</ele><time>2026-04-25T12:52:19.312Z</time></trkpt><trkpt lat="45.5064274" lon="11.1634726"><ele>288.33333333333337</ele><time>2026-04-25T12:52:20.311Z</time></trkpt><trkpt lat="45.5065801" lon="11.1634271"><ele>290.0</ele><time>2026-04-25T12:52:21.312Z</time></trkpt><trkpt lat="45.5067431" lon="11.1633802"><ele>290.0</ele><time>2026-04-25T12:52:22.311Z</time></trkpt><trkpt lat="45.5069123" lon="11.1633236"><ele>290.0</ele><time>2026-04-25T12:52:23.311Z</time></trkpt><trkpt lat="45.5070871" lon="11.1632741"><ele>290.0</ele><time>2026-04-25T12:52:24.312Z</time></trkpt><trkpt lat="45.5072634" lon="11.1632227"><ele>290.33333333333337</ele><time>2026-04-25T12:52:25.311Z</time></trkpt><trkpt lat="45.5074374" lon="11.1631789"><ele>290.6666666666667</ele><time>2026-04-25T12:52:26.311Z</time></trkpt><trkpt lat="45.5075985" lon="11.1631281"><ele>291.0</ele><time>2026-04-25T12:52:27.311Z</time></trkpt><trkpt lat="45.5077576" lon="11.1630785"><ele>291.6666666666667</ele><time>2026-04-25T12:52:28.311Z</time></trkpt><trkpt lat="45.5079148" lon="11.1630324"><ele>292.33333333333337</ele><time>2026-04-25T12:52:29.311Z</time></trkpt><trkpt lat="45.5080933" lon="11.1629997"><ele>293.0</ele><time>2026-04-25T12:52:30.312Z</time></trkpt><trkpt lat="45.5082516" lon="11.1629534"><ele>293.0</ele><time>2026-04-25T12:52:31.312Z</time></trkpt><trkpt lat="45.5084119" lon="11.1629062"><ele>293.0</ele><time>2026-04-25T12:52:32.311Z</time></trkpt><trkpt lat="45.5085823" lon="11.1628537"><ele>293.0</ele><time>2026-04-25T12:52:33.312Z</time></trkpt><trkpt lat="45.5087562" lon="11.1627986"><ele>294.33333333333337</ele><time>2026-04-25T12:52:34.311Z</time></trkpt><trkpt lat="45.5089295" lon="11.1627467"><ele>295.6666666666667</ele><time>2026-04-25T12:52:35.311Z</time></trkpt><trkpt lat="45.5091046" lon="11.1626923"><ele>297.0</ele><time>2026-04-25T12:52:36.311Z</time></trkpt><trkpt lat="45.5092842" lon="11.1626324"><ele>297.0</ele><time>2026-04-25T12:52:37.311Z</time></trkpt><trkpt lat="45.5094695" lon="11.1625648"><ele>297.0</ele><time>2026-04-25T12:52:38.311Z</time></trkpt><trkpt lat="45.5096568" lon="11.1624935"><ele>297.0</ele><time>2026-04-25T12:52:39.312Z</time></trkpt><trkpt lat="45.5098452" lon="11.1624255"><ele>297.3333333333333</ele><time>2026-04-25T12:52:40.312Z</time></trkpt><trkpt lat="45.5100368" lon="11.162362"><ele>297.66666666666663</ele><time>2026-04-25T12:52:41.312Z</time></trkpt><trkpt lat="45.5102318" lon="11.1623052"><ele>298.0</ele><time>2026-04-25T12:52:42.311Z</time></trkpt><trkpt lat="45.510419" lon="11.1622527"><ele>298.66666666666663</ele><time>2026-04-25T12:52:43.311Z</time></trkpt><trkpt lat="45.5105952" lon="11.162202"><ele>299.3333333333333</ele><time>2026-04-25T12:52:44.312Z</time></trkpt><trkpt lat="45.510769" lon="11.1621467"><ele>300.0</ele><time>2026-04-25T12:52:45.311Z</time></trkpt><trkpt lat="45.5109409" lon="11.1620912"><ele>300.0</ele><time>2026-04-25T12:52:46.311Z</time></trkpt><trkpt lat="45.5111168" lon="11.1620389"><ele>300.0</ele><time>2026-04-25T12:52:47.312Z</time></trkpt><trkpt lat="45.5112963" lon="11.1619825"><ele>300.0</ele><time>2026-04-25T12:52:48.311Z</time></trkpt><trkpt lat="45.5114742" lon="11.1619274"><ele>301.3333333333333</ele><time>2026-04-25T12:52:49.311Z</time></trkpt><trkpt lat="45.5116532" lon="11.16187"><ele>302.66666666666663</ele><time>2026-04-25T12:52:50.312Z</time></trkpt><trkpt lat="45.5118302" lon="11.1618138"><ele>304.0</ele><time>2026-04-25T12:52:51.311Z</time></trkpt><trkpt lat="45.5120099" lon="11.1617538"><ele>305.0</ele><time>2026-04-25T12:52:52.312Z</time></trkpt><trkpt lat="45.5121929" lon="11.1616949"><ele>306.0</ele><time>2026-04-25T12:52:53.312Z</time></trkpt><trkpt lat="45.5123782" lon="11.1616337"><ele>307.0</ele><time>2026-04-25T12:52:54.312Z</time></trkpt><trkpt lat="45.5125611" lon="11.1615761"><ele>307.0</ele><time>2026-04-25T12:52:55.312Z</time></trkpt><trkpt lat="45.5127367" lon="11.1615206"><ele>307.0</ele><time>2026-04-25T12:52:56.312Z</time></trkpt><trkpt lat="45.512908" lon="11.1614671"><ele>307.0</ele><time>2026-04-25T12:52:57.312Z</time></trkpt><trkpt lat="45.5130742" lon="11.1614137"><ele>307.0</ele><time>2026-04-25T12:52:58.312Z</time></trkpt><trkpt lat="45.5132403" lon="11.1613573"><ele>307.0</ele><time>2026-04-25T12:52:59.313Z</time></trkpt><trkpt lat="45.5134081" lon="11.1613019"><ele>307.0</ele><time>2026-04-25T12:53:00.312Z</time></trkpt><trkpt lat="45.5135768" lon="11.1612505"><ele>308.3333333333333</ele><time>2026-04-25T12:53:01.312Z</time></trkpt><trkpt lat="45.5137428" lon="11.1612062"><ele>309.6666666666667</ele><time>2026-04-25T12:53:02.313Z</time></trkpt><trkpt lat="45.5139079" lon="11.1611702"><ele>311.0</ele><time>2026-04-25T12:53:03.312Z</time></trkpt><trkpt lat="45.514074" lon="11.1611371"><ele>311.0</ele><time>2026-04-25T12:53:04.313Z</time></trkpt><trkpt lat="45.5142405" lon="11.1611058"><ele>311.0</ele><time>2026-04-25T12:53:05.313Z</time></trkpt><trkpt lat="45.5144109" lon="11.1610772"><ele>311.0</ele><time>2026-04-25T12:53:06.312Z</time></trkpt><trkpt lat="45.5145808" lon="11.1610435"><ele>312.0</ele><time>2026-04-25T12:53:07.312Z</time></trkpt><trkpt lat="45.5147525" lon="11.1610105"><ele>313.0</ele><time>2026-04-25T12:53:08.312Z</time></trkpt><trkpt lat="45.5149229" lon="11.1609765"><ele>314.0</ele><time>2026-04-25T12:53:09.313Z</time></trkpt><trkpt lat="45.5150942" lon="11.1609416"><ele>314.0</ele><time>2026-04-25T12:53:10.312Z</time></trkpt><trkpt lat="45.5152658" lon="11.1609084"><ele>314.0</ele><time>2026-04-25T12:53:11.312Z</time></trkpt><trkpt lat="45.5154344" lon="11.160876"><ele>314.0</ele><time>2026-04-25T12:53:12.312Z</time></trkpt><trkpt lat="45.515598" lon="11.1608444"><ele>314.0</ele><time>2026-04-25T12:53:13.313Z</time></trkpt><trkpt lat="45.5157631" lon="11.1608092"><ele>314.0</ele><time>2026-04-25T12:53:14.312Z</time></trkpt><trkpt lat="45.515924" lon="11.1607774"><ele>314.0</ele><time>2026-04-25T12:53:15.312Z</time></trkpt><trkpt lat="45.516081" lon="11.1607487"><ele>314.6666666666667</ele><time>2026-04-25T12:53:16.312Z</time></trkpt><trkpt lat="45.5162395" lon="11.1607191"><ele>315.3333333333333</ele><time>2026-04-25T12:53:17.312Z</time></trkpt><trkpt lat="45.5164029" lon="11.1606893"><ele>316.0</ele><time>2026-04-25T12:53:18.313Z</time></trkpt><trkpt lat="45.5165671" lon="11.160652"><ele>316.0</ele><time>2026-04-25T12:53:19.312Z</time></trkpt><trkpt lat="45.5167389" lon="11.1606073"><ele>316.0</ele><time>2026-04-25T12:53:20.312Z</time></trkpt><trkpt lat="45.5169111" lon="11.1605526"><ele>316.0</ele><time>2026-04-25T12:53:21.312Z</time></trkpt><trkpt lat="45.5170807" lon="11.1604845"><ele>317.0</ele><time>2026-04-25T12:53:22.313Z</time></trkpt><trkpt lat="45.5172489" lon="11.1604067"><ele>318.0</ele><time>2026-04-25T12:53:23.312Z</time></trkpt><trkpt lat="45.5174176" lon="11.160321"><ele>319.0</ele><time>2026-04-25T12:53:24.312Z</time></trkpt><trkpt lat="45.5175864" lon="11.1602351"><ele>319.0</ele><time>2026-04-25T12:53:25.312Z</time></trkpt><trkpt lat="45.5177567" lon="11.1601481"><ele>319.0</ele><time>2026-04-25T12:53:26.312Z</time></trkpt><trkpt lat="45.5179219" lon="11.1600626"><ele>319.0</ele><time>2026-04-25T12:53:27.312Z</time></trkpt><trkpt lat="45.5180824" lon="11.1599777"><ele>319.3333333333333</ele><time>2026-04-25T12:53:28.313Z</time></trkpt><trkpt lat="45.5182415" lon="11.1598957"><ele>319.6666666666667</ele><time>2026-04-25T12:53:29.313Z</time></trkpt><trkpt lat="45.5183988" lon="11.159813"><ele>320.0</ele><time>2026-04-25T12:53:30.313Z</time></trkpt><trkpt lat="45.5185501" lon="11.1597364"><ele>320.0</ele><time>2026-04-25T12:53:31.313Z</time></trkpt><trkpt lat="45.5186945" lon="11.1596637"><ele>320.0</ele><time>2026-04-25T12:53:32.313Z</time></trkpt><trkpt lat="45.5188359" lon="11.1595926"><ele>320.0</ele><time>2026-04-25T12:53:33.312Z</time></trkpt><trkpt lat="45.5189743" lon="11.1595206"><ele>321.25</ele><time>2026-04-25T12:53:34.312Z</time></trkpt><trkpt lat="45.5191094" lon="11.15945"><ele>322.5</ele><time>2026-04-25T12:53:35.312Z</time></trkpt><trkpt lat="45.5192439" lon="11.159382"><ele>323.75</ele><time>2026-04-25T12:53:36.313Z</time></trkpt><trkpt lat="45.5193807" lon="11.1593145"><ele>325.0</ele><time>2026-04-25T12:53:37.313Z</time></trkpt><trkpt lat="45.5195217" lon="11.1592475"><ele>326.0</ele><time>2026-04-25T12:53:38.312Z</time></trkpt><trkpt lat="45.5196686" lon="11.1591813"><ele>327.0</ele><time>2026-04-25T12:53:39.313Z</time></trkpt><trkpt lat="45.5198186" lon="11.1591171"><ele>328.0</ele><time>2026-04-25T12:53:40.312Z</time></trkpt><trkpt lat="45.5199674" lon="11.1590557"><ele>327.75</ele><time>2026-04-25T12:53:41.312Z</time></trkpt><trkpt lat="45.5201048" lon="11.1590053"><ele>327.5</ele><time>2026-04-25T12:53:42.313Z</time></trkpt><trkpt lat="45.5202253" lon="11.1589714"><ele>327.25</ele><time>2026-04-25T12:53:43.312Z</time></trkpt><trkpt lat="45.5203447" lon="11.1589354"><ele>327.0</ele><time>2026-04-25T12:53:44.312Z</time></trkpt><trkpt lat="45.5204607" lon="11.1589144"><ele>327.3333333333333</ele><time>2026-04-25T12:53:45.313Z</time></trkpt><trkpt lat="45.5205707" lon="11.1588863"><ele>327.6666666666667</ele><time>2026-04-25T12:53:46.312Z</time></trkpt><trkpt lat="45.5206656" lon="11.1588716"><ele>328.0</ele><time>2026-04-25T12:53:47.313Z</time></trkpt><trkpt lat="45.520742" lon="11.1588645"><ele>328.33333333333337</ele><time>2026-04-25T12:53:48.312Z</time></trkpt><trkpt lat="45.5208118" lon="11.1588702"><ele>328.6666666666667</ele><time>2026-04-25T12:53:49.313Z</time></trkpt><trkpt lat="45.5208861" lon="11.1588798"><ele>329.0</ele><time>2026-04-25T12:53:50.312Z</time></trkpt><trkpt lat="45.5209739" lon="11.1588779"><ele>329.0</ele><time>2026-04-25T12:53:51.312Z</time></trkpt><trkpt lat="45.5210484" lon="11.1588373"><ele>329.0</ele><time>2026-04-25T12:53:52.312Z</time></trkpt><trkpt lat="45.5210869" lon="11.1587481"><ele>329.0</ele><time>2026-04-25T12:53:53.313Z</time></trkpt><trkpt lat="45.5210994" lon="11.1586491"><ele>329.0</ele><time>2026-04-25T12:53:54.312Z</time></trkpt><trkpt lat="45.5211019" lon="11.1585459"><ele>329.0</ele><time>2026-04-25T12:53:55.313Z</time></trkpt><trkpt lat="45.5210762" lon="11.1584023"><ele>329.0</ele><time>2026-04-25T12:53:56.312Z</time></trkpt><trkpt lat="45.5210267" lon="11.158216"><ele>329.5</ele><time>2026-04-25T12:53:57.313Z</time></trkpt><trkpt lat="45.5209965" lon="11.1580138"><ele>330.0</ele><time>2026-04-25T12:53:58.313Z</time></trkpt><trkpt lat="45.5209757" lon="11.1578069"><ele>330.5</ele><time>2026-04-25T12:53:59.313Z</time></trkpt><trkpt lat="45.520978" lon="11.1575992"><ele>331.0</ele><time>2026-04-25T12:54:00.314Z</time></trkpt><trkpt lat="45.5209938" lon="11.1573859"><ele>332.0</ele><time>2026-04-25T12:54:01.314Z</time></trkpt><trkpt lat="45.5210146" lon="11.1571767"><ele>333.0</ele><time>2026-04-25T12:54:02.314Z</time></trkpt><trkpt lat="45.5210333" lon="11.156969"><ele>334.0</ele><time>2026-04-25T12:54:03.314Z</time></trkpt><trkpt lat="45.5210472" lon="11.1567726"><ele>335.0</ele><time>2026-04-25T12:54:04.313Z</time></trkpt><trkpt lat="45.5210562" lon="11.1565915"><ele>335.2</ele><time>2026-04-25T12:54:05.314Z</time></trkpt><trkpt lat="45.521064" lon="11.156423"><ele>335.4</ele><time>2026-04-25T12:54:06.313Z</time></trkpt><trkpt lat="45.5210738" lon="11.1562617"><ele>335.6</ele><time>2026-04-25T12:54:07.314Z</time></trkpt><trkpt lat="45.5210867" lon="11.1561084"><ele>335.8</ele><time>2026-04-25T12:54:08.313Z</time></trkpt><trkpt lat="45.5211034" lon="11.1559705"><ele>336.0</ele><time>2026-04-25T12:54:09.313Z</time></trkpt><trkpt lat="45.5211191" lon="11.1558563"><ele>336.0</ele><time>2026-04-25T12:54:10.313Z</time></trkpt><trkpt lat="45.5211393" lon="11.1557653"><ele>336.0</ele><time>2026-04-25T12:54:11.314Z</time></trkpt><trkpt lat="45.5211908" lon="11.1556315"><ele>336.0</ele><time>2026-04-25T12:54:13.314Z</time></trkpt><trkpt lat="45.5212577" lon="11.1555826"><ele>336.0</ele><time>2026-04-25T12:54:14.313Z</time></trkpt><trkpt lat="45.5213817" lon="11.1555174"><ele>336.0</ele><time>2026-04-25T12:54:15.313Z</time></trkpt><trkpt lat="45.5215339" lon="11.1554604"><ele>337.0</ele><time>2026-04-25T12:54:16.313Z</time></trkpt><trkpt lat="45.5216733" lon="11.1553749"><ele>338.0</ele><time>2026-04-25T12:54:17.314Z</time></trkpt><trkpt lat="45.5218058" lon="11.1552791"><ele>339.0</ele><time>2026-04-25T12:54:18.313Z</time></trkpt><trkpt lat="45.5219325" lon="11.1551886"><ele>340.0</ele><time>2026-04-25T12:54:19.314Z</time></trkpt><trkpt lat="45.5220555" lon="11.1550936"><ele>340.25</ele><time>2026-04-25T12:54:20.313Z</time></trkpt><trkpt lat="45.5221787" lon="11.1549962"><ele>340.5</ele><time>2026-04-25T12:54:21.313Z</time></trkpt><trkpt lat="45.522295" lon="11.1548979"><ele>340.75</ele><time>2026-04-25T12:54:22.313Z</time></trkpt><trkpt lat="45.5224019" lon="11.1548101"><ele>341.0</ele><time>2026-04-25T12:54:23.314Z</time></trkpt><trkpt lat="45.5225007" lon="11.1547332"><ele>341.4</ele><time>2026-04-25T12:54:24.314Z</time></trkpt><trkpt lat="45.5225959" lon="11.154656"><ele>341.8</ele><time>2026-04-25T12:54:25.314Z</time></trkpt><trkpt lat="45.5226858" lon="11.1545856"><ele>342.2</ele><time>2026-04-25T12:54:26.313Z</time></trkpt><trkpt lat="45.5227717" lon="11.1545208"><ele>342.59999999999997</ele><time>2026-04-25T12:54:27.313Z</time></trkpt><trkpt lat="45.5228532" lon="11.1544575"><ele>343.0</ele><time>2026-04-25T12:54:28.313Z</time></trkpt><trkpt lat="45.5229275" lon="11.1543957"><ele>343.0</ele><time>2026-04-25T12:54:29.314Z</time></trkpt><trkpt lat="45.5229956" lon="11.1543268"><ele>343.0</ele><time>2026-04-25T12:54:30.314Z</time></trkpt><trkpt lat="45.52304" lon="11.1542407"><ele>343.0</ele><time>2026-04-25T12:54:31.313Z</time></trkpt><trkpt lat="45.5230553" lon="11.1541312"><ele>343.0</ele><time>2026-04-25T12:54:32.314Z</time></trkpt><trkpt lat="45.5230504" lon="11.1540051"><ele>343.0</ele><time>2026-04-25T12:54:33.314Z</time></trkpt><trkpt lat="45.5230293" lon="11.1538449"><ele>343.0</ele><time>2026-04-25T12:54:34.313Z</time></trkpt><trkpt lat="45.522992" lon="11.1536493"><ele>343.75</ele><time>2026-04-25T12:54:35.313Z</time></trkpt><trkpt lat="45.5229465" lon="11.153438"><ele>344.5</ele><time>2026-04-25T12:54:36.314Z</time></trkpt><trkpt lat="45.5229003" lon="11.1532371"><ele>345.25</ele><time>2026-04-25T12:54:37.314Z</time></trkpt><trkpt lat="45.5228624" lon="11.1530562"><ele>346.0</ele><time>2026-04-25T12:54:38.313Z</time></trkpt><trkpt lat="45.5228336" lon="11.1528917"><ele>352.8</ele><time>2026-04-25T12:54:39.313Z</time></trkpt><trkpt lat="45.5228131" lon="11.1527448"><ele>359.6</ele><time>2026-04-25T12:54:40.313Z</time></trkpt><trkpt lat="45.5228009" lon="11.1526245"><ele>366.4</ele><time>2026-04-25T12:54:41.313Z</time></trkpt><trkpt lat="45.5228178" lon="11.1524698"><ele>373.2</ele><time>2026-04-25T12:54:43.314Z</time></trkpt><trkpt lat="45.5227935" lon="11.1523727"><ele>380.0</ele><time>2026-04-25T12:54:45.314Z</time></trkpt><trkpt lat="45.5227153" lon="11.1524361"><ele>380.0</ele><time>2026-04-25T12:54:47.314Z</time></trkpt><trkpt lat="45.5226843" lon="11.1525353"><ele>380.0</ele><time>2026-04-25T12:54:48.313Z</time></trkpt><trkpt lat="45.5226534" lon="11.1526343"><ele>380.0</ele><time>2026-04-25T12:54:49.313Z</time></trkpt><trkpt lat="45.5226534" lon="11.1527747"><ele>380.0</ele><time>2026-04-25T12:54:50.314Z</time></trkpt><trkpt lat="45.5226625" lon="11.1529246"><ele>380.0</ele><time>2026-04-25T12:54:51.314Z</time></trkpt><trkpt lat="45.5226745" lon="11.1530807"><ele>376.5</ele><time>2026-04-25T12:54:52.314Z</time></trkpt><trkpt lat="45.5226946" lon="11.1532568"><ele>373.0</ele><time>2026-04-25T12:54:53.313Z</time></trkpt><trkpt lat="45.5226828" lon="11.153411"><ele>369.5</ele><time>2026-04-25T12:54:54.314Z</time></trkpt><trkpt lat="45.52265" lon="11.15355"><ele>366.0</ele><time>2026-04-25T12:54:55.314Z</time></trkpt><trkpt lat="45.5225759" lon="11.1536723"><ele>366.0</ele><time>2026-04-25T12:54:56.313Z</time></trkpt><trkpt lat="45.5224793" lon="11.153767"><ele>366.0</ele><time>2026-04-25T12:54:57.314Z</time></trkpt><trkpt lat="45.5223832" lon="11.1538268"><ele>366.0</ele><time>2026-04-25T12:54:58.313Z</time></trkpt><trkpt lat="45.5223047" lon="11.1538502"><ele>366.0</ele><time>2026-04-25T12:54:59.314Z</time></trkpt><trkpt lat="45.5222411" lon="11.1538327"><ele>366.0</ele><time>2026-04-25T12:55:00.313Z</time></trkpt><trkpt lat="45.5221842" lon="11.1537791"><ele>366.0</ele><time>2026-04-25T12:55:01.313Z</time></trkpt><trkpt lat="45.5221154" lon="11.1536823"><ele>366.25</ele><time>2026-04-25T12:55:02.314Z</time></trkpt><trkpt lat="45.5220551" lon="11.1535394"><ele>366.5</ele><time>2026-04-25T12:55:03.314Z</time></trkpt><trkpt lat="45.5220056" lon="11.1533699"><ele>366.75</ele><time>2026-04-25T12:55:04.315Z</time></trkpt><trkpt lat="45.5219707" lon="11.1531976"><ele>367.0</ele><time>2026-04-25T12:55:05.315Z</time></trkpt><trkpt lat="45.5219564" lon="11.1530061"><ele>367.0</ele><time>2026-04-25T12:55:06.314Z</time></trkpt><trkpt lat="45.5219428" lon="11.1528052"><ele>367.0</ele><time>2026-04-25T12:55:07.314Z</time></trkpt><trkpt lat="45.5219278" lon="11.1525886"><ele>367.0</ele><time>2026-04-25T12:55:08.314Z</time></trkpt><trkpt lat="45.5219168" lon="11.1523722"><ele>367.0</ele><time>2026-04-25T12:55:09.315Z</time></trkpt><trkpt lat="45.5219035" lon="11.1521832"><ele>369.0</ele><time>2026-04-25T12:55:10.314Z</time></trkpt><trkpt lat="45.5218826" lon="11.1520122"><ele>371.0</ele><time>2026-04-25T12:55:11.314Z</time></trkpt><trkpt lat="45.5218617" lon="11.1518655"><ele>373.0</ele><time>2026-04-25T12:55:12.314Z</time></trkpt><trkpt lat="45.5218401" lon="11.1517351"><ele>375.0</ele><time>2026-04-25T12:55:13.314Z</time></trkpt><trkpt lat="45.5218273" lon="11.1516436"><ele>377.0</ele><time>2026-04-25T12:55:14.314Z</time></trkpt><trkpt lat="45.52179" lon="11.1515003"><ele>377.0</ele><time>2026-04-25T12:55:16.314Z</time></trkpt><trkpt lat="45.5218792" lon="11.1514984"><ele>377.0</ele><time>2026-04-25T12:55:18.315Z</time></trkpt><trkpt lat="45.5219255" lon="11.1515776"><ele>377.0</ele><time>2026-04-25T12:55:19.314Z</time></trkpt><trkpt lat="45.5219801" lon="11.1516892"><ele>377.0</ele><time>2026-04-25T12:55:20.314Z</time></trkpt><trkpt lat="45.5220208" lon="11.151787"><ele>377.0</ele><time>2026-04-25T12:55:21.315Z</time></trkpt><trkpt lat="45.5220774" lon="11.1518529"><ele>377.0</ele><time>2026-04-25T12:55:22.315Z</time></trkpt><trkpt lat="45.5221565" lon="11.1518891"><ele>379.1666666666667</ele><time>2026-04-25T12:55:23.314Z</time></trkpt><trkpt lat="45.5222468" lon="11.1519173"><ele>381.33333333333337</ele><time>2026-04-25T12:55:24.314Z</time></trkpt><trkpt lat="45.5223226" lon="11.1519328"><ele>383.5</ele><time>2026-04-25T12:55:25.314Z</time></trkpt><trkpt lat="45.5223761" lon="11.151868"><ele>385.6666666666667</ele><time>2026-04-25T12:55:27.314Z</time></trkpt><trkpt lat="45.5223199" lon="11.1517381"><ele>387.8333333333333</ele><time>2026-04-25T12:55:29.314Z</time></trkpt><trkpt lat="45.5222684" lon="11.1516842"><ele>390.0</ele><time>2026-04-25T12:55:30.314Z</time></trkpt><trkpt lat="45.522239" lon="11.1515234"><ele>392.4</ele><time>2026-04-25T12:55:32.315Z</time></trkpt><trkpt lat="45.5222772" lon="11.1514103"><ele>394.8</ele><time>2026-04-25T12:55:33.314Z</time></trkpt><trkpt lat="45.5223045" lon="11.151268"><ele>397.20000000000005</ele><time>2026-04-25T12:55:34.314Z</time></trkpt><trkpt lat="45.5223114" lon="11.1510834"><ele>399.6</ele><time>2026-04-25T12:55:35.315Z</time></trkpt><trkpt lat="45.5223217" lon="11.1509157"><ele>402.0</ele><time>2026-04-25T12:55:36.314Z</time></trkpt><trkpt lat="45.5223347" lon="11.1507764"><ele>406.5</ele><time>2026-04-25T12:55:37.315Z</time></trkpt><trkpt lat="45.5223643" lon="11.150663"><ele>411.0</ele><time>2026-04-25T12:55:38.314Z</time></trkpt><trkpt lat="45.5224339" lon="11.1505475"><ele>415.5</ele><time>2026-04-25T12:55:39.314Z</time></trkpt><trkpt lat="45.5225615" lon="11.1504556"><ele>420.0</ele><time>2026-04-25T12:55:40.314Z</time></trkpt><trkpt lat="45.5226748" lon="11.1503249"><ele>420.0</ele><time>2026-04-25T12:55:41.314Z</time></trkpt><trkpt lat="45.5227799" lon="11.1502329"><ele>420.0</ele><time>2026-04-25T12:55:42.314Z</time></trkpt><trkpt lat="45.5228981" lon="11.1501442"><ele>420.0</ele><time>2026-04-25T12:55:43.315Z</time></trkpt><trkpt lat="45.5229591" lon="11.1500954"><ele>420.0</ele><time>2026-04-25T12:55:44.314Z</time></trkpt><trkpt lat="45.5229868" lon="11.1500021"><ele>420.0</ele><time>2026-04-25T12:55:46.314Z</time></trkpt><trkpt lat="45.5228613" lon="11.1500116"><ele>420.0</ele><time>2026-04-25T12:55:48.315Z</time></trkpt><trkpt lat="45.5227671" lon="11.1501019"><ele>420.0</ele><time>2026-04-25T12:55:49.314Z</time></trkpt><trkpt lat="45.5226595" lon="11.1501621"><ele>420.0</ele><time>2026-04-25T12:55:50.315Z</time></trkpt><trkpt lat="45.5225419" lon="11.150207"><ele>420.0</ele><time>2026-04-25T12:55:51.315Z</time></trkpt><trkpt lat="45.5224295" lon="11.1502367"><ele>420.0</ele><time>2026-04-25T12:55:52.315Z</time></trkpt><trkpt lat="45.5223383" lon="11.1502608"><ele>420.0</ele><time>2026-04-25T12:55:53.314Z</time></trkpt><trkpt lat="45.5222606" lon="11.1502714"><ele>420.0</ele><time>2026-04-25T12:55:54.314Z</time></trkpt><trkpt lat="45.5221954" lon="11.1502328"><ele>420.0</ele><time>2026-04-25T12:55:55.314Z</time></trkpt><trkpt lat="45.522159" lon="11.1501382"><ele>420.0</ele><time>2026-04-25T12:55:56.314Z</time></trkpt><trkpt lat="45.5221411" lon="11.149979"><ele>420.0</ele><time>2026-04-25T12:55:57.314Z</time></trkpt><trkpt lat="45.5221489" lon="11.1497939"><ele>421.33333333333337</ele><time>2026-04-25T12:55:58.315Z</time></trkpt><trkpt lat="45.5221751" lon="11.1495726"><ele>422.6666666666667</ele><time>2026-04-25T12:55:59.315Z</time></trkpt><trkpt lat="45.5222059" lon="11.1493191"><ele>424.0</ele><time>2026-04-25T12:56:00.314Z</time></trkpt><trkpt lat="45.522187" lon="11.1491262"><ele>424.6666666666667</ele><time>2026-04-25T12:56:01.315Z</time></trkpt><trkpt lat="45.5221362" lon="11.1489331"><ele>425.33333333333337</ele><time>2026-04-25T12:56:02.314Z</time></trkpt><trkpt lat="45.5220732" lon="11.1487229"><ele>426.0</ele><time>2026-04-25T12:56:03.314Z</time></trkpt><trkpt lat="45.5220006" lon="11.1485047"><ele>426.0</ele><time>2026-04-25T12:56:04.315Z</time></trkpt><trkpt lat="45.5219277" lon="11.1483139"><ele>426.0</ele><time>2026-04-25T12:56:05.314Z</time></trkpt><trkpt lat="45.5218562" lon="11.1481624"><ele>426.0</ele><time>2026-04-25T12:56:06.315Z</time></trkpt><trkpt lat="45.5217919" lon="11.1480538"><ele>426.0</ele><time>2026-04-25T12:56:07.315Z</time></trkpt><trkpt lat="45.5217403" lon="11.1479704"><ele>428.8</ele><time>2026-04-25T12:56:08.316Z</time></trkpt><trkpt lat="45.5216808" lon="11.1478605"><ele>431.6</ele><time>2026-04-25T12:56:10.316Z</time></trkpt><trkpt lat="45.5217122" lon="11.1477824"><ele>434.4</ele><time>2026-04-25T12:56:12.315Z</time></trkpt><trkpt lat="45.52183" lon="11.1478299"><ele>437.2</ele><time>2026-04-25T12:56:14.316Z</time></trkpt><trkpt lat="45.5219137" lon="11.1479364"><ele>440.0</ele><time>2026-04-25T12:56:15.315Z</time></trkpt><trkpt lat="45.5220185" lon="11.1480425"><ele>440.4</ele><time>2026-04-25T12:56:16.316Z</time></trkpt><trkpt lat="45.5221195" lon="11.1480961"><ele>440.8</ele><time>2026-04-25T12:56:17.315Z</time></trkpt><trkpt lat="45.522199" lon="11.1480777"><ele>441.20000000000005</ele><time>2026-04-25T12:56:18.316Z</time></trkpt><trkpt lat="45.5222499" lon="11.1480033"><ele>441.6</ele><time>2026-04-25T12:56:19.316Z</time></trkpt><trkpt lat="45.5222211" lon="11.1478363"><ele>442.0</ele><time>2026-04-25T12:56:21.315Z</time></trkpt><trkpt lat="45.5221259" lon="11.1477239"><ele>441.5</ele><time>2026-04-25T12:56:22.315Z</time></trkpt><trkpt lat="45.52203" lon="11.1476043"><ele>441.0</ele><time>2026-04-25T12:56:23.316Z</time></trkpt><trkpt lat="45.521929" lon="11.1474528"><ele>440.5</ele><time>2026-04-25T12:56:24.315Z</time></trkpt><trkpt lat="45.521827" lon="11.1472801"><ele>440.0</ele><time>2026-04-25T12:56:25.316Z</time></trkpt><trkpt lat="45.5217347" lon="11.1470985"><ele>444.0</ele><time>2026-04-25T12:56:26.315Z</time></trkpt><trkpt lat="45.5216583" lon="11.1469079"><ele>448.0</ele><time>2026-04-25T12:56:27.315Z</time></trkpt><trkpt lat="45.5215994" lon="11.1467222"><ele>452.0</ele><time>2026-04-25T12:56:28.316Z</time></trkpt><trkpt lat="45.5215504" lon="11.1465396"><ele>456.0</ele><time>2026-04-25T12:56:29.315Z</time></trkpt><trkpt lat="45.5215088" lon="11.146376"><ele>459.4</ele><time>2026-04-25T12:56:30.315Z</time></trkpt><trkpt lat="45.5214679" lon="11.1462388"><ele>462.8</ele><time>2026-04-25T12:56:31.315Z</time></trkpt><trkpt lat="45.5214275" lon="11.146145"><ele>466.19999999999993</ele><time>2026-04-25T12:56:32.315Z</time></trkpt><trkpt lat="45.5213679" lon="11.1460424"><ele>469.59999999999997</ele><time>2026-04-25T12:56:34.315Z</time></trkpt><trkpt lat="45.521426" lon="11.1459838"><ele>473.0</ele><time>2026-04-25T12:56:36.315Z</time></trkpt><trkpt lat="45.5215302" lon="11.1460757"><ele>473.0</ele><time>2026-04-25T12:56:38.315Z</time></trkpt><trkpt lat="45.5216243" lon="11.1462425"><ele>473.0</ele><time>2026-04-25T12:56:39.316Z</time></trkpt><trkpt lat="45.5217185" lon="11.1464019"><ele>473.0</ele><time>2026-04-25T12:56:40.316Z</time></trkpt><trkpt lat="45.5218273" lon="11.1465043"><ele>473.0</ele><time>2026-04-25T12:56:41.316Z</time></trkpt><trkpt lat="45.5219219" lon="11.1465541"><ele>473.0</ele><time>2026-04-25T12:56:42.315Z</time></trkpt><trkpt lat="45.5220019" lon="11.1465593"><ele>472.99999999999994</ele><time>2026-04-25T12:56:43.315Z</time></trkpt><trkpt lat="45.5220785" lon="11.1464907"><ele>472.99999999999994</ele><time>2026-04-25T12:56:45.315Z</time></trkpt><trkpt lat="45.5220734" lon="11.1462895"><ele>473.0</ele><time>2026-04-25T12:56:47.316Z</time></trkpt><trkpt lat="45.5220102" lon="11.1461999"><ele>473.0</ele><time>2026-04-25T12:56:48.315Z</time></trkpt><trkpt lat="45.5219253" lon="11.1461048"><ele>473.0</ele><time>2026-04-25T12:56:49.316Z</time></trkpt><trkpt lat="45.5218543" lon="11.1459537"><ele>472.99999999999994</ele><time>2026-04-25T12:56:50.315Z</time></trkpt><trkpt lat="45.5217892" lon="11.1458052"><ele>472.99999999999994</ele><time>2026-04-25T12:56:51.315Z</time></trkpt><trkpt lat="45.5217169" lon="11.1457179"><ele>473.0</ele><time>2026-04-25T12:56:52.315Z</time></trkpt><trkpt lat="45.5216246" lon="11.1456548"><ele>473.0</ele><time>2026-04-25T12:56:53.315Z</time></trkpt><trkpt lat="45.5215541" lon="11.1456149"><ele>476.2</ele><time>2026-04-25T12:56:54.315Z</time></trkpt><trkpt lat="45.5214751" lon="11.145532"><ele>479.4</ele><time>2026-04-25T12:56:56.316Z</time></trkpt><trkpt lat="45.5215728" lon="11.1454623"><ele>482.59999999999997</ele><time>2026-04-25T12:56:58.316Z</time></trkpt><trkpt lat="45.5216626" lon="11.1454959"><ele>485.79999999999995</ele><time>2026-04-25T12:56:59.315Z</time></trkpt><trkpt lat="45.5217728" lon="11.1455732"><ele>489.0</ele><time>2026-04-25T12:57:00.316Z</time></trkpt><trkpt lat="45.521884" lon="11.1456286"><ele>489.0</ele><time>2026-04-25T12:57:01.315Z</time></trkpt><trkpt lat="45.5219887" lon="11.1456406"><ele>489.0</ele><time>2026-04-25T12:57:02.315Z</time></trkpt><trkpt lat="45.5220793" lon="11.1456055"><ele>489.0</ele><time>2026-04-25T12:57:03.316Z</time></trkpt><trkpt lat="45.5221537" lon="11.1455347"><ele>489.0</ele><time>2026-04-25T12:57:04.315Z</time></trkpt><trkpt lat="45.5221632" lon="11.1454411"><ele>489.0</ele><time>2026-04-25T12:57:05.315Z</time></trkpt><trkpt lat="45.5220553" lon="11.1453343"><ele>489.0</ele><time>2026-04-25T12:57:07.315Z</time></trkpt><trkpt lat="45.5219549" lon="11.1453341"><ele>489.0</ele><time>2026-04-25T12:57:08.315Z</time></trkpt><trkpt lat="45.5218399" lon="11.1453404"><ele>489.0</ele><time>2026-04-25T12:57:09.315Z</time></trkpt><trkpt lat="45.5217237" lon="11.145284"><ele>489.0</ele><time>2026-04-25T12:57:10.316Z</time></trkpt><trkpt lat="45.5216253" lon="11.1451741"><ele>489.0</ele><time>2026-04-25T12:57:11.316Z</time></trkpt><trkpt lat="45.5215664" lon="11.1450501"><ele>489.0</ele><time>2026-04-25T12:57:12.316Z</time></trkpt><trkpt lat="45.5215288" lon="11.1449021"><ele>489.0</ele><time>2026-04-25T12:57:13.316Z</time></trkpt><trkpt lat="45.5215334" lon="11.1447497"><ele>489.0</ele><time>2026-04-25T12:57:14.317Z</time></trkpt><trkpt lat="45.5215736" lon="11.14464"><ele>489.0</ele><time>2026-04-25T12:57:15.316Z</time></trkpt><trkpt lat="45.5216387" lon="11.1445762"><ele>491.6</ele><time>2026-04-25T12:57:16.316Z</time></trkpt><trkpt lat="45.5216566" lon="11.1444866"><ele>494.2</ele><time>2026-04-25T12:57:18.316Z</time></trkpt><trkpt lat="45.5215499" lon="11.1444358"><ele>496.80000000000007</ele><time>2026-04-25T12:57:20.316Z</time></trkpt><trkpt lat="45.5214478" lon="11.1444514"><ele>499.40000000000003</ele><time>2026-04-25T12:57:21.316Z</time></trkpt><trkpt lat="45.5213295" lon="11.1444671"><ele>502.0</ele><time>2026-04-25T12:57:22.317Z</time></trkpt><trkpt lat="45.5212063" lon="11.1444869"><ele>502.0</ele><time>2026-04-25T12:57:23.316Z</time></trkpt><trkpt lat="45.5210896" lon="11.1444968"><ele>502.00000000000006</ele><time>2026-04-25T12:57:24.316Z</time></trkpt><trkpt lat="45.5209905" lon="11.1444952"><ele>502.00000000000006</ele><time>2026-04-25T12:57:25.317Z</time></trkpt><trkpt lat="45.5208944" lon="11.1444532"><ele>502.0</ele><time>2026-04-25T12:57:26.316Z</time></trkpt><trkpt lat="45.5208004" lon="11.1443552"><ele>502.0</ele><time>2026-04-25T12:57:27.316Z</time></trkpt><trkpt lat="45.5206911" lon="11.1442321"><ele>502.0</ele><time>2026-04-25T12:57:28.316Z</time></trkpt><trkpt lat="45.5205643" lon="11.1440627"><ele>502.0</ele><time>2026-04-25T12:57:29.317Z</time></trkpt><trkpt lat="45.5204309" lon="11.1439036"><ele>502.0</ele><time>2026-04-25T12:57:30.316Z</time></trkpt><trkpt lat="45.5202957" lon="11.143782"><ele>506.33333333333337</ele><time>2026-04-25T12:57:31.316Z</time></trkpt><trkpt lat="45.5201477" lon="11.1436822"><ele>510.66666666666663</ele><time>2026-04-25T12:57:32.316Z</time></trkpt><trkpt lat="45.5199967" lon="11.1436067"><ele>515.0</ele><time>2026-04-25T12:57:33.316Z</time></trkpt><trkpt lat="45.5198532" lon="11.1435585"><ele>515.0</ele><time>2026-04-25T12:57:34.316Z</time></trkpt><trkpt lat="45.5197181" lon="11.1435238"><ele>515.0</ele><time>2026-04-25T12:57:35.316Z</time></trkpt><trkpt lat="45.5195864" lon="11.1435155"><ele>515.0</ele><time>2026-04-25T12:57:36.317Z</time></trkpt><trkpt lat="45.5194515" lon="11.1435413"><ele>515.0</ele><time>2026-04-25T12:57:37.317Z</time></trkpt><trkpt lat="45.5193168" lon="11.1436075"><ele>514.5</ele><time>2026-04-25T12:57:38.316Z</time></trkpt><trkpt lat="45.5191802" lon="11.1436756"><ele>514.0</ele><time>2026-04-25T12:57:39.316Z</time></trkpt><trkpt lat="45.5190411" lon="11.1437401"><ele>513.5</ele><time>2026-04-25T12:57:40.316Z</time></trkpt><trkpt lat="45.5189183" lon="11.1437803"><ele>513.0</ele><time>2026-04-25T12:57:41.317Z</time></trkpt><trkpt lat="45.5188104" lon="11.1438096"><ele>513.6</ele><time>2026-04-25T12:57:42.317Z</time></trkpt><trkpt lat="45.5187259" lon="11.1438215"><ele>514.1999999999999</ele><time>2026-04-25T12:57:43.316Z</time></trkpt><trkpt lat="45.5186658" lon="11.1437917"><ele>514.8</ele><time>2026-04-25T12:57:44.316Z</time></trkpt><trkpt lat="45.5185976" lon="11.143691"><ele>515.4</ele><time>2026-04-25T12:57:45.316Z</time></trkpt><trkpt lat="45.5185658" lon="11.143544"><ele>516.0</ele><time>2026-04-25T12:57:46.316Z</time></trkpt><trkpt lat="45.5185849" lon="11.1433712"><ele>515.6666666666666</ele><time>2026-04-25T12:57:47.316Z</time></trkpt><trkpt lat="45.5186677" lon="11.1431732"><ele>515.3333333333333</ele><time>2026-04-25T12:57:48.317Z</time></trkpt><trkpt lat="45.5187472" lon="11.1429821"><ele>515.0</ele><time>2026-04-25T12:57:49.316Z</time></trkpt><trkpt lat="45.5188466" lon="11.1428021"><ele>515.0</ele><time>2026-04-25T12:57:50.316Z</time></trkpt><trkpt lat="45.5189111" lon="11.142689"><ele>515.0</ele><time>2026-04-25T12:57:51.316Z</time></trkpt><trkpt lat="45.5189732" lon="11.1426048"><ele>515.0</ele><time>2026-04-25T12:57:53.317Z</time></trkpt><trkpt lat="45.5191149" lon="11.1425487"><ele>515.0</ele><time>2026-04-25T12:58:08.316Z</time></trkpt><trkpt lat="45.5192534" lon="11.1425013"><ele>515.0</ele><time>2026-04-25T12:58:09.317Z</time></trkpt><trkpt lat="45.519397" lon="11.1424603"><ele>515.0</ele><time>2026-04-25T12:58:10.316Z</time></trkpt><trkpt lat="45.5195311" lon="11.1424095"><ele>515.0</ele><time>2026-04-25T12:58:11.316Z</time></trkpt><trkpt lat="45.5196847" lon="11.1423506"><ele>515.0</ele><time>2026-04-25T12:58:12.318Z</time></trkpt><trkpt lat="45.5198403" lon="11.1422939"><ele>515.3333333333333</ele><time>2026-04-25T12:58:13.316Z</time></trkpt><trkpt lat="45.5199919" lon="11.1422387"><ele>515.6666666666666</ele><time>2026-04-25T12:58:14.316Z</time></trkpt><trkpt lat="45.5201427" lon="11.1421818"><ele>516.0</ele><time>2026-04-25T12:58:15.317Z</time></trkpt><trkpt lat="45.5203016" lon="11.1421251"><ele>520.0</ele><time>2026-04-25T12:58:16.316Z</time></trkpt><trkpt lat="45.5204662" lon="11.1420703"><ele>524.0</ele><time>2026-04-25T12:58:17.317Z</time></trkpt><trkpt lat="45.5206321" lon="11.1420127"><ele>528.0</ele><time>2026-04-25T12:58:18.317Z</time></trkpt><trkpt lat="45.520796" lon="11.1419521"><ele>528.0</ele><time>2026-04-25T12:58:19.318Z</time></trkpt><trkpt lat="45.5209578" lon="11.1418901"><ele>528.0</ele><time>2026-04-25T12:58:20.317Z</time></trkpt><trkpt lat="45.5211202" lon="11.1418274"><ele>528.0</ele><time>2026-04-25T12:58:21.318Z</time></trkpt><trkpt lat="45.5212856" lon="11.1417656"><ele>531.3333333333334</ele><time>2026-04-25T12:58:22.318Z</time></trkpt><trkpt lat="45.5214589" lon="11.141703"><ele>534.6666666666667</ele><time>2026-04-25T12:58:23.317Z</time></trkpt><trkpt lat="45.5216449" lon="11.1416331"><ele>538.0</ele><time>2026-04-25T12:58:24.317Z</time></trkpt><trkpt lat="45.5218398" lon="11.1415566"><ele>535.3333333333334</ele><time>2026-04-25T12:58:25.317Z</time></trkpt><trkpt lat="45.522027" lon="11.1414724"><ele>532.6666666666666</ele><time>2026-04-25T12:58:26.318Z</time></trkpt><trkpt lat="45.5222073" lon="11.1413735"><ele>530.0</ele><time>2026-04-25T12:58:27.317Z</time></trkpt><trkpt lat="45.5223815" lon="11.1412446"><ele>536.0</ele><time>2026-04-25T12:58:28.317Z</time></trkpt><trkpt lat="45.5225433" lon="11.1410973"><ele>542.0</ele><time>2026-04-25T12:58:29.317Z</time></trkpt><trkpt lat="45.5226912" lon="11.140945"><ele>548.0</ele><time>2026-04-25T12:58:30.318Z</time></trkpt><trkpt lat="45.5228326" lon="11.1407962"><ele>550.3333333333333</ele><time>2026-04-25T12:58:31.318Z</time></trkpt><trkpt lat="45.5229777" lon="11.1406516"><ele>552.6666666666666</ele><time>2026-04-25T12:58:32.318Z</time></trkpt><trkpt lat="45.5231237" lon="11.1405133"><ele>555.0</ele><time>2026-04-25T12:58:33.318Z</time></trkpt><trkpt lat="45.5232761" lon="11.1403711"><ele>555.0</ele><time>2026-04-25T12:58:34.317Z</time></trkpt><trkpt lat="45.523424" lon="11.1402298"><ele>555.0</ele><time>2026-04-25T12:58:35.317Z</time></trkpt><trkpt lat="45.5235692" lon="11.140092"><ele>555.0</ele><time>2026-04-25T12:58:36.317Z</time></trkpt><trkpt lat="45.5237176" lon="11.1399678"><ele>553.3333333333334</ele><time>2026-04-25T12:58:37.317Z</time></trkpt><trkpt lat="45.5238647" lon="11.1398873"><ele>551.6666666666667</ele><time>2026-04-25T12:58:38.318Z</time></trkpt><trkpt lat="45.5240267" lon="11.1398427"><ele>550.0</ele><time>2026-04-25T12:58:39.317Z</time></trkpt><trkpt lat="45.5242" lon="11.1398253"><ele>550.0</ele><time>2026-04-25T12:58:40.317Z</time></trkpt><trkpt lat="45.5243866" lon="11.1398379"><ele>550.0</ele><time>2026-04-25T12:58:41.317Z</time></trkpt><trkpt lat="45.5245716" lon="11.1398232"><ele>550.0</ele><time>2026-04-25T12:58:42.318Z</time></trkpt><trkpt lat="45.5247496" lon="11.139766"><ele>554.3333333333334</ele><time>2026-04-25T12:58:43.318Z</time></trkpt><trkpt lat="45.5249109" lon="11.1396389"><ele>558.6666666666666</ele><time>2026-04-25T12:58:44.317Z</time></trkpt><trkpt lat="45.5250666" lon="11.1394714"><ele>563.0</ele><time>2026-04-25T12:58:45.318Z</time></trkpt><trkpt lat="45.5252168" lon="11.1392805"><ele>563.0</ele><time>2026-04-25T12:58:46.318Z</time></trkpt><trkpt lat="45.5253631" lon="11.1390927"><ele>563.0</ele><time>2026-04-25T12:58:47.318Z</time></trkpt><trkpt lat="45.5255116" lon="11.1389169"><ele>563.0</ele><time>2026-04-25T12:58:48.317Z</time></trkpt><trkpt lat="45.5256575" lon="11.1387533"><ele>566.0</ele><time>2026-04-25T12:58:49.317Z</time></trkpt><trkpt lat="45.5257993" lon="11.1385947"><ele>569.0</ele><time>2026-04-25T12:58:50.317Z</time></trkpt><trkpt lat="45.5259443" lon="11.1384382"><ele>572.0</ele><time>2026-04-25T12:58:51.317Z</time></trkpt><trkpt lat="45.5260996" lon="11.1382941"><ele>570.0</ele><time>2026-04-25T12:58:52.317Z</time></trkpt><trkpt lat="45.5262684" lon="11.1381736"><ele>568.0</ele><time>2026-04-25T12:58:53.317Z</time></trkpt><trkpt lat="45.5264542" lon="11.1380789"><ele>566.0</ele><time>2026-04-25T12:58:54.317Z</time></trkpt><trkpt lat="45.5266372" lon="11.1380228"><ele>566.0</ele><time>2026-04-25T12:58:55.317Z</time></trkpt><trkpt lat="45.5268805" lon="11.1380119"><ele>566.0</ele><time>2026-04-25T12:58:56.318Z</time></trkpt><trkpt lat="45.5270867" lon="11.1379918"><ele>570.0</ele><time>2026-04-25T12:58:57.317Z</time></trkpt><trkpt lat="45.5272894" lon="11.1379713"><ele>574.0</ele><time>2026-04-25T12:58:58.318Z</time></trkpt><trkpt lat="45.5274858" lon="11.1379411"><ele>578.0</ele><time>2026-04-25T12:58:59.318Z</time></trkpt><trkpt lat="45.5276791" lon="11.1379084"><ele>578.0</ele><time>2026-04-25T12:59:00.317Z</time></trkpt><trkpt lat="45.5278707" lon="11.1378816"><ele>578.0</ele><time>2026-04-25T12:59:01.318Z</time></trkpt><trkpt lat="45.5280599" lon="11.1378705"><ele>578.0</ele><time>2026-04-25T12:59:02.318Z</time></trkpt><trkpt lat="45.5282464" lon="11.1378787"><ele>580.3333333333333</ele><time>2026-04-25T12:59:03.318Z</time></trkpt><trkpt lat="45.5284348" lon="11.1379212"><ele>582.6666666666666</ele><time>2026-04-25T12:59:04.317Z</time></trkpt><trkpt lat="45.5286237" lon="11.137998"><ele>585.0</ele><time>2026-04-25T12:59:05.318Z</time></trkpt><trkpt lat="45.5288152" lon="11.1380875"><ele>585.3333333333334</ele><time>2026-04-25T12:59:06.317Z</time></trkpt><trkpt lat="45.5290083" lon="11.1381686"><ele>585.6666666666667</ele><time>2026-04-25T12:59:07.318Z</time></trkpt><trkpt lat="45.5291997" lon="11.1382431"><ele>586.0</ele><time>2026-04-25T12:59:08.318Z</time></trkpt><trkpt lat="45.5293922" lon="11.1383017"><ele>586.6666666666667</ele><time>2026-04-25T12:59:09.318Z</time></trkpt><trkpt lat="45.5295759" lon="11.1383288"><ele>587.3333333333334</ele><time>2026-04-25T12:59:10.318Z</time></trkpt><trkpt lat="45.5297654" lon="11.1383232"><ele>588.0</ele><time>2026-04-25T12:59:11.317Z</time></trkpt><trkpt lat="45.5299653" lon="11.1382796"><ele>588.0</ele><time>2026-04-25T12:59:12.317Z</time></trkpt><trkpt lat="45.5301727" lon="11.1382204"><ele>588.0</ele><time>2026-04-25T12:59:13.317Z</time></trkpt><trkpt lat="45.5303796" lon="11.1381723"><ele>588.0</ele><time>2026-04-25T12:59:14.317Z</time></trkpt><trkpt lat="45.5305809" lon="11.1381392"><ele>596.0</ele><time>2026-04-25T12:59:15.318Z</time></trkpt><trkpt lat="45.5307804" lon="11.1381265"><ele>604.0</ele><time>2026-04-25T12:59:16.318Z</time></trkpt><trkpt lat="45.5309806" lon="11.138142"><ele>612.0</ele><time>2026-04-25T12:59:17.318Z</time></trkpt><trkpt lat="45.531184" lon="11.1381955"><ele>606.6666666666666</ele><time>2026-04-25T12:59:18.318Z</time></trkpt><trkpt lat="45.5313855" lon="11.1382742"><ele>601.3333333333333</ele><time>2026-04-25T12:59:19.318Z</time></trkpt><trkpt lat="45.5315903" lon="11.1383669"><ele>596.0</ele><time>2026-04-25T12:59:20.318Z</time></trkpt><trkpt lat="45.5317838" lon="11.1384462"><ele>596.0</ele><time>2026-04-25T12:59:21.319Z</time></trkpt><trkpt lat="45.5319704" lon="11.1385013"><ele>596.0</ele><time>2026-04-25T12:59:22.317Z</time></trkpt><trkpt lat="45.5321464" lon="11.1385381"><ele>596.0</ele><time>2026-04-25T12:59:23.318Z</time></trkpt><trkpt lat="45.5323083" lon="11.1385673"><ele>597.0</ele><time>2026-04-25T12:59:24.318Z</time></trkpt><trkpt lat="45.5324579" lon="11.1385972"><ele>598.0</ele><time>2026-04-25T12:59:25.318Z</time></trkpt><trkpt lat="45.5326018" lon="11.1386209"><ele>599.0</ele><time>2026-04-25T12:59:26.319Z</time></trkpt><trkpt lat="45.5327503" lon="11.1386263"><ele>600.0</ele><time>2026-04-25T12:59:27.318Z</time></trkpt><trkpt lat="45.5329029" lon="11.1385902"><ele>600.0</ele><time>2026-04-25T12:59:28.318Z</time></trkpt><trkpt lat="45.5330448" lon="11.1384994"><ele>600.0</ele><time>2026-04-25T12:59:29.318Z</time></trkpt><trkpt lat="45.5331796" lon="11.1383597"><ele>600.0</ele><time>2026-04-25T12:59:30.318Z</time></trkpt><trkpt lat="45.5333112" lon="11.1381774"><ele>604.3333333333334</ele><time>2026-04-25T12:59:31.319Z</time></trkpt><trkpt lat="45.5334553" lon="11.1379871"><ele>608.6666666666667</ele><time>2026-04-25T12:59:32.318Z</time></trkpt><trkpt lat="45.5335925" lon="11.1378198"><ele>613.0</ele><time>2026-04-25T12:59:33.318Z</time></trkpt><trkpt lat="45.5337217" lon="11.1376659"><ele>612.3333333333334</ele><time>2026-04-25T12:59:34.318Z</time></trkpt><trkpt lat="45.5338489" lon="11.1375114"><ele>611.6666666666666</ele><time>2026-04-25T12:59:35.318Z</time></trkpt><trkpt lat="45.533979" lon="11.1373457"><ele>611.0</ele><time>2026-04-25T12:59:36.319Z</time></trkpt><trkpt lat="45.5341204" lon="11.1371622"><ele>611.0</ele><time>2026-04-25T12:59:37.318Z</time></trkpt><trkpt lat="45.5342802" lon="11.1369562"><ele>611.0</ele><time>2026-04-25T12:59:38.318Z</time></trkpt><trkpt lat="45.5344652" lon="11.1367341"><ele>610.0</ele><time>2026-04-25T12:59:39.319Z</time></trkpt><trkpt lat="45.534669" lon="11.1365188"><ele>609.0</ele><time>2026-04-25T12:59:40.318Z</time></trkpt><trkpt lat="45.5348649" lon="11.1363101"><ele>609.0</ele><time>2026-04-25T12:59:41.319Z</time></trkpt><trkpt lat="45.5350508" lon="11.1361033"><ele>609.0</ele><time>2026-04-25T12:59:42.318Z</time></trkpt><trkpt lat="45.5352196" lon="11.1358937"><ele>610.0</ele><time>2026-04-25T12:59:43.318Z</time></trkpt><trkpt lat="45.5353838" lon="11.1356898"><ele>611.0</ele><time>2026-04-25T12:59:44.319Z</time></trkpt><trkpt lat="45.5355419" lon="11.1354987"><ele>612.0</ele><time>2026-04-25T12:59:45.319Z</time></trkpt><trkpt lat="45.5356977" lon="11.1353171"><ele>608.6666666666666</ele><time>2026-04-25T12:59:46.318Z</time></trkpt><trkpt lat="45.5358516" lon="11.1351368"><ele>605.3333333333333</ele><time>2026-04-25T12:59:47.318Z</time></trkpt><trkpt lat="45.5360026" lon="11.1349616"><ele>602.0</ele><time>2026-04-25T12:59:48.318Z</time></trkpt><trkpt lat="45.5361501" lon="11.1347992"><ele>601.3333333333333</ele><time>2026-04-25T12:59:49.318Z</time></trkpt><trkpt lat="45.5362918" lon="11.1346532"><ele>600.6666666666666</ele><time>2026-04-25T12:59:50.319Z</time></trkpt><trkpt lat="45.5364404" lon="11.1345354"><ele>600.0</ele><time>2026-04-25T12:59:51.318Z</time></trkpt><trkpt lat="45.5365988" lon="11.1344421"><ele>600.0</ele><time>2026-04-25T12:59:52.319Z</time></trkpt><trkpt lat="45.5367625" lon="11.1343723"><ele>600.0</ele><time>2026-04-25T12:59:53.318Z</time></trkpt><trkpt lat="45.536949" lon="11.1343091"><ele>600.0</ele><time>2026-04-25T12:59:54.319Z</time></trkpt><trkpt lat="45.537149" lon="11.1342406"><ele>600.0</ele><time>2026-04-25T12:59:55.318Z</time></trkpt><trkpt lat="45.5373537" lon="11.1341617"><ele>600.0</ele><time>2026-04-25T12:59:56.319Z</time></trkpt><trkpt lat="45.5375588" lon="11.1340826"><ele>600.0</ele><time>2026-04-25T12:59:57.318Z</time></trkpt><trkpt lat="45.5377575" lon="11.1339917"><ele>598.6666666666666</ele><time>2026-04-25T12:59:58.318Z</time></trkpt><trkpt lat="45.5379582" lon="11.1338909"><ele>597.3333333333333</ele><time>2026-04-25T12:59:59.319Z</time></trkpt><trkpt lat="45.5381508" lon="11.1337714"><ele>596.0</ele><time>2026-04-25T13:00:00.319Z</time></trkpt><trkpt lat="45.5383374" lon="11.1336181"><ele>596.0</ele><time>2026-04-25T13:00:01.318Z</time></trkpt><trkpt lat="45.5385041" lon="11.1334365"><ele>596.0</ele><time>2026-04-25T13:00:02.318Z</time></trkpt><trkpt lat="45.5386693" lon="11.1332431"><ele>596.0</ele><time>2026-04-25T13:00:03.318Z</time></trkpt><trkpt lat="45.5388279" lon="11.1330415"><ele>597.6666666666666</ele><time>2026-04-25T13:00:04.319Z</time></trkpt><trkpt lat="45.5389894" lon="11.1328439"><ele>599.3333333333334</ele><time>2026-04-25T13:00:05.318Z</time></trkpt><trkpt lat="45.5391598" lon="11.1326504"><ele>601.0</ele><time>2026-04-25T13:00:06.318Z</time></trkpt><trkpt lat="45.5393251" lon="11.1324712"><ele>599.0</ele><time>2026-04-25T13:00:07.318Z</time></trkpt><trkpt lat="45.5394704" lon="11.1323216"><ele>597.0</ele><time>2026-04-25T13:00:08.318Z</time></trkpt><trkpt lat="45.5395888" lon="11.1321932"><ele>595.0</ele><time>2026-04-25T13:00:09.318Z</time></trkpt><trkpt lat="45.5396988" lon="11.1320701"><ele>603.25</ele><time>2026-04-25T13:00:10.318Z</time></trkpt><trkpt lat="45.5397893" lon="11.1319242"><ele>611.5</ele><time>2026-04-25T13:00:11.319Z</time></trkpt><trkpt lat="45.5398395" lon="11.1317535"><ele>619.75</ele><time>2026-04-25T13:00:12.319Z</time></trkpt><trkpt lat="45.5398379" lon="11.131571"><ele>628.0</ele><time>2026-04-25T13:00:13.319Z</time></trkpt><trkpt lat="45.5397832" lon="11.1313516"><ele>626.3333333333334</ele><time>2026-04-25T13:00:14.319Z</time></trkpt><trkpt lat="45.5396958" lon="11.1311308"><ele>624.6666666666666</ele><time>2026-04-25T13:00:15.319Z</time></trkpt><trkpt lat="45.539585" lon="11.1308825"><ele>623.0</ele><time>2026-04-25T13:00:16.318Z</time></trkpt><trkpt lat="45.5394733" lon="11.1306325"><ele>623.0</ele><time>2026-04-25T13:00:17.318Z</time></trkpt><trkpt lat="45.539397" lon="11.1304458"><ele>623.0</ele><time>2026-04-25T13:00:18.319Z</time></trkpt><trkpt lat="45.5393025" lon="11.1302549"><ele>623.0</ele><time>2026-04-25T13:00:19.319Z</time></trkpt><trkpt lat="45.5392108" lon="11.1300772"><ele>621.5</ele><time>2026-04-25T13:00:20.319Z</time></trkpt><trkpt lat="45.5391377" lon="11.1298844"><ele>620.0</ele><time>2026-04-25T13:00:21.318Z</time></trkpt><trkpt lat="45.5390959" lon="11.1296949"><ele>618.5</ele><time>2026-04-25T13:00:22.318Z</time></trkpt><trkpt lat="45.5391187" lon="11.1295193"><ele>617.0</ele><time>2026-04-25T13:00:23.318Z</time></trkpt><trkpt lat="45.5391903" lon="11.1293841"><ele>617.0</ele><time>2026-04-25T13:00:24.318Z</time></trkpt><trkpt lat="45.5392992" lon="11.1292452"><ele>617.0</ele><time>2026-04-25T13:00:25.319Z</time></trkpt><trkpt lat="45.5394776" lon="11.1291239"><ele>617.0</ele><time>2026-04-25T13:00:26.318Z</time></trkpt><trkpt lat="45.5396385" lon="11.1289843"><ele>621.3333333333333</ele><time>2026-04-25T13:00:27.318Z</time></trkpt><trkpt lat="45.5397831" lon="11.1288399"><ele>625.6666666666666</ele><time>2026-04-25T13:00:28.32Z</time></trkpt><trkpt lat="45.5399176" lon="11.1287184"><ele>630.0</ele><time>2026-04-25T13:00:29.319Z</time></trkpt><trkpt lat="45.5400671" lon="11.1286303"><ele>630.0</ele><time>2026-04-25T13:00:30.319Z</time></trkpt><trkpt lat="45.5402306" lon="11.1286018"><ele>630.0</ele><time>2026-04-25T13:00:31.32Z</time></trkpt><trkpt lat="45.5403738" lon="11.1286248"><ele>630.0</ele><time>2026-04-25T13:00:32.32Z</time></trkpt><trkpt lat="45.5406605" lon="11.1288294"><ele>627.0</ele><time>2026-04-25T13:00:34.319Z</time></trkpt><trkpt lat="45.5408176" lon="11.1289502"><ele>624.0</ele><time>2026-04-25T13:00:35.319Z</time></trkpt><trkpt lat="45.5409764" lon="11.1290434"><ele>621.0</ele><time>2026-04-25T13:00:36.32Z</time></trkpt><trkpt lat="45.5411301" lon="11.1290919"><ele>622.0</ele><time>2026-04-25T13:00:37.32Z</time></trkpt><trkpt lat="45.5413027" lon="11.1290992"><ele>623.0</ele><time>2026-04-25T13:00:38.319Z</time></trkpt><trkpt lat="45.541486" lon="11.1290732"><ele>624.0</ele><time>2026-04-25T13:00:39.319Z</time></trkpt><trkpt lat="45.5416676" lon="11.1290237"><ele>624.0</ele><time>2026-04-25T13:00:40.32Z</time></trkpt><trkpt lat="45.5418527" lon="11.128972"><ele>624.0</ele><time>2026-04-25T13:00:41.319Z</time></trkpt><trkpt lat="45.54204" lon="11.1289189"><ele>624.0</ele><time>2026-04-25T13:00:42.319Z</time></trkpt><trkpt lat="45.5422221" lon="11.128873"><ele>627.3333333333334</ele><time>2026-04-25T13:00:43.319Z</time></trkpt><trkpt lat="45.5423927" lon="11.1288318"><ele>630.6666666666667</ele><time>2026-04-25T13:00:44.319Z</time></trkpt><trkpt lat="45.5425453" lon="11.1287877"><ele>634.0</ele><time>2026-04-25T13:00:45.319Z</time></trkpt><trkpt lat="45.5426877" lon="11.1287191"><ele>634.0</ele><time>2026-04-25T13:00:46.319Z</time></trkpt><trkpt lat="45.5428079" lon="11.128601"><ele>634.0</ele><time>2026-04-25T13:00:47.319Z</time></trkpt><trkpt lat="45.5429033" lon="11.1284126"><ele>634.0</ele><time>2026-04-25T13:00:48.32Z</time></trkpt><trkpt lat="45.5429861" lon="11.1281899"><ele>638.6666666666667</ele><time>2026-04-25T13:00:49.32Z</time></trkpt><trkpt lat="45.54303" lon="11.1279149"><ele>643.3333333333334</ele><time>2026-04-25T13:00:50.32Z</time></trkpt><trkpt lat="45.5430743" lon="11.1276453"><ele>648.0</ele><time>2026-04-25T13:00:51.32Z</time></trkpt><trkpt lat="45.5431214" lon="11.1274406"><ele>643.6666666666666</ele><time>2026-04-25T13:00:52.32Z</time></trkpt><trkpt lat="45.5431963" lon="11.1272701"><ele>639.3333333333333</ele><time>2026-04-25T13:00:53.319Z</time></trkpt><trkpt lat="45.5432856" lon="11.1271656"><ele>635.0</ele><time>2026-04-25T13:00:54.32Z</time></trkpt><trkpt lat="45.5435588" lon="11.1270267"><ele>638.6666666666666</ele><time>2026-04-25T13:00:56.32Z</time></trkpt><trkpt lat="45.5437421" lon="11.126971"><ele>642.3333333333334</ele><time>2026-04-25T13:00:57.319Z</time></trkpt><trkpt lat="45.5439161" lon="11.1269114"><ele>646.0</ele><time>2026-04-25T13:00:58.319Z</time></trkpt><trkpt lat="45.544081" lon="11.1268427"><ele>646.0</ele><time>2026-04-25T13:00:59.319Z</time></trkpt><trkpt lat="45.5442298" lon="11.1267777"><ele>646.0</ele><time>2026-04-25T13:01:00.32Z</time></trkpt><trkpt lat="45.5443815" lon="11.1267152"><ele>646.0</ele><time>2026-04-25T13:01:01.32Z</time></trkpt><trkpt lat="45.5445256" lon="11.1266343"><ele>646.5</ele><time>2026-04-25T13:01:02.319Z</time></trkpt><trkpt lat="45.5446567" lon="11.1265545"><ele>647.0</ele><time>2026-04-25T13:01:03.32Z</time></trkpt><trkpt lat="45.5447689" lon="11.1264539"><ele>647.5</ele><time>2026-04-25T13:01:04.319Z</time></trkpt><trkpt lat="45.544871" lon="11.1263108"><ele>648.0</ele><time>2026-04-25T13:01:05.32Z</time></trkpt><trkpt lat="45.544945" lon="11.1261598"><ele>648.0</ele><time>2026-04-25T13:01:06.319Z</time></trkpt><trkpt lat="45.5450071" lon="11.1259856"><ele>648.0</ele><time>2026-04-25T13:01:07.319Z</time></trkpt><trkpt lat="45.5450465" lon="11.125813"><ele>648.0</ele><time>2026-04-25T13:01:08.319Z</time></trkpt><trkpt lat="45.545068" lon="11.1256252"><ele>648.0</ele><time>2026-04-25T13:01:09.319Z</time></trkpt><trkpt lat="45.5450661" lon="11.1254397"><ele>648.75</ele><time>2026-04-25T13:01:10.32Z</time></trkpt><trkpt lat="45.5450574" lon="11.1252594"><ele>649.5</ele><time>2026-04-25T13:01:11.319Z</time></trkpt><trkpt lat="45.5450034" lon="11.1250773"><ele>650.25</ele><time>2026-04-25T13:01:12.319Z</time></trkpt><trkpt lat="45.5449351" lon="11.1249034"><ele>651.0</ele><time>2026-04-25T13:01:13.32Z</time></trkpt><trkpt lat="45.5448564" lon="11.1247203"><ele>652.0</ele><time>2026-04-25T13:01:14.319Z</time></trkpt><trkpt lat="45.5447761" lon="11.1245375"><ele>653.0</ele><time>2026-04-25T13:01:15.319Z</time></trkpt><trkpt lat="45.5447054" lon="11.1243562"><ele>654.0</ele><time>2026-04-25T13:01:16.319Z</time></trkpt><trkpt lat="45.5446451" lon="11.1241772"><ele>655.0</ele><time>2026-04-25T13:01:17.319Z</time></trkpt><trkpt lat="45.5446112" lon="11.1240092"><ele>655.25</ele><time>2026-04-25T13:01:18.32Z</time></trkpt><trkpt lat="45.5446059" lon="11.1238578"><ele>655.5</ele><time>2026-04-25T13:01:19.32Z</time></trkpt><trkpt lat="45.544616" lon="11.1237063"><ele>655.75</ele><time>2026-04-25T13:01:20.32Z</time></trkpt><trkpt lat="45.5446845" lon="11.123547"><ele>656.0</ele><time>2026-04-25T13:01:21.319Z</time></trkpt><trkpt lat="45.5447901" lon="11.1233943"><ele>656.0</ele><time>2026-04-25T13:01:22.319Z</time></trkpt><trkpt lat="45.5449185" lon="11.1232438"><ele>656.0</ele><time>2026-04-25T13:01:23.32Z</time></trkpt><trkpt lat="45.5450485" lon="11.1230906"><ele>656.0</ele><time>2026-04-25T13:01:24.32Z</time></trkpt><trkpt lat="45.5451797" lon="11.1229312"><ele>654.3333333333333</ele><time>2026-04-25T13:01:25.319Z</time></trkpt><trkpt lat="45.5453046" lon="11.122772"><ele>652.6666666666666</ele><time>2026-04-25T13:01:26.319Z</time></trkpt><trkpt lat="45.5454274" lon="11.1226155"><ele>651.0</ele><time>2026-04-25T13:01:27.319Z</time></trkpt><trkpt lat="45.5455614" lon="11.122475"><ele>653.0</ele><time>2026-04-25T13:01:28.32Z</time></trkpt><trkpt lat="45.545699" lon="11.1223531"><ele>655.0</ele><time>2026-04-25T13:01:29.32Z</time></trkpt><trkpt lat="45.5458625" lon="11.1222727"><ele>657.0</ele><time>2026-04-25T13:01:30.32Z</time></trkpt><trkpt lat="45.5460266" lon="11.1222137"><ele>657.0</ele><time>2026-04-25T13:01:31.32Z</time></trkpt><trkpt lat="45.546189" lon="11.1221563"><ele>657.0</ele><time>2026-04-25T13:01:32.319Z</time></trkpt><trkpt lat="45.5463512" lon="11.1220904"><ele>657.0</ele><time>2026-04-25T13:01:33.319Z</time></trkpt><trkpt lat="45.5465126" lon="11.1220304"><ele>661.3333333333334</ele><time>2026-04-25T13:01:34.32Z</time></trkpt><trkpt lat="45.5466813" lon="11.1219672"><ele>665.6666666666667</ele><time>2026-04-25T13:01:35.32Z</time></trkpt><trkpt lat="45.546853" lon="11.1219103"><ele>670.0</ele><time>2026-04-25T13:01:36.321Z</time></trkpt><trkpt lat="45.5470364" lon="11.1218414"><ele>672.0</ele><time>2026-04-25T13:01:37.32Z</time></trkpt><trkpt lat="45.5472322" lon="11.1217598"><ele>674.0</ele><time>2026-04-25T13:01:38.321Z</time></trkpt><trkpt lat="45.5474345" lon="11.1216717"><ele>676.0</ele><time>2026-04-25T13:01:39.32Z</time></trkpt><trkpt lat="45.5476413" lon="11.1215945"><ele>676.3333333333334</ele><time>2026-04-25T13:01:40.321Z</time></trkpt><trkpt lat="45.5478506" lon="11.1215177"><ele>676.6666666666666</ele><time>2026-04-25T13:01:41.321Z</time></trkpt><trkpt lat="45.5480584" lon="11.1214382"><ele>677.0</ele><time>2026-04-25T13:01:42.321Z</time></trkpt><trkpt lat="45.5482627" lon="11.1213555"><ele>678.3333333333333</ele><time>2026-04-25T13:01:43.321Z</time></trkpt><trkpt lat="45.5484712" lon="11.1212775"><ele>679.6666666666666</ele><time>2026-04-25T13:01:44.321Z</time></trkpt><trkpt lat="45.5486753" lon="11.1211927"><ele>681.0</ele><time>2026-04-25T13:01:45.32Z</time></trkpt><trkpt lat="45.5488745" lon="11.1211168"><ele>681.6666666666666</ele><time>2026-04-25T13:01:46.32Z</time></trkpt><trkpt lat="45.549077" lon="11.1210375"><ele>682.3333333333333</ele><time>2026-04-25T13:01:47.32Z</time></trkpt><trkpt lat="45.5492769" lon="11.1209605"><ele>683.0</ele><time>2026-04-25T13:01:48.321Z</time></trkpt><trkpt lat="45.5494752" lon="11.1208847"><ele>683.0</ele><time>2026-04-25T13:01:49.32Z</time></trkpt><trkpt lat="45.5496707" lon="11.1208122"><ele>683.0</ele><time>2026-04-25T13:01:50.32Z</time></trkpt><trkpt lat="45.5498654" lon="11.1207395"><ele>683.0</ele><time>2026-04-25T13:01:51.321Z</time></trkpt><trkpt lat="45.55006" lon="11.1206652"><ele>683.0</ele><time>2026-04-25T13:01:52.321Z</time></trkpt><trkpt lat="45.5502548" lon="11.1205945"><ele>683.0</ele><time>2026-04-25T13:01:53.32Z</time></trkpt><trkpt lat="45.5504466" lon="11.1205278"><ele>683.0</ele><time>2026-04-25T13:01:54.321Z</time></trkpt><trkpt lat="45.5506315" lon="11.1204657"><ele>687.0</ele><time>2026-04-25T13:01:55.32Z</time></trkpt><trkpt lat="45.5508097" lon="11.1204017"><ele>691.0</ele><time>2026-04-25T13:01:56.32Z</time></trkpt><trkpt lat="45.5509784" lon="11.1203342"><ele>695.0</ele><time>2026-04-25T13:01:57.32Z</time></trkpt><trkpt lat="45.551144" lon="11.1202555"><ele>698.3333333333333</ele><time>2026-04-25T13:01:58.321Z</time></trkpt><trkpt lat="45.5513017" lon="11.1201405"><ele>701.6666666666666</ele><time>2026-04-25T13:01:59.321Z</time></trkpt><trkpt lat="45.5514284" lon="11.1199705"><ele>705.0</ele><time>2026-04-25T13:02:00.32Z</time></trkpt><trkpt lat="45.5515344" lon="11.1197602"><ele>705.0</ele><time>2026-04-25T13:02:01.32Z</time></trkpt><trkpt lat="45.551619" lon="11.119521"><ele>705.0</ele><time>2026-04-25T13:02:02.32Z</time></trkpt><trkpt lat="45.5517096" lon="11.1192872"><ele>705.0</ele><time>2026-04-25T13:02:03.32Z</time></trkpt><trkpt lat="45.5518051" lon="11.1190794"><ele>704.75</ele><time>2026-04-25T13:02:04.32Z</time></trkpt><trkpt lat="45.5518885" lon="11.1188916"><ele>704.5</ele><time>2026-04-25T13:02:05.32Z</time></trkpt><trkpt lat="45.5519337" lon="11.1187054"><ele>704.25</ele><time>2026-04-25T13:02:06.321Z</time></trkpt><trkpt lat="45.5519416" lon="11.1184844"><ele>704.0</ele><time>2026-04-25T13:02:07.32Z</time></trkpt><trkpt lat="45.5519117" lon="11.1182074"><ele>705.0</ele><time>2026-04-25T13:02:08.321Z</time></trkpt><trkpt lat="45.5518792" lon="11.1179124"><ele>706.0</ele><time>2026-04-25T13:02:09.321Z</time></trkpt><trkpt lat="45.5518636" lon="11.1176314"><ele>707.0</ele><time>2026-04-25T13:02:10.32Z</time></trkpt><trkpt lat="45.5518654" lon="11.1173748"><ele>707.6666666666666</ele><time>2026-04-25T13:02:11.32Z</time></trkpt><trkpt lat="45.5518987" lon="11.1171618"><ele>708.3333333333334</ele><time>2026-04-25T13:02:12.32Z</time></trkpt><trkpt lat="45.5519549" lon="11.1169556"><ele>709.0</ele><time>2026-04-25T13:02:13.321Z</time></trkpt><trkpt lat="45.5520376" lon="11.1167694"><ele>708.25</ele><time>2026-04-25T13:02:14.321Z</time></trkpt><trkpt lat="45.5521348" lon="11.116613"><ele>707.5</ele><time>2026-04-25T13:02:15.321Z</time></trkpt><trkpt lat="45.5522374" lon="11.1165178"><ele>706.75</ele><time>2026-04-25T13:02:16.32Z</time></trkpt><trkpt lat="45.5523464" lon="11.1165084"><ele>706.0</ele><time>2026-04-25T13:02:17.321Z</time></trkpt><trkpt lat="45.552465" lon="11.1165772"><ele>710.6666666666667</ele><time>2026-04-25T13:02:18.321Z</time></trkpt><trkpt lat="45.5525757" lon="11.1167129"><ele>715.3333333333334</ele><time>2026-04-25T13:02:19.32Z</time></trkpt><trkpt lat="45.5526773" lon="11.1169033"><ele>720.0</ele><time>2026-04-25T13:02:20.32Z</time></trkpt><trkpt lat="45.5527795" lon="11.1171213"><ele>717.6666666666666</ele><time>2026-04-25T13:02:21.321Z</time></trkpt><trkpt lat="45.5528807" lon="11.1173196"><ele>715.3333333333333</ele><time>2026-04-25T13:02:22.32Z</time></trkpt><trkpt lat="45.5529817" lon="11.1174711"><ele>713.0</ele><time>2026-04-25T13:02:23.32Z</time></trkpt><trkpt lat="45.5531058" lon="11.1175852"><ele>718.6666666666666</ele><time>2026-04-25T13:02:24.321Z</time></trkpt><trkpt lat="45.5532573" lon="11.1176411"><ele>724.3333333333334</ele><time>2026-04-25T13:02:25.321Z</time></trkpt><trkpt lat="45.5534321" lon="11.117672"><ele>730.0</ele><time>2026-04-25T13:02:26.321Z</time></trkpt><trkpt lat="45.5536403" lon="11.1177238"><ele>730.3333333333334</ele><time>2026-04-25T13:02:27.321Z</time></trkpt><trkpt lat="45.5538021" lon="11.1177684"><ele>730.6666666666666</ele><time>2026-04-25T13:02:28.32Z</time></trkpt><trkpt lat="45.5539642" lon="11.1178197"><ele>731.0</ele><time>2026-04-25T13:02:29.32Z</time></trkpt><trkpt lat="45.5541235" lon="11.1178698"><ele>731.0</ele><time>2026-04-25T13:02:30.32Z</time></trkpt><trkpt lat="45.5542891" lon="11.1178948"><ele>731.0</ele><time>2026-04-25T13:02:31.321Z</time></trkpt><trkpt lat="45.5544677" lon="11.1178962"><ele>731.0</ele><time>2026-04-25T13:02:32.32Z</time></trkpt><trkpt lat="45.554652" lon="11.1178807"><ele>732.6666666666666</ele><time>2026-04-25T13:02:33.321Z</time></trkpt><trkpt lat="45.5548455" lon="11.1178708"><ele>734.3333333333334</ele><time>2026-04-25T13:02:34.321Z</time></trkpt><trkpt lat="45.5550335" lon="11.1178728"><ele>736.0</ele><time>2026-04-25T13:02:35.32Z</time></trkpt><trkpt lat="45.5552189" lon="11.1178851"><ele>740.3333333333334</ele><time>2026-04-25T13:02:36.321Z</time></trkpt><trkpt lat="45.5553859" lon="11.117895"><ele>744.6666666666666</ele><time>2026-04-25T13:02:37.32Z</time></trkpt><trkpt lat="45.5555508" lon="11.1178742"><ele>749.0</ele><time>2026-04-25T13:02:38.32Z</time></trkpt><trkpt lat="45.5557168" lon="11.1177935"><ele>749.0</ele><time>2026-04-25T13:02:39.321Z</time></trkpt><trkpt lat="45.5558844" lon="11.1176799"><ele>749.0</ele><time>2026-04-25T13:02:40.321Z</time></trkpt><trkpt lat="45.5560511" lon="11.1175735"><ele>749.0</ele><time>2026-04-25T13:02:41.321Z</time></trkpt><trkpt lat="45.5562123" lon="11.1174828"><ele>751.0</ele><time>2026-04-25T13:02:42.322Z</time></trkpt><trkpt lat="45.5563613" lon="11.1173971"><ele>753.0</ele><time>2026-04-25T13:02:43.322Z</time></trkpt><trkpt lat="45.5564831" lon="11.1172771"><ele>755.0</ele><time>2026-04-25T13:02:44.321Z</time></trkpt><trkpt lat="45.5565801" lon="11.1171094"><ele>755.0</ele><time>2026-04-25T13:02:45.322Z</time></trkpt><trkpt lat="45.5566615" lon="11.116888"><ele>755.0</ele><time>2026-04-25T13:02:46.321Z</time></trkpt><trkpt lat="45.5567272" lon="11.1166992"><ele>755.0</ele><time>2026-04-25T13:02:47.321Z</time></trkpt><trkpt lat="45.5567949" lon="11.1165269"><ele>756.75</ele><time>2026-04-25T13:02:48.322Z</time></trkpt><trkpt lat="45.5568901" lon="11.1163983"><ele>758.5</ele><time>2026-04-25T13:02:49.322Z</time></trkpt><trkpt lat="45.5570178" lon="11.1163092"><ele>760.25</ele><time>2026-04-25T13:02:50.322Z</time></trkpt><trkpt lat="45.5571573" lon="11.1162413"><ele>762.0</ele><time>2026-04-25T13:02:51.321Z</time></trkpt><trkpt lat="45.5573029" lon="11.116185"><ele>762.0</ele><time>2026-04-25T13:02:52.322Z</time></trkpt><trkpt lat="45.5574297" lon="11.1161107"><ele>762.0</ele><time>2026-04-25T13:02:53.322Z</time></trkpt><trkpt lat="45.5574996" lon="11.1159814"><ele>762.0</ele><time>2026-04-25T13:02:54.321Z</time></trkpt><trkpt lat="45.5575483" lon="11.1158299"><ele>762.0</ele><time>2026-04-25T13:02:55.322Z</time></trkpt><trkpt lat="45.5575721" lon="11.1156514"><ele>762.75</ele><time>2026-04-25T13:02:56.321Z</time></trkpt><trkpt lat="45.5576031" lon="11.1154812"><ele>763.5</ele><time>2026-04-25T13:02:57.322Z</time></trkpt><trkpt lat="45.5576803" lon="11.1153785"><ele>764.25</ele><time>2026-04-25T13:02:58.321Z</time></trkpt><trkpt lat="45.557812" lon="11.115318"><ele>765.0</ele><time>2026-04-25T13:02:59.321Z</time></trkpt><trkpt lat="45.5579576" lon="11.1152719"><ele>765.0</ele><time>2026-04-25T13:03:00.321Z</time></trkpt><trkpt lat="45.5581408" lon="11.115228"><ele>765.0</ele><time>2026-04-25T13:03:01.321Z</time></trkpt><trkpt lat="45.5583174" lon="11.1151683"><ele>765.0</ele><time>2026-04-25T13:03:02.321Z</time></trkpt><trkpt lat="45.558475" lon="11.1151108"><ele>765.0</ele><time>2026-04-25T13:03:03.321Z</time></trkpt><trkpt lat="45.5586161" lon="11.115068"><ele>765.0</ele><time>2026-04-25T13:03:04.321Z</time></trkpt><trkpt lat="45.5587456" lon="11.1150461"><ele>765.0</ele><time>2026-04-25T13:03:05.322Z</time></trkpt><trkpt lat="45.5588485" lon="11.1150783"><ele>765.0</ele><time>2026-04-25T13:03:06.322Z</time></trkpt><trkpt lat="45.5589539" lon="11.1151726"><ele>765.25</ele><time>2026-04-25T13:03:07.322Z</time></trkpt><trkpt lat="45.5590331" lon="11.1153204"><ele>765.5</ele><time>2026-04-25T13:03:08.321Z</time></trkpt><trkpt lat="45.5591006" lon="11.1155287"><ele>765.75</ele><time>2026-04-25T13:03:09.321Z</time></trkpt><trkpt lat="45.5591382" lon="11.1157354"><ele>766.0</ele><time>2026-04-25T13:03:10.321Z</time></trkpt><trkpt lat="45.5591822" lon="11.1159351"><ele>765.4</ele><time>2026-04-25T13:03:11.321Z</time></trkpt><trkpt lat="45.5592228" lon="11.1160676"><ele>764.8</ele><time>2026-04-25T13:03:12.321Z</time></trkpt><trkpt lat="45.5592888" lon="11.1161669"><ele>764.1999999999999</ele><time>2026-04-25T13:03:13.322Z</time></trkpt><trkpt lat="45.5593934" lon="11.1162312"><ele>763.5999999999999</ele><time>2026-04-25T13:03:14.321Z</time></trkpt><trkpt lat="45.5595216" lon="11.1162564"><ele>763.0</ele><time>2026-04-25T13:03:15.322Z</time></trkpt><trkpt lat="45.5596505" lon="11.1162288"><ele>763.0</ele><time>2026-04-25T13:03:16.322Z</time></trkpt><trkpt lat="45.5597703" lon="11.1161906"><ele>763.0</ele><time>2026-04-25T13:03:17.321Z</time></trkpt><trkpt lat="45.5598841" lon="11.1161997"><ele>763.0</ele><time>2026-04-25T13:03:18.321Z</time></trkpt><trkpt lat="45.560004" lon="11.1162517"><ele>763.0</ele><time>2026-04-25T13:03:19.321Z</time></trkpt><trkpt lat="45.5601356" lon="11.1163724"><ele>763.0</ele><time>2026-04-25T13:03:20.321Z</time></trkpt><trkpt lat="45.5602722" lon="11.116538"><ele>763.0</ele><time>2026-04-25T13:03:21.321Z</time></trkpt><trkpt lat="45.5604111" lon="11.1167077"><ele>763.0</ele><time>2026-04-25T13:03:22.321Z</time></trkpt><trkpt lat="45.5605215" lon="11.1168545"><ele>766.3333333333334</ele><time>2026-04-25T13:03:23.321Z</time></trkpt><trkpt lat="45.56064" lon="11.1169918"><ele>769.6666666666667</ele><time>2026-04-25T13:03:24.321Z</time></trkpt><trkpt lat="45.5607803" lon="11.1171101"><ele>773.0</ele><time>2026-04-25T13:03:25.321Z</time></trkpt><trkpt lat="45.5609421" lon="11.1172032"><ele>773.0</ele><time>2026-04-25T13:03:26.321Z</time></trkpt><trkpt lat="45.5611262" lon="11.1172382"><ele>773.0</ele><time>2026-04-25T13:03:27.322Z</time></trkpt><trkpt lat="45.5613029" lon="11.1172466"><ele>773.0</ele><time>2026-04-25T13:03:28.321Z</time></trkpt><trkpt lat="45.5614735" lon="11.1172623"><ele>774.75</ele><time>2026-04-25T13:03:29.321Z</time></trkpt><trkpt lat="45.5616028" lon="11.1172631"><ele>776.5</ele><time>2026-04-25T13:03:30.321Z</time></trkpt><trkpt lat="45.5617228" lon="11.1172487"><ele>778.25</ele><time>2026-04-25T13:03:31.322Z</time></trkpt><trkpt lat="45.5618487" lon="11.1172027"><ele>780.0</ele><time>2026-04-25T13:03:32.321Z</time></trkpt><trkpt lat="45.5619249" lon="11.1171127"><ele>780.0</ele><time>2026-04-25T13:03:33.321Z</time></trkpt><trkpt lat="45.5619709" lon="11.1169841"><ele>780.0</ele><time>2026-04-25T13:03:34.321Z</time></trkpt><trkpt lat="45.5620008" lon="11.1167721"><ele>780.0</ele><time>2026-04-25T13:03:35.321Z</time></trkpt><trkpt lat="45.5619538" lon="11.116482"><ele>781.3333333333333</ele><time>2026-04-25T13:03:36.322Z</time></trkpt><trkpt lat="45.5618668" lon="11.116219"><ele>782.6666666666666</ele><time>2026-04-25T13:03:37.321Z</time></trkpt><trkpt lat="45.5617874" lon="11.1159542"><ele>784.0</ele><time>2026-04-25T13:03:38.321Z</time></trkpt><trkpt lat="45.5617198" lon="11.1156952"><ele>784.0</ele><time>2026-04-25T13:03:39.321Z</time></trkpt><trkpt lat="45.5616797" lon="11.1154518"><ele>784.0</ele><time>2026-04-25T13:03:40.321Z</time></trkpt><trkpt lat="45.5616658" lon="11.1152115"><ele>784.0</ele><time>2026-04-25T13:03:41.322Z</time></trkpt><trkpt lat="45.5616807" lon="11.1149641"><ele>783.0</ele><time>2026-04-25T13:03:42.322Z</time></trkpt><trkpt lat="45.5617183" lon="11.1147138"><ele>782.0</ele><time>2026-04-25T13:03:43.321Z</time></trkpt><trkpt lat="45.5617866" lon="11.1144751"><ele>781.0</ele><time>2026-04-25T13:03:44.322Z</time></trkpt><trkpt lat="45.5618797" lon="11.1142552"><ele>779.75</ele><time>2026-04-25T13:03:45.322Z</time></trkpt><trkpt lat="45.5619687" lon="11.1140654"><ele>778.5</ele><time>2026-04-25T13:03:46.323Z</time></trkpt><trkpt lat="45.5620579" lon="11.1139239"><ele>777.25</ele><time>2026-04-25T13:03:47.323Z</time></trkpt><trkpt lat="45.5621756" lon="11.1138411"><ele>776.0</ele><time>2026-04-25T13:03:48.322Z</time></trkpt><trkpt lat="45.562317" lon="11.1138035"><ele>776.0</ele><time>2026-04-25T13:03:49.322Z</time></trkpt><trkpt lat="45.5624696" lon="11.1138045"><ele>776.0</ele><time>2026-04-25T13:03:50.322Z</time></trkpt><trkpt lat="45.5626091" lon="11.1138659"><ele>776.0</ele><time>2026-04-25T13:03:51.322Z</time></trkpt><trkpt lat="45.5627431" lon="11.1139764"><ele>777.3333333333334</ele><time>2026-04-25T13:03:52.322Z</time></trkpt><trkpt lat="45.5628836" lon="11.1141114"><ele>778.6666666666667</ele><time>2026-04-25T13:03:53.322Z</time></trkpt><trkpt lat="45.5630172" lon="11.1142759"><ele>780.0</ele><time>2026-04-25T13:03:54.322Z</time></trkpt><trkpt lat="45.5631421" lon="11.1144655"><ele>780.0</ele><time>2026-04-25T13:03:55.322Z</time></trkpt><trkpt lat="45.5632574" lon="11.1146828"><ele>780.0</ele><time>2026-04-25T13:03:56.323Z</time></trkpt><trkpt lat="45.5633586" lon="11.1149186"><ele>780.0</ele><time>2026-04-25T13:03:57.323Z</time></trkpt><trkpt lat="45.5634298" lon="11.115158"><ele>783.75</ele><time>2026-04-25T13:03:58.323Z</time></trkpt><trkpt lat="45.5634586" lon="11.1153654"><ele>787.5</ele><time>2026-04-25T13:03:59.323Z</time></trkpt><trkpt lat="45.5634769" lon="11.1155463"><ele>791.25</ele><time>2026-04-25T13:04:00.322Z</time></trkpt><trkpt lat="45.5634947" lon="11.1157117"><ele>795.0</ele><time>2026-04-25T13:04:01.322Z</time></trkpt><trkpt lat="45.5635355" lon="11.1158298"><ele>792.5</ele><time>2026-04-25T13:04:02.322Z</time></trkpt><trkpt lat="45.5635956" lon="11.1158935"><ele>790.0</ele><time>2026-04-25T13:04:03.322Z</time></trkpt><trkpt lat="45.5637573" lon="11.1158363"><ele>787.5</ele><time>2026-04-25T13:04:05.322Z</time></trkpt><trkpt lat="45.5638751" lon="11.1157005"><ele>785.0</ele><time>2026-04-25T13:04:06.322Z</time></trkpt><trkpt lat="45.564021" lon="11.1155258"><ele>785.0</ele><time>2026-04-25T13:04:07.322Z</time></trkpt><trkpt lat="45.5641435" lon="11.1153948"><ele>785.0</ele><time>2026-04-25T13:04:08.322Z</time></trkpt><trkpt lat="45.5642598" lon="11.1153143"><ele>785.0</ele><time>2026-04-25T13:04:09.323Z</time></trkpt><trkpt lat="45.5643651" lon="11.1152779"><ele>785.0</ele><time>2026-04-25T13:04:10.322Z</time></trkpt><trkpt lat="45.5644472" lon="11.1153178"><ele>788.0</ele><time>2026-04-25T13:04:11.322Z</time></trkpt><trkpt lat="45.5645427" lon="11.11539"><ele>791.0</ele><time>2026-04-25T13:04:12.323Z</time></trkpt><trkpt lat="45.5646599" lon="11.1155406"><ele>794.0</ele><time>2026-04-25T13:04:13.323Z</time></trkpt><trkpt lat="45.5647576" lon="11.1157044"><ele>797.0</ele><time>2026-04-25T13:04:14.323Z</time></trkpt><trkpt lat="45.5648397" lon="11.1158047"><ele>797.0</ele><time>2026-04-25T13:04:15.322Z</time></trkpt><trkpt lat="45.5649219" lon="11.1158498"><ele>797.0</ele><time>2026-04-25T13:04:16.322Z</time></trkpt><trkpt lat="45.5650306" lon="11.1158235"><ele>797.0</ele><time>2026-04-25T13:04:17.322Z</time></trkpt><trkpt lat="45.5651281" lon="11.1157481"><ele>797.0</ele><time>2026-04-25T13:04:18.322Z</time></trkpt><trkpt lat="45.5652088" lon="11.1156054"><ele>797.0</ele><time>2026-04-25T13:04:19.323Z</time></trkpt><trkpt lat="45.5652681" lon="11.1154151"><ele>797.0</ele><time>2026-04-25T13:04:20.322Z</time></trkpt><trkpt lat="45.5653486" lon="11.1152408"><ele>797.0</ele><time>2026-04-25T13:04:21.322Z</time></trkpt><trkpt lat="45.5654322" lon="11.1150736"><ele>797.0</ele><time>2026-04-25T13:04:22.322Z</time></trkpt><trkpt lat="45.5655096" lon="11.1149273"><ele>797.0</ele><time>2026-04-25T13:04:23.322Z</time></trkpt><trkpt lat="45.5655781" lon="11.1147613"><ele>800.25</ele><time>2026-04-25T13:04:24.323Z</time></trkpt><trkpt lat="45.5655871" lon="11.1145766"><ele>803.5</ele><time>2026-04-25T13:04:25.322Z</time></trkpt><trkpt lat="45.5655484" lon="11.1143796"><ele>806.75</ele><time>2026-04-25T13:04:26.322Z</time></trkpt><trkpt lat="45.565495" lon="11.1142145"><ele>810.0</ele><time>2026-04-25T13:04:27.322Z</time></trkpt><trkpt lat="45.5654528" lon="11.1140734"><ele>809.0</ele><time>2026-04-25T13:04:28.322Z</time></trkpt><trkpt lat="45.5654244" lon="11.1139346"><ele>808.0</ele><time>2026-04-25T13:04:29.323Z</time></trkpt><trkpt lat="45.5654245" lon="11.113793"><ele>807.0</ele><time>2026-04-25T13:04:30.323Z</time></trkpt><trkpt lat="45.5654451" lon="11.1136497"><ele>806.0</ele><time>2026-04-25T13:04:31.323Z</time></trkpt><trkpt lat="45.5654812" lon="11.1135236"><ele>805.0</ele><time>2026-04-25T13:04:32.322Z</time></trkpt><trkpt lat="45.5655074" lon="11.113418"><ele>804.9999999999999</ele><time>2026-04-25T13:04:33.323Z</time></trkpt><trkpt lat="45.5655327" lon="11.1133298"><ele>805.0</ele><time>2026-04-25T13:04:34.322Z</time></trkpt><trkpt lat="45.5655734" lon="11.1132586"><ele>805.0</ele><time>2026-04-25T13:04:35.323Z</time></trkpt><trkpt lat="45.5656434" lon="11.1132168"><ele>805.0</ele><time>2026-04-25T13:04:36.322Z</time></trkpt><trkpt lat="45.565726" lon="11.1131905"><ele>804.9999999999999</ele><time>2026-04-25T13:04:37.322Z</time></trkpt><trkpt lat="45.565812" lon="11.1132046"><ele>805.0</ele><time>2026-04-25T13:04:38.322Z</time></trkpt><trkpt lat="45.5658862" lon="11.1132317"><ele>804.9999999999999</ele><time>2026-04-25T13:04:39.323Z</time></trkpt><trkpt lat="45.565969" lon="11.1132629"><ele>805.0</ele><time>2026-04-25T13:04:40.323Z</time></trkpt><trkpt lat="45.5660548" lon="11.113302"><ele>805.0</ele><time>2026-04-25T13:04:41.322Z</time></trkpt><trkpt lat="45.5661385" lon="11.1133381"><ele>805.0</ele><time>2026-04-25T13:04:42.322Z</time></trkpt><trkpt lat="45.5662227" lon="11.113382"><ele>804.9999999999999</ele><time>2026-04-25T13:04:43.322Z</time></trkpt><trkpt lat="45.5663059" lon="11.1134296"><ele>805.0</ele><time>2026-04-25T13:04:44.322Z</time></trkpt><trkpt lat="45.5663937" lon="11.1134888"><ele>805.2</ele><time>2026-04-25T13:04:45.322Z</time></trkpt><trkpt lat="45.5664763" lon="11.113568"><ele>805.4</ele><time>2026-04-25T13:04:46.322Z</time></trkpt><trkpt lat="45.5665487" lon="11.1136697"><ele>805.5999999999999</ele><time>2026-04-25T13:04:47.322Z</time></trkpt><trkpt lat="45.5666056" lon="11.1138023"><ele>805.8</ele><time>2026-04-25T13:04:48.323Z</time></trkpt><trkpt lat="45.5666272" lon="11.1139472"><ele>806.0</ele><time>2026-04-25T13:04:49.323Z</time></trkpt><trkpt lat="45.566623" lon="11.1141025"><ele>807.5</ele><time>2026-04-25T13:04:50.323Z</time></trkpt><trkpt lat="45.566582" lon="11.114238"><ele>809.0</ele><time>2026-04-25T13:04:51.323Z</time></trkpt><trkpt lat="45.5664964" lon="11.1143593"><ele>810.5</ele><time>2026-04-25T13:04:52.323Z</time></trkpt><trkpt lat="45.5663876" lon="11.1144782"><ele>812.0</ele><time>2026-04-25T13:04:53.323Z</time></trkpt><trkpt lat="45.5662647" lon="11.1146267"><ele>812.3333333333334</ele><time>2026-04-25T13:04:54.323Z</time></trkpt><trkpt lat="45.5661481" lon="11.1147893"><ele>812.6666666666667</ele><time>2026-04-25T13:04:55.324Z</time></trkpt><trkpt lat="45.5660386" lon="11.1149621"><ele>813.0</ele><time>2026-04-25T13:04:56.323Z</time></trkpt><trkpt lat="45.5659293" lon="11.1151503"><ele>813.0</ele><time>2026-04-25T13:04:57.323Z</time></trkpt><trkpt lat="45.565821" lon="11.1153572"><ele>813.0</ele><time>2026-04-25T13:04:58.323Z</time></trkpt><trkpt lat="45.5657201" lon="11.1155769"><ele>813.0</ele><time>2026-04-25T13:04:59.324Z</time></trkpt><trkpt lat="45.5655411" lon="11.1159891"><ele>813.75</ele><time>2026-04-25T13:05:01.324Z</time></trkpt><trkpt lat="45.5654587" lon="11.116178"><ele>814.5</ele><time>2026-04-25T13:05:02.323Z</time></trkpt><trkpt lat="45.565379" lon="11.1163536"><ele>815.25</ele><time>2026-04-25T13:05:03.323Z</time></trkpt><trkpt lat="45.5653045" lon="11.1165049"><ele>816.0</ele><time>2026-04-25T13:05:04.323Z</time></trkpt><trkpt lat="45.5652299" lon="11.1166525"><ele>820.1999999999999</ele><time>2026-04-25T13:05:05.323Z</time></trkpt><trkpt lat="45.565153" lon="11.116764"><ele>824.4</ele><time>2026-04-25T13:05:06.323Z</time></trkpt><trkpt lat="45.565063" lon="11.1168406"><ele>828.6</ele><time>2026-04-25T13:05:07.323Z</time></trkpt><trkpt lat="45.5649631" lon="11.1168672"><ele>832.8</ele><time>2026-04-25T13:05:08.323Z</time></trkpt><trkpt lat="45.5648721" lon="11.1168627"><ele>837.0</ele><time>2026-04-25T13:05:09.323Z</time></trkpt><trkpt lat="45.5647872" lon="11.1168417"><ele>837.0</ele><time>2026-04-25T13:05:10.323Z</time></trkpt><trkpt lat="45.5646902" lon="11.1167619"><ele>837.0</ele><time>2026-04-25T13:05:11.324Z</time></trkpt><trkpt lat="45.5645871" lon="11.1166749"><ele>837.0</ele><time>2026-04-25T13:05:12.324Z</time></trkpt><trkpt lat="45.564466" lon="11.1165717"><ele>837.0</ele><time>2026-04-25T13:05:13.323Z</time></trkpt><trkpt lat="45.5643435" lon="11.1165289"><ele>836.0</ele><time>2026-04-25T13:05:14.324Z</time></trkpt><trkpt lat="45.5642637" lon="11.116582"><ele>835.0</ele><time>2026-04-25T13:05:15.323Z</time></trkpt><trkpt lat="45.564206" lon="11.1166708"><ele>834.0</ele><time>2026-04-25T13:05:16.323Z</time></trkpt><trkpt lat="45.5642031" lon="11.1167714"><ele>833.0</ele><time>2026-04-25T13:05:17.324Z</time></trkpt><trkpt lat="45.5642483" lon="11.1168583"><ele>832.0</ele><time>2026-04-25T13:05:18.324Z</time></trkpt><trkpt lat="45.5643124" lon="11.1169284"><ele>831.0</ele><time>2026-04-25T13:05:19.323Z</time></trkpt><trkpt lat="45.5644516" lon="11.1169559"><ele>833.0</ele><time>2026-04-25T13:05:20.323Z</time></trkpt><trkpt lat="45.5646099" lon="11.1169787"><ele>835.0</ele><time>2026-04-25T13:05:21.323Z</time></trkpt><trkpt lat="45.5647637" lon="11.1169982"><ele>837.0</ele><time>2026-04-25T13:05:22.323Z</time></trkpt><trkpt lat="45.5649078" lon="11.1170478"><ele>837.0</ele><time>2026-04-25T13:05:23.323Z</time></trkpt><trkpt lat="45.565042" lon="11.1171091"><ele>837.0</ele><time>2026-04-25T13:05:24.324Z</time></trkpt><trkpt lat="45.5651645" lon="11.1171797"><ele>837.0</ele><time>2026-04-25T13:05:25.323Z</time></trkpt><trkpt lat="45.5652876" lon="11.1172101"><ele>837.0</ele><time>2026-04-25T13:05:26.323Z</time></trkpt><trkpt lat="45.5654095" lon="11.1171649"><ele>840.5</ele><time>2026-04-25T13:05:27.323Z</time></trkpt><trkpt lat="45.565527" lon="11.1170902"><ele>844.0</ele><time>2026-04-25T13:05:28.324Z</time></trkpt><trkpt lat="45.5656361" lon="11.1169748"><ele>847.5</ele><time>2026-04-25T13:05:29.324Z</time></trkpt><trkpt lat="45.5657545" lon="11.1168765"><ele>851.0</ele><time>2026-04-25T13:05:30.324Z</time></trkpt><trkpt lat="45.5659114" lon="11.1168234"><ele>851.0</ele><time>2026-04-25T13:05:31.324Z</time></trkpt><trkpt lat="45.5660777" lon="11.1168031"><ele>851.0</ele><time>2026-04-25T13:05:32.323Z</time></trkpt><trkpt lat="45.5662557" lon="11.1167984"><ele>851.0</ele><time>2026-04-25T13:05:33.323Z</time></trkpt><trkpt lat="45.5664418" lon="11.1168168"><ele>852.3333333333334</ele><time>2026-04-25T13:05:34.324Z</time></trkpt><trkpt lat="45.5666075" lon="11.1168248"><ele>853.6666666666667</ele><time>2026-04-25T13:05:35.323Z</time></trkpt><trkpt lat="45.5667551" lon="11.1168349"><ele>855.0</ele><time>2026-04-25T13:05:36.324Z</time></trkpt><trkpt lat="45.5668882" lon="11.1168951"><ele>851.5</ele><time>2026-04-25T13:05:37.323Z</time></trkpt><trkpt lat="45.5671526" lon="11.117122"><ele>848.0</ele><time>2026-04-25T13:05:39.324Z</time></trkpt><trkpt lat="45.5672763" lon="11.1172502"><ele>848.0</ele><time>2026-04-25T13:05:40.324Z</time></trkpt><trkpt lat="45.5673638" lon="11.1173649"><ele>848.0</ele><time>2026-04-25T13:05:41.323Z</time></trkpt><trkpt lat="45.567471" lon="11.1174171"><ele>848.0</ele><time>2026-04-25T13:05:42.324Z</time></trkpt><trkpt lat="45.5675743" lon="11.1174104"><ele>848.0</ele><time>2026-04-25T13:05:43.323Z</time></trkpt><trkpt lat="45.5676889" lon="11.117358"><ele>848.0</ele><time>2026-04-25T13:05:44.323Z</time></trkpt><trkpt lat="45.5678146" lon="11.1172778"><ele>848.0</ele><time>2026-04-25T13:05:45.324Z</time></trkpt><trkpt lat="45.5679502" lon="11.1171988"><ele>848.0</ele><time>2026-04-25T13:05:46.323Z</time></trkpt><trkpt lat="45.5680835" lon="11.1171238"><ele>848.0</ele><time>2026-04-25T13:05:47.324Z</time></trkpt><trkpt lat="45.5682063" lon="11.1170617"><ele>850.5</ele><time>2026-04-25T13:05:48.323Z</time></trkpt><trkpt lat="45.5683305" lon="11.1170218"><ele>853.0</ele><time>2026-04-25T13:05:49.323Z</time></trkpt><trkpt lat="45.5684732" lon="11.1170264"><ele>855.5</ele><time>2026-04-25T13:05:50.323Z</time></trkpt><trkpt lat="45.5686109" lon="11.1170575"><ele>858.0</ele><time>2026-04-25T13:05:51.323Z</time></trkpt><trkpt lat="45.568744" lon="11.117118"><ele>858.0</ele><time>2026-04-25T13:05:52.323Z</time></trkpt><trkpt lat="45.5688878" lon="11.1172136"><ele>858.0</ele><time>2026-04-25T13:05:53.323Z</time></trkpt><trkpt lat="45.5690395" lon="11.1173554"><ele>858.0</ele><time>2026-04-25T13:05:54.324Z</time></trkpt><trkpt lat="45.5692301" lon="11.1175333"><ele>857.6666666666667</ele><time>2026-04-25T13:05:55.324Z</time></trkpt><trkpt lat="45.569406" lon="11.1177102"><ele>857.3333333333334</ele><time>2026-04-25T13:05:56.324Z</time></trkpt><trkpt lat="45.5695815" lon="11.1178781"><ele>857.0</ele><time>2026-04-25T13:05:57.324Z</time></trkpt><trkpt lat="45.5697667" lon="11.1180511"><ele>857.0</ele><time>2026-04-25T13:05:58.325Z</time></trkpt><trkpt lat="45.5699367" lon="11.1182098"><ele>857.0</ele><time>2026-04-25T13:05:59.325Z</time></trkpt><trkpt lat="45.5701081" lon="11.1183681"><ele>857.0</ele><time>2026-04-25T13:06:00.324Z</time></trkpt><trkpt lat="45.570263" lon="11.1185055"><ele>865.0</ele><time>2026-04-25T13:06:01.324Z</time></trkpt><trkpt lat="45.5704163" lon="11.1186119"><ele>873.0</ele><time>2026-04-25T13:06:02.324Z</time></trkpt><trkpt lat="45.5705748" lon="11.118707"><ele>881.0</ele><time>2026-04-25T13:06:03.324Z</time></trkpt><trkpt lat="45.5707501" lon="11.1187527"><ele>881.0</ele><time>2026-04-25T13:06:04.325Z</time></trkpt><trkpt lat="45.5709498" lon="11.1187705"><ele>881.0</ele><time>2026-04-25T13:06:05.324Z</time></trkpt><trkpt lat="45.5711415" lon="11.1187803"><ele>881.0</ele><time>2026-04-25T13:06:06.325Z</time></trkpt><trkpt lat="45.5713002" lon="11.1188"><ele>879.75</ele><time>2026-04-25T13:06:07.325Z</time></trkpt><trkpt lat="45.5714386" lon="11.1188377"><ele>878.5</ele><time>2026-04-25T13:06:08.324Z</time></trkpt><trkpt lat="45.5715742" lon="11.1188964"><ele>877.25</ele><time>2026-04-25T13:06:09.325Z</time></trkpt><trkpt lat="45.5717164" lon="11.1190022"><ele>876.0</ele><time>2026-04-25T13:06:10.325Z</time></trkpt><trkpt lat="45.5718441" lon="11.119151"><ele>877.3333333333333</ele><time>2026-04-25T13:06:11.325Z</time></trkpt><trkpt lat="45.5719766" lon="11.1193348"><ele>878.6666666666666</ele><time>2026-04-25T13:06:12.324Z</time></trkpt><trkpt lat="45.5721118" lon="11.1195407"><ele>880.0</ele><time>2026-04-25T13:06:13.325Z</time></trkpt><trkpt lat="45.5722472" lon="11.1197445"><ele>884.6666666666666</ele><time>2026-04-25T13:06:14.325Z</time></trkpt><trkpt lat="45.5723966" lon="11.1199345"><ele>889.3333333333333</ele><time>2026-04-25T13:06:15.324Z</time></trkpt><trkpt lat="45.5725404" lon="11.1200826"><ele>894.0</ele><time>2026-04-25T13:06:16.324Z</time></trkpt><trkpt lat="45.5726912" lon="11.1201954"><ele>894.0</ele><time>2026-04-25T13:06:17.325Z</time></trkpt><trkpt lat="45.572861" lon="11.1202462"><ele>894.0</ele><time>2026-04-25T13:06:18.325Z</time></trkpt><trkpt lat="45.5730482" lon="11.1202849"><ele>894.0</ele><time>2026-04-25T13:06:19.325Z</time></trkpt><trkpt lat="45.5732575" lon="11.1203384"><ele>894.0</ele><time>2026-04-25T13:06:20.324Z</time></trkpt><trkpt lat="45.5734448" lon="11.1204487"><ele>894.0</ele><time>2026-04-25T13:06:21.324Z</time></trkpt><trkpt lat="45.573631" lon="11.1205857"><ele>894.0</ele><time>2026-04-25T13:06:22.324Z</time></trkpt><trkpt lat="45.5738044" lon="11.1207503"><ele>898.6666666666667</ele><time>2026-04-25T13:06:23.325Z</time></trkpt><trkpt lat="45.5739654" lon="11.1208876"><ele>903.3333333333334</ele><time>2026-04-25T13:06:24.324Z</time></trkpt><trkpt lat="45.5741333" lon="11.1210027"><ele>908.0</ele><time>2026-04-25T13:06:25.324Z</time></trkpt><trkpt lat="45.5742922" lon="11.121091"><ele>908.0</ele><time>2026-04-25T13:06:26.324Z</time></trkpt><trkpt lat="45.5744363" lon="11.121148"><ele>908.0</ele><time>2026-04-25T13:06:27.324Z</time></trkpt><trkpt lat="45.5745779" lon="11.1211737"><ele>908.0</ele><time>2026-04-25T13:06:28.325Z</time></trkpt><trkpt lat="45.5747252" lon="11.1211527"><ele>908.0</ele><time>2026-04-25T13:06:29.324Z</time></trkpt><trkpt lat="45.5748786" lon="11.1210815"><ele>910.0</ele><time>2026-04-25T13:06:30.325Z</time></trkpt><trkpt lat="45.5750307" lon="11.1209841"><ele>912.0</ele><time>2026-04-25T13:06:31.324Z</time></trkpt><trkpt lat="45.5751748" lon="11.1208656"><ele>914.0</ele><time>2026-04-25T13:06:32.324Z</time></trkpt><trkpt lat="45.5753087" lon="11.1207241"><ele>916.0</ele><time>2026-04-25T13:06:33.325Z</time></trkpt><trkpt lat="45.5754277" lon="11.1205521"><ele>918.0</ele><time>2026-04-25T13:06:34.324Z</time></trkpt><trkpt lat="45.5755339" lon="11.1203515"><ele>920.0</ele><time>2026-04-25T13:06:35.324Z</time></trkpt><trkpt lat="45.5756326" lon="11.1201263"><ele>923.3333333333334</ele><time>2026-04-25T13:06:36.324Z</time></trkpt><trkpt lat="45.5757344" lon="11.1198886"><ele>926.6666666666667</ele><time>2026-04-25T13:06:37.324Z</time></trkpt><trkpt lat="45.5758416" lon="11.119653"><ele>930.0</ele><time>2026-04-25T13:06:38.324Z</time></trkpt><trkpt lat="45.5759517" lon="11.1194133"><ele>930.0</ele><time>2026-04-25T13:06:39.324Z</time></trkpt><trkpt lat="45.5760689" lon="11.1191978"><ele>930.0</ele><time>2026-04-25T13:06:40.324Z</time></trkpt><trkpt lat="45.5762034" lon="11.1190112"><ele>930.0</ele><time>2026-04-25T13:06:41.324Z</time></trkpt><trkpt lat="45.5763582" lon="11.1188472"><ele>931.6666666666667</ele><time>2026-04-25T13:06:42.324Z</time></trkpt><trkpt lat="45.5765235" lon="11.118722"><ele>933.3333333333334</ele><time>2026-04-25T13:06:43.324Z</time></trkpt><trkpt lat="45.57668" lon="11.1186008"><ele>935.0</ele><time>2026-04-25T13:06:44.324Z</time></trkpt><trkpt lat="45.5768351" lon="11.11848"><ele>935.0</ele><time>2026-04-25T13:06:45.325Z</time></trkpt><trkpt lat="45.5769899" lon="11.1183598"><ele>935.0</ele><time>2026-04-25T13:06:46.325Z</time></trkpt><trkpt lat="45.577143" lon="11.118246"><ele>935.0</ele><time>2026-04-25T13:06:47.325Z</time></trkpt><trkpt lat="45.577294" lon="11.1181313"><ele>935.6666666666667</ele><time>2026-04-25T13:06:48.324Z</time></trkpt><trkpt lat="45.5774473" lon="11.1180082"><ele>936.3333333333333</ele><time>2026-04-25T13:06:49.325Z</time></trkpt><trkpt lat="45.5775976" lon="11.1178773"><ele>937.0</ele><time>2026-04-25T13:06:50.324Z</time></trkpt><trkpt lat="45.5777421" lon="11.1177353"><ele>937.0</ele><time>2026-04-25T13:06:51.325Z</time></trkpt><trkpt lat="45.5778802" lon="11.1175893"><ele>937.0</ele><time>2026-04-25T13:06:52.324Z</time></trkpt><trkpt lat="45.5780171" lon="11.1174389"><ele>937.0</ele><time>2026-04-25T13:06:53.325Z</time></trkpt><trkpt lat="45.5781588" lon="11.1172844"><ele>937.0</ele><time>2026-04-25T13:06:54.324Z</time></trkpt><trkpt lat="45.5783036" lon="11.1171297"><ele>937.0</ele><time>2026-04-25T13:06:55.324Z</time></trkpt><trkpt lat="45.5784511" lon="11.1169705"><ele>937.0</ele><time>2026-04-25T13:06:56.324Z</time></trkpt><trkpt lat="45.5785935" lon="11.1168144"><ele>936.0</ele><time>2026-04-25T13:06:57.324Z</time></trkpt><trkpt lat="45.5787313" lon="11.1166626"><ele>935.0</ele><time>2026-04-25T13:06:58.325Z</time></trkpt><trkpt lat="45.5788705" lon="11.1165154"><ele>934.0</ele><time>2026-04-25T13:06:59.325Z</time></trkpt><trkpt lat="45.5790211" lon="11.116375"><ele>934.0</ele><time>2026-04-25T13:07:00.325Z</time></trkpt><trkpt lat="45.5791816" lon="11.1162391"><ele>934.0</ele><time>2026-04-25T13:07:01.325Z</time></trkpt><trkpt lat="45.5793425" lon="11.1161119"><ele>934.0</ele><time>2026-04-25T13:07:02.326Z</time></trkpt><trkpt lat="45.5795003" lon="11.1159823"><ele>933.6666666666666</ele><time>2026-04-25T13:07:03.325Z</time></trkpt><trkpt lat="45.5796625" lon="11.1158532"><ele>933.3333333333333</ele><time>2026-04-25T13:07:04.326Z</time></trkpt><trkpt lat="45.5798212" lon="11.1157266"><ele>933.0</ele><time>2026-04-25T13:07:05.325Z</time></trkpt><trkpt lat="45.5799757" lon="11.1156006"><ele>933.0</ele><time>2026-04-25T13:07:06.326Z</time></trkpt><trkpt lat="45.5801277" lon="11.1154751"><ele>933.0</ele><time>2026-04-25T13:07:07.325Z</time></trkpt><trkpt lat="45.5802716" lon="11.1153538"><ele>933.0</ele><time>2026-04-25T13:07:08.325Z</time></trkpt><trkpt lat="45.5804125" lon="11.1152356"><ele>932.6666666666667</ele><time>2026-04-25T13:07:09.325Z</time></trkpt><trkpt lat="45.5805552" lon="11.1151133"><ele>932.3333333333334</ele><time>2026-04-25T13:07:10.325Z</time></trkpt><trkpt lat="45.5807032" lon="11.1150062"><ele>932.0</ele><time>2026-04-25T13:07:11.325Z</time></trkpt><trkpt lat="45.5808703" lon="11.1149241"><ele>935.0</ele><time>2026-04-25T13:07:12.325Z</time></trkpt><trkpt lat="45.5810679" lon="11.1148842"><ele>938.0</ele><time>2026-04-25T13:07:13.325Z</time></trkpt><trkpt lat="45.5812672" lon="11.1148595"><ele>941.0</ele><time>2026-04-25T13:07:14.326Z</time></trkpt><trkpt lat="45.5814643" lon="11.1148312"><ele>941.6666666666667</ele><time>2026-04-25T13:07:15.325Z</time></trkpt><trkpt lat="45.5816652" lon="11.1148176"><ele>942.3333333333333</ele><time>2026-04-25T13:07:16.325Z</time></trkpt><trkpt lat="45.5818631" lon="11.1148226"><ele>943.0</ele><time>2026-04-25T13:07:17.326Z</time></trkpt><trkpt lat="45.5820608" lon="11.1148506"><ele>939.3333333333333</ele><time>2026-04-25T13:07:18.325Z</time></trkpt><trkpt lat="45.5822632" lon="11.1148782"><ele>935.6666666666667</ele><time>2026-04-25T13:07:19.325Z</time></trkpt><trkpt lat="45.5824651" lon="11.1148979"><ele>932.0</ele><time>2026-04-25T13:07:20.326Z</time></trkpt><trkpt lat="45.5826701" lon="11.1149058"><ele>929.3333333333334</ele><time>2026-04-25T13:07:21.325Z</time></trkpt><trkpt lat="45.5828791" lon="11.1149065"><ele>926.6666666666667</ele><time>2026-04-25T13:07:22.325Z</time></trkpt><trkpt lat="45.5830981" lon="11.114902"><ele>924.0</ele><time>2026-04-25T13:07:23.325Z</time></trkpt><trkpt lat="45.5833264" lon="11.1148889"><ele>924.0</ele><time>2026-04-25T13:07:24.325Z</time></trkpt><trkpt lat="45.5835587" lon="11.1148568"><ele>924.0</ele><time>2026-04-25T13:07:25.325Z</time></trkpt><trkpt lat="45.5837913" lon="11.1148141"><ele>924.0</ele><time>2026-04-25T13:07:26.325Z</time></trkpt><trkpt lat="45.5840142" lon="11.1147802"><ele>924.0</ele><time>2026-04-25T13:07:27.326Z</time></trkpt><trkpt lat="45.5842344" lon="11.1147453"><ele>924.0</ele><time>2026-04-25T13:07:28.325Z</time></trkpt><trkpt lat="45.5844571" lon="11.1147134"><ele>923.3333333333333</ele><time>2026-04-25T13:07:29.326Z</time></trkpt><trkpt lat="45.5846796" lon="11.1146836"><ele>922.6666666666666</ele><time>2026-04-25T13:07:30.325Z</time></trkpt><trkpt lat="45.584898" lon="11.1146505"><ele>922.0</ele><time>2026-04-25T13:07:31.325Z</time></trkpt><trkpt lat="45.5851146" lon="11.1146173"><ele>922.0</ele><time>2026-04-25T13:07:32.325Z</time></trkpt><trkpt lat="45.5853265" lon="11.1145835"><ele>922.0</ele><time>2026-04-25T13:07:33.326Z</time></trkpt><trkpt lat="45.5855329" lon="11.114548"><ele>922.0</ele><time>2026-04-25T13:07:34.325Z</time></trkpt><trkpt lat="45.5857351" lon="11.1145063"><ele>925.6666666666666</ele><time>2026-04-25T13:07:35.325Z</time></trkpt><trkpt lat="45.585938" lon="11.114451"><ele>929.3333333333333</ele><time>2026-04-25T13:07:36.325Z</time></trkpt><trkpt lat="45.5861427" lon="11.1143837"><ele>933.0</ele><time>2026-04-25T13:07:37.325Z</time></trkpt><trkpt lat="45.5863457" lon="11.114311"><ele>938.3333333333333</ele><time>2026-04-25T13:07:38.326Z</time></trkpt><trkpt lat="45.5865438" lon="11.1142425"><ele>943.6666666666666</ele><time>2026-04-25T13:07:39.325Z</time></trkpt><trkpt lat="45.586753" lon="11.1141918"><ele>949.0</ele><time>2026-04-25T13:07:40.326Z</time></trkpt><trkpt lat="45.5869677" lon="11.1141612"><ele>948.3333333333333</ele><time>2026-04-25T13:07:41.325Z</time></trkpt><trkpt lat="45.5871832" lon="11.1141388"><ele>947.6666666666667</ele><time>2026-04-25T13:07:42.325Z</time></trkpt><trkpt lat="45.5873949" lon="11.1141008"><ele>947.0</ele><time>2026-04-25T13:07:43.325Z</time></trkpt><trkpt lat="45.5875996" lon="11.1140481"><ele>947.0</ele><time>2026-04-25T13:07:44.325Z</time></trkpt><trkpt lat="45.5878009" lon="11.1139771"><ele>947.0</ele><time>2026-04-25T13:07:45.326Z</time></trkpt><trkpt lat="45.5879932" lon="11.1138934"><ele>947.0</ele><time>2026-04-25T13:07:46.326Z</time></trkpt><trkpt lat="45.5881726" lon="11.1138115"><ele>953.0</ele><time>2026-04-25T13:07:47.325Z</time></trkpt><trkpt lat="45.5883331" lon="11.1137392"><ele>959.0</ele><time>2026-04-25T13:07:48.325Z</time></trkpt><trkpt lat="45.5884761" lon="11.1136802"><ele>965.0</ele><time>2026-04-25T13:07:49.326Z</time></trkpt><trkpt lat="45.5886073" lon="11.113628"><ele>966.0</ele><time>2026-04-25T13:07:50.325Z</time></trkpt><trkpt lat="45.5887399" lon="11.1135812"><ele>967.0</ele><time>2026-04-25T13:07:51.325Z</time></trkpt><trkpt lat="45.5888813" lon="11.1135423"><ele>968.0</ele><time>2026-04-25T13:07:52.325Z</time></trkpt><trkpt lat="45.5890275" lon="11.1135229"><ele>969.0</ele><time>2026-04-25T13:07:53.326Z</time></trkpt><trkpt lat="45.5891714" lon="11.1135253"><ele>969.0</ele><time>2026-04-25T13:07:54.325Z</time></trkpt><trkpt lat="45.5893105" lon="11.1135523"><ele>969.0</ele><time>2026-04-25T13:07:55.326Z</time></trkpt><trkpt lat="45.5894495" lon="11.1135916"><ele>969.0</ele><time>2026-04-25T13:07:56.326Z</time></trkpt><trkpt lat="45.5895752" lon="11.1136015"><ele>969.0</ele><time>2026-04-25T13:07:57.325Z</time></trkpt><trkpt lat="45.5896901" lon="11.1135512"><ele>970.0</ele><time>2026-04-25T13:07:58.325Z</time></trkpt><trkpt lat="45.5897846" lon="11.1134309"><ele>971.0</ele><time>2026-04-25T13:07:59.325Z</time></trkpt><trkpt lat="45.5898512" lon="11.1132553"><ele>972.0</ele><time>2026-04-25T13:08:00.326Z</time></trkpt><trkpt lat="45.5899061" lon="11.1130855"><ele>973.0</ele><time>2026-04-25T13:08:01.327Z</time></trkpt><trkpt lat="45.5899779" lon="11.1129593"><ele>973.0</ele><time>2026-04-25T13:08:02.325Z</time></trkpt><trkpt lat="45.5900916" lon="11.1128618"><ele>973.0</ele><time>2026-04-25T13:08:03.326Z</time></trkpt><trkpt lat="45.590237" lon="11.1128125"><ele>973.0</ele><time>2026-04-25T13:08:04.326Z</time></trkpt><trkpt lat="45.5903896" lon="11.1127956"><ele>973.0</ele><time>2026-04-25T13:08:05.327Z</time></trkpt><trkpt lat="45.590566" lon="11.1128136"><ele>973.0</ele><time>2026-04-25T13:08:06.327Z</time></trkpt><trkpt lat="45.5907477" lon="11.1128199"><ele>973.0</ele><time>2026-04-25T13:08:07.326Z</time></trkpt><trkpt lat="45.5909427" lon="11.1128093"><ele>973.0</ele><time>2026-04-25T13:08:08.326Z</time></trkpt><trkpt lat="45.5911332" lon="11.1127992"><ele>975.0</ele><time>2026-04-25T13:08:09.326Z</time></trkpt><trkpt lat="45.5913026" lon="11.1127997"><ele>977.0</ele><time>2026-04-25T13:08:10.326Z</time></trkpt><trkpt lat="45.5914539" lon="11.1128214"><ele>979.0</ele><time>2026-04-25T13:08:11.326Z</time></trkpt><trkpt lat="45.5915806" lon="11.112861"><ele>979.0</ele><time>2026-04-25T13:08:12.327Z</time></trkpt><trkpt lat="45.5917111" lon="11.1128946"><ele>979.0</ele><time>2026-04-25T13:08:13.326Z</time></trkpt><trkpt lat="45.5918409" lon="11.112895"><ele>979.0</ele><time>2026-04-25T13:08:14.326Z</time></trkpt><trkpt lat="45.5919496" lon="11.1128221"><ele>979.0</ele><time>2026-04-25T13:08:15.327Z</time></trkpt><trkpt lat="45.5920417" lon="11.1127027"><ele>977.75</ele><time>2026-04-25T13:08:16.327Z</time></trkpt><trkpt lat="45.5921201" lon="11.1125622"><ele>976.5</ele><time>2026-04-25T13:08:17.326Z</time></trkpt><trkpt lat="45.5921752" lon="11.1123859"><ele>975.25</ele><time>2026-04-25T13:08:18.326Z</time></trkpt><trkpt lat="45.5922068" lon="11.1122242"><ele>974.0</ele><time>2026-04-25T13:08:19.326Z</time></trkpt><trkpt lat="45.5922598" lon="11.1121244"><ele>974.0</ele><time>2026-04-25T13:08:20.327Z</time></trkpt><trkpt lat="45.5923484" lon="11.1120702"><ele>974.0</ele><time>2026-04-25T13:08:21.326Z</time></trkpt><trkpt lat="45.592488" lon="11.1120678"><ele>974.0</ele><time>2026-04-25T13:08:22.326Z</time></trkpt><trkpt lat="45.5926486" lon="11.1120858"><ele>974.0</ele><time>2026-04-25T13:08:23.326Z</time></trkpt><trkpt lat="45.5928009" lon="11.1121233"><ele>974.6666666666667</ele><time>2026-04-25T13:08:24.326Z</time></trkpt><trkpt lat="45.5929637" lon="11.1121979"><ele>975.3333333333333</ele><time>2026-04-25T13:08:25.326Z</time></trkpt><trkpt lat="45.5931149" lon="11.1122593"><ele>976.0</ele><time>2026-04-25T13:08:26.327Z</time></trkpt><trkpt lat="45.5932637" lon="11.1122944"><ele>976.0</ele><time>2026-04-25T13:08:27.326Z</time></trkpt><trkpt lat="45.5934098" lon="11.1123008"><ele>976.0</ele><time>2026-04-25T13:08:28.326Z</time></trkpt><trkpt lat="45.5935772" lon="11.1122264"><ele>976.0</ele><time>2026-04-25T13:08:29.326Z</time></trkpt><trkpt lat="45.5937492" lon="11.1121172"><ele>975.25</ele><time>2026-04-25T13:08:30.326Z</time></trkpt><trkpt lat="45.5938703" lon="11.1119804"><ele>974.5</ele><time>2026-04-25T13:08:31.326Z</time></trkpt><trkpt lat="45.5939544" lon="11.1118397"><ele>973.75</ele><time>2026-04-25T13:08:32.327Z</time></trkpt><trkpt lat="45.5940242" lon="11.1116936"><ele>973.0</ele><time>2026-04-25T13:08:33.327Z</time></trkpt><trkpt lat="45.5940714" lon="11.111528"><ele>973.0</ele><time>2026-04-25T13:08:34.326Z</time></trkpt><trkpt lat="45.5940731" lon="11.111347"><ele>973.0</ele><time>2026-04-25T13:08:35.327Z</time></trkpt><trkpt lat="45.594053" lon="11.1111586"><ele>973.0</ele><time>2026-04-25T13:08:36.326Z</time></trkpt><trkpt lat="45.5939891" lon="11.1109368"><ele>973.0</ele><time>2026-04-25T13:08:37.326Z</time></trkpt><trkpt lat="45.5939338" lon="11.1106885"><ele>973.0</ele><time>2026-04-25T13:08:38.326Z</time></trkpt><trkpt lat="45.5938907" lon="11.1104071"><ele>973.0</ele><time>2026-04-25T13:08:39.327Z</time></trkpt><trkpt lat="45.59388" lon="11.1101256"><ele>973.0</ele><time>2026-04-25T13:08:40.327Z</time></trkpt><trkpt lat="45.5939027" lon="11.1098373"><ele>973.0</ele><time>2026-04-25T13:08:41.326Z</time></trkpt><trkpt lat="45.5939534" lon="11.1095454"><ele>973.0</ele><time>2026-04-25T13:08:42.327Z</time></trkpt><trkpt lat="45.594019" lon="11.1092661"><ele>973.0</ele><time>2026-04-25T13:08:43.327Z</time></trkpt><trkpt lat="45.5941015" lon="11.1089999"><ele>974.0</ele><time>2026-04-25T13:08:44.326Z</time></trkpt><trkpt lat="45.5942037" lon="11.108754"><ele>975.0</ele><time>2026-04-25T13:08:45.326Z</time></trkpt><trkpt lat="45.5943145" lon="11.1085173"><ele>976.0</ele><time>2026-04-25T13:08:46.326Z</time></trkpt><trkpt lat="45.5944326" lon="11.1082929"><ele>981.6666666666666</ele><time>2026-04-25T13:08:47.326Z</time></trkpt><trkpt lat="45.5945346" lon="11.1080604"><ele>987.3333333333333</ele><time>2026-04-25T13:08:48.327Z</time></trkpt><trkpt lat="45.5946341" lon="11.1078327"><ele>993.0</ele><time>2026-04-25T13:08:49.327Z</time></trkpt><trkpt lat="45.5947307" lon="11.107603"><ele>997.3333333333333</ele><time>2026-04-25T13:08:50.327Z</time></trkpt><trkpt lat="45.5948287" lon="11.1073726"><ele>1001.6666666666666</ele><time>2026-04-25T13:08:51.326Z</time></trkpt><trkpt lat="45.5949254" lon="11.1071453"><ele>1006.0</ele><time>2026-04-25T13:08:52.326Z</time></trkpt><trkpt lat="45.595027" lon="11.1069187"><ele>1006.0</ele><time>2026-04-25T13:08:53.326Z</time></trkpt><trkpt lat="45.5951264" lon="11.1066979"><ele>1006.0</ele><time>2026-04-25T13:08:54.326Z</time></trkpt><trkpt lat="45.5952316" lon="11.1064913"><ele>1006.0</ele><time>2026-04-25T13:08:55.327Z</time></trkpt><trkpt lat="45.595354" lon="11.1063158"><ele>1010.0</ele><time>2026-04-25T13:08:56.326Z</time></trkpt><trkpt lat="45.595482" lon="11.1061819"><ele>1014.0</ele><time>2026-04-25T13:08:57.326Z</time></trkpt><trkpt lat="45.5956338" lon="11.1060687"><ele>1018.0</ele><time>2026-04-25T13:08:58.326Z</time></trkpt><trkpt lat="45.5957995" lon="11.10601"><ele>1018.0</ele><time>2026-04-25T13:08:59.326Z</time></trkpt><trkpt lat="45.595954" lon="11.10597"><ele>1018.0</ele><time>2026-04-25T13:09:00.327Z</time></trkpt><trkpt lat="45.5960929" lon="11.1059147"><ele>1018.0</ele><time>2026-04-25T13:09:01.327Z</time></trkpt><trkpt lat="45.5962071" lon="11.1058412"><ele>1018.0</ele><time>2026-04-25T13:09:02.326Z</time></trkpt><trkpt lat="45.5963085" lon="11.1057349"><ele>1017.0</ele><time>2026-04-25T13:09:03.326Z</time></trkpt><trkpt lat="45.5964085" lon="11.1056065"><ele>1016.0</ele><time>2026-04-25T13:09:04.327Z</time></trkpt><trkpt lat="45.5964935" lon="11.105443"><ele>1015.0</ele><time>2026-04-25T13:09:05.326Z</time></trkpt><trkpt lat="45.5965602" lon="11.1052729"><ele>1014.0</ele><time>2026-04-25T13:09:06.326Z</time></trkpt><trkpt lat="45.5966199" lon="11.1050961"><ele>1016.75</ele><time>2026-04-25T13:09:07.326Z</time></trkpt><trkpt lat="45.5966561" lon="11.1049044"><ele>1019.5</ele><time>2026-04-25T13:09:08.327Z</time></trkpt><trkpt lat="45.5966741" lon="11.1047057"><ele>1022.25</ele><time>2026-04-25T13:09:09.327Z</time></trkpt><trkpt lat="45.5966674" lon="11.1044793"><ele>1025.0</ele><time>2026-04-25T13:09:10.327Z</time></trkpt><trkpt lat="45.5966531" lon="11.104225"><ele>1026.0</ele><time>2026-04-25T13:09:11.327Z</time></trkpt><trkpt lat="45.5966479" lon="11.1039579"><ele>1027.0</ele><time>2026-04-25T13:09:12.328Z</time></trkpt><trkpt lat="45.5966564" lon="11.1036832"><ele>1028.0</ele><time>2026-04-25T13:09:13.327Z</time></trkpt><trkpt lat="45.5966873" lon="11.1034491"><ele>1027.5</ele><time>2026-04-25T13:09:14.328Z</time></trkpt><trkpt lat="45.5967129" lon="11.103236"><ele>1027.0</ele><time>2026-04-25T13:09:15.327Z</time></trkpt><trkpt lat="45.5967363" lon="11.1030552"><ele>1026.5</ele><time>2026-04-25T13:09:16.328Z</time></trkpt><trkpt lat="45.5967641" lon="11.1028986"><ele>1026.0</ele><time>2026-04-25T13:09:17.327Z</time></trkpt><trkpt lat="45.5968405" lon="11.1027705"><ele>1026.0</ele><time>2026-04-25T13:09:18.327Z</time></trkpt><trkpt lat="45.5970022" lon="11.1027117"><ele>1026.0</ele><time>2026-04-25T13:09:19.327Z</time></trkpt><trkpt lat="45.5971708" lon="11.102668"><ele>1026.0</ele><time>2026-04-25T13:09:20.327Z</time></trkpt><trkpt lat="45.5973351" lon="11.1026147"><ele>1027.3333333333333</ele><time>2026-04-25T13:09:21.328Z</time></trkpt><trkpt lat="45.5974726" lon="11.1025229"><ele>1028.6666666666665</ele><time>2026-04-25T13:09:22.328Z</time></trkpt><trkpt lat="45.5975859" lon="11.1023893"><ele>1030.0</ele><time>2026-04-25T13:09:23.328Z</time></trkpt><trkpt lat="45.5976844" lon="11.1022212"><ele>1027.3333333333333</ele><time>2026-04-25T13:09:24.328Z</time></trkpt><trkpt lat="45.5977655" lon="11.102045"><ele>1024.6666666666667</ele><time>2026-04-25T13:09:25.327Z</time></trkpt><trkpt lat="45.5978345" lon="11.1018462"><ele>1022.0</ele><time>2026-04-25T13:09:26.327Z</time></trkpt><trkpt lat="45.5978968" lon="11.1016372"><ele>1024.5</ele><time>2026-04-25T13:09:27.327Z</time></trkpt><trkpt lat="45.5979429" lon="11.1014377"><ele>1027.0</ele><time>2026-04-25T13:09:28.327Z</time></trkpt><trkpt lat="45.5979933" lon="11.1012571"><ele>1029.5</ele><time>2026-04-25T13:09:29.327Z</time></trkpt><trkpt lat="45.5980367" lon="11.101105"><ele>1032.0</ele><time>2026-04-25T13:09:30.327Z</time></trkpt><trkpt lat="45.5980594" lon="11.1009665"><ele>1032.0</ele><time>2026-04-25T13:09:31.328Z</time></trkpt><trkpt lat="45.598059" lon="11.1008251"><ele>1032.0</ele><time>2026-04-25T13:09:32.327Z</time></trkpt><trkpt lat="45.598035" lon="11.1006891"><ele>1032.0</ele><time>2026-04-25T13:09:33.327Z</time></trkpt><trkpt lat="45.5980072" lon="11.1005615"><ele>1032.0</ele><time>2026-04-25T13:09:34.328Z</time></trkpt><trkpt lat="45.5979984" lon="11.1004546"><ele>1032.0</ele><time>2026-04-25T13:09:35.327Z</time></trkpt><trkpt lat="45.5980282" lon="11.1003228"><ele>1034.0</ele><time>2026-04-25T13:09:37.327Z</time></trkpt><trkpt lat="45.5980608" lon="11.1002359"><ele>1036.0</ele><time>2026-04-25T13:10:08.327Z</time></trkpt><trkpt lat="45.5980411" lon="11.1001134"><ele>1038.0</ele><time>2026-04-25T13:10:12.328Z</time></trkpt><trkpt lat="45.5979842" lon="11.1000265"><ele>1040.0</ele><time>2026-04-25T13:10:13.328Z</time></trkpt><trkpt lat="45.5978972" lon="11.0999405"><ele>1042.0</ele><time>2026-04-25T13:10:14.328Z</time></trkpt><trkpt lat="45.5977676" lon="11.0998278"><ele>1043.0</ele><time>2026-04-25T13:10:15.328Z</time></trkpt><trkpt lat="45.5976225" lon="11.0996963"><ele>1044.0</ele><time>2026-04-25T13:10:16.329Z</time></trkpt><trkpt lat="45.5974714" lon="11.0995492"><ele>1045.0</ele><time>2026-04-25T13:10:17.329Z</time></trkpt><trkpt lat="45.5973057" lon="11.0993883"><ele>1045.0</ele><time>2026-04-25T13:10:18.328Z</time></trkpt><trkpt lat="45.5971257" lon="11.0992469"><ele>1045.0</ele><time>2026-04-25T13:10:19.328Z</time></trkpt><trkpt lat="45.5969824" lon="11.0991536"><ele>1045.0</ele><time>2026-04-25T13:10:20.329Z</time></trkpt><trkpt lat="45.5968594" lon="11.0990697"><ele>1040.25</ele><time>2026-04-25T13:10:21.328Z</time></trkpt><trkpt lat="45.5967574" lon="11.0989703"><ele>1035.5</ele><time>2026-04-25T13:10:22.328Z</time></trkpt><trkpt lat="45.5966761" lon="11.0988301"><ele>1030.75</ele><time>2026-04-25T13:10:23.329Z</time></trkpt><trkpt lat="45.5966279" lon="11.0986571"><ele>1026.0</ele><time>2026-04-25T13:10:24.328Z</time></trkpt><trkpt lat="45.5966178" lon="11.0984564"><ele>1029.0</ele><time>2026-04-25T13:10:25.328Z</time></trkpt><trkpt lat="45.5966553" lon="11.0982493"><ele>1032.0</ele><time>2026-04-25T13:10:26.329Z</time></trkpt><trkpt lat="45.5967165" lon="11.0980457"><ele>1035.0</ele><time>2026-04-25T13:10:27.328Z</time></trkpt><trkpt lat="45.5967428" lon="11.0978727"><ele>1038.0</ele><time>2026-04-25T13:10:28.328Z</time></trkpt><trkpt lat="45.5967206" lon="11.0977225"><ele>1038.0</ele><time>2026-04-25T13:10:29.328Z</time></trkpt><trkpt lat="45.5966543" lon="11.0975745"><ele>1038.0</ele><time>2026-04-25T13:10:30.328Z</time></trkpt><trkpt lat="45.5965312" lon="11.0974525"><ele>1038.0</ele><time>2026-04-25T13:10:31.329Z</time></trkpt><trkpt lat="45.596367" lon="11.0973489"><ele>1036.3333333333333</ele><time>2026-04-25T13:10:32.329Z</time></trkpt><trkpt lat="45.5961765" lon="11.0972832"><ele>1034.6666666666665</ele><time>2026-04-25T13:10:33.328Z</time></trkpt><trkpt lat="45.595978" lon="11.097216"><ele>1033.0</ele><time>2026-04-25T13:10:34.328Z</time></trkpt><trkpt lat="45.595789" lon="11.0971382"><ele>1033.0</ele><time>2026-04-25T13:10:35.329Z</time></trkpt><trkpt lat="45.5956233" lon="11.0970375"><ele>1033.0</ele><time>2026-04-25T13:10:36.329Z</time></trkpt><trkpt lat="45.5954929" lon="11.096904"><ele>1033.0</ele><time>2026-04-25T13:10:37.329Z</time></trkpt><trkpt lat="45.5953832" lon="11.0967303"><ele>1023.6666666666666</ele><time>2026-04-25T13:10:38.329Z</time></trkpt><trkpt lat="45.5953137" lon="11.0965268"><ele>1014.3333333333333</ele><time>2026-04-25T13:10:39.328Z</time></trkpt><trkpt lat="45.5952779" lon="11.0963042"><ele>1005.0</ele><time>2026-04-25T13:10:40.328Z</time></trkpt><trkpt lat="45.5952698" lon="11.0960663"><ele>1005.0</ele><time>2026-04-25T13:10:41.329Z</time></trkpt><trkpt lat="45.5953249" lon="11.0958208"><ele>1005.0</ele><time>2026-04-25T13:10:42.328Z</time></trkpt><trkpt lat="45.595396" lon="11.0955857"><ele>1005.0</ele><time>2026-04-25T13:10:43.328Z</time></trkpt><trkpt lat="45.5954845" lon="11.0953893"><ele>1013.0</ele><time>2026-04-25T13:10:44.328Z</time></trkpt><trkpt lat="45.5955988" lon="11.0951758"><ele>1021.0</ele><time>2026-04-25T13:10:45.328Z</time></trkpt><trkpt lat="45.5956959" lon="11.0949756"><ele>1029.0</ele><time>2026-04-25T13:10:46.328Z</time></trkpt><trkpt lat="45.5957563" lon="11.0947746"><ele>1029.0</ele><time>2026-04-25T13:10:47.329Z</time></trkpt><trkpt lat="45.59579" lon="11.0945776"><ele>1029.0</ele><time>2026-04-25T13:10:48.328Z</time></trkpt><trkpt lat="45.5957897" lon="11.0943794"><ele>1029.0</ele><time>2026-04-25T13:10:49.328Z</time></trkpt><trkpt lat="45.5957425" lon="11.0941467"><ele>1029.6666666666667</ele><time>2026-04-25T13:10:50.328Z</time></trkpt><trkpt lat="45.5956689" lon="11.0938943"><ele>1030.3333333333335</ele><time>2026-04-25T13:10:51.329Z</time></trkpt><trkpt lat="45.5955759" lon="11.0936274"><ele>1031.0</ele><time>2026-04-25T13:10:52.329Z</time></trkpt><trkpt lat="45.5954801" lon="11.093345"><ele>1032.6666666666667</ele><time>2026-04-25T13:10:53.328Z</time></trkpt><trkpt lat="45.5953914" lon="11.0930829"><ele>1034.3333333333333</ele><time>2026-04-25T13:10:54.329Z</time></trkpt><trkpt lat="45.595282" lon="11.0928274"><ele>1036.0</ele><time>2026-04-25T13:10:55.329Z</time></trkpt><trkpt lat="45.5951453" lon="11.0925833"><ele>1033.6666666666665</ele><time>2026-04-25T13:10:56.329Z</time></trkpt><trkpt lat="45.5949988" lon="11.0923771"><ele>1031.3333333333333</ele><time>2026-04-25T13:10:57.328Z</time></trkpt><trkpt lat="45.5948442" lon="11.0922008"><ele>1029.0</ele><time>2026-04-25T13:10:58.328Z</time></trkpt><trkpt lat="45.5946777" lon="11.0920511"><ele>1026.6666666666667</ele><time>2026-04-25T13:10:59.329Z</time></trkpt><trkpt lat="45.5945036" lon="11.0918988"><ele>1024.3333333333335</ele><time>2026-04-25T13:11:00.329Z</time></trkpt><trkpt lat="45.5943301" lon="11.0917468"><ele>1022.0</ele><time>2026-04-25T13:11:01.328Z</time></trkpt><trkpt lat="45.59416" lon="11.0915889"><ele>1022.0</ele><time>2026-04-25T13:11:02.328Z</time></trkpt><trkpt lat="45.5939937" lon="11.0914271"><ele>1022.0</ele><time>2026-04-25T13:11:03.328Z</time></trkpt><trkpt lat="45.593829" lon="11.0912721"><ele>1022.0</ele><time>2026-04-25T13:11:04.329Z</time></trkpt><trkpt lat="45.5936651" lon="11.0911177"><ele>1017.6666666666667</ele><time>2026-04-25T13:11:05.328Z</time></trkpt><trkpt lat="45.5935031" lon="11.09096"><ele>1013.3333333333333</ele><time>2026-04-25T13:11:06.329Z</time></trkpt><trkpt lat="45.5933448" lon="11.0908007"><ele>1009.0</ele><time>2026-04-25T13:11:07.328Z</time></trkpt><trkpt lat="45.5932035" lon="11.0906122"><ele>1009.0</ele><time>2026-04-25T13:11:08.328Z</time></trkpt><trkpt lat="45.5930791" lon="11.0904008"><ele>1009.0</ele><time>2026-04-25T13:11:09.329Z</time></trkpt><trkpt lat="45.5929755" lon="11.0901731"><ele>1009.0</ele><time>2026-04-25T13:11:10.329Z</time></trkpt><trkpt lat="45.592888" lon="11.0899257"><ele>1003.3333333333333</ele><time>2026-04-25T13:11:11.328Z</time></trkpt><trkpt lat="45.5928007" lon="11.0896835"><ele>997.6666666666667</ele><time>2026-04-25T13:11:12.329Z</time></trkpt><trkpt lat="45.5927155" lon="11.0894473"><ele>992.0</ele><time>2026-04-25T13:11:13.328Z</time></trkpt><trkpt lat="45.5926327" lon="11.0892228"><ele>991.0</ele><time>2026-04-25T13:11:14.328Z</time></trkpt><trkpt lat="45.5925497" lon="11.0890102"><ele>990.0</ele><time>2026-04-25T13:11:15.328Z</time></trkpt><trkpt lat="45.5924667" lon="11.0888048"><ele>989.0</ele><time>2026-04-25T13:11:16.328Z</time></trkpt><trkpt lat="45.5923893" lon="11.088611"><ele>989.0</ele><time>2026-04-25T13:11:17.329Z</time></trkpt><trkpt lat="45.5923202" lon="11.0884424"><ele>989.0</ele><time>2026-04-25T13:11:18.33Z</time></trkpt><trkpt lat="45.5922711" lon="11.0882847"><ele>989.0</ele><time>2026-04-25T13:11:19.329Z</time></trkpt><trkpt lat="45.5922746" lon="11.0881271"><ele>989.0</ele><time>2026-04-25T13:11:20.33Z</time></trkpt><trkpt lat="45.5923304" lon="11.08798"><ele>988.4000000000001</ele><time>2026-04-25T13:11:21.329Z</time></trkpt><trkpt lat="45.592413" lon="11.0878525"><ele>987.8000000000001</ele><time>2026-04-25T13:11:22.329Z</time></trkpt><trkpt lat="45.5925091" lon="11.0877656"><ele>987.1999999999999</ele><time>2026-04-25T13:11:23.329Z</time></trkpt><trkpt lat="45.5926123" lon="11.0877409"><ele>986.5999999999999</ele><time>2026-04-25T13:11:24.33Z</time></trkpt><trkpt lat="45.5927159" lon="11.0876952"><ele>986.0</ele><time>2026-04-25T13:11:25.33Z</time></trkpt><trkpt lat="45.5928046" lon="11.0876356"><ele>987.5999999999999</ele><time>2026-04-25T13:11:26.329Z</time></trkpt><trkpt lat="45.5928602" lon="11.0875301"><ele>989.1999999999999</ele><time>2026-04-25T13:11:27.329Z</time></trkpt><trkpt lat="45.5928492" lon="11.0874399"><ele>990.8000000000001</ele><time>2026-04-25T13:11:28.329Z</time></trkpt><trkpt lat="45.5927988" lon="11.0873505"><ele>992.4000000000001</ele><time>2026-04-25T13:11:29.329Z</time></trkpt><trkpt lat="45.5926807" lon="11.08722"><ele>994.0</ele><time>2026-04-25T13:11:30.33Z</time></trkpt><trkpt lat="45.5925511" lon="11.0871289"><ele>994.0</ele><time>2026-04-25T13:11:31.329Z</time></trkpt><trkpt lat="45.5923886" lon="11.0870549"><ele>994.0</ele><time>2026-04-25T13:11:32.33Z</time></trkpt><trkpt lat="45.5922175" lon="11.0869601"><ele>994.0</ele><time>2026-04-25T13:11:33.33Z</time></trkpt><trkpt lat="45.5920491" lon="11.086862"><ele>992.3333333333333</ele><time>2026-04-25T13:11:34.329Z</time></trkpt><trkpt lat="45.5918872" lon="11.086764"><ele>990.6666666666667</ele><time>2026-04-25T13:11:35.329Z</time></trkpt><trkpt lat="45.591731" lon="11.0866713"><ele>989.0</ele><time>2026-04-25T13:11:36.329Z</time></trkpt><trkpt lat="45.5915823" lon="11.0865765"><ele>989.0</ele><time>2026-04-25T13:11:37.33Z</time></trkpt><trkpt lat="45.5914423" lon="11.0864864"><ele>989.0</ele><time>2026-04-25T13:11:38.329Z</time></trkpt><trkpt lat="45.5913109" lon="11.0863872"><ele>989.0</ele><time>2026-04-25T13:11:39.329Z</time></trkpt><trkpt lat="45.5911872" lon="11.0862516"><ele>984.6666666666667</ele><time>2026-04-25T13:11:40.33Z</time></trkpt><trkpt lat="45.5910673" lon="11.0860984"><ele>980.3333333333333</ele><time>2026-04-25T13:11:41.33Z</time></trkpt><trkpt lat="45.5909565" lon="11.0859296"><ele>976.0</ele><time>2026-04-25T13:11:42.329Z</time></trkpt><trkpt lat="45.5908462" lon="11.0857474"><ele>976.0</ele><time>2026-04-25T13:11:43.329Z</time></trkpt><trkpt lat="45.5907292" lon="11.085579"><ele>976.0</ele><time>2026-04-25T13:11:44.33Z</time></trkpt><trkpt lat="45.5906101" lon="11.0854177"><ele>976.0</ele><time>2026-04-25T13:11:45.33Z</time></trkpt><trkpt lat="45.5904955" lon="11.0852654"><ele>976.0</ele><time>2026-04-25T13:11:46.329Z</time></trkpt><trkpt lat="45.5903895" lon="11.0851106"><ele>976.0</ele><time>2026-04-25T13:11:47.329Z</time></trkpt><trkpt lat="45.5902867" lon="11.0849372"><ele>976.0</ele><time>2026-04-25T13:11:48.329Z</time></trkpt><trkpt lat="45.590198" lon="11.0847602"><ele>966.6666666666666</ele><time>2026-04-25T13:11:49.33Z</time></trkpt><trkpt lat="45.5901155" lon="11.0845757"><ele>957.3333333333333</ele><time>2026-04-25T13:11:50.33Z</time></trkpt><trkpt lat="45.5900512" lon="11.084381"><ele>948.0</ele><time>2026-04-25T13:11:51.329Z</time></trkpt><trkpt lat="45.5899963" lon="11.0841828"><ele>946.75</ele><time>2026-04-25T13:11:52.33Z</time></trkpt><trkpt lat="45.5899602" lon="11.0839813"><ele>945.5</ele><time>2026-04-25T13:11:53.329Z</time></trkpt><trkpt lat="45.5899321" lon="11.0837737"><ele>944.25</ele><time>2026-04-25T13:11:54.329Z</time></trkpt><trkpt lat="45.5899241" lon="11.0835616"><ele>943.0</ele><time>2026-04-25T13:11:55.329Z</time></trkpt><trkpt lat="45.5899372" lon="11.0833584"><ele>940.25</ele><time>2026-04-25T13:11:56.329Z</time></trkpt><trkpt lat="45.5899709" lon="11.0831684"><ele>937.5</ele><time>2026-04-25T13:11:57.329Z</time></trkpt><trkpt lat="45.5900262" lon="11.0830205"><ele>934.75</ele><time>2026-04-25T13:11:58.329Z</time></trkpt><trkpt lat="45.5900978" lon="11.0829085"><ele>932.0</ele><time>2026-04-25T13:11:59.329Z</time></trkpt><trkpt lat="45.5901697" lon="11.0828281"><ele>932.0000000000001</ele><time>2026-04-25T13:12:00.329Z</time></trkpt><trkpt lat="45.5902252" lon="11.0827554"><ele>932.0</ele><time>2026-04-25T13:12:01.33Z</time></trkpt><trkpt lat="45.5901962" lon="11.0826575"><ele>932.0</ele><time>2026-04-25T13:12:03.329Z</time></trkpt><trkpt lat="45.5901279" lon="11.0827222"><ele>932.0</ele><time>2026-04-25T13:12:05.329Z</time></trkpt><trkpt lat="45.5900489" lon="11.082773"><ele>932.0000000000001</ele><time>2026-04-25T13:12:06.33Z</time></trkpt><trkpt lat="45.5899914" lon="11.082882"><ele>932.0</ele><time>2026-04-25T13:12:07.329Z</time></trkpt><trkpt lat="45.5899387" lon="11.0829966"><ele>932.0</ele><time>2026-04-25T13:12:08.33Z</time></trkpt><trkpt lat="45.5898854" lon="11.0831361"><ele>932.0</ele><time>2026-04-25T13:12:09.33Z</time></trkpt><trkpt lat="45.5898256" lon="11.0833101"><ele>932.0</ele><time>2026-04-25T13:12:10.33Z</time></trkpt><trkpt lat="45.5897586" lon="11.083504"><ele>932.0</ele><time>2026-04-25T13:12:11.329Z</time></trkpt><trkpt lat="45.5897029" lon="11.083712"><ele>934.75</ele><time>2026-04-25T13:12:12.33Z</time></trkpt><trkpt lat="45.5896689" lon="11.0839085"><ele>937.5</ele><time>2026-04-25T13:12:13.33Z</time></trkpt><trkpt lat="45.5896534" lon="11.0841077"><ele>940.25</ele><time>2026-04-25T13:12:14.329Z</time></trkpt><trkpt lat="45.5896567" lon="11.0843028"><ele>943.0</ele><time>2026-04-25T13:12:15.329Z</time></trkpt><trkpt lat="45.5896709" lon="11.0844994"><ele>942.5999999999999</ele><time>2026-04-25T13:12:16.33Z</time></trkpt><trkpt lat="45.5896999" lon="11.0846714"><ele>942.1999999999999</ele><time>2026-04-25T13:12:17.33Z</time></trkpt><trkpt lat="45.5897307" lon="11.0848276"><ele>941.8</ele><time>2026-04-25T13:12:18.33Z</time></trkpt><trkpt lat="45.5897542" lon="11.0849475"><ele>941.4</ele><time>2026-04-25T13:12:19.329Z</time></trkpt><trkpt lat="45.589767" lon="11.0850395"><ele>941.0</ele><time>2026-04-25T13:12:20.329Z</time></trkpt><trkpt lat="45.5897513" lon="11.0852021"><ele>941.0</ele><time>2026-04-25T13:12:22.33Z</time></trkpt><trkpt lat="45.5896575" lon="11.0853119"><ele>940.9999999999999</ele><time>2026-04-25T13:12:24.33Z</time></trkpt><trkpt lat="45.5895878" lon="11.0853226"><ele>940.9999999999999</ele><time>2026-04-25T13:12:25.33Z</time></trkpt><trkpt lat="45.5895176" lon="11.0852714"><ele>941.0</ele><time>2026-04-25T13:12:27.33Z</time></trkpt><trkpt lat="45.589511" lon="11.0850742"><ele>941.0</ele><time>2026-04-25T13:12:29.33Z</time></trkpt><trkpt lat="45.5895031" lon="11.0848236"><ele>932.3333333333334</ele><time>2026-04-25T13:12:30.33Z</time></trkpt><trkpt lat="45.5894935" lon="11.08458"><ele>923.6666666666667</ele><time>2026-04-25T13:12:31.33Z</time></trkpt><trkpt lat="45.5894823" lon="11.0843532"><ele>915.0</ele><time>2026-04-25T13:12:32.33Z</time></trkpt><trkpt lat="45.5894849" lon="11.0841528"><ele>913.25</ele><time>2026-04-25T13:12:33.33Z</time></trkpt><trkpt lat="45.5894855" lon="11.083956"><ele>911.5</ele><time>2026-04-25T13:12:34.33Z</time></trkpt><trkpt lat="45.5894871" lon="11.083743"><ele>909.75</ele><time>2026-04-25T13:12:35.331Z</time></trkpt><trkpt lat="45.5894901" lon="11.0835311"><ele>908.0</ele><time>2026-04-25T13:12:36.33Z</time></trkpt><trkpt lat="45.5894966" lon="11.0833188"><ele>905.5</ele><time>2026-04-25T13:12:37.33Z</time></trkpt><trkpt lat="45.5895015" lon="11.0831392"><ele>903.0</ele><time>2026-04-25T13:12:38.331Z</time></trkpt><trkpt lat="45.5895094" lon="11.0829712"><ele>900.5</ele><time>2026-04-25T13:12:39.331Z</time></trkpt><trkpt lat="45.5895301" lon="11.0828024"><ele>898.0</ele><time>2026-04-25T13:12:40.331Z</time></trkpt><trkpt lat="45.5895623" lon="11.082616"><ele>905.75</ele><time>2026-04-25T13:12:41.33Z</time></trkpt><trkpt lat="45.5896076" lon="11.0824242"><ele>913.5</ele><time>2026-04-25T13:12:42.331Z</time></trkpt><trkpt lat="45.5896487" lon="11.0822291"><ele>921.25</ele><time>2026-04-25T13:12:43.33Z</time></trkpt><trkpt lat="45.5896743" lon="11.0820437"><ele>929.0</ele><time>2026-04-25T13:12:44.331Z</time></trkpt><trkpt lat="45.5896832" lon="11.0818779"><ele>929.0</ele><time>2026-04-25T13:12:45.331Z</time></trkpt><trkpt lat="45.5896722" lon="11.0817109"><ele>929.0</ele><time>2026-04-25T13:12:46.331Z</time></trkpt><trkpt lat="45.5896234" lon="11.0815365"><ele>929.0</ele><time>2026-04-25T13:12:47.33Z</time></trkpt><trkpt lat="45.5895498" lon="11.0813635"><ele>929.0</ele><time>2026-04-25T13:12:48.331Z</time></trkpt><trkpt lat="45.5894768" lon="11.0811898"><ele>920.5</ele><time>2026-04-25T13:12:49.331Z</time></trkpt><trkpt lat="45.5894052" lon="11.0810102"><ele>912.0</ele><time>2026-04-25T13:12:50.33Z</time></trkpt><trkpt lat="45.5893444" lon="11.0808418"><ele>903.5</ele><time>2026-04-25T13:12:51.33Z</time></trkpt><trkpt lat="45.5892949" lon="11.0806738"><ele>895.0</ele><time>2026-04-25T13:12:52.33Z</time></trkpt><trkpt lat="45.5892543" lon="11.0804978"><ele>894.75</ele><time>2026-04-25T13:12:53.33Z</time></trkpt><trkpt lat="45.5892282" lon="11.0803225"><ele>894.5</ele><time>2026-04-25T13:12:54.331Z</time></trkpt><trkpt lat="45.589212" lon="11.0801442"><ele>894.25</ele><time>2026-04-25T13:12:55.331Z</time></trkpt><trkpt lat="45.5892088" lon="11.0799652"><ele>894.0</ele><time>2026-04-25T13:12:56.33Z</time></trkpt><trkpt lat="45.5892264" lon="11.0797742"><ele>890.75</ele><time>2026-04-25T13:12:57.331Z</time></trkpt><trkpt lat="45.5892656" lon="11.079577"><ele>887.5</ele><time>2026-04-25T13:12:58.331Z</time></trkpt><trkpt lat="45.5893265" lon="11.079389"><ele>884.25</ele><time>2026-04-25T13:12:59.33Z</time></trkpt><trkpt lat="45.5893941" lon="11.0792071"><ele>881.0</ele><time>2026-04-25T13:13:00.33Z</time></trkpt><trkpt lat="45.5894608" lon="11.0790328"><ele>889.0</ele><time>2026-04-25T13:13:01.33Z</time></trkpt><trkpt lat="45.5895241" lon="11.0788693"><ele>897.0</ele><time>2026-04-25T13:13:02.331Z</time></trkpt><trkpt lat="45.5895812" lon="11.0787105"><ele>905.0</ele><time>2026-04-25T13:13:03.33Z</time></trkpt><trkpt lat="45.5896288" lon="11.0785491"><ele>913.0</ele><time>2026-04-25T13:13:04.33Z</time></trkpt><trkpt lat="45.5896581" lon="11.0783826"><ele>912.5</ele><time>2026-04-25T13:13:05.33Z</time></trkpt><trkpt lat="45.5896529" lon="11.078202"><ele>912.0</ele><time>2026-04-25T13:13:06.33Z</time></trkpt><trkpt lat="45.5896118" lon="11.0780095"><ele>911.5</ele><time>2026-04-25T13:13:07.33Z</time></trkpt><trkpt lat="45.5895569" lon="11.0778273"><ele>911.0</ele><time>2026-04-25T13:13:08.331Z</time></trkpt><trkpt lat="45.5895004" lon="11.0776449"><ele>902.0</ele><time>2026-04-25T13:13:09.33Z</time></trkpt><trkpt lat="45.5894633" lon="11.077457"><ele>893.0</ele><time>2026-04-25T13:13:10.331Z</time></trkpt><trkpt lat="45.589442" lon="11.077261"><ele>884.0</ele><time>2026-04-25T13:13:11.33Z</time></trkpt><trkpt lat="45.5894517" lon="11.0770426"><ele>875.0</ele><time>2026-04-25T13:13:12.33Z</time></trkpt><trkpt lat="45.5894868" lon="11.0768261"><ele>877.0</ele><time>2026-04-25T13:13:13.331Z</time></trkpt><trkpt lat="45.5895386" lon="11.0766131"><ele>879.0</ele><time>2026-04-25T13:13:14.331Z</time></trkpt><trkpt lat="45.5896108" lon="11.0764173"><ele>881.0</ele><time>2026-04-25T13:13:15.33Z</time></trkpt><trkpt lat="45.5896893" lon="11.0762454"><ele>881.0</ele><time>2026-04-25T13:13:16.33Z</time></trkpt><trkpt lat="45.5897649" lon="11.0760796"><ele>881.0</ele><time>2026-04-25T13:13:17.33Z</time></trkpt><trkpt lat="45.5898295" lon="11.0759124"><ele>881.0</ele><time>2026-04-25T13:13:18.331Z</time></trkpt><trkpt lat="45.5898924" lon="11.0757419"><ele>881.0</ele><time>2026-04-25T13:13:19.33Z</time></trkpt><trkpt lat="45.5899607" lon="11.0755789"><ele>877.75</ele><time>2026-04-25T13:13:20.33Z</time></trkpt><trkpt lat="45.5900261" lon="11.0754147"><ele>874.5</ele><time>2026-04-25T13:13:21.33Z</time></trkpt><trkpt lat="45.5900871" lon="11.0752489"><ele>871.25</ele><time>2026-04-25T13:13:22.331Z</time></trkpt><trkpt lat="45.5901428" lon="11.0750866"><ele>868.0</ele><time>2026-04-25T13:13:23.33Z</time></trkpt><trkpt lat="45.5901977" lon="11.0749267"><ele>864.5999999999999</ele><time>2026-04-25T13:13:24.33Z</time></trkpt><trkpt lat="45.5902512" lon="11.0747739"><ele>861.1999999999999</ele><time>2026-04-25T13:13:25.33Z</time></trkpt><trkpt lat="45.5903008" lon="11.0746365"><ele>857.8</ele><time>2026-04-25T13:13:26.331Z</time></trkpt><trkpt lat="45.5903456" lon="11.0745184"><ele>854.4</ele><time>2026-04-25T13:13:27.331Z</time></trkpt><trkpt lat="45.5903836" lon="11.0744067"><ele>851.0</ele><time>2026-04-25T13:13:28.331Z</time></trkpt><trkpt lat="45.590419" lon="11.0742822"><ele>858.0</ele><time>2026-04-25T13:13:29.331Z</time></trkpt><trkpt lat="45.5904529" lon="11.0741349"><ele>865.0</ele><time>2026-04-25T13:13:30.331Z</time></trkpt><trkpt lat="45.590485" lon="11.0739623"><ele>872.0</ele><time>2026-04-25T13:13:31.331Z</time></trkpt><trkpt lat="45.5905193" lon="11.0737753"><ele>879.0</ele><time>2026-04-25T13:13:32.331Z</time></trkpt><trkpt lat="45.5905666" lon="11.0735822"><ele>879.0</ele><time>2026-04-25T13:13:33.331Z</time></trkpt><trkpt lat="45.5906173" lon="11.0733927"><ele>879.0</ele><time>2026-04-25T13:13:34.331Z</time></trkpt><trkpt lat="45.5906713" lon="11.0732275"><ele>879.0</ele><time>2026-04-25T13:13:35.332Z</time></trkpt><trkpt lat="45.5907236" lon="11.0730769"><ele>879.0</ele><time>2026-04-25T13:13:36.331Z</time></trkpt><trkpt lat="45.5907749" lon="11.072929"><ele>875.5</ele><time>2026-04-25T13:13:37.332Z</time></trkpt><trkpt lat="45.5908283" lon="11.0727804"><ele>872.0</ele><time>2026-04-25T13:13:38.331Z</time></trkpt><trkpt lat="45.5908689" lon="11.0726278"><ele>868.5</ele><time>2026-04-25T13:13:39.331Z</time></trkpt><trkpt lat="45.5908967" lon="11.0724768"><ele>865.0</ele><time>2026-04-25T13:13:40.332Z</time></trkpt><trkpt lat="45.5909358" lon="11.0723153"><ele>867.0</ele><time>2026-04-25T13:13:41.331Z</time></trkpt><trkpt lat="45.5909835" lon="11.072167"><ele>869.0</ele><time>2026-04-25T13:13:42.331Z</time></trkpt><trkpt lat="45.5910482" lon="11.07203"><ele>871.0</ele><time>2026-04-25T13:13:43.332Z</time></trkpt><trkpt lat="45.5911178" lon="11.0719095"><ele>873.0</ele><time>2026-04-25T13:13:44.332Z</time></trkpt><trkpt lat="45.5911721" lon="11.071808"><ele>875.0</ele><time>2026-04-25T13:13:45.331Z</time></trkpt><trkpt lat="45.5912039" lon="11.0717236"><ele>870.0</ele><time>2026-04-25T13:13:46.331Z</time></trkpt><trkpt lat="45.5911536" lon="11.0715791"><ele>865.0</ele><time>2026-04-25T13:13:48.331Z</time></trkpt><trkpt lat="45.5910673" lon="11.0715691"><ele>860.0</ele><time>2026-04-25T13:13:50.332Z</time></trkpt><trkpt lat="45.5909378" lon="11.071649"><ele>855.0</ele><time>2026-04-25T13:13:52.331Z</time></trkpt><trkpt lat="45.59088" lon="11.0717247"><ele>850.0</ele><time>2026-04-25T13:13:53.331Z</time></trkpt><trkpt lat="45.5908375" lon="11.0718352"><ele>850.0</ele><time>2026-04-25T13:13:54.331Z</time></trkpt><trkpt lat="45.5907943" lon="11.0719597"><ele>850.0</ele><time>2026-04-25T13:13:55.331Z</time></trkpt><trkpt lat="45.5906886" lon="11.072383"><ele>850.0</ele><time>2026-04-25T13:13:56.332Z</time></trkpt><trkpt lat="45.5906239" lon="11.072626"><ele>855.0</ele><time>2026-04-25T13:13:57.331Z</time></trkpt><trkpt lat="45.5905493" lon="11.0728104"><ele>860.0</ele><time>2026-04-25T13:13:58.331Z</time></trkpt><trkpt lat="45.5904727" lon="11.0729812"><ele>865.0</ele><time>2026-04-25T13:13:59.332Z</time></trkpt><trkpt lat="45.5903791" lon="11.073174"><ele>856.6666666666666</ele><time>2026-04-25T13:14:00.332Z</time></trkpt><trkpt lat="45.5902519" lon="11.0733957"><ele>848.3333333333333</ele><time>2026-04-25T13:14:01.331Z</time></trkpt><trkpt lat="45.5901253" lon="11.0736684"><ele>840.0</ele><time>2026-04-25T13:14:02.331Z</time></trkpt><trkpt lat="45.5899925" lon="11.0739181"><ele>843.6666666666667</ele><time>2026-04-25T13:14:03.331Z</time></trkpt><trkpt lat="45.5898575" lon="11.0741555"><ele>847.3333333333334</ele><time>2026-04-25T13:14:04.331Z</time></trkpt><trkpt lat="45.5897301" lon="11.0743774"><ele>851.0</ele><time>2026-04-25T13:14:05.331Z</time></trkpt><trkpt lat="45.5896147" lon="11.074595"><ele>851.0</ele><time>2026-04-25T13:14:06.331Z</time></trkpt><trkpt lat="45.5895207" lon="11.0747844"><ele>851.0</ele><time>2026-04-25T13:14:07.332Z</time></trkpt><trkpt lat="45.5894542" lon="11.074948"><ele>851.0</ele><time>2026-04-25T13:14:08.331Z</time></trkpt><trkpt lat="45.5893836" lon="11.075064"><ele>851.0</ele><time>2026-04-25T13:14:09.331Z</time></trkpt><trkpt lat="45.5892943" lon="11.0751836"><ele>848.5</ele><time>2026-04-25T13:14:10.332Z</time></trkpt><trkpt lat="45.5892132" lon="11.0752378"><ele>846.0</ele><time>2026-04-25T13:14:11.332Z</time></trkpt><trkpt lat="45.5890865" lon="11.0751732"><ele>843.5</ele><time>2026-04-25T13:14:13.332Z</time></trkpt><trkpt lat="45.5890131" lon="11.0750258"><ele>841.0</ele><time>2026-04-25T13:14:14.331Z</time></trkpt><trkpt lat="45.5889726" lon="11.0748684"><ele>840.0</ele><time>2026-04-25T13:14:15.332Z</time></trkpt><trkpt lat="45.5889749" lon="11.074708"><ele>839.0</ele><time>2026-04-25T13:14:16.331Z</time></trkpt><trkpt lat="45.5890184" lon="11.0745771"><ele>838.0</ele><time>2026-04-25T13:14:17.332Z</time></trkpt><trkpt lat="45.5891055" lon="11.074452"><ele>837.0</ele><time>2026-04-25T13:14:18.331Z</time></trkpt><trkpt lat="45.5891965" lon="11.0742928"><ele>837.0</ele><time>2026-04-25T13:14:19.332Z</time></trkpt><trkpt lat="45.5892777" lon="11.0741175"><ele>837.0</ele><time>2026-04-25T13:14:20.331Z</time></trkpt><trkpt lat="45.589353" lon="11.073945"><ele>837.0</ele><time>2026-04-25T13:14:21.332Z</time></trkpt><trkpt lat="45.5894222" lon="11.073762"><ele>837.0</ele><time>2026-04-25T13:14:22.331Z</time></trkpt><trkpt lat="45.5894923" lon="11.0735547"><ele>838.0</ele><time>2026-04-25T13:14:23.331Z</time></trkpt><trkpt lat="45.5895581" lon="11.0733323"><ele>839.0</ele><time>2026-04-25T13:14:24.331Z</time></trkpt><trkpt lat="45.5896219" lon="11.0731153"><ele>840.0</ele><time>2026-04-25T13:14:25.331Z</time></trkpt><trkpt lat="45.5896815" lon="11.0729171"><ele>837.5</ele><time>2026-04-25T13:14:26.332Z</time></trkpt><trkpt lat="45.5897378" lon="11.0727372"><ele>835.0</ele><time>2026-04-25T13:14:27.331Z</time></trkpt><trkpt lat="45.589791" lon="11.0725586"><ele>832.5</ele><time>2026-04-25T13:14:28.332Z</time></trkpt><trkpt lat="45.5898344" lon="11.0723784"><ele>830.0</ele><time>2026-04-25T13:14:29.331Z</time></trkpt><trkpt lat="45.5898686" lon="11.0721899"><ele>827.5</ele><time>2026-04-25T13:14:30.332Z</time></trkpt><trkpt lat="45.5898951" lon="11.0719943"><ele>825.0</ele><time>2026-04-25T13:14:31.332Z</time></trkpt><trkpt lat="45.5899198" lon="11.0717879"><ele>822.5</ele><time>2026-04-25T13:14:32.332Z</time></trkpt><trkpt lat="45.5899418" lon="11.0715669"><ele>820.0</ele><time>2026-04-25T13:14:33.332Z</time></trkpt><trkpt lat="45.5899672" lon="11.0713381"><ele>818.3333333333333</ele><time>2026-04-25T13:14:34.332Z</time></trkpt><trkpt lat="45.5899958" lon="11.0711056"><ele>816.6666666666667</ele><time>2026-04-25T13:14:35.332Z</time></trkpt><trkpt lat="45.5900259" lon="11.0708736"><ele>815.0</ele><time>2026-04-25T13:14:36.333Z</time></trkpt><trkpt lat="45.5900598" lon="11.0706508"><ele>813.6666666666667</ele><time>2026-04-25T13:14:37.332Z</time></trkpt><trkpt lat="45.5901001" lon="11.0704301"><ele>812.3333333333333</ele><time>2026-04-25T13:14:38.333Z</time></trkpt><trkpt lat="45.5901444" lon="11.0702158"><ele>811.0</ele><time>2026-04-25T13:14:39.333Z</time></trkpt><trkpt lat="45.5901897" lon="11.0699965"><ele>810.0</ele><time>2026-04-25T13:14:40.333Z</time></trkpt><trkpt lat="45.5902356" lon="11.0697847"><ele>809.0</ele><time>2026-04-25T13:14:41.332Z</time></trkpt><trkpt lat="45.5902712" lon="11.069586"><ele>808.0</ele><time>2026-04-25T13:14:42.333Z</time></trkpt><trkpt lat="45.5903006" lon="11.0694034"><ele>807.0</ele><time>2026-04-25T13:14:43.332Z</time></trkpt><trkpt lat="45.5903231" lon="11.0692241"><ele>805.75</ele><time>2026-04-25T13:14:44.332Z</time></trkpt><trkpt lat="45.5903265" lon="11.0690506"><ele>804.5</ele><time>2026-04-25T13:14:45.332Z</time></trkpt><trkpt lat="45.5903006" lon="11.0688637"><ele>803.25</ele><time>2026-04-25T13:14:46.332Z</time></trkpt><trkpt lat="45.590254" lon="11.0686617"><ele>802.0</ele><time>2026-04-25T13:14:47.332Z</time></trkpt><trkpt lat="45.5901965" lon="11.0684572"><ele>799.5</ele><time>2026-04-25T13:14:48.332Z</time></trkpt><trkpt lat="45.5901417" lon="11.0682647"><ele>797.0</ele><time>2026-04-25T13:14:49.332Z</time></trkpt><trkpt lat="45.5900865" lon="11.0680772"><ele>794.5</ele><time>2026-04-25T13:14:50.332Z</time></trkpt><trkpt lat="45.5900131" lon="11.0678998"><ele>792.0</ele><time>2026-04-25T13:14:51.332Z</time></trkpt><trkpt lat="45.5899202" lon="11.0677625"><ele>792.0</ele><time>2026-04-25T13:14:52.332Z</time></trkpt><trkpt lat="45.5898072" lon="11.0676714"><ele>792.0</ele><time>2026-04-25T13:14:53.332Z</time></trkpt><trkpt lat="45.5896794" lon="11.0676062"><ele>792.0</ele><time>2026-04-25T13:14:54.332Z</time></trkpt><trkpt lat="45.5895512" lon="11.0675605"><ele>792.0</ele><time>2026-04-25T13:14:55.333Z</time></trkpt><trkpt lat="45.5894188" lon="11.0675286"><ele>793.3333333333333</ele><time>2026-04-25T13:14:56.333Z</time></trkpt><trkpt lat="45.5892753" lon="11.0674908"><ele>794.6666666666666</ele><time>2026-04-25T13:14:57.332Z</time></trkpt><trkpt lat="45.5891054" lon="11.067443"><ele>796.0</ele><time>2026-04-25T13:14:58.333Z</time></trkpt><trkpt lat="45.5889234" lon="11.0673885"><ele>796.0</ele><time>2026-04-25T13:14:59.333Z</time></trkpt><trkpt lat="45.5887484" lon="11.0673345"><ele>796.0</ele><time>2026-04-25T13:15:00.332Z</time></trkpt><trkpt lat="45.5885799" lon="11.0672843"><ele>796.0</ele><time>2026-04-25T13:15:01.333Z</time></trkpt><trkpt lat="45.5884227" lon="11.0672398"><ele>795.75</ele><time>2026-04-25T13:15:02.332Z</time></trkpt><trkpt lat="45.5882699" lon="11.0671949"><ele>795.5</ele><time>2026-04-25T13:15:03.332Z</time></trkpt><trkpt lat="45.5881279" lon="11.0671527"><ele>795.25</ele><time>2026-04-25T13:15:04.332Z</time></trkpt><trkpt lat="45.5879984" lon="11.067111"><ele>795.0</ele><time>2026-04-25T13:15:05.332Z</time></trkpt><trkpt lat="45.5878796" lon="11.0670643"><ele>796.0</ele><time>2026-04-25T13:15:06.332Z</time></trkpt><trkpt lat="45.5877727" lon="11.0669953"><ele>797.0</ele><time>2026-04-25T13:15:07.332Z</time></trkpt><trkpt lat="45.5876775" lon="11.0668921"><ele>798.0</ele><time>2026-04-25T13:15:08.332Z</time></trkpt><trkpt lat="45.5875963" lon="11.0667696"><ele>799.0</ele><time>2026-04-25T13:15:09.332Z</time></trkpt><trkpt lat="45.5875559" lon="11.0665736"><ele>796.5</ele><time>2026-04-25T13:15:10.332Z</time></trkpt><trkpt lat="45.5875336" lon="11.0663887"><ele>794.0</ele><time>2026-04-25T13:15:11.333Z</time></trkpt><trkpt lat="45.5875027" lon="11.0662075"><ele>791.5</ele><time>2026-04-25T13:15:12.333Z</time></trkpt><trkpt lat="45.5874623" lon="11.0660432"><ele>789.0</ele><time>2026-04-25T13:15:13.332Z</time></trkpt><trkpt lat="45.5873911" lon="11.0658948"><ele>789.0</ele><time>2026-04-25T13:15:14.332Z</time></trkpt><trkpt lat="45.5872945" lon="11.0657867"><ele>789.0</ele><time>2026-04-25T13:15:15.332Z</time></trkpt><trkpt lat="45.5871833" lon="11.065716"><ele>789.0</ele><time>2026-04-25T13:15:16.332Z</time></trkpt><trkpt lat="45.5870552" lon="11.0656742"><ele>789.0</ele><time>2026-04-25T13:15:17.332Z</time></trkpt><trkpt lat="45.586908" lon="11.0656218"><ele>783.6666666666667</ele><time>2026-04-25T13:15:18.332Z</time></trkpt><trkpt lat="45.5867546" lon="11.065556"><ele>778.3333333333334</ele><time>2026-04-25T13:15:19.333Z</time></trkpt><trkpt lat="45.586599" lon="11.0654791"><ele>773.0</ele><time>2026-04-25T13:15:20.332Z</time></trkpt><trkpt lat="45.5864342" lon="11.0653969"><ele>773.0</ele><time>2026-04-25T13:15:21.332Z</time></trkpt><trkpt lat="45.5862848" lon="11.0653223"><ele>773.0</ele><time>2026-04-25T13:15:22.332Z</time></trkpt><trkpt lat="45.5861499" lon="11.0652573"><ele>773.0</ele><time>2026-04-25T13:15:23.332Z</time></trkpt><trkpt lat="45.5860303" lon="11.0652009"><ele>773.0</ele><time>2026-04-25T13:15:24.332Z</time></trkpt><trkpt lat="45.5859072" lon="11.0651498"><ele>775.5</ele><time>2026-04-25T13:15:25.332Z</time></trkpt><trkpt lat="45.5857791" lon="11.0651262"><ele>778.0</ele><time>2026-04-25T13:15:26.332Z</time></trkpt><trkpt lat="45.5856446" lon="11.0651329"><ele>780.5</ele><time>2026-04-25T13:15:27.333Z</time></trkpt><trkpt lat="45.5854952" lon="11.065167"><ele>783.0</ele><time>2026-04-25T13:15:28.332Z</time></trkpt><trkpt lat="45.5853526" lon="11.0652372"><ele>781.75</ele><time>2026-04-25T13:15:29.332Z</time></trkpt><trkpt lat="45.5852124" lon="11.0653123"><ele>780.5</ele><time>2026-04-25T13:15:30.332Z</time></trkpt><trkpt lat="45.5850822" lon="11.0653794"><ele>779.25</ele><time>2026-04-25T13:15:31.333Z</time></trkpt><trkpt lat="45.5849439" lon="11.0654533"><ele>778.0</ele><time>2026-04-25T13:15:32.333Z</time></trkpt><trkpt lat="45.5848215" lon="11.0654826"><ele>778.0</ele><time>2026-04-25T13:15:33.332Z</time></trkpt><trkpt lat="45.5847104" lon="11.0654546"><ele>778.0</ele><time>2026-04-25T13:15:34.333Z</time></trkpt><trkpt lat="45.5846059" lon="11.0653768"><ele>778.0</ele><time>2026-04-25T13:15:35.333Z</time></trkpt><trkpt lat="45.5845188" lon="11.0652452"><ele>778.0</ele><time>2026-04-25T13:15:36.334Z</time></trkpt><trkpt lat="45.5844523" lon="11.0650651"><ele>774.0</ele><time>2026-04-25T13:15:37.333Z</time></trkpt><trkpt lat="45.5843801" lon="11.0648397"><ele>770.0</ele><time>2026-04-25T13:15:38.334Z</time></trkpt><trkpt lat="45.5843031" lon="11.0646246"><ele>766.0</ele><time>2026-04-25T13:15:39.333Z</time></trkpt><trkpt lat="45.5842084" lon="11.0644361"><ele>766.0</ele><time>2026-04-25T13:15:40.333Z</time></trkpt><trkpt lat="45.5840932" lon="11.0642769"><ele>766.0</ele><time>2026-04-25T13:15:41.333Z</time></trkpt><trkpt lat="45.5839763" lon="11.064127"><ele>766.0</ele><time>2026-04-25T13:15:42.334Z</time></trkpt><trkpt lat="45.583865" lon="11.0639693"><ele>766.6666666666667</ele><time>2026-04-25T13:15:43.333Z</time></trkpt><trkpt lat="45.5837569" lon="11.0638056"><ele>767.3333333333334</ele><time>2026-04-25T13:15:44.334Z</time></trkpt><trkpt lat="45.5836533" lon="11.0636386"><ele>768.0</ele><time>2026-04-25T13:15:45.334Z</time></trkpt><trkpt lat="45.5835502" lon="11.0634731"><ele>763.0</ele><time>2026-04-25T13:15:46.333Z</time></trkpt><trkpt lat="45.5834508" lon="11.0633029"><ele>758.0</ele><time>2026-04-25T13:15:47.333Z</time></trkpt><trkpt lat="45.5833573" lon="11.0631175"><ele>753.0</ele><time>2026-04-25T13:15:48.333Z</time></trkpt><trkpt lat="45.5832701" lon="11.0629236"><ele>753.0</ele><time>2026-04-25T13:15:49.334Z</time></trkpt><trkpt lat="45.5831897" lon="11.0627181"><ele>753.0</ele><time>2026-04-25T13:15:50.334Z</time></trkpt><trkpt lat="45.5831132" lon="11.0625017"><ele>753.0</ele><time>2026-04-25T13:15:51.334Z</time></trkpt><trkpt lat="45.5830405" lon="11.0622837"><ele>753.6666666666666</ele><time>2026-04-25T13:15:52.334Z</time></trkpt><trkpt lat="45.5829702" lon="11.062071"><ele>754.3333333333333</ele><time>2026-04-25T13:15:53.334Z</time></trkpt><trkpt lat="45.5829003" lon="11.0618702"><ele>755.0</ele><time>2026-04-25T13:15:54.334Z</time></trkpt><trkpt lat="45.5828354" lon="11.0616766"><ele>748.25</ele><time>2026-04-25T13:15:55.333Z</time></trkpt><trkpt lat="45.5827772" lon="11.061481"><ele>741.5</ele><time>2026-04-25T13:15:56.334Z</time></trkpt><trkpt lat="45.5827435" lon="11.0612832"><ele>734.75</ele><time>2026-04-25T13:15:57.333Z</time></trkpt><trkpt lat="45.5827537" lon="11.0610879"><ele>728.0</ele><time>2026-04-25T13:15:58.333Z</time></trkpt><trkpt lat="45.5827925" lon="11.0608947"><ele>726.75</ele><time>2026-04-25T13:15:59.333Z</time></trkpt><trkpt lat="45.5828793" lon="11.0607411"><ele>725.5</ele><time>2026-04-25T13:16:00.333Z</time></trkpt><trkpt lat="45.5829876" lon="11.0606131"><ele>724.25</ele><time>2026-04-25T13:16:01.333Z</time></trkpt><trkpt lat="45.5831179" lon="11.0605124"><ele>723.0</ele><time>2026-04-25T13:16:02.334Z</time></trkpt><trkpt lat="45.5832589" lon="11.06043"><ele>723.0</ele><time>2026-04-25T13:16:03.333Z</time></trkpt><trkpt lat="45.583414" lon="11.0603754"><ele>723.0</ele><time>2026-04-25T13:16:04.333Z</time></trkpt><trkpt lat="45.5835817" lon="11.0603419"><ele>723.0</ele><time>2026-04-25T13:16:05.334Z</time></trkpt><trkpt lat="45.5837431" lon="11.0603052"><ele>724.0</ele><time>2026-04-25T13:16:06.334Z</time></trkpt><trkpt lat="45.5839023" lon="11.0602633"><ele>725.0</ele><time>2026-04-25T13:16:07.333Z</time></trkpt><trkpt lat="45.5840491" lon="11.0602135"><ele>726.0</ele><time>2026-04-25T13:16:08.333Z</time></trkpt><trkpt lat="45.5841895" lon="11.0601674"><ele>726.0</ele><time>2026-04-25T13:16:09.333Z</time></trkpt><trkpt lat="45.5843264" lon="11.0601258"><ele>726.0</ele><time>2026-04-25T13:16:10.334Z</time></trkpt><trkpt lat="45.5844494" lon="11.0600888"><ele>726.0</ele><time>2026-04-25T13:16:11.334Z</time></trkpt><trkpt lat="45.5845696" lon="11.0600776"><ele>726.0</ele><time>2026-04-25T13:16:12.333Z</time></trkpt><trkpt lat="45.5846937" lon="11.060105"><ele>724.75</ele><time>2026-04-25T13:16:13.333Z</time></trkpt><trkpt lat="45.5848349" lon="11.0601481"><ele>723.5</ele><time>2026-04-25T13:16:14.334Z</time></trkpt><trkpt lat="45.5849764" lon="11.0601837"><ele>722.25</ele><time>2026-04-25T13:16:15.334Z</time></trkpt><trkpt lat="45.5851086" lon="11.0602068"><ele>721.0</ele><time>2026-04-25T13:16:16.333Z</time></trkpt><trkpt lat="45.5852329" lon="11.0602227"><ele>720.0</ele><time>2026-04-25T13:16:17.334Z</time></trkpt><trkpt lat="45.5853476" lon="11.0602461"><ele>719.0</ele><time>2026-04-25T13:16:18.334Z</time></trkpt><trkpt lat="45.5854368" lon="11.0602927"><ele>718.0</ele><time>2026-04-25T13:16:19.333Z</time></trkpt><trkpt lat="45.5855043" lon="11.0603618"><ele>717.0</ele><time>2026-04-25T13:16:20.333Z</time></trkpt><trkpt lat="45.5855734" lon="11.0604543"><ele>716.0</ele><time>2026-04-25T13:16:21.333Z</time></trkpt><trkpt lat="45.5856354" lon="11.0605736"><ele>716.0</ele><time>2026-04-25T13:16:22.333Z</time></trkpt><trkpt lat="45.5857" lon="11.0607011"><ele>716.0</ele><time>2026-04-25T13:16:23.333Z</time></trkpt><trkpt lat="45.5857639" lon="11.0608147"><ele>716.0</ele><time>2026-04-25T13:16:24.333Z</time></trkpt><trkpt lat="45.5858295" lon="11.0609119"><ele>716.0</ele><time>2026-04-25T13:16:25.333Z</time></trkpt><trkpt lat="45.5859299" lon="11.0608928"><ele>716.0</ele><time>2026-04-25T13:16:27.333Z</time></trkpt><trkpt lat="45.5859614" lon="11.0608044"><ele>716.0</ele><time>2026-04-25T13:16:28.333Z</time></trkpt><trkpt lat="45.5859746" lon="11.0606573"><ele>716.0</ele><time>2026-04-25T13:16:29.334Z</time></trkpt><trkpt lat="45.5859387" lon="11.0604904"><ele>716.0</ele><time>2026-04-25T13:16:30.333Z</time></trkpt><trkpt lat="45.5858903" lon="11.0603441"><ele>716.0</ele><time>2026-04-25T13:16:31.334Z</time></trkpt><trkpt lat="45.5858304" lon="11.0601728"><ele>716.0</ele><time>2026-04-25T13:16:32.334Z</time></trkpt><trkpt lat="45.5857837" lon="11.0600106"><ele>716.0</ele><time>2026-04-25T13:16:33.333Z</time></trkpt><trkpt lat="45.5857369" lon="11.0597584"><ele>716.0</ele><time>2026-04-25T13:16:34.333Z</time></trkpt><trkpt lat="45.585736" lon="11.0595372"><ele>715.0</ele><time>2026-04-25T13:16:35.333Z</time></trkpt><trkpt lat="45.5857516" lon="11.0593076"><ele>714.0</ele><time>2026-04-25T13:16:36.333Z</time></trkpt><trkpt lat="45.5857723" lon="11.0590665"><ele>713.0</ele><time>2026-04-25T13:16:37.333Z</time></trkpt><trkpt lat="45.5857885" lon="11.0588534"><ele>711.6666666666666</ele><time>2026-04-25T13:16:38.333Z</time></trkpt><trkpt lat="45.585802" lon="11.0586434"><ele>710.3333333333334</ele><time>2026-04-25T13:16:39.335Z</time></trkpt><trkpt lat="45.5858121" lon="11.0584139"><ele>709.0</ele><time>2026-04-25T13:16:40.334Z</time></trkpt><trkpt lat="45.5858217" lon="11.0581403"><ele>707.6666666666667</ele><time>2026-04-25T13:16:41.335Z</time></trkpt><trkpt lat="45.585837" lon="11.057856"><ele>706.3333333333334</ele><time>2026-04-25T13:16:42.334Z</time></trkpt><trkpt lat="45.5858587" lon="11.0576202"><ele>705.0</ele><time>2026-04-25T13:16:43.334Z</time></trkpt><trkpt lat="45.5858867" lon="11.0574204"><ele>702.6666666666666</ele><time>2026-04-25T13:16:44.334Z</time></trkpt><trkpt lat="45.585938" lon="11.0572216"><ele>700.3333333333333</ele><time>2026-04-25T13:16:45.334Z</time></trkpt><trkpt lat="45.5860513" lon="11.0570437"><ele>698.0</ele><time>2026-04-25T13:16:46.335Z</time></trkpt><trkpt lat="45.5862305" lon="11.0568688"><ele>698.0</ele><time>2026-04-25T13:16:47.334Z</time></trkpt><trkpt lat="45.5864095" lon="11.0566878"><ele>698.0</ele><time>2026-04-25T13:16:48.335Z</time></trkpt><trkpt lat="45.5865849" lon="11.056533"><ele>698.0</ele><time>2026-04-25T13:16:49.335Z</time></trkpt><trkpt lat="45.5867409" lon="11.0563815"><ele>692.3333333333333</ele><time>2026-04-25T13:16:50.335Z</time></trkpt><trkpt lat="45.5868833" lon="11.0562136"><ele>686.6666666666666</ele><time>2026-04-25T13:16:51.334Z</time></trkpt><trkpt lat="45.5869975" lon="11.0560097"><ele>681.0</ele><time>2026-04-25T13:16:52.334Z</time></trkpt><trkpt lat="45.587105" lon="11.0557778"><ele>681.0</ele><time>2026-04-25T13:16:53.335Z</time></trkpt><trkpt lat="45.5872013" lon="11.0555255"><ele>681.0</ele><time>2026-04-25T13:16:54.335Z</time></trkpt><trkpt lat="45.5873062" lon="11.0552635"><ele>681.0</ele><time>2026-04-25T13:16:55.334Z</time></trkpt><trkpt lat="45.587411" lon="11.0550212"><ele>677.0</ele><time>2026-04-25T13:16:56.334Z</time></trkpt><trkpt lat="45.5875023" lon="11.0548023"><ele>673.0</ele><time>2026-04-25T13:16:57.334Z</time></trkpt><trkpt lat="45.5875897" lon="11.0545768"><ele>669.0</ele><time>2026-04-25T13:16:58.334Z</time></trkpt><trkpt lat="45.5876631" lon="11.0543774"><ele>669.0</ele><time>2026-04-25T13:16:59.334Z</time></trkpt><trkpt lat="45.587724" lon="11.0541952"><ele>669.0</ele><time>2026-04-25T13:17:00.334Z</time></trkpt><trkpt lat="45.5877821" lon="11.0539941"><ele>669.0</ele><time>2026-04-25T13:17:01.334Z</time></trkpt><trkpt lat="45.5877906" lon="11.0538153"><ele>669.0</ele><time>2026-04-25T13:17:02.334Z</time></trkpt><trkpt lat="45.5877605" lon="11.0535872"><ele>665.3333333333334</ele><time>2026-04-25T13:17:03.335Z</time></trkpt><trkpt lat="45.5877743" lon="11.0533749"><ele>661.6666666666667</ele><time>2026-04-25T13:17:04.334Z</time></trkpt><trkpt lat="45.5878269" lon="11.0531795"><ele>658.0</ele><time>2026-04-25T13:17:05.334Z</time></trkpt><trkpt lat="45.5879341" lon="11.053"><ele>658.0</ele><time>2026-04-25T13:17:06.335Z</time></trkpt><trkpt lat="45.588074" lon="11.0528415"><ele>658.0</ele><time>2026-04-25T13:17:07.335Z</time></trkpt><trkpt lat="45.588217" lon="11.0527203"><ele>658.0</ele><time>2026-04-25T13:17:08.334Z</time></trkpt><trkpt lat="45.5883439" lon="11.0526296"><ele>658.0</ele><time>2026-04-25T13:17:09.335Z</time></trkpt><trkpt lat="45.5884713" lon="11.0525778"><ele>658.0</ele><time>2026-04-25T13:17:10.334Z</time></trkpt><trkpt lat="45.5886246" lon="11.052536"><ele>658.0</ele><time>2026-04-25T13:17:11.335Z</time></trkpt><trkpt lat="45.5887896" lon="11.0525242"><ele>659.75</ele><time>2026-04-25T13:17:12.334Z</time></trkpt><trkpt lat="45.5889462" lon="11.0524982"><ele>661.5</ele><time>2026-04-25T13:17:13.334Z</time></trkpt><trkpt lat="45.5890832" lon="11.0524684"><ele>663.25</ele><time>2026-04-25T13:17:14.331Z</time></trkpt><trkpt lat="45.5892129" lon="11.0524342"><ele>665.0</ele><time>2026-04-25T13:17:15.334Z</time></trkpt><trkpt lat="45.5893411" lon="11.0524015"><ele>659.0</ele><time>2026-04-25T13:17:16.334Z</time></trkpt><trkpt lat="45.5894606" lon="11.0523698"><ele>653.0</ele><time>2026-04-25T13:17:17.334Z</time></trkpt><trkpt lat="45.5895763" lon="11.0523518"><ele>647.0</ele><time>2026-04-25T13:17:18.334Z</time></trkpt><trkpt lat="45.5896894" lon="11.0523427"><ele>641.0</ele><time>2026-04-25T13:17:19.334Z</time></trkpt><trkpt lat="45.5898001" lon="11.0523251"><ele>641.0</ele><time>2026-04-25T13:17:20.335Z</time></trkpt><trkpt lat="45.5898963" lon="11.0522922"><ele>641.0</ele><time>2026-04-25T13:17:21.334Z</time></trkpt><trkpt lat="45.5899776" lon="11.0522308"><ele>641.0</ele><time>2026-04-25T13:17:22.334Z</time></trkpt><trkpt lat="45.590039" lon="11.0521285"><ele>641.0</ele><time>2026-04-25T13:17:23.335Z</time></trkpt><trkpt lat="45.5900853" lon="11.0520054"><ele>641.0</ele><time>2026-04-25T13:17:24.334Z</time></trkpt><trkpt lat="45.5901305" lon="11.0518726"><ele>641.0</ele><time>2026-04-25T13:17:25.334Z</time></trkpt><trkpt lat="45.5901776" lon="11.0517427"><ele>641.0</ele><time>2026-04-25T13:17:26.334Z</time></trkpt><trkpt lat="45.5902298" lon="11.0516182"><ele>641.0</ele><time>2026-04-25T13:17:27.334Z</time></trkpt><trkpt lat="45.5902787" lon="11.0514977"><ele>641.0</ele><time>2026-04-25T13:17:28.335Z</time></trkpt><trkpt lat="45.5903228" lon="11.0513885"><ele>641.0</ele><time>2026-04-25T13:17:29.334Z</time></trkpt><trkpt lat="45.5903635" lon="11.0512899"><ele>641.6666666666666</ele><time>2026-04-25T13:17:30.335Z</time></trkpt><trkpt lat="45.5904029" lon="11.0511928"><ele>642.3333333333333</ele><time>2026-04-25T13:17:31.334Z</time></trkpt><trkpt lat="45.5904283" lon="11.0510995"><ele>643.0</ele><time>2026-04-25T13:17:32.334Z</time></trkpt><trkpt lat="45.590423" lon="11.0510065"><ele>643.6666666666666</ele><time>2026-04-25T13:17:33.334Z</time></trkpt><trkpt lat="45.5903885" lon="11.0509114"><ele>644.3333333333334</ele><time>2026-04-25T13:17:34.334Z</time></trkpt><trkpt lat="45.5902808" lon="11.0507789"><ele>645.0</ele><time>2026-04-25T13:17:35.335Z</time></trkpt><trkpt lat="45.5901762" lon="11.050694"><ele>645.0</ele><time>2026-04-25T13:17:36.335Z</time></trkpt><trkpt lat="45.5900972" lon="11.0506254"><ele>645.0</ele><time>2026-04-25T13:17:37.334Z</time></trkpt><trkpt lat="45.5900179" lon="11.0505508"><ele>645.0</ele><time>2026-04-25T13:17:38.334Z</time></trkpt><trkpt lat="45.5899467" lon="11.0504742"><ele>645.0</ele><time>2026-04-25T13:17:39.334Z</time></trkpt><trkpt lat="45.5898729" lon="11.0504122"><ele>645.0</ele><time>2026-04-25T13:17:40.334Z</time></trkpt><trkpt lat="45.5898048" lon="11.0503562"><ele>645.0</ele><time>2026-04-25T13:17:41.334Z</time></trkpt><trkpt lat="45.5897411" lon="11.050301"><ele>645.0</ele><time>2026-04-25T13:17:42.335Z</time></trkpt><trkpt lat="45.5896909" lon="11.0502247"><ele>645.0</ele><time>2026-04-25T13:17:43.335Z</time></trkpt><trkpt lat="45.5896602" lon="11.0501248"><ele>645.0</ele><time>2026-04-25T13:17:44.336Z</time></trkpt><trkpt lat="45.589664" lon="11.0500017"><ele>645.0</ele><time>2026-04-25T13:17:45.335Z</time></trkpt><trkpt lat="45.5896981" lon="11.0498695"><ele>645.0</ele><time>2026-04-25T13:17:46.335Z</time></trkpt><trkpt lat="45.5897774" lon="11.0497412"><ele>640.8</ele><time>2026-04-25T13:17:47.335Z</time></trkpt><trkpt lat="45.5898673" lon="11.0496228"><ele>636.6</ele><time>2026-04-25T13:17:48.336Z</time></trkpt><trkpt lat="45.5899518" lon="11.0495072"><ele>632.4</ele><time>2026-04-25T13:17:49.336Z</time></trkpt><trkpt lat="45.5900174" lon="11.0493891"><ele>628.2</ele><time>2026-04-25T13:17:50.335Z</time></trkpt><trkpt lat="45.5900718" lon="11.04928"><ele>624.0</ele><time>2026-04-25T13:17:51.335Z</time></trkpt><trkpt lat="45.5901246" lon="11.049164"><ele>624.2</ele><time>2026-04-25T13:17:52.336Z</time></trkpt><trkpt lat="45.5901733" lon="11.0490466"><ele>624.4</ele><time>2026-04-25T13:17:53.335Z</time></trkpt><trkpt lat="45.5902391" lon="11.0489385"><ele>624.6</ele><time>2026-04-25T13:17:54.335Z</time></trkpt><trkpt lat="45.5903339" lon="11.0488469"><ele>624.8</ele><time>2026-04-25T13:17:55.335Z</time></trkpt><trkpt lat="45.5904532" lon="11.0487646"><ele>625.0</ele><time>2026-04-25T13:17:56.335Z</time></trkpt><trkpt lat="45.5905678" lon="11.0486978"><ele>625.0</ele><time>2026-04-25T13:17:57.335Z</time></trkpt><trkpt lat="45.5906736" lon="11.0486298"><ele>625.0</ele><time>2026-04-25T13:17:58.335Z</time></trkpt><trkpt lat="45.5907757" lon="11.0485554"><ele>625.0</ele><time>2026-04-25T13:17:59.336Z</time></trkpt><trkpt lat="45.5908743" lon="11.0484803"><ele>625.0</ele><time>2026-04-25T13:18:00.336Z</time></trkpt><trkpt lat="45.59096" lon="11.0483935"><ele>625.0</ele><time>2026-04-25T13:18:01.336Z</time></trkpt><trkpt lat="45.5910441" lon="11.0482831"><ele>625.25</ele><time>2026-04-25T13:18:02.335Z</time></trkpt><trkpt lat="45.5911295" lon="11.0481729"><ele>625.5</ele><time>2026-04-25T13:18:03.336Z</time></trkpt><trkpt lat="45.5912144" lon="11.0480612"><ele>625.75</ele><time>2026-04-25T13:18:04.335Z</time></trkpt><trkpt lat="45.591308" lon="11.0479575"><ele>626.0</ele><time>2026-04-25T13:18:05.336Z</time></trkpt><trkpt lat="45.5914203" lon="11.0478679"><ele>626.0</ele><time>2026-04-25T13:18:06.336Z</time></trkpt><trkpt lat="45.5915337" lon="11.0477852"><ele>626.0</ele><time>2026-04-25T13:18:07.335Z</time></trkpt><trkpt lat="45.5916395" lon="11.0476876"><ele>626.0</ele><time>2026-04-25T13:18:08.335Z</time></trkpt><trkpt lat="45.5917218" lon="11.0475619"><ele>626.0</ele><time>2026-04-25T13:18:09.335Z</time></trkpt><trkpt lat="45.5917873" lon="11.0474203"><ele>625.0</ele><time>2026-04-25T13:18:10.336Z</time></trkpt><trkpt lat="45.591839" lon="11.0473007"><ele>624.0</ele><time>2026-04-25T13:18:11.336Z</time></trkpt><trkpt lat="45.5918856" lon="11.047175"><ele>623.0</ele><time>2026-04-25T13:18:12.335Z</time></trkpt><trkpt lat="45.5919277" lon="11.0470368"><ele>622.0</ele><time>2026-04-25T13:18:13.335Z</time></trkpt><trkpt lat="45.591964" lon="11.0469195"><ele>621.0</ele><time>2026-04-25T13:18:14.335Z</time></trkpt><trkpt lat="45.5919941" lon="11.0468151"><ele>624.8333333333334</ele><time>2026-04-25T13:18:15.335Z</time></trkpt><trkpt lat="45.5920089" lon="11.046702"><ele>628.6666666666666</ele><time>2026-04-25T13:18:16.335Z</time></trkpt><trkpt lat="45.5919973" lon="11.046603"><ele>632.5</ele><time>2026-04-25T13:18:17.335Z</time></trkpt><trkpt lat="45.5919559" lon="11.0465342"><ele>636.3333333333333</ele><time>2026-04-25T13:18:18.335Z</time></trkpt><trkpt lat="45.5918693" lon="11.0464796"><ele>640.1666666666666</ele><time>2026-04-25T13:18:19.335Z</time></trkpt><trkpt lat="45.59177" lon="11.0465084"><ele>644.0</ele><time>2026-04-25T13:18:20.335Z</time></trkpt><trkpt lat="45.5916576" lon="11.046598"><ele>638.25</ele><time>2026-04-25T13:18:21.335Z</time></trkpt><trkpt lat="45.5915703" lon="11.0467429"><ele>632.5</ele><time>2026-04-25T13:18:22.336Z</time></trkpt><trkpt lat="45.5914941" lon="11.0469113"><ele>626.75</ele><time>2026-04-25T13:18:23.335Z</time></trkpt><trkpt lat="45.5914176" lon="11.047068"><ele>621.0</ele><time>2026-04-25T13:18:24.335Z</time></trkpt><trkpt lat="45.5913275" lon="11.0471971"><ele>621.0</ele><time>2026-04-25T13:18:25.335Z</time></trkpt><trkpt lat="45.5912265" lon="11.0472953"><ele>621.0</ele><time>2026-04-25T13:18:26.336Z</time></trkpt><trkpt lat="45.5911174" lon="11.0473786"><ele>621.0</ele><time>2026-04-25T13:18:27.335Z</time></trkpt><trkpt lat="45.5909944" lon="11.0474493"><ele>621.0</ele><time>2026-04-25T13:18:28.335Z</time></trkpt><trkpt lat="45.5908721" lon="11.0475244"><ele>619.5</ele><time>2026-04-25T13:18:29.335Z</time></trkpt><trkpt lat="45.5907588" lon="11.047603"><ele>618.0</ele><time>2026-04-25T13:18:30.335Z</time></trkpt><trkpt lat="45.5906498" lon="11.0476764"><ele>616.5</ele><time>2026-04-25T13:18:31.335Z</time></trkpt><trkpt lat="45.5905443" lon="11.0477475"><ele>615.0</ele><time>2026-04-25T13:18:32.335Z</time></trkpt><trkpt lat="45.5904405" lon="11.047815"><ele>622.25</ele><time>2026-04-25T13:18:33.335Z</time></trkpt><trkpt lat="45.5903305" lon="11.0478809"><ele>629.5</ele><time>2026-04-25T13:18:34.336Z</time></trkpt><trkpt lat="45.5902148" lon="11.0478918"><ele>636.75</ele><time>2026-04-25T13:18:35.335Z</time></trkpt><trkpt lat="45.5901012" lon="11.0479064"><ele>644.0</ele><time>2026-04-25T13:18:36.335Z</time></trkpt><trkpt lat="45.5899856" lon="11.0479097"><ele>644.0</ele><time>2026-04-25T13:18:37.335Z</time></trkpt><trkpt lat="45.5898623" lon="11.0479061"><ele>644.0</ele><time>2026-04-25T13:18:38.336Z</time></trkpt><trkpt lat="45.5897318" lon="11.0479069"><ele>644.0</ele><time>2026-04-25T13:18:39.335Z</time></trkpt><trkpt lat="45.5896102" lon="11.0479255"><ele>644.0</ele><time>2026-04-25T13:18:40.335Z</time></trkpt><trkpt lat="45.5894883" lon="11.0479907"><ele>642.0</ele><time>2026-04-25T13:18:41.335Z</time></trkpt><trkpt lat="45.589375" lon="11.0480838"><ele>640.0</ele><time>2026-04-25T13:18:42.335Z</time></trkpt><trkpt lat="45.5892641" lon="11.0481885"><ele>638.0</ele><time>2026-04-25T13:18:43.335Z</time></trkpt><trkpt lat="45.5891532" lon="11.0482906"><ele>636.0</ele><time>2026-04-25T13:18:44.335Z</time></trkpt><trkpt lat="45.5890635" lon="11.0483995"><ele>636.0</ele><time>2026-04-25T13:18:45.336Z</time></trkpt><trkpt lat="45.5889928" lon="11.0485257"><ele>636.0</ele><time>2026-04-25T13:18:46.336Z</time></trkpt><trkpt lat="45.5889258" lon="11.0486486"><ele>636.0</ele><time>2026-04-25T13:18:47.336Z</time></trkpt><trkpt lat="45.5888435" lon="11.0487496"><ele>636.0</ele><time>2026-04-25T13:18:48.336Z</time></trkpt><trkpt lat="45.5887367" lon="11.0487989"><ele>636.0</ele><time>2026-04-25T13:18:49.337Z</time></trkpt><trkpt lat="45.5886256" lon="11.0488416"><ele>638.0</ele><time>2026-04-25T13:18:50.336Z</time></trkpt><trkpt lat="45.5885199" lon="11.0489004"><ele>640.0</ele><time>2026-04-25T13:18:51.337Z</time></trkpt><trkpt lat="45.5884163" lon="11.0489886"><ele>642.0</ele><time>2026-04-25T13:18:52.336Z</time></trkpt><trkpt lat="45.5883296" lon="11.0491123"><ele>644.0</ele><time>2026-04-25T13:18:53.336Z</time></trkpt><trkpt lat="45.5882462" lon="11.049257"><ele>644.0</ele><time>2026-04-25T13:18:54.337Z</time></trkpt><trkpt lat="45.5881658" lon="11.0493974"><ele>644.0</ele><time>2026-04-25T13:18:55.336Z</time></trkpt><trkpt lat="45.5880826" lon="11.0495191"><ele>644.0</ele><time>2026-04-25T13:18:56.336Z</time></trkpt><trkpt lat="45.587986" lon="11.0496226"><ele>644.0</ele><time>2026-04-25T13:18:57.337Z</time></trkpt><trkpt lat="45.5878791" lon="11.0496941"><ele>649.5</ele><time>2026-04-25T13:18:58.337Z</time></trkpt><trkpt lat="45.5877663" lon="11.0497453"><ele>655.0</ele><time>2026-04-25T13:18:59.336Z</time></trkpt><trkpt lat="45.5876509" lon="11.0497917"><ele>660.5</ele><time>2026-04-25T13:19:00.336Z</time></trkpt><trkpt lat="45.5875279" lon="11.0498262"><ele>666.0</ele><time>2026-04-25T13:19:01.336Z</time></trkpt><trkpt lat="45.5874061" lon="11.0498555"><ele>666.0</ele><time>2026-04-25T13:19:02.337Z</time></trkpt><trkpt lat="45.5872833" lon="11.0498689"><ele>666.0</ele><time>2026-04-25T13:19:03.337Z</time></trkpt><trkpt lat="45.5871525" lon="11.0498321"><ele>666.0</ele><time>2026-04-25T13:19:04.336Z</time></trkpt><trkpt lat="45.587019" lon="11.0497705"><ele>666.0</ele><time>2026-04-25T13:19:05.336Z</time></trkpt><trkpt lat="45.5868721" lon="11.0497052"><ele>669.5</ele><time>2026-04-25T13:19:06.336Z</time></trkpt><trkpt lat="45.5867221" lon="11.0496542"><ele>673.0</ele><time>2026-04-25T13:19:07.337Z</time></trkpt><trkpt lat="45.5865802" lon="11.0496175"><ele>676.5</ele><time>2026-04-25T13:19:08.336Z</time></trkpt><trkpt lat="45.5864465" lon="11.0495946"><ele>680.0</ele><time>2026-04-25T13:19:09.336Z</time></trkpt><trkpt lat="45.5863133" lon="11.0495808"><ele>680.0</ele><time>2026-04-25T13:19:10.337Z</time></trkpt><trkpt lat="45.5861798" lon="11.0495824"><ele>680.0</ele><time>2026-04-25T13:19:11.336Z</time></trkpt><trkpt lat="45.5860481" lon="11.0495988"><ele>680.0</ele><time>2026-04-25T13:19:12.337Z</time></trkpt><trkpt lat="45.5859239" lon="11.0496333"><ele>680.0</ele><time>2026-04-25T13:19:13.336Z</time></trkpt><trkpt lat="45.5858063" lon="11.0496885"><ele>682.5</ele><time>2026-04-25T13:19:14.336Z</time></trkpt><trkpt lat="45.5856957" lon="11.0497645"><ele>685.0</ele><time>2026-04-25T13:19:15.337Z</time></trkpt><trkpt lat="45.5855845" lon="11.0498408"><ele>687.5</ele><time>2026-04-25T13:19:16.336Z</time></trkpt><trkpt lat="45.5854767" lon="11.0499311"><ele>690.0</ele><time>2026-04-25T13:19:17.336Z</time></trkpt><trkpt lat="45.5853743" lon="11.0500085"><ele>687.8</ele><time>2026-04-25T13:19:18.336Z</time></trkpt><trkpt lat="45.5852746" lon="11.0500683"><ele>685.6</ele><time>2026-04-25T13:19:19.337Z</time></trkpt><trkpt lat="45.5851725" lon="11.0500675"><ele>683.4000000000001</ele><time>2026-04-25T13:19:20.336Z</time></trkpt><trkpt lat="45.5850767" lon="11.0500075"><ele>681.2</ele><time>2026-04-25T13:19:21.336Z</time></trkpt><trkpt lat="45.5849913" lon="11.0498877"><ele>679.0</ele><time>2026-04-25T13:19:22.336Z</time></trkpt><trkpt lat="45.5849007" lon="11.0496867"><ele>679.0</ele><time>2026-04-25T13:19:23.337Z</time></trkpt><trkpt lat="45.5848072" lon="11.0495047"><ele>679.0</ele><time>2026-04-25T13:19:24.337Z</time></trkpt><trkpt lat="45.5847374" lon="11.0493066"><ele>679.0</ele><time>2026-04-25T13:19:25.336Z</time></trkpt><trkpt lat="45.5846873" lon="11.049078"><ele>685.3333333333334</ele><time>2026-04-25T13:19:26.336Z</time></trkpt><trkpt lat="45.5846597" lon="11.0488472"><ele>691.6666666666666</ele><time>2026-04-25T13:19:27.337Z</time></trkpt><trkpt lat="45.5846364" lon="11.0486293"><ele>698.0</ele><time>2026-04-25T13:19:28.336Z</time></trkpt><trkpt lat="45.5846075" lon="11.0484163"><ele>700.25</ele><time>2026-04-25T13:19:29.336Z</time></trkpt><trkpt lat="45.5845715" lon="11.0482132"><ele>702.5</ele><time>2026-04-25T13:19:30.336Z</time></trkpt><trkpt lat="45.5845374" lon="11.0480238"><ele>704.75</ele><time>2026-04-25T13:19:31.336Z</time></trkpt><trkpt lat="45.5845033" lon="11.0478398"><ele>707.0</ele><time>2026-04-25T13:19:32.336Z</time></trkpt><trkpt lat="45.5844702" lon="11.0476497"><ele>701.5</ele><time>2026-04-25T13:19:33.337Z</time></trkpt><trkpt lat="45.5844377" lon="11.0474535"><ele>696.0</ele><time>2026-04-25T13:19:34.336Z</time></trkpt><trkpt lat="45.5844052" lon="11.0472527"><ele>690.5</ele><time>2026-04-25T13:19:35.336Z</time></trkpt><trkpt lat="45.5843715" lon="11.0470462"><ele>685.0</ele><time>2026-04-25T13:19:36.336Z</time></trkpt><trkpt lat="45.5843401" lon="11.0468332"><ele>687.6666666666667</ele><time>2026-04-25T13:19:37.336Z</time></trkpt><trkpt lat="45.5843338" lon="11.0466113"><ele>690.3333333333334</ele><time>2026-04-25T13:19:38.336Z</time></trkpt><trkpt lat="45.5843586" lon="11.0463896"><ele>693.0</ele><time>2026-04-25T13:19:39.337Z</time></trkpt><trkpt lat="45.5843894" lon="11.0461776"><ele>693.0</ele><time>2026-04-25T13:19:40.336Z</time></trkpt><trkpt lat="45.5844011" lon="11.0459946"><ele>693.0</ele><time>2026-04-25T13:19:41.337Z</time></trkpt><trkpt lat="45.5843668" lon="11.0458312"><ele>693.0</ele><time>2026-04-25T13:19:42.336Z</time></trkpt><trkpt lat="45.5842927" lon="11.0456861"><ele>693.0</ele><time>2026-04-25T13:19:43.337Z</time></trkpt><trkpt lat="45.5841997" lon="11.0455681"><ele>696.5</ele><time>2026-04-25T13:19:44.336Z</time></trkpt><trkpt lat="45.5840775" lon="11.0454861"><ele>700.0</ele><time>2026-04-25T13:19:45.336Z</time></trkpt><trkpt lat="45.5839478" lon="11.0454116"><ele>703.5</ele><time>2026-04-25T13:19:46.336Z</time></trkpt><trkpt lat="45.5838145" lon="11.0453143"><ele>707.0</ele><time>2026-04-25T13:19:47.336Z</time></trkpt><trkpt lat="45.5836914" lon="11.0452007"><ele>706.5</ele><time>2026-04-25T13:19:48.337Z</time></trkpt><trkpt lat="45.5835854" lon="11.0450655"><ele>706.0</ele><time>2026-04-25T13:19:49.336Z</time></trkpt><trkpt lat="45.5834973" lon="11.0449038"><ele>705.5</ele><time>2026-04-25T13:19:50.337Z</time></trkpt><trkpt lat="45.583434" lon="11.0447228"><ele>705.0</ele><time>2026-04-25T13:19:51.337Z</time></trkpt><trkpt lat="45.583384" lon="11.0445276"><ele>706.25</ele><time>2026-04-25T13:19:52.337Z</time></trkpt><trkpt lat="45.5833417" lon="11.044346"><ele>707.5</ele><time>2026-04-25T13:19:53.338Z</time></trkpt><trkpt lat="45.5832934" lon="11.0441868"><ele>708.75</ele><time>2026-04-25T13:19:54.337Z</time></trkpt><trkpt lat="45.5832347" lon="11.0440506"><ele>710.0</ele><time>2026-04-25T13:19:55.337Z</time></trkpt><trkpt lat="45.5831622" lon="11.0439339"><ele>711.75</ele><time>2026-04-25T13:19:56.338Z</time></trkpt><trkpt lat="45.5830688" lon="11.0438406"><ele>713.5</ele><time>2026-04-25T13:19:57.338Z</time></trkpt><trkpt lat="45.5829657" lon="11.0437623"><ele>715.25</ele><time>2026-04-25T13:19:58.337Z</time></trkpt><trkpt lat="45.5828541" lon="11.0436971"><ele>717.0</ele><time>2026-04-25T13:19:59.338Z</time></trkpt><trkpt lat="45.5827296" lon="11.0436386"><ele>717.75</ele><time>2026-04-25T13:20:00.337Z</time></trkpt><trkpt lat="45.5826078" lon="11.0435916"><ele>718.5</ele><time>2026-04-25T13:20:01.338Z</time></trkpt><trkpt lat="45.5824811" lon="11.04355"><ele>719.25</ele><time>2026-04-25T13:20:02.337Z</time></trkpt><trkpt lat="45.5823484" lon="11.0435084"><ele>720.0</ele><time>2026-04-25T13:20:03.337Z</time></trkpt><trkpt lat="45.5822115" lon="11.0434625"><ele>720.0</ele><time>2026-04-25T13:20:04.337Z</time></trkpt><trkpt lat="45.5820706" lon="11.0434065"><ele>720.0</ele><time>2026-04-25T13:20:05.338Z</time></trkpt><trkpt lat="45.5819352" lon="11.0433504"><ele>720.0</ele><time>2026-04-25T13:20:06.338Z</time></trkpt><trkpt lat="45.5818024" lon="11.0432974"><ele>720.0</ele><time>2026-04-25T13:20:07.337Z</time></trkpt><trkpt lat="45.5816678" lon="11.0432447"><ele>723.75</ele><time>2026-04-25T13:20:08.337Z</time></trkpt><trkpt lat="45.581531" lon="11.0431892"><ele>727.5</ele><time>2026-04-25T13:20:09.337Z</time></trkpt><trkpt lat="45.5813951" lon="11.0431309"><ele>731.25</ele><time>2026-04-25T13:20:10.337Z</time></trkpt><trkpt lat="45.5812654" lon="11.0430797"><ele>735.0</ele><time>2026-04-25T13:20:11.337Z</time></trkpt><trkpt lat="45.5811502" lon="11.0430339"><ele>735.0</ele><time>2026-04-25T13:20:12.337Z</time></trkpt><trkpt lat="45.5810485" lon="11.0429923"><ele>735.0</ele><time>2026-04-25T13:20:13.337Z</time></trkpt><trkpt lat="45.5809545" lon="11.0429544"><ele>735.0</ele><time>2026-04-25T13:20:14.338Z</time></trkpt><trkpt lat="45.5808547" lon="11.0429254"><ele>735.0</ele><time>2026-04-25T13:20:15.337Z</time></trkpt><trkpt lat="45.5807493" lon="11.0429085"><ele>735.0</ele><time>2026-04-25T13:20:16.337Z</time></trkpt><trkpt lat="45.5806322" lon="11.042906"><ele>735.0</ele><time>2026-04-25T13:20:17.338Z</time></trkpt><trkpt lat="45.5805119" lon="11.0429185"><ele>735.0</ele><time>2026-04-25T13:20:18.337Z</time></trkpt><trkpt lat="45.5803949" lon="11.0429353"><ele>735.0</ele><time>2026-04-25T13:20:19.337Z</time></trkpt><trkpt lat="45.5802908" lon="11.0429498"><ele>735.0</ele><time>2026-04-25T13:20:20.337Z</time></trkpt><trkpt lat="45.5802002" lon="11.0429618"><ele>735.0</ele><time>2026-04-25T13:20:21.337Z</time></trkpt><trkpt lat="45.5801156" lon="11.0429729"><ele>735.5</ele><time>2026-04-25T13:20:22.337Z</time></trkpt><trkpt lat="45.5800319" lon="11.0429795"><ele>736.0</ele><time>2026-04-25T13:20:23.337Z</time></trkpt><trkpt lat="45.579952" lon="11.0429798"><ele>736.5</ele><time>2026-04-25T13:20:24.338Z</time></trkpt><trkpt lat="45.5798856" lon="11.0429758"><ele>737.0</ele><time>2026-04-25T13:20:25.337Z</time></trkpt><trkpt lat="45.5797807" lon="11.0429222"><ele>737.5</ele><time>2026-04-25T13:20:27.337Z</time></trkpt><trkpt lat="45.5797032" lon="11.042817"><ele>738.0</ele><time>2026-04-25T13:20:29.337Z</time></trkpt><trkpt lat="45.5796489" lon="11.0426696"><ele>738.0</ele><time>2026-04-25T13:20:31.337Z</time></trkpt><trkpt lat="45.5796513" lon="11.0425195"><ele>738.0</ele><time>2026-04-25T13:20:33.338Z</time></trkpt><trkpt lat="45.5797103" lon="11.0423879"><ele>738.0</ele><time>2026-04-25T13:20:35.338Z</time></trkpt><trkpt lat="45.5797817" lon="11.0423109"><ele>738.0</ele><time>2026-04-25T13:20:36.337Z</time></trkpt><trkpt lat="45.5798904" lon="11.0422057"><ele>738.0</ele><time>2026-04-25T13:20:37.337Z</time></trkpt><trkpt lat="45.5800208" lon="11.0420976"><ele>739.0</ele><time>2026-04-25T13:20:38.337Z</time></trkpt><trkpt lat="45.5801651" lon="11.041975"><ele>740.0</ele><time>2026-04-25T13:20:39.338Z</time></trkpt><trkpt lat="45.5803061" lon="11.0418561"><ele>741.0</ele><time>2026-04-25T13:20:40.337Z</time></trkpt><trkpt lat="45.5804446" lon="11.0417454"><ele>741.25</ele><time>2026-04-25T13:20:41.337Z</time></trkpt><trkpt lat="45.5805759" lon="11.0416365"><ele>741.5</ele><time>2026-04-25T13:20:42.337Z</time></trkpt><trkpt lat="45.5807026" lon="11.0415228"><ele>741.75</ele><time>2026-04-25T13:20:43.337Z</time></trkpt><trkpt lat="45.5808263" lon="11.0414097"><ele>742.0</ele><time>2026-04-25T13:20:44.337Z</time></trkpt><trkpt lat="45.58094" lon="11.0413037"><ele>742.0</ele><time>2026-04-25T13:20:45.338Z</time></trkpt><trkpt lat="45.5810472" lon="11.0412016"><ele>742.0</ele><time>2026-04-25T13:20:46.337Z</time></trkpt><trkpt lat="45.5811549" lon="11.0411027"><ele>742.0</ele><time>2026-04-25T13:20:47.337Z</time></trkpt><trkpt lat="45.581266" lon="11.0410029"><ele>742.0</ele><time>2026-04-25T13:20:48.338Z</time></trkpt><trkpt lat="45.581371" lon="11.0409035"><ele>743.5</ele><time>2026-04-25T13:20:49.337Z</time></trkpt><trkpt lat="45.5814779" lon="11.0407973"><ele>745.0</ele><time>2026-04-25T13:20:50.338Z</time></trkpt><trkpt lat="45.5815853" lon="11.0406956"><ele>746.5</ele><time>2026-04-25T13:20:51.337Z</time></trkpt><trkpt lat="45.5816875" lon="11.0405999"><ele>748.0</ele><time>2026-04-25T13:20:52.337Z</time></trkpt><trkpt lat="45.5817819" lon="11.040511"><ele>748.0</ele><time>2026-04-25T13:20:53.337Z</time></trkpt><trkpt lat="45.5818684" lon="11.0404293"><ele>748.0</ele><time>2026-04-25T13:20:54.338Z</time></trkpt><trkpt lat="45.5819525" lon="11.0403504"><ele>748.0</ele><time>2026-04-25T13:20:55.339Z</time></trkpt><trkpt lat="45.5820396" lon="11.04027"><ele>748.0</ele><time>2026-04-25T13:20:56.338Z</time></trkpt><trkpt lat="45.5821205" lon="11.0401998"><ele>748.0</ele><time>2026-04-25T13:20:57.338Z</time></trkpt><trkpt lat="45.5821905" lon="11.0401416"><ele>748.5</ele><time>2026-04-25T13:20:58.339Z</time></trkpt><trkpt lat="45.5822475" lon="11.0400802"><ele>749.0</ele><time>2026-04-25T13:20:59.339Z</time></trkpt><trkpt lat="45.5822873" lon="11.04"><ele>749.5</ele><time>2026-04-25T13:21:00.339Z</time></trkpt><trkpt lat="45.5823041" lon="11.0399064"><ele>750.0</ele><time>2026-04-25T13:21:01.339Z</time></trkpt><trkpt lat="45.5823073" lon="11.0397999"><ele>750.5</ele><time>2026-04-25T13:21:02.339Z</time></trkpt><trkpt lat="45.5823165" lon="11.0396645"><ele>751.0</ele><time>2026-04-25T13:21:03.338Z</time></trkpt><trkpt lat="45.5823359" lon="11.0394864"><ele>751.3333333333334</ele><time>2026-04-25T13:21:04.339Z</time></trkpt><trkpt lat="45.5823769" lon="11.039267"><ele>751.6666666666666</ele><time>2026-04-25T13:21:05.338Z</time></trkpt><trkpt lat="45.5824068" lon="11.0390556"><ele>752.0</ele><time>2026-04-25T13:21:06.338Z</time></trkpt><trkpt lat="45.582444" lon="11.0388597"><ele>752.0</ele><time>2026-04-25T13:21:07.338Z</time></trkpt><trkpt lat="45.5824962" lon="11.0386672"><ele>752.0</ele><time>2026-04-25T13:21:08.339Z</time></trkpt><trkpt lat="45.5825596" lon="11.038495"><ele>752.0</ele><time>2026-04-25T13:21:09.338Z</time></trkpt><trkpt lat="45.5826191" lon="11.0383488"><ele>752.0</ele><time>2026-04-25T13:21:10.338Z</time></trkpt><trkpt lat="45.5826738" lon="11.0382187"><ele>749.5</ele><time>2026-04-25T13:21:11.339Z</time></trkpt><trkpt lat="45.5827327" lon="11.0380965"><ele>747.0</ele><time>2026-04-25T13:21:12.338Z</time></trkpt><trkpt lat="45.5828064" lon="11.0379941"><ele>744.5</ele><time>2026-04-25T13:21:13.339Z</time></trkpt><trkpt lat="45.5829159" lon="11.0379014"><ele>742.0</ele><time>2026-04-25T13:21:14.338Z</time></trkpt><trkpt lat="45.5830814" lon="11.0378498"><ele>740.75</ele><time>2026-04-25T13:21:15.338Z</time></trkpt><trkpt lat="45.5832218" lon="11.0377995"><ele>739.5</ele><time>2026-04-25T13:21:16.338Z</time></trkpt><trkpt lat="45.5833593" lon="11.0377625"><ele>738.25</ele><time>2026-04-25T13:21:17.339Z</time></trkpt><trkpt lat="45.5834981" lon="11.0377411"><ele>737.0</ele><time>2026-04-25T13:21:18.338Z</time></trkpt><trkpt lat="45.5836498" lon="11.0377337"><ele>735.6666666666666</ele><time>2026-04-25T13:21:19.338Z</time></trkpt><trkpt lat="45.5838062" lon="11.0377366"><ele>734.3333333333334</ele><time>2026-04-25T13:21:20.338Z</time></trkpt><trkpt lat="45.5839587" lon="11.0377454"><ele>733.0</ele><time>2026-04-25T13:21:21.339Z</time></trkpt><trkpt lat="45.5841103" lon="11.0377529"><ele>733.0</ele><time>2026-04-25T13:21:22.338Z</time></trkpt><trkpt lat="45.5842693" lon="11.0377547"><ele>733.0</ele><time>2026-04-25T13:21:23.338Z</time></trkpt><trkpt lat="45.584427" lon="11.0377559"><ele>733.0</ele><time>2026-04-25T13:21:24.338Z</time></trkpt><trkpt lat="45.5845731" lon="11.0377506"><ele>736.5</ele><time>2026-04-25T13:21:25.338Z</time></trkpt><trkpt lat="45.584708" lon="11.0377343"><ele>740.0</ele><time>2026-04-25T13:21:26.338Z</time></trkpt><trkpt lat="45.5848175" lon="11.0376995"><ele>743.5</ele><time>2026-04-25T13:21:27.339Z</time></trkpt><trkpt lat="45.5849136" lon="11.0375724"><ele>747.0</ele><time>2026-04-25T13:21:29.338Z</time></trkpt><trkpt lat="45.5849191" lon="11.037463"><ele>747.0</ele><time>2026-04-25T13:21:30.338Z</time></trkpt><trkpt lat="45.5848751" lon="11.0373248"><ele>747.0</ele><time>2026-04-25T13:21:31.338Z</time></trkpt><trkpt lat="45.5847841" lon="11.0371885"><ele>747.0</ele><time>2026-04-25T13:21:32.339Z</time></trkpt><trkpt lat="45.5846441" lon="11.0370381"><ele>747.0</ele><time>2026-04-25T13:21:33.339Z</time></trkpt><trkpt lat="45.5845075" lon="11.0368847"><ele>742.5</ele><time>2026-04-25T13:21:34.338Z</time></trkpt><trkpt lat="45.5843817" lon="11.0367264"><ele>738.0</ele><time>2026-04-25T13:21:35.338Z</time></trkpt><trkpt lat="45.5842908" lon="11.0365818"><ele>733.5</ele><time>2026-04-25T13:21:36.339Z</time></trkpt><trkpt lat="45.5842266" lon="11.0364269"><ele>729.0</ele><time>2026-04-25T13:21:37.339Z</time></trkpt><trkpt lat="45.5841853" lon="11.0362428"><ele>729.0</ele><time>2026-04-25T13:21:38.338Z</time></trkpt><trkpt lat="45.5841403" lon="11.036031"><ele>729.0</ele><time>2026-04-25T13:21:39.338Z</time></trkpt><trkpt lat="45.5840922" lon="11.0358162"><ele>729.0</ele><time>2026-04-25T13:21:40.338Z</time></trkpt><trkpt lat="45.5840445" lon="11.0356159"><ele>730.0</ele><time>2026-04-25T13:21:41.338Z</time></trkpt><trkpt lat="45.5840097" lon="11.0354392"><ele>731.0</ele><time>2026-04-25T13:21:42.338Z</time></trkpt><trkpt lat="45.5839722" lon="11.0352833"><ele>732.0</ele><time>2026-04-25T13:21:43.339Z</time></trkpt><trkpt lat="45.583905" lon="11.0351605"><ele>733.0</ele><time>2026-04-25T13:21:44.338Z</time></trkpt><trkpt lat="45.583811" lon="11.035057"><ele>730.5999999999999</ele><time>2026-04-25T13:21:45.338Z</time></trkpt><trkpt lat="45.5837284" lon="11.0349586"><ele>728.1999999999999</ele><time>2026-04-25T13:21:46.338Z</time></trkpt><trkpt lat="45.5836619" lon="11.0348418"><ele>725.8</ele><time>2026-04-25T13:21:47.339Z</time></trkpt><trkpt lat="45.5836102" lon="11.0347186"><ele>723.4</ele><time>2026-04-25T13:21:48.338Z</time></trkpt><trkpt lat="45.583576" lon="11.0345984"><ele>721.0</ele><time>2026-04-25T13:21:49.338Z</time></trkpt><trkpt lat="45.5835601" lon="11.0344854"><ele>721.0</ele><time>2026-04-25T13:21:50.338Z</time></trkpt><trkpt lat="45.583582" lon="11.0343754"><ele>721.0</ele><time>2026-04-25T13:21:51.338Z</time></trkpt><trkpt lat="45.5836352" lon="11.0342647"><ele>721.0</ele><time>2026-04-25T13:21:52.338Z</time></trkpt><trkpt lat="45.5837311" lon="11.034162"><ele>721.0</ele><time>2026-04-25T13:21:53.339Z</time></trkpt><trkpt lat="45.5838594" lon="11.0340679"><ele>721.0</ele><time>2026-04-25T13:21:54.338Z</time></trkpt><trkpt lat="45.5840072" lon="11.0339756"><ele>715.3333333333334</ele><time>2026-04-25T13:21:55.339Z</time></trkpt><trkpt lat="45.584156" lon="11.0338813"><ele>709.6666666666666</ele><time>2026-04-25T13:21:56.338Z</time></trkpt><trkpt lat="45.5843124" lon="11.0337837"><ele>704.0</ele><time>2026-04-25T13:21:57.339Z</time></trkpt><trkpt lat="45.5844635" lon="11.0336951"><ele>708.3333333333333</ele><time>2026-04-25T13:21:58.339Z</time></trkpt><trkpt lat="45.5846065" lon="11.0336206"><ele>712.6666666666666</ele><time>2026-04-25T13:21:59.339Z</time></trkpt><trkpt lat="45.5847477" lon="11.0335325"><ele>717.0</ele><time>2026-04-25T13:22:00.339Z</time></trkpt><trkpt lat="45.5848788" lon="11.0334078"><ele>713.6666666666666</ele><time>2026-04-25T13:22:01.339Z</time></trkpt><trkpt lat="45.5849913" lon="11.0332408"><ele>710.3333333333333</ele><time>2026-04-25T13:22:02.34Z</time></trkpt><trkpt lat="45.5850977" lon="11.0330698"><ele>707.0</ele><time>2026-04-25T13:22:03.339Z</time></trkpt><trkpt lat="45.5851984" lon="11.0329223"><ele>707.0</ele><time>2026-04-25T13:22:04.34Z</time></trkpt><trkpt lat="45.5852925" lon="11.0328043"><ele>707.0</ele><time>2026-04-25T13:22:05.339Z</time></trkpt><trkpt lat="45.585398" lon="11.0327068"><ele>707.0</ele><time>2026-04-25T13:22:06.34Z</time></trkpt><trkpt lat="45.585524" lon="11.0326225"><ele>707.0</ele><time>2026-04-25T13:22:07.34Z</time></trkpt><trkpt lat="45.5856741" lon="11.0325403"><ele>709.0</ele><time>2026-04-25T13:22:08.339Z</time></trkpt><trkpt lat="45.5858228" lon="11.0324537"><ele>711.0</ele><time>2026-04-25T13:22:09.339Z</time></trkpt><trkpt lat="45.5859408" lon="11.0323622"><ele>713.0</ele><time>2026-04-25T13:22:10.34Z</time></trkpt><trkpt lat="45.5860304" lon="11.0322733"><ele>715.0</ele><time>2026-04-25T13:22:11.339Z</time></trkpt><trkpt lat="45.5860945" lon="11.0321923"><ele>715.0</ele><time>2026-04-25T13:22:12.34Z</time></trkpt><trkpt lat="45.5861158" lon="11.0320116"><ele>715.0</ele><time>2026-04-25T13:22:14.339Z</time></trkpt><trkpt lat="45.5860886" lon="11.031891"><ele>715.0</ele><time>2026-04-25T13:22:15.339Z</time></trkpt><trkpt lat="45.586052" lon="11.0317529"><ele>715.0</ele><time>2026-04-25T13:22:16.34Z</time></trkpt><trkpt lat="45.5860072" lon="11.0316"><ele>715.0</ele><time>2026-04-25T13:22:17.34Z</time></trkpt><trkpt lat="45.5859664" lon="11.0314273"><ele>714.2</ele><time>2026-04-25T13:22:18.339Z</time></trkpt><trkpt lat="45.5859504" lon="11.0312586"><ele>713.4</ele><time>2026-04-25T13:22:19.339Z</time></trkpt><trkpt lat="45.5859694" lon="11.0311029"><ele>712.5999999999999</ele><time>2026-04-25T13:22:20.339Z</time></trkpt><trkpt lat="45.5860115" lon="11.0309585"><ele>711.8</ele><time>2026-04-25T13:22:21.339Z</time></trkpt><trkpt lat="45.5860678" lon="11.0308403"><ele>711.0</ele><time>2026-04-25T13:22:22.339Z</time></trkpt><trkpt lat="45.5861384" lon="11.030755"><ele>707.75</ele><time>2026-04-25T13:22:23.34Z</time></trkpt><trkpt lat="45.5862336" lon="11.0307062"><ele>704.5</ele><time>2026-04-25T13:22:24.34Z</time></trkpt><trkpt lat="45.5863538" lon="11.0306683"><ele>701.25</ele><time>2026-04-25T13:22:25.34Z</time></trkpt><trkpt lat="45.5865007" lon="11.0306338"><ele>698.0</ele><time>2026-04-25T13:22:26.34Z</time></trkpt><trkpt lat="45.5866561" lon="11.0305773"><ele>698.0</ele><time>2026-04-25T13:22:27.339Z</time></trkpt><trkpt lat="45.5867998" lon="11.0304885"><ele>698.0</ele><time>2026-04-25T13:22:28.339Z</time></trkpt><trkpt lat="45.5869381" lon="11.0303736"><ele>698.0</ele><time>2026-04-25T13:22:29.339Z</time></trkpt><trkpt lat="45.5870644" lon="11.0302581"><ele>699.75</ele><time>2026-04-25T13:22:30.339Z</time></trkpt><trkpt lat="45.5871745" lon="11.0301514"><ele>701.5</ele><time>2026-04-25T13:22:31.34Z</time></trkpt><trkpt lat="45.5872598" lon="11.0300441"><ele>703.25</ele><time>2026-04-25T13:22:32.339Z</time></trkpt><trkpt lat="45.587327" lon="11.029921"><ele>705.0</ele><time>2026-04-25T13:22:33.339Z</time></trkpt><trkpt lat="45.5873787" lon="11.0297447"><ele>705.0</ele><time>2026-04-25T13:22:34.339Z</time></trkpt><trkpt lat="45.5874179" lon="11.0295173"><ele>705.0</ele><time>2026-04-25T13:22:35.34Z</time></trkpt><trkpt lat="45.587449" lon="11.0292848"><ele>705.0</ele><time>2026-04-25T13:22:36.339Z</time></trkpt><trkpt lat="45.5874754" lon="11.0291005"><ele>704.8333333333334</ele><time>2026-04-25T13:22:37.339Z</time></trkpt><trkpt lat="45.5875081" lon="11.0289556"><ele>704.6666666666666</ele><time>2026-04-25T13:22:38.34Z</time></trkpt><trkpt lat="45.5875468" lon="11.0288502"><ele>704.5</ele><time>2026-04-25T13:22:39.339Z</time></trkpt><trkpt lat="45.5875967" lon="11.0287842"><ele>704.3333333333333</ele><time>2026-04-25T13:22:40.339Z</time></trkpt><trkpt lat="45.5876719" lon="11.0287407"><ele>704.1666666666666</ele><time>2026-04-25T13:22:41.339Z</time></trkpt><trkpt lat="45.5877738" lon="11.0287082"><ele>704.0</ele><time>2026-04-25T13:22:42.339Z</time></trkpt><trkpt lat="45.5878865" lon="11.0286764"><ele>704.0</ele><time>2026-04-25T13:22:43.339Z</time></trkpt><trkpt lat="45.5879853" lon="11.0286658"><ele>704.0</ele><time>2026-04-25T13:22:44.339Z</time></trkpt><trkpt lat="45.5880811" lon="11.0286557"><ele>704.0</ele><time>2026-04-25T13:22:45.339Z</time></trkpt><trkpt lat="45.5881439" lon="11.0286044"><ele>704.0</ele><time>2026-04-25T13:22:46.34Z</time></trkpt><trkpt lat="45.5882057" lon="11.0285267"><ele>704.0</ele><time>2026-04-25T13:22:47.339Z</time></trkpt><trkpt lat="45.5882528" lon="11.0284068"><ele>704.0</ele><time>2026-04-25T13:22:48.34Z</time></trkpt><trkpt lat="45.5882969" lon="11.0282809"><ele>702.6</ele><time>2026-04-25T13:22:49.339Z</time></trkpt><trkpt lat="45.5883317" lon="11.028186"><ele>701.2</ele><time>2026-04-25T13:22:50.339Z</time></trkpt><trkpt lat="45.5883404" lon="11.0280104"><ele>699.8000000000001</ele><time>2026-04-25T13:22:52.34Z</time></trkpt><trkpt lat="45.5883276" lon="11.027897"><ele>698.4000000000001</ele><time>2026-04-25T13:22:53.339Z</time></trkpt><trkpt lat="45.58832" lon="11.0277572"><ele>697.0</ele><time>2026-04-25T13:22:54.339Z</time></trkpt><trkpt lat="45.588319" lon="11.0276051"><ele>695.8</ele><time>2026-04-25T13:22:55.339Z</time></trkpt><trkpt lat="45.5883222" lon="11.0274541"><ele>694.6</ele><time>2026-04-25T13:22:56.339Z</time></trkpt><trkpt lat="45.5883286" lon="11.0273112"><ele>693.4</ele><time>2026-04-25T13:22:57.339Z</time></trkpt><trkpt lat="45.5883383" lon="11.0271759"><ele>692.1999999999999</ele><time>2026-04-25T13:22:58.339Z</time></trkpt><trkpt lat="45.5883465" lon="11.0270323"><ele>691.0</ele><time>2026-04-25T13:22:59.339Z</time></trkpt><trkpt lat="45.5883613" lon="11.0268927"><ele>691.0</ele><time>2026-04-25T13:23:00.339Z</time></trkpt><trkpt lat="45.588369" lon="11.0267523"><ele>691.0</ele><time>2026-04-25T13:23:01.34Z</time></trkpt><trkpt lat="45.5883642" lon="11.0266071"><ele>691.0</ele><time>2026-04-25T13:23:02.341Z</time></trkpt><trkpt lat="45.5883571" lon="11.0264602"><ele>691.0</ele><time>2026-04-25T13:23:03.341Z</time></trkpt><trkpt lat="45.5883455" lon="11.0263248"><ele>691.0</ele><time>2026-04-25T13:23:04.341Z</time></trkpt><trkpt lat="45.58833" lon="11.026202"><ele>689.8</ele><time>2026-04-25T13:23:05.34Z</time></trkpt><trkpt lat="45.5883102" lon="11.0260931"><ele>688.5999999999999</ele><time>2026-04-25T13:23:06.34Z</time></trkpt><trkpt lat="45.5883086" lon="11.0259768"><ele>687.4</ele><time>2026-04-25T13:23:08.34Z</time></trkpt><trkpt lat="45.5883899" lon="11.0259546"><ele>686.2</ele><time>2026-04-25T13:23:10.341Z</time></trkpt><trkpt lat="45.5884639" lon="11.0259834"><ele>685.0</ele><time>2026-04-25T13:23:11.341Z</time></trkpt><trkpt lat="45.5885908" lon="11.0260464"><ele>683.75</ele><time>2026-04-25T13:23:12.34Z</time></trkpt><trkpt lat="45.5887183" lon="11.0261096"><ele>682.5</ele><time>2026-04-25T13:23:13.341Z</time></trkpt><trkpt lat="45.5888485" lon="11.0261735"><ele>681.25</ele><time>2026-04-25T13:23:14.34Z</time></trkpt><trkpt lat="45.5889813" lon="11.0262478"><ele>680.0</ele><time>2026-04-25T13:23:15.34Z</time></trkpt><trkpt lat="45.5891062" lon="11.0263376"><ele>680.0</ele><time>2026-04-25T13:23:16.34Z</time></trkpt><trkpt lat="45.5892174" lon="11.0264312"><ele>680.0</ele><time>2026-04-25T13:23:17.341Z</time></trkpt><trkpt lat="45.589314" lon="11.0265244"><ele>680.0</ele><time>2026-04-25T13:23:18.34Z</time></trkpt><trkpt lat="45.5894068" lon="11.0265991"><ele>680.0</ele><time>2026-04-25T13:23:19.34Z</time></trkpt><trkpt lat="45.5894931" lon="11.026645"><ele>680.0</ele><time>2026-04-25T13:23:20.34Z</time></trkpt><trkpt lat="45.5895672" lon="11.0266405"><ele>680.0</ele><time>2026-04-25T13:23:21.34Z</time></trkpt><trkpt lat="45.5896189" lon="11.0265832"><ele>680.0</ele><time>2026-04-25T13:23:22.34Z</time></trkpt><trkpt lat="45.5896429" lon="11.0264681"><ele>680.0</ele><time>2026-04-25T13:23:23.34Z</time></trkpt><trkpt lat="45.5896354" lon="11.0263297"><ele>680.0</ele><time>2026-04-25T13:23:24.34Z</time></trkpt><trkpt lat="45.5895705" lon="11.0261691"><ele>680.0</ele><time>2026-04-25T13:23:25.34Z</time></trkpt><trkpt lat="45.5894923" lon="11.0260274"><ele>680.0</ele><time>2026-04-25T13:23:26.341Z</time></trkpt><trkpt lat="45.5893809" lon="11.0258847"><ele>680.0</ele><time>2026-04-25T13:23:27.34Z</time></trkpt><trkpt lat="45.589249" lon="11.0257269"><ele>680.0</ele><time>2026-04-25T13:23:28.34Z</time></trkpt><trkpt lat="45.5891156" lon="11.0255563"><ele>680.3333333333333</ele><time>2026-04-25T13:23:29.341Z</time></trkpt><trkpt lat="45.5889852" lon="11.025367"><ele>680.6666666666666</ele><time>2026-04-25T13:23:30.34Z</time></trkpt><trkpt lat="45.5888892" lon="11.0251979"><ele>681.0</ele><time>2026-04-25T13:23:31.341Z</time></trkpt><trkpt lat="45.5888076" lon="11.0250209"><ele>683.3333333333334</ele><time>2026-04-25T13:23:32.34Z</time></trkpt><trkpt lat="45.5887328" lon="11.0248309"><ele>685.6666666666667</ele><time>2026-04-25T13:23:33.34Z</time></trkpt><trkpt lat="45.58867" lon="11.0246183"><ele>688.0</ele><time>2026-04-25T13:23:34.341Z</time></trkpt><trkpt lat="45.5886169" lon="11.0243999"><ele>683.3333333333334</ele><time>2026-04-25T13:23:35.341Z</time></trkpt><trkpt lat="45.5885608" lon="11.0241755"><ele>678.6666666666666</ele><time>2026-04-25T13:23:36.34Z</time></trkpt><trkpt lat="45.5884916" lon="11.0239541"><ele>674.0</ele><time>2026-04-25T13:23:37.341Z</time></trkpt><trkpt lat="45.5884168" lon="11.0237443"><ele>674.0</ele><time>2026-04-25T13:23:38.341Z</time></trkpt><trkpt lat="45.5883406" lon="11.0235436"><ele>674.0</ele><time>2026-04-25T13:23:39.34Z</time></trkpt><trkpt lat="45.5882701" lon="11.0233524"><ele>674.0</ele><time>2026-04-25T13:23:40.341Z</time></trkpt><trkpt lat="45.5882041" lon="11.0231692"><ele>674.0</ele><time>2026-04-25T13:23:41.34Z</time></trkpt><trkpt lat="45.5881423" lon="11.0229882"><ele>674.0</ele><time>2026-04-25T13:23:42.34Z</time></trkpt><trkpt lat="45.5880802" lon="11.0227993"><ele>674.0</ele><time>2026-04-25T13:23:43.341Z</time></trkpt><trkpt lat="45.5880167" lon="11.0226021"><ele>674.0</ele><time>2026-04-25T13:23:44.34Z</time></trkpt><trkpt lat="45.5879589" lon="11.0223992"><ele>674.0</ele><time>2026-04-25T13:23:45.34Z</time></trkpt><trkpt lat="45.5879124" lon="11.022185"><ele>674.0</ele><time>2026-04-25T13:23:46.34Z</time></trkpt><trkpt lat="45.5878796" lon="11.021953"><ele>674.0</ele><time>2026-04-25T13:23:47.341Z</time></trkpt><trkpt lat="45.5878541" lon="11.0217158"><ele>669.6666666666666</ele><time>2026-04-25T13:23:48.341Z</time></trkpt><trkpt lat="45.5878297" lon="11.0214774"><ele>665.3333333333334</ele><time>2026-04-25T13:23:49.34Z</time></trkpt><trkpt lat="45.5878052" lon="11.0212357"><ele>661.0</ele><time>2026-04-25T13:23:50.341Z</time></trkpt><trkpt lat="45.587781" lon="11.0209925"><ele>660.6666666666667</ele><time>2026-04-25T13:23:51.34Z</time></trkpt><trkpt lat="45.5877579" lon="11.0207507"><ele>660.3333333333334</ele><time>2026-04-25T13:23:52.34Z</time></trkpt><trkpt lat="45.5877411" lon="11.0205179"><ele>660.0</ele><time>2026-04-25T13:23:53.34Z</time></trkpt><trkpt lat="45.587739" lon="11.0202878"><ele>660.0</ele><time>2026-04-25T13:23:54.34Z</time></trkpt><trkpt lat="45.5877482" lon="11.0200567"><ele>660.0</ele><time>2026-04-25T13:23:55.341Z</time></trkpt><trkpt lat="45.5877582" lon="11.0198345"><ele>660.0</ele><time>2026-04-25T13:23:56.34Z</time></trkpt><trkpt lat="45.587758" lon="11.0196239"><ele>660.0</ele><time>2026-04-25T13:23:57.34Z</time></trkpt><trkpt lat="45.5877542" lon="11.0194268"><ele>660.0</ele><time>2026-04-25T13:23:58.341Z</time></trkpt><trkpt lat="45.5877485" lon="11.0192441"><ele>660.0</ele><time>2026-04-25T13:23:59.341Z</time></trkpt><trkpt lat="45.5877364" lon="11.0190764"><ele>660.0</ele><time>2026-04-25T13:24:00.34Z</time></trkpt><trkpt lat="45.5877204" lon="11.0189256"><ele>659.6</ele><time>2026-04-25T13:24:01.34Z</time></trkpt><trkpt lat="45.5877111" lon="11.018787"><ele>659.2</ele><time>2026-04-25T13:24:02.34Z</time></trkpt><trkpt lat="45.5877235" lon="11.0186729"><ele>658.8</ele><time>2026-04-25T13:24:03.341Z</time></trkpt><trkpt lat="45.5877397" lon="11.0185491"><ele>658.4</ele><time>2026-04-25T13:24:04.341Z</time></trkpt><trkpt lat="45.587774" lon="11.0184255"><ele>658.0</ele><time>2026-04-25T13:24:05.34Z</time></trkpt><trkpt lat="45.5878212" lon="11.0183118"><ele>658.6666666666667</ele><time>2026-04-25T13:24:06.34Z</time></trkpt><trkpt lat="45.5878831" lon="11.0182225"><ele>659.3333333333334</ele><time>2026-04-25T13:24:07.342Z</time></trkpt><trkpt lat="45.5879569" lon="11.0181638"><ele>660.0</ele><time>2026-04-25T13:24:08.341Z</time></trkpt><trkpt lat="45.5880374" lon="11.0181074"><ele>660.6666666666666</ele><time>2026-04-25T13:24:09.342Z</time></trkpt><trkpt lat="45.5881022" lon="11.0180498"><ele>661.3333333333333</ele><time>2026-04-25T13:24:10.341Z</time></trkpt><trkpt lat="45.5881665" lon="11.0179843"><ele>662.0</ele><time>2026-04-25T13:24:12.342Z</time></trkpt><trkpt lat="45.5881731" lon="11.0178684"><ele>662.0</ele><time>2026-04-25T13:24:15.341Z</time></trkpt><trkpt lat="45.588175" lon="11.0177417"><ele>662.0</ele><time>2026-04-25T13:24:16.341Z</time></trkpt><trkpt lat="45.5881483" lon="11.017606"><ele>662.0</ele><time>2026-04-25T13:24:17.341Z</time></trkpt><trkpt lat="45.5881017" lon="11.0174456"><ele>662.0</ele><time>2026-04-25T13:24:18.341Z</time></trkpt><trkpt lat="45.5880493" lon="11.0173038"><ele>662.0</ele><time>2026-04-25T13:24:19.341Z</time></trkpt><trkpt lat="45.5880015" lon="11.01715"><ele>661.0</ele><time>2026-04-25T13:24:20.341Z</time></trkpt><trkpt lat="45.5879812" lon="11.0169758"><ele>660.0</ele><time>2026-04-25T13:24:21.342Z</time></trkpt><trkpt lat="45.5879872" lon="11.016805"><ele>659.0</ele><time>2026-04-25T13:24:22.341Z</time></trkpt><trkpt lat="45.5880129" lon="11.0166539"><ele>658.0</ele><time>2026-04-25T13:24:23.341Z</time></trkpt><trkpt lat="45.588054" lon="11.0165025"><ele>656.0</ele><time>2026-04-25T13:24:24.341Z</time></trkpt><trkpt lat="45.5881136" lon="11.0163467"><ele>654.0</ele><time>2026-04-25T13:24:25.342Z</time></trkpt><trkpt lat="45.5881836" lon="11.0161934"><ele>652.0</ele><time>2026-04-25T13:24:26.342Z</time></trkpt><trkpt lat="45.588259" lon="11.0160329"><ele>650.0</ele><time>2026-04-25T13:24:27.342Z</time></trkpt><trkpt lat="45.5883392" lon="11.0158755"><ele>649.25</ele><time>2026-04-25T13:24:28.341Z</time></trkpt><trkpt lat="45.5884172" lon="11.0157294"><ele>648.5</ele><time>2026-04-25T13:24:29.342Z</time></trkpt><trkpt lat="45.5884879" lon="11.0155805"><ele>647.75</ele><time>2026-04-25T13:24:30.341Z</time></trkpt><trkpt lat="45.5885537" lon="11.0154396"><ele>647.0</ele><time>2026-04-25T13:24:31.342Z</time></trkpt><trkpt lat="45.5886143" lon="11.015312"><ele>647.0</ele><time>2026-04-25T13:24:32.341Z</time></trkpt><trkpt lat="45.5886742" lon="11.0151946"><ele>647.0</ele><time>2026-04-25T13:24:33.342Z</time></trkpt><trkpt lat="45.5887266" lon="11.015083"><ele>647.0</ele><time>2026-04-25T13:24:34.341Z</time></trkpt><trkpt lat="45.5887748" lon="11.0149675"><ele>647.0</ele><time>2026-04-25T13:24:35.341Z</time></trkpt><trkpt lat="45.5888261" lon="11.0148463"><ele>647.0</ele><time>2026-04-25T13:24:36.341Z</time></trkpt><trkpt lat="45.5888864" lon="11.0147395"><ele>646.4000000000001</ele><time>2026-04-25T13:24:37.341Z</time></trkpt><trkpt lat="45.5889541" lon="11.0146555"><ele>645.8000000000001</ele><time>2026-04-25T13:24:38.341Z</time></trkpt><trkpt lat="45.5890278" lon="11.0145656"><ele>645.2</ele><time>2026-04-25T13:24:39.342Z</time></trkpt><trkpt lat="45.5891027" lon="11.0144718"><ele>644.6</ele><time>2026-04-25T13:24:40.341Z</time></trkpt><trkpt lat="45.5891874" lon="11.0143728"><ele>644.0</ele><time>2026-04-25T13:24:41.341Z</time></trkpt><trkpt lat="45.5892819" lon="11.0142794"><ele>644.0</ele><time>2026-04-25T13:24:42.341Z</time></trkpt><trkpt lat="45.5893882" lon="11.014192"><ele>644.0</ele><time>2026-04-25T13:24:43.341Z</time></trkpt><trkpt lat="45.5895168" lon="11.0140926"><ele>644.0</ele><time>2026-04-25T13:24:44.342Z</time></trkpt><trkpt lat="45.5896525" lon="11.013993"><ele>644.0</ele><time>2026-04-25T13:24:45.341Z</time></trkpt><trkpt lat="45.5898083" lon="11.0139081"><ele>644.5</ele><time>2026-04-25T13:24:46.341Z</time></trkpt><trkpt lat="45.5899287" lon="11.0137857"><ele>645.0</ele><time>2026-04-25T13:24:47.341Z</time></trkpt><trkpt lat="45.590038" lon="11.013651"><ele>645.5</ele><time>2026-04-25T13:24:48.341Z</time></trkpt><trkpt lat="45.5901494" lon="11.0135062"><ele>646.0</ele><time>2026-04-25T13:24:49.341Z</time></trkpt><trkpt lat="45.5902637" lon="11.013368"><ele>645.5</ele><time>2026-04-25T13:24:50.342Z</time></trkpt><trkpt lat="45.5903806" lon="11.0132275"><ele>645.0</ele><time>2026-04-25T13:24:51.342Z</time></trkpt><trkpt lat="45.5905106" lon="11.0131279"><ele>644.5</ele><time>2026-04-25T13:24:52.341Z</time></trkpt><trkpt lat="45.590609" lon="11.0130213"><ele>644.0</ele><time>2026-04-25T13:24:53.341Z</time></trkpt><trkpt lat="45.5907136" lon="11.0129262"><ele>644.0</ele><time>2026-04-25T13:24:54.342Z</time></trkpt><trkpt lat="45.5908259" lon="11.0128635"><ele>644.0</ele><time>2026-04-25T13:24:55.342Z</time></trkpt><trkpt lat="45.5909497" lon="11.012813"><ele>644.0</ele><time>2026-04-25T13:24:56.341Z</time></trkpt><trkpt lat="45.5910863" lon="11.012771"><ele>644.0</ele><time>2026-04-25T13:24:57.342Z</time></trkpt><trkpt lat="45.5911993" lon="11.0127049"><ele>643.5</ele><time>2026-04-25T13:24:58.341Z</time></trkpt><trkpt lat="45.5912791" lon="11.0125956"><ele>643.0</ele><time>2026-04-25T13:24:59.342Z</time></trkpt><trkpt lat="45.5913448" lon="11.0124524"><ele>642.5</ele><time>2026-04-25T13:25:00.341Z</time></trkpt><trkpt lat="45.5914084" lon="11.0122643"><ele>642.0</ele><time>2026-04-25T13:25:01.341Z</time></trkpt><trkpt lat="45.5914837" lon="11.0120594"><ele>642.0</ele><time>2026-04-25T13:25:02.341Z</time></trkpt><trkpt lat="45.591569" lon="11.0118519"><ele>642.0</ele><time>2026-04-25T13:25:03.342Z</time></trkpt><trkpt lat="45.5916627" lon="11.0116397"><ele>642.0</ele><time>2026-04-25T13:25:04.341Z</time></trkpt><trkpt lat="45.5917675" lon="11.011428"><ele>640.6666666666666</ele><time>2026-04-25T13:25:05.341Z</time></trkpt><trkpt lat="45.5918735" lon="11.0112197"><ele>639.3333333333333</ele><time>2026-04-25T13:25:06.341Z</time></trkpt><trkpt lat="45.5919734" lon="11.011019"><ele>638.0</ele><time>2026-04-25T13:25:07.341Z</time></trkpt><trkpt lat="45.5920679" lon="11.0108333"><ele>637.5</ele><time>2026-04-25T13:25:08.341Z</time></trkpt><trkpt lat="45.5921504" lon="11.0106648"><ele>637.0</ele><time>2026-04-25T13:25:09.341Z</time></trkpt><trkpt lat="45.5922281" lon="11.0104938"><ele>636.5</ele><time>2026-04-25T13:25:10.341Z</time></trkpt><trkpt lat="45.5922916" lon="11.0103149"><ele>636.0</ele><time>2026-04-25T13:25:11.342Z</time></trkpt><trkpt lat="45.5923383" lon="11.010119"><ele>635.5</ele><time>2026-04-25T13:25:12.342Z</time></trkpt><trkpt lat="45.5923737" lon="11.0099126"><ele>635.0</ele><time>2026-04-25T13:25:13.342Z</time></trkpt><trkpt lat="45.5924082" lon="11.0097139"><ele>634.5</ele><time>2026-04-25T13:25:14.343Z</time></trkpt><trkpt lat="45.5924415" lon="11.0095399"><ele>634.0</ele><time>2026-04-25T13:25:15.342Z</time></trkpt><trkpt lat="45.5924692" lon="11.0093933"><ele>634.0</ele><time>2026-04-25T13:25:16.343Z</time></trkpt><trkpt lat="45.5924661" lon="11.0092552"><ele>634.0</ele><time>2026-04-25T13:25:17.342Z</time></trkpt><trkpt lat="45.5924247" lon="11.0091157"><ele>634.0</ele><time>2026-04-25T13:25:18.343Z</time></trkpt><trkpt lat="45.5923447" lon="11.0089696"><ele>634.0</ele><time>2026-04-25T13:25:19.342Z</time></trkpt><trkpt lat="45.592272" lon="11.0088171"><ele>634.3333333333334</ele><time>2026-04-25T13:25:20.342Z</time></trkpt><trkpt lat="45.5922081" lon="11.0086267"><ele>634.6666666666666</ele><time>2026-04-25T13:25:21.342Z</time></trkpt><trkpt lat="45.5921876" lon="11.0084283"><ele>635.0</ele><time>2026-04-25T13:25:22.343Z</time></trkpt><trkpt lat="45.5922224" lon="11.0081795"><ele>631.6666666666666</ele><time>2026-04-25T13:25:23.342Z</time></trkpt><trkpt lat="45.592274" lon="11.0079278"><ele>628.3333333333334</ele><time>2026-04-25T13:25:24.342Z</time></trkpt><trkpt lat="45.5923445" lon="11.0076902"><ele>625.0</ele><time>2026-04-25T13:25:25.343Z</time></trkpt><trkpt lat="45.5924192" lon="11.0074658"><ele>621.5</ele><time>2026-04-25T13:25:26.342Z</time></trkpt><trkpt lat="45.5924864" lon="11.0072528"><ele>618.0</ele><time>2026-04-25T13:25:27.342Z</time></trkpt><trkpt lat="45.5925429" lon="11.0070596"><ele>614.5</ele><time>2026-04-25T13:25:28.342Z</time></trkpt><trkpt lat="45.592594" lon="11.006879"><ele>611.0</ele><time>2026-04-25T13:25:29.343Z</time></trkpt><trkpt lat="45.5926325" lon="11.0067136"><ele>609.3333333333333</ele><time>2026-04-25T13:25:30.342Z</time></trkpt><trkpt lat="45.5926517" lon="11.0065559"><ele>607.6666666666666</ele><time>2026-04-25T13:25:31.342Z</time></trkpt><trkpt lat="45.5926557" lon="11.0064243"><ele>606.0</ele><time>2026-04-25T13:25:32.342Z</time></trkpt><trkpt lat="45.5926769" lon="11.0063373"><ele>604.3333333333334</ele><time>2026-04-25T13:25:33.342Z</time></trkpt><trkpt lat="45.592726" lon="11.0062651"><ele>602.6666666666667</ele><time>2026-04-25T13:25:34.343Z</time></trkpt><trkpt lat="45.5928128" lon="11.0062066"><ele>601.0</ele><time>2026-04-25T13:25:35.343Z</time></trkpt><trkpt lat="45.592929" lon="11.0061858"><ele>601.0</ele><time>2026-04-25T13:25:36.342Z</time></trkpt><trkpt lat="45.5930518" lon="11.0061791"><ele>601.0</ele><time>2026-04-25T13:25:37.343Z</time></trkpt><trkpt lat="45.593195" lon="11.0061627"><ele>601.0</ele><time>2026-04-25T13:25:38.342Z</time></trkpt><trkpt lat="45.5933512" lon="11.006136"><ele>601.0</ele><time>2026-04-25T13:25:39.342Z</time></trkpt><trkpt lat="45.5934944" lon="11.0061057"><ele>601.0</ele><time>2026-04-25T13:25:40.343Z</time></trkpt><trkpt lat="45.5936198" lon="11.0060742"><ele>601.0</ele><time>2026-04-25T13:25:41.342Z</time></trkpt><trkpt lat="45.593738" lon="11.0060245"><ele>601.0</ele><time>2026-04-25T13:25:42.343Z</time></trkpt><trkpt lat="45.593866" lon="11.0059372"><ele>601.0</ele><time>2026-04-25T13:25:43.343Z</time></trkpt><trkpt lat="45.5939958" lon="11.0058196"><ele>599.25</ele><time>2026-04-25T13:25:44.342Z</time></trkpt><trkpt lat="45.5941257" lon="11.0057063"><ele>597.5</ele><time>2026-04-25T13:25:45.343Z</time></trkpt><trkpt lat="45.5942545" lon="11.0056149"><ele>595.75</ele><time>2026-04-25T13:25:46.342Z</time></trkpt><trkpt lat="45.5943982" lon="11.0055403"><ele>594.0</ele><time>2026-04-25T13:25:47.342Z</time></trkpt><trkpt lat="45.5945362" lon="11.0054991"><ele>594.0</ele><time>2026-04-25T13:25:48.342Z</time></trkpt><trkpt lat="45.5946701" lon="11.0054658"><ele>594.0</ele><time>2026-04-25T13:25:49.342Z</time></trkpt><trkpt lat="45.5947928" lon="11.0054511"><ele>594.0</ele><time>2026-04-25T13:25:50.342Z</time></trkpt><trkpt lat="45.5948902" lon="11.0054334"><ele>594.0</ele><time>2026-04-25T13:25:51.343Z</time></trkpt><trkpt lat="45.5949659" lon="11.0053977"><ele>594.0</ele><time>2026-04-25T13:25:52.343Z</time></trkpt><trkpt lat="45.5950239" lon="11.0053356"><ele>594.0</ele><time>2026-04-25T13:25:53.343Z</time></trkpt><trkpt lat="45.5950689" lon="11.0052335"><ele>594.0</ele><time>2026-04-25T13:25:54.343Z</time></trkpt><trkpt lat="45.5951097" lon="11.0051045"><ele>594.0</ele><time>2026-04-25T13:25:55.343Z</time></trkpt><trkpt lat="45.5951532" lon="11.0049768"><ele>594.0</ele><time>2026-04-25T13:25:56.342Z</time></trkpt><trkpt lat="45.5952331" lon="11.0048627"><ele>594.0</ele><time>2026-04-25T13:25:57.343Z</time></trkpt><trkpt lat="45.5953204" lon="11.0047434"><ele>593.6</ele><time>2026-04-25T13:25:58.342Z</time></trkpt><trkpt lat="45.5954028" lon="11.004628"><ele>593.2</ele><time>2026-04-25T13:25:59.343Z</time></trkpt><trkpt lat="45.5954541" lon="11.0045022"><ele>592.8000000000001</ele><time>2026-04-25T13:26:00.342Z</time></trkpt><trkpt lat="45.5954747" lon="11.0043753"><ele>592.4</ele><time>2026-04-25T13:26:01.342Z</time></trkpt><trkpt lat="45.5954801" lon="11.0042484"><ele>592.0</ele><time>2026-04-25T13:26:02.343Z</time></trkpt><trkpt lat="45.5954935" lon="11.0041443"><ele>590.3333333333334</ele><time>2026-04-25T13:26:03.342Z</time></trkpt><trkpt lat="45.5955776" lon="11.0040436"><ele>588.6666666666667</ele><time>2026-04-25T13:26:05.342Z</time></trkpt><trkpt lat="45.5956447" lon="11.0040255"><ele>587.0</ele><time>2026-04-25T13:26:06.343Z</time></trkpt><trkpt lat="45.5957165" lon="11.0040166"><ele>585.3333333333334</ele><time>2026-04-25T13:26:07.342Z</time></trkpt><trkpt lat="45.5957927" lon="11.0039501"><ele>583.6666666666666</ele><time>2026-04-25T13:26:09.343Z</time></trkpt><trkpt lat="45.5957469" lon="11.0038523"><ele>582.0</ele><time>2026-04-25T13:26:11.342Z</time></trkpt><trkpt lat="45.5956759" lon="11.0038158"><ele>582.0</ele><time>2026-04-25T13:26:12.342Z</time></trkpt><trkpt lat="45.5955615" lon="11.0037843"><ele>582.0</ele><time>2026-04-25T13:26:13.343Z</time></trkpt><trkpt lat="45.5954454" lon="11.0037614"><ele>582.0</ele><time>2026-04-25T13:26:14.342Z</time></trkpt><trkpt lat="45.5953412" lon="11.0037344"><ele>582.0</ele><time>2026-04-25T13:26:15.343Z</time></trkpt><trkpt lat="45.5952328" lon="11.0037042"><ele>580.2</ele><time>2026-04-25T13:26:16.343Z</time></trkpt><trkpt lat="45.5951253" lon="11.0036702"><ele>578.4000000000001</ele><time>2026-04-25T13:26:17.344Z</time></trkpt><trkpt lat="45.5950225" lon="11.0036751"><ele>576.5999999999999</ele><time>2026-04-25T13:26:18.343Z</time></trkpt><trkpt lat="45.5949288" lon="11.0036894"><ele>574.8</ele><time>2026-04-25T13:26:19.344Z</time></trkpt><trkpt lat="45.5948542" lon="11.003736"><ele>573.0</ele><time>2026-04-25T13:26:20.343Z</time></trkpt><trkpt lat="45.594788" lon="11.0037895"><ele>573.0</ele><time>2026-04-25T13:26:21.343Z</time></trkpt><trkpt lat="45.5947236" lon="11.0038629"><ele>573.0</ele><time>2026-04-25T13:26:22.343Z</time></trkpt><trkpt lat="45.5946627" lon="11.0039428"><ele>573.0</ele><time>2026-04-25T13:26:23.343Z</time></trkpt><trkpt lat="45.5946026" lon="11.0040393"><ele>573.0</ele><time>2026-04-25T13:26:24.343Z</time></trkpt><trkpt lat="45.5945606" lon="11.0041552"><ele>573.0</ele><time>2026-04-25T13:26:25.343Z</time></trkpt><trkpt lat="45.5945146" lon="11.0042681"><ele>573.0</ele><time>2026-04-25T13:26:26.343Z</time></trkpt><trkpt lat="45.5944693" lon="11.0043718"><ele>573.6666666666666</ele><time>2026-04-25T13:26:27.343Z</time></trkpt><trkpt lat="45.5944212" lon="11.0044517"><ele>574.3333333333334</ele><time>2026-04-25T13:26:28.343Z</time></trkpt><trkpt lat="45.5943664" lon="11.0044963"><ele>575.0</ele><time>2026-04-25T13:26:29.343Z</time></trkpt><trkpt lat="45.5942704" lon="11.0044183"><ele>575.6666666666667</ele><time>2026-04-25T13:26:31.343Z</time></trkpt><trkpt lat="45.5942041" lon="11.0043363"><ele>576.3333333333334</ele><time>2026-04-25T13:26:32.343Z</time></trkpt><trkpt lat="45.594144" lon="11.0042248"><ele>577.0</ele><time>2026-04-25T13:26:33.344Z</time></trkpt><trkpt lat="45.594076" lon="11.0040923"><ele>574.8000000000001</ele><time>2026-04-25T13:26:34.343Z</time></trkpt><trkpt lat="45.5940356" lon="11.0039622"><ele>572.6</ele><time>2026-04-25T13:26:35.343Z</time></trkpt><trkpt lat="45.5940183" lon="11.0038119"><ele>570.4000000000001</ele><time>2026-04-25T13:26:36.344Z</time></trkpt><trkpt lat="45.5940284" lon="11.0036656"><ele>568.2</ele><time>2026-04-25T13:26:37.343Z</time></trkpt><trkpt lat="45.5940554" lon="11.0035086"><ele>566.0</ele><time>2026-04-25T13:26:38.343Z</time></trkpt><trkpt lat="45.5941089" lon="11.0033746"><ele>563.5</ele><time>2026-04-25T13:26:39.343Z</time></trkpt><trkpt lat="45.5941664" lon="11.0032402"><ele>561.0</ele><time>2026-04-25T13:26:40.344Z</time></trkpt><trkpt lat="45.5942409" lon="11.0031042"><ele>558.5</ele><time>2026-04-25T13:26:41.343Z</time></trkpt><trkpt lat="45.5943213" lon="11.0029739"><ele>556.0</ele><time>2026-04-25T13:26:42.344Z</time></trkpt><trkpt lat="45.594402" lon="11.0028677"><ele>556.0</ele><time>2026-04-25T13:26:43.343Z</time></trkpt><trkpt lat="45.5944855" lon="11.0027827"><ele>556.0</ele><time>2026-04-25T13:26:44.343Z</time></trkpt><trkpt lat="45.5945782" lon="11.0027064"><ele>556.0</ele><time>2026-04-25T13:26:45.343Z</time></trkpt><trkpt lat="45.5946835" lon="11.0026285"><ele>556.0</ele><time>2026-04-25T13:26:46.343Z</time></trkpt><trkpt lat="45.594795" lon="11.0025526"><ele>554.8</ele><time>2026-04-25T13:26:47.343Z</time></trkpt><trkpt lat="45.5948949" lon="11.0024902"><ele>553.6</ele><time>2026-04-25T13:26:48.344Z</time></trkpt><trkpt lat="45.5949812" lon="11.0024402"><ele>552.4</ele><time>2026-04-25T13:26:49.344Z</time></trkpt><trkpt lat="45.5950679" lon="11.0023545"><ele>551.2</ele><time>2026-04-25T13:26:51.343Z</time></trkpt><trkpt lat="45.595042" lon="11.0021583"><ele>550.0</ele><time>2026-04-25T13:26:53.344Z</time></trkpt><trkpt lat="45.5949977" lon="11.00202"><ele>550.0</ele><time>2026-04-25T13:26:54.343Z</time></trkpt><trkpt lat="45.5949678" lon="11.0018696"><ele>550.0</ele><time>2026-04-25T13:26:55.343Z</time></trkpt><trkpt lat="45.5949619" lon="11.0017277"><ele>550.0</ele><time>2026-04-25T13:26:56.343Z</time></trkpt><trkpt lat="45.5949619" lon="11.0015915"><ele>550.0</ele><time>2026-04-25T13:26:57.343Z</time></trkpt><trkpt lat="45.594946" lon="11.0014694"><ele>550.0</ele><time>2026-04-25T13:26:58.343Z</time></trkpt><trkpt lat="45.5949098" lon="11.0013774"><ele>546.6</ele><time>2026-04-25T13:26:59.343Z</time></trkpt><trkpt lat="45.5948492" lon="11.0013336"><ele>543.2</ele><time>2026-04-25T13:27:00.343Z</time></trkpt><trkpt lat="45.5947754" lon="11.0013231"><ele>539.8</ele><time>2026-04-25T13:27:01.343Z</time></trkpt><trkpt lat="45.5946678" lon="11.0013453"><ele>536.4</ele><time>2026-04-25T13:27:02.343Z</time></trkpt><trkpt lat="45.594541" lon="11.0013597"><ele>533.0</ele><time>2026-04-25T13:27:03.344Z</time></trkpt><trkpt lat="45.5943994" lon="11.0013497"><ele>532.25</ele><time>2026-04-25T13:27:04.343Z</time></trkpt><trkpt lat="45.5942563" lon="11.0013115"><ele>531.5</ele><time>2026-04-25T13:27:05.344Z</time></trkpt><trkpt lat="45.5941373" lon="11.0012845"><ele>530.75</ele><time>2026-04-25T13:27:06.343Z</time></trkpt><trkpt lat="45.5940256" lon="11.0012816"><ele>530.0</ele><time>2026-04-25T13:27:07.344Z</time></trkpt><trkpt lat="45.5939194" lon="11.0013016"><ele>530.0</ele><time>2026-04-25T13:27:08.343Z</time></trkpt><trkpt lat="45.5938166" lon="11.0013212"><ele>530.0</ele><time>2026-04-25T13:27:09.343Z</time></trkpt><trkpt lat="45.5937164" lon="11.0013337"><ele>530.0</ele><time>2026-04-25T13:27:10.344Z</time></trkpt><trkpt lat="45.5936116" lon="11.0013317"><ele>530.0</ele><time>2026-04-25T13:27:11.343Z</time></trkpt><trkpt lat="45.5935106" lon="11.0013234"><ele>530.0</ele><time>2026-04-25T13:27:12.343Z</time></trkpt><trkpt lat="45.5934117" lon="11.0013157"><ele>529.8</ele><time>2026-04-25T13:27:13.344Z</time></trkpt><trkpt lat="45.5933084" lon="11.0013137"><ele>529.6</ele><time>2026-04-25T13:27:14.344Z</time></trkpt><trkpt lat="45.5932028" lon="11.0013239"><ele>529.4</ele><time>2026-04-25T13:27:15.343Z</time></trkpt><trkpt lat="45.5930998" lon="11.0013483"><ele>529.2</ele><time>2026-04-25T13:27:16.343Z</time></trkpt><trkpt lat="45.5930003" lon="11.001398"><ele>529.0</ele><time>2026-04-25T13:27:17.343Z</time></trkpt><trkpt lat="45.5929114" lon="11.0014676"><ele>529.0</ele><time>2026-04-25T13:27:18.343Z</time></trkpt><trkpt lat="45.5928416" lon="11.0015621"><ele>529.0</ele><time>2026-04-25T13:27:19.344Z</time></trkpt><trkpt lat="45.5927932" lon="11.0016875"><ele>529.0</ele><time>2026-04-25T13:27:20.344Z</time></trkpt><trkpt lat="45.5927886" lon="11.0018346"><ele>529.0</ele><time>2026-04-25T13:27:21.345Z</time></trkpt><trkpt lat="45.5928065" lon="11.0019786"><ele>529.0</ele><time>2026-04-25T13:27:22.345Z</time></trkpt><trkpt lat="45.5928433" lon="11.0020937"><ele>528.8333333333334</ele><time>2026-04-25T13:27:23.345Z</time></trkpt><trkpt lat="45.5928874" lon="11.0021839"><ele>528.6666666666667</ele><time>2026-04-25T13:27:24.345Z</time></trkpt><trkpt lat="45.5929067" lon="11.0022893"><ele>528.5</ele><time>2026-04-25T13:27:26.344Z</time></trkpt><trkpt lat="45.5928392" lon="11.0022742"><ele>528.3333333333334</ele><time>2026-04-25T13:27:28.344Z</time></trkpt><trkpt lat="45.592802" lon="11.002187"><ele>528.1666666666666</ele><time>2026-04-25T13:27:29.345Z</time></trkpt><trkpt lat="45.5927701" lon="11.0020268"><ele>528.0</ele><time>2026-04-25T13:27:30.345Z</time></trkpt><trkpt lat="45.5927513" lon="11.0018325"><ele>526.75</ele><time>2026-04-25T13:27:31.345Z</time></trkpt><trkpt lat="45.5927156" lon="11.0016421"><ele>525.5</ele><time>2026-04-25T13:27:32.345Z</time></trkpt><trkpt lat="45.5926726" lon="11.00148"><ele>524.25</ele><time>2026-04-25T13:27:33.344Z</time></trkpt><trkpt lat="45.5926107" lon="11.0013293"><ele>523.0</ele><time>2026-04-25T13:27:34.344Z</time></trkpt><trkpt lat="45.5925436" lon="11.0011739"><ele>523.0</ele><time>2026-04-25T13:27:35.344Z</time></trkpt><trkpt lat="45.5924754" lon="11.0010226"><ele>523.0</ele><time>2026-04-25T13:27:36.345Z</time></trkpt><trkpt lat="45.5924188" lon="11.0008531"><ele>523.0</ele><time>2026-04-25T13:27:37.344Z</time></trkpt><trkpt lat="45.5923878" lon="11.000686"><ele>523.0</ele><time>2026-04-25T13:27:38.344Z</time></trkpt><trkpt lat="45.5923566" lon="11.000514"><ele>521.4</ele><time>2026-04-25T13:27:39.344Z</time></trkpt><trkpt lat="45.5923231" lon="11.0003639"><ele>519.8</ele><time>2026-04-25T13:27:40.345Z</time></trkpt><trkpt lat="45.592285" lon="11.0002248"><ele>518.2</ele><time>2026-04-25T13:27:41.344Z</time></trkpt><trkpt lat="45.5922439" lon="11.0000928"><ele>516.6</ele><time>2026-04-25T13:27:42.345Z</time></trkpt><trkpt lat="45.5922106" lon="10.9999707"><ele>515.0</ele><time>2026-04-25T13:27:43.345Z</time></trkpt><trkpt lat="45.592198" lon="10.9998679"><ele>515.0</ele><time>2026-04-25T13:27:44.344Z</time></trkpt><trkpt lat="45.5922255" lon="10.9997841"><ele>515.0</ele><time>2026-04-25T13:27:45.344Z</time></trkpt><trkpt lat="45.5922771" lon="10.9997002"><ele>515.0</ele><time>2026-04-25T13:27:46.345Z</time></trkpt><trkpt lat="45.5923608" lon="10.9996423"><ele>515.0</ele><time>2026-04-25T13:27:47.344Z</time></trkpt><trkpt lat="45.5924518" lon="10.9995911"><ele>515.0</ele><time>2026-04-25T13:27:48.344Z</time></trkpt><trkpt lat="45.5925291" lon="10.9995403"><ele>515.0</ele><time>2026-04-25T13:27:49.344Z</time></trkpt><trkpt lat="45.5925998" lon="10.9994765"><ele>515.0</ele><time>2026-04-25T13:27:50.344Z</time></trkpt><trkpt lat="45.5926596" lon="10.9994021"><ele>515.0</ele><time>2026-04-25T13:27:51.345Z</time></trkpt><trkpt lat="45.5927132" lon="10.9993283"><ele>515.0</ele><time>2026-04-25T13:27:52.344Z</time></trkpt><trkpt lat="45.592757" lon="10.9992568"><ele>515.0</ele><time>2026-04-25T13:27:53.344Z</time></trkpt><trkpt lat="45.5928011" lon="10.9991818"><ele>515.0</ele><time>2026-04-25T13:27:54.345Z</time></trkpt><trkpt lat="45.5928351" lon="10.9991033"><ele>515.0</ele><time>2026-04-25T13:27:55.344Z</time></trkpt><trkpt lat="45.5928693" lon="10.9989263"><ele>513.75</ele><time>2026-04-25T13:27:57.344Z</time></trkpt><trkpt lat="45.5928478" lon="10.9988047"><ele>512.5</ele><time>2026-04-25T13:27:58.344Z</time></trkpt><trkpt lat="45.5927916" lon="10.9986649"><ele>511.25</ele><time>2026-04-25T13:27:59.344Z</time></trkpt><trkpt lat="45.5927005" lon="10.9985131"><ele>510.0</ele><time>2026-04-25T13:28:00.345Z</time></trkpt><trkpt lat="45.5926175" lon="10.998369"><ele>509.0</ele><time>2026-04-25T13:28:01.344Z</time></trkpt><trkpt lat="45.5925578" lon="10.9982429"><ele>508.0</ele><time>2026-04-25T13:28:02.344Z</time></trkpt><trkpt lat="45.5925257" lon="10.9981189"><ele>507.0</ele><time>2026-04-25T13:28:03.344Z</time></trkpt><trkpt lat="45.5925385" lon="10.9979973"><ele>506.0</ele><time>2026-04-25T13:28:04.345Z</time></trkpt><trkpt lat="45.5925734" lon="10.9978436"><ele>505.0</ele><time>2026-04-25T13:28:05.344Z</time></trkpt><trkpt lat="45.5926177" lon="10.9976909"><ele>505.0</ele><time>2026-04-25T13:28:06.344Z</time></trkpt><trkpt lat="45.5926645" lon="10.9975379"><ele>505.0</ele><time>2026-04-25T13:28:07.345Z</time></trkpt><trkpt lat="45.5927168" lon="10.9974088"><ele>505.0</ele><time>2026-04-25T13:28:08.344Z</time></trkpt><trkpt lat="45.5927811" lon="10.9973181"><ele>505.0</ele><time>2026-04-25T13:28:09.344Z</time></trkpt><trkpt lat="45.5928673" lon="10.9972736"><ele>505.0</ele><time>2026-04-25T13:28:10.344Z</time></trkpt><trkpt lat="45.5929841" lon="10.9972803"><ele>504.75</ele><time>2026-04-25T13:28:11.344Z</time></trkpt><trkpt lat="45.5930916" lon="10.9973155"><ele>504.5</ele><time>2026-04-25T13:28:12.344Z</time></trkpt><trkpt lat="45.5932118" lon="10.997386"><ele>504.25</ele><time>2026-04-25T13:28:13.344Z</time></trkpt><trkpt lat="45.5933272" lon="10.9974754"><ele>504.0</ele><time>2026-04-25T13:28:14.344Z</time></trkpt><trkpt lat="45.5934374" lon="10.9975633"><ele>504.0</ele><time>2026-04-25T13:28:15.344Z</time></trkpt><trkpt lat="45.5935467" lon="10.9976299"><ele>504.0</ele><time>2026-04-25T13:28:16.345Z</time></trkpt><trkpt lat="45.5936622" lon="10.9976664"><ele>504.0</ele><time>2026-04-25T13:28:17.345Z</time></trkpt><trkpt lat="45.5937853" lon="10.9976754"><ele>504.0</ele><time>2026-04-25T13:28:18.344Z</time></trkpt><trkpt lat="45.5939068" lon="10.9976591"><ele>503.25</ele><time>2026-04-25T13:28:19.344Z</time></trkpt><trkpt lat="45.5940289" lon="10.9976315"><ele>502.5</ele><time>2026-04-25T13:28:20.344Z</time></trkpt><trkpt lat="45.5941455" lon="10.9975897"><ele>501.75</ele><time>2026-04-25T13:28:21.344Z</time></trkpt><trkpt lat="45.5942606" lon="10.9975418"><ele>501.0</ele><time>2026-04-25T13:28:22.345Z</time></trkpt><trkpt lat="45.5943789" lon="10.9974983"><ele>499.20000000000005</ele><time>2026-04-25T13:28:23.345Z</time></trkpt><trkpt lat="45.594492" lon="10.9974719"><ele>497.40000000000003</ele><time>2026-04-25T13:28:24.345Z</time></trkpt><trkpt lat="45.5945849" lon="10.9974638"><ele>495.6</ele><time>2026-04-25T13:28:25.345Z</time></trkpt><trkpt lat="45.5946881" lon="10.9974302"><ele>493.8</ele><time>2026-04-25T13:28:27.345Z</time></trkpt><trkpt lat="45.5946483" lon="10.9972735"><ele>492.0</ele><time>2026-04-25T13:28:29.346Z</time></trkpt><trkpt lat="45.5945642" lon="10.9972099"><ele>492.0</ele><time>2026-04-25T13:28:30.345Z</time></trkpt><trkpt lat="45.5944314" lon="10.9971922"><ele>492.0</ele><time>2026-04-25T13:28:31.345Z</time></trkpt><trkpt lat="45.5942811" lon="10.997193"><ele>492.0</ele><time>2026-04-25T13:28:32.345Z</time></trkpt><trkpt lat="45.5941233" lon="10.9971486"><ele>492.0</ele><time>2026-04-25T13:28:33.345Z</time></trkpt><trkpt lat="45.5939709" lon="10.9970333"><ele>492.0</ele><time>2026-04-25T13:28:34.346Z</time></trkpt><trkpt lat="45.5938187" lon="10.99686"><ele>492.0</ele><time>2026-04-25T13:28:35.345Z</time></trkpt><trkpt lat="45.5936552" lon="10.9967205"><ele>492.0</ele><time>2026-04-25T13:28:36.346Z</time></trkpt><trkpt lat="45.59348" lon="10.9966054"><ele>488.66666666666663</ele><time>2026-04-25T13:28:37.346Z</time></trkpt><trkpt lat="45.5933089" lon="10.9965188"><ele>485.3333333333333</ele><time>2026-04-25T13:28:38.345Z</time></trkpt><trkpt lat="45.5931548" lon="10.9964157"><ele>482.0</ele><time>2026-04-25T13:28:39.346Z</time></trkpt><trkpt lat="45.5930235" lon="10.9962865"><ele>482.0</ele><time>2026-04-25T13:28:40.345Z</time></trkpt><trkpt lat="45.5929052" lon="10.9961707"><ele>482.0</ele><time>2026-04-25T13:28:41.345Z</time></trkpt><trkpt lat="45.5927864" lon="10.9960895"><ele>482.0</ele><time>2026-04-25T13:28:42.346Z</time></trkpt><trkpt lat="45.592654" lon="10.996057"><ele>482.0</ele><time>2026-04-25T13:28:43.345Z</time></trkpt><trkpt lat="45.5925062" lon="10.9960622"><ele>481.25</ele><time>2026-04-25T13:28:44.346Z</time></trkpt><trkpt lat="45.5923678" lon="10.9960836"><ele>480.5</ele><time>2026-04-25T13:28:45.345Z</time></trkpt><trkpt lat="45.5922412" lon="10.996124"><ele>479.75</ele><time>2026-04-25T13:28:46.345Z</time></trkpt><trkpt lat="45.5921257" lon="10.9961916"><ele>479.0</ele><time>2026-04-25T13:28:47.345Z</time></trkpt><trkpt lat="45.592022" lon="10.9962894"><ele>477.79999999999995</ele><time>2026-04-25T13:28:48.345Z</time></trkpt><trkpt lat="45.5919314" lon="10.9963894"><ele>476.59999999999997</ele><time>2026-04-25T13:28:49.345Z</time></trkpt><trkpt lat="45.5918667" lon="10.9964593"><ele>475.4</ele><time>2026-04-25T13:28:50.345Z</time></trkpt><trkpt lat="45.591794" lon="10.9964707"><ele>474.2</ele><time>2026-04-25T13:28:52.346Z</time></trkpt><trkpt lat="45.5917273" lon="10.9964118"><ele>473.0</ele><time>2026-04-25T13:28:54.345Z</time></trkpt><trkpt lat="45.59179" lon="10.9962948"><ele>473.0</ele><time>2026-04-25T13:28:56.345Z</time></trkpt><trkpt lat="45.5919111" lon="10.9961773"><ele>473.0</ele><time>2026-04-25T13:28:57.345Z</time></trkpt><trkpt lat="45.5920448" lon="10.9959995"><ele>473.0</ele><time>2026-04-25T13:28:58.346Z</time></trkpt><trkpt lat="45.5921621" lon="10.9958366"><ele>470.25</ele><time>2026-04-25T13:28:59.345Z</time></trkpt><trkpt lat="45.5922787" lon="10.9956774"><ele>467.5</ele><time>2026-04-25T13:29:00.345Z</time></trkpt><trkpt lat="45.592387" lon="10.995559"><ele>464.75</ele><time>2026-04-25T13:29:01.345Z</time></trkpt><trkpt lat="45.5924831" lon="10.9954703"><ele>462.0</ele><time>2026-04-25T13:29:02.345Z</time></trkpt><trkpt lat="45.5925699" lon="10.9954232"><ele>462.0</ele><time>2026-04-25T13:29:03.346Z</time></trkpt><trkpt lat="45.5926539" lon="10.9954129"><ele>462.00000000000006</ele><time>2026-04-25T13:29:04.345Z</time></trkpt><trkpt lat="45.5927577" lon="10.9953912"><ele>462.00000000000006</ele><time>2026-04-25T13:29:05.345Z</time></trkpt><trkpt lat="45.5928365" lon="10.9953677"><ele>462.0</ele><time>2026-04-25T13:29:06.345Z</time></trkpt><trkpt lat="45.5928933" lon="10.9952794"><ele>462.0</ele><time>2026-04-25T13:29:07.345Z</time></trkpt><trkpt lat="45.5929292" lon="10.9951448"><ele>459.25</ele><time>2026-04-25T13:29:08.346Z</time></trkpt><trkpt lat="45.5929836" lon="10.9949844"><ele>456.5</ele><time>2026-04-25T13:29:09.346Z</time></trkpt><trkpt lat="45.59302" lon="10.9948223"><ele>453.75</ele><time>2026-04-25T13:29:10.346Z</time></trkpt><trkpt lat="45.5930878" lon="10.9947061"><ele>451.0</ele><time>2026-04-25T13:29:11.345Z</time></trkpt><trkpt lat="45.593194" lon="10.9946229"><ele>451.0</ele><time>2026-04-25T13:29:12.346Z</time></trkpt><trkpt lat="45.5933603" lon="10.9946379"><ele>451.0</ele><time>2026-04-25T13:29:13.345Z</time></trkpt><trkpt lat="45.5935353" lon="10.9946291"><ele>451.0</ele><time>2026-04-25T13:29:14.345Z</time></trkpt><trkpt lat="45.5937066" lon="10.9945686"><ele>450.0</ele><time>2026-04-25T13:29:15.346Z</time></trkpt><trkpt lat="45.5938569" lon="10.9945091"><ele>449.0</ele><time>2026-04-25T13:29:16.345Z</time></trkpt><trkpt lat="45.5939772" lon="10.9944516"><ele>448.0</ele><time>2026-04-25T13:29:17.345Z</time></trkpt><trkpt lat="45.5940782" lon="10.9944031"><ele>447.0</ele><time>2026-04-25T13:29:18.346Z</time></trkpt><trkpt lat="45.5941566" lon="10.994372"><ele>447.0</ele><time>2026-04-25T13:29:19.346Z</time></trkpt><trkpt lat="45.5942824" lon="10.994409"><ele>447.00000000000006</ele><time>2026-04-25T13:29:21.345Z</time></trkpt><trkpt lat="45.5943412" lon="10.9944473"><ele>447.00000000000006</ele><time>2026-04-25T13:29:22.345Z</time></trkpt><trkpt lat="45.5943938" lon="10.9945061"><ele>447.0</ele><time>2026-04-25T13:29:23.345Z</time></trkpt><trkpt lat="45.5944464" lon="10.9946017"><ele>447.0</ele><time>2026-04-25T13:29:24.345Z</time></trkpt><trkpt lat="45.5945051" lon="10.9947366"><ele>442.66666666666663</ele><time>2026-04-25T13:29:25.345Z</time></trkpt><trkpt lat="45.5945969" lon="10.9950024"><ele>438.3333333333333</ele><time>2026-04-25T13:29:26.345Z</time></trkpt><trkpt lat="45.5947067" lon="10.9951367"><ele>434.0</ele><time>2026-04-25T13:29:27.345Z</time></trkpt><trkpt lat="45.594776" lon="10.9952455"><ele>434.0</ele><time>2026-04-25T13:29:28.345Z</time></trkpt><trkpt lat="45.5948037" lon="10.9953341"><ele>434.0</ele><time>2026-04-25T13:29:29.346Z</time></trkpt><trkpt lat="45.5948208" lon="10.9955434"><ele>434.0</ele><time>2026-04-25T13:29:30.346Z</time></trkpt><trkpt lat="45.5948961" lon="10.9956398"><ele>434.0</ele><time>2026-04-25T13:29:32.346Z</time></trkpt><trkpt lat="45.5949084" lon="10.9955119"><ele>434.0</ele><time>2026-04-25T13:29:34.346Z</time></trkpt><trkpt lat="45.5948468" lon="10.9954153"><ele>434.0</ele><time>2026-04-25T13:29:35.347Z</time></trkpt><trkpt lat="45.5947765" lon="10.9953122"><ele>434.0</ele><time>2026-04-25T13:29:36.347Z</time></trkpt><trkpt lat="45.5947193" lon="10.995173"><ele>434.0</ele><time>2026-04-25T13:29:37.346Z</time></trkpt><trkpt lat="45.5946681" lon="10.9950194"><ele>434.0</ele><time>2026-04-25T13:29:38.346Z</time></trkpt><trkpt lat="45.5946026" lon="10.9948541"><ele>436.6</ele><time>2026-04-25T13:29:39.346Z</time></trkpt><trkpt lat="45.5945326" lon="10.9947198"><ele>439.2</ele><time>2026-04-25T13:29:40.347Z</time></trkpt><trkpt lat="45.5944676" lon="10.9946135"><ele>441.80000000000007</ele><time>2026-04-25T13:29:41.347Z</time></trkpt><trkpt lat="45.5944188" lon="10.9945449"><ele>444.40000000000003</ele><time>2026-04-25T13:29:42.347Z</time></trkpt><trkpt lat="45.5944977" lon="10.9944668"><ele>447.0</ele><time>2026-04-25T13:29:45.346Z</time></trkpt><trkpt lat="45.594591" lon="10.9945931"><ele>444.40000000000003</ele><time>2026-04-25T13:29:47.346Z</time></trkpt><trkpt lat="45.5946619" lon="10.9947232"><ele>441.80000000000007</ele><time>2026-04-25T13:29:48.347Z</time></trkpt><trkpt lat="45.5947205" lon="10.9948641"><ele>439.2</ele><time>2026-04-25T13:29:49.347Z</time></trkpt><trkpt lat="45.5947761" lon="10.9949952"><ele>436.6</ele><time>2026-04-25T13:29:50.347Z</time></trkpt><trkpt lat="45.5948373" lon="10.9950993"><ele>434.0</ele><time>2026-04-25T13:29:51.347Z</time></trkpt><trkpt lat="45.5949486" lon="10.9953257"><ele>434.0</ele><time>2026-04-25T13:29:52.346Z</time></trkpt><trkpt lat="45.5950456" lon="10.9954788"><ele>434.0</ele><time>2026-04-25T13:29:53.346Z</time></trkpt><trkpt lat="45.5951472" lon="10.9956325"><ele>434.0</ele><time>2026-04-25T13:29:54.346Z</time></trkpt><trkpt lat="45.5952373" lon="10.9957758"><ele>434.0</ele><time>2026-04-25T13:29:55.346Z</time></trkpt><trkpt lat="45.5953188" lon="10.9959363"><ele>433.25</ele><time>2026-04-25T13:29:56.346Z</time></trkpt><trkpt lat="45.5953936" lon="10.9960849"><ele>432.5</ele><time>2026-04-25T13:29:57.346Z</time></trkpt><trkpt lat="45.5954718" lon="10.9962181"><ele>431.75</ele><time>2026-04-25T13:29:58.347Z</time></trkpt><trkpt lat="45.5955658" lon="10.9963251"><ele>431.0</ele><time>2026-04-25T13:29:59.346Z</time></trkpt><trkpt lat="45.5956659" lon="10.9964052"><ele>430.99999999999994</ele><time>2026-04-25T13:30:00.347Z</time></trkpt><trkpt lat="45.5957612" lon="10.9964475"><ele>431.0</ele><time>2026-04-25T13:30:01.346Z</time></trkpt><trkpt lat="45.5958445" lon="10.9964732"><ele>431.0</ele><time>2026-04-25T13:30:02.346Z</time></trkpt><trkpt lat="45.5959279" lon="10.9964708"><ele>431.0</ele><time>2026-04-25T13:30:03.346Z</time></trkpt><trkpt lat="45.5959997" lon="10.9964132"><ele>430.99999999999994</ele><time>2026-04-25T13:30:04.346Z</time></trkpt><trkpt lat="45.596049" lon="10.9963434"><ele>431.0</ele><time>2026-04-25T13:30:05.346Z</time></trkpt><trkpt lat="45.5959957" lon="10.9961391"><ele>431.0</ele><time>2026-04-25T13:30:07.347Z</time></trkpt><trkpt lat="45.5958995" lon="10.9959707"><ele>431.0</ele><time>2026-04-25T13:30:08.347Z</time></trkpt><trkpt lat="45.5957798" lon="10.9957886"><ele>431.0</ele><time>2026-04-25T13:30:09.346Z</time></trkpt><trkpt lat="45.5956456" lon="10.9955884"><ele>424.66666666666663</ele><time>2026-04-25T13:30:10.346Z</time></trkpt><trkpt lat="45.5955266" lon="10.9954025"><ele>418.33333333333337</ele><time>2026-04-25T13:30:11.346Z</time></trkpt><trkpt lat="45.5954211" lon="10.995207"><ele>412.0</ele><time>2026-04-25T13:30:12.346Z</time></trkpt><trkpt lat="45.5953329" lon="10.9949934"><ele>412.0</ele><time>2026-04-25T13:30:13.346Z</time></trkpt><trkpt lat="45.5952568" lon="10.9947758"><ele>412.0</ele><time>2026-04-25T13:30:14.346Z</time></trkpt><trkpt lat="45.5951886" lon="10.9945578"><ele>412.0</ele><time>2026-04-25T13:30:15.347Z</time></trkpt><trkpt lat="45.5951188" lon="10.9943475"><ele>409.33333333333337</ele><time>2026-04-25T13:30:16.346Z</time></trkpt><trkpt lat="45.5950473" lon="10.9941485"><ele>406.66666666666663</ele><time>2026-04-25T13:30:17.346Z</time></trkpt><trkpt lat="45.5949811" lon="10.9939559"><ele>404.0</ele><time>2026-04-25T13:30:18.346Z</time></trkpt><trkpt lat="45.5949075" lon="10.9937561"><ele>404.0</ele><time>2026-04-25T13:30:19.346Z</time></trkpt><trkpt lat="45.5948304" lon="10.9935648"><ele>404.0</ele><time>2026-04-25T13:30:20.346Z</time></trkpt><trkpt lat="45.5947437" lon="10.993377"><ele>404.0</ele><time>2026-04-25T13:30:21.346Z</time></trkpt><trkpt lat="45.5946437" lon="10.9932027"><ele>403.25</ele><time>2026-04-25T13:30:22.347Z</time></trkpt><trkpt lat="45.5945392" lon="10.9930449"><ele>402.5</ele><time>2026-04-25T13:30:23.346Z</time></trkpt><trkpt lat="45.5944292" lon="10.9928979"><ele>401.75</ele><time>2026-04-25T13:30:24.346Z</time></trkpt><trkpt lat="45.5943163" lon="10.9927651"><ele>401.0</ele><time>2026-04-25T13:30:25.346Z</time></trkpt><trkpt lat="45.5941971" lon="10.9926567"><ele>399.75</ele><time>2026-04-25T13:30:26.346Z</time></trkpt><trkpt lat="45.5940694" lon="10.9925767"><ele>398.5</ele><time>2026-04-25T13:30:27.346Z</time></trkpt><trkpt lat="45.5939285" lon="10.992531"><ele>397.25</ele><time>2026-04-25T13:30:28.346Z</time></trkpt><trkpt lat="45.5937779" lon="10.9925223"><ele>396.0</ele><time>2026-04-25T13:30:29.347Z</time></trkpt><trkpt lat="45.5936152" lon="10.9925515"><ele>394.0</ele><time>2026-04-25T13:30:30.347Z</time></trkpt><trkpt lat="45.5934287" lon="10.9926315"><ele>392.0</ele><time>2026-04-25T13:30:31.346Z</time></trkpt><trkpt lat="45.5932181" lon="10.9927323"><ele>390.0</ele><time>2026-04-25T13:30:32.346Z</time></trkpt><trkpt lat="45.5929735" lon="10.9928057"><ele>387.3333333333333</ele><time>2026-04-25T13:30:33.346Z</time></trkpt><trkpt lat="45.5927473" lon="10.9928734"><ele>384.66666666666663</ele><time>2026-04-25T13:30:34.347Z</time></trkpt><trkpt lat="45.5925566" lon="10.992948"><ele>382.0</ele><time>2026-04-25T13:30:35.348Z</time></trkpt><trkpt lat="45.5924113" lon="10.9930221"><ele>382.0</ele><time>2026-04-25T13:30:36.347Z</time></trkpt><trkpt lat="45.5922884" lon="10.9930907"><ele>382.0</ele><time>2026-04-25T13:30:37.348Z</time></trkpt><trkpt lat="45.5921937" lon="10.9931386"><ele>382.0</ele><time>2026-04-25T13:30:38.347Z</time></trkpt><trkpt lat="45.5921094" lon="10.9931554"><ele>382.0</ele><time>2026-04-25T13:30:39.347Z</time></trkpt><trkpt lat="45.5920416" lon="10.9931302"><ele>382.0</ele><time>2026-04-25T13:30:40.347Z</time></trkpt><trkpt lat="45.5919715" lon="10.9930563"><ele>379.66666666666663</ele><time>2026-04-25T13:30:41.347Z</time></trkpt><trkpt lat="45.5918776" lon="10.9929603"><ele>377.3333333333333</ele><time>2026-04-25T13:30:42.347Z</time></trkpt><trkpt lat="45.5917122" lon="10.9928939"><ele>375.0</ele><time>2026-04-25T13:30:43.347Z</time></trkpt><trkpt lat="45.591544" lon="10.9928633"><ele>375.0</ele><time>2026-04-25T13:30:44.347Z</time></trkpt><trkpt lat="45.5913843" lon="10.9928121"><ele>375.0</ele><time>2026-04-25T13:30:45.347Z</time></trkpt><trkpt lat="45.5912346" lon="10.9927381"><ele>375.0</ele><time>2026-04-25T13:30:46.347Z</time></trkpt><trkpt lat="45.5910839" lon="10.9926765"><ele>373.25</ele><time>2026-04-25T13:30:47.347Z</time></trkpt><trkpt lat="45.5909348" lon="10.9926599"><ele>371.5</ele><time>2026-04-25T13:30:48.347Z</time></trkpt><trkpt lat="45.590792" lon="10.9926825"><ele>369.75</ele><time>2026-04-25T13:30:49.348Z</time></trkpt><trkpt lat="45.5906579" lon="10.9927368"><ele>368.0</ele><time>2026-04-25T13:30:50.348Z</time></trkpt><trkpt lat="45.5905143" lon="10.9927946"><ele>368.0</ele><time>2026-04-25T13:30:51.347Z</time></trkpt><trkpt lat="45.590372" lon="10.992867"><ele>368.0</ele><time>2026-04-25T13:30:52.347Z</time></trkpt><trkpt lat="45.5902374" lon="10.9929618"><ele>368.0</ele><time>2026-04-25T13:30:53.347Z</time></trkpt><trkpt lat="45.5901122" lon="10.9930696"><ele>368.0</ele><time>2026-04-25T13:30:54.347Z</time></trkpt><trkpt lat="45.5900027" lon="10.9931644"><ele>368.25</ele><time>2026-04-25T13:30:55.348Z</time></trkpt><trkpt lat="45.5898924" lon="10.9932394"><ele>368.5</ele><time>2026-04-25T13:30:56.348Z</time></trkpt><trkpt lat="45.5897762" lon="10.9933034"><ele>368.75</ele><time>2026-04-25T13:30:57.347Z</time></trkpt><trkpt lat="45.5896464" lon="10.9933249"><ele>369.0</ele><time>2026-04-25T13:30:58.347Z</time></trkpt><trkpt lat="45.5895064" lon="10.9933191"><ele>369.6666666666667</ele><time>2026-04-25T13:30:59.348Z</time></trkpt><trkpt lat="45.58934" lon="10.9933068"><ele>370.33333333333337</ele><time>2026-04-25T13:31:00.347Z</time></trkpt><trkpt lat="45.5891635" lon="10.9932884"><ele>371.0</ele><time>2026-04-25T13:31:01.347Z</time></trkpt><trkpt lat="45.5889966" lon="10.9932642"><ele>371.0</ele><time>2026-04-25T13:31:02.347Z</time></trkpt><trkpt lat="45.5888402" lon="10.9932141"><ele>371.0</ele><time>2026-04-25T13:31:03.347Z</time></trkpt><trkpt lat="45.5886914" lon="10.9931508"><ele>371.0</ele><time>2026-04-25T13:31:04.347Z</time></trkpt><trkpt lat="45.5885718" lon="10.9931109"><ele>371.0</ele><time>2026-04-25T13:31:05.347Z</time></trkpt><trkpt lat="45.5884312" lon="10.9931066"><ele>367.33333333333337</ele><time>2026-04-25T13:31:06.347Z</time></trkpt><trkpt lat="45.5882719" lon="10.9931482"><ele>363.6666666666667</ele><time>2026-04-25T13:31:07.347Z</time></trkpt><trkpt lat="45.5881174" lon="10.9932205"><ele>360.0</ele><time>2026-04-25T13:31:08.347Z</time></trkpt><trkpt lat="45.587976" lon="10.993277"><ele>358.5</ele><time>2026-04-25T13:31:09.348Z</time></trkpt><trkpt lat="45.5878414" lon="10.9933244"><ele>357.0</ele><time>2026-04-25T13:31:10.348Z</time></trkpt><trkpt lat="45.5877144" lon="10.9933563"><ele>355.5</ele><time>2026-04-25T13:31:11.347Z</time></trkpt><trkpt lat="45.5875771" lon="10.9933719"><ele>354.0</ele><time>2026-04-25T13:31:12.348Z</time></trkpt><trkpt lat="45.5874384" lon="10.9933755"><ele>354.0</ele><time>2026-04-25T13:31:13.348Z</time></trkpt><trkpt lat="45.5873063" lon="10.9933604"><ele>354.0</ele><time>2026-04-25T13:31:14.348Z</time></trkpt><trkpt lat="45.587197" lon="10.9933159"><ele>354.0</ele><time>2026-04-25T13:31:15.348Z</time></trkpt><trkpt lat="45.5871056" lon="10.9932331"><ele>354.0</ele><time>2026-04-25T13:31:16.347Z</time></trkpt><trkpt lat="45.5870293" lon="10.9931099"><ele>353.0</ele><time>2026-04-25T13:31:17.347Z</time></trkpt><trkpt lat="45.5869595" lon="10.9929569"><ele>352.0</ele><time>2026-04-25T13:31:18.348Z</time></trkpt><trkpt lat="45.5868892" lon="10.9928059"><ele>351.0</ele><time>2026-04-25T13:31:19.347Z</time></trkpt><trkpt lat="45.5868086" lon="10.9926637"><ele>350.0</ele><time>2026-04-25T13:31:20.347Z</time></trkpt><trkpt lat="45.5867111" lon="10.9925335"><ele>350.4</ele><time>2026-04-25T13:31:21.348Z</time></trkpt><trkpt lat="45.5866092" lon="10.9924292"><ele>350.8</ele><time>2026-04-25T13:31:22.347Z</time></trkpt><trkpt lat="45.5865197" lon="10.9923367"><ele>351.20000000000005</ele><time>2026-04-25T13:31:23.347Z</time></trkpt><trkpt lat="45.5864409" lon="10.9922461"><ele>351.6</ele><time>2026-04-25T13:31:24.347Z</time></trkpt><trkpt lat="45.5863689" lon="10.992157"><ele>352.0</ele><time>2026-04-25T13:31:25.347Z</time></trkpt><trkpt lat="45.5863072" lon="10.99207"><ele>352.0</ele><time>2026-04-25T13:31:26.348Z</time></trkpt><trkpt lat="45.5862588" lon="10.9919878"><ele>352.0</ele><time>2026-04-25T13:31:27.347Z</time></trkpt><trkpt lat="45.586225" lon="10.9919018"><ele>352.0</ele><time>2026-04-25T13:31:28.348Z</time></trkpt><trkpt lat="45.5861971" lon="10.9918046"><ele>352.0</ele><time>2026-04-25T13:31:29.347Z</time></trkpt><trkpt lat="45.5861735" lon="10.9917186"><ele>352.0</ele><time>2026-04-25T13:31:30.348Z</time></trkpt><trkpt lat="45.5861504" lon="10.9916327"><ele>352.0</ele><time>2026-04-25T13:31:31.348Z</time></trkpt><trkpt lat="45.5861456" lon="10.9915418"><ele>352.0</ele><time>2026-04-25T13:31:32.347Z</time></trkpt><trkpt lat="45.586169" lon="10.9914308"><ele>351.8571428571429</ele><time>2026-04-25T13:31:33.347Z</time></trkpt><trkpt lat="45.5861948" lon="10.9913204"><ele>351.7142857142857</ele><time>2026-04-25T13:31:34.348Z</time></trkpt><trkpt lat="45.5862243" lon="10.9912201"><ele>351.57142857142856</ele><time>2026-04-25T13:31:35.348Z</time></trkpt><trkpt lat="45.5863009" lon="10.9911868"><ele>351.42857142857144</ele><time>2026-04-25T13:31:36.348Z</time></trkpt><trkpt lat="45.5863717" lon="10.9911398"><ele>351.2857142857143</ele><time>2026-04-25T13:31:37.347Z</time></trkpt><trkpt lat="45.5864205" lon="10.9910819"><ele>351.14285714285717</ele><time>2026-04-25T13:31:38.348Z</time></trkpt><trkpt lat="45.5864567" lon="10.9910029"><ele>351.0</ele><time>2026-04-25T13:31:39.349Z</time></trkpt><trkpt lat="45.5864852" lon="10.9908875"><ele>351.0</ele><time>2026-04-25T13:31:41.349Z</time></trkpt><trkpt lat="45.5865591" lon="10.9908411"><ele>351.0</ele><time>2026-04-25T13:31:45.348Z</time></trkpt><trkpt lat="45.5866215" lon="10.9908649"><ele>351.0</ele><time>2026-04-25T13:31:47.349Z</time></trkpt><trkpt lat="45.5867081" lon="10.990873"><ele>351.0</ele><time>2026-04-25T13:31:49.348Z</time></trkpt><trkpt lat="45.5868299" lon="10.9908682"><ele>351.0</ele><time>2026-04-25T13:31:51.348Z</time></trkpt><trkpt lat="45.5869442" lon="10.9908491"><ele>349.6</ele><time>2026-04-25T13:31:53.348Z</time></trkpt><trkpt lat="45.5870345" lon="10.9908201"><ele>348.20000000000005</ele><time>2026-04-25T13:31:54.348Z</time></trkpt><trkpt lat="45.5871432" lon="10.990793"><ele>346.79999999999995</ele><time>2026-04-25T13:31:55.348Z</time></trkpt><trkpt lat="45.5872602" lon="10.9907657"><ele>345.4</ele><time>2026-04-25T13:31:56.348Z</time></trkpt><trkpt lat="45.5873789" lon="10.9907387"><ele>344.0</ele><time>2026-04-25T13:31:57.349Z</time></trkpt><trkpt lat="45.5875131" lon="10.9907277"><ele>344.0</ele><time>2026-04-25T13:31:58.348Z</time></trkpt><trkpt lat="45.5876563" lon="10.9907367"><ele>344.0</ele><time>2026-04-25T13:31:59.348Z</time></trkpt><trkpt lat="45.5878027" lon="10.9907599"><ele>344.0</ele><time>2026-04-25T13:32:00.348Z</time></trkpt><trkpt lat="45.5879435" lon="10.9907898"><ele>344.0</ele><time>2026-04-25T13:32:01.349Z</time></trkpt><trkpt lat="45.5880791" lon="10.990831"><ele>350.0</ele><time>2026-04-25T13:32:02.348Z</time></trkpt><trkpt lat="45.5882104" lon="10.990891"><ele>356.0</ele><time>2026-04-25T13:32:03.348Z</time></trkpt><trkpt lat="45.5883399" lon="10.9909568"><ele>362.0</ele><time>2026-04-25T13:32:04.348Z</time></trkpt><trkpt lat="45.5884588" lon="10.9910122"><ele>368.0</ele><time>2026-04-25T13:32:05.348Z</time></trkpt><trkpt lat="45.5885779" lon="10.9910466"><ele>372.25</ele><time>2026-04-25T13:32:06.348Z</time></trkpt><trkpt lat="45.5887046" lon="10.9910634"><ele>376.5</ele><time>2026-04-25T13:32:07.348Z</time></trkpt><trkpt lat="45.5888328" lon="10.9910637"><ele>380.75</ele><time>2026-04-25T13:32:08.349Z</time></trkpt><trkpt lat="45.588964" lon="10.9910529"><ele>385.0</ele><time>2026-04-25T13:32:09.348Z</time></trkpt><trkpt lat="45.5890969" lon="10.9910272"><ele>385.0</ele><time>2026-04-25T13:32:10.349Z</time></trkpt><trkpt lat="45.5892356" lon="10.9909887"><ele>385.0</ele><time>2026-04-25T13:32:11.348Z</time></trkpt><trkpt lat="45.5893779" lon="10.9909392"><ele>385.0</ele><time>2026-04-25T13:32:12.349Z</time></trkpt><trkpt lat="45.5895228" lon="10.9908803"><ele>385.0</ele><time>2026-04-25T13:32:13.348Z</time></trkpt><trkpt lat="45.5896644" lon="10.9908173"><ele>381.75</ele><time>2026-04-25T13:32:14.348Z</time></trkpt><trkpt lat="45.589802" lon="10.9907476"><ele>378.5</ele><time>2026-04-25T13:32:15.349Z</time></trkpt><trkpt lat="45.5899371" lon="10.9906753"><ele>375.25</ele><time>2026-04-25T13:32:16.348Z</time></trkpt><trkpt lat="45.5900703" lon="10.9905998"><ele>372.0</ele><time>2026-04-25T13:32:17.348Z</time></trkpt><trkpt lat="45.5902033" lon="10.9905214"><ele>372.0</ele><time>2026-04-25T13:32:18.348Z</time></trkpt><trkpt lat="45.5903284" lon="10.9904431"><ele>372.0</ele><time>2026-04-25T13:32:19.348Z</time></trkpt><trkpt lat="45.5904458" lon="10.9903637"><ele>372.0</ele><time>2026-04-25T13:32:20.348Z</time></trkpt><trkpt lat="45.5905583" lon="10.9902773"><ele>372.0</ele><time>2026-04-25T13:32:21.349Z</time></trkpt><trkpt lat="45.5906693" lon="10.990181"><ele>373.75</ele><time>2026-04-25T13:32:22.349Z</time></trkpt><trkpt lat="45.5907786" lon="10.9900567"><ele>375.5</ele><time>2026-04-25T13:32:23.348Z</time></trkpt><trkpt lat="45.5908777" lon="10.9898978"><ele>377.25</ele><time>2026-04-25T13:32:24.349Z</time></trkpt><trkpt lat="45.5909661" lon="10.989739"><ele>379.0</ele><time>2026-04-25T13:32:25.348Z</time></trkpt><trkpt lat="45.5910528" lon="10.9895882"><ele>379.0</ele><time>2026-04-25T13:32:26.348Z</time></trkpt><trkpt lat="45.5911436" lon="10.9894403"><ele>379.0</ele><time>2026-04-25T13:32:27.348Z</time></trkpt><trkpt lat="45.5912267" lon="10.9893172"><ele>379.0</ele><time>2026-04-25T13:32:28.349Z</time></trkpt><trkpt lat="45.5912906" lon="10.9891991"><ele>379.0</ele><time>2026-04-25T13:32:29.348Z</time></trkpt><trkpt lat="45.5913264" lon="10.9890548"><ele>385.0</ele><time>2026-04-25T13:32:30.348Z</time></trkpt><trkpt lat="45.5913458" lon="10.9888821"><ele>391.0</ele><time>2026-04-25T13:32:31.348Z</time></trkpt><trkpt lat="45.5913719" lon="10.9887039"><ele>397.0</ele><time>2026-04-25T13:32:32.349Z</time></trkpt><trkpt lat="45.5914181" lon="10.9885336"><ele>403.0</ele><time>2026-04-25T13:32:33.348Z</time></trkpt><trkpt lat="45.5914717" lon="10.9883794"><ele>399.0</ele><time>2026-04-25T13:32:34.349Z</time></trkpt><trkpt lat="45.5915501" lon="10.9882316"><ele>395.0</ele><time>2026-04-25T13:32:35.348Z</time></trkpt><trkpt lat="45.5916332" lon="10.9880735"><ele>391.0</ele><time>2026-04-25T13:32:36.349Z</time></trkpt><trkpt lat="45.5917284" lon="10.9879124"><ele>387.0</ele><time>2026-04-25T13:32:37.348Z</time></trkpt><trkpt lat="45.5918275" lon="10.9877692"><ele>387.0</ele><time>2026-04-25T13:32:38.349Z</time></trkpt><trkpt lat="45.5919394" lon="10.9876373"><ele>387.0</ele><time>2026-04-25T13:32:39.349Z</time></trkpt><trkpt lat="45.5920541" lon="10.9875216"><ele>387.0</ele><time>2026-04-25T13:32:40.348Z</time></trkpt><trkpt lat="45.592173" lon="10.9874067"><ele>387.0</ele><time>2026-04-25T13:32:41.349Z</time></trkpt><trkpt lat="45.5922923" lon="10.9873073"><ele>390.5</ele><time>2026-04-25T13:32:42.349Z</time></trkpt><trkpt lat="45.5924124" lon="10.98722"><ele>394.0</ele><time>2026-04-25T13:32:43.349Z</time></trkpt><trkpt lat="45.5925345" lon="10.9871395"><ele>397.5</ele><time>2026-04-25T13:32:44.349Z</time></trkpt><trkpt lat="45.5926562" lon="10.9870614"><ele>401.0</ele><time>2026-04-25T13:32:45.35Z</time></trkpt><trkpt lat="45.59278" lon="10.9869739"><ele>401.0</ele><time>2026-04-25T13:32:46.35Z</time></trkpt><trkpt lat="45.5929086" lon="10.9868805"><ele>401.0</ele><time>2026-04-25T13:32:47.349Z</time></trkpt><trkpt lat="45.593037" lon="10.9867818"><ele>401.0</ele><time>2026-04-25T13:32:48.349Z</time></trkpt><trkpt lat="45.5931674" lon="10.986674"><ele>401.0</ele><time>2026-04-25T13:32:49.35Z</time></trkpt><trkpt lat="45.5933096" lon="10.9865561"><ele>401.0</ele><time>2026-04-25T13:32:50.35Z</time></trkpt><trkpt lat="45.5934591" lon="10.9864383"><ele>401.0</ele><time>2026-04-25T13:32:51.349Z</time></trkpt><trkpt lat="45.5936107" lon="10.98633"><ele>401.0</ele><time>2026-04-25T13:32:52.349Z</time></trkpt><trkpt lat="45.5937687" lon="10.9862332"><ele>407.25</ele><time>2026-04-25T13:32:53.349Z</time></trkpt><trkpt lat="45.5939201" lon="10.9861408"><ele>413.5</ele><time>2026-04-25T13:32:54.349Z</time></trkpt><trkpt lat="45.5940518" lon="10.9860565"><ele>419.75</ele><time>2026-04-25T13:32:55.35Z</time></trkpt><trkpt lat="45.5941598" lon="10.985977"><ele>426.0</ele><time>2026-04-25T13:32:56.35Z</time></trkpt><trkpt lat="45.5942638" lon="10.9859274"><ele>426.0</ele><time>2026-04-25T13:32:57.35Z</time></trkpt><trkpt lat="45.5943818" lon="10.9859069"><ele>426.0</ele><time>2026-04-25T13:32:58.349Z</time></trkpt><trkpt lat="45.5945284" lon="10.9858973"><ele>426.0</ele><time>2026-04-25T13:32:59.349Z</time></trkpt><trkpt lat="45.5946921" lon="10.9858901"><ele>426.0</ele><time>2026-04-25T13:33:00.349Z</time></trkpt><trkpt lat="45.5948676" lon="10.9858718"><ele>420.33333333333337</ele><time>2026-04-25T13:33:01.349Z</time></trkpt><trkpt lat="45.5950479" lon="10.9858372"><ele>414.6666666666667</ele><time>2026-04-25T13:33:02.349Z</time></trkpt><trkpt lat="45.595229" lon="10.9858134"><ele>409.0</ele><time>2026-04-25T13:33:03.349Z</time></trkpt><trkpt lat="45.5954104" lon="10.985792"><ele>409.0</ele><time>2026-04-25T13:33:04.35Z</time></trkpt><trkpt lat="45.5955814" lon="10.9857649"><ele>409.0</ele><time>2026-04-25T13:33:05.349Z</time></trkpt><trkpt lat="45.5957394" lon="10.985747"><ele>409.0</ele><time>2026-04-25T13:33:06.35Z</time></trkpt><trkpt lat="45.5958833" lon="10.9857479"><ele>409.0</ele><time>2026-04-25T13:33:07.349Z</time></trkpt><trkpt lat="45.5960202" lon="10.9857598"><ele>409.0</ele><time>2026-04-25T13:33:08.349Z</time></trkpt><trkpt lat="45.5961395" lon="10.985753"><ele>409.0</ele><time>2026-04-25T13:33:09.349Z</time></trkpt><trkpt lat="45.5962485" lon="10.9857126"><ele>409.0</ele><time>2026-04-25T13:33:10.349Z</time></trkpt><trkpt lat="45.5963693" lon="10.9856495"><ele>412.75</ele><time>2026-04-25T13:33:11.349Z</time></trkpt><trkpt lat="45.5964959" lon="10.9855883"><ele>416.5</ele><time>2026-04-25T13:33:12.349Z</time></trkpt><trkpt lat="45.5966134" lon="10.9855444"><ele>420.25</ele><time>2026-04-25T13:33:13.349Z</time></trkpt><trkpt lat="45.5967178" lon="10.9855084"><ele>424.0</ele><time>2026-04-25T13:33:14.35Z</time></trkpt><trkpt lat="45.5968041" lon="10.9854489"><ele>424.0</ele><time>2026-04-25T13:33:15.349Z</time></trkpt><trkpt lat="45.596873" lon="10.9853652"><ele>424.0</ele><time>2026-04-25T13:33:16.349Z</time></trkpt><trkpt lat="45.5969261" lon="10.9852645"><ele>424.0</ele><time>2026-04-25T13:33:17.349Z</time></trkpt><trkpt lat="45.5969734" lon="10.9851913"><ele>424.0</ele><time>2026-04-25T13:33:18.349Z</time></trkpt><trkpt lat="45.5970851" lon="10.9851469"><ele>424.0</ele><time>2026-04-25T13:33:20.349Z</time></trkpt><trkpt lat="45.5971653" lon="10.9852074"><ele>422.4</ele><time>2026-04-25T13:33:22.349Z</time></trkpt><trkpt lat="45.5972626" lon="10.9851676"><ele>420.79999999999995</ele><time>2026-04-25T13:33:24.349Z</time></trkpt><trkpt lat="45.597321" lon="10.9850879"><ele>419.20000000000005</ele><time>2026-04-25T13:33:25.349Z</time></trkpt><trkpt lat="45.5973764" lon="10.9849622"><ele>417.6</ele><time>2026-04-25T13:33:26.349Z</time></trkpt><trkpt lat="45.5974411" lon="10.9848179"><ele>416.0</ele><time>2026-04-25T13:33:27.349Z</time></trkpt><trkpt lat="45.5975315" lon="10.9846864"><ele>416.0</ele><time>2026-04-25T13:33:28.35Z</time></trkpt><trkpt lat="45.5976425" lon="10.9845642"><ele>416.0</ele><time>2026-04-25T13:33:29.349Z</time></trkpt><trkpt lat="45.5977572" lon="10.9844646"><ele>416.0</ele><time>2026-04-25T13:33:30.349Z</time></trkpt><trkpt lat="45.5978832" lon="10.9843888"><ele>416.0</ele><time>2026-04-25T13:33:31.349Z</time></trkpt><trkpt lat="45.5980196" lon="10.9843407"><ele>422.66666666666663</ele><time>2026-04-25T13:33:32.35Z</time></trkpt><trkpt lat="45.5981773" lon="10.9843245"><ele>429.33333333333337</ele><time>2026-04-25T13:33:33.35Z</time></trkpt><trkpt lat="45.5983532" lon="10.984333"><ele>436.0</ele><time>2026-04-25T13:33:34.35Z</time></trkpt><trkpt lat="45.5985084" lon="10.9843545"><ele>436.0</ele><time>2026-04-25T13:33:35.349Z</time></trkpt><trkpt lat="45.598643" lon="10.9843441"><ele>436.0</ele><time>2026-04-25T13:33:36.35Z</time></trkpt><trkpt lat="45.5987857" lon="10.9842802"><ele>436.0</ele><time>2026-04-25T13:33:37.349Z</time></trkpt><trkpt lat="45.5989313" lon="10.9841898"><ele>436.0</ele><time>2026-04-25T13:33:38.349Z</time></trkpt><trkpt lat="45.5990882" lon="10.9841129"><ele>436.0</ele><time>2026-04-25T13:33:39.349Z</time></trkpt><trkpt lat="45.5992542" lon="10.9840659"><ele>436.0</ele><time>2026-04-25T13:33:40.35Z</time></trkpt><trkpt lat="45.5994335" lon="10.9840423"><ele>436.0</ele><time>2026-04-25T13:33:41.35Z</time></trkpt><trkpt lat="45.5996064" lon="10.9840253"><ele>436.0</ele><time>2026-04-25T13:33:42.349Z</time></trkpt><trkpt lat="45.599772" lon="10.9840078"><ele>436.0</ele><time>2026-04-25T13:33:43.35Z</time></trkpt><trkpt lat="45.5999158" lon="10.9840012"><ele>436.0</ele><time>2026-04-25T13:33:44.349Z</time></trkpt><trkpt lat="45.6000473" lon="10.9839976"><ele>436.0</ele><time>2026-04-25T13:33:45.349Z</time></trkpt><trkpt lat="45.600172" lon="10.9840228"><ele>436.0</ele><time>2026-04-25T13:33:46.35Z</time></trkpt><trkpt lat="45.600302" lon="10.9840655"><ele>436.0</ele><time>2026-04-25T13:33:47.349Z</time></trkpt><trkpt lat="45.6004357" lon="10.98413"><ele>436.0</ele><time>2026-04-25T13:33:48.35Z</time></trkpt><trkpt lat="45.6005661" lon="10.9841607"><ele>436.0</ele><time>2026-04-25T13:33:49.351Z</time></trkpt><trkpt lat="45.6007041" lon="10.9841447"><ele>440.33333333333337</ele><time>2026-04-25T13:33:50.35Z</time></trkpt><trkpt lat="45.6008647" lon="10.9840931"><ele>444.66666666666663</ele><time>2026-04-25T13:33:51.351Z</time></trkpt><trkpt lat="45.6010256" lon="10.9840373"><ele>449.0</ele><time>2026-04-25T13:33:52.351Z</time></trkpt><trkpt lat="45.6011871" lon="10.9839717"><ele>452.25</ele><time>2026-04-25T13:33:53.351Z</time></trkpt><trkpt lat="45.6013384" lon="10.9839281"><ele>455.5</ele><time>2026-04-25T13:33:54.35Z</time></trkpt><trkpt lat="45.6014754" lon="10.9839122"><ele>458.75</ele><time>2026-04-25T13:33:55.351Z</time></trkpt><trkpt lat="45.6015984" lon="10.9839351"><ele>462.0</ele><time>2026-04-25T13:33:56.35Z</time></trkpt><trkpt lat="45.6017136" lon="10.9839818"><ele>462.0</ele><time>2026-04-25T13:33:57.35Z</time></trkpt><trkpt lat="45.601814" lon="10.9840455"><ele>462.00000000000006</ele><time>2026-04-25T13:33:58.351Z</time></trkpt><trkpt lat="45.6019008" lon="10.9840638"><ele>462.00000000000006</ele><time>2026-04-25T13:33:59.35Z</time></trkpt><trkpt lat="45.6020033" lon="10.9840969"><ele>462.0</ele><time>2026-04-25T13:34:00.35Z</time></trkpt><trkpt lat="45.6021298" lon="10.9840285"><ele>462.0</ele><time>2026-04-25T13:34:01.35Z</time></trkpt><trkpt lat="45.6022576" lon="10.9839822"><ele>469.5</ele><time>2026-04-25T13:34:02.35Z</time></trkpt><trkpt lat="45.6023895" lon="10.983974"><ele>477.0</ele><time>2026-04-25T13:34:03.351Z</time></trkpt><trkpt lat="45.6024977" lon="10.9839567"><ele>484.5</ele><time>2026-04-25T13:34:04.351Z</time></trkpt><trkpt lat="45.6025932" lon="10.9838799"><ele>492.0</ele><time>2026-04-25T13:34:05.35Z</time></trkpt><trkpt lat="45.6027052" lon="10.9837563"><ele>492.0</ele><time>2026-04-25T13:34:06.35Z</time></trkpt><trkpt lat="45.6028244" lon="10.9835695"><ele>492.0</ele><time>2026-04-25T13:34:07.35Z</time></trkpt><trkpt lat="45.6029617" lon="10.9834114"><ele>492.0</ele><time>2026-04-25T13:34:08.35Z</time></trkpt><trkpt lat="45.6030832" lon="10.9832575"><ele>488.20000000000005</ele><time>2026-04-25T13:34:09.35Z</time></trkpt><trkpt lat="45.6031862" lon="10.9831193"><ele>484.40000000000003</ele><time>2026-04-25T13:34:10.35Z</time></trkpt><trkpt lat="45.603268" lon="10.9829872"><ele>480.59999999999997</ele><time>2026-04-25T13:34:11.35Z</time></trkpt><trkpt lat="45.603341" lon="10.9828884"><ele>476.79999999999995</ele><time>2026-04-25T13:34:12.35Z</time></trkpt><trkpt lat="45.6034129" lon="10.9828311"><ele>473.0</ele><time>2026-04-25T13:34:13.351Z</time></trkpt><trkpt lat="45.6035032" lon="10.9828057"><ele>473.0</ele><time>2026-04-25T13:34:14.35Z</time></trkpt><trkpt lat="45.6036193" lon="10.9828134"><ele>473.0</ele><time>2026-04-25T13:34:15.351Z</time></trkpt><trkpt lat="45.6037541" lon="10.9828507"><ele>473.0</ele><time>2026-04-25T13:34:16.35Z</time></trkpt><trkpt lat="45.6039101" lon="10.9828681"><ele>473.0</ele><time>2026-04-25T13:34:17.35Z</time></trkpt><trkpt lat="45.6040813" lon="10.9828464"><ele>479.0</ele><time>2026-04-25T13:34:18.35Z</time></trkpt><trkpt lat="45.6042611" lon="10.9828334"><ele>485.0</ele><time>2026-04-25T13:34:19.35Z</time></trkpt><trkpt lat="45.6044464" lon="10.9828086"><ele>491.0</ele><time>2026-04-25T13:34:20.35Z</time></trkpt><trkpt lat="45.6046251" lon="10.9827799"><ele>499.66666666666663</ele><time>2026-04-25T13:34:21.35Z</time></trkpt><trkpt lat="45.6048" lon="10.9827391"><ele>508.33333333333337</ele><time>2026-04-25T13:34:22.351Z</time></trkpt><trkpt lat="45.6049827" lon="10.9827032"><ele>517.0</ele><time>2026-04-25T13:34:23.351Z</time></trkpt><trkpt lat="45.6051547" lon="10.982661"><ele>517.0</ele><time>2026-04-25T13:34:24.35Z</time></trkpt><trkpt lat="45.6053155" lon="10.9825957"><ele>517.0</ele><time>2026-04-25T13:34:25.351Z</time></trkpt><trkpt lat="45.6054725" lon="10.9825112"><ele>517.0</ele><time>2026-04-25T13:34:26.351Z</time></trkpt><trkpt lat="45.6056261" lon="10.9824146"><ele>509.0</ele><time>2026-04-25T13:34:27.35Z</time></trkpt><trkpt lat="45.6057715" lon="10.9823157"><ele>501.0</ele><time>2026-04-25T13:34:28.351Z</time></trkpt><trkpt lat="45.6059078" lon="10.9822079"><ele>493.0</ele><time>2026-04-25T13:34:29.35Z</time></trkpt><trkpt lat="45.6060416" lon="10.982105"><ele>502.6666666666667</ele><time>2026-04-25T13:34:30.35Z</time></trkpt><trkpt lat="45.6061741" lon="10.9820124"><ele>512.3333333333334</ele><time>2026-04-25T13:34:31.351Z</time></trkpt><trkpt lat="45.6063166" lon="10.9819318"><ele>522.0</ele><time>2026-04-25T13:34:32.35Z</time></trkpt><trkpt lat="45.6064753" lon="10.9818787"><ele>522.0</ele><time>2026-04-25T13:34:33.35Z</time></trkpt><trkpt lat="45.6066445" lon="10.9818302"><ele>522.0</ele><time>2026-04-25T13:34:34.351Z</time></trkpt><trkpt lat="45.6067998" lon="10.9817535"><ele>522.0</ele><time>2026-04-25T13:34:35.351Z</time></trkpt><trkpt lat="45.6069263" lon="10.9816643"><ele>518.6</ele><time>2026-04-25T13:34:36.35Z</time></trkpt><trkpt lat="45.6070308" lon="10.981581"><ele>515.2</ele><time>2026-04-25T13:34:37.35Z</time></trkpt><trkpt lat="45.6071241" lon="10.9815192"><ele>511.8</ele><time>2026-04-25T13:34:38.351Z</time></trkpt><trkpt lat="45.6072062" lon="10.9814935"><ele>508.4</ele><time>2026-04-25T13:34:39.35Z</time></trkpt><trkpt lat="45.6073001" lon="10.981368"><ele>505.0</ele><time>2026-04-25T13:34:41.35Z</time></trkpt><trkpt lat="45.6073264" lon="10.9812132"><ele>505.0</ele><time>2026-04-25T13:34:42.351Z</time></trkpt><trkpt lat="45.6073524" lon="10.9810582"><ele>505.0</ele><time>2026-04-25T13:34:43.351Z</time></trkpt><trkpt lat="45.6073903" lon="10.9809259"><ele>505.0</ele><time>2026-04-25T13:34:44.35Z</time></trkpt><trkpt lat="45.6074579" lon="10.980802"><ele>505.0</ele><time>2026-04-25T13:34:45.35Z</time></trkpt><trkpt lat="45.6075406" lon="10.9806626"><ele>505.0</ele><time>2026-04-25T13:34:46.351Z</time></trkpt><trkpt lat="45.607661" lon="10.9805038"><ele>507.33333333333337</ele><time>2026-04-25T13:34:47.351Z</time></trkpt><trkpt lat="45.6077791" lon="10.9803172"><ele>509.66666666666663</ele><time>2026-04-25T13:34:48.35Z</time></trkpt><trkpt lat="45.6078796" lon="10.9801062"><ele>512.0</ele><time>2026-04-25T13:34:49.35Z</time></trkpt><trkpt lat="45.6079667" lon="10.9798987"><ele>512.0</ele><time>2026-04-25T13:34:50.35Z</time></trkpt><trkpt lat="45.6080403" lon="10.9797167"><ele>512.0</ele><time>2026-04-25T13:34:51.352Z</time></trkpt><trkpt lat="45.608094" lon="10.9795361"><ele>512.0</ele><time>2026-04-25T13:34:52.351Z</time></trkpt><trkpt lat="45.6081336" lon="10.9793478"><ele>512.0</ele><time>2026-04-25T13:34:53.352Z</time></trkpt><trkpt lat="45.608168" lon="10.9791384"><ele>508.0</ele><time>2026-04-25T13:34:54.352Z</time></trkpt><trkpt lat="45.6081961" lon="10.9789121"><ele>504.0</ele><time>2026-04-25T13:34:55.352Z</time></trkpt><trkpt lat="45.6082214" lon="10.9786986"><ele>500.0</ele><time>2026-04-25T13:34:56.352Z</time></trkpt><trkpt lat="45.6082468" lon="10.9785182"><ele>496.0</ele><time>2026-04-25T13:34:57.351Z</time></trkpt><trkpt lat="45.6082718" lon="10.9783528"><ele>493.8</ele><time>2026-04-25T13:34:58.351Z</time></trkpt><trkpt lat="45.6082846" lon="10.9782085"><ele>491.6</ele><time>2026-04-25T13:34:59.351Z</time></trkpt><trkpt lat="45.6082886" lon="10.9780834"><ele>489.4</ele><time>2026-04-25T13:35:00.351Z</time></trkpt><trkpt lat="45.6083166" lon="10.9779713"><ele>487.2</ele><time>2026-04-25T13:35:01.352Z</time></trkpt><trkpt lat="45.6083744" lon="10.9778772"><ele>485.0</ele><time>2026-04-25T13:35:02.351Z</time></trkpt><trkpt lat="45.6084595" lon="10.9778152"><ele>485.0</ele><time>2026-04-25T13:35:03.351Z</time></trkpt><trkpt lat="45.6085525" lon="10.9777912"><ele>485.0</ele><time>2026-04-25T13:35:04.352Z</time></trkpt><trkpt lat="45.608668" lon="10.9778093"><ele>485.0</ele><time>2026-04-25T13:35:05.351Z</time></trkpt><trkpt lat="45.6088027" lon="10.9778188"><ele>485.0</ele><time>2026-04-25T13:35:06.351Z</time></trkpt><trkpt lat="45.6089442" lon="10.9778266"><ele>488.6</ele><time>2026-04-25T13:35:07.351Z</time></trkpt><trkpt lat="45.6090626" lon="10.9778313"><ele>492.2</ele><time>2026-04-25T13:35:08.351Z</time></trkpt><trkpt lat="45.6091642" lon="10.9778414"><ele>495.79999999999995</ele><time>2026-04-25T13:35:09.352Z</time></trkpt><trkpt lat="45.6092566" lon="10.97787"><ele>499.4</ele><time>2026-04-25T13:35:10.351Z</time></trkpt><trkpt lat="45.6093447" lon="10.9779226"><ele>503.0</ele><time>2026-04-25T13:35:11.351Z</time></trkpt><trkpt lat="45.609416" lon="10.977967"><ele>503.0</ele><time>2026-04-25T13:35:12.352Z</time></trkpt><trkpt lat="45.6094927" lon="10.9779874"><ele>502.99999999999994</ele><time>2026-04-25T13:35:13.351Z</time></trkpt><trkpt lat="45.6095604" lon="10.9779606"><ele>502.99999999999994</ele><time>2026-04-25T13:35:14.351Z</time></trkpt><trkpt lat="45.6096244" lon="10.9778553"><ele>503.0</ele><time>2026-04-25T13:35:16.351Z</time></trkpt><trkpt lat="45.6095234" lon="10.977674"><ele>503.0</ele><time>2026-04-25T13:35:18.351Z</time></trkpt><trkpt lat="45.609442" lon="10.9775471"><ele>500.75</ele><time>2026-04-25T13:35:19.352Z</time></trkpt><trkpt lat="45.6093585" lon="10.977399"><ele>498.5</ele><time>2026-04-25T13:35:20.352Z</time></trkpt><trkpt lat="45.6092634" lon="10.9773027"><ele>496.25</ele><time>2026-04-25T13:35:21.351Z</time></trkpt><trkpt lat="45.6091513" lon="10.9772312"><ele>494.0</ele><time>2026-04-25T13:35:22.351Z</time></trkpt><trkpt lat="45.6090143" lon="10.9771457"><ele>494.0</ele><time>2026-04-25T13:35:23.351Z</time></trkpt><trkpt lat="45.6089259" lon="10.9770874"><ele>494.0</ele><time>2026-04-25T13:35:24.351Z</time></trkpt><trkpt lat="45.6088845" lon="10.976984"><ele>494.0</ele><time>2026-04-25T13:35:25.351Z</time></trkpt><trkpt lat="45.6088655" lon="10.9768134"><ele>494.0</ele><time>2026-04-25T13:35:26.352Z</time></trkpt><trkpt lat="45.6088651" lon="10.976642"><ele>494.0</ele><time>2026-04-25T13:35:27.351Z</time></trkpt><trkpt lat="45.6088746" lon="10.9764472"><ele>498.25</ele><time>2026-04-25T13:35:28.352Z</time></trkpt><trkpt lat="45.6088881" lon="10.9762677"><ele>502.5</ele><time>2026-04-25T13:35:29.351Z</time></trkpt><trkpt lat="45.6089334" lon="10.9760781"><ele>506.75</ele><time>2026-04-25T13:35:30.351Z</time></trkpt><trkpt lat="45.6090106" lon="10.9758816"><ele>511.0</ele><time>2026-04-25T13:35:31.352Z</time></trkpt><trkpt lat="45.6090937" lon="10.9756997"><ele>511.0</ele><time>2026-04-25T13:35:32.352Z</time></trkpt><trkpt lat="45.6091658" lon="10.9755055"><ele>511.0</ele><time>2026-04-25T13:35:33.351Z</time></trkpt><trkpt lat="45.6092303" lon="10.9753138"><ele>511.0</ele><time>2026-04-25T13:35:34.351Z</time></trkpt><trkpt lat="45.609287" lon="10.9751169"><ele>511.0</ele><time>2026-04-25T13:35:35.352Z</time></trkpt><trkpt lat="45.6093507" lon="10.9749212"><ele>511.0</ele><time>2026-04-25T13:35:36.351Z</time></trkpt><trkpt lat="45.6094289" lon="10.9747339"><ele>511.0</ele><time>2026-04-25T13:35:37.351Z</time></trkpt><trkpt lat="45.6094998" lon="10.9745561"><ele>511.0</ele><time>2026-04-25T13:35:38.351Z</time></trkpt><trkpt lat="45.6095518" lon="10.9743664"><ele>520.75</ele><time>2026-04-25T13:35:39.352Z</time></trkpt><trkpt lat="45.6095932" lon="10.9741595"><ele>530.5</ele><time>2026-04-25T13:35:40.351Z</time></trkpt><trkpt lat="45.6096176" lon="10.9739534"><ele>540.25</ele><time>2026-04-25T13:35:41.351Z</time></trkpt><trkpt lat="45.6096359" lon="10.9737734"><ele>550.0</ele><time>2026-04-25T13:35:42.352Z</time></trkpt><trkpt lat="45.6096583" lon="10.9736096"><ele>550.0</ele><time>2026-04-25T13:35:43.351Z</time></trkpt><trkpt lat="45.6097039" lon="10.9734484"><ele>550.0</ele><time>2026-04-25T13:35:44.352Z</time></trkpt><trkpt lat="45.6097582" lon="10.9733023"><ele>550.0</ele><time>2026-04-25T13:35:45.351Z</time></trkpt><trkpt lat="45.6098414" lon="10.9731819"><ele>550.0</ele><time>2026-04-25T13:35:46.352Z</time></trkpt><trkpt lat="45.6099341" lon="10.9730864"><ele>556.0</ele><time>2026-04-25T13:35:47.351Z</time></trkpt><trkpt lat="45.6100424" lon="10.9730062"><ele>562.0</ele><time>2026-04-25T13:35:48.351Z</time></trkpt><trkpt lat="45.6101714" lon="10.9729443"><ele>568.0</ele><time>2026-04-25T13:35:49.352Z</time></trkpt><trkpt lat="45.610299" lon="10.9728544"><ele>574.0</ele><time>2026-04-25T13:35:50.352Z</time></trkpt><trkpt lat="45.6104161" lon="10.9727156"><ele>574.0</ele><time>2026-04-25T13:35:51.351Z</time></trkpt><trkpt lat="45.6105175" lon="10.9725607"><ele>574.0</ele><time>2026-04-25T13:35:52.352Z</time></trkpt><trkpt lat="45.6105976" lon="10.9723451"><ele>574.0</ele><time>2026-04-25T13:35:53.351Z</time></trkpt><trkpt lat="45.6106956" lon="10.9721236"><ele>561.3333333333334</ele><time>2026-04-25T13:35:54.351Z</time></trkpt><trkpt lat="45.6108159" lon="10.9719547"><ele>548.6666666666666</ele><time>2026-04-25T13:35:55.351Z</time></trkpt><trkpt lat="45.6109635" lon="10.9718134"><ele>536.0</ele><time>2026-04-25T13:35:56.351Z</time></trkpt><trkpt lat="45.6111086" lon="10.9716801"><ele>544.0</ele><time>2026-04-25T13:35:57.353Z</time></trkpt><trkpt lat="45.6112463" lon="10.9715399"><ele>552.0</ele><time>2026-04-25T13:35:58.352Z</time></trkpt><trkpt lat="45.6113838" lon="10.9713965"><ele>560.0</ele><time>2026-04-25T13:35:59.352Z</time></trkpt><trkpt lat="45.6115241" lon="10.9712594"><ele>560.0</ele><time>2026-04-25T13:36:00.353Z</time></trkpt><trkpt lat="45.6116747" lon="10.9711434"><ele>560.0</ele><time>2026-04-25T13:36:01.352Z</time></trkpt><trkpt lat="45.6118197" lon="10.9710488"><ele>560.0</ele><time>2026-04-25T13:36:02.352Z</time></trkpt><trkpt lat="45.6119873" lon="10.9709862"><ele>558.6666666666666</ele><time>2026-04-25T13:36:03.352Z</time></trkpt><trkpt lat="45.6121571" lon="10.9709296"><ele>557.3333333333334</ele><time>2026-04-25T13:36:04.353Z</time></trkpt><trkpt lat="45.6123347" lon="10.9708778"><ele>556.0</ele><time>2026-04-25T13:36:05.352Z</time></trkpt><trkpt lat="45.6125148" lon="10.9708301"><ele>556.0</ele><time>2026-04-25T13:36:06.352Z</time></trkpt><trkpt lat="45.6127009" lon="10.9707966"><ele>556.0</ele><time>2026-04-25T13:36:07.352Z</time></trkpt><trkpt lat="45.612869" lon="10.9707761"><ele>556.0</ele><time>2026-04-25T13:36:08.352Z</time></trkpt><trkpt lat="45.6130178" lon="10.9707631"><ele>568.0</ele><time>2026-04-25T13:36:09.353Z</time></trkpt><trkpt lat="45.6131547" lon="10.9707079"><ele>580.0</ele><time>2026-04-25T13:36:10.353Z</time></trkpt><trkpt lat="45.6132817" lon="10.9706021"><ele>592.0</ele><time>2026-04-25T13:36:11.353Z</time></trkpt><trkpt lat="45.613412" lon="10.9704552"><ele>592.0</ele><time>2026-04-25T13:36:12.352Z</time></trkpt><trkpt lat="45.6135381" lon="10.9703191"><ele>592.0</ele><time>2026-04-25T13:36:13.352Z</time></trkpt><trkpt lat="45.6136732" lon="10.9701977"><ele>592.0</ele><time>2026-04-25T13:36:14.352Z</time></trkpt><trkpt lat="45.6138147" lon="10.9701"><ele>591.3333333333334</ele><time>2026-04-25T13:36:15.353Z</time></trkpt><trkpt lat="45.6139596" lon="10.9700096"><ele>590.6666666666666</ele><time>2026-04-25T13:36:16.352Z</time></trkpt><trkpt lat="45.614101" lon="10.9698803"><ele>590.0</ele><time>2026-04-25T13:36:17.352Z</time></trkpt><trkpt lat="45.6142318" lon="10.9697229"><ele>590.0</ele><time>2026-04-25T13:36:18.353Z</time></trkpt><trkpt lat="45.6143706" lon="10.9696052"><ele>590.0</ele><time>2026-04-25T13:36:19.353Z</time></trkpt><trkpt lat="45.6145066" lon="10.9694941"><ele>590.0</ele><time>2026-04-25T13:36:20.353Z</time></trkpt><trkpt lat="45.6146344" lon="10.9693835"><ele>593.25</ele><time>2026-04-25T13:36:21.352Z</time></trkpt><trkpt lat="45.6147382" lon="10.9692601"><ele>596.5</ele><time>2026-04-25T13:36:22.352Z</time></trkpt><trkpt lat="45.6148354" lon="10.9691274"><ele>599.75</ele><time>2026-04-25T13:36:23.352Z</time></trkpt><trkpt lat="45.6149336" lon="10.9689859"><ele>603.0</ele><time>2026-04-25T13:36:24.353Z</time></trkpt><trkpt lat="45.6150428" lon="10.9688338"><ele>603.0</ele><time>2026-04-25T13:36:25.353Z</time></trkpt><trkpt lat="45.6151614" lon="10.9686827"><ele>603.0</ele><time>2026-04-25T13:36:26.353Z</time></trkpt><trkpt lat="45.6152775" lon="10.9685402"><ele>603.0</ele><time>2026-04-25T13:36:27.353Z</time></trkpt><trkpt lat="45.6153779" lon="10.9683997"><ele>607.25</ele><time>2026-04-25T13:36:28.353Z</time></trkpt><trkpt lat="45.6154559" lon="10.9682216"><ele>611.5</ele><time>2026-04-25T13:36:29.352Z</time></trkpt><trkpt lat="45.6155239" lon="10.9680481"><ele>615.75</ele><time>2026-04-25T13:36:30.352Z</time></trkpt><trkpt lat="45.6155933" lon="10.9679098"><ele>620.0</ele><time>2026-04-25T13:36:31.352Z</time></trkpt><trkpt lat="45.6156788" lon="10.9678003"><ele>620.0</ele><time>2026-04-25T13:36:32.352Z</time></trkpt><trkpt lat="45.6157795" lon="10.9677076"><ele>620.0</ele><time>2026-04-25T13:36:33.352Z</time></trkpt><trkpt lat="45.6159082" lon="10.9676379"><ele>620.0</ele><time>2026-04-25T13:36:34.352Z</time></trkpt><trkpt lat="45.6160649" lon="10.9675646"><ele>620.0</ele><time>2026-04-25T13:36:35.353Z</time></trkpt><trkpt lat="45.6162217" lon="10.9674739"><ele>621.6666666666666</ele><time>2026-04-25T13:36:36.352Z</time></trkpt><trkpt lat="45.6163793" lon="10.9673641"><ele>623.3333333333334</ele><time>2026-04-25T13:36:37.352Z</time></trkpt><trkpt lat="45.6165179" lon="10.9672455"><ele>625.0</ele><time>2026-04-25T13:36:38.352Z</time></trkpt><trkpt lat="45.6166394" lon="10.9671142"><ele>625.0</ele><time>2026-04-25T13:36:39.352Z</time></trkpt><trkpt lat="45.6167371" lon="10.9669816"><ele>625.0</ele><time>2026-04-25T13:36:40.352Z</time></trkpt><trkpt lat="45.6168193" lon="10.9668638"><ele>625.0</ele><time>2026-04-25T13:36:41.352Z</time></trkpt><trkpt lat="45.6168948" lon="10.966766"><ele>625.0</ele><time>2026-04-25T13:36:42.352Z</time></trkpt><trkpt lat="45.6169676" lon="10.9667053"><ele>625.0</ele><time>2026-04-25T13:36:43.353Z</time></trkpt><trkpt lat="45.6170625" lon="10.9666823"><ele>623.0</ele><time>2026-04-25T13:36:44.352Z</time></trkpt><trkpt lat="45.6171892" lon="10.966667"><ele>621.0</ele><time>2026-04-25T13:36:45.353Z</time></trkpt><trkpt lat="45.6173425" lon="10.9666557"><ele>619.0</ele><time>2026-04-25T13:36:46.352Z</time></trkpt><trkpt lat="45.6175065" lon="10.966629"><ele>617.0</ele><time>2026-04-25T13:36:47.352Z</time></trkpt><trkpt lat="45.6176754" lon="10.9665891"><ele>624.0</ele><time>2026-04-25T13:36:48.353Z</time></trkpt><trkpt lat="45.6178436" lon="10.9665449"><ele>631.0</ele><time>2026-04-25T13:36:49.353Z</time></trkpt><trkpt lat="45.6180112" lon="10.9664946"><ele>638.0</ele><time>2026-04-25T13:36:50.352Z</time></trkpt><trkpt lat="45.6181954" lon="10.9664388"><ele>638.0</ele><time>2026-04-25T13:36:51.353Z</time></trkpt><trkpt lat="45.6183755" lon="10.9663738"><ele>638.0</ele><time>2026-04-25T13:36:52.353Z</time></trkpt><trkpt lat="45.6185417" lon="10.9662978"><ele>638.0</ele><time>2026-04-25T13:36:53.353Z</time></trkpt><trkpt lat="45.6186918" lon="10.966197"><ele>636.6666666666666</ele><time>2026-04-25T13:36:54.354Z</time></trkpt><trkpt lat="45.6188346" lon="10.9660838"><ele>635.3333333333334</ele><time>2026-04-25T13:36:55.352Z</time></trkpt><trkpt lat="45.6189665" lon="10.9659571"><ele>634.0</ele><time>2026-04-25T13:36:56.353Z</time></trkpt><trkpt lat="45.619088" lon="10.9658085"><ele>634.0</ele><time>2026-04-25T13:36:57.353Z</time></trkpt><trkpt lat="45.6192042" lon="10.9656612"><ele>634.0</ele><time>2026-04-25T13:36:58.352Z</time></trkpt><trkpt lat="45.6192911" lon="10.9655434"><ele>634.0</ele><time>2026-04-25T13:36:59.352Z</time></trkpt><trkpt lat="45.6193604" lon="10.9654575"><ele>634.0</ele><time>2026-04-25T13:37:00.353Z</time></trkpt><trkpt lat="45.6194446" lon="10.9654086"><ele>638.6666666666667</ele><time>2026-04-25T13:37:01.352Z</time></trkpt><trkpt lat="45.6195467" lon="10.9654095"><ele>643.3333333333334</ele><time>2026-04-25T13:37:02.352Z</time></trkpt><trkpt lat="45.6196428" lon="10.9654484"><ele>648.0</ele><time>2026-04-25T13:37:03.354Z</time></trkpt><trkpt lat="45.6197124" lon="10.9654721"><ele>652.6666666666666</ele><time>2026-04-25T13:37:04.353Z</time></trkpt><trkpt lat="45.6197758" lon="10.965448"><ele>657.3333333333333</ele><time>2026-04-25T13:37:05.353Z</time></trkpt><trkpt lat="45.6198309" lon="10.9653649"><ele>662.0</ele><time>2026-04-25T13:37:06.354Z</time></trkpt><trkpt lat="45.6198743" lon="10.965217"><ele>662.0</ele><time>2026-04-25T13:37:07.353Z</time></trkpt><trkpt lat="45.6199082" lon="10.9650529"><ele>662.0</ele><time>2026-04-25T13:37:08.353Z</time></trkpt><trkpt lat="45.6199317" lon="10.9649078"><ele>662.0</ele><time>2026-04-25T13:37:09.354Z</time></trkpt><trkpt lat="45.6199611" lon="10.9647866"><ele>662.0</ele><time>2026-04-25T13:37:10.353Z</time></trkpt><trkpt lat="45.6200073" lon="10.9647072"><ele>662.0</ele><time>2026-04-25T13:37:11.354Z</time></trkpt><trkpt lat="45.620092" lon="10.9646662"><ele>664.5</ele><time>2026-04-25T13:37:12.353Z</time></trkpt><trkpt lat="45.6201957" lon="10.9646398"><ele>667.0</ele><time>2026-04-25T13:37:13.353Z</time></trkpt><trkpt lat="45.6203166" lon="10.9645879"><ele>669.5</ele><time>2026-04-25T13:37:14.354Z</time></trkpt><trkpt lat="45.6204502" lon="10.9645267"><ele>672.0</ele><time>2026-04-25T13:37:15.354Z</time></trkpt><trkpt lat="45.6205779" lon="10.9644453"><ele>672.0</ele><time>2026-04-25T13:37:16.353Z</time></trkpt><trkpt lat="45.6206932" lon="10.964376"><ele>672.0</ele><time>2026-04-25T13:37:17.354Z</time></trkpt><trkpt lat="45.6208064" lon="10.9643049"><ele>672.0</ele><time>2026-04-25T13:37:18.353Z</time></trkpt><trkpt lat="45.6209196" lon="10.9642466"><ele>672.0</ele><time>2026-04-25T13:37:19.354Z</time></trkpt><trkpt lat="45.6210451" lon="10.9642152"><ele>678.0</ele><time>2026-04-25T13:37:20.353Z</time></trkpt><trkpt lat="45.6211885" lon="10.9642098"><ele>684.0</ele><time>2026-04-25T13:37:21.353Z</time></trkpt><trkpt lat="45.6213458" lon="10.9642211"><ele>690.0</ele><time>2026-04-25T13:37:22.353Z</time></trkpt><trkpt lat="45.6215024" lon="10.9642395"><ele>690.0</ele><time>2026-04-25T13:37:23.354Z</time></trkpt><trkpt lat="45.6216622" lon="10.9642646"><ele>690.0</ele><time>2026-04-25T13:37:24.354Z</time></trkpt><trkpt lat="45.6218171" lon="10.9642703"><ele>690.0</ele><time>2026-04-25T13:37:25.353Z</time></trkpt><trkpt lat="45.6219721" lon="10.9642648"><ele>692.75</ele><time>2026-04-25T13:37:26.353Z</time></trkpt><trkpt lat="45.6221258" lon="10.9642497"><ele>695.5</ele><time>2026-04-25T13:37:27.354Z</time></trkpt><trkpt lat="45.6222357" lon="10.9642036"><ele>698.25</ele><time>2026-04-25T13:37:28.353Z</time></trkpt><trkpt lat="45.6223403" lon="10.964095"><ele>701.0</ele><time>2026-04-25T13:37:29.353Z</time></trkpt><trkpt lat="45.6224433" lon="10.963966"><ele>700.6666666666666</ele><time>2026-04-25T13:37:30.354Z</time></trkpt><trkpt lat="45.6225662" lon="10.9638368"><ele>700.3333333333334</ele><time>2026-04-25T13:37:31.353Z</time></trkpt><trkpt lat="45.6227072" lon="10.9637159"><ele>700.0</ele><time>2026-04-25T13:37:32.354Z</time></trkpt><trkpt lat="45.6228552" lon="10.9636204"><ele>700.0</ele><time>2026-04-25T13:37:33.354Z</time></trkpt><trkpt lat="45.6230118" lon="10.9635556"><ele>700.0</ele><time>2026-04-25T13:37:34.354Z</time></trkpt><trkpt lat="45.6231541" lon="10.9634897"><ele>700.0</ele><time>2026-04-25T13:37:35.353Z</time></trkpt><trkpt lat="45.6232688" lon="10.9634056"><ele>700.0</ele><time>2026-04-25T13:37:36.353Z</time></trkpt><trkpt lat="45.6233566" lon="10.9633123"><ele>697.6666666666667</ele><time>2026-04-25T13:37:37.353Z</time></trkpt><trkpt lat="45.623416" lon="10.9632172"><ele>695.3333333333334</ele><time>2026-04-25T13:37:38.353Z</time></trkpt><trkpt lat="45.6234563" lon="10.9631133"><ele>693.0</ele><time>2026-04-25T13:37:39.353Z</time></trkpt><trkpt lat="45.6234989" lon="10.9630072"><ele>690.6666666666666</ele><time>2026-04-25T13:37:40.354Z</time></trkpt><trkpt lat="45.6235474" lon="10.9629159"><ele>688.3333333333333</ele><time>2026-04-25T13:37:41.353Z</time></trkpt><trkpt lat="45.6236214" lon="10.962848"><ele>686.0</ele><time>2026-04-25T13:37:42.353Z</time></trkpt><trkpt lat="45.6237274" lon="10.9628107"><ele>686.0</ele><time>2026-04-25T13:37:43.354Z</time></trkpt><trkpt lat="45.6238487" lon="10.962792"><ele>686.0</ele><time>2026-04-25T13:37:44.354Z</time></trkpt><trkpt lat="45.6239813" lon="10.962788"><ele>686.0</ele><time>2026-04-25T13:37:45.353Z</time></trkpt><trkpt lat="45.6241383" lon="10.9627857"><ele>686.0</ele><time>2026-04-25T13:37:46.354Z</time></trkpt><trkpt lat="45.6242913" lon="10.9627356"><ele>686.0</ele><time>2026-04-25T13:37:47.354Z</time></trkpt><trkpt lat="45.6244409" lon="10.9626718"><ele>686.0</ele><time>2026-04-25T13:37:48.353Z</time></trkpt><trkpt lat="45.6245923" lon="10.962621"><ele>686.0</ele><time>2026-04-25T13:37:49.353Z</time></trkpt><trkpt lat="45.6247469" lon="10.9625766"><ele>681.6666666666666</ele><time>2026-04-25T13:37:50.354Z</time></trkpt><trkpt lat="45.6249036" lon="10.9625238"><ele>677.3333333333334</ele><time>2026-04-25T13:37:51.353Z</time></trkpt><trkpt lat="45.6250512" lon="10.9624596"><ele>673.0</ele><time>2026-04-25T13:37:52.353Z</time></trkpt><trkpt lat="45.6251827" lon="10.9623935"><ele>679.3333333333334</ele><time>2026-04-25T13:37:53.353Z</time></trkpt><trkpt lat="45.6253212" lon="10.9623378"><ele>685.6666666666666</ele><time>2026-04-25T13:37:54.353Z</time></trkpt><trkpt lat="45.6254729" lon="10.962308"><ele>692.0</ele><time>2026-04-25T13:37:55.353Z</time></trkpt><trkpt lat="45.6256335" lon="10.9622893"><ele>692.0</ele><time>2026-04-25T13:37:56.353Z</time></trkpt><trkpt lat="45.6258005" lon="10.9622797"><ele>692.0</ele><time>2026-04-25T13:37:57.353Z</time></trkpt><trkpt lat="45.6259526" lon="10.9622416"><ele>692.0</ele><time>2026-04-25T13:37:58.353Z</time></trkpt><trkpt lat="45.626095" lon="10.9621629"><ele>697.3333333333333</ele><time>2026-04-25T13:37:59.353Z</time></trkpt><trkpt lat="45.6262495" lon="10.9620781"><ele>702.6666666666666</ele><time>2026-04-25T13:38:00.353Z</time></trkpt><trkpt lat="45.6264014" lon="10.9620139"><ele>708.0</ele><time>2026-04-25T13:38:01.353Z</time></trkpt><trkpt lat="45.6265293" lon="10.9619594"><ele>708.0</ele><time>2026-04-25T13:38:02.353Z</time></trkpt><trkpt lat="45.6266388" lon="10.9618989"><ele>708.0</ele><time>2026-04-25T13:38:03.354Z</time></trkpt><trkpt lat="45.6267321" lon="10.9618458"><ele>708.0</ele><time>2026-04-25T13:38:04.353Z</time></trkpt><trkpt lat="45.626831" lon="10.961822"><ele>708.0</ele><time>2026-04-25T13:38:05.354Z</time></trkpt><trkpt lat="45.6269359" lon="10.9618197"><ele>708.0</ele><time>2026-04-25T13:38:06.353Z</time></trkpt><trkpt lat="45.6270575" lon="10.9618593"><ele>710.0</ele><time>2026-04-25T13:38:07.354Z</time></trkpt><trkpt lat="45.6271911" lon="10.9619106"><ele>712.0</ele><time>2026-04-25T13:38:08.355Z</time></trkpt><trkpt lat="45.6273304" lon="10.9619571"><ele>714.0</ele><time>2026-04-25T13:38:09.354Z</time></trkpt><trkpt lat="45.6274541" lon="10.9619562"><ele>716.0</ele><time>2026-04-25T13:38:10.354Z</time></trkpt><trkpt lat="45.6275783" lon="10.9619064"><ele>716.0</ele><time>2026-04-25T13:38:11.354Z</time></trkpt><trkpt lat="45.6276951" lon="10.9617996"><ele>716.0</ele><time>2026-04-25T13:38:12.354Z</time></trkpt><trkpt lat="45.6278062" lon="10.9617003"><ele>716.0</ele><time>2026-04-25T13:38:13.354Z</time></trkpt><trkpt lat="45.6278922" lon="10.9616269"><ele>716.0</ele><time>2026-04-25T13:38:14.355Z</time></trkpt><trkpt lat="45.6279827" lon="10.9615687"><ele>717.75</ele><time>2026-04-25T13:38:15.355Z</time></trkpt><trkpt lat="45.6280775" lon="10.9615386"><ele>719.5</ele><time>2026-04-25T13:38:16.355Z</time></trkpt><trkpt lat="45.6281792" lon="10.9616238"><ele>721.25</ele><time>2026-04-25T13:38:17.355Z</time></trkpt><trkpt lat="45.6282799" lon="10.9617153"><ele>723.0</ele><time>2026-04-25T13:38:18.354Z</time></trkpt><trkpt lat="45.6283923" lon="10.961798"><ele>723.0</ele><time>2026-04-25T13:38:19.354Z</time></trkpt><trkpt lat="45.6285131" lon="10.9618454"><ele>723.0</ele><time>2026-04-25T13:38:20.354Z</time></trkpt><trkpt lat="45.6286409" lon="10.9618685"><ele>723.0</ele><time>2026-04-25T13:38:21.354Z</time></trkpt><trkpt lat="45.6288145" lon="10.9618249"><ele>723.0</ele><time>2026-04-25T13:38:22.354Z</time></trkpt><trkpt lat="45.6289703" lon="10.9617896"><ele>726.0</ele><time>2026-04-25T13:38:23.354Z</time></trkpt><trkpt lat="45.6291212" lon="10.9617606"><ele>729.0</ele><time>2026-04-25T13:38:24.355Z</time></trkpt><trkpt lat="45.62926" lon="10.9617167"><ele>732.0</ele><time>2026-04-25T13:38:25.355Z</time></trkpt><trkpt lat="45.6293812" lon="10.961623"><ele>735.0</ele><time>2026-04-25T13:38:26.354Z</time></trkpt><trkpt lat="45.629474" lon="10.9615081"><ele>733.0</ele><time>2026-04-25T13:38:27.355Z</time></trkpt><trkpt lat="45.6295437" lon="10.9614108"><ele>731.0</ele><time>2026-04-25T13:38:28.354Z</time></trkpt><trkpt lat="45.6295858" lon="10.9613247"><ele>729.0</ele><time>2026-04-25T13:38:29.354Z</time></trkpt><trkpt lat="45.6296667" lon="10.9612308"><ele>727.0</ele><time>2026-04-25T13:38:31.354Z</time></trkpt><trkpt lat="45.6296886" lon="10.9613358"><ele>725.0</ele><time>2026-04-25T13:38:33.354Z</time></trkpt><trkpt lat="45.6296442" lon="10.9614255"><ele>723.0</ele><time>2026-04-25T13:38:34.355Z</time></trkpt><trkpt lat="45.6295492" lon="10.9615314"><ele>727.0</ele><time>2026-04-25T13:38:35.354Z</time></trkpt><trkpt lat="45.6294235" lon="10.9616307"><ele>731.0</ele><time>2026-04-25T13:38:36.354Z</time></trkpt><trkpt lat="45.6292851" lon="10.9617447"><ele>735.0</ele><time>2026-04-25T13:38:37.354Z</time></trkpt><trkpt lat="45.6291472" lon="10.9618567"><ele>735.0</ele><time>2026-04-25T13:38:38.355Z</time></trkpt><trkpt lat="45.6290141" lon="10.9619484"><ele>735.0</ele><time>2026-04-25T13:38:39.355Z</time></trkpt><trkpt lat="45.6288655" lon="10.9620115"><ele>735.0</ele><time>2026-04-25T13:38:40.355Z</time></trkpt><trkpt lat="45.628717" lon="10.9620774"><ele>732.0</ele><time>2026-04-25T13:38:41.354Z</time></trkpt><trkpt lat="45.6285763" lon="10.9621325"><ele>729.0</ele><time>2026-04-25T13:38:42.354Z</time></trkpt><trkpt lat="45.6284468" lon="10.9621821"><ele>726.0</ele><time>2026-04-25T13:38:43.354Z</time></trkpt><trkpt lat="45.6283348" lon="10.9622005"><ele>723.0</ele><time>2026-04-25T13:38:44.354Z</time></trkpt><trkpt lat="45.6282295" lon="10.9621937"><ele>723.0</ele><time>2026-04-25T13:38:45.355Z</time></trkpt><trkpt lat="45.6281285" lon="10.9621523"><ele>723.0</ele><time>2026-04-25T13:38:46.354Z</time></trkpt><trkpt lat="45.6280236" lon="10.9620899"><ele>723.0</ele><time>2026-04-25T13:38:47.355Z</time></trkpt><trkpt lat="45.6279334" lon="10.9620564"><ele>723.0</ele><time>2026-04-25T13:38:48.355Z</time></trkpt><trkpt lat="45.6278412" lon="10.9620632"><ele>723.0</ele><time>2026-04-25T13:38:49.354Z</time></trkpt><trkpt lat="45.6277198" lon="10.9621267"><ele>721.25</ele><time>2026-04-25T13:38:50.354Z</time></trkpt><trkpt lat="45.6275944" lon="10.962222"><ele>719.5</ele><time>2026-04-25T13:38:51.354Z</time></trkpt><trkpt lat="45.6274619" lon="10.9623108"><ele>717.75</ele><time>2026-04-25T13:38:52.354Z</time></trkpt><trkpt lat="45.6273268" lon="10.9623633"><ele>716.0</ele><time>2026-04-25T13:38:53.355Z</time></trkpt><trkpt lat="45.6271872" lon="10.9623822"><ele>716.0</ele><time>2026-04-25T13:38:54.355Z</time></trkpt><trkpt lat="45.6270387" lon="10.9623915"><ele>716.0</ele><time>2026-04-25T13:38:55.354Z</time></trkpt><trkpt lat="45.626899" lon="10.9623991"><ele>716.0</ele><time>2026-04-25T13:38:56.355Z</time></trkpt><trkpt lat="45.6267719" lon="10.9624193"><ele>716.0</ele><time>2026-04-25T13:38:57.354Z</time></trkpt><trkpt lat="45.6266581" lon="10.9624478"><ele>714.0</ele><time>2026-04-25T13:38:58.354Z</time></trkpt><trkpt lat="45.6265379" lon="10.9625007"><ele>712.0</ele><time>2026-04-25T13:38:59.355Z</time></trkpt><trkpt lat="45.6264339" lon="10.962593"><ele>710.0</ele><time>2026-04-25T13:39:00.354Z</time></trkpt><trkpt lat="45.6263391" lon="10.9626955"><ele>708.0</ele><time>2026-04-25T13:39:01.354Z</time></trkpt><trkpt lat="45.626252" lon="10.9627618"><ele>713.75</ele><time>2026-04-25T13:39:02.355Z</time></trkpt><trkpt lat="45.6261745" lon="10.9627672"><ele>719.5</ele><time>2026-04-25T13:39:03.354Z</time></trkpt><trkpt lat="45.6260629" lon="10.9628109"><ele>725.25</ele><time>2026-04-25T13:39:04.355Z</time></trkpt><trkpt lat="45.6259425" lon="10.9628653"><ele>731.0</ele><time>2026-04-25T13:39:05.355Z</time></trkpt><trkpt lat="45.6257875" lon="10.9629653"><ele>731.0</ele><time>2026-04-25T13:39:06.354Z</time></trkpt><trkpt lat="45.6256165" lon="10.963053"><ele>731.0</ele><time>2026-04-25T13:39:07.354Z</time></trkpt><trkpt lat="45.6254582" lon="10.9631093"><ele>731.0</ele><time>2026-04-25T13:39:08.355Z</time></trkpt><trkpt lat="45.6253179" lon="10.9631449"><ele>729.5</ele><time>2026-04-25T13:39:09.354Z</time></trkpt><trkpt lat="45.6251832" lon="10.9631884"><ele>728.0</ele><time>2026-04-25T13:39:10.354Z</time></trkpt><trkpt lat="45.6250583" lon="10.9632502"><ele>726.5</ele><time>2026-04-25T13:39:11.355Z</time></trkpt><trkpt lat="45.6249554" lon="10.9633164"><ele>725.0</ele><time>2026-04-25T13:39:12.356Z</time></trkpt><trkpt lat="45.6248779" lon="10.9633661"><ele>725.0</ele><time>2026-04-25T13:39:13.356Z</time></trkpt><trkpt lat="45.624779" lon="10.963476"><ele>725.0</ele><time>2026-04-25T13:39:15.355Z</time></trkpt><trkpt lat="45.6247584" lon="10.9635879"><ele>725.0</ele><time>2026-04-25T13:39:16.356Z</time></trkpt><trkpt lat="45.6247826" lon="10.9637483"><ele>725.0</ele><time>2026-04-25T13:39:17.355Z</time></trkpt><trkpt lat="45.6248139" lon="10.9638999"><ele>725.0</ele><time>2026-04-25T13:39:18.355Z</time></trkpt><trkpt lat="45.6248669" lon="10.9640618"><ele>726.0</ele><time>2026-04-25T13:39:19.356Z</time></trkpt><trkpt lat="45.624913" lon="10.964222"><ele>727.0</ele><time>2026-04-25T13:39:20.355Z</time></trkpt><trkpt lat="45.6249285" lon="10.9643674"><ele>728.0</ele><time>2026-04-25T13:39:21.356Z</time></trkpt><trkpt lat="45.6249191" lon="10.9644832"><ele>729.0</ele><time>2026-04-25T13:39:22.356Z</time></trkpt><trkpt lat="45.6249017" lon="10.9645723"><ele>730.0</ele><time>2026-04-25T13:39:23.355Z</time></trkpt><trkpt lat="45.6249058" lon="10.9646772"><ele>731.0</ele><time>2026-04-25T13:39:25.355Z</time></trkpt><trkpt lat="45.6250194" lon="10.9646852"><ele>731.0</ele><time>2026-04-25T13:39:27.356Z</time></trkpt><trkpt lat="45.6250652" lon="10.9645199"><ele>731.0</ele><time>2026-04-25T13:39:29.355Z</time></trkpt><trkpt lat="45.6250493" lon="10.9643714"><ele>731.0</ele><time>2026-04-25T13:39:30.356Z</time></trkpt><trkpt lat="45.625037" lon="10.9642651"><ele>731.0</ele><time>2026-04-25T13:39:31.356Z</time></trkpt><trkpt lat="45.6250234" lon="10.9641757"><ele>731.0</ele><time>2026-04-25T13:39:32.355Z</time></trkpt><trkpt lat="45.6250186" lon="10.9640771"><ele>731.0</ele><time>2026-04-25T13:39:33.355Z</time></trkpt><trkpt lat="45.6250131" lon="10.9639483"><ele>729.8</ele><time>2026-04-25T13:39:34.356Z</time></trkpt><trkpt lat="45.6250062" lon="10.9638003"><ele>728.5999999999999</ele><time>2026-04-25T13:39:35.355Z</time></trkpt><trkpt lat="45.6250039" lon="10.963654"><ele>727.4</ele><time>2026-04-25T13:39:36.355Z</time></trkpt><trkpt lat="45.625019" lon="10.9635247"><ele>726.2</ele><time>2026-04-25T13:39:37.355Z</time></trkpt><trkpt lat="45.6250557" lon="10.963425"><ele>725.0</ele><time>2026-04-25T13:39:38.355Z</time></trkpt><trkpt lat="45.6251195" lon="10.9633635"><ele>726.5</ele><time>2026-04-25T13:39:39.356Z</time></trkpt><trkpt lat="45.6251985" lon="10.9633309"><ele>728.0</ele><time>2026-04-25T13:39:40.355Z</time></trkpt><trkpt lat="45.6252999" lon="10.9633046"><ele>729.5</ele><time>2026-04-25T13:39:41.356Z</time></trkpt><trkpt lat="45.6254332" lon="10.9632955"><ele>731.0</ele><time>2026-04-25T13:39:42.355Z</time></trkpt><trkpt lat="45.6255761" lon="10.963304"><ele>731.0</ele><time>2026-04-25T13:39:43.355Z</time></trkpt><trkpt lat="45.6257303" lon="10.9633035"><ele>731.0</ele><time>2026-04-25T13:39:44.355Z</time></trkpt><trkpt lat="45.6259004" lon="10.9632866"><ele>731.0</ele><time>2026-04-25T13:39:45.356Z</time></trkpt><trkpt lat="45.626073" lon="10.9632495"><ele>735.0</ele><time>2026-04-25T13:39:46.355Z</time></trkpt><trkpt lat="45.6262327" lon="10.9632061"><ele>739.0</ele><time>2026-04-25T13:39:47.355Z</time></trkpt><trkpt lat="45.6263685" lon="10.9631792"><ele>743.0</ele><time>2026-04-25T13:39:48.355Z</time></trkpt><trkpt lat="45.6264979" lon="10.9631753"><ele>747.0</ele><time>2026-04-25T13:39:49.356Z</time></trkpt><trkpt lat="45.6265891" lon="10.963154"><ele>747.0</ele><time>2026-04-25T13:39:50.355Z</time></trkpt><trkpt lat="45.6266791" lon="10.9630832"><ele>747.0</ele><time>2026-04-25T13:39:51.356Z</time></trkpt><trkpt lat="45.626763" lon="10.9629973"><ele>747.0</ele><time>2026-04-25T13:39:52.355Z</time></trkpt><trkpt lat="45.6268595" lon="10.9629391"><ele>747.0</ele><time>2026-04-25T13:39:53.355Z</time></trkpt><trkpt lat="45.6269838" lon="10.9629042"><ele>747.0</ele><time>2026-04-25T13:39:54.355Z</time></trkpt><trkpt lat="45.627133" lon="10.962889"><ele>752.6666666666666</ele><time>2026-04-25T13:39:55.356Z</time></trkpt><trkpt lat="45.6272997" lon="10.9628892"><ele>758.3333333333333</ele><time>2026-04-25T13:39:56.355Z</time></trkpt><trkpt lat="45.627469" lon="10.962896"><ele>764.0</ele><time>2026-04-25T13:39:57.355Z</time></trkpt><trkpt lat="45.6276416" lon="10.9628978"><ele>768.0</ele><time>2026-04-25T13:39:58.355Z</time></trkpt><trkpt lat="45.6278186" lon="10.962895"><ele>772.0</ele><time>2026-04-25T13:39:59.356Z</time></trkpt><trkpt lat="45.6280227" lon="10.9628984"><ele>776.0</ele><time>2026-04-25T13:40:00.356Z</time></trkpt><trkpt lat="45.6282089" lon="10.9629082"><ele>776.0</ele><time>2026-04-25T13:40:01.355Z</time></trkpt><trkpt lat="45.6283894" lon="10.9629181"><ele>776.0</ele><time>2026-04-25T13:40:02.355Z</time></trkpt><trkpt lat="45.6285661" lon="10.9629228"><ele>776.0</ele><time>2026-04-25T13:40:03.355Z</time></trkpt><trkpt lat="45.6287426" lon="10.9629123"><ele>781.6666666666667</ele><time>2026-04-25T13:40:04.355Z</time></trkpt><trkpt lat="45.6289207" lon="10.9628775"><ele>787.3333333333333</ele><time>2026-04-25T13:40:05.356Z</time></trkpt><trkpt lat="45.6290985" lon="10.9628172"><ele>793.0</ele><time>2026-04-25T13:40:06.355Z</time></trkpt><trkpt lat="45.6292786" lon="10.9627652"><ele>793.0</ele><time>2026-04-25T13:40:07.356Z</time></trkpt><trkpt lat="45.6294592" lon="10.9627172"><ele>793.0</ele><time>2026-04-25T13:40:08.355Z</time></trkpt><trkpt lat="45.6296304" lon="10.9626613"><ele>793.0</ele><time>2026-04-25T13:40:09.356Z</time></trkpt><trkpt lat="45.6297869" lon="10.9626088"><ele>794.25</ele><time>2026-04-25T13:40:10.355Z</time></trkpt><trkpt lat="45.6299206" lon="10.9625623"><ele>795.5</ele><time>2026-04-25T13:40:11.355Z</time></trkpt><trkpt lat="45.6300362" lon="10.9625389"><ele>796.75</ele><time>2026-04-25T13:40:12.356Z</time></trkpt><trkpt lat="45.630145" lon="10.9625243"><ele>798.0</ele><time>2026-04-25T13:40:13.355Z</time></trkpt><trkpt lat="45.6302458" lon="10.9625375"><ele>798.0</ele><time>2026-04-25T13:40:14.355Z</time></trkpt><trkpt lat="45.6303225" lon="10.9625336"><ele>798.0</ele><time>2026-04-25T13:40:15.356Z</time></trkpt><trkpt lat="45.6303886" lon="10.9624407"><ele>798.0</ele><time>2026-04-25T13:40:16.355Z</time></trkpt><trkpt lat="45.6304663" lon="10.9622836"><ele>798.0</ele><time>2026-04-25T13:40:17.357Z</time></trkpt><trkpt lat="45.6305645" lon="10.9620965"><ele>798.0</ele><time>2026-04-25T13:40:18.356Z</time></trkpt><trkpt lat="45.6306923" lon="10.9619229"><ele>798.0</ele><time>2026-04-25T13:40:19.357Z</time></trkpt><trkpt lat="45.6308258" lon="10.9617587"><ele>798.0</ele><time>2026-04-25T13:40:20.356Z</time></trkpt><trkpt lat="45.630965" lon="10.9616192"><ele>800.0</ele><time>2026-04-25T13:40:21.356Z</time></trkpt><trkpt lat="45.6310795" lon="10.961502"><ele>802.0</ele><time>2026-04-25T13:40:22.357Z</time></trkpt><trkpt lat="45.6311767" lon="10.9613851"><ele>804.0</ele><time>2026-04-25T13:40:23.357Z</time></trkpt><trkpt lat="45.6312525" lon="10.9612305"><ele>806.0</ele><time>2026-04-25T13:40:24.357Z</time></trkpt><trkpt lat="45.6313228" lon="10.9610409"><ele>806.0</ele><time>2026-04-25T13:40:25.357Z</time></trkpt><trkpt lat="45.6314013" lon="10.9608863"><ele>806.0</ele><time>2026-04-25T13:40:26.356Z</time></trkpt><trkpt lat="45.6315197" lon="10.9607458"><ele>806.0</ele><time>2026-04-25T13:40:27.356Z</time></trkpt><trkpt lat="45.6316771" lon="10.9606226"><ele>798.0</ele><time>2026-04-25T13:40:28.356Z</time></trkpt><trkpt lat="45.6318353" lon="10.9604957"><ele>790.0</ele><time>2026-04-25T13:40:29.356Z</time></trkpt><trkpt lat="45.6319707" lon="10.9603351"><ele>782.0</ele><time>2026-04-25T13:40:30.356Z</time></trkpt><trkpt lat="45.6320866" lon="10.9601738"><ele>784.6666666666667</ele><time>2026-04-25T13:40:31.357Z</time></trkpt><trkpt lat="45.6322129" lon="10.9600151"><ele>787.3333333333333</ele><time>2026-04-25T13:40:32.356Z</time></trkpt><trkpt lat="45.6323438" lon="10.9598738"><ele>790.0</ele><time>2026-04-25T13:40:33.356Z</time></trkpt><trkpt lat="45.6324966" lon="10.9597612"><ele>790.0</ele><time>2026-04-25T13:40:34.356Z</time></trkpt><trkpt lat="45.632658" lon="10.9596607"><ele>790.0</ele><time>2026-04-25T13:40:35.356Z</time></trkpt><trkpt lat="45.6328093" lon="10.9595541"><ele>790.0</ele><time>2026-04-25T13:40:36.357Z</time></trkpt><trkpt lat="45.6329391" lon="10.9594456"><ele>787.75</ele><time>2026-04-25T13:40:37.356Z</time></trkpt><trkpt lat="45.6330576" lon="10.9593386"><ele>785.5</ele><time>2026-04-25T13:40:38.356Z</time></trkpt><trkpt lat="45.63318" lon="10.9592255"><ele>783.25</ele><time>2026-04-25T13:40:39.357Z</time></trkpt><trkpt lat="45.6333317" lon="10.9591419"><ele>781.0</ele><time>2026-04-25T13:40:40.357Z</time></trkpt><trkpt lat="45.6335029" lon="10.9590689"><ele>788.6666666666666</ele><time>2026-04-25T13:40:41.357Z</time></trkpt><trkpt lat="45.6336693" lon="10.958982"><ele>796.3333333333333</ele><time>2026-04-25T13:40:42.356Z</time></trkpt><trkpt lat="45.6338094" lon="10.9589138"><ele>804.0</ele><time>2026-04-25T13:40:43.356Z</time></trkpt><trkpt lat="45.633932" lon="10.958856"><ele>804.0</ele><time>2026-04-25T13:40:44.356Z</time></trkpt><trkpt lat="45.6340419" lon="10.958771"><ele>804.0</ele><time>2026-04-25T13:40:45.357Z</time></trkpt><trkpt lat="45.634137" lon="10.9587161"><ele>804.0</ele><time>2026-04-25T13:40:46.357Z</time></trkpt><trkpt lat="45.634236" lon="10.9586853"><ele>804.0</ele><time>2026-04-25T13:40:47.356Z</time></trkpt><trkpt lat="45.6343506" lon="10.9586791"><ele>804.0</ele><time>2026-04-25T13:40:48.356Z</time></trkpt><trkpt lat="45.6344574" lon="10.9586861"><ele>809.5</ele><time>2026-04-25T13:40:49.356Z</time></trkpt><trkpt lat="45.6345415" lon="10.9586755"><ele>815.0</ele><time>2026-04-25T13:40:50.356Z</time></trkpt><trkpt lat="45.6346404" lon="10.9585868"><ele>820.5</ele><time>2026-04-25T13:40:51.356Z</time></trkpt><trkpt lat="45.6347689" lon="10.9584645"><ele>826.0</ele><time>2026-04-25T13:40:52.356Z</time></trkpt><trkpt lat="45.6349277" lon="10.9583804"><ele>822.75</ele><time>2026-04-25T13:40:53.356Z</time></trkpt><trkpt lat="45.6350726" lon="10.9582999"><ele>819.5</ele><time>2026-04-25T13:40:54.356Z</time></trkpt><trkpt lat="45.6351859" lon="10.9582146"><ele>816.25</ele><time>2026-04-25T13:40:55.356Z</time></trkpt><trkpt lat="45.6352987" lon="10.9581285"><ele>813.0</ele><time>2026-04-25T13:40:56.356Z</time></trkpt><trkpt lat="45.6354076" lon="10.9580491"><ele>813.0</ele><time>2026-04-25T13:40:57.356Z</time></trkpt><trkpt lat="45.6355465" lon="10.9579964"><ele>813.0</ele><time>2026-04-25T13:40:58.356Z</time></trkpt><trkpt lat="45.6357204" lon="10.9579511"><ele>813.0</ele><time>2026-04-25T13:40:59.356Z</time></trkpt><trkpt lat="45.6358788" lon="10.9578981"><ele>813.0</ele><time>2026-04-25T13:41:00.356Z</time></trkpt><trkpt lat="45.6359834" lon="10.9578437"><ele>813.0</ele><time>2026-04-25T13:41:01.356Z</time></trkpt><trkpt lat="45.6360884" lon="10.9577968"><ele>813.0</ele><time>2026-04-25T13:41:02.356Z</time></trkpt><trkpt lat="45.636223" lon="10.9577183"><ele>813.0</ele><time>2026-04-25T13:41:03.356Z</time></trkpt><trkpt lat="45.636341" lon="10.9576302"><ele>809.6666666666667</ele><time>2026-04-25T13:41:04.356Z</time></trkpt><trkpt lat="45.6364923" lon="10.9575199"><ele>806.3333333333334</ele><time>2026-04-25T13:41:05.356Z</time></trkpt><trkpt lat="45.6366205" lon="10.9574678"><ele>803.0</ele><time>2026-04-25T13:41:06.356Z</time></trkpt><trkpt lat="45.6367658" lon="10.9573532"><ele>803.0</ele><time>2026-04-25T13:41:07.357Z</time></trkpt><trkpt lat="45.6368749" lon="10.9572647"><ele>803.0</ele><time>2026-04-25T13:41:08.356Z</time></trkpt><trkpt lat="45.6369724" lon="10.9571528"><ele>803.0</ele><time>2026-04-25T13:41:09.357Z</time></trkpt><trkpt lat="45.6370629" lon="10.9570167"><ele>803.0</ele><time>2026-04-25T13:41:10.357Z</time></trkpt><trkpt lat="45.6371564" lon="10.9568843"><ele>802.0</ele><time>2026-04-25T13:41:11.357Z</time></trkpt><trkpt lat="45.6372601" lon="10.9567721"><ele>801.0</ele><time>2026-04-25T13:41:12.356Z</time></trkpt><trkpt lat="45.637362" lon="10.9566573"><ele>800.0</ele><time>2026-04-25T13:41:13.356Z</time></trkpt><trkpt lat="45.6374536" lon="10.9565513"><ele>799.0</ele><time>2026-04-25T13:41:14.357Z</time></trkpt><trkpt lat="45.6375319" lon="10.9564856"><ele>799.0</ele><time>2026-04-25T13:41:15.356Z</time></trkpt><trkpt lat="45.637604" lon="10.9564426"><ele>799.0</ele><time>2026-04-25T13:41:16.356Z</time></trkpt><trkpt lat="45.6376724" lon="10.9564533"><ele>799.0</ele><time>2026-04-25T13:41:17.356Z</time></trkpt><trkpt lat="45.6377542" lon="10.9565112"><ele>799.0</ele><time>2026-04-25T13:41:18.357Z</time></trkpt><trkpt lat="45.6378575" lon="10.9565345"><ele>799.0</ele><time>2026-04-25T13:41:20.358Z</time></trkpt><trkpt lat="45.6379176" lon="10.9563664"><ele>799.6</ele><time>2026-04-25T13:41:22.357Z</time></trkpt><trkpt lat="45.6379287" lon="10.9562165"><ele>800.2</ele><time>2026-04-25T13:41:23.357Z</time></trkpt><trkpt lat="45.6379571" lon="10.9560704"><ele>800.8000000000001</ele><time>2026-04-25T13:41:24.357Z</time></trkpt><trkpt lat="45.6380222" lon="10.9559499"><ele>801.4000000000001</ele><time>2026-04-25T13:41:25.357Z</time></trkpt><trkpt lat="45.638126" lon="10.9558643"><ele>802.0</ele><time>2026-04-25T13:41:26.357Z</time></trkpt><trkpt lat="45.6382834" lon="10.9557969"><ele>802.0</ele><time>2026-04-25T13:41:27.357Z</time></trkpt><trkpt lat="45.6384233" lon="10.9557281"><ele>802.0</ele><time>2026-04-25T13:41:28.357Z</time></trkpt><trkpt lat="45.6385723" lon="10.9556487"><ele>802.0</ele><time>2026-04-25T13:41:29.357Z</time></trkpt><trkpt lat="45.63871" lon="10.955548"><ele>810.75</ele><time>2026-04-25T13:41:30.357Z</time></trkpt><trkpt lat="45.6388149" lon="10.9554394"><ele>819.5</ele><time>2026-04-25T13:41:31.357Z</time></trkpt><trkpt lat="45.6389219" lon="10.9553346"><ele>828.25</ele><time>2026-04-25T13:41:32.357Z</time></trkpt><trkpt lat="45.6390194" lon="10.9552473"><ele>837.0</ele><time>2026-04-25T13:41:33.357Z</time></trkpt><trkpt lat="45.6391153" lon="10.9551835"><ele>837.0</ele><time>2026-04-25T13:41:34.357Z</time></trkpt><trkpt lat="45.6391969" lon="10.9551604"><ele>837.0</ele><time>2026-04-25T13:41:35.357Z</time></trkpt><trkpt lat="45.6393001" lon="10.9552224"><ele>837.0</ele><time>2026-04-25T13:41:37.358Z</time></trkpt><trkpt lat="45.6393608" lon="10.9552574"><ele>837.0</ele><time>2026-04-25T13:41:38.357Z</time></trkpt><trkpt lat="45.6394284" lon="10.9552366"><ele>837.0</ele><time>2026-04-25T13:41:39.357Z</time></trkpt><trkpt lat="45.6395401" lon="10.9551598"><ele>836.25</ele><time>2026-04-25T13:41:40.357Z</time></trkpt><trkpt lat="45.639671" lon="10.955057"><ele>835.5</ele><time>2026-04-25T13:41:41.357Z</time></trkpt><trkpt lat="45.6397901" lon="10.9549266"><ele>834.75</ele><time>2026-04-25T13:41:42.358Z</time></trkpt><trkpt lat="45.6398751" lon="10.9548183"><ele>834.0</ele><time>2026-04-25T13:41:43.357Z</time></trkpt><trkpt lat="45.6399508" lon="10.9547236"><ele>834.0</ele><time>2026-04-25T13:41:44.357Z</time></trkpt><trkpt lat="45.6400355" lon="10.9546459"><ele>834.0</ele><time>2026-04-25T13:41:45.357Z</time></trkpt><trkpt lat="45.640116" lon="10.9545805"><ele>834.0</ele><time>2026-04-25T13:41:46.357Z</time></trkpt><trkpt lat="45.6401814" lon="10.9544758"><ele>834.0</ele><time>2026-04-25T13:41:47.358Z</time></trkpt><trkpt lat="45.6402276" lon="10.9543365"><ele>834.0</ele><time>2026-04-25T13:41:48.358Z</time></trkpt><trkpt lat="45.6402823" lon="10.954181"><ele>836.75</ele><time>2026-04-25T13:41:49.357Z</time></trkpt><trkpt lat="45.6403448" lon="10.954014"><ele>839.5</ele><time>2026-04-25T13:41:50.358Z</time></trkpt><trkpt lat="45.6404057" lon="10.953859"><ele>842.25</ele><time>2026-04-25T13:41:51.358Z</time></trkpt><trkpt lat="45.6404615" lon="10.9537312"><ele>845.0</ele><time>2026-04-25T13:41:52.357Z</time></trkpt><trkpt lat="45.640519" lon="10.953621"><ele>845.0</ele><time>2026-04-25T13:41:53.357Z</time></trkpt><trkpt lat="45.640593" lon="10.9535391"><ele>845.0</ele><time>2026-04-25T13:41:54.357Z</time></trkpt><trkpt lat="45.6406821" lon="10.9534544"><ele>845.0</ele><time>2026-04-25T13:41:55.357Z</time></trkpt><trkpt lat="45.6407809" lon="10.9533647"><ele>845.0</ele><time>2026-04-25T13:41:56.358Z</time></trkpt><trkpt lat="45.640883" lon="10.9532783"><ele>845.0</ele><time>2026-04-25T13:41:57.357Z</time></trkpt><trkpt lat="45.6409789" lon="10.9532087"><ele>843.0</ele><time>2026-04-25T13:41:58.357Z</time></trkpt><trkpt lat="45.6410675" lon="10.9531579"><ele>841.0</ele><time>2026-04-25T13:41:59.357Z</time></trkpt><trkpt lat="45.6411527" lon="10.9531421"><ele>839.0</ele><time>2026-04-25T13:42:00.358Z</time></trkpt><trkpt lat="45.6412459" lon="10.9531528"><ele>837.0</ele><time>2026-04-25T13:42:01.357Z</time></trkpt><trkpt lat="45.6413547" lon="10.9531966"><ele>835.0</ele><time>2026-04-25T13:42:02.357Z</time></trkpt><trkpt lat="45.641459" lon="10.9532239"><ele>835.0</ele><time>2026-04-25T13:42:03.357Z</time></trkpt><trkpt lat="45.6415661" lon="10.9532042"><ele>835.0</ele><time>2026-04-25T13:42:04.358Z</time></trkpt><trkpt lat="45.641671" lon="10.9531674"><ele>835.0</ele><time>2026-04-25T13:42:05.357Z</time></trkpt><trkpt lat="45.6417947" lon="10.9531211"><ele>835.0</ele><time>2026-04-25T13:42:06.358Z</time></trkpt><trkpt lat="45.6419311" lon="10.9530547"><ele>838.2</ele><time>2026-04-25T13:42:07.357Z</time></trkpt><trkpt lat="45.6420616" lon="10.9529708"><ele>841.4</ele><time>2026-04-25T13:42:08.357Z</time></trkpt><trkpt lat="45.6421699" lon="10.952904"><ele>844.5999999999999</ele><time>2026-04-25T13:42:09.357Z</time></trkpt><trkpt lat="45.6422588" lon="10.9528546"><ele>847.8</ele><time>2026-04-25T13:42:10.357Z</time></trkpt><trkpt lat="45.6423511" lon="10.952847"><ele>851.0</ele><time>2026-04-25T13:42:11.358Z</time></trkpt><trkpt lat="45.6424686" lon="10.9528729"><ele>851.0</ele><time>2026-04-25T13:42:12.357Z</time></trkpt><trkpt lat="45.6426288" lon="10.9529167"><ele>851.0</ele><time>2026-04-25T13:42:13.357Z</time></trkpt><trkpt lat="45.6428036" lon="10.9529265"><ele>851.0</ele><time>2026-04-25T13:42:14.358Z</time></trkpt><trkpt lat="45.6429546" lon="10.9529047"><ele>851.5</ele><time>2026-04-25T13:42:15.357Z</time></trkpt><trkpt lat="45.6430832" lon="10.9528862"><ele>852.0</ele><time>2026-04-25T13:42:16.357Z</time></trkpt><trkpt lat="45.643209" lon="10.952882"><ele>852.5</ele><time>2026-04-25T13:42:17.357Z</time></trkpt><trkpt lat="45.6433317" lon="10.9529199"><ele>853.0</ele><time>2026-04-25T13:42:18.357Z</time></trkpt><trkpt lat="45.6434405" lon="10.9529697"><ele>853.0</ele><time>2026-04-25T13:42:19.357Z</time></trkpt><trkpt lat="45.6435483" lon="10.9529887"><ele>853.0</ele><time>2026-04-25T13:42:20.357Z</time></trkpt><trkpt lat="45.6436536" lon="10.9529496"><ele>853.0</ele><time>2026-04-25T13:42:21.357Z</time></trkpt><trkpt lat="45.6437516" lon="10.9528779"><ele>853.0</ele><time>2026-04-25T13:42:22.357Z</time></trkpt><trkpt lat="45.6438277" lon="10.9528135"><ele>853.0</ele><time>2026-04-25T13:42:23.357Z</time></trkpt><trkpt lat="45.6438843" lon="10.9527683"><ele>851.0</ele><time>2026-04-25T13:42:24.358Z</time></trkpt><trkpt lat="45.6439979" lon="10.9526412"><ele>849.0</ele><time>2026-04-25T13:42:26.358Z</time></trkpt><trkpt lat="45.6440625" lon="10.952522"><ele>847.0</ele><time>2026-04-25T13:42:27.359Z</time></trkpt><trkpt lat="45.6441184" lon="10.9523597"><ele>845.0</ele><time>2026-04-25T13:42:28.358Z</time></trkpt><trkpt lat="45.6441672" lon="10.9521912"><ele>845.0</ele><time>2026-04-25T13:42:29.359Z</time></trkpt><trkpt lat="45.6442091" lon="10.9520421"><ele>845.0</ele><time>2026-04-25T13:42:30.358Z</time></trkpt><trkpt lat="45.6442522" lon="10.9519179"><ele>845.0</ele><time>2026-04-25T13:42:31.359Z</time></trkpt><trkpt lat="45.6442911" lon="10.9518082"><ele>845.0</ele><time>2026-04-25T13:42:32.358Z</time></trkpt><trkpt lat="45.6443257" lon="10.9517052"><ele>845.0</ele><time>2026-04-25T13:42:33.358Z</time></trkpt><trkpt lat="45.6443634" lon="10.951607"><ele>844.6666666666667</ele><time>2026-04-25T13:42:34.358Z</time></trkpt><trkpt lat="45.6444089" lon="10.9515152"><ele>844.3333333333334</ele><time>2026-04-25T13:42:35.358Z</time></trkpt><trkpt lat="45.6444632" lon="10.9514422"><ele>844.0</ele><time>2026-04-25T13:42:36.358Z</time></trkpt><trkpt lat="45.6445207" lon="10.9513803"><ele>843.6666666666667</ele><time>2026-04-25T13:42:37.358Z</time></trkpt><trkpt lat="45.6445744" lon="10.9513289"><ele>843.3333333333334</ele><time>2026-04-25T13:42:38.358Z</time></trkpt><trkpt lat="45.6446952" lon="10.9512766"><ele>843.0</ele><time>2026-04-25T13:42:40.358Z</time></trkpt><trkpt lat="45.6448033" lon="10.9512763"><ele>844.3333333333334</ele><time>2026-04-25T13:42:42.359Z</time></trkpt><trkpt lat="45.6448684" lon="10.9512723"><ele>845.6666666666667</ele><time>2026-04-25T13:42:46.358Z</time></trkpt><trkpt lat="45.6448968" lon="10.9511831"><ele>847.0</ele><time>2026-04-25T13:42:54.359Z</time></trkpt><trkpt lat="45.6448991" lon="10.9510926"><ele>848.3333333333334</ele><time>2026-04-25T13:42:55.358Z</time></trkpt><trkpt lat="45.6448767" lon="10.9509493"><ele>849.6666666666667</ele><time>2026-04-25T13:42:56.358Z</time></trkpt><trkpt lat="45.6448464" lon="10.950758"><ele>851.0</ele><time>2026-04-25T13:42:57.359Z</time></trkpt><trkpt lat="45.6448197" lon="10.950575"><ele>851.0</ele><time>2026-04-25T13:42:58.359Z</time></trkpt><trkpt lat="45.644779" lon="10.9503966"><ele>851.0</ele><time>2026-04-25T13:42:59.358Z</time></trkpt><trkpt lat="45.6447128" lon="10.9502055"><ele>851.0</ele><time>2026-04-25T13:43:00.359Z</time></trkpt><trkpt lat="45.6446413" lon="10.9500372"><ele>851.0</ele><time>2026-04-25T13:43:01.358Z</time></trkpt><trkpt lat="45.6445736" lon="10.9498793"><ele>851.5</ele><time>2026-04-25T13:43:02.358Z</time></trkpt><trkpt lat="45.6445163" lon="10.9497226"><ele>852.0</ele><time>2026-04-25T13:43:03.358Z</time></trkpt><trkpt lat="45.6444682" lon="10.9495768"><ele>852.5</ele><time>2026-04-25T13:43:04.358Z</time></trkpt><trkpt lat="45.6444302" lon="10.9494307"><ele>853.0</ele><time>2026-04-25T13:43:05.359Z</time></trkpt><trkpt lat="45.6443996" lon="10.9492666"><ele>855.0</ele><time>2026-04-25T13:43:06.358Z</time></trkpt><trkpt lat="45.6443834" lon="10.949083"><ele>857.0</ele><time>2026-04-25T13:43:07.358Z</time></trkpt><trkpt lat="45.6443913" lon="10.9488847"><ele>859.0</ele><time>2026-04-25T13:43:08.358Z</time></trkpt><trkpt lat="45.644416" lon="10.9486923"><ele>861.0</ele><time>2026-04-25T13:43:09.358Z</time></trkpt><trkpt lat="45.6444515" lon="10.948515"><ele>861.5</ele><time>2026-04-25T13:43:10.358Z</time></trkpt><trkpt lat="45.6445074" lon="10.9483604"><ele>862.0</ele><time>2026-04-25T13:43:11.359Z</time></trkpt><trkpt lat="45.6445701" lon="10.9482266"><ele>862.5</ele><time>2026-04-25T13:43:12.358Z</time></trkpt><trkpt lat="45.6446641" lon="10.9481142"><ele>863.0</ele><time>2026-04-25T13:43:13.359Z</time></trkpt><trkpt lat="45.6447622" lon="10.947999"><ele>863.0</ele><time>2026-04-25T13:43:14.358Z</time></trkpt><trkpt lat="45.6448602" lon="10.947874"><ele>863.0</ele><time>2026-04-25T13:43:15.358Z</time></trkpt><trkpt lat="45.6449517" lon="10.9477389"><ele>863.0</ele><time>2026-04-25T13:43:16.358Z</time></trkpt><trkpt lat="45.6450359" lon="10.9475953"><ele>863.0</ele><time>2026-04-25T13:43:17.358Z</time></trkpt><trkpt lat="45.6451223" lon="10.9474422"><ele>864.75</ele><time>2026-04-25T13:43:18.358Z</time></trkpt><trkpt lat="45.645199" lon="10.9472846"><ele>866.5</ele><time>2026-04-25T13:43:19.359Z</time></trkpt><trkpt lat="45.6452596" lon="10.9471231"><ele>868.25</ele><time>2026-04-25T13:43:20.359Z</time></trkpt><trkpt lat="45.6452936" lon="10.946946"><ele>870.0</ele><time>2026-04-25T13:43:21.358Z</time></trkpt><trkpt lat="45.6453063" lon="10.9467541"><ele>872.25</ele><time>2026-04-25T13:43:22.358Z</time></trkpt><trkpt lat="45.6453069" lon="10.946549"><ele>874.5</ele><time>2026-04-25T13:43:23.359Z</time></trkpt><trkpt lat="45.6453077" lon="10.9463338"><ele>876.75</ele><time>2026-04-25T13:43:24.358Z</time></trkpt><trkpt lat="45.645297" lon="10.9461394"><ele>879.0</ele><time>2026-04-25T13:43:25.358Z</time></trkpt><trkpt lat="45.6452573" lon="10.9459464"><ele>884.0</ele><time>2026-04-25T13:43:26.358Z</time></trkpt><trkpt lat="45.6451834" lon="10.9457348"><ele>889.0</ele><time>2026-04-25T13:43:27.358Z</time></trkpt><trkpt lat="45.6450994" lon="10.9454945"><ele>894.0</ele><time>2026-04-25T13:43:28.358Z</time></trkpt><trkpt lat="45.645009" lon="10.9452322"><ele>893.0</ele><time>2026-04-25T13:43:29.359Z</time></trkpt><trkpt lat="45.644939" lon="10.9449933"><ele>892.0</ele><time>2026-04-25T13:43:30.359Z</time></trkpt><trkpt lat="45.6448699" lon="10.9447649"><ele>891.0</ele><time>2026-04-25T13:43:31.359Z</time></trkpt><trkpt lat="45.6448011" lon="10.9445561"><ele>891.0</ele><time>2026-04-25T13:43:32.36Z</time></trkpt><trkpt lat="45.6447372" lon="10.9443478"><ele>891.0</ele><time>2026-04-25T13:43:33.36Z</time></trkpt><trkpt lat="45.6446842" lon="10.9441306"><ele>891.0</ele><time>2026-04-25T13:43:34.359Z</time></trkpt><trkpt lat="45.6446494" lon="10.9438979"><ele>892.0</ele><time>2026-04-25T13:43:35.359Z</time></trkpt><trkpt lat="45.6446309" lon="10.9436651"><ele>893.0</ele><time>2026-04-25T13:43:36.36Z</time></trkpt><trkpt lat="45.6446019" lon="10.943441"><ele>894.0</ele><time>2026-04-25T13:43:37.36Z</time></trkpt><trkpt lat="45.6445598" lon="10.9432293"><ele>895.0</ele><time>2026-04-25T13:43:38.359Z</time></trkpt><trkpt lat="45.644508" lon="10.9430283"><ele>896.0</ele><time>2026-04-25T13:43:39.359Z</time></trkpt><trkpt lat="45.6444539" lon="10.9428424"><ele>897.0</ele><time>2026-04-25T13:43:40.359Z</time></trkpt><trkpt lat="45.6443982" lon="10.9426538"><ele>898.0</ele><time>2026-04-25T13:43:41.359Z</time></trkpt><trkpt lat="45.6443414" lon="10.9424725"><ele>899.75</ele><time>2026-04-25T13:43:42.36Z</time></trkpt><trkpt lat="45.6442875" lon="10.942282"><ele>901.5</ele><time>2026-04-25T13:43:43.359Z</time></trkpt><trkpt lat="45.6442552" lon="10.9420916"><ele>903.25</ele><time>2026-04-25T13:43:44.36Z</time></trkpt><trkpt lat="45.6442472" lon="10.941917"><ele>905.0</ele><time>2026-04-25T13:43:45.359Z</time></trkpt><trkpt lat="45.6442556" lon="10.9417684"><ele>905.8571428571428</ele><time>2026-04-25T13:43:46.359Z</time></trkpt><trkpt lat="45.6442685" lon="10.9416416"><ele>906.7142857142856</ele><time>2026-04-25T13:43:47.36Z</time></trkpt><trkpt lat="45.6442788" lon="10.9415274"><ele>907.5714285714286</ele><time>2026-04-25T13:43:48.359Z</time></trkpt><trkpt lat="45.6442835" lon="10.9414194"><ele>908.4285714285713</ele><time>2026-04-25T13:43:49.359Z</time></trkpt><trkpt lat="45.6442852" lon="10.9413223"><ele>909.2857142857142</ele><time>2026-04-25T13:43:50.359Z</time></trkpt><trkpt lat="45.6442873" lon="10.9412314"><ele>910.1428571428571</ele><time>2026-04-25T13:43:51.36Z</time></trkpt><trkpt lat="45.6442902" lon="10.9411314"><ele>911.0</ele><time>2026-04-25T13:43:52.359Z</time></trkpt><trkpt lat="45.6442933" lon="10.9410162"><ele>911.0000000000001</ele><time>2026-04-25T13:43:53.359Z</time></trkpt><trkpt lat="45.644302" lon="10.9408943"><ele>911.0</ele><time>2026-04-25T13:43:54.359Z</time></trkpt><trkpt lat="45.6443208" lon="10.9407802"><ele>911.0</ele><time>2026-04-25T13:43:55.359Z</time></trkpt><trkpt lat="45.6443516" lon="10.9406886"><ele>911.0</ele><time>2026-04-25T13:43:56.36Z</time></trkpt><trkpt lat="45.6443945" lon="10.9406219"><ele>911.0000000000001</ele><time>2026-04-25T13:43:57.359Z</time></trkpt><trkpt lat="45.6444851" lon="10.9405369"><ele>911.0</ele><time>2026-04-25T13:43:59.359Z</time></trkpt><trkpt lat="45.64458" lon="10.9404347"><ele>910.1999999999999</ele><time>2026-04-25T13:44:01.359Z</time></trkpt><trkpt lat="45.6446769" lon="10.9403167"><ele>909.3999999999999</ele><time>2026-04-25T13:44:03.359Z</time></trkpt><trkpt lat="45.6447284" lon="10.9402473"><ele>908.6</ele><time>2026-04-25T13:44:04.359Z</time></trkpt><trkpt lat="45.6447815" lon="10.9401693"><ele>907.8</ele><time>2026-04-25T13:44:05.359Z</time></trkpt><trkpt lat="45.6448271" lon="10.9401002"><ele>907.0</ele><time>2026-04-25T13:44:06.359Z</time></trkpt><trkpt lat="45.6449215" lon="10.9399707"><ele>909.0</ele><time>2026-04-25T13:44:08.359Z</time></trkpt><trkpt lat="45.6449775" lon="10.9398934"><ele>911.0</ele><time>2026-04-25T13:44:09.36Z</time></trkpt><trkpt lat="45.6450411" lon="10.9398105"><ele>913.0</ele><time>2026-04-25T13:44:10.359Z</time></trkpt><trkpt lat="45.6451153" lon="10.9397102"><ele>915.0</ele><time>2026-04-25T13:44:11.36Z</time></trkpt><trkpt lat="45.6451982" lon="10.939584"><ele>917.0</ele><time>2026-04-25T13:44:12.36Z</time></trkpt><trkpt lat="45.645284" lon="10.9394501"><ele>917.25</ele><time>2026-04-25T13:44:13.359Z</time></trkpt><trkpt lat="45.6453804" lon="10.9393194"><ele>917.5</ele><time>2026-04-25T13:44:14.359Z</time></trkpt><trkpt lat="45.645497" lon="10.9391869"><ele>917.75</ele><time>2026-04-25T13:44:15.359Z</time></trkpt><trkpt lat="45.6456177" lon="10.939051"><ele>918.0</ele><time>2026-04-25T13:44:16.359Z</time></trkpt><trkpt lat="45.6457382" lon="10.9389109"><ele>918.75</ele><time>2026-04-25T13:44:17.359Z</time></trkpt><trkpt lat="45.645843" lon="10.9387701"><ele>919.5</ele><time>2026-04-25T13:44:18.359Z</time></trkpt><trkpt lat="45.6459375" lon="10.9386362"><ele>920.25</ele><time>2026-04-25T13:44:19.359Z</time></trkpt><trkpt lat="45.6460273" lon="10.9385192"><ele>921.0</ele><time>2026-04-25T13:44:20.359Z</time></trkpt><trkpt lat="45.6461142" lon="10.9384083"><ele>922.4</ele><time>2026-04-25T13:44:21.359Z</time></trkpt><trkpt lat="45.6461968" lon="10.9383034"><ele>923.8</ele><time>2026-04-25T13:44:22.359Z</time></trkpt><trkpt lat="45.6462727" lon="10.9382013"><ele>925.1999999999999</ele><time>2026-04-25T13:44:23.359Z</time></trkpt><trkpt lat="45.6463396" lon="10.938091"><ele>926.5999999999999</ele><time>2026-04-25T13:44:24.359Z</time></trkpt><trkpt lat="45.6463998" lon="10.9379712"><ele>928.0</ele><time>2026-04-25T13:44:25.36Z</time></trkpt><trkpt lat="45.6464416" lon="10.9378419"><ele>927.9999999999999</ele><time>2026-04-25T13:44:26.359Z</time></trkpt><trkpt lat="45.6464722" lon="10.937711"><ele>928.0</ele><time>2026-04-25T13:44:27.36Z</time></trkpt><trkpt lat="45.646491" lon="10.9375919"><ele>928.0</ele><time>2026-04-25T13:44:28.359Z</time></trkpt><trkpt lat="45.6465118" lon="10.9374944"><ele>928.0</ele><time>2026-04-25T13:44:29.359Z</time></trkpt><trkpt lat="45.6465328" lon="10.9374049"><ele>927.9999999999999</ele><time>2026-04-25T13:44:30.359Z</time></trkpt><trkpt lat="45.6465636" lon="10.9372977"><ele>928.0</ele><time>2026-04-25T13:44:32.359Z</time></trkpt><trkpt lat="45.6466466" lon="10.9372538"><ele>928.6666666666666</ele><time>2026-04-25T13:44:34.36Z</time></trkpt><trkpt lat="45.6467214" lon="10.9372798"><ele>929.3333333333333</ele><time>2026-04-25T13:44:35.36Z</time></trkpt><trkpt lat="45.646786" lon="10.9373223"><ele>930.0</ele><time>2026-04-25T13:44:36.36Z</time></trkpt><trkpt lat="45.646836" lon="10.937412"><ele>930.6666666666667</ele><time>2026-04-25T13:44:38.36Z</time></trkpt><trkpt lat="45.6467794" lon="10.9375075"><ele>931.3333333333334</ele><time>2026-04-25T13:44:40.361Z</time></trkpt><trkpt lat="45.6466935" lon="10.9374942"><ele>932.0</ele><time>2026-04-25T13:44:42.36Z</time></trkpt><trkpt lat="45.6466162" lon="10.9374952"><ele>932.0</ele><time>2026-04-25T13:44:44.361Z</time></trkpt></trkseg><trkseg><trkpt lat="45.6466054" lon="10.9374443"><ele>932.0000000000001</ele><time>2026-04-25T14:20:05.398Z</time></trkpt><trkpt lat="45.6466946" lon="10.9374315"><ele>932.0</ele><time>2026-04-25T14:20:07.398Z</time></trkpt><trkpt lat="45.6467568" lon="10.9374601"><ele>932.0</ele><time>2026-04-25T14:20:08.398Z</time></trkpt><trkpt lat="45.6468456" lon="10.9374438"><ele>932.0</ele><time>2026-04-25T14:20:10.399Z</time></trkpt><trkpt lat="45.6468687" lon="10.937337"><ele>932.0000000000001</ele><time>2026-04-25T14:20:18.399Z</time></trkpt><trkpt lat="45.6467647" lon="10.9372758"><ele>932.0</ele><time>2026-04-25T14:20:20.399Z</time></trkpt><trkpt lat="45.6466882" lon="10.937258"><ele>932.0</ele><time>2026-04-25T14:20:21.399Z</time></trkpt><trkpt lat="45.646618" lon="10.9372202"><ele>932.0</ele><time>2026-04-25T14:20:22.4Z</time></trkpt><trkpt lat="45.646561" lon="10.9371559"><ele>932.0</ele><time>2026-04-25T14:20:23.4Z</time></trkpt><trkpt lat="45.6465078" lon="10.9370561"><ele>932.0</ele><time>2026-04-25T14:20:24.399Z</time></trkpt><trkpt lat="45.6464499" lon="10.936916"><ele>932.0</ele><time>2026-04-25T14:20:25.4Z</time></trkpt><trkpt lat="45.6464046" lon="10.9366174"><ele>931.8</ele><time>2026-04-25T14:20:27.4Z</time></trkpt><trkpt lat="45.6463845" lon="10.9364873"><ele>931.6</ele><time>2026-04-25T14:20:28.399Z</time></trkpt><trkpt lat="45.6463478" lon="10.9363778"><ele>931.3999999999999</ele><time>2026-04-25T14:20:29.399Z</time></trkpt><trkpt lat="45.6462855" lon="10.9362953"><ele>931.1999999999999</ele><time>2026-04-25T14:20:30.4Z</time></trkpt><trkpt lat="45.6461962" lon="10.9362418"><ele>931.0</ele><time>2026-04-25T14:20:31.399Z</time></trkpt><trkpt lat="45.6460886" lon="10.9362073"><ele>931.0</ele><time>2026-04-25T14:20:32.399Z</time></trkpt><trkpt lat="45.6459736" lon="10.9361757"><ele>930.9999999999999</ele><time>2026-04-25T14:20:33.4Z</time></trkpt><trkpt lat="45.6458633" lon="10.9361519"><ele>930.9999999999999</ele><time>2026-04-25T14:20:34.399Z</time></trkpt><trkpt lat="45.6457642" lon="10.9361353"><ele>931.0</ele><time>2026-04-25T14:20:35.399Z</time></trkpt><trkpt lat="45.6456854" lon="10.9361277"><ele>931.0</ele><time>2026-04-25T14:20:36.399Z</time></trkpt><trkpt lat="45.6456203" lon="10.936117"><ele>931.0</ele><time>2026-04-25T14:20:37.4Z</time></trkpt><trkpt lat="45.6455929" lon="10.9360058"><ele>930.9999999999999</ele><time>2026-04-25T14:20:39.399Z</time></trkpt><trkpt lat="45.6456414" lon="10.9359435"><ele>930.9999999999999</ele><time>2026-04-25T14:20:40.4Z</time></trkpt><trkpt lat="45.6457489" lon="10.9359348"><ele>931.0</ele><time>2026-04-25T14:20:41.4Z</time></trkpt><trkpt lat="45.6458761" lon="10.9359124"><ele>931.0</ele><time>2026-04-25T14:20:42.4Z</time></trkpt><trkpt lat="45.6460109" lon="10.9358683"><ele>927.75</ele><time>2026-04-25T14:20:43.4Z</time></trkpt><trkpt lat="45.6461496" lon="10.9358024"><ele>924.5</ele><time>2026-04-25T14:20:44.399Z</time></trkpt><trkpt lat="45.6462893" lon="10.9357314"><ele>921.25</ele><time>2026-04-25T14:20:45.399Z</time></trkpt><trkpt lat="45.6464154" lon="10.935631"><ele>918.0</ele><time>2026-04-25T14:20:46.399Z</time></trkpt><trkpt lat="45.6465334" lon="10.9355117"><ele>918.0</ele><time>2026-04-25T14:20:47.4Z</time></trkpt><trkpt lat="45.6466477" lon="10.9353885"><ele>918.0</ele><time>2026-04-25T14:20:48.4Z</time></trkpt><trkpt lat="45.6467611" lon="10.9352603"><ele>918.0</ele><time>2026-04-25T14:20:49.399Z</time></trkpt><trkpt lat="45.6468751" lon="10.935127"><ele>918.0</ele><time>2026-04-25T14:20:50.399Z</time></trkpt><trkpt lat="45.6469941" lon="10.9349877"><ele>914.3333333333333</ele><time>2026-04-25T14:20:51.4Z</time></trkpt><trkpt lat="45.6471175" lon="10.9348484"><ele>910.6666666666666</ele><time>2026-04-25T14:20:52.399Z</time></trkpt><trkpt lat="45.6472423" lon="10.9347091"><ele>907.0</ele><time>2026-04-25T14:20:53.399Z</time></trkpt><trkpt lat="45.6473681" lon="10.9345731"><ele>907.0</ele><time>2026-04-25T14:20:54.399Z</time></trkpt><trkpt lat="45.6474978" lon="10.9344354"><ele>907.0</ele><time>2026-04-25T14:20:55.399Z</time></trkpt><trkpt lat="45.6476299" lon="10.934294"><ele>907.0</ele><time>2026-04-25T14:20:56.399Z</time></trkpt><trkpt lat="45.6477669" lon="10.934138"><ele>903.6666666666666</ele><time>2026-04-25T14:20:57.399Z</time></trkpt><trkpt lat="45.6479027" lon="10.9339781"><ele>900.3333333333333</ele><time>2026-04-25T14:20:58.399Z</time></trkpt><trkpt lat="45.6480393" lon="10.9338167"><ele>897.0</ele><time>2026-04-25T14:20:59.4Z</time></trkpt><trkpt lat="45.6481758" lon="10.9336585"><ele>897.0</ele><time>2026-04-25T14:21:00.399Z</time></trkpt><trkpt lat="45.6483112" lon="10.9335068"><ele>897.0</ele><time>2026-04-25T14:21:01.399Z</time></trkpt><trkpt lat="45.6484464" lon="10.9333515"><ele>897.0</ele><time>2026-04-25T14:21:02.399Z</time></trkpt><trkpt lat="45.6485844" lon="10.9332002"><ele>895.0</ele><time>2026-04-25T14:21:03.399Z</time></trkpt><trkpt lat="45.6487228" lon="10.9330557"><ele>893.0</ele><time>2026-04-25T14:21:04.4Z</time></trkpt><trkpt lat="45.6488544" lon="10.9329227"><ele>891.0</ele><time>2026-04-25T14:21:05.399Z</time></trkpt><trkpt lat="45.6489731" lon="10.9327903"><ele>891.0</ele><time>2026-04-25T14:21:06.4Z</time></trkpt><trkpt lat="45.6490828" lon="10.9326549"><ele>891.0</ele><time>2026-04-25T14:21:07.4Z</time></trkpt><trkpt lat="45.649279" lon="10.9322869"><ele>889.6666666666667</ele><time>2026-04-25T14:21:09.4Z</time></trkpt><trkpt lat="45.6493717" lon="10.932079"><ele>888.3333333333334</ele><time>2026-04-25T14:21:10.399Z</time></trkpt><trkpt lat="45.6494616" lon="10.9318715"><ele>887.0</ele><time>2026-04-25T14:21:11.399Z</time></trkpt><trkpt lat="45.6495551" lon="10.9316658"><ele>883.5</ele><time>2026-04-25T14:21:12.399Z</time></trkpt><trkpt lat="45.6496483" lon="10.931464"><ele>880.0</ele><time>2026-04-25T14:21:13.399Z</time></trkpt><trkpt lat="45.6497289" lon="10.9312947"><ele>876.5</ele><time>2026-04-25T14:21:14.399Z</time></trkpt><trkpt lat="45.6498034" lon="10.9311349"><ele>873.0</ele><time>2026-04-25T14:21:15.4Z</time></trkpt><trkpt lat="45.649876" lon="10.9309845"><ele>870.5</ele><time>2026-04-25T14:21:16.399Z</time></trkpt><trkpt lat="45.6499488" lon="10.9308377"><ele>868.0</ele><time>2026-04-25T14:21:17.399Z</time></trkpt><trkpt lat="45.6500204" lon="10.9306863"><ele>865.5</ele><time>2026-04-25T14:21:18.4Z</time></trkpt><trkpt lat="45.6500953" lon="10.9305357"><ele>863.0</ele><time>2026-04-25T14:21:19.399Z</time></trkpt><trkpt lat="45.6501685" lon="10.9303881"><ele>863.0</ele><time>2026-04-25T14:21:20.399Z</time></trkpt><trkpt lat="45.6502432" lon="10.9302436"><ele>863.0</ele><time>2026-04-25T14:21:21.4Z</time></trkpt><trkpt lat="45.6503195" lon="10.9301014"><ele>863.0</ele><time>2026-04-25T14:21:22.4Z</time></trkpt><trkpt lat="45.6504012" lon="10.9299599"><ele>863.0</ele><time>2026-04-25T14:21:23.401Z</time></trkpt><trkpt lat="45.6504929" lon="10.9298296"><ele>859.25</ele><time>2026-04-25T14:21:24.401Z</time></trkpt><trkpt lat="45.6506011" lon="10.9297141"><ele>855.5</ele><time>2026-04-25T14:21:25.4Z</time></trkpt><trkpt lat="45.6507183" lon="10.9296087"><ele>851.75</ele><time>2026-04-25T14:21:26.4Z</time></trkpt><trkpt lat="45.6508498" lon="10.9295292"><ele>848.0</ele><time>2026-04-25T14:21:27.4Z</time></trkpt><trkpt lat="45.6509764" lon="10.9294566"><ele>848.0</ele><time>2026-04-25T14:21:28.4Z</time></trkpt><trkpt lat="45.6511037" lon="10.9293895"><ele>848.0</ele><time>2026-04-25T14:21:29.4Z</time></trkpt><trkpt lat="45.6512227" lon="10.9293248"><ele>848.0</ele><time>2026-04-25T14:21:30.401Z</time></trkpt><trkpt lat="45.6513299" lon="10.9292475"><ele>848.0</ele><time>2026-04-25T14:21:31.401Z</time></trkpt><trkpt lat="45.6514259" lon="10.9291656"><ele>845.5999999999999</ele><time>2026-04-25T14:21:32.4Z</time></trkpt><trkpt lat="45.6514727" lon="10.9290517"><ele>843.1999999999999</ele><time>2026-04-25T14:21:33.4Z</time></trkpt><trkpt lat="45.6514848" lon="10.9289176"><ele>840.8</ele><time>2026-04-25T14:21:34.4Z</time></trkpt><trkpt lat="45.6514631" lon="10.9287582"><ele>838.4</ele><time>2026-04-25T14:21:35.401Z</time></trkpt><trkpt lat="45.6514175" lon="10.9285727"><ele>836.0</ele><time>2026-04-25T14:21:36.4Z</time></trkpt><trkpt lat="45.6513635" lon="10.9283643"><ele>834.0</ele><time>2026-04-25T14:21:37.4Z</time></trkpt><trkpt lat="45.6513093" lon="10.9281482"><ele>832.0</ele><time>2026-04-25T14:21:38.4Z</time></trkpt><trkpt lat="45.651253" lon="10.9279415"><ele>830.0</ele><time>2026-04-25T14:21:39.4Z</time></trkpt><trkpt lat="45.6511902" lon="10.9277446"><ele>830.25</ele><time>2026-04-25T14:21:40.4Z</time></trkpt><trkpt lat="45.6511184" lon="10.9275568"><ele>830.5</ele><time>2026-04-25T14:21:41.4Z</time></trkpt><trkpt lat="45.6510358" lon="10.9273777"><ele>830.75</ele><time>2026-04-25T14:21:42.401Z</time></trkpt><trkpt lat="45.6509455" lon="10.92721"><ele>831.0</ele><time>2026-04-25T14:21:43.4Z</time></trkpt><trkpt lat="45.6508662" lon="10.9270625"><ele>831.0</ele><time>2026-04-25T14:21:44.401Z</time></trkpt><trkpt lat="45.6507999" lon="10.9269351"><ele>831.0</ele><time>2026-04-25T14:21:45.4Z</time></trkpt><trkpt lat="45.6507711" lon="10.9268356"><ele>831.0</ele><time>2026-04-25T14:21:46.4Z</time></trkpt><trkpt lat="45.6507592" lon="10.9267351"><ele>831.0</ele><time>2026-04-25T14:21:47.401Z</time></trkpt><trkpt lat="45.6507616" lon="10.9266324"><ele>831.0</ele><time>2026-04-25T14:21:48.4Z</time></trkpt><trkpt lat="45.6507728" lon="10.9265163"><ele>831.0</ele><time>2026-04-25T14:21:49.4Z</time></trkpt><trkpt lat="45.65079" lon="10.9263884"><ele>829.5999999999999</ele><time>2026-04-25T14:21:50.4Z</time></trkpt><trkpt lat="45.650804" lon="10.9262506"><ele>828.2</ele><time>2026-04-25T14:21:51.401Z</time></trkpt><trkpt lat="45.6508128" lon="10.9261076"><ele>826.8</ele><time>2026-04-25T14:21:52.4Z</time></trkpt><trkpt lat="45.6508147" lon="10.9259535"><ele>825.4000000000001</ele><time>2026-04-25T14:21:53.4Z</time></trkpt><trkpt lat="45.650798" lon="10.9257758"><ele>824.0</ele><time>2026-04-25T14:21:54.4Z</time></trkpt><trkpt lat="45.6507636" lon="10.9255868"><ele>821.0</ele><time>2026-04-25T14:21:55.401Z</time></trkpt><trkpt lat="45.6507174" lon="10.9253866"><ele>818.0</ele><time>2026-04-25T14:21:56.4Z</time></trkpt><trkpt lat="45.650668" lon="10.9251821"><ele>815.0</ele><time>2026-04-25T14:21:57.4Z</time></trkpt><trkpt lat="45.6506122" lon="10.9249729"><ele>810.0</ele><time>2026-04-25T14:21:58.4Z</time></trkpt><trkpt lat="45.6505447" lon="10.9247677"><ele>805.0</ele><time>2026-04-25T14:21:59.4Z</time></trkpt><trkpt lat="45.650481" lon="10.9245653"><ele>800.0</ele><time>2026-04-25T14:22:00.4Z</time></trkpt><trkpt lat="45.6504198" lon="10.924378"><ele>795.8</ele><time>2026-04-25T14:22:01.4Z</time></trkpt><trkpt lat="45.6503579" lon="10.92422"><ele>791.6</ele><time>2026-04-25T14:22:02.4Z</time></trkpt><trkpt lat="45.6502874" lon="10.9241029"><ele>787.4000000000001</ele><time>2026-04-25T14:22:03.4Z</time></trkpt><trkpt lat="45.6502057" lon="10.9240308"><ele>783.2</ele><time>2026-04-25T14:22:04.4Z</time></trkpt><trkpt lat="45.650142" lon="10.9239683"><ele>779.0</ele><time>2026-04-25T14:22:05.401Z</time></trkpt><trkpt lat="45.6501244" lon="10.9238509"><ele>789.6</ele><time>2026-04-25T14:22:07.4Z</time></trkpt><trkpt lat="45.65017" lon="10.9237613"><ele>800.2</ele><time>2026-04-25T14:22:08.4Z</time></trkpt><trkpt lat="45.6502274" lon="10.9236413"><ele>810.8000000000001</ele><time>2026-04-25T14:22:09.4Z</time></trkpt><trkpt lat="45.6502735" lon="10.9235093"><ele>821.4000000000001</ele><time>2026-04-25T14:22:10.4Z</time></trkpt><trkpt lat="45.6502497" lon="10.9233538"><ele>832.0</ele><time>2026-04-25T14:22:11.401Z</time></trkpt><trkpt lat="45.6502459" lon="10.9232003"><ele>832.2</ele><time>2026-04-25T14:22:12.4Z</time></trkpt><trkpt lat="45.650271" lon="10.9230774"><ele>832.4000000000001</ele><time>2026-04-25T14:22:13.4Z</time></trkpt><trkpt lat="45.6503245" lon="10.9229802"><ele>832.5999999999999</ele><time>2026-04-25T14:22:14.401Z</time></trkpt><trkpt lat="45.650384" lon="10.9228782"><ele>832.8</ele><time>2026-04-25T14:22:15.4Z</time></trkpt><trkpt lat="45.650435" lon="10.9227529"><ele>833.0</ele><time>2026-04-25T14:22:16.4Z</time></trkpt><trkpt lat="45.6504177" lon="10.9225835"><ele>830.5</ele><time>2026-04-25T14:22:17.401Z</time></trkpt><trkpt lat="45.6503727" lon="10.922415"><ele>828.0</ele><time>2026-04-25T14:22:18.401Z</time></trkpt><trkpt lat="45.65032" lon="10.9222477"><ele>825.5</ele><time>2026-04-25T14:22:19.401Z</time></trkpt><trkpt lat="45.6502808" lon="10.9220802"><ele>823.0</ele><time>2026-04-25T14:22:20.4Z</time></trkpt><trkpt lat="45.6502698" lon="10.9219033"><ele>817.25</ele><time>2026-04-25T14:22:21.401Z</time></trkpt><trkpt lat="45.6502774" lon="10.9217209"><ele>811.5</ele><time>2026-04-25T14:22:22.4Z</time></trkpt><trkpt lat="45.6502823" lon="10.9215501"><ele>805.75</ele><time>2026-04-25T14:22:23.401Z</time></trkpt><trkpt lat="45.6502561" lon="10.9213792"><ele>800.0</ele><time>2026-04-25T14:22:24.401Z</time></trkpt><trkpt lat="45.6501952" lon="10.9212317"><ele>800.0</ele><time>2026-04-25T14:22:25.4Z</time></trkpt><trkpt lat="45.6501214" lon="10.9210843"><ele>800.0</ele><time>2026-04-25T14:22:26.4Z</time></trkpt><trkpt lat="45.6500468" lon="10.9209365"><ele>800.0</ele><time>2026-04-25T14:22:27.401Z</time></trkpt><trkpt lat="45.6499779" lon="10.920766"><ele>800.0</ele><time>2026-04-25T14:22:28.402Z</time></trkpt><trkpt lat="45.6499275" lon="10.9205626"><ele>792.0</ele><time>2026-04-25T14:22:29.401Z</time></trkpt><trkpt lat="45.6498917" lon="10.920333"><ele>784.0</ele><time>2026-04-25T14:22:30.401Z</time></trkpt><trkpt lat="45.6498492" lon="10.9200964"><ele>776.0</ele><time>2026-04-25T14:22:31.402Z</time></trkpt><trkpt lat="45.6497955" lon="10.9198661"><ele>769.6666666666667</ele><time>2026-04-25T14:22:32.402Z</time></trkpt><trkpt lat="45.6497224" lon="10.9196381"><ele>763.3333333333334</ele><time>2026-04-25T14:22:33.402Z</time></trkpt><trkpt lat="45.6496451" lon="10.9194231"><ele>757.0</ele><time>2026-04-25T14:22:34.402Z</time></trkpt><trkpt lat="45.6495717" lon="10.9192044"><ele>758.75</ele><time>2026-04-25T14:22:35.401Z</time></trkpt><trkpt lat="45.64951" lon="10.9189968"><ele>760.5</ele><time>2026-04-25T14:22:36.402Z</time></trkpt><trkpt lat="45.6494558" lon="10.9187988"><ele>762.25</ele><time>2026-04-25T14:22:37.401Z</time></trkpt><trkpt lat="45.6493881" lon="10.9186188"><ele>764.0</ele><time>2026-04-25T14:22:38.402Z</time></trkpt><trkpt lat="45.6492798" lon="10.9184469"><ele>757.5</ele><time>2026-04-25T14:22:39.402Z</time></trkpt><trkpt lat="45.649171" lon="10.9183107"><ele>751.0</ele><time>2026-04-25T14:22:40.401Z</time></trkpt><trkpt lat="45.6490676" lon="10.9182277"><ele>744.5</ele><time>2026-04-25T14:22:41.401Z</time></trkpt><trkpt lat="45.648973" lon="10.9181689"><ele>738.0</ele><time>2026-04-25T14:22:42.401Z</time></trkpt><trkpt lat="45.6488728" lon="10.9181191"><ele>738.0</ele><time>2026-04-25T14:22:43.402Z</time></trkpt><trkpt lat="45.6487656" lon="10.9181002"><ele>738.0</ele><time>2026-04-25T14:22:44.402Z</time></trkpt><trkpt lat="45.6486546" lon="10.9180823"><ele>738.0</ele><time>2026-04-25T14:22:45.402Z</time></trkpt><trkpt lat="45.6485646" lon="10.918026"><ele>738.0</ele><time>2026-04-25T14:22:46.401Z</time></trkpt><trkpt lat="45.6485308" lon="10.9179268"><ele>738.0</ele><time>2026-04-25T14:22:47.402Z</time></trkpt><trkpt lat="45.6484746" lon="10.9177965"><ele>735.0</ele><time>2026-04-25T14:22:48.402Z</time></trkpt><trkpt lat="45.6484111" lon="10.9176547"><ele>732.0</ele><time>2026-04-25T14:22:49.401Z</time></trkpt><trkpt lat="45.6483238" lon="10.917505"><ele>729.0</ele><time>2026-04-25T14:22:50.402Z</time></trkpt><trkpt lat="45.6482099" lon="10.9173754"><ele>726.0</ele><time>2026-04-25T14:22:51.402Z</time></trkpt><trkpt lat="45.6480729" lon="10.9172615"><ele>726.0</ele><time>2026-04-25T14:22:52.402Z</time></trkpt><trkpt lat="45.647932" lon="10.9171534"><ele>726.0</ele><time>2026-04-25T14:22:53.401Z</time></trkpt><trkpt lat="45.6477967" lon="10.917048"><ele>726.0</ele><time>2026-04-25T14:22:54.401Z</time></trkpt><trkpt lat="45.6476743" lon="10.9169426"><ele>724.5</ele><time>2026-04-25T14:22:55.402Z</time></trkpt><trkpt lat="45.6475676" lon="10.9168261"><ele>723.0</ele><time>2026-04-25T14:22:56.402Z</time></trkpt><trkpt lat="45.6474759" lon="10.9167091"><ele>721.5</ele><time>2026-04-25T14:22:57.402Z</time></trkpt><trkpt lat="45.6474076" lon="10.9165631"><ele>720.0</ele><time>2026-04-25T14:22:58.401Z</time></trkpt><trkpt lat="45.6473475" lon="10.9164446"><ele>720.0</ele><time>2026-04-25T14:22:59.401Z</time></trkpt><trkpt lat="45.6472894" lon="10.9163754"><ele>720.0</ele><time>2026-04-25T14:23:00.401Z</time></trkpt><trkpt lat="45.64721" lon="10.916344"><ele>720.0</ele><time>2026-04-25T14:23:01.401Z</time></trkpt><trkpt lat="45.6471107" lon="10.9163506"><ele>720.0</ele><time>2026-04-25T14:23:02.401Z</time></trkpt><trkpt lat="45.6470069" lon="10.9163822"><ele>720.0</ele><time>2026-04-25T14:23:03.402Z</time></trkpt><trkpt lat="45.6468963" lon="10.9164333"><ele>720.0</ele><time>2026-04-25T14:23:04.401Z</time></trkpt><trkpt lat="45.6468077" lon="10.9164874"><ele>720.0</ele><time>2026-04-25T14:23:05.401Z</time></trkpt><trkpt lat="45.6467351" lon="10.9165183"><ele>720.0</ele><time>2026-04-25T14:23:06.401Z</time></trkpt><trkpt lat="45.6466899" lon="10.9164239"><ele>720.0</ele><time>2026-04-25T14:23:09.401Z</time></trkpt><trkpt lat="45.6468476" lon="10.9163566"><ele>720.0</ele><time>2026-04-25T14:23:11.401Z</time></trkpt><trkpt lat="45.646976" lon="10.9163199"><ele>720.0</ele><time>2026-04-25T14:23:12.401Z</time></trkpt><trkpt lat="45.6471364" lon="10.9162537"><ele>720.0</ele><time>2026-04-25T14:23:13.402Z</time></trkpt><trkpt lat="45.6472716" lon="10.9162045"><ele>720.0</ele><time>2026-04-25T14:23:14.401Z</time></trkpt><trkpt lat="45.6473592" lon="10.9161704"><ele>720.0</ele><time>2026-04-25T14:23:15.402Z</time></trkpt><trkpt lat="45.6474659" lon="10.9162308"><ele>720.0</ele><time>2026-04-25T14:23:16.401Z</time></trkpt><trkpt lat="45.647561" lon="10.9163341"><ele>720.0</ele><time>2026-04-25T14:23:17.401Z</time></trkpt><trkpt lat="45.6476636" lon="10.916453"><ele>720.0</ele><time>2026-04-25T14:23:18.402Z</time></trkpt><trkpt lat="45.6477877" lon="10.9165966"><ele>720.0</ele><time>2026-04-25T14:23:19.401Z</time></trkpt><trkpt lat="45.6479249" lon="10.9167146"><ele>722.0</ele><time>2026-04-25T14:23:20.401Z</time></trkpt><trkpt lat="45.6480873" lon="10.9168221"><ele>724.0</ele><time>2026-04-25T14:23:21.401Z</time></trkpt><trkpt lat="45.6482258" lon="10.9169069"><ele>726.0</ele><time>2026-04-25T14:23:22.402Z</time></trkpt><trkpt lat="45.6483634" lon="10.9169857"><ele>726.0</ele><time>2026-04-25T14:23:23.401Z</time></trkpt><trkpt lat="45.6484987" lon="10.9170601"><ele>726.0</ele><time>2026-04-25T14:23:24.401Z</time></trkpt><trkpt lat="45.6486302" lon="10.9171313"><ele>726.0</ele><time>2026-04-25T14:23:25.401Z</time></trkpt><trkpt lat="45.6487455" lon="10.9172332"><ele>726.0</ele><time>2026-04-25T14:23:26.402Z</time></trkpt><trkpt lat="45.6488553" lon="10.9173546"><ele>720.4</ele><time>2026-04-25T14:23:27.402Z</time></trkpt><trkpt lat="45.6489502" lon="10.9174395"><ele>714.8</ele><time>2026-04-25T14:23:28.402Z</time></trkpt><trkpt lat="45.6490581" lon="10.9174757"><ele>709.1999999999999</ele><time>2026-04-25T14:23:29.401Z</time></trkpt><trkpt lat="45.6491657" lon="10.9174665"><ele>703.5999999999999</ele><time>2026-04-25T14:23:30.401Z</time></trkpt><trkpt lat="45.6492738" lon="10.9174345"><ele>698.0</ele><time>2026-04-25T14:23:31.403Z</time></trkpt><trkpt lat="45.6493951" lon="10.9174483"><ele>700.75</ele><time>2026-04-25T14:23:32.402Z</time></trkpt><trkpt lat="45.6495253" lon="10.9175255"><ele>703.5</ele><time>2026-04-25T14:23:33.402Z</time></trkpt><trkpt lat="45.6496573" lon="10.9176061"><ele>706.25</ele><time>2026-04-25T14:23:34.402Z</time></trkpt><trkpt lat="45.6498032" lon="10.9176752"><ele>709.0</ele><time>2026-04-25T14:23:35.403Z</time></trkpt><trkpt lat="45.6499491" lon="10.9177526"><ele>709.0</ele><time>2026-04-25T14:23:36.402Z</time></trkpt><trkpt lat="45.6500961" lon="10.9178479"><ele>709.0</ele><time>2026-04-25T14:23:37.402Z</time></trkpt><trkpt lat="45.6502457" lon="10.9179441"><ele>709.0</ele><time>2026-04-25T14:23:38.402Z</time></trkpt><trkpt lat="45.6503934" lon="10.918025"><ele>694.0</ele><time>2026-04-25T14:23:39.402Z</time></trkpt><trkpt lat="45.6505321" lon="10.9181237"><ele>679.0</ele><time>2026-04-25T14:23:40.403Z</time></trkpt><trkpt lat="45.6506601" lon="10.918238"><ele>664.0</ele><time>2026-04-25T14:23:41.402Z</time></trkpt><trkpt lat="45.650771" lon="10.9183777"><ele>669.5</ele><time>2026-04-25T14:23:42.402Z</time></trkpt><trkpt lat="45.6508718" lon="10.9185261"><ele>675.0</ele><time>2026-04-25T14:23:43.403Z</time></trkpt><trkpt lat="45.6509549" lon="10.9186636"><ele>680.5</ele><time>2026-04-25T14:23:44.403Z</time></trkpt><trkpt lat="45.6510112" lon="10.9188286"><ele>686.0</ele><time>2026-04-25T14:23:45.403Z</time></trkpt><trkpt lat="45.6510566" lon="10.9190184"><ele>686.0</ele><time>2026-04-25T14:23:46.402Z</time></trkpt><trkpt lat="45.6511117" lon="10.919227"><ele>686.0</ele><time>2026-04-25T14:23:47.403Z</time></trkpt><trkpt lat="45.6511837" lon="10.919437"><ele>686.0</ele><time>2026-04-25T14:23:48.402Z</time></trkpt><trkpt lat="45.6512678" lon="10.9196434"><ele>676.3333333333333</ele><time>2026-04-25T14:23:49.402Z</time></trkpt><trkpt lat="45.6513554" lon="10.919851"><ele>666.6666666666666</ele><time>2026-04-25T14:23:50.402Z</time></trkpt><trkpt lat="45.651434" lon="10.9200587"><ele>657.0</ele><time>2026-04-25T14:23:51.403Z</time></trkpt><trkpt lat="45.6514964" lon="10.9202655"><ele>657.0</ele><time>2026-04-25T14:23:52.402Z</time></trkpt><trkpt lat="45.6515436" lon="10.9204704"><ele>657.0</ele><time>2026-04-25T14:23:53.402Z</time></trkpt><trkpt lat="45.6515857" lon="10.9206729"><ele>657.0</ele><time>2026-04-25T14:23:54.402Z</time></trkpt><trkpt lat="45.6516404" lon="10.9208529"><ele>657.0</ele><time>2026-04-25T14:23:55.402Z</time></trkpt><trkpt lat="45.6517151" lon="10.9210102"><ele>659.8</ele><time>2026-04-25T14:23:56.402Z</time></trkpt><trkpt lat="45.6517737" lon="10.9211273"><ele>662.6</ele><time>2026-04-25T14:23:57.403Z</time></trkpt><trkpt lat="45.6518133" lon="10.9212327"><ele>665.4</ele><time>2026-04-25T14:23:58.402Z</time></trkpt><trkpt lat="45.6518773" lon="10.9213447"><ele>668.1999999999999</ele><time>2026-04-25T14:24:00.402Z</time></trkpt><trkpt lat="45.6519871" lon="10.9212478"><ele>671.0</ele><time>2026-04-25T14:24:02.402Z</time></trkpt><trkpt lat="45.6519995" lon="10.9211489"><ele>671.0</ele><time>2026-04-25T14:24:03.402Z</time></trkpt><trkpt lat="45.6519676" lon="10.921031"><ele>671.0</ele><time>2026-04-25T14:24:04.402Z</time></trkpt><trkpt lat="45.6518812" lon="10.9209036"><ele>671.0</ele><time>2026-04-25T14:24:05.403Z</time></trkpt><trkpt lat="45.6517707" lon="10.9207209"><ele>671.0</ele><time>2026-04-25T14:24:06.402Z</time></trkpt><trkpt lat="45.6516784" lon="10.920484"><ele>666.3333333333333</ele><time>2026-04-25T14:24:07.402Z</time></trkpt><trkpt lat="45.6516316" lon="10.920205"><ele>661.6666666666666</ele><time>2026-04-25T14:24:08.402Z</time></trkpt><trkpt lat="45.6516171" lon="10.9199234"><ele>657.0</ele><time>2026-04-25T14:24:09.402Z</time></trkpt><trkpt lat="45.6516007" lon="10.9196665"><ele>653.0</ele><time>2026-04-25T14:24:10.402Z</time></trkpt><trkpt lat="45.6515876" lon="10.9194355"><ele>649.0</ele><time>2026-04-25T14:24:11.403Z</time></trkpt><trkpt lat="45.6515688" lon="10.919213"><ele>645.0</ele><time>2026-04-25T14:24:12.402Z</time></trkpt><trkpt lat="45.6515518" lon="10.9189852"><ele>640.6666666666666</ele><time>2026-04-25T14:24:13.402Z</time></trkpt><trkpt lat="45.6515213" lon="10.9187652"><ele>636.3333333333333</ele><time>2026-04-25T14:24:14.403Z</time></trkpt><trkpt lat="45.6514697" lon="10.9185445"><ele>632.0</ele><time>2026-04-25T14:24:15.402Z</time></trkpt><trkpt lat="45.6513997" lon="10.9183374"><ele>626.3333333333333</ele><time>2026-04-25T14:24:16.403Z</time></trkpt><trkpt lat="45.6513025" lon="10.918128"><ele>620.6666666666666</ele><time>2026-04-25T14:24:17.402Z</time></trkpt><trkpt lat="45.6511963" lon="10.9179174"><ele>615.0</ele><time>2026-04-25T14:24:18.402Z</time></trkpt><trkpt lat="45.6510882" lon="10.9177067"><ele>619.0</ele><time>2026-04-25T14:24:19.403Z</time></trkpt><trkpt lat="45.6509763" lon="10.9175153"><ele>623.0</ele><time>2026-04-25T14:24:20.402Z</time></trkpt><trkpt lat="45.6508602" lon="10.9173489"><ele>627.0</ele><time>2026-04-25T14:24:21.403Z</time></trkpt><trkpt lat="45.6507238" lon="10.9172188"><ele>627.0</ele><time>2026-04-25T14:24:22.402Z</time></trkpt><trkpt lat="45.6505769" lon="10.9171049"><ele>627.0</ele><time>2026-04-25T14:24:23.402Z</time></trkpt><trkpt lat="45.6504528" lon="10.9169796"><ele>627.0</ele><time>2026-04-25T14:24:24.402Z</time></trkpt><trkpt lat="45.65034" lon="10.9168136"><ele>625.6666666666666</ele><time>2026-04-25T14:24:25.403Z</time></trkpt><trkpt lat="45.6502212" lon="10.9166524"><ele>624.3333333333333</ele><time>2026-04-25T14:24:26.402Z</time></trkpt><trkpt lat="45.65009" lon="10.9165125"><ele>623.0</ele><time>2026-04-25T14:24:27.403Z</time></trkpt><trkpt lat="45.6499469" lon="10.9163958"><ele>623.0</ele><time>2026-04-25T14:24:28.403Z</time></trkpt><trkpt lat="45.6497942" lon="10.9162912"><ele>623.0</ele><time>2026-04-25T14:24:29.402Z</time></trkpt><trkpt lat="45.6496416" lon="10.9162004"><ele>623.0</ele><time>2026-04-25T14:24:30.402Z</time></trkpt><trkpt lat="45.6495044" lon="10.9161237"><ele>618.75</ele><time>2026-04-25T14:24:31.403Z</time></trkpt><trkpt lat="45.6493904" lon="10.91607"><ele>614.5</ele><time>2026-04-25T14:24:32.402Z</time></trkpt><trkpt lat="45.6492871" lon="10.9160336"><ele>610.25</ele><time>2026-04-25T14:24:33.402Z</time></trkpt><trkpt lat="45.6492044" lon="10.9158623"><ele>606.0</ele><time>2026-04-25T14:24:35.403Z</time></trkpt><trkpt lat="45.6491475" lon="10.9157219"><ele>606.0</ele><time>2026-04-25T14:24:36.403Z</time></trkpt><trkpt lat="45.6490578" lon="10.9155842"><ele>606.0</ele><time>2026-04-25T14:24:37.403Z</time></trkpt><trkpt lat="45.6489366" lon="10.9154776"><ele>606.0</ele><time>2026-04-25T14:24:38.403Z</time></trkpt><trkpt lat="45.6488193" lon="10.9153942"><ele>606.0</ele><time>2026-04-25T14:24:39.403Z</time></trkpt><trkpt lat="45.6487097" lon="10.9153142"><ele>604.6</ele><time>2026-04-25T14:24:40.404Z</time></trkpt><trkpt lat="45.6486123" lon="10.9152265"><ele>603.2</ele><time>2026-04-25T14:24:41.403Z</time></trkpt><trkpt lat="45.6485197" lon="10.9151387"><ele>601.8</ele><time>2026-04-25T14:24:42.403Z</time></trkpt><trkpt lat="45.6484318" lon="10.9150595"><ele>600.4</ele><time>2026-04-25T14:24:43.403Z</time></trkpt><trkpt lat="45.6483461" lon="10.9149998"><ele>599.0</ele><time>2026-04-25T14:24:44.403Z</time></trkpt><trkpt lat="45.6482594" lon="10.9149686"><ele>599.0</ele><time>2026-04-25T14:24:45.403Z</time></trkpt><trkpt lat="45.6481854" lon="10.9149538"><ele>599.0</ele><time>2026-04-25T14:24:46.403Z</time></trkpt><trkpt lat="45.6481465" lon="10.9148524"><ele>599.0</ele><time>2026-04-25T14:24:48.403Z</time></trkpt><trkpt lat="45.6482581" lon="10.9148193"><ele>599.0</ele><time>2026-04-25T14:24:50.403Z</time></trkpt><trkpt lat="45.6483267" lon="10.914866"><ele>599.0</ele><time>2026-04-25T14:24:51.403Z</time></trkpt><trkpt lat="45.6484273" lon="10.9149952"><ele>600.75</ele><time>2026-04-25T14:24:52.403Z</time></trkpt><trkpt lat="45.6485445" lon="10.9151245"><ele>602.5</ele><time>2026-04-25T14:24:53.403Z</time></trkpt><trkpt lat="45.6486678" lon="10.9152182"><ele>604.25</ele><time>2026-04-25T14:24:54.403Z</time></trkpt><trkpt lat="45.6488166" lon="10.9152823"><ele>606.0</ele><time>2026-04-25T14:24:55.403Z</time></trkpt><trkpt lat="45.648977" lon="10.9153515"><ele>606.0</ele><time>2026-04-25T14:24:56.403Z</time></trkpt><trkpt lat="45.6491262" lon="10.915437"><ele>606.0</ele><time>2026-04-25T14:24:57.403Z</time></trkpt><trkpt lat="45.6492706" lon="10.9155278"><ele>606.0</ele><time>2026-04-25T14:24:58.404Z</time></trkpt><trkpt lat="45.6494118" lon="10.9156361"><ele>610.25</ele><time>2026-04-25T14:24:59.403Z</time></trkpt><trkpt lat="45.6495228" lon="10.9157632"><ele>614.5</ele><time>2026-04-25T14:25:00.403Z</time></trkpt><trkpt lat="45.6496313" lon="10.9158642"><ele>618.75</ele><time>2026-04-25T14:25:01.403Z</time></trkpt><trkpt lat="45.6497555" lon="10.9159091"><ele>623.0</ele><time>2026-04-25T14:25:02.404Z</time></trkpt><trkpt lat="45.6498952" lon="10.9159238"><ele>623.0</ele><time>2026-04-25T14:25:03.404Z</time></trkpt><trkpt lat="45.6500391" lon="10.9159936"><ele>623.0</ele><time>2026-04-25T14:25:04.404Z</time></trkpt><trkpt lat="45.6501903" lon="10.9161005"><ele>623.0</ele><time>2026-04-25T14:25:05.403Z</time></trkpt><trkpt lat="45.6503451" lon="10.9162109"><ele>609.6666666666666</ele><time>2026-04-25T14:25:06.404Z</time></trkpt><trkpt lat="45.6505058" lon="10.916307"><ele>596.3333333333334</ele><time>2026-04-25T14:25:07.403Z</time></trkpt><trkpt lat="45.6506538" lon="10.9163938"><ele>583.0</ele><time>2026-04-25T14:25:08.404Z</time></trkpt><trkpt lat="45.6508026" lon="10.9164666"><ele>583.0</ele><time>2026-04-25T14:25:09.403Z</time></trkpt><trkpt lat="45.6509543" lon="10.9165223"><ele>583.0</ele><time>2026-04-25T14:25:10.404Z</time></trkpt><trkpt lat="45.6511079" lon="10.916558"><ele>583.0</ele><time>2026-04-25T14:25:11.403Z</time></trkpt><trkpt lat="45.6512486" lon="10.9165866"><ele>577.25</ele><time>2026-04-25T14:25:12.404Z</time></trkpt><trkpt lat="45.6513816" lon="10.9166126"><ele>571.5</ele><time>2026-04-25T14:25:13.404Z</time></trkpt><trkpt lat="45.6514965" lon="10.9166311"><ele>565.75</ele><time>2026-04-25T14:25:14.403Z</time></trkpt><trkpt lat="45.6515961" lon="10.9166386"><ele>560.0</ele><time>2026-04-25T14:25:15.404Z</time></trkpt><trkpt lat="45.6517041" lon="10.9166805"><ele>553.75</ele><time>2026-04-25T14:25:16.404Z</time></trkpt><trkpt lat="45.6518177" lon="10.9167933"><ele>547.5</ele><time>2026-04-25T14:25:17.403Z</time></trkpt><trkpt lat="45.6519272" lon="10.9169415"><ele>541.25</ele><time>2026-04-25T14:25:18.403Z</time></trkpt><trkpt lat="45.6520331" lon="10.9171017"><ele>535.0</ele><time>2026-04-25T14:25:19.403Z</time></trkpt><trkpt lat="45.6521406" lon="10.9172735"><ele>535.0</ele><time>2026-04-25T14:25:20.403Z</time></trkpt><trkpt lat="45.6522515" lon="10.9174453"><ele>535.0</ele><time>2026-04-25T14:25:21.403Z</time></trkpt><trkpt lat="45.6523595" lon="10.917626"><ele>535.0</ele><time>2026-04-25T14:25:22.403Z</time></trkpt><trkpt lat="45.652462" lon="10.9178246"><ele>540.6666666666667</ele><time>2026-04-25T14:25:23.403Z</time></trkpt><trkpt lat="45.6525636" lon="10.9180324"><ele>546.3333333333334</ele><time>2026-04-25T14:25:24.403Z</time></trkpt><trkpt lat="45.6526641" lon="10.9182396"><ele>552.0</ele><time>2026-04-25T14:25:25.404Z</time></trkpt><trkpt lat="45.6527599" lon="10.9184438"><ele>539.3333333333334</ele><time>2026-04-25T14:25:26.403Z</time></trkpt><trkpt lat="45.6528487" lon="10.9186406"><ele>526.6666666666667</ele><time>2026-04-25T14:25:27.404Z</time></trkpt><trkpt lat="45.6529316" lon="10.9188303"><ele>514.0</ele><time>2026-04-25T14:25:28.403Z</time></trkpt><trkpt lat="45.6530108" lon="10.9190207"><ele>514.0</ele><time>2026-04-25T14:25:29.403Z</time></trkpt><trkpt lat="45.6530808" lon="10.9192229"><ele>514.0</ele><time>2026-04-25T14:25:30.403Z</time></trkpt><trkpt lat="45.6531348" lon="10.9194343"><ele>514.0</ele><time>2026-04-25T14:25:31.403Z</time></trkpt><trkpt lat="45.6531634" lon="10.919619"><ele>514.0</ele><time>2026-04-25T14:25:32.404Z</time></trkpt><trkpt lat="45.6531765" lon="10.9197616"><ele>515.3333333333334</ele><time>2026-04-25T14:25:33.404Z</time></trkpt><trkpt lat="45.6531731" lon="10.9198919"><ele>516.6666666666667</ele><time>2026-04-25T14:25:34.403Z</time></trkpt><trkpt lat="45.6531655" lon="10.9199989"><ele>518.0</ele><time>2026-04-25T14:25:35.404Z</time></trkpt><trkpt lat="45.6531993" lon="10.9201107"><ele>519.3333333333334</ele><time>2026-04-25T14:25:37.404Z</time></trkpt><trkpt lat="45.6532995" lon="10.9200607"><ele>520.6666666666666</ele><time>2026-04-25T14:25:39.404Z</time></trkpt><trkpt lat="45.6533212" lon="10.9199525"><ele>522.0</ele><time>2026-04-25T14:25:40.404Z</time></trkpt><trkpt lat="45.6533133" lon="10.9198178"><ele>522.5</ele><time>2026-04-25T14:25:41.405Z</time></trkpt><trkpt lat="45.6532755" lon="10.9196618"><ele>523.0</ele><time>2026-04-25T14:25:42.405Z</time></trkpt><trkpt lat="45.6532262" lon="10.9194763"><ele>523.5</ele><time>2026-04-25T14:25:43.404Z</time></trkpt><trkpt lat="45.6531883" lon="10.9192722"><ele>524.0</ele><time>2026-04-25T14:25:44.404Z</time></trkpt><trkpt lat="45.6531664" lon="10.9190852"><ele>521.5</ele><time>2026-04-25T14:25:45.404Z</time></trkpt><trkpt lat="45.6531475" lon="10.9189043"><ele>519.0</ele><time>2026-04-25T14:25:46.404Z</time></trkpt><trkpt lat="45.6531249" lon="10.9187209"><ele>516.5</ele><time>2026-04-25T14:25:47.405Z</time></trkpt><trkpt lat="45.6530998" lon="10.918535"><ele>514.0</ele><time>2026-04-25T14:25:48.404Z</time></trkpt><trkpt lat="45.6530705" lon="10.9183542"><ele>510.5</ele><time>2026-04-25T14:25:49.404Z</time></trkpt><trkpt lat="45.6530399" lon="10.9181842"><ele>507.0</ele><time>2026-04-25T14:25:50.404Z</time></trkpt><trkpt lat="45.6530069" lon="10.9180282"><ele>503.5</ele><time>2026-04-25T14:25:51.404Z</time></trkpt><trkpt lat="45.6529612" lon="10.9178838"><ele>500.0</ele><time>2026-04-25T14:25:52.405Z</time></trkpt><trkpt lat="45.6528972" lon="10.9177501"><ele>500.0</ele><time>2026-04-25T14:25:53.404Z</time></trkpt><trkpt lat="45.6528212" lon="10.9176202"><ele>500.0</ele><time>2026-04-25T14:25:54.404Z</time></trkpt><trkpt lat="45.6527609" lon="10.917476"><ele>500.0</ele><time>2026-04-25T14:25:55.404Z</time></trkpt><trkpt lat="45.6527216" lon="10.917321"><ele>500.0</ele><time>2026-04-25T14:25:56.404Z</time></trkpt><trkpt lat="45.6526863" lon="10.9171667"><ele>503.49999999999994</ele><time>2026-04-25T14:25:57.404Z</time></trkpt><trkpt lat="45.6526423" lon="10.9170362"><ele>507.0</ele><time>2026-04-25T14:25:58.404Z</time></trkpt><trkpt lat="45.6525797" lon="10.916925"><ele>510.5</ele><time>2026-04-25T14:25:59.404Z</time></trkpt><trkpt lat="45.6525148" lon="10.9168269"><ele>514.0</ele><time>2026-04-25T14:26:00.404Z</time></trkpt><trkpt lat="45.6524758" lon="10.9167377"><ele>517.5</ele><time>2026-04-25T14:26:01.405Z</time></trkpt><trkpt lat="45.6524665" lon="10.9166376"><ele>521.0</ele><time>2026-04-25T14:26:02.405Z</time></trkpt><trkpt lat="45.652477" lon="10.916528"><ele>521.0</ele><time>2026-04-25T14:26:03.404Z</time></trkpt><trkpt lat="45.6525142" lon="10.9164151"><ele>521.0</ele><time>2026-04-25T14:26:04.404Z</time></trkpt><trkpt lat="45.6525797" lon="10.9163065"><ele>521.0</ele><time>2026-04-25T14:26:05.404Z</time></trkpt><trkpt lat="45.6526551" lon="10.9161931"><ele>521.0</ele><time>2026-04-25T14:26:06.405Z</time></trkpt><trkpt lat="45.6527333" lon="10.9161069"><ele>521.0</ele><time>2026-04-25T14:26:07.405Z</time></trkpt><trkpt lat="45.6528142" lon="10.9160472"><ele>513.6</ele><time>2026-04-25T14:26:08.404Z</time></trkpt><trkpt lat="45.6529189" lon="10.916002"><ele>506.20000000000005</ele><time>2026-04-25T14:26:09.404Z</time></trkpt><trkpt lat="45.6530158" lon="10.9159485"><ele>498.79999999999995</ele><time>2026-04-25T14:26:10.404Z</time></trkpt><trkpt lat="45.6531087" lon="10.9158692"><ele>491.4</ele><time>2026-04-25T14:26:11.405Z</time></trkpt><trkpt lat="45.6531928" lon="10.9157616"><ele>484.0</ele><time>2026-04-25T14:26:12.404Z</time></trkpt><trkpt lat="45.6532655" lon="10.9156359"><ele>484.0</ele><time>2026-04-25T14:26:13.404Z</time></trkpt><trkpt lat="45.6533376" lon="10.9155069"><ele>484.0</ele><time>2026-04-25T14:26:14.404Z</time></trkpt><trkpt lat="45.6534165" lon="10.9153949"><ele>484.0</ele><time>2026-04-25T14:26:15.405Z</time></trkpt><trkpt lat="45.6535028" lon="10.9152909"><ele>484.0</ele><time>2026-04-25T14:26:16.404Z</time></trkpt><trkpt lat="45.6536031" lon="10.9151844"><ele>479.75</ele><time>2026-04-25T14:26:17.405Z</time></trkpt><trkpt lat="45.6536976" lon="10.9150726"><ele>475.5</ele><time>2026-04-25T14:26:18.405Z</time></trkpt><trkpt lat="45.6537799" lon="10.9149567"><ele>471.25</ele><time>2026-04-25T14:26:19.404Z</time></trkpt><trkpt lat="45.6538552" lon="10.9148429"><ele>467.0</ele><time>2026-04-25T14:26:20.404Z</time></trkpt><trkpt lat="45.6539132" lon="10.9147157"><ele>467.0</ele><time>2026-04-25T14:26:21.404Z</time></trkpt><trkpt lat="45.6539722" lon="10.914586"><ele>467.00000000000006</ele><time>2026-04-25T14:26:22.404Z</time></trkpt><trkpt lat="45.6540362" lon="10.91447"><ele>467.00000000000006</ele><time>2026-04-25T14:26:23.405Z</time></trkpt><trkpt lat="45.6541093" lon="10.9143609"><ele>467.0</ele><time>2026-04-25T14:26:24.404Z</time></trkpt><trkpt lat="45.654172" lon="10.9142454"><ele>467.0</ele><time>2026-04-25T14:26:25.404Z</time></trkpt><trkpt lat="45.6542075" lon="10.9141172"><ele>468.8</ele><time>2026-04-25T14:26:26.404Z</time></trkpt><trkpt lat="45.6542318" lon="10.9139876"><ele>470.6</ele><time>2026-04-25T14:26:27.404Z</time></trkpt><trkpt lat="45.6542355" lon="10.9138459"><ele>472.40000000000003</ele><time>2026-04-25T14:26:28.405Z</time></trkpt><trkpt lat="45.6542125" lon="10.9136994"><ele>474.20000000000005</ele><time>2026-04-25T14:26:29.404Z</time></trkpt><trkpt lat="45.6541665" lon="10.9135678"><ele>476.0</ele><time>2026-04-25T14:26:30.404Z</time></trkpt><trkpt lat="45.6540939" lon="10.9134442"><ele>473.75</ele><time>2026-04-25T14:26:31.404Z</time></trkpt><trkpt lat="45.654016" lon="10.9133249"><ele>471.5</ele><time>2026-04-25T14:26:32.404Z</time></trkpt><trkpt lat="45.6539341" lon="10.9132131"><ele>469.25</ele><time>2026-04-25T14:26:33.405Z</time></trkpt><trkpt lat="45.6538405" lon="10.9131139"><ele>467.0</ele><time>2026-04-25T14:26:34.405Z</time></trkpt><trkpt lat="45.6537341" lon="10.9130287"><ele>471.0</ele><time>2026-04-25T14:26:35.404Z</time></trkpt><trkpt lat="45.6536178" lon="10.912961"><ele>475.0</ele><time>2026-04-25T14:26:36.404Z</time></trkpt><trkpt lat="45.6535019" lon="10.912894"><ele>479.0</ele><time>2026-04-25T14:26:37.405Z</time></trkpt><trkpt lat="45.6533976" lon="10.9128252"><ele>483.0</ele><time>2026-04-25T14:26:38.404Z</time></trkpt><trkpt lat="45.6532961" lon="10.9127618"><ele>483.0</ele><time>2026-04-25T14:26:39.404Z</time></trkpt><trkpt lat="45.6531905" lon="10.9127124"><ele>483.0</ele><time>2026-04-25T14:26:40.404Z</time></trkpt><trkpt lat="45.6530668" lon="10.9126842"><ele>483.0</ele><time>2026-04-25T14:26:41.405Z</time></trkpt><trkpt lat="45.6529314" lon="10.912671"><ele>483.0</ele><time>2026-04-25T14:26:42.405Z</time></trkpt><trkpt lat="45.6527863" lon="10.9126744"><ele>481.75</ele><time>2026-04-25T14:26:43.405Z</time></trkpt><trkpt lat="45.6526386" lon="10.9126898"><ele>480.5</ele><time>2026-04-25T14:26:44.406Z</time></trkpt><trkpt lat="45.6524899" lon="10.9127105"><ele>479.25</ele><time>2026-04-25T14:26:45.405Z</time></trkpt><trkpt lat="45.6523408" lon="10.9127504"><ele>478.0</ele><time>2026-04-25T14:26:46.405Z</time></trkpt><trkpt lat="45.6522095" lon="10.9127925"><ele>478.0</ele><time>2026-04-25T14:26:47.405Z</time></trkpt><trkpt lat="45.6520823" lon="10.9128364"><ele>477.99999999999994</ele><time>2026-04-25T14:26:48.405Z</time></trkpt><trkpt lat="45.6519744" lon="10.9128712"><ele>477.99999999999994</ele><time>2026-04-25T14:26:49.406Z</time></trkpt><trkpt lat="45.6518829" lon="10.9129082"><ele>478.0</ele><time>2026-04-25T14:26:50.405Z</time></trkpt><trkpt lat="45.6518106" lon="10.9129559"><ele>478.0</ele><time>2026-04-25T14:26:51.406Z</time></trkpt><trkpt lat="45.6517566" lon="10.9130102"><ele>474.6666666666667</ele><time>2026-04-25T14:26:52.406Z</time></trkpt><trkpt lat="45.6516953" lon="10.9131351"><ele>471.33333333333337</ele><time>2026-04-25T14:26:54.405Z</time></trkpt><trkpt lat="45.6516439" lon="10.913262"><ele>468.0</ele><time>2026-04-25T14:26:56.405Z</time></trkpt><trkpt lat="45.6515682" lon="10.9133192"><ele>464.66666666666663</ele><time>2026-04-25T14:26:58.406Z</time></trkpt><trkpt lat="45.6515076" lon="10.9132469"><ele>461.3333333333333</ele><time>2026-04-25T14:27:00.405Z</time></trkpt><trkpt lat="45.6514826" lon="10.9131496"><ele>458.0</ele><time>2026-04-25T14:27:01.405Z</time></trkpt><trkpt lat="45.6514852" lon="10.9130535"><ele>458.0</ele><time>2026-04-25T14:27:02.405Z</time></trkpt><trkpt lat="45.65151" lon="10.9129672"><ele>457.99999999999994</ele><time>2026-04-25T14:27:03.405Z</time></trkpt><trkpt lat="45.6515784" lon="10.9129147"><ele>457.99999999999994</ele><time>2026-04-25T14:27:04.405Z</time></trkpt><trkpt lat="45.6516764" lon="10.9128692"><ele>458.0</ele><time>2026-04-25T14:27:05.405Z</time></trkpt><trkpt lat="45.6517903" lon="10.9128077"><ele>458.0</ele><time>2026-04-25T14:27:06.406Z</time></trkpt><trkpt lat="45.6518929" lon="10.9127267"><ele>455.75</ele><time>2026-04-25T14:27:07.405Z</time></trkpt><trkpt lat="45.6519879" lon="10.9126393"><ele>453.5</ele><time>2026-04-25T14:27:08.406Z</time></trkpt><trkpt lat="45.6520941" lon="10.9125588"><ele>451.25</ele><time>2026-04-25T14:27:09.406Z</time></trkpt><trkpt lat="45.6522139" lon="10.9124872"><ele>449.0</ele><time>2026-04-25T14:27:10.405Z</time></trkpt><trkpt lat="45.6523267" lon="10.9124242"><ele>449.0</ele><time>2026-04-25T14:27:11.405Z</time></trkpt><trkpt lat="45.6524216" lon="10.91235"><ele>449.0</ele><time>2026-04-25T14:27:12.405Z</time></trkpt><trkpt lat="45.6525046" lon="10.9122604"><ele>449.0</ele><time>2026-04-25T14:27:13.405Z</time></trkpt><trkpt lat="45.6525857" lon="10.9121817"><ele>449.0</ele><time>2026-04-25T14:27:14.405Z</time></trkpt><trkpt lat="45.6526823" lon="10.9121209"><ele>449.0</ele><time>2026-04-25T14:27:15.406Z</time></trkpt><trkpt lat="45.6528024" lon="10.9120888"><ele>450.5</ele><time>2026-04-25T14:27:16.406Z</time></trkpt><trkpt lat="45.6529339" lon="10.9120576"><ele>452.0</ele><time>2026-04-25T14:27:17.405Z</time></trkpt><trkpt lat="45.6530687" lon="10.9120205"><ele>453.5</ele><time>2026-04-25T14:27:18.405Z</time></trkpt><trkpt lat="45.6532042" lon="10.9119741"><ele>455.0</ele><time>2026-04-25T14:27:19.405Z</time></trkpt><trkpt lat="45.6533324" lon="10.9119301"><ele>455.0</ele><time>2026-04-25T14:27:20.405Z</time></trkpt><trkpt lat="45.6534535" lon="10.9118932"><ele>455.0</ele><time>2026-04-25T14:27:21.405Z</time></trkpt><trkpt lat="45.6535713" lon="10.9118626"><ele>455.0</ele><time>2026-04-25T14:27:22.406Z</time></trkpt><trkpt lat="45.6536866" lon="10.9118387"><ele>455.0</ele><time>2026-04-25T14:27:23.405Z</time></trkpt><trkpt lat="45.6538109" lon="10.9118391"><ele>451.5</ele><time>2026-04-25T14:27:24.406Z</time></trkpt><trkpt lat="45.653939" lon="10.9118648"><ele>448.0</ele><time>2026-04-25T14:27:25.406Z</time></trkpt><trkpt lat="45.6540659" lon="10.9119054"><ele>444.5</ele><time>2026-04-25T14:27:26.405Z</time></trkpt><trkpt lat="45.6541934" lon="10.9119365"><ele>441.0</ele><time>2026-04-25T14:27:27.405Z</time></trkpt><trkpt lat="45.6543212" lon="10.9119569"><ele>441.0</ele><time>2026-04-25T14:27:28.405Z</time></trkpt><trkpt lat="45.6544448" lon="10.9119899"><ele>441.0</ele><time>2026-04-25T14:27:29.405Z</time></trkpt><trkpt lat="45.654564" lon="10.9120404"><ele>441.0</ele><time>2026-04-25T14:27:30.405Z</time></trkpt><trkpt lat="45.654679" lon="10.9121004"><ele>441.0</ele><time>2026-04-25T14:27:31.405Z</time></trkpt><trkpt lat="45.6547881" lon="10.9121581"><ele>436.6</ele><time>2026-04-25T14:27:32.406Z</time></trkpt><trkpt lat="45.6548942" lon="10.9122112"><ele>432.20000000000005</ele><time>2026-04-25T14:27:33.405Z</time></trkpt><trkpt lat="45.654995" lon="10.9122588"><ele>427.79999999999995</ele><time>2026-04-25T14:27:34.405Z</time></trkpt><trkpt lat="45.65509" lon="10.912293"><ele>423.4</ele><time>2026-04-25T14:27:35.405Z</time></trkpt><trkpt lat="45.6551742" lon="10.9122973"><ele>419.0</ele><time>2026-04-25T14:27:36.405Z</time></trkpt><trkpt lat="45.6552592" lon="10.9122652"><ele>413.99999999999994</ele><time>2026-04-25T14:27:37.406Z</time></trkpt><trkpt lat="45.6553295" lon="10.9122265"><ele>409.0</ele><time>2026-04-25T14:27:38.405Z</time></trkpt><trkpt lat="45.6554044" lon="10.9122003"><ele>404.0</ele><time>2026-04-25T14:27:39.405Z</time></trkpt><trkpt lat="45.6554949" lon="10.9122287"><ele>399.0</ele><time>2026-04-25T14:27:40.406Z</time></trkpt><trkpt lat="45.6555731" lon="10.9123017"><ele>393.99999999999994</ele><time>2026-04-25T14:27:41.406Z</time></trkpt><trkpt lat="45.6556409" lon="10.9123988"><ele>389.0</ele><time>2026-04-25T14:27:42.405Z</time></trkpt><trkpt lat="45.6556826" lon="10.9125351"><ele>389.75</ele><time>2026-04-25T14:27:43.406Z</time></trkpt><trkpt lat="45.6557246" lon="10.9126669"><ele>390.5</ele><time>2026-04-25T14:27:44.405Z</time></trkpt><trkpt lat="45.6557622" lon="10.9128437"><ele>391.25</ele><time>2026-04-25T14:27:45.406Z</time></trkpt><trkpt lat="45.6557994" lon="10.9130419"><ele>392.0</ele><time>2026-04-25T14:27:46.407Z</time></trkpt><trkpt lat="45.6558338" lon="10.9132188"><ele>391.99999999999994</ele><time>2026-04-25T14:27:47.406Z</time></trkpt><trkpt lat="45.6558588" lon="10.9133729"><ele>392.0</ele><time>2026-04-25T14:27:48.407Z</time></trkpt><trkpt lat="45.6558651" lon="10.9134943"><ele>392.0</ele><time>2026-04-25T14:27:49.406Z</time></trkpt><trkpt lat="45.6558602" lon="10.9136118"><ele>392.0</ele><time>2026-04-25T14:27:50.407Z</time></trkpt><trkpt lat="45.6558273" lon="10.9137045"><ele>391.99999999999994</ele><time>2026-04-25T14:27:51.406Z</time></trkpt><trkpt lat="45.6557794" lon="10.9137692"><ele>392.0</ele><time>2026-04-25T14:27:52.406Z</time></trkpt><trkpt lat="45.6557066" lon="10.9138621"><ele>389.66666666666663</ele><time>2026-04-25T14:27:54.406Z</time></trkpt><trkpt lat="45.6556874" lon="10.9139517"><ele>387.3333333333333</ele><time>2026-04-25T14:27:56.407Z</time></trkpt><trkpt lat="45.6557235" lon="10.914031"><ele>385.0</ele><time>2026-04-25T14:27:58.406Z</time></trkpt><trkpt lat="45.6557946" lon="10.9140106"><ele>382.66666666666663</ele><time>2026-04-25T14:28:00.407Z</time></trkpt><trkpt lat="45.6558375" lon="10.9139233"><ele>380.3333333333333</ele><time>2026-04-25T14:28:01.406Z</time></trkpt><trkpt lat="45.6558723" lon="10.9137733"><ele>378.0</ele><time>2026-04-25T14:28:02.406Z</time></trkpt><trkpt lat="45.6558971" lon="10.9135899"><ele>381.5</ele><time>2026-04-25T14:28:03.406Z</time></trkpt><trkpt lat="45.6559171" lon="10.9133971"><ele>385.0</ele><time>2026-04-25T14:28:04.407Z</time></trkpt><trkpt lat="45.655932" lon="10.9132131"><ele>388.5</ele><time>2026-04-25T14:28:05.406Z</time></trkpt><trkpt lat="45.6559314" lon="10.913035"><ele>392.0</ele><time>2026-04-25T14:28:06.406Z</time></trkpt><trkpt lat="45.6559256" lon="10.9128611"><ele>392.0</ele><time>2026-04-25T14:28:07.406Z</time></trkpt><trkpt lat="45.6559238" lon="10.9126956"><ele>392.0</ele><time>2026-04-25T14:28:08.406Z</time></trkpt><trkpt lat="45.6559323" lon="10.9125425"><ele>392.0</ele><time>2026-04-25T14:28:09.406Z</time></trkpt><trkpt lat="45.6559421" lon="10.9123935"><ele>392.0</ele><time>2026-04-25T14:28:10.406Z</time></trkpt><trkpt lat="45.655941" lon="10.9122378"><ele>392.0</ele><time>2026-04-25T14:28:11.406Z</time></trkpt><trkpt lat="45.655919" lon="10.9120702"><ele>391.25</ele><time>2026-04-25T14:28:12.407Z</time></trkpt><trkpt lat="45.6558757" lon="10.9119013"><ele>390.5</ele><time>2026-04-25T14:28:13.406Z</time></trkpt><trkpt lat="45.6558149" lon="10.9117454"><ele>389.75</ele><time>2026-04-25T14:28:14.406Z</time></trkpt><trkpt lat="45.6557401" lon="10.9116067"><ele>389.0</ele><time>2026-04-25T14:28:15.407Z</time></trkpt><trkpt lat="45.6556583" lon="10.9114858"><ele>389.6</ele><time>2026-04-25T14:28:16.407Z</time></trkpt><trkpt lat="45.6555761" lon="10.9113876"><ele>390.2</ele><time>2026-04-25T14:28:17.407Z</time></trkpt><trkpt lat="45.6554975" lon="10.9113137"><ele>390.8</ele><time>2026-04-25T14:28:18.406Z</time></trkpt><trkpt lat="45.6553819" lon="10.9112573"><ele>391.40000000000003</ele><time>2026-04-25T14:28:20.406Z</time></trkpt><trkpt lat="45.6552963" lon="10.91123"><ele>392.0</ele><time>2026-04-25T14:28:21.407Z</time></trkpt><trkpt lat="45.6552059" lon="10.9112042"><ele>392.0</ele><time>2026-04-25T14:28:22.406Z</time></trkpt><trkpt lat="45.655119" lon="10.9111675"><ele>392.0</ele><time>2026-04-25T14:28:23.406Z</time></trkpt><trkpt lat="45.6550446" lon="10.9111104"><ele>392.0</ele><time>2026-04-25T14:28:24.406Z</time></trkpt><trkpt lat="45.6549754" lon="10.911021"><ele>392.0</ele><time>2026-04-25T14:28:25.407Z</time></trkpt><trkpt lat="45.6548969" lon="10.9108774"><ele>392.0</ele><time>2026-04-25T14:28:26.406Z</time></trkpt><trkpt lat="45.6548101" lon="10.9107263"><ele>387.75</ele><time>2026-04-25T14:28:27.407Z</time></trkpt><trkpt lat="45.6547192" lon="10.91059"><ele>383.5</ele><time>2026-04-25T14:28:28.407Z</time></trkpt><trkpt lat="45.6546109" lon="10.9104992"><ele>379.25</ele><time>2026-04-25T14:28:29.406Z</time></trkpt><trkpt lat="45.654481" lon="10.9104614"><ele>375.0</ele><time>2026-04-25T14:28:30.406Z</time></trkpt><trkpt lat="45.6543297" lon="10.9104703"><ele>375.0</ele><time>2026-04-25T14:28:31.406Z</time></trkpt><trkpt lat="45.6541676" lon="10.9105051"><ele>375.0</ele><time>2026-04-25T14:28:32.406Z</time></trkpt><trkpt lat="45.6540108" lon="10.9105465"><ele>375.0</ele><time>2026-04-25T14:28:33.407Z</time></trkpt><trkpt lat="45.6538599" lon="10.9105969"><ele>375.0</ele><time>2026-04-25T14:28:34.407Z</time></trkpt><trkpt lat="45.6537026" lon="10.910612"><ele>375.0</ele><time>2026-04-25T14:28:35.407Z</time></trkpt><trkpt lat="45.6535634" lon="10.9105653"><ele>375.0</ele><time>2026-04-25T14:28:36.407Z</time></trkpt><trkpt lat="45.6534202" lon="10.9104668"><ele>377.3333333333333</ele><time>2026-04-25T14:28:37.407Z</time></trkpt><trkpt lat="45.6532821" lon="10.9103599"><ele>379.66666666666663</ele><time>2026-04-25T14:28:38.406Z</time></trkpt><trkpt lat="45.6531283" lon="10.9102924"><ele>382.0</ele><time>2026-04-25T14:28:39.406Z</time></trkpt><trkpt lat="45.6529659" lon="10.9102735"><ele>382.0</ele><time>2026-04-25T14:28:40.406Z</time></trkpt><trkpt lat="45.652815" lon="10.9102719"><ele>382.0</ele><time>2026-04-25T14:28:41.406Z</time></trkpt><trkpt lat="45.6526704" lon="10.9103119"><ele>382.0</ele><time>2026-04-25T14:28:42.406Z</time></trkpt><trkpt lat="45.6525524" lon="10.9103675"><ele>382.0</ele><time>2026-04-25T14:28:43.407Z</time></trkpt><trkpt lat="45.652466" lon="10.9104192"><ele>380.40000000000003</ele><time>2026-04-25T14:28:44.407Z</time></trkpt><trkpt lat="45.652395" lon="10.9104624"><ele>378.8</ele><time>2026-04-25T14:28:45.407Z</time></trkpt><trkpt lat="45.6522957" lon="10.9104066"><ele>377.2</ele><time>2026-04-25T14:28:47.406Z</time></trkpt><trkpt lat="45.6523799" lon="10.9102709"><ele>375.6</ele><time>2026-04-25T14:28:49.407Z</time></trkpt><trkpt lat="45.6524853" lon="10.9102505"><ele>374.0</ele><time>2026-04-25T14:28:50.407Z</time></trkpt><trkpt lat="45.6526286" lon="10.9102425"><ele>374.0</ele><time>2026-04-25T14:28:51.407Z</time></trkpt><trkpt lat="45.6527866" lon="10.9101844"><ele>374.0</ele><time>2026-04-25T14:28:52.407Z</time></trkpt><trkpt lat="45.6529474" lon="10.9100821"><ele>374.0</ele><time>2026-04-25T14:28:53.407Z</time></trkpt><trkpt lat="45.6530908" lon="10.9099731"><ele>362.6666666666667</ele><time>2026-04-25T14:28:54.407Z</time></trkpt><trkpt lat="45.6532682" lon="10.9098932"><ele>351.3333333333333</ele><time>2026-04-25T14:28:55.407Z</time></trkpt><trkpt lat="45.6534436" lon="10.909864"><ele>340.0</ele><time>2026-04-25T14:28:56.407Z</time></trkpt><trkpt lat="45.6536046" lon="10.9099251"><ele>342.4</ele><time>2026-04-25T14:28:57.407Z</time></trkpt><trkpt lat="45.653745" lon="10.9100285"><ele>344.8</ele><time>2026-04-25T14:28:58.407Z</time></trkpt><trkpt lat="45.6538605" lon="10.9100871"><ele>347.20000000000005</ele><time>2026-04-25T14:28:59.407Z</time></trkpt><trkpt lat="45.6539372" lon="10.9100803"><ele>349.6</ele><time>2026-04-25T14:29:00.407Z</time></trkpt><trkpt lat="45.6539906" lon="10.9100087"><ele>352.0</ele><time>2026-04-25T14:29:01.407Z</time></trkpt><trkpt lat="45.6540296" lon="10.9098954"><ele>352.0</ele><time>2026-04-25T14:29:02.407Z</time></trkpt><trkpt lat="45.6540593" lon="10.9097645"><ele>352.0</ele><time>2026-04-25T14:29:03.407Z</time></trkpt><trkpt lat="45.6540827" lon="10.9096342"><ele>352.0</ele><time>2026-04-25T14:29:04.408Z</time></trkpt><trkpt lat="45.6541139" lon="10.9094799"><ele>352.0</ele><time>2026-04-25T14:29:05.407Z</time></trkpt><trkpt lat="45.6541865" lon="10.9093291"><ele>352.0</ele><time>2026-04-25T14:29:06.408Z</time></trkpt><trkpt lat="45.6542974" lon="10.909208"><ele>343.66666666666663</ele><time>2026-04-25T14:29:07.407Z</time></trkpt><trkpt lat="45.6544267" lon="10.9091118"><ele>335.3333333333333</ele><time>2026-04-25T14:29:08.407Z</time></trkpt><trkpt lat="45.6545736" lon="10.9090657"><ele>327.0</ele><time>2026-04-25T14:29:09.407Z</time></trkpt><trkpt lat="45.6547454" lon="10.9090634"><ele>327.0</ele><time>2026-04-25T14:29:10.407Z</time></trkpt><trkpt lat="45.6549212" lon="10.909081"><ele>327.0</ele><time>2026-04-25T14:29:11.408Z</time></trkpt><trkpt lat="45.655061" lon="10.9090634"><ele>327.0</ele><time>2026-04-25T14:29:12.407Z</time></trkpt><trkpt lat="45.6551714" lon="10.9090168"><ele>327.0</ele><time>2026-04-25T14:29:13.407Z</time></trkpt><trkpt lat="45.6552648" lon="10.9089832"><ele>328.75</ele><time>2026-04-25T14:29:14.407Z</time></trkpt><trkpt lat="45.6553657" lon="10.9089931"><ele>330.5</ele><time>2026-04-25T14:29:15.408Z</time></trkpt><trkpt lat="45.65549" lon="10.9090859"><ele>332.25</ele><time>2026-04-25T14:29:16.407Z</time></trkpt><trkpt lat="45.6555936" lon="10.9092228"><ele>334.0</ele><time>2026-04-25T14:29:17.407Z</time></trkpt><trkpt lat="45.6557086" lon="10.9093052"><ele>334.0</ele><time>2026-04-25T14:29:18.407Z</time></trkpt><trkpt lat="45.6558402" lon="10.9093246"><ele>334.0</ele><time>2026-04-25T14:29:19.407Z</time></trkpt><trkpt lat="45.6559925" lon="10.9092933"><ele>334.0</ele><time>2026-04-25T14:29:20.407Z</time></trkpt><trkpt lat="45.656144" lon="10.9092543"><ele>334.0</ele><time>2026-04-25T14:29:21.408Z</time></trkpt><trkpt lat="45.6562888" lon="10.9092214"><ele>331.0</ele><time>2026-04-25T14:29:22.407Z</time></trkpt><trkpt lat="45.6564218" lon="10.9092155"><ele>328.0</ele><time>2026-04-25T14:29:23.407Z</time></trkpt><trkpt lat="45.6565591" lon="10.9092525"><ele>325.0</ele><time>2026-04-25T14:29:24.407Z</time></trkpt><trkpt lat="45.6566889" lon="10.9093402"><ele>322.0</ele><time>2026-04-25T14:29:25.407Z</time></trkpt><trkpt lat="45.6568069" lon="10.909429"><ele>322.0</ele><time>2026-04-25T14:29:26.407Z</time></trkpt><trkpt lat="45.6569165" lon="10.9094568"><ele>322.0</ele><time>2026-04-25T14:29:27.407Z</time></trkpt><trkpt lat="45.6570195" lon="10.9094329"><ele>322.0</ele><time>2026-04-25T14:29:28.408Z</time></trkpt><trkpt lat="45.6571169" lon="10.9093573"><ele>322.0</ele><time>2026-04-25T14:29:29.407Z</time></trkpt><trkpt lat="45.6572128" lon="10.9092922"><ele>322.0</ele><time>2026-04-25T14:29:30.407Z</time></trkpt><trkpt lat="45.6573046" lon="10.9092703"><ele>317.0</ele><time>2026-04-25T14:29:31.408Z</time></trkpt><trkpt lat="45.6574069" lon="10.909348"><ele>312.0</ele><time>2026-04-25T14:29:32.408Z</time></trkpt><trkpt lat="45.6575089" lon="10.9094617"><ele>307.0</ele><time>2026-04-25T14:29:33.408Z</time></trkpt><trkpt lat="45.6575953" lon="10.9095715"><ele>302.0</ele><time>2026-04-25T14:29:34.407Z</time></trkpt><trkpt lat="45.6576637" lon="10.9096781"><ele>302.0</ele><time>2026-04-25T14:29:35.407Z</time></trkpt><trkpt lat="45.657717" lon="10.9097691"><ele>302.0</ele><time>2026-04-25T14:29:36.407Z</time></trkpt><trkpt lat="45.6578017" lon="10.9097723"><ele>302.0</ele><time>2026-04-25T14:29:38.407Z</time></trkpt><trkpt lat="45.657819" lon="10.9096047"><ele>302.0</ele><time>2026-04-25T14:29:40.408Z</time></trkpt><trkpt lat="45.6577513" lon="10.9094749"><ele>302.0</ele><time>2026-04-25T14:29:41.407Z</time></trkpt><trkpt lat="45.6576229" lon="10.909377"><ele>302.0</ele><time>2026-04-25T14:29:42.408Z</time></trkpt><trkpt lat="45.6575071" lon="10.9092506"><ele>302.0</ele><time>2026-04-25T14:29:43.407Z</time></trkpt><trkpt lat="45.6573982" lon="10.9090811"><ele>302.0</ele><time>2026-04-25T14:29:44.407Z</time></trkpt><trkpt lat="45.6573025" lon="10.9089286"><ele>301.5</ele><time>2026-04-25T14:29:45.407Z</time></trkpt><trkpt lat="45.6572045" lon="10.9088151"><ele>301.0</ele><time>2026-04-25T14:29:46.407Z</time></trkpt><trkpt lat="45.6570942" lon="10.9087507"><ele>300.5</ele><time>2026-04-25T14:29:47.407Z</time></trkpt><trkpt lat="45.6569674" lon="10.9087474"><ele>300.0</ele><time>2026-04-25T14:29:48.407Z</time></trkpt><trkpt lat="45.6568473" lon="10.9087653"><ele>300.0</ele><time>2026-04-25T14:29:49.407Z</time></trkpt><trkpt lat="45.6567367" lon="10.9087321"><ele>300.0</ele><time>2026-04-25T14:29:50.407Z</time></trkpt><trkpt lat="45.6566727" lon="10.9086116"><ele>300.0</ele><time>2026-04-25T14:29:51.407Z</time></trkpt><trkpt lat="45.6566126" lon="10.9084447"><ele>300.0</ele><time>2026-04-25T14:29:52.407Z</time></trkpt><trkpt lat="45.6565671" lon="10.908268"><ele>294.4</ele><time>2026-04-25T14:29:53.407Z</time></trkpt><trkpt lat="45.6565437" lon="10.9081143"><ele>288.8</ele><time>2026-04-25T14:29:54.408Z</time></trkpt><trkpt lat="45.6565031" lon="10.9079729"><ele>283.2</ele><time>2026-04-25T14:29:55.408Z</time></trkpt><trkpt lat="45.6564315" lon="10.9078718"><ele>277.6</ele><time>2026-04-25T14:29:56.408Z</time></trkpt><trkpt lat="45.6563286" lon="10.9078008"><ele>272.0</ele><time>2026-04-25T14:29:57.409Z</time></trkpt><trkpt lat="45.6561839" lon="10.9077752"><ele>276.6666666666667</ele><time>2026-04-25T14:29:58.408Z</time></trkpt><trkpt lat="45.6560196" lon="10.9077728"><ele>281.3333333333333</ele><time>2026-04-25T14:29:59.408Z</time></trkpt><trkpt lat="45.6558517" lon="10.907746"><ele>286.0</ele><time>2026-04-25T14:30:00.408Z</time></trkpt><trkpt lat="45.6556677" lon="10.907695"><ele>286.0</ele><time>2026-04-25T14:30:01.409Z</time></trkpt><trkpt lat="45.6555074" lon="10.9075958"><ele>286.0</ele><time>2026-04-25T14:30:02.409Z</time></trkpt><trkpt lat="45.6553679" lon="10.9075037"><ele>286.0</ele><time>2026-04-25T14:30:03.408Z</time></trkpt><trkpt lat="45.6552424" lon="10.9074274"><ele>277.66666666666663</ele><time>2026-04-25T14:30:04.409Z</time></trkpt><trkpt lat="45.6549862" lon="10.9073779"><ele>269.3333333333333</ele><time>2026-04-25T14:30:06.408Z</time></trkpt><trkpt lat="45.6548534" lon="10.9074172"><ele>261.0</ele><time>2026-04-25T14:30:07.408Z</time></trkpt><trkpt lat="45.6547005" lon="10.9074727"><ele>261.0</ele><time>2026-04-25T14:30:08.409Z</time></trkpt><trkpt lat="45.6545418" lon="10.9075222"><ele>261.0</ele><time>2026-04-25T14:30:09.409Z</time></trkpt><trkpt lat="45.654393" lon="10.9075531"><ele>261.0</ele><time>2026-04-25T14:30:10.409Z</time></trkpt><trkpt lat="45.6542541" lon="10.9075813"><ele>258.6</ele><time>2026-04-25T14:30:11.409Z</time></trkpt><trkpt lat="45.6541264" lon="10.907626"><ele>256.20000000000005</ele><time>2026-04-25T14:30:12.408Z</time></trkpt><trkpt lat="45.6540242" lon="10.9076677"><ele>253.79999999999998</ele><time>2026-04-25T14:30:13.408Z</time></trkpt><trkpt lat="45.6539395" lon="10.9077157"><ele>251.39999999999998</ele><time>2026-04-25T14:30:14.408Z</time></trkpt><trkpt lat="45.6538485" lon="10.9076588"><ele>249.0</ele><time>2026-04-25T14:30:16.409Z</time></trkpt><trkpt lat="45.653833" lon="10.9075563"><ele>249.0</ele><time>2026-04-25T14:30:17.409Z</time></trkpt><trkpt lat="45.6539291" lon="10.9074432"><ele>249.0</ele><time>2026-04-25T14:30:19.408Z</time></trkpt><trkpt lat="45.6540415" lon="10.9073981"><ele>249.0</ele><time>2026-04-25T14:30:20.408Z</time></trkpt><trkpt lat="45.6541625" lon="10.9073567"><ele>249.0</ele><time>2026-04-25T14:30:21.408Z</time></trkpt><trkpt lat="45.6542753" lon="10.9072906"><ele>249.0</ele><time>2026-04-25T14:30:22.409Z</time></trkpt><trkpt lat="45.6544306" lon="10.9071759"><ele>249.0</ele><time>2026-04-25T14:30:23.409Z</time></trkpt><trkpt lat="45.6545964" lon="10.9070622"><ele>249.0</ele><time>2026-04-25T14:30:24.408Z</time></trkpt><trkpt lat="45.6547859" lon="10.9069509"><ele>253.0</ele><time>2026-04-25T14:30:25.408Z</time></trkpt><trkpt lat="45.6549702" lon="10.9068394"><ele>257.0</ele><time>2026-04-25T14:30:26.409Z</time></trkpt><trkpt lat="45.6551541" lon="10.9067523"><ele>261.0</ele><time>2026-04-25T14:30:27.408Z</time></trkpt><trkpt lat="45.6553372" lon="10.9066866"><ele>251.66666666666669</ele><time>2026-04-25T14:30:28.409Z</time></trkpt><trkpt lat="45.6555108" lon="10.9066247"><ele>242.33333333333334</ele><time>2026-04-25T14:30:29.408Z</time></trkpt><trkpt lat="45.6556915" lon="10.906556"><ele>233.0</ele><time>2026-04-25T14:30:30.408Z</time></trkpt><trkpt lat="45.6558623" lon="10.9064714"><ele>233.0</ele><time>2026-04-25T14:30:31.408Z</time></trkpt><trkpt lat="45.6560455" lon="10.9063951"><ele>233.0</ele><time>2026-04-25T14:30:32.409Z</time></trkpt><trkpt lat="45.6561928" lon="10.9063527"><ele>233.0</ele><time>2026-04-25T14:30:33.408Z</time></trkpt><trkpt lat="45.6563731" lon="10.9063145"><ele>232.5</ele><time>2026-04-25T14:30:34.409Z</time></trkpt><trkpt lat="45.6564853" lon="10.9062298"><ele>232.0</ele><time>2026-04-25T14:30:35.409Z</time></trkpt><trkpt lat="45.6565755" lon="10.9060921"><ele>231.5</ele><time>2026-04-25T14:30:36.408Z</time></trkpt><trkpt lat="45.6566872" lon="10.9059694"><ele>231.0</ele><time>2026-04-25T14:30:37.408Z</time></trkpt><trkpt lat="45.6568266" lon="10.9059013"><ele>226.25</ele><time>2026-04-25T14:30:38.408Z</time></trkpt><trkpt lat="45.656978" lon="10.9058735"><ele>221.5</ele><time>2026-04-25T14:30:39.409Z</time></trkpt><trkpt lat="45.6571379" lon="10.905872"><ele>216.75</ele><time>2026-04-25T14:30:40.408Z</time></trkpt><trkpt lat="45.657255" lon="10.9059301"><ele>212.0</ele><time>2026-04-25T14:30:41.408Z</time></trkpt><trkpt lat="45.6573564" lon="10.9060501"><ele>212.0</ele><time>2026-04-25T14:30:42.408Z</time></trkpt><trkpt lat="45.6574686" lon="10.9062336"><ele>212.0</ele><time>2026-04-25T14:30:43.409Z</time></trkpt><trkpt lat="45.6575574" lon="10.9063954"><ele>212.0</ele><time>2026-04-25T14:30:44.408Z</time></trkpt><trkpt lat="45.657626" lon="10.9065306"><ele>212.0</ele><time>2026-04-25T14:30:45.408Z</time></trkpt><trkpt lat="45.6576734" lon="10.9066328"><ele>208.39999999999998</ele><time>2026-04-25T14:30:46.408Z</time></trkpt><trkpt lat="45.6578114" lon="10.9066449"><ele>204.79999999999998</ele><time>2026-04-25T14:30:48.409Z</time></trkpt><trkpt lat="45.6579072" lon="10.9066061"><ele>201.2</ele><time>2026-04-25T14:30:49.409Z</time></trkpt><trkpt lat="45.6579967" lon="10.9065718"><ele>197.6</ele><time>2026-04-25T14:30:50.408Z</time></trkpt><trkpt lat="45.6580898" lon="10.9065433"><ele>194.0</ele><time>2026-04-25T14:30:51.408Z</time></trkpt><trkpt lat="45.6581776" lon="10.9065259"><ele>194.0</ele><time>2026-04-25T14:30:52.408Z</time></trkpt><trkpt lat="45.6582754" lon="10.90655"><ele>194.0</ele><time>2026-04-25T14:30:53.408Z</time></trkpt><trkpt lat="45.6583546" lon="10.9066143"><ele>194.0</ele><time>2026-04-25T14:30:54.409Z</time></trkpt><trkpt lat="45.6584016" lon="10.9067363"><ele>194.0</ele><time>2026-04-25T14:30:55.408Z</time></trkpt><trkpt lat="45.6584262" lon="10.9069088"><ele>194.0</ele><time>2026-04-25T14:30:56.409Z</time></trkpt><trkpt lat="45.6584481" lon="10.9070902"><ele>195.5</ele><time>2026-04-25T14:30:57.408Z</time></trkpt><trkpt lat="45.6584978" lon="10.9072832"><ele>197.0</ele><time>2026-04-25T14:30:58.409Z</time></trkpt><trkpt lat="45.6585616" lon="10.907453"><ele>198.5</ele><time>2026-04-25T14:30:59.409Z</time></trkpt><trkpt lat="45.6586191" lon="10.9076053"><ele>200.0</ele><time>2026-04-25T14:31:00.41Z</time></trkpt><trkpt lat="45.6586736" lon="10.9077419"><ele>200.00000000000003</ele><time>2026-04-25T14:31:01.41Z</time></trkpt><trkpt lat="45.6587289" lon="10.9078696"><ele>200.0</ele><time>2026-04-25T14:31:02.409Z</time></trkpt><trkpt lat="45.6587864" lon="10.9079796"><ele>200.0</ele><time>2026-04-25T14:31:03.41Z</time></trkpt><trkpt lat="45.6588388" lon="10.9080687"><ele>200.0</ele><time>2026-04-25T14:31:04.409Z</time></trkpt><trkpt lat="45.6589068" lon="10.9081381"><ele>200.00000000000003</ele><time>2026-04-25T14:31:05.409Z</time></trkpt><trkpt lat="45.6589822" lon="10.9081562"><ele>200.0</ele><time>2026-04-25T14:31:06.409Z</time></trkpt><trkpt lat="45.6590581" lon="10.9081208"><ele>200.0</ele><time>2026-04-25T14:31:07.409Z</time></trkpt><trkpt lat="45.6591253" lon="10.9080404"><ele>200.0</ele><time>2026-04-25T14:31:08.409Z</time></trkpt><trkpt lat="45.6591689" lon="10.9079196"><ele>200.0</ele><time>2026-04-25T14:31:09.409Z</time></trkpt><trkpt lat="45.6591823" lon="10.9077691"><ele>200.0</ele><time>2026-04-25T14:31:10.41Z</time></trkpt><trkpt lat="45.6591596" lon="10.9076184"><ele>200.0</ele><time>2026-04-25T14:31:11.409Z</time></trkpt><trkpt lat="45.659103" lon="10.9074574"><ele>197.75</ele><time>2026-04-25T14:31:12.409Z</time></trkpt><trkpt lat="45.6590528" lon="10.9072932"><ele>195.5</ele><time>2026-04-25T14:31:13.409Z</time></trkpt><trkpt lat="45.6590158" lon="10.9071194"><ele>193.25</ele><time>2026-04-25T14:31:14.409Z</time></trkpt><trkpt lat="45.658986" lon="10.90694"><ele>191.0</ele><time>2026-04-25T14:31:15.409Z</time></trkpt><trkpt lat="45.6589644" lon="10.9067578"><ele>188.75</ele><time>2026-04-25T14:31:16.409Z</time></trkpt><trkpt lat="45.658952" lon="10.9065752"><ele>186.5</ele><time>2026-04-25T14:31:17.409Z</time></trkpt><trkpt lat="45.6589492" lon="10.9063918"><ele>184.25</ele><time>2026-04-25T14:31:18.409Z</time></trkpt><trkpt lat="45.6589499" lon="10.9062078"><ele>182.0</ele><time>2026-04-25T14:31:19.41Z</time></trkpt><trkpt lat="45.6589501" lon="10.9060276"><ele>180.25</ele><time>2026-04-25T14:31:20.409Z</time></trkpt><trkpt lat="45.6589442" lon="10.9058567"><ele>178.5</ele><time>2026-04-25T14:31:21.409Z</time></trkpt><trkpt lat="45.6589371" lon="10.9056852"><ele>176.75</ele><time>2026-04-25T14:31:22.41Z</time></trkpt><trkpt lat="45.6589449" lon="10.9055257"><ele>175.0</ele><time>2026-04-25T14:31:23.409Z</time></trkpt><trkpt lat="45.6589744" lon="10.9053732"><ele>175.0</ele><time>2026-04-25T14:31:24.409Z</time></trkpt><trkpt lat="45.6590167" lon="10.9052364"><ele>175.0</ele><time>2026-04-25T14:31:25.41Z</time></trkpt><trkpt lat="45.6590738" lon="10.9051029"><ele>175.0</ele><time>2026-04-25T14:31:26.409Z</time></trkpt><trkpt lat="45.6591308" lon="10.9049687"><ele>175.0</ele><time>2026-04-25T14:31:27.409Z</time></trkpt><trkpt lat="45.6591898" lon="10.9048391"><ele>175.0</ele><time>2026-04-25T14:31:28.409Z</time></trkpt><trkpt lat="45.6592459" lon="10.9047173"><ele>173.4</ele><time>2026-04-25T14:31:29.41Z</time></trkpt><trkpt lat="45.6593016" lon="10.9045957"><ele>171.8</ele><time>2026-04-25T14:31:30.409Z</time></trkpt><trkpt lat="45.6593475" lon="10.904479"><ele>170.2</ele><time>2026-04-25T14:31:31.41Z</time></trkpt><trkpt lat="45.6593836" lon="10.9043579"><ele>168.6</ele><time>2026-04-25T14:31:32.41Z</time></trkpt><trkpt lat="45.6594126" lon="10.904241"><ele>167.0</ele><time>2026-04-25T14:31:33.409Z</time></trkpt><trkpt lat="45.6594388" lon="10.9041202"><ele>167.57142857142856</ele><time>2026-04-25T14:31:34.41Z</time></trkpt><trkpt lat="45.6594571" lon="10.9040144"><ele>168.14285714285714</ele><time>2026-04-25T14:31:35.409Z</time></trkpt><trkpt lat="45.6594758" lon="10.903916"><ele>168.71428571428572</ele><time>2026-04-25T14:31:36.41Z</time></trkpt><trkpt lat="45.6594961" lon="10.9038168"><ele>169.28571428571428</ele><time>2026-04-25T14:31:37.41Z</time></trkpt><trkpt lat="45.6595216" lon="10.9037133"><ele>169.85714285714286</ele><time>2026-04-25T14:31:38.409Z</time></trkpt><trkpt lat="45.6595586" lon="10.9036204"><ele>170.42857142857142</ele><time>2026-04-25T14:31:39.409Z</time></trkpt><trkpt lat="45.6595992" lon="10.9035354"><ele>171.0</ele><time>2026-04-25T14:31:40.409Z</time></trkpt><trkpt lat="45.659658" lon="10.9034113"><ele>170.99999999999997</ele><time>2026-04-25T14:31:42.41Z</time></trkpt><trkpt lat="45.6596227" lon="10.9032813"><ele>171.0</ele><time>2026-04-25T14:31:51.409Z</time></trkpt><trkpt lat="45.6595627" lon="10.9032518"><ele>171.0</ele><time>2026-04-25T14:31:52.409Z</time></trkpt><trkpt lat="45.6594941" lon="10.9032539"><ele>171.0</ele><time>2026-04-25T14:31:53.409Z</time></trkpt><trkpt lat="45.6594248" lon="10.9033025"><ele>171.0</ele><time>2026-04-25T14:31:55.409Z</time></trkpt><trkpt lat="45.6594276" lon="10.9033991"><ele>170.99999999999997</ele><time>2026-04-25T14:31:57.409Z</time></trkpt><trkpt lat="45.6594886" lon="10.90343"><ele>171.0</ele><time>2026-04-25T14:32:00.409Z</time></trkpt><trkpt lat="45.6595801" lon="10.9034698"><ele>171.0</ele><time>2026-04-25T14:41:44.418Z</time></trkpt><trkpt lat="45.6597005" lon="10.9034231"><ele>171.0</ele><time>2026-04-25T14:41:46.419Z</time></trkpt><trkpt lat="45.6598298" lon="10.9032935"><ele>171.0</ele><time>2026-04-25T14:41:48.418Z</time></trkpt><trkpt lat="45.6599424" lon="10.9032166"><ele>171.0</ele><time>2026-04-25T14:41:49.418Z</time></trkpt><trkpt lat="45.6600876" lon="10.9031335"><ele>166.66666666666666</ele><time>2026-04-25T14:41:50.418Z</time></trkpt><trkpt lat="45.6602603" lon="10.9030443"><ele>162.33333333333331</ele><time>2026-04-25T14:41:51.419Z</time></trkpt><trkpt lat="45.6604381" lon="10.9029529"><ele>158.0</ele><time>2026-04-25T14:41:52.419Z</time></trkpt><trkpt lat="45.6606198" lon="10.9028795"><ele>158.0</ele><time>2026-04-25T14:41:53.419Z</time></trkpt><trkpt lat="45.6608144" lon="10.9028632"><ele>158.0</ele><time>2026-04-25T14:41:54.419Z</time></trkpt><trkpt lat="45.6609826" lon="10.902854"><ele>158.0</ele><time>2026-04-25T14:41:55.42Z</time></trkpt><trkpt lat="45.6611615" lon="10.9028595"><ele>158.66666666666666</ele><time>2026-04-25T14:41:56.419Z</time></trkpt><trkpt lat="45.6613518" lon="10.9028687"><ele>159.33333333333334</ele><time>2026-04-25T14:41:57.419Z</time></trkpt><trkpt lat="45.661549" lon="10.9028742"><ele>160.0</ele><time>2026-04-25T14:41:58.42Z</time></trkpt><trkpt lat="45.6617504" lon="10.9028778"><ele>157.0</ele><time>2026-04-25T14:41:59.419Z</time></trkpt><trkpt lat="45.6619491" lon="10.9028807"><ele>154.0</ele><time>2026-04-25T14:42:00.42Z</time></trkpt><trkpt lat="45.6621444" lon="10.9028898"><ele>151.0</ele><time>2026-04-25T14:42:01.42Z</time></trkpt><trkpt lat="45.6623357" lon="10.9029022"><ele>151.0</ele><time>2026-04-25T14:42:02.42Z</time></trkpt><trkpt lat="45.6625223" lon="10.9029301"><ele>151.0</ele><time>2026-04-25T14:42:03.419Z</time></trkpt><trkpt lat="45.6627026" lon="10.9029688"><ele>151.0</ele><time>2026-04-25T14:42:04.419Z</time></trkpt><trkpt lat="45.6628703" lon="10.9030195"><ele>147.0</ele><time>2026-04-25T14:42:05.419Z</time></trkpt><trkpt lat="45.6630433" lon="10.9031008"><ele>143.0</ele><time>2026-04-25T14:42:06.419Z</time></trkpt><trkpt lat="45.6632139" lon="10.9032036"><ele>139.0</ele><time>2026-04-25T14:42:07.42Z</time></trkpt><trkpt lat="45.663379" lon="10.9033075"><ele>137.66666666666669</ele><time>2026-04-25T14:42:08.419Z</time></trkpt><trkpt lat="45.6635543" lon="10.9034182"><ele>136.33333333333334</ele><time>2026-04-25T14:42:09.42Z</time></trkpt><trkpt lat="45.6637423" lon="10.9035512"><ele>135.0</ele><time>2026-04-25T14:42:10.42Z</time></trkpt><trkpt lat="45.6639318" lon="10.9037197"><ele>135.0</ele><time>2026-04-25T14:42:11.419Z</time></trkpt><trkpt lat="45.6641037" lon="10.9038984"><ele>135.0</ele><time>2026-04-25T14:42:12.419Z</time></trkpt><trkpt lat="45.6642504" lon="10.9040797"><ele>135.0</ele><time>2026-04-25T14:42:13.419Z</time></trkpt><trkpt lat="45.6643879" lon="10.9042643"><ele>131.66666666666666</ele><time>2026-04-25T14:42:14.42Z</time></trkpt><trkpt lat="45.6645135" lon="10.9044692"><ele>128.33333333333331</ele><time>2026-04-25T14:42:15.419Z</time></trkpt><trkpt lat="45.6646325" lon="10.9046792"><ele>125.0</ele><time>2026-04-25T14:42:16.419Z</time></trkpt><trkpt lat="45.6647492" lon="10.9048931"><ele>128.33333333333331</ele><time>2026-04-25T14:42:17.419Z</time></trkpt><trkpt lat="45.6648587" lon="10.9050986"><ele>131.66666666666666</ele><time>2026-04-25T14:42:18.419Z</time></trkpt><trkpt lat="45.6649495" lon="10.9052963"><ele>135.0</ele><time>2026-04-25T14:42:19.419Z</time></trkpt><trkpt lat="45.665042" lon="10.9054943"><ele>135.0</ele><time>2026-04-25T14:42:20.419Z</time></trkpt><trkpt lat="45.6651574" lon="10.9056547"><ele>135.0</ele><time>2026-04-25T14:42:21.42Z</time></trkpt><trkpt lat="45.6653158" lon="10.9057805"><ele>135.0</ele><time>2026-04-25T14:42:22.42Z</time></trkpt><trkpt lat="45.6654952" lon="10.905847"><ele>136.33333333333334</ele><time>2026-04-25T14:42:23.419Z</time></trkpt><trkpt lat="45.665686" lon="10.9058963"><ele>137.66666666666669</ele><time>2026-04-25T14:42:24.419Z</time></trkpt><trkpt lat="45.6658844" lon="10.9059294"><ele>139.0</ele><time>2026-04-25T14:42:25.42Z</time></trkpt><trkpt lat="45.6660657" lon="10.9059574"><ele>143.33333333333334</ele><time>2026-04-25T14:42:26.419Z</time></trkpt><trkpt lat="45.6662427" lon="10.9059683"><ele>147.66666666666666</ele><time>2026-04-25T14:42:27.419Z</time></trkpt><trkpt lat="45.6664136" lon="10.9059576"><ele>152.0</ele><time>2026-04-25T14:42:28.42Z</time></trkpt><trkpt lat="45.66658" lon="10.9059282"><ele>146.0</ele><time>2026-04-25T14:42:29.419Z</time></trkpt><trkpt lat="45.6667424" lon="10.9058768"><ele>140.0</ele><time>2026-04-25T14:42:30.419Z</time></trkpt><trkpt lat="45.6669044" lon="10.9058063"><ele>134.0</ele><time>2026-04-25T14:42:31.419Z</time></trkpt><trkpt lat="45.6670563" lon="10.9057317"><ele>134.0</ele><time>2026-04-25T14:42:32.42Z</time></trkpt><trkpt lat="45.6671908" lon="10.9056235"><ele>134.0</ele><time>2026-04-25T14:42:33.42Z</time></trkpt><trkpt lat="45.6673091" lon="10.9054944"><ele>134.0</ele><time>2026-04-25T14:42:34.42Z</time></trkpt><trkpt lat="45.6674083" lon="10.9053412"><ele>134.0</ele><time>2026-04-25T14:42:35.42Z</time></trkpt><trkpt lat="45.667498" lon="10.9051679"><ele>130.66666666666666</ele><time>2026-04-25T14:42:36.42Z</time></trkpt><trkpt lat="45.6675731" lon="10.9049725"><ele>127.33333333333334</ele><time>2026-04-25T14:42:37.419Z</time></trkpt><trkpt lat="45.6676437" lon="10.9047655"><ele>124.0</ele><time>2026-04-25T14:42:38.419Z</time></trkpt><trkpt lat="45.6677112" lon="10.9045515"><ele>124.33333333333334</ele><time>2026-04-25T14:42:39.419Z</time></trkpt><trkpt lat="45.6677926" lon="10.9043472"><ele>124.66666666666666</ele><time>2026-04-25T14:42:40.419Z</time></trkpt><trkpt lat="45.6678881" lon="10.9041632"><ele>125.0</ele><time>2026-04-25T14:42:41.419Z</time></trkpt><trkpt lat="45.6679847" lon="10.9039944"><ele>125.0</ele><time>2026-04-25T14:42:42.42Z</time></trkpt><trkpt lat="45.6680817" lon="10.9038517"><ele>125.0</ele><time>2026-04-25T14:42:43.42Z</time></trkpt><trkpt lat="45.6681861" lon="10.9037224"><ele>125.0</ele><time>2026-04-25T14:42:44.419Z</time></trkpt><trkpt lat="45.6683126" lon="10.9036145"><ele>125.0</ele><time>2026-04-25T14:42:45.419Z</time></trkpt><trkpt lat="45.6684625" lon="10.9035283"><ele>126.66666666666666</ele><time>2026-04-25T14:42:46.419Z</time></trkpt><trkpt lat="45.6686225" lon="10.9034567"><ele>128.33333333333334</ele><time>2026-04-25T14:42:47.419Z</time></trkpt><trkpt lat="45.6687789" lon="10.9033938"><ele>130.0</ele><time>2026-04-25T14:42:48.42Z</time></trkpt><trkpt lat="45.6689357" lon="10.9033426"><ele>130.0</ele><time>2026-04-25T14:42:49.419Z</time></trkpt><trkpt lat="45.6690893" lon="10.9032991"><ele>130.0</ele><time>2026-04-25T14:42:50.42Z</time></trkpt><trkpt lat="45.6692388" lon="10.9032532"><ele>130.0</ele><time>2026-04-25T14:42:51.419Z</time></trkpt><trkpt lat="45.6693805" lon="10.9032087"><ele>131.25</ele><time>2026-04-25T14:42:52.419Z</time></trkpt><trkpt lat="45.669516" lon="10.9031693"><ele>132.5</ele><time>2026-04-25T14:42:53.42Z</time></trkpt><trkpt lat="45.6696504" lon="10.9031413"><ele>133.75</ele><time>2026-04-25T14:42:54.42Z</time></trkpt><trkpt lat="45.6697902" lon="10.9031433"><ele>135.0</ele><time>2026-04-25T14:42:55.42Z</time></trkpt><trkpt lat="45.6699253" lon="10.9031911"><ele>135.0</ele><time>2026-04-25T14:42:56.419Z</time></trkpt><trkpt lat="45.670051" lon="10.9032929"><ele>135.0</ele><time>2026-04-25T14:42:57.419Z</time></trkpt><trkpt lat="45.6701619" lon="10.9034475"><ele>135.0</ele><time>2026-04-25T14:42:58.419Z</time></trkpt><trkpt lat="45.670256" lon="10.9036303"><ele>137.0</ele><time>2026-04-25T14:42:59.42Z</time></trkpt><trkpt lat="45.6703508" lon="10.9038007"><ele>139.0</ele><time>2026-04-25T14:43:00.42Z</time></trkpt><trkpt lat="45.6704479" lon="10.9039389"><ele>141.0</ele><time>2026-04-25T14:43:01.421Z</time></trkpt><trkpt lat="45.6705742" lon="10.9040579"><ele>143.0</ele><time>2026-04-25T14:43:02.421Z</time></trkpt><trkpt lat="45.6707058" lon="10.9041529"><ele>143.0</ele><time>2026-04-25T14:43:03.42Z</time></trkpt><trkpt lat="45.6708506" lon="10.9042257"><ele>143.0</ele><time>2026-04-25T14:43:04.42Z</time></trkpt><trkpt lat="45.6710006" lon="10.9042685"><ele>143.0</ele><time>2026-04-25T14:43:05.42Z</time></trkpt><trkpt lat="45.6711592" lon="10.9042749"><ele>144.33333333333331</ele><time>2026-04-25T14:43:06.42Z</time></trkpt><trkpt lat="45.6713201" lon="10.9042539"><ele>145.66666666666666</ele><time>2026-04-25T14:43:07.42Z</time></trkpt><trkpt lat="45.6714883" lon="10.9042231"><ele>147.0</ele><time>2026-04-25T14:43:08.42Z</time></trkpt><trkpt lat="45.6716643" lon="10.9041928"><ele>147.0</ele><time>2026-04-25T14:43:09.42Z</time></trkpt><trkpt lat="45.6718431" lon="10.9041673"><ele>147.0</ele><time>2026-04-25T14:43:10.42Z</time></trkpt><trkpt lat="45.6720224" lon="10.9041412"><ele>147.0</ele><time>2026-04-25T14:43:11.421Z</time></trkpt><trkpt lat="45.6721943" lon="10.9041182"><ele>147.33333333333334</ele><time>2026-04-25T14:43:12.42Z</time></trkpt><trkpt lat="45.6723542" lon="10.9040993"><ele>147.66666666666669</ele><time>2026-04-25T14:43:13.421Z</time></trkpt><trkpt lat="45.6725103" lon="10.9040837"><ele>148.0</ele><time>2026-04-25T14:43:14.42Z</time></trkpt><trkpt lat="45.6726651" lon="10.9040757"><ele>147.66666666666669</ele><time>2026-04-25T14:43:15.421Z</time></trkpt><trkpt lat="45.6728223" lon="10.9040816"><ele>147.33333333333334</ele><time>2026-04-25T14:43:16.421Z</time></trkpt><trkpt lat="45.6729811" lon="10.9041176"><ele>147.0</ele><time>2026-04-25T14:43:17.42Z</time></trkpt><trkpt lat="45.6731429" lon="10.9041732"><ele>147.0</ele><time>2026-04-25T14:43:18.42Z</time></trkpt><trkpt lat="45.6733102" lon="10.9042408"><ele>147.0</ele><time>2026-04-25T14:43:19.42Z</time></trkpt><trkpt lat="45.6734741" lon="10.904315"><ele>147.0</ele><time>2026-04-25T14:43:20.42Z</time></trkpt><trkpt lat="45.6736352" lon="10.9043891"><ele>147.0</ele><time>2026-04-25T14:43:21.42Z</time></trkpt><trkpt lat="45.673795" lon="10.9044614"><ele>147.0</ele><time>2026-04-25T14:43:22.42Z</time></trkpt><trkpt lat="45.6739514" lon="10.9045353"><ele>147.0</ele><time>2026-04-25T14:43:23.42Z</time></trkpt><trkpt lat="45.6741099" lon="10.9046193"><ele>147.0</ele><time>2026-04-25T14:43:24.42Z</time></trkpt><trkpt lat="45.6742706" lon="10.9047326"><ele>147.0</ele><time>2026-04-25T14:43:25.42Z</time></trkpt><trkpt lat="45.6744313" lon="10.9048743"><ele>147.0</ele><time>2026-04-25T14:43:26.42Z</time></trkpt><trkpt lat="45.6745795" lon="10.9050276"><ele>145.66666666666666</ele><time>2026-04-25T14:43:27.42Z</time></trkpt><trkpt lat="45.6747195" lon="10.9051878"><ele>144.33333333333331</ele><time>2026-04-25T14:43:28.42Z</time></trkpt><trkpt lat="45.6748576" lon="10.90535"><ele>143.0</ele><time>2026-04-25T14:43:29.42Z</time></trkpt><trkpt lat="45.6749985" lon="10.905508"><ele>143.0</ele><time>2026-04-25T14:43:30.421Z</time></trkpt><trkpt lat="45.6751433" lon="10.905662"><ele>143.0</ele><time>2026-04-25T14:43:31.42Z</time></trkpt><trkpt lat="45.6752938" lon="10.9058089"><ele>143.0</ele><time>2026-04-25T14:43:32.421Z</time></trkpt><trkpt lat="45.6754539" lon="10.9059399"><ele>144.33333333333331</ele><time>2026-04-25T14:43:33.42Z</time></trkpt><trkpt lat="45.6756239" lon="10.9060458"><ele>145.66666666666666</ele><time>2026-04-25T14:43:34.42Z</time></trkpt><trkpt lat="45.6757981" lon="10.9061264"><ele>147.0</ele><time>2026-04-25T14:43:35.42Z</time></trkpt><trkpt lat="45.6759745" lon="10.9061874"><ele>145.33333333333334</ele><time>2026-04-25T14:43:36.421Z</time></trkpt><trkpt lat="45.6761513" lon="10.9062323"><ele>143.66666666666669</ele><time>2026-04-25T14:43:37.421Z</time></trkpt><trkpt lat="45.6763319" lon="10.9062692"><ele>142.0</ele><time>2026-04-25T14:43:38.42Z</time></trkpt><trkpt lat="45.6765177" lon="10.9062952"><ele>142.0</ele><time>2026-04-25T14:43:39.421Z</time></trkpt><trkpt lat="45.6767076" lon="10.9063005"><ele>142.0</ele><time>2026-04-25T14:43:40.421Z</time></trkpt><trkpt lat="45.6768966" lon="10.9062771"><ele>142.0</ele><time>2026-04-25T14:43:41.42Z</time></trkpt><trkpt lat="45.6770824" lon="10.9062276"><ele>141.33333333333334</ele><time>2026-04-25T14:43:42.42Z</time></trkpt><trkpt lat="45.6772686" lon="10.9061613"><ele>140.66666666666666</ele><time>2026-04-25T14:43:43.42Z</time></trkpt><trkpt lat="45.6774524" lon="10.9060997"><ele>140.0</ele><time>2026-04-25T14:43:44.42Z</time></trkpt><trkpt lat="45.6776367" lon="10.9060486"><ele>139.66666666666666</ele><time>2026-04-25T14:43:45.42Z</time></trkpt><trkpt lat="45.6778263" lon="10.906008"><ele>139.33333333333334</ele><time>2026-04-25T14:43:46.42Z</time></trkpt><trkpt lat="45.6780247" lon="10.9059755"><ele>139.0</ele><time>2026-04-25T14:43:47.421Z</time></trkpt><trkpt lat="45.6782323" lon="10.9059552"><ele>139.0</ele><time>2026-04-25T14:43:48.42Z</time></trkpt><trkpt lat="45.6784471" lon="10.9059557"><ele>139.0</ele><time>2026-04-25T14:43:49.42Z</time></trkpt><trkpt lat="45.6786649" lon="10.9059695"><ele>139.0</ele><time>2026-04-25T14:43:50.421Z</time></trkpt><trkpt lat="45.6788821" lon="10.9059794"><ele>138.66666666666669</ele><time>2026-04-25T14:43:51.42Z</time></trkpt><trkpt lat="45.6790938" lon="10.9059802"><ele>138.33333333333334</ele><time>2026-04-25T14:43:52.42Z</time></trkpt><trkpt lat="45.679304" lon="10.9059834"><ele>138.0</ele><time>2026-04-25T14:43:53.42Z</time></trkpt><trkpt lat="45.6795134" lon="10.9059898"><ele>138.0</ele><time>2026-04-25T14:43:54.42Z</time></trkpt><trkpt lat="45.6797207" lon="10.9059976"><ele>138.0</ele><time>2026-04-25T14:43:55.42Z</time></trkpt><trkpt lat="45.6799273" lon="10.9060116"><ele>138.0</ele><time>2026-04-25T14:43:56.42Z</time></trkpt><trkpt lat="45.6801324" lon="10.9060409"><ele>138.66666666666666</ele><time>2026-04-25T14:43:57.421Z</time></trkpt><trkpt lat="45.680339" lon="10.9061022"><ele>139.33333333333331</ele><time>2026-04-25T14:43:58.42Z</time></trkpt><trkpt lat="45.6805586" lon="10.9061883"><ele>140.0</ele><time>2026-04-25T14:43:59.42Z</time></trkpt><trkpt lat="45.680807" lon="10.9062892"><ele>140.0</ele><time>2026-04-25T14:44:00.42Z</time></trkpt><trkpt lat="45.6810776" lon="10.9064112"><ele>140.0</ele><time>2026-04-25T14:44:01.42Z</time></trkpt><trkpt lat="45.6813288" lon="10.9065235"><ele>137.5</ele><time>2026-04-25T14:44:02.421Z</time></trkpt><trkpt lat="45.681562" lon="10.9066241"><ele>135.0</ele><time>2026-04-25T14:44:03.42Z</time></trkpt><trkpt lat="45.681787" lon="10.9067075"><ele>135.5</ele><time>2026-04-25T14:44:04.42Z</time></trkpt><trkpt lat="45.68201" lon="10.9067835"><ele>136.0</ele><time>2026-04-25T14:44:05.422Z</time></trkpt><trkpt lat="45.6822375" lon="10.9068713"><ele>136.0</ele><time>2026-04-25T14:44:06.421Z</time></trkpt><trkpt lat="45.6824586" lon="10.9069908"><ele>136.0</ele><time>2026-04-25T14:44:07.422Z</time></trkpt><trkpt lat="45.6826725" lon="10.9071425"><ele>132.0</ele><time>2026-04-25T14:44:08.422Z</time></trkpt><trkpt lat="45.682877" lon="10.9073259"><ele>128.0</ele><time>2026-04-25T14:44:09.421Z</time></trkpt><trkpt lat="45.6830775" lon="10.9075399"><ele>132.5</ele><time>2026-04-25T14:44:10.421Z</time></trkpt><trkpt lat="45.68328" lon="10.9077734"><ele>137.0</ele><time>2026-04-25T14:44:11.421Z</time></trkpt><trkpt lat="45.6834937" lon="10.9080016"><ele>136.0</ele><time>2026-04-25T14:44:12.421Z</time></trkpt><trkpt lat="45.683709" lon="10.9082136"><ele>135.0</ele><time>2026-04-25T14:44:13.421Z</time></trkpt><trkpt lat="45.6839167" lon="10.9084144"><ele>135.0</ele><time>2026-04-25T14:44:14.421Z</time></trkpt><trkpt lat="45.6841121" lon="10.9086103"><ele>135.0</ele><time>2026-04-25T14:44:15.422Z</time></trkpt><trkpt lat="45.6842985" lon="10.9088189"><ele>132.5</ele><time>2026-04-25T14:44:16.421Z</time></trkpt><trkpt lat="45.6844807" lon="10.9090569"><ele>130.0</ele><time>2026-04-25T14:44:17.422Z</time></trkpt><trkpt lat="45.6846547" lon="10.9093369"><ele>130.0</ele><time>2026-04-25T14:44:18.421Z</time></trkpt><trkpt lat="45.6848122" lon="10.9096408"><ele>130.0</ele><time>2026-04-25T14:44:19.421Z</time></trkpt><trkpt lat="45.6849569" lon="10.909952"><ele>137.0</ele><time>2026-04-25T14:44:20.421Z</time></trkpt><trkpt lat="45.685108" lon="10.9102623"><ele>144.0</ele><time>2026-04-25T14:44:21.421Z</time></trkpt><trkpt lat="45.6852597" lon="10.9105583"><ele>137.0</ele><time>2026-04-25T14:44:22.421Z</time></trkpt><trkpt lat="45.6854031" lon="10.9108463"><ele>130.0</ele><time>2026-04-25T14:44:23.422Z</time></trkpt><trkpt lat="45.6855494" lon="10.9111481"><ele>130.0</ele><time>2026-04-25T14:44:24.421Z</time></trkpt><trkpt lat="45.6856933" lon="10.911455"><ele>130.0</ele><time>2026-04-25T14:44:25.421Z</time></trkpt><trkpt lat="45.685824" lon="10.9117694"><ele>140.5</ele><time>2026-04-25T14:44:26.422Z</time></trkpt><trkpt lat="45.6859527" lon="10.9120888"><ele>151.0</ele><time>2026-04-25T14:44:27.421Z</time></trkpt><trkpt lat="45.6860836" lon="10.9124062"><ele>138.5</ele><time>2026-04-25T14:44:28.421Z</time></trkpt><trkpt lat="45.6862206" lon="10.9127224"><ele>126.0</ele><time>2026-04-25T14:44:29.421Z</time></trkpt><trkpt lat="45.6863551" lon="10.9130296"><ele>126.0</ele><time>2026-04-25T14:44:30.421Z</time></trkpt><trkpt lat="45.6864852" lon="10.9133311"><ele>126.0</ele><time>2026-04-25T14:44:31.421Z</time></trkpt><trkpt lat="45.6866083" lon="10.9136248"><ele>130.0</ele><time>2026-04-25T14:44:32.421Z</time></trkpt><trkpt lat="45.6867202" lon="10.9139064"><ele>134.0</ele><time>2026-04-25T14:44:33.421Z</time></trkpt><trkpt lat="45.6868204" lon="10.9141916"><ele>138.0</ele><time>2026-04-25T14:44:34.421Z</time></trkpt><trkpt lat="45.6869169" lon="10.9145014"><ele>132.0</ele><time>2026-04-25T14:44:35.422Z</time></trkpt><trkpt lat="45.6870047" lon="10.9148341"><ele>126.0</ele><time>2026-04-25T14:44:36.421Z</time></trkpt><trkpt lat="45.6870799" lon="10.9151911"><ele>126.0</ele><time>2026-04-25T14:44:37.421Z</time></trkpt><trkpt lat="45.687152" lon="10.9155532"><ele>126.0</ele><time>2026-04-25T14:44:38.421Z</time></trkpt><trkpt lat="45.6872282" lon="10.9159061"><ele>128.0</ele><time>2026-04-25T14:44:39.422Z</time></trkpt><trkpt lat="45.687317" lon="10.9162397"><ele>130.0</ele><time>2026-04-25T14:44:40.422Z</time></trkpt><trkpt lat="45.6874095" lon="10.9165646"><ele>132.0</ele><time>2026-04-25T14:44:41.421Z</time></trkpt><trkpt lat="45.6875006" lon="10.9168866"><ele>134.0</ele><time>2026-04-25T14:44:42.422Z</time></trkpt><trkpt lat="45.6875884" lon="10.9172081"><ele>134.0</ele><time>2026-04-25T14:44:43.421Z</time></trkpt><trkpt lat="45.6876746" lon="10.9175181"><ele>134.0</ele><time>2026-04-25T14:44:44.421Z</time></trkpt><trkpt lat="45.6877997" lon="10.9177781"><ele>129.5</ele><time>2026-04-25T14:44:45.422Z</time></trkpt><trkpt lat="45.6879484" lon="10.9180318"><ele>125.0</ele><time>2026-04-25T14:44:46.421Z</time></trkpt><trkpt lat="45.6881191" lon="10.9182503"><ele>128.0</ele><time>2026-04-25T14:44:47.422Z</time></trkpt><trkpt lat="45.6882992" lon="10.9184623"><ele>131.0</ele><time>2026-04-25T14:44:48.422Z</time></trkpt><trkpt lat="45.688488" lon="10.9186705"><ele>129.5</ele><time>2026-04-25T14:44:49.421Z</time></trkpt><trkpt lat="45.6886753" lon="10.9188808"><ele>128.0</ele><time>2026-04-25T14:44:50.422Z</time></trkpt><trkpt lat="45.6888603" lon="10.9190963"><ele>130.5</ele><time>2026-04-25T14:44:51.421Z</time></trkpt><trkpt lat="45.68904" lon="10.9193137"><ele>133.0</ele><time>2026-04-25T14:44:52.421Z</time></trkpt><trkpt lat="45.6892251" lon="10.9195348"><ele>133.0</ele><time>2026-04-25T14:44:53.421Z</time></trkpt><trkpt lat="45.6894143" lon="10.9197586"><ele>133.0</ele><time>2026-04-25T14:44:54.421Z</time></trkpt><trkpt lat="45.6896067" lon="10.9199857"><ele>131.5</ele><time>2026-04-25T14:44:55.421Z</time></trkpt><trkpt lat="45.6897998" lon="10.9202129"><ele>130.0</ele><time>2026-04-25T14:44:56.421Z</time></trkpt><trkpt lat="45.689993" lon="10.9204412"><ele>130.0</ele><time>2026-04-25T14:44:57.422Z</time></trkpt><trkpt lat="45.6901831" lon="10.9206716"><ele>130.0</ele><time>2026-04-25T14:44:58.421Z</time></trkpt><trkpt lat="45.6903715" lon="10.9209024"><ele>128.0</ele><time>2026-04-25T14:44:59.421Z</time></trkpt><trkpt lat="45.690565" lon="10.9211311"><ele>126.0</ele><time>2026-04-25T14:45:00.421Z</time></trkpt><trkpt lat="45.6907616" lon="10.9213637"><ele>126.0</ele><time>2026-04-25T14:45:01.421Z</time></trkpt><trkpt lat="45.6909573" lon="10.9215969"><ele>126.0</ele><time>2026-04-25T14:45:02.421Z</time></trkpt><trkpt lat="45.6911519" lon="10.9218312"><ele>126.0</ele><time>2026-04-25T14:45:03.421Z</time></trkpt><trkpt lat="45.6913454" lon="10.9220641"><ele>126.0</ele><time>2026-04-25T14:45:04.421Z</time></trkpt><trkpt lat="45.6915376" lon="10.9222926"><ele>126.0</ele><time>2026-04-25T14:45:05.422Z</time></trkpt><trkpt lat="45.6917261" lon="10.9225179"><ele>126.0</ele><time>2026-04-25T14:45:06.422Z</time></trkpt><trkpt lat="45.6919103" lon="10.9227395"><ele>126.0</ele><time>2026-04-25T14:45:07.422Z</time></trkpt><trkpt lat="45.6920914" lon="10.9229547"><ele>126.0</ele><time>2026-04-25T14:45:08.421Z</time></trkpt><trkpt lat="45.6922659" lon="10.9231598"><ele>126.0</ele><time>2026-04-25T14:45:09.421Z</time></trkpt><trkpt lat="45.6924275" lon="10.9233565"><ele>126.0</ele><time>2026-04-25T14:45:10.422Z</time></trkpt><trkpt lat="45.692577" lon="10.9235483"><ele>126.0</ele><time>2026-04-25T14:45:11.423Z</time></trkpt><trkpt lat="45.6927155" lon="10.9237399"><ele>126.0</ele><time>2026-04-25T14:45:12.422Z</time></trkpt><trkpt lat="45.6928482" lon="10.9239297"><ele>126.0</ele><time>2026-04-25T14:45:13.422Z</time></trkpt><trkpt lat="45.6929776" lon="10.9241149"><ele>126.0</ele><time>2026-04-25T14:45:14.422Z</time></trkpt><trkpt lat="45.693104" lon="10.9242917"><ele>126.0</ele><time>2026-04-25T14:45:15.422Z</time></trkpt><trkpt lat="45.693227" lon="10.9244596"><ele>126.0</ele><time>2026-04-25T14:45:16.423Z</time></trkpt><trkpt lat="45.6933485" lon="10.9246253"><ele>126.0</ele><time>2026-04-25T14:45:17.422Z</time></trkpt><trkpt lat="45.6934664" lon="10.9247903"><ele>126.0</ele><time>2026-04-25T14:45:18.423Z</time></trkpt><trkpt lat="45.6935805" lon="10.9249546"><ele>126.0</ele><time>2026-04-25T14:45:19.422Z</time></trkpt><trkpt lat="45.6936931" lon="10.9251166"><ele>126.0</ele><time>2026-04-25T14:45:20.423Z</time></trkpt><trkpt lat="45.6938009" lon="10.9252662"><ele>126.25</ele><time>2026-04-25T14:45:21.422Z</time></trkpt><trkpt lat="45.6939012" lon="10.9254004"><ele>126.5</ele><time>2026-04-25T14:45:22.422Z</time></trkpt><trkpt lat="45.6939914" lon="10.9255287"><ele>126.75</ele><time>2026-04-25T14:45:23.423Z</time></trkpt><trkpt lat="45.6940774" lon="10.9256547"><ele>127.0</ele><time>2026-04-25T14:45:24.423Z</time></trkpt><trkpt lat="45.6941643" lon="10.9257789"><ele>128.0</ele><time>2026-04-25T14:45:25.422Z</time></trkpt><trkpt lat="45.694252" lon="10.9259035"><ele>129.0</ele><time>2026-04-25T14:45:26.422Z</time></trkpt><trkpt lat="45.6943459" lon="10.9260374"><ele>130.0</ele><time>2026-04-25T14:45:27.423Z</time></trkpt><trkpt lat="45.6944483" lon="10.9261764"><ele>131.0</ele><time>2026-04-25T14:45:28.422Z</time></trkpt><trkpt lat="45.6945586" lon="10.926314"><ele>131.0</ele><time>2026-04-25T14:45:29.423Z</time></trkpt><trkpt lat="45.6946746" lon="10.9264445"><ele>131.0</ele><time>2026-04-25T14:45:30.422Z</time></trkpt><trkpt lat="45.6947979" lon="10.9265648"><ele>131.0</ele><time>2026-04-25T14:45:31.422Z</time></trkpt><trkpt lat="45.6949339" lon="10.926673"><ele>130.66666666666666</ele><time>2026-04-25T14:45:32.422Z</time></trkpt><trkpt lat="45.6950761" lon="10.9267755"><ele>130.33333333333334</ele><time>2026-04-25T14:45:33.423Z</time></trkpt><trkpt lat="45.6952165" lon="10.9268797"><ele>130.0</ele><time>2026-04-25T14:45:34.423Z</time></trkpt><trkpt lat="45.6953595" lon="10.9269841"><ele>130.0</ele><time>2026-04-25T14:45:35.422Z</time></trkpt><trkpt lat="45.6955039" lon="10.9270837"><ele>130.0</ele><time>2026-04-25T14:45:36.423Z</time></trkpt><trkpt lat="45.6956493" lon="10.9271704"><ele>130.0</ele><time>2026-04-25T14:45:37.422Z</time></trkpt><trkpt lat="45.695793" lon="10.9272576"><ele>130.0</ele><time>2026-04-25T14:45:38.422Z</time></trkpt><trkpt lat="45.695934" lon="10.927344"><ele>130.0</ele><time>2026-04-25T14:45:39.423Z</time></trkpt><trkpt lat="45.6960744" lon="10.9274301"><ele>130.0</ele><time>2026-04-25T14:45:40.422Z</time></trkpt><trkpt lat="45.6962141" lon="10.9275105"><ele>130.75</ele><time>2026-04-25T14:45:41.423Z</time></trkpt><trkpt lat="45.6963538" lon="10.9275849"><ele>131.5</ele><time>2026-04-25T14:45:42.422Z</time></trkpt><trkpt lat="45.6964905" lon="10.9276583"><ele>132.25</ele><time>2026-04-25T14:45:43.422Z</time></trkpt><trkpt lat="45.6966272" lon="10.927736"><ele>133.0</ele><time>2026-04-25T14:45:44.422Z</time></trkpt><trkpt lat="45.6967658" lon="10.9278174"><ele>133.0</ele><time>2026-04-25T14:45:45.423Z</time></trkpt><trkpt lat="45.696906" lon="10.9279038"><ele>133.0</ele><time>2026-04-25T14:45:46.422Z</time></trkpt><trkpt lat="45.6970481" lon="10.9279931"><ele>133.0</ele><time>2026-04-25T14:45:47.422Z</time></trkpt><trkpt lat="45.6971931" lon="10.9280751"><ele>132.33333333333334</ele><time>2026-04-25T14:45:48.422Z</time></trkpt><trkpt lat="45.6973404" lon="10.9281397"><ele>131.66666666666666</ele><time>2026-04-25T14:45:49.423Z</time></trkpt><trkpt lat="45.6974897" lon="10.9281844"><ele>131.0</ele><time>2026-04-25T14:45:50.422Z</time></trkpt><trkpt lat="45.6976438" lon="10.9282115"><ele>131.33333333333331</ele><time>2026-04-25T14:45:51.422Z</time></trkpt><trkpt lat="45.6977992" lon="10.9282326"><ele>131.66666666666666</ele><time>2026-04-25T14:45:52.422Z</time></trkpt><trkpt lat="45.6979518" lon="10.9282544"><ele>132.0</ele><time>2026-04-25T14:45:53.422Z</time></trkpt><trkpt lat="45.6981025" lon="10.928282"><ele>132.0</ele><time>2026-04-25T14:45:54.422Z</time></trkpt><trkpt lat="45.6982533" lon="10.9283175"><ele>132.0</ele><time>2026-04-25T14:45:55.422Z</time></trkpt><trkpt lat="45.6984037" lon="10.9283642"><ele>132.0</ele><time>2026-04-25T14:45:56.422Z</time></trkpt><trkpt lat="45.6985579" lon="10.928416"><ele>133.66666666666666</ele><time>2026-04-25T14:45:57.423Z</time></trkpt><trkpt lat="45.6987084" lon="10.928476"><ele>135.33333333333331</ele><time>2026-04-25T14:45:58.422Z</time></trkpt><trkpt lat="45.6988541" lon="10.9285431"><ele>137.0</ele><time>2026-04-25T14:45:59.422Z</time></trkpt><trkpt lat="45.6990001" lon="10.9286128"><ele>137.0</ele><time>2026-04-25T14:46:00.422Z</time></trkpt><trkpt lat="45.6991456" lon="10.9286881"><ele>137.0</ele><time>2026-04-25T14:46:01.422Z</time></trkpt><trkpt lat="45.6992912" lon="10.9287715"><ele>137.0</ele><time>2026-04-25T14:46:02.422Z</time></trkpt><trkpt lat="45.6994371" lon="10.9288563"><ele>135.0</ele><time>2026-04-25T14:46:03.422Z</time></trkpt><trkpt lat="45.6995874" lon="10.9289444"><ele>133.0</ele><time>2026-04-25T14:46:04.423Z</time></trkpt><trkpt lat="45.6997407" lon="10.9290337"><ele>131.0</ele><time>2026-04-25T14:46:05.422Z</time></trkpt><trkpt lat="45.6998964" lon="10.929123"><ele>131.0</ele><time>2026-04-25T14:46:06.422Z</time></trkpt><trkpt lat="45.700055" lon="10.9292138"><ele>131.0</ele><time>2026-04-25T14:46:07.422Z</time></trkpt><trkpt lat="45.7002132" lon="10.9293062"><ele>131.0</ele><time>2026-04-25T14:46:08.422Z</time></trkpt><trkpt lat="45.7003683" lon="10.9293948"><ele>130.33333333333331</ele><time>2026-04-25T14:46:09.422Z</time></trkpt><trkpt lat="45.7005208" lon="10.9294779"><ele>129.66666666666666</ele><time>2026-04-25T14:46:10.422Z</time></trkpt><trkpt lat="45.7006859" lon="10.9295639"><ele>129.0</ele><time>2026-04-25T14:46:11.422Z</time></trkpt><trkpt lat="45.7008851" lon="10.9296602"><ele>127.33333333333334</ele><time>2026-04-25T14:46:12.422Z</time></trkpt><trkpt lat="45.7010968" lon="10.9297517"><ele>125.66666666666667</ele><time>2026-04-25T14:46:13.422Z</time></trkpt><trkpt lat="45.7013121" lon="10.9298395"><ele>124.0</ele><time>2026-04-25T14:46:14.422Z</time></trkpt><trkpt lat="45.7015138" lon="10.9299099"><ele>124.0</ele><time>2026-04-25T14:46:15.423Z</time></trkpt><trkpt lat="45.7017244" lon="10.9299916"><ele>124.0</ele><time>2026-04-25T14:46:16.423Z</time></trkpt><trkpt lat="45.7019354" lon="10.9300713"><ele>124.0</ele><time>2026-04-25T14:46:17.423Z</time></trkpt><trkpt lat="45.7021499" lon="10.9301455"><ele>124.66666666666667</ele><time>2026-04-25T14:46:18.424Z</time></trkpt><trkpt lat="45.702363" lon="10.9302162"><ele>125.33333333333334</ele><time>2026-04-25T14:46:19.423Z</time></trkpt><trkpt lat="45.7025658" lon="10.9302797"><ele>126.0</ele><time>2026-04-25T14:46:20.423Z</time></trkpt><trkpt lat="45.7027559" lon="10.9303415"><ele>126.66666666666666</ele><time>2026-04-25T14:46:21.423Z</time></trkpt><trkpt lat="45.7029403" lon="10.9304105"><ele>127.33333333333333</ele><time>2026-04-25T14:46:22.424Z</time></trkpt><trkpt lat="45.7031199" lon="10.9304794"><ele>128.0</ele><time>2026-04-25T14:46:23.423Z</time></trkpt><trkpt lat="45.7032964" lon="10.9305464"><ele>128.0</ele><time>2026-04-25T14:46:24.423Z</time></trkpt><trkpt lat="45.7034686" lon="10.9306092"><ele>128.0</ele><time>2026-04-25T14:46:25.423Z</time></trkpt><trkpt lat="45.7036323" lon="10.9306665"><ele>128.0</ele><time>2026-04-25T14:46:26.424Z</time></trkpt><trkpt lat="45.703793" lon="10.9307223"><ele>128.33333333333331</ele><time>2026-04-25T14:46:27.424Z</time></trkpt><trkpt lat="45.7039627" lon="10.9307822"><ele>128.66666666666666</ele><time>2026-04-25T14:46:28.423Z</time></trkpt><trkpt lat="45.7041712" lon="10.9308491"><ele>129.0</ele><time>2026-04-25T14:46:29.424Z</time></trkpt><trkpt lat="45.7043847" lon="10.9309269"><ele>127.5</ele><time>2026-04-25T14:46:30.424Z</time></trkpt><trkpt lat="45.7046059" lon="10.9310204"><ele>126.0</ele><time>2026-04-25T14:46:31.423Z</time></trkpt><trkpt lat="45.7048247" lon="10.9311165"><ele>126.0</ele><time>2026-04-25T14:46:32.423Z</time></trkpt><trkpt lat="45.7050379" lon="10.9312015"><ele>126.0</ele><time>2026-04-25T14:46:33.424Z</time></trkpt><trkpt lat="45.7052472" lon="10.9312749"><ele>126.0</ele><time>2026-04-25T14:46:34.424Z</time></trkpt><trkpt lat="45.7054572" lon="10.9313501"><ele>126.0</ele><time>2026-04-25T14:46:35.423Z</time></trkpt><trkpt lat="45.7056607" lon="10.9314413"><ele>126.0</ele><time>2026-04-25T14:46:36.424Z</time></trkpt><trkpt lat="45.7058452" lon="10.9315552"><ele>126.0</ele><time>2026-04-25T14:46:37.424Z</time></trkpt><trkpt lat="45.7060125" lon="10.9316911"><ele>125.66666666666666</ele><time>2026-04-25T14:46:38.424Z</time></trkpt><trkpt lat="45.7061669" lon="10.9318486"><ele>125.33333333333333</ele><time>2026-04-25T14:46:39.424Z</time></trkpt><trkpt lat="45.7063109" lon="10.9320187"><ele>125.0</ele><time>2026-04-25T14:46:40.423Z</time></trkpt><trkpt lat="45.7064527" lon="10.9321955"><ele>125.0</ele><time>2026-04-25T14:46:41.423Z</time></trkpt><trkpt lat="45.7065922" lon="10.9323628"><ele>125.0</ele><time>2026-04-25T14:46:42.423Z</time></trkpt><trkpt lat="45.7067247" lon="10.9325208"><ele>125.0</ele><time>2026-04-25T14:46:43.423Z</time></trkpt><trkpt lat="45.7068553" lon="10.9326768"><ele>124.66666666666666</ele><time>2026-04-25T14:46:44.424Z</time></trkpt><trkpt lat="45.7069902" lon="10.9328306"><ele>124.33333333333334</ele><time>2026-04-25T14:46:45.423Z</time></trkpt><trkpt lat="45.7071304" lon="10.9329844"><ele>124.0</ele><time>2026-04-25T14:46:46.424Z</time></trkpt><trkpt lat="45.7072708" lon="10.9331436"><ele>124.0</ele><time>2026-04-25T14:46:47.424Z</time></trkpt><trkpt lat="45.7074118" lon="10.9333076"><ele>124.0</ele><time>2026-04-25T14:46:48.423Z</time></trkpt><trkpt lat="45.7075515" lon="10.9334725"><ele>124.0</ele><time>2026-04-25T14:46:49.423Z</time></trkpt><trkpt lat="45.7076977" lon="10.9336447"><ele>124.66666666666667</ele><time>2026-04-25T14:46:50.423Z</time></trkpt><trkpt lat="45.707855" lon="10.9338274"><ele>125.33333333333334</ele><time>2026-04-25T14:46:51.423Z</time></trkpt><trkpt lat="45.7080252" lon="10.9340191"><ele>126.0</ele><time>2026-04-25T14:46:52.423Z</time></trkpt><trkpt lat="45.7082092" lon="10.9342244"><ele>128.5</ele><time>2026-04-25T14:46:53.424Z</time></trkpt><trkpt lat="45.7084039" lon="10.9344383"><ele>131.0</ele><time>2026-04-25T14:46:54.423Z</time></trkpt><trkpt lat="45.7085969" lon="10.934655"><ele>132.0</ele><time>2026-04-25T14:46:55.423Z</time></trkpt><trkpt lat="45.7087792" lon="10.9348664"><ele>133.0</ele><time>2026-04-25T14:46:56.423Z</time></trkpt><trkpt lat="45.7089615" lon="10.9350571"><ele>135.5</ele><time>2026-04-25T14:46:57.424Z</time></trkpt><trkpt lat="45.709159" lon="10.9352173"><ele>138.0</ele><time>2026-04-25T14:46:58.424Z</time></trkpt><trkpt lat="45.7093723" lon="10.9353553"><ele>138.0</ele><time>2026-04-25T14:46:59.424Z</time></trkpt><trkpt lat="45.7095989" lon="10.9354755"><ele>138.0</ele><time>2026-04-25T14:47:00.424Z</time></trkpt><trkpt lat="45.7098286" lon="10.9355874"><ele>138.0</ele><time>2026-04-25T14:47:01.424Z</time></trkpt><trkpt lat="45.7100573" lon="10.9356985"><ele>138.0</ele><time>2026-04-25T14:47:02.423Z</time></trkpt><trkpt lat="45.7102836" lon="10.9358186"><ele>139.5</ele><time>2026-04-25T14:47:03.423Z</time></trkpt><trkpt lat="45.7105091" lon="10.9359393"><ele>141.0</ele><time>2026-04-25T14:47:04.423Z</time></trkpt><trkpt lat="45.710732" lon="10.9360578"><ele>141.0</ele><time>2026-04-25T14:47:05.423Z</time></trkpt><trkpt lat="45.710949" lon="10.9361735"><ele>141.0</ele><time>2026-04-25T14:47:06.424Z</time></trkpt><trkpt lat="45.7111628" lon="10.9362889"><ele>140.5</ele><time>2026-04-25T14:47:07.423Z</time></trkpt><trkpt lat="45.7113759" lon="10.9364052"><ele>140.0</ele><time>2026-04-25T14:47:08.423Z</time></trkpt><trkpt lat="45.7115888" lon="10.9365209"><ele>140.0</ele><time>2026-04-25T14:47:09.424Z</time></trkpt><trkpt lat="45.7118016" lon="10.9366347"><ele>140.0</ele><time>2026-04-25T14:47:10.423Z</time></trkpt><trkpt lat="45.7120149" lon="10.9367429"><ele>142.0</ele><time>2026-04-25T14:47:11.423Z</time></trkpt><trkpt lat="45.7122248" lon="10.936851"><ele>144.0</ele><time>2026-04-25T14:47:12.424Z</time></trkpt><trkpt lat="45.7124335" lon="10.9369624"><ele>146.0</ele><time>2026-04-25T14:47:13.424Z</time></trkpt><trkpt lat="45.7126343" lon="10.9370907"><ele>147.0</ele><time>2026-04-25T14:47:14.423Z</time></trkpt><trkpt lat="45.712826" lon="10.9372394"><ele>148.0</ele><time>2026-04-25T14:47:15.423Z</time></trkpt><trkpt lat="45.7130084" lon="10.9373947"><ele>149.0</ele><time>2026-04-25T14:47:16.423Z</time></trkpt><trkpt lat="45.7131918" lon="10.9375528"><ele>149.0</ele><time>2026-04-25T14:47:17.423Z</time></trkpt><trkpt lat="45.7133844" lon="10.9376996"><ele>149.0</ele><time>2026-04-25T14:47:18.423Z</time></trkpt><trkpt lat="45.713585" lon="10.9378319"><ele>149.0</ele><time>2026-04-25T14:47:19.424Z</time></trkpt><trkpt lat="45.7137898" lon="10.9379511"><ele>147.33333333333331</ele><time>2026-04-25T14:47:20.423Z</time></trkpt><trkpt lat="45.7139976" lon="10.9380572"><ele>145.66666666666666</ele><time>2026-04-25T14:47:21.423Z</time></trkpt><trkpt lat="45.7142086" lon="10.9381584"><ele>144.0</ele><time>2026-04-25T14:47:22.423Z</time></trkpt><trkpt lat="45.7144188" lon="10.938257"><ele>145.0</ele><time>2026-04-25T14:47:23.423Z</time></trkpt><trkpt lat="45.714626" lon="10.938355"><ele>146.0</ele><time>2026-04-25T14:47:24.425Z</time></trkpt><trkpt lat="45.7148262" lon="10.9384481"><ele>147.0</ele><time>2026-04-25T14:47:25.424Z</time></trkpt><trkpt lat="45.7150276" lon="10.9385288"><ele>147.0</ele><time>2026-04-25T14:47:26.424Z</time></trkpt><trkpt lat="45.7152314" lon="10.938598"><ele>147.0</ele><time>2026-04-25T14:47:27.425Z</time></trkpt><trkpt lat="45.7154381" lon="10.9386649"><ele>147.0</ele><time>2026-04-25T14:47:28.424Z</time></trkpt><trkpt lat="45.7156485" lon="10.9387437"><ele>144.66666666666666</ele><time>2026-04-25T14:47:29.424Z</time></trkpt><trkpt lat="45.7158618" lon="10.9388439"><ele>142.33333333333331</ele><time>2026-04-25T14:47:30.425Z</time></trkpt><trkpt lat="45.7160662" lon="10.9389667"><ele>140.0</ele><time>2026-04-25T14:47:31.425Z</time></trkpt><trkpt lat="45.7162684" lon="10.9391006"><ele>137.5</ele><time>2026-04-25T14:47:32.424Z</time></trkpt><trkpt lat="45.7164699" lon="10.9392433"><ele>135.0</ele><time>2026-04-25T14:47:33.424Z</time></trkpt><trkpt lat="45.7166791" lon="10.9393782"><ele>135.0</ele><time>2026-04-25T14:47:34.424Z</time></trkpt><trkpt lat="45.7168898" lon="10.9394944"><ele>135.0</ele><time>2026-04-25T14:47:35.425Z</time></trkpt><trkpt lat="45.7170985" lon="10.9395878"><ele>135.0</ele><time>2026-04-25T14:47:36.424Z</time></trkpt><trkpt lat="45.7173043" lon="10.9396775"><ele>138.0</ele><time>2026-04-25T14:47:37.425Z</time></trkpt><trkpt lat="45.717509" lon="10.9397705"><ele>141.0</ele><time>2026-04-25T14:47:38.425Z</time></trkpt><trkpt lat="45.7177096" lon="10.9398666"><ele>144.0</ele><time>2026-04-25T14:47:39.425Z</time></trkpt><trkpt lat="45.7179081" lon="10.9399684"><ele>146.66666666666666</ele><time>2026-04-25T14:47:40.424Z</time></trkpt><trkpt lat="45.7181026" lon="10.9400639"><ele>149.33333333333331</ele><time>2026-04-25T14:47:41.425Z</time></trkpt><trkpt lat="45.7182931" lon="10.9401464"><ele>152.0</ele><time>2026-04-25T14:47:42.424Z</time></trkpt><trkpt lat="45.718483" lon="10.94021"><ele>151.66666666666666</ele><time>2026-04-25T14:47:43.425Z</time></trkpt><trkpt lat="45.7186776" lon="10.9402469"><ele>151.33333333333334</ele><time>2026-04-25T14:47:44.424Z</time></trkpt><trkpt lat="45.7188743" lon="10.9402593"><ele>151.0</ele><time>2026-04-25T14:47:45.425Z</time></trkpt><trkpt lat="45.7190732" lon="10.9402674"><ele>151.0</ele><time>2026-04-25T14:47:46.425Z</time></trkpt><trkpt lat="45.7192726" lon="10.9402836"><ele>151.0</ele><time>2026-04-25T14:47:47.425Z</time></trkpt><trkpt lat="45.7194699" lon="10.940314"><ele>151.0</ele><time>2026-04-25T14:47:48.424Z</time></trkpt><trkpt lat="45.719668" lon="10.9403601"><ele>150.66666666666669</ele><time>2026-04-25T14:47:49.425Z</time></trkpt><trkpt lat="45.7198711" lon="10.9404206"><ele>150.33333333333334</ele><time>2026-04-25T14:47:50.424Z</time></trkpt><trkpt lat="45.7200771" lon="10.9404861"><ele>150.0</ele><time>2026-04-25T14:47:51.425Z</time></trkpt><trkpt lat="45.7202741" lon="10.9405481"><ele>149.33333333333334</ele><time>2026-04-25T14:47:52.424Z</time></trkpt><trkpt lat="45.7204671" lon="10.9406101"><ele>148.66666666666669</ele><time>2026-04-25T14:47:53.425Z</time></trkpt><trkpt lat="45.7206549" lon="10.94067"><ele>148.0</ele><time>2026-04-25T14:47:54.424Z</time></trkpt><trkpt lat="45.720837" lon="10.9407229"><ele>148.0</ele><time>2026-04-25T14:47:55.424Z</time></trkpt><trkpt lat="45.7210188" lon="10.9407766"><ele>148.0</ele><time>2026-04-25T14:47:56.424Z</time></trkpt><trkpt lat="45.7212041" lon="10.9408361"><ele>148.0</ele><time>2026-04-25T14:47:57.424Z</time></trkpt><trkpt lat="45.7213868" lon="10.9409118"><ele>150.33333333333334</ele><time>2026-04-25T14:47:58.424Z</time></trkpt><trkpt lat="45.7215623" lon="10.9410059"><ele>152.66666666666666</ele><time>2026-04-25T14:47:59.424Z</time></trkpt><trkpt lat="45.7217321" lon="10.9411159"><ele>155.0</ele><time>2026-04-25T14:48:00.424Z</time></trkpt><trkpt lat="45.7218987" lon="10.9412371"><ele>155.0</ele><time>2026-04-25T14:48:01.424Z</time></trkpt><trkpt lat="45.7220604" lon="10.9413617"><ele>155.0</ele><time>2026-04-25T14:48:02.425Z</time></trkpt><trkpt lat="45.7222181" lon="10.9414749"><ele>155.0</ele><time>2026-04-25T14:48:03.425Z</time></trkpt><trkpt lat="45.722376" lon="10.9415882"><ele>155.0</ele><time>2026-04-25T14:48:04.425Z</time></trkpt><trkpt lat="45.7225305" lon="10.9417015"><ele>155.0</ele><time>2026-04-25T14:48:05.424Z</time></trkpt><trkpt lat="45.7226812" lon="10.9418242"><ele>155.0</ele><time>2026-04-25T14:48:06.424Z</time></trkpt><trkpt lat="45.7228267" lon="10.9419569"><ele>154.33333333333331</ele><time>2026-04-25T14:48:07.425Z</time></trkpt><trkpt lat="45.7229672" lon="10.9421022"><ele>153.66666666666666</ele><time>2026-04-25T14:48:08.424Z</time></trkpt><trkpt lat="45.7231079" lon="10.9422549"><ele>153.0</ele><time>2026-04-25T14:48:09.424Z</time></trkpt><trkpt lat="45.7232473" lon="10.9424102"><ele>153.33333333333334</ele><time>2026-04-25T14:48:10.425Z</time></trkpt><trkpt lat="45.7233826" lon="10.9425725"><ele>153.66666666666669</ele><time>2026-04-25T14:48:11.424Z</time></trkpt><trkpt lat="45.7235158" lon="10.9427432"><ele>154.0</ele><time>2026-04-25T14:48:12.425Z</time></trkpt><trkpt lat="45.7236513" lon="10.9429114"><ele>154.0</ele><time>2026-04-25T14:48:13.424Z</time></trkpt><trkpt lat="45.7237923" lon="10.9430668"><ele>154.0</ele><time>2026-04-25T14:48:14.424Z</time></trkpt><trkpt lat="45.7239404" lon="10.9432036"><ele>154.0</ele><time>2026-04-25T14:48:15.425Z</time></trkpt><trkpt lat="45.7240921" lon="10.943321"><ele>154.66666666666669</ele><time>2026-04-25T14:48:16.424Z</time></trkpt><trkpt lat="45.7242497" lon="10.9434264"><ele>155.33333333333334</ele><time>2026-04-25T14:48:17.425Z</time></trkpt><trkpt lat="45.7244132" lon="10.9435221"><ele>156.0</ele><time>2026-04-25T14:48:18.425Z</time></trkpt><trkpt lat="45.7245795" lon="10.9436097"><ele>156.0</ele><time>2026-04-25T14:48:19.425Z</time></trkpt><trkpt lat="45.7247457" lon="10.9436919"><ele>156.0</ele><time>2026-04-25T14:48:20.424Z</time></trkpt><trkpt lat="45.7249079" lon="10.9437819"><ele>156.0</ele><time>2026-04-25T14:48:21.424Z</time></trkpt><trkpt lat="45.7250612" lon="10.9438983"><ele>156.0</ele><time>2026-04-25T14:48:22.425Z</time></trkpt><trkpt lat="45.7252023" lon="10.944049"><ele>156.0</ele><time>2026-04-25T14:48:23.424Z</time></trkpt><trkpt lat="45.7253313" lon="10.9442217"><ele>156.0</ele><time>2026-04-25T14:48:24.424Z</time></trkpt><trkpt lat="45.7254578" lon="10.9444062"><ele>155.33333333333334</ele><time>2026-04-25T14:48:25.424Z</time></trkpt><trkpt lat="45.7255848" lon="10.9445947"><ele>154.66666666666669</ele><time>2026-04-25T14:48:26.424Z</time></trkpt><trkpt lat="45.7257063" lon="10.9447865"><ele>154.0</ele><time>2026-04-25T14:48:27.424Z</time></trkpt><trkpt lat="45.7258188" lon="10.9449923"><ele>153.66666666666669</ele><time>2026-04-25T14:48:28.424Z</time></trkpt><trkpt lat="45.7259135" lon="10.9452122"><ele>153.33333333333334</ele><time>2026-04-25T14:48:29.424Z</time></trkpt><trkpt lat="45.7260011" lon="10.9454405"><ele>153.0</ele><time>2026-04-25T14:48:30.425Z</time></trkpt><trkpt lat="45.7260859" lon="10.9456571"><ele>153.0</ele><time>2026-04-25T14:48:31.426Z</time></trkpt><trkpt lat="45.7261729" lon="10.945873"><ele>153.0</ele><time>2026-04-25T14:48:32.425Z</time></trkpt><trkpt lat="45.7262713" lon="10.9460714"><ele>153.0</ele><time>2026-04-25T14:48:33.425Z</time></trkpt><trkpt lat="45.7263879" lon="10.9462542"><ele>153.66666666666666</ele><time>2026-04-25T14:48:34.426Z</time></trkpt><trkpt lat="45.7265252" lon="10.9464234"><ele>154.33333333333331</ele><time>2026-04-25T14:48:35.425Z</time></trkpt><trkpt lat="45.7266713" lon="10.946575"><ele>155.0</ele><time>2026-04-25T14:48:36.425Z</time></trkpt><trkpt lat="45.7268207" lon="10.9467194"><ele>155.33333333333331</ele><time>2026-04-25T14:48:37.426Z</time></trkpt><trkpt lat="45.7269672" lon="10.9468661"><ele>155.66666666666666</ele><time>2026-04-25T14:48:38.426Z</time></trkpt><trkpt lat="45.7271158" lon="10.9470194"><ele>156.0</ele><time>2026-04-25T14:48:39.426Z</time></trkpt><trkpt lat="45.7272688" lon="10.9471724"><ele>156.0</ele><time>2026-04-25T14:48:40.425Z</time></trkpt><trkpt lat="45.7274264" lon="10.9473119"><ele>156.0</ele><time>2026-04-25T14:48:41.425Z</time></trkpt><trkpt lat="45.7275874" lon="10.947452"><ele>156.0</ele><time>2026-04-25T14:48:42.426Z</time></trkpt><trkpt lat="45.7277442" lon="10.9475904"><ele>155.66666666666666</ele><time>2026-04-25T14:48:43.425Z</time></trkpt><trkpt lat="45.7278966" lon="10.9477336"><ele>155.33333333333331</ele><time>2026-04-25T14:48:44.425Z</time></trkpt><trkpt lat="45.7280503" lon="10.9478808"><ele>155.0</ele><time>2026-04-25T14:48:45.425Z</time></trkpt><trkpt lat="45.7282061" lon="10.948032"><ele>155.0</ele><time>2026-04-25T14:48:46.425Z</time></trkpt><trkpt lat="45.7283611" lon="10.94819"><ele>155.0</ele><time>2026-04-25T14:48:47.425Z</time></trkpt><trkpt lat="45.7285147" lon="10.9483587"><ele>155.0</ele><time>2026-04-25T14:48:48.425Z</time></trkpt><trkpt lat="45.7286612" lon="10.9485471"><ele>154.33333333333331</ele><time>2026-04-25T14:48:49.426Z</time></trkpt><trkpt lat="45.7288007" lon="10.948752"><ele>153.66666666666666</ele><time>2026-04-25T14:48:50.426Z</time></trkpt><trkpt lat="45.7289385" lon="10.9489602"><ele>153.0</ele><time>2026-04-25T14:48:51.425Z</time></trkpt><trkpt lat="45.7290755" lon="10.9491591"><ele>153.0</ele><time>2026-04-25T14:48:52.426Z</time></trkpt><trkpt lat="45.7292153" lon="10.9493542"><ele>153.0</ele><time>2026-04-25T14:48:53.426Z</time></trkpt><trkpt lat="45.7293549" lon="10.9495465"><ele>153.0</ele><time>2026-04-25T14:48:54.426Z</time></trkpt><trkpt lat="45.7294912" lon="10.9497355"><ele>153.0</ele><time>2026-04-25T14:48:55.425Z</time></trkpt><trkpt lat="45.7296253" lon="10.9499264"><ele>153.0</ele><time>2026-04-25T14:48:56.425Z</time></trkpt><trkpt lat="45.7297593" lon="10.9501161"><ele>153.0</ele><time>2026-04-25T14:48:57.426Z</time></trkpt><trkpt lat="45.7298917" lon="10.9502999"><ele>153.33333333333334</ele><time>2026-04-25T14:48:58.425Z</time></trkpt><trkpt lat="45.7300226" lon="10.9504819"><ele>153.66666666666669</ele><time>2026-04-25T14:48:59.426Z</time></trkpt><trkpt lat="45.7301551" lon="10.9506632"><ele>154.0</ele><time>2026-04-25T14:49:00.426Z</time></trkpt><trkpt lat="45.7302874" lon="10.9508481"><ele>153.33333333333334</ele><time>2026-04-25T14:49:01.425Z</time></trkpt><trkpt lat="45.73042" lon="10.9510351"><ele>152.66666666666666</ele><time>2026-04-25T14:49:02.425Z</time></trkpt><trkpt lat="45.730555" lon="10.951226"><ele>152.0</ele><time>2026-04-25T14:49:03.426Z</time></trkpt><trkpt lat="45.7306954" lon="10.9514195"><ele>152.0</ele><time>2026-04-25T14:49:04.425Z</time></trkpt><trkpt lat="45.7308387" lon="10.9516122"><ele>152.0</ele><time>2026-04-25T14:49:05.425Z</time></trkpt><trkpt lat="45.7309796" lon="10.9518081"><ele>152.0</ele><time>2026-04-25T14:49:06.426Z</time></trkpt><trkpt lat="45.7311155" lon="10.9520089"><ele>152.66666666666666</ele><time>2026-04-25T14:49:07.425Z</time></trkpt><trkpt lat="45.7312454" lon="10.9522233"><ele>153.33333333333334</ele><time>2026-04-25T14:49:08.425Z</time></trkpt><trkpt lat="45.7313702" lon="10.9524533"><ele>154.0</ele><time>2026-04-25T14:49:09.426Z</time></trkpt><trkpt lat="45.7314831" lon="10.9526976"><ele>154.0</ele><time>2026-04-25T14:49:10.426Z</time></trkpt><trkpt lat="45.731575" lon="10.9529614"><ele>154.0</ele><time>2026-04-25T14:49:11.425Z</time></trkpt><trkpt lat="45.7316516" lon="10.9532342"><ele>154.0</ele><time>2026-04-25T14:49:12.425Z</time></trkpt><trkpt lat="45.7317052" lon="10.9535096"><ele>155.0</ele><time>2026-04-25T14:49:13.425Z</time></trkpt><trkpt lat="45.7317698" lon="10.9537696"><ele>156.0</ele><time>2026-04-25T14:49:14.425Z</time></trkpt><trkpt lat="45.7318442" lon="10.9540073"><ele>157.0</ele><time>2026-04-25T14:49:15.425Z</time></trkpt><trkpt lat="45.7319271" lon="10.9542136"><ele>154.5</ele><time>2026-04-25T14:49:16.426Z</time></trkpt><trkpt lat="45.7320068" lon="10.9544007"><ele>152.0</ele><time>2026-04-25T14:49:17.426Z</time></trkpt><trkpt lat="45.7320829" lon="10.9545737"><ele>149.5</ele><time>2026-04-25T14:49:18.425Z</time></trkpt><trkpt lat="45.7321586" lon="10.95474"><ele>147.0</ele><time>2026-04-25T14:49:19.425Z</time></trkpt><trkpt lat="45.7322376" lon="10.9549124"><ele>148.75</ele><time>2026-04-25T14:49:20.425Z</time></trkpt><trkpt lat="45.7323157" lon="10.9550891"><ele>150.5</ele><time>2026-04-25T14:49:21.425Z</time></trkpt><trkpt lat="45.732393" lon="10.9552653"><ele>152.25</ele><time>2026-04-25T14:49:22.425Z</time></trkpt><trkpt lat="45.7324684" lon="10.9554358"><ele>154.0</ele><time>2026-04-25T14:49:23.426Z</time></trkpt><trkpt lat="45.732541" lon="10.9556062"><ele>154.0</ele><time>2026-04-25T14:49:24.425Z</time></trkpt><trkpt lat="45.7326125" lon="10.9557691"><ele>154.0</ele><time>2026-04-25T14:49:25.426Z</time></trkpt><trkpt lat="45.732684" lon="10.9559282"><ele>154.0</ele><time>2026-04-25T14:49:26.425Z</time></trkpt><trkpt lat="45.7327524" lon="10.9560889"><ele>154.0</ele><time>2026-04-25T14:49:27.425Z</time></trkpt><trkpt lat="45.7328198" lon="10.9562523"><ele>153.5</ele><time>2026-04-25T14:49:28.425Z</time></trkpt><trkpt lat="45.7328871" lon="10.9564195"><ele>153.0</ele><time>2026-04-25T14:49:29.425Z</time></trkpt><trkpt lat="45.7329603" lon="10.9565895"><ele>152.5</ele><time>2026-04-25T14:49:30.425Z</time></trkpt><trkpt lat="45.7330408" lon="10.956764"><ele>152.0</ele><time>2026-04-25T14:49:31.425Z</time></trkpt><trkpt lat="45.7331273" lon="10.9569549"><ele>152.0</ele><time>2026-04-25T14:49:32.426Z</time></trkpt><trkpt lat="45.7332148" lon="10.9571454"><ele>152.0</ele><time>2026-04-25T14:49:33.425Z</time></trkpt><trkpt lat="45.7333009" lon="10.9573339"><ele>152.0</ele><time>2026-04-25T14:49:34.425Z</time></trkpt><trkpt lat="45.7333829" lon="10.957516"><ele>154.0</ele><time>2026-04-25T14:49:35.425Z</time></trkpt><trkpt lat="45.7334635" lon="10.9576923"><ele>156.0</ele><time>2026-04-25T14:49:36.426Z</time></trkpt><trkpt lat="45.7335463" lon="10.957879"><ele>158.0</ele><time>2026-04-25T14:49:37.426Z</time></trkpt><trkpt lat="45.7336322" lon="10.9580754"><ele>155.33333333333331</ele><time>2026-04-25T14:49:38.427Z</time></trkpt><trkpt lat="45.7337245" lon="10.9582808"><ele>152.66666666666666</ele><time>2026-04-25T14:49:39.427Z</time></trkpt><trkpt lat="45.7338233" lon="10.9584927"><ele>150.0</ele><time>2026-04-25T14:49:40.426Z</time></trkpt><trkpt lat="45.733925" lon="10.9587026"><ele>150.0</ele><time>2026-04-25T14:49:41.426Z</time></trkpt><trkpt lat="45.7340293" lon="10.9589121"><ele>150.0</ele><time>2026-04-25T14:49:42.426Z</time></trkpt><trkpt lat="45.734137" lon="10.9591225"><ele>150.0</ele><time>2026-04-25T14:49:43.427Z</time></trkpt><trkpt lat="45.734245" lon="10.9593286"><ele>147.0</ele><time>2026-04-25T14:49:44.426Z</time></trkpt><trkpt lat="45.7343511" lon="10.9595344"><ele>144.0</ele><time>2026-04-25T14:49:45.427Z</time></trkpt><trkpt lat="45.7344589" lon="10.9597401"><ele>141.0</ele><time>2026-04-25T14:49:46.426Z</time></trkpt><trkpt lat="45.7345672" lon="10.9599434"><ele>143.66666666666666</ele><time>2026-04-25T14:49:47.427Z</time></trkpt><trkpt lat="45.7346776" lon="10.9601449"><ele>146.33333333333331</ele><time>2026-04-25T14:49:48.427Z</time></trkpt><trkpt lat="45.7347902" lon="10.960344"><ele>149.0</ele><time>2026-04-25T14:49:49.426Z</time></trkpt><trkpt lat="45.7349005" lon="10.9605438"><ele>149.0</ele><time>2026-04-25T14:49:50.426Z</time></trkpt><trkpt lat="45.7350096" lon="10.960746"><ele>149.0</ele><time>2026-04-25T14:49:51.426Z</time></trkpt><trkpt lat="45.7351186" lon="10.9609499"><ele>149.0</ele><time>2026-04-25T14:49:52.426Z</time></trkpt><trkpt lat="45.7352276" lon="10.9611528"><ele>149.0</ele><time>2026-04-25T14:49:53.426Z</time></trkpt><trkpt lat="45.7353363" lon="10.9613536"><ele>149.0</ele><time>2026-04-25T14:49:54.426Z</time></trkpt><trkpt lat="45.7354459" lon="10.9615567"><ele>149.0</ele><time>2026-04-25T14:49:55.426Z</time></trkpt><trkpt lat="45.7355547" lon="10.9617647"><ele>149.0</ele><time>2026-04-25T14:49:56.427Z</time></trkpt><trkpt lat="45.7356624" lon="10.9619754"><ele>149.0</ele><time>2026-04-25T14:49:57.426Z</time></trkpt><trkpt lat="45.7357694" lon="10.9621839"><ele>149.0</ele><time>2026-04-25T14:49:58.427Z</time></trkpt><trkpt lat="45.7358775" lon="10.962382"><ele>143.66666666666666</ele><time>2026-04-25T14:49:59.427Z</time></trkpt><trkpt lat="45.7359807" lon="10.9625816"><ele>138.33333333333334</ele><time>2026-04-25T14:50:00.426Z</time></trkpt><trkpt lat="45.7360812" lon="10.9627913"><ele>133.0</ele><time>2026-04-25T14:50:01.426Z</time></trkpt><trkpt lat="45.7361669" lon="10.9630114"><ele>133.0</ele><time>2026-04-25T14:50:02.427Z</time></trkpt><trkpt lat="45.7362391" lon="10.9632298"><ele>133.0</ele><time>2026-04-25T14:50:03.427Z</time></trkpt><trkpt lat="45.7362995" lon="10.9634373"><ele>133.0</ele><time>2026-04-25T14:50:04.426Z</time></trkpt><trkpt lat="45.7363557" lon="10.9636334"><ele>134.25</ele><time>2026-04-25T14:50:05.426Z</time></trkpt><trkpt lat="45.736406" lon="10.9638307"><ele>135.5</ele><time>2026-04-25T14:50:06.426Z</time></trkpt><trkpt lat="45.7364548" lon="10.964032"><ele>136.75</ele><time>2026-04-25T14:50:07.426Z</time></trkpt><trkpt lat="45.7365072" lon="10.9642384"><ele>138.0</ele><time>2026-04-25T14:50:08.426Z</time></trkpt><trkpt lat="45.7365601" lon="10.9644434"><ele>139.25</ele><time>2026-04-25T14:50:09.427Z</time></trkpt><trkpt lat="45.7366082" lon="10.9646369"><ele>140.5</ele><time>2026-04-25T14:50:10.426Z</time></trkpt><trkpt lat="45.7366472" lon="10.9648245"><ele>141.75</ele><time>2026-04-25T14:50:11.426Z</time></trkpt><trkpt lat="45.7366758" lon="10.9650196"><ele>143.0</ele><time>2026-04-25T14:50:12.427Z</time></trkpt><trkpt lat="45.7367022" lon="10.9652246"><ele>146.0</ele><time>2026-04-25T14:50:13.427Z</time></trkpt><trkpt lat="45.7367321" lon="10.9654441"><ele>149.0</ele><time>2026-04-25T14:50:14.426Z</time></trkpt><trkpt lat="45.7367647" lon="10.9656716"><ele>152.0</ele><time>2026-04-25T14:50:15.426Z</time></trkpt><trkpt lat="45.7368008" lon="10.9659063"><ele>153.33333333333331</ele><time>2026-04-25T14:50:16.426Z</time></trkpt><trkpt lat="45.7368331" lon="10.9661454"><ele>154.66666666666666</ele><time>2026-04-25T14:50:17.426Z</time></trkpt><trkpt lat="45.7368691" lon="10.9663786"><ele>156.0</ele><time>2026-04-25T14:50:18.427Z</time></trkpt><trkpt lat="45.7369017" lon="10.9666047"><ele>148.66666666666666</ele><time>2026-04-25T14:50:19.426Z</time></trkpt><trkpt lat="45.7369287" lon="10.9668337"><ele>141.33333333333331</ele><time>2026-04-25T14:50:20.427Z</time></trkpt><trkpt lat="45.7369515" lon="10.9670753"><ele>134.0</ele><time>2026-04-25T14:50:21.426Z</time></trkpt><trkpt lat="45.7369774" lon="10.9673302"><ele>135.66666666666666</ele><time>2026-04-25T14:50:22.426Z</time></trkpt><trkpt lat="45.7370076" lon="10.9675894"><ele>137.33333333333334</ele><time>2026-04-25T14:50:23.427Z</time></trkpt><trkpt lat="45.737042" lon="10.9678437"><ele>139.0</ele><time>2026-04-25T14:50:24.426Z</time></trkpt><trkpt lat="45.7370738" lon="10.9680857"><ele>139.0</ele><time>2026-04-25T14:50:25.426Z</time></trkpt><trkpt lat="45.7371036" lon="10.9683255"><ele>139.0</ele><time>2026-04-25T14:50:26.427Z</time></trkpt><trkpt lat="45.7371318" lon="10.9685681"><ele>139.0</ele><time>2026-04-25T14:50:27.427Z</time></trkpt><trkpt lat="45.7371597" lon="10.9688192"><ele>139.0</ele><time>2026-04-25T14:50:28.426Z</time></trkpt><trkpt lat="45.7371853" lon="10.9690846"><ele>139.0</ele><time>2026-04-25T14:50:29.426Z</time></trkpt><trkpt lat="45.7372086" lon="10.9693578"><ele>139.0</ele><time>2026-04-25T14:50:30.426Z</time></trkpt><trkpt lat="45.7372403" lon="10.9696171"><ele>139.33333333333334</ele><time>2026-04-25T14:50:31.426Z</time></trkpt><trkpt lat="45.7372852" lon="10.9698555"><ele>139.66666666666666</ele><time>2026-04-25T14:50:32.426Z</time></trkpt><trkpt lat="45.7373451" lon="10.9700757"><ele>140.0</ele><time>2026-04-25T14:50:33.426Z</time></trkpt><trkpt lat="45.7374185" lon="10.9702942"><ele>140.66666666666666</ele><time>2026-04-25T14:50:34.426Z</time></trkpt><trkpt lat="45.7375076" lon="10.9705097"><ele>141.33333333333334</ele><time>2026-04-25T14:50:35.426Z</time></trkpt><trkpt lat="45.7376151" lon="10.9707064"><ele>142.0</ele><time>2026-04-25T14:50:36.427Z</time></trkpt><trkpt lat="45.7377361" lon="10.9708882"><ele>142.0</ele><time>2026-04-25T14:50:37.427Z</time></trkpt><trkpt lat="45.7378643" lon="10.9710584"><ele>142.0</ele><time>2026-04-25T14:50:38.427Z</time></trkpt><trkpt lat="45.7379915" lon="10.9712368"><ele>142.0</ele><time>2026-04-25T14:50:39.426Z</time></trkpt><trkpt lat="45.7381175" lon="10.97142"><ele>142.0</ele><time>2026-04-25T14:50:40.426Z</time></trkpt><trkpt lat="45.7382383" lon="10.9715993"><ele>142.0</ele><time>2026-04-25T14:50:41.426Z</time></trkpt><trkpt lat="45.7383577" lon="10.9717929"><ele>142.0</ele><time>2026-04-25T14:50:42.427Z</time></trkpt><trkpt lat="45.7384784" lon="10.971999"><ele>141.33333333333334</ele><time>2026-04-25T14:50:43.428Z</time></trkpt><trkpt lat="45.7386031" lon="10.9722226"><ele>140.66666666666666</ele><time>2026-04-25T14:50:44.428Z</time></trkpt><trkpt lat="45.7387262" lon="10.972456"><ele>140.0</ele><time>2026-04-25T14:50:45.427Z</time></trkpt><trkpt lat="45.7388484" lon="10.9726924"><ele>141.33333333333331</ele><time>2026-04-25T14:50:46.428Z</time></trkpt><trkpt lat="45.7389628" lon="10.9729164"><ele>142.66666666666666</ele><time>2026-04-25T14:50:47.427Z</time></trkpt><trkpt lat="45.739067" lon="10.9731298"><ele>144.0</ele><time>2026-04-25T14:50:48.427Z</time></trkpt><trkpt lat="45.7391671" lon="10.9733437"><ele>145.33333333333334</ele><time>2026-04-25T14:50:49.428Z</time></trkpt><trkpt lat="45.7392691" lon="10.9735538"><ele>146.66666666666669</ele><time>2026-04-25T14:50:50.428Z</time></trkpt><trkpt lat="45.739369" lon="10.9737601"><ele>148.0</ele><time>2026-04-25T14:50:51.428Z</time></trkpt><trkpt lat="45.7394569" lon="10.9739601"><ele>146.33333333333334</ele><time>2026-04-25T14:50:52.427Z</time></trkpt><trkpt lat="45.7395154" lon="10.974181"><ele>144.66666666666666</ele><time>2026-04-25T14:50:53.428Z</time></trkpt><trkpt lat="45.7395516" lon="10.9744175"><ele>143.0</ele><time>2026-04-25T14:50:54.427Z</time></trkpt><trkpt lat="45.7395805" lon="10.9746238"><ele>143.0</ele><time>2026-04-25T14:50:55.427Z</time></trkpt><trkpt lat="45.7396428" lon="10.9748221"><ele>143.0</ele><time>2026-04-25T14:50:56.427Z</time></trkpt><trkpt lat="45.7397349" lon="10.9750046"><ele>143.0</ele><time>2026-04-25T14:50:57.428Z</time></trkpt><trkpt lat="45.7398412" lon="10.9751756"><ele>144.66666666666666</ele><time>2026-04-25T14:50:58.428Z</time></trkpt><trkpt lat="45.7399506" lon="10.9753466"><ele>146.33333333333334</ele><time>2026-04-25T14:50:59.428Z</time></trkpt><trkpt lat="45.7400433" lon="10.9755229"><ele>148.0</ele><time>2026-04-25T14:51:00.427Z</time></trkpt><trkpt lat="45.7401229" lon="10.975709"><ele>149.0</ele><time>2026-04-25T14:51:01.427Z</time></trkpt><trkpt lat="45.7401967" lon="10.9758991"><ele>150.0</ele><time>2026-04-25T14:51:02.427Z</time></trkpt><trkpt lat="45.7402707" lon="10.9760891"><ele>151.0</ele><time>2026-04-25T14:51:03.428Z</time></trkpt><trkpt lat="45.7403465" lon="10.9762835"><ele>150.0</ele><time>2026-04-25T14:51:04.427Z</time></trkpt><trkpt lat="45.7404276" lon="10.9764757"><ele>149.0</ele><time>2026-04-25T14:51:05.427Z</time></trkpt><trkpt lat="45.7405147" lon="10.9766681"><ele>148.0</ele><time>2026-04-25T14:51:06.428Z</time></trkpt><trkpt lat="45.7406085" lon="10.9768607"><ele>148.0</ele><time>2026-04-25T14:51:07.427Z</time></trkpt><trkpt lat="45.7407063" lon="10.9770546"><ele>148.0</ele><time>2026-04-25T14:51:08.427Z</time></trkpt><trkpt lat="45.7407974" lon="10.9772461"><ele>148.0</ele><time>2026-04-25T14:51:09.428Z</time></trkpt><trkpt lat="45.7408827" lon="10.9774437"><ele>148.66666666666669</ele><time>2026-04-25T14:51:10.427Z</time></trkpt><trkpt lat="45.7409637" lon="10.9776484"><ele>149.33333333333334</ele><time>2026-04-25T14:51:11.427Z</time></trkpt><trkpt lat="45.741043" lon="10.9778563"><ele>150.0</ele><time>2026-04-25T14:51:12.428Z</time></trkpt><trkpt lat="45.7411224" lon="10.9780685"><ele>149.0</ele><time>2026-04-25T14:51:13.428Z</time></trkpt><trkpt lat="45.7412039" lon="10.9782603"><ele>148.0</ele><time>2026-04-25T14:51:14.428Z</time></trkpt><trkpt lat="45.7412999" lon="10.9784566"><ele>147.0</ele><time>2026-04-25T14:51:15.428Z</time></trkpt><trkpt lat="45.7414215" lon="10.9786473"><ele>147.0</ele><time>2026-04-25T14:51:16.427Z</time></trkpt><trkpt lat="45.7415616" lon="10.9788294"><ele>147.0</ele><time>2026-04-25T14:51:17.427Z</time></trkpt><trkpt lat="45.7417106" lon="10.9790125"><ele>147.0</ele><time>2026-04-25T14:51:18.427Z</time></trkpt><trkpt lat="45.7418576" lon="10.9792006"><ele>147.0</ele><time>2026-04-25T14:51:19.428Z</time></trkpt><trkpt lat="45.7419972" lon="10.9793918"><ele>147.0</ele><time>2026-04-25T14:51:20.428Z</time></trkpt><trkpt lat="45.7421258" lon="10.9795809"><ele>147.0</ele><time>2026-04-25T14:51:21.428Z</time></trkpt><trkpt lat="45.7422465" lon="10.9797651"><ele>147.0</ele><time>2026-04-25T14:51:22.429Z</time></trkpt><trkpt lat="45.7423638" lon="10.979957"><ele>147.0</ele><time>2026-04-25T14:51:23.428Z</time></trkpt><trkpt lat="45.7424809" lon="10.9801524"><ele>147.0</ele><time>2026-04-25T14:51:24.429Z</time></trkpt><trkpt lat="45.7425972" lon="10.980344"><ele>145.66666666666666</ele><time>2026-04-25T14:51:25.428Z</time></trkpt><trkpt lat="45.7427168" lon="10.9805356"><ele>144.33333333333331</ele><time>2026-04-25T14:51:26.429Z</time></trkpt><trkpt lat="45.7428354" lon="10.9807368"><ele>143.0</ele><time>2026-04-25T14:51:27.428Z</time></trkpt><trkpt lat="45.7429408" lon="10.9809565"><ele>143.0</ele><time>2026-04-25T14:51:28.427Z</time></trkpt><trkpt lat="45.7430336" lon="10.9811829"><ele>143.0</ele><time>2026-04-25T14:51:29.428Z</time></trkpt><trkpt lat="45.7431153" lon="10.9814031"><ele>143.0</ele><time>2026-04-25T14:51:30.428Z</time></trkpt><trkpt lat="45.7431864" lon="10.9816153"><ele>143.66666666666666</ele><time>2026-04-25T14:51:31.428Z</time></trkpt><trkpt lat="45.7432676" lon="10.9818407"><ele>144.33333333333334</ele><time>2026-04-25T14:51:32.429Z</time></trkpt><trkpt lat="45.7433518" lon="10.9820806"><ele>145.0</ele><time>2026-04-25T14:51:33.428Z</time></trkpt><trkpt lat="45.7434318" lon="10.9823412"><ele>146.33333333333334</ele><time>2026-04-25T14:51:34.428Z</time></trkpt><trkpt lat="45.7435078" lon="10.9825926"><ele>147.66666666666666</ele><time>2026-04-25T14:51:35.428Z</time></trkpt><trkpt lat="45.7435774" lon="10.9828161"><ele>149.0</ele><time>2026-04-25T14:51:36.427Z</time></trkpt><trkpt lat="45.7436451" lon="10.9830165"><ele>147.0</ele><time>2026-04-25T14:51:37.427Z</time></trkpt><trkpt lat="45.743709" lon="10.9832154"><ele>145.0</ele><time>2026-04-25T14:51:38.428Z</time></trkpt><trkpt lat="45.743775" lon="10.9834397"><ele>143.0</ele><time>2026-04-25T14:51:39.427Z</time></trkpt><trkpt lat="45.7439007" lon="10.9839619"><ele>143.66666666666666</ele><time>2026-04-25T14:51:41.429Z</time></trkpt><trkpt lat="45.7439446" lon="10.9842132"><ele>144.33333333333334</ele><time>2026-04-25T14:51:42.429Z</time></trkpt><trkpt lat="45.7439803" lon="10.9844501"><ele>145.0</ele><time>2026-04-25T14:51:43.428Z</time></trkpt><trkpt lat="45.7440134" lon="10.984679"><ele>145.0</ele><time>2026-04-25T14:51:44.428Z</time></trkpt><trkpt lat="45.7440559" lon="10.9849077"><ele>145.0</ele><time>2026-04-25T14:51:45.429Z</time></trkpt><trkpt lat="45.7441236" lon="10.9851365"><ele>145.0</ele><time>2026-04-25T14:51:46.429Z</time></trkpt><trkpt lat="45.7442246" lon="10.9853615"><ele>144.66666666666669</ele><time>2026-04-25T14:51:47.428Z</time></trkpt><trkpt lat="45.7443585" lon="10.9855735"><ele>144.33333333333334</ele><time>2026-04-25T14:51:48.428Z</time></trkpt><trkpt lat="45.7445093" lon="10.9857821"><ele>144.0</ele><time>2026-04-25T14:51:49.429Z</time></trkpt><trkpt lat="45.7446607" lon="10.9859966"><ele>144.0</ele><time>2026-04-25T14:51:50.429Z</time></trkpt><trkpt lat="45.7448009" lon="10.9862138"><ele>144.0</ele><time>2026-04-25T14:51:51.428Z</time></trkpt><trkpt lat="45.7449301" lon="10.9864207"><ele>144.0</ele><time>2026-04-25T14:51:52.428Z</time></trkpt><trkpt lat="45.745051" lon="10.9866156"><ele>144.0</ele><time>2026-04-25T14:51:53.428Z</time></trkpt><trkpt lat="45.7451698" lon="10.9868034"><ele>144.0</ele><time>2026-04-25T14:51:54.429Z</time></trkpt><trkpt lat="45.745291" lon="10.9869876"><ele>144.0</ele><time>2026-04-25T14:51:55.429Z</time></trkpt><trkpt lat="45.7454242" lon="10.9871615"><ele>144.0</ele><time>2026-04-25T14:51:56.428Z</time></trkpt><trkpt lat="45.7455711" lon="10.9873138"><ele>144.0</ele><time>2026-04-25T14:51:57.428Z</time></trkpt><trkpt lat="45.7457258" lon="10.9874542"><ele>144.0</ele><time>2026-04-25T14:51:58.429Z</time></trkpt><trkpt lat="45.7458805" lon="10.9875905"><ele>144.0</ele><time>2026-04-25T14:51:59.429Z</time></trkpt><trkpt lat="45.7460283" lon="10.9877252"><ele>144.0</ele><time>2026-04-25T14:52:00.429Z</time></trkpt><trkpt lat="45.7461773" lon="10.9878548"><ele>144.0</ele><time>2026-04-25T14:52:01.429Z</time></trkpt><trkpt lat="45.7463178" lon="10.9879839"><ele>144.0</ele><time>2026-04-25T14:52:02.428Z</time></trkpt><trkpt lat="45.7464587" lon="10.9881092"><ele>144.0</ele><time>2026-04-25T14:52:03.428Z</time></trkpt><trkpt lat="45.7465923" lon="10.9882339"><ele>144.0</ele><time>2026-04-25T14:52:04.429Z</time></trkpt><trkpt lat="45.7467098" lon="10.9883674"><ele>144.75</ele><time>2026-04-25T14:52:05.429Z</time></trkpt><trkpt lat="45.7468102" lon="10.988516"><ele>145.5</ele><time>2026-04-25T14:52:06.428Z</time></trkpt><trkpt lat="45.7468993" lon="10.988685"><ele>146.25</ele><time>2026-04-25T14:52:07.428Z</time></trkpt><trkpt lat="45.7469757" lon="10.9888771"><ele>147.0</ele><time>2026-04-25T14:52:08.429Z</time></trkpt><trkpt lat="45.7470356" lon="10.9890899"><ele>145.66666666666666</ele><time>2026-04-25T14:52:09.428Z</time></trkpt><trkpt lat="45.747086" lon="10.9893036"><ele>144.33333333333331</ele><time>2026-04-25T14:52:10.428Z</time></trkpt><trkpt lat="45.747147" lon="10.9895112"><ele>143.0</ele><time>2026-04-25T14:52:11.428Z</time></trkpt><trkpt lat="45.7472164" lon="10.9897187"><ele>143.0</ele><time>2026-04-25T14:52:12.428Z</time></trkpt><trkpt lat="45.7472965" lon="10.9898986"><ele>143.0</ele><time>2026-04-25T14:52:13.429Z</time></trkpt><trkpt lat="45.7473831" lon="10.990062"><ele>143.0</ele><time>2026-04-25T14:52:14.428Z</time></trkpt><trkpt lat="45.7474713" lon="10.9902121"><ele>143.0</ele><time>2026-04-25T14:52:15.428Z</time></trkpt><trkpt lat="45.7475658" lon="10.9903583"><ele>142.5</ele><time>2026-04-25T14:52:16.429Z</time></trkpt><trkpt lat="45.7476729" lon="10.9904928"><ele>142.0</ele><time>2026-04-25T14:52:17.429Z</time></trkpt><trkpt lat="45.7477847" lon="10.9906264"><ele>141.5</ele><time>2026-04-25T14:52:18.428Z</time></trkpt><trkpt lat="45.7479103" lon="10.9907392"><ele>141.0</ele><time>2026-04-25T14:52:19.429Z</time></trkpt><trkpt lat="45.7480533" lon="10.990822"><ele>142.33333333333334</ele><time>2026-04-25T14:52:20.429Z</time></trkpt><trkpt lat="45.7482021" lon="10.9908841"><ele>143.66666666666669</ele><time>2026-04-25T14:52:21.428Z</time></trkpt><trkpt lat="45.748348" lon="10.9909414"><ele>145.0</ele><time>2026-04-25T14:52:22.428Z</time></trkpt><trkpt lat="45.7484811" lon="10.9910217"><ele>144.0</ele><time>2026-04-25T14:52:23.429Z</time></trkpt><trkpt lat="45.7485933" lon="10.9911353"><ele>143.0</ele><time>2026-04-25T14:52:24.428Z</time></trkpt><trkpt lat="45.7486867" lon="10.9912787"><ele>142.0</ele><time>2026-04-25T14:52:25.429Z</time></trkpt><trkpt lat="45.7487771" lon="10.9914367"><ele>141.0</ele><time>2026-04-25T14:52:26.429Z</time></trkpt><trkpt lat="45.7488706" lon="10.9915956"><ele>141.25</ele><time>2026-04-25T14:52:27.429Z</time></trkpt><trkpt lat="45.7489679" lon="10.9917602"><ele>141.5</ele><time>2026-04-25T14:52:28.429Z</time></trkpt><trkpt lat="45.7490593" lon="10.991934"><ele>141.75</ele><time>2026-04-25T14:52:29.429Z</time></trkpt><trkpt lat="45.7491345" lon="10.9921131"><ele>142.0</ele><time>2026-04-25T14:52:30.43Z</time></trkpt><trkpt lat="45.7491954" lon="10.992298"><ele>142.0</ele><time>2026-04-25T14:52:31.428Z</time></trkpt><trkpt lat="45.7492518" lon="10.9924744"><ele>142.0</ele><time>2026-04-25T14:52:32.428Z</time></trkpt><trkpt lat="45.7493058" lon="10.9926366"><ele>142.0</ele><time>2026-04-25T14:52:33.428Z</time></trkpt><trkpt lat="45.749367" lon="10.9927853"><ele>142.0</ele><time>2026-04-25T14:52:34.43Z</time></trkpt><trkpt lat="45.7494487" lon="10.9929266"><ele>141.75</ele><time>2026-04-25T14:52:35.43Z</time></trkpt><trkpt lat="45.7495496" lon="10.9930771"><ele>141.5</ele><time>2026-04-25T14:52:36.429Z</time></trkpt><trkpt lat="45.749655" lon="10.993228"><ele>141.25</ele><time>2026-04-25T14:52:37.43Z</time></trkpt><trkpt lat="45.7497597" lon="10.9933782"><ele>141.0</ele><time>2026-04-25T14:52:38.429Z</time></trkpt><trkpt lat="45.7498455" lon="10.9935195"><ele>143.33333333333334</ele><time>2026-04-25T14:52:39.429Z</time></trkpt><trkpt lat="45.7499328" lon="10.9936563"><ele>145.66666666666669</ele><time>2026-04-25T14:52:40.429Z</time></trkpt><trkpt lat="45.7500461" lon="10.9938119"><ele>148.0</ele><time>2026-04-25T14:52:41.428Z</time></trkpt><trkpt lat="45.7501864" lon="10.9939983"><ele>147.5</ele><time>2026-04-25T14:52:42.429Z</time></trkpt><trkpt lat="45.7503646" lon="10.9942028"><ele>147.0</ele><time>2026-04-25T14:52:43.429Z</time></trkpt><trkpt lat="45.7505504" lon="10.9943772"><ele>147.0</ele><time>2026-04-25T14:52:44.43Z</time></trkpt><trkpt lat="45.75074" lon="10.9945384"><ele>147.0</ele><time>2026-04-25T14:52:45.43Z</time></trkpt><trkpt lat="45.7509278" lon="10.9947056"><ele>147.0</ele><time>2026-04-25T14:52:46.429Z</time></trkpt><trkpt lat="45.75111" lon="10.9948835"><ele>147.66666666666666</ele><time>2026-04-25T14:52:47.431Z</time></trkpt><trkpt lat="45.7512934" lon="10.9950539"><ele>148.33333333333331</ele><time>2026-04-25T14:52:48.429Z</time></trkpt><trkpt lat="45.7514816" lon="10.9952036"><ele>149.0</ele><time>2026-04-25T14:52:49.43Z</time></trkpt><trkpt lat="45.7516634" lon="10.9953454"><ele>149.0</ele><time>2026-04-25T14:52:50.429Z</time></trkpt><trkpt lat="45.7518375" lon="10.9954838"><ele>149.0</ele><time>2026-04-25T14:52:51.429Z</time></trkpt><trkpt lat="45.7520035" lon="10.9956179"><ele>149.0</ele><time>2026-04-25T14:52:52.429Z</time></trkpt><trkpt lat="45.7521593" lon="10.9957449"><ele>149.0</ele><time>2026-04-25T14:52:53.429Z</time></trkpt><trkpt lat="45.7523068" lon="10.9958739"><ele>149.0</ele><time>2026-04-25T14:52:54.429Z</time></trkpt><trkpt lat="45.7524472" lon="10.9960071"><ele>149.0</ele><time>2026-04-25T14:52:55.43Z</time></trkpt><trkpt lat="45.7525857" lon="10.9961438"><ele>148.66666666666666</ele><time>2026-04-25T14:52:56.429Z</time></trkpt><trkpt lat="45.7527233" lon="10.9962826"><ele>148.33333333333334</ele><time>2026-04-25T14:52:57.43Z</time></trkpt><trkpt lat="45.7528618" lon="10.9964176"><ele>148.0</ele><time>2026-04-25T14:52:58.43Z</time></trkpt><trkpt lat="45.7530014" lon="10.9965509"><ele>150.0</ele><time>2026-04-25T14:52:59.429Z</time></trkpt><trkpt lat="45.7531406" lon="10.996679"><ele>152.0</ele><time>2026-04-25T14:53:00.43Z</time></trkpt><trkpt lat="45.7532764" lon="10.9968025"><ele>154.0</ele><time>2026-04-25T14:53:01.429Z</time></trkpt><trkpt lat="45.7534147" lon="10.9969195"><ele>152.66666666666669</ele><time>2026-04-25T14:53:02.429Z</time></trkpt><trkpt lat="45.7535554" lon="10.9970276"><ele>151.33333333333334</ele><time>2026-04-25T14:53:03.429Z</time></trkpt><trkpt lat="45.7536987" lon="10.9971276"><ele>150.0</ele><time>2026-04-25T14:53:04.429Z</time></trkpt><trkpt lat="45.753843" lon="10.9972227"><ele>150.0</ele><time>2026-04-25T14:53:05.43Z</time></trkpt><trkpt lat="45.7539913" lon="10.9973157"><ele>150.0</ele><time>2026-04-25T14:53:06.429Z</time></trkpt><trkpt lat="45.7541443" lon="10.9974136"><ele>150.0</ele><time>2026-04-25T14:53:07.43Z</time></trkpt><trkpt lat="45.7543006" lon="10.9975202"><ele>152.33333333333334</ele><time>2026-04-25T14:53:08.431Z</time></trkpt><trkpt lat="45.7544558" lon="10.9976282"><ele>154.66666666666669</ele><time>2026-04-25T14:53:09.43Z</time></trkpt><trkpt lat="45.7546088" lon="10.9977335"><ele>157.0</ele><time>2026-04-25T14:53:10.429Z</time></trkpt><trkpt lat="45.7547614" lon="10.9978406"><ele>157.0</ele><time>2026-04-25T14:53:11.43Z</time></trkpt><trkpt lat="45.7549169" lon="10.9979443"><ele>157.0</ele><time>2026-04-25T14:53:12.43Z</time></trkpt><trkpt lat="45.7550737" lon="10.9980481"><ele>157.0</ele><time>2026-04-25T14:53:13.43Z</time></trkpt><trkpt lat="45.7552312" lon="10.9981497"><ele>157.66666666666669</ele><time>2026-04-25T14:53:14.429Z</time></trkpt><trkpt lat="45.7553894" lon="10.9982524"><ele>158.33333333333334</ele><time>2026-04-25T14:53:15.43Z</time></trkpt><trkpt lat="45.7555491" lon="10.9983568"><ele>159.0</ele><time>2026-04-25T14:53:16.431Z</time></trkpt><trkpt lat="45.7557094" lon="10.9984634"><ele>160.0</ele><time>2026-04-25T14:53:17.43Z</time></trkpt><trkpt lat="45.7558703" lon="10.9985712"><ele>161.0</ele><time>2026-04-25T14:53:18.429Z</time></trkpt><trkpt lat="45.7560301" lon="10.9986796"><ele>162.0</ele><time>2026-04-25T14:53:19.429Z</time></trkpt><trkpt lat="45.7561877" lon="10.9987881"><ele>162.66666666666666</ele><time>2026-04-25T14:53:20.429Z</time></trkpt><trkpt lat="45.7563447" lon="10.998895"><ele>163.33333333333331</ele><time>2026-04-25T14:53:21.43Z</time></trkpt><trkpt lat="45.7565015" lon="10.9989966"><ele>164.0</ele><time>2026-04-25T14:53:22.429Z</time></trkpt><trkpt lat="45.7566532" lon="10.9990956"><ele>165.0</ele><time>2026-04-25T14:53:23.429Z</time></trkpt><trkpt lat="45.7568014" lon="10.9992005"><ele>166.0</ele><time>2026-04-25T14:53:24.43Z</time></trkpt><trkpt lat="45.7569412" lon="10.9993078"><ele>167.0</ele><time>2026-04-25T14:53:25.43Z</time></trkpt><trkpt lat="45.7570757" lon="10.9994206"><ele>167.0</ele><time>2026-04-25T14:53:26.43Z</time></trkpt><trkpt lat="45.7571989" lon="10.9995414"><ele>167.0</ele><time>2026-04-25T14:53:27.43Z</time></trkpt><trkpt lat="45.757307" lon="10.9996685"><ele>167.0</ele><time>2026-04-25T14:53:28.429Z</time></trkpt><trkpt lat="45.7574051" lon="10.9997934"><ele>167.0</ele><time>2026-04-25T14:53:29.43Z</time></trkpt><trkpt lat="45.7574956" lon="10.9999046"><ele>167.0</ele><time>2026-04-25T14:53:30.431Z</time></trkpt><trkpt lat="45.7575785" lon="11.0000127"><ele>167.0</ele><time>2026-04-25T14:53:31.429Z</time></trkpt><trkpt lat="45.7576685" lon="11.0001181"><ele>167.0</ele><time>2026-04-25T14:53:32.43Z</time></trkpt><trkpt lat="45.7577407" lon="11.0002119"><ele>167.0</ele><time>2026-04-25T14:53:33.429Z</time></trkpt><trkpt lat="45.7578096" lon="11.0002996"><ele>167.0</ele><time>2026-04-25T14:53:34.43Z</time></trkpt><trkpt lat="45.7578783" lon="11.0003807"><ele>166.33333333333331</ele><time>2026-04-25T14:53:35.429Z</time></trkpt><trkpt lat="45.7579452" lon="11.0004587"><ele>165.66666666666666</ele><time>2026-04-25T14:53:36.431Z</time></trkpt><trkpt lat="45.7580096" lon="11.0005361"><ele>165.0</ele><time>2026-04-25T14:53:37.43Z</time></trkpt><trkpt lat="45.7580742" lon="11.0006096"><ele>164.33333333333334</ele><time>2026-04-25T14:53:38.429Z</time></trkpt><trkpt lat="45.7581352" lon="11.0006863"><ele>163.66666666666669</ele><time>2026-04-25T14:53:39.429Z</time></trkpt><trkpt lat="45.7581946" lon="11.0007548"><ele>163.0</ele><time>2026-04-25T14:53:40.431Z</time></trkpt><trkpt lat="45.7582461" lon="11.0008209"><ele>163.0</ele><time>2026-04-25T14:53:41.429Z</time></trkpt><trkpt lat="45.7582964" lon="11.0008815"><ele>163.0</ele><time>2026-04-25T14:53:42.43Z</time></trkpt><trkpt lat="45.7583811" lon="11.0009994"><ele>163.0</ele><time>2026-04-25T14:53:44.429Z</time></trkpt><trkpt lat="45.7584388" lon="11.0010812"><ele>163.0</ele><time>2026-04-25T14:53:46.43Z</time></trkpt><trkpt lat="45.7584861" lon="11.0011781"><ele>163.0</ele><time>2026-04-25T14:53:49.429Z</time></trkpt><trkpt lat="45.7585871" lon="11.001281"><ele>163.0</ele><time>2026-04-25T14:53:56.431Z</time></trkpt><trkpt lat="45.7586663" lon="11.0013661"><ele>163.0</ele><time>2026-04-25T14:53:57.431Z</time></trkpt><trkpt lat="45.7587607" lon="11.001471"><ele>163.0</ele><time>2026-04-25T14:53:58.431Z</time></trkpt><trkpt lat="45.7588632" lon="11.0015793"><ele>163.0</ele><time>2026-04-25T14:53:59.431Z</time></trkpt><trkpt lat="45.758976" lon="11.0016942"><ele>163.0</ele><time>2026-04-25T14:54:00.432Z</time></trkpt><trkpt lat="45.7590891" lon="11.0018013"><ele>163.0</ele><time>2026-04-25T14:54:01.43Z</time></trkpt><trkpt lat="45.7591659" lon="11.0018599"><ele>163.0</ele><time>2026-04-25T14:54:02.43Z</time></trkpt><trkpt lat="45.7592222" lon="11.0019019"><ele>163.0</ele><time>2026-04-25T14:54:05.431Z</time></trkpt><trkpt lat="45.7592982" lon="11.0019685"><ele>163.0</ele><time>2026-04-25T14:54:07.431Z</time></trkpt><trkpt lat="45.7593743" lon="11.0020491"><ele>161.5</ele><time>2026-04-25T14:54:08.43Z</time></trkpt><trkpt lat="45.7594743" lon="11.0021501"><ele>160.0</ele><time>2026-04-25T14:54:09.43Z</time></trkpt><trkpt lat="45.7595918" lon="11.0022641"><ele>158.5</ele><time>2026-04-25T14:54:10.43Z</time></trkpt><trkpt lat="45.7597342" lon="11.0023903"><ele>157.0</ele><time>2026-04-25T14:54:11.43Z</time></trkpt><trkpt lat="45.7598854" lon="11.0025295"><ele>157.0</ele><time>2026-04-25T14:54:12.431Z</time></trkpt><trkpt lat="45.7600425" lon="11.0026742"><ele>157.0</ele><time>2026-04-25T14:54:13.431Z</time></trkpt><trkpt lat="45.760201" lon="11.0028274"><ele>157.0</ele><time>2026-04-25T14:54:14.43Z</time></trkpt><trkpt lat="45.760367" lon="11.0029893"><ele>157.66666666666669</ele><time>2026-04-25T14:54:15.43Z</time></trkpt><trkpt lat="45.7605369" lon="11.0031535"><ele>158.33333333333334</ele><time>2026-04-25T14:54:16.43Z</time></trkpt><trkpt lat="45.7607046" lon="11.0033157"><ele>159.0</ele><time>2026-04-25T14:54:17.431Z</time></trkpt><trkpt lat="45.7608712" lon="11.0034774"><ele>162.33333333333334</ele><time>2026-04-25T14:54:18.43Z</time></trkpt><trkpt lat="45.7610381" lon="11.0036365"><ele>165.66666666666669</ele><time>2026-04-25T14:54:19.431Z</time></trkpt><trkpt lat="45.7612055" lon="11.0037974"><ele>169.0</ele><time>2026-04-25T14:54:20.43Z</time></trkpt><trkpt lat="45.7613739" lon="11.0039559"><ele>169.0</ele><time>2026-04-25T14:54:21.432Z</time></trkpt><trkpt lat="45.7615389" lon="11.0041124"><ele>169.0</ele><time>2026-04-25T14:54:22.431Z</time></trkpt><trkpt lat="45.7616962" lon="11.0042634"><ele>169.0</ele><time>2026-04-25T14:54:23.431Z</time></trkpt><trkpt lat="45.7618413" lon="11.0043979"><ele>169.5</ele><time>2026-04-25T14:54:24.431Z</time></trkpt><trkpt lat="45.7619704" lon="11.0045222"><ele>170.0</ele><time>2026-04-25T14:54:25.431Z</time></trkpt><trkpt lat="45.7620872" lon="11.0046441"><ele>170.5</ele><time>2026-04-25T14:54:26.431Z</time></trkpt><trkpt lat="45.7621984" lon="11.0047495"><ele>171.0</ele><time>2026-04-25T14:54:27.431Z</time></trkpt><trkpt lat="45.7622981" lon="11.0048544"><ele>171.0</ele><time>2026-04-25T14:54:28.43Z</time></trkpt><trkpt lat="45.7623861" lon="11.004942"><ele>171.0</ele><time>2026-04-25T14:54:29.432Z</time></trkpt><trkpt lat="45.7624561" lon="11.0050142"><ele>171.0</ele><time>2026-04-25T14:54:30.43Z</time></trkpt><trkpt lat="45.7625191" lon="11.0050861"><ele>171.0</ele><time>2026-04-25T14:54:32.43Z</time></trkpt><trkpt lat="45.7625182" lon="11.0051788"><ele>171.0</ele><time>2026-04-25T14:54:36.431Z</time></trkpt><trkpt lat="45.7625939" lon="11.0052614"><ele>171.0</ele><time>2026-04-25T14:54:37.431Z</time></trkpt><trkpt lat="45.7627061" lon="11.0053448"><ele>170.33333333333334</ele><time>2026-04-25T14:54:38.431Z</time></trkpt><trkpt lat="45.7628271" lon="11.0054322"><ele>169.66666666666669</ele><time>2026-04-25T14:54:39.432Z</time></trkpt><trkpt lat="45.7629593" lon="11.0055288"><ele>169.0</ele><time>2026-04-25T14:54:40.432Z</time></trkpt><trkpt lat="45.7631043" lon="11.0056553"><ele>169.0</ele><time>2026-04-25T14:54:41.431Z</time></trkpt><trkpt lat="45.7632605" lon="11.0057902"><ele>169.0</ele><time>2026-04-25T14:54:42.431Z</time></trkpt><trkpt lat="45.7634003" lon="11.0059535"><ele>169.0</ele><time>2026-04-25T14:54:43.431Z</time></trkpt><trkpt lat="45.7635599" lon="11.0061081"><ele>168.0</ele><time>2026-04-25T14:54:44.43Z</time></trkpt><trkpt lat="45.7637196" lon="11.0062625"><ele>167.0</ele><time>2026-04-25T14:54:45.431Z</time></trkpt><trkpt lat="45.7638807" lon="11.0064176"><ele>166.0</ele><time>2026-04-25T14:54:46.431Z</time></trkpt><trkpt lat="45.764047" lon="11.0065727"><ele>166.33333333333334</ele><time>2026-04-25T14:54:47.432Z</time></trkpt><trkpt lat="45.7642153" lon="11.0067182"><ele>166.66666666666666</ele><time>2026-04-25T14:54:48.431Z</time></trkpt><trkpt lat="45.7643844" lon="11.0068467"><ele>167.0</ele><time>2026-04-25T14:54:49.431Z</time></trkpt><trkpt lat="45.7645625" lon="11.0069442"><ele>166.0</ele><time>2026-04-25T14:54:50.431Z</time></trkpt><trkpt lat="45.7647475" lon="11.0070214"><ele>165.0</ele><time>2026-04-25T14:54:51.43Z</time></trkpt><trkpt lat="45.7649355" lon="11.0070854"><ele>164.0</ele><time>2026-04-25T14:54:52.432Z</time></trkpt><trkpt lat="45.7651239" lon="11.0071472"><ele>161.33333333333331</ele><time>2026-04-25T14:54:53.43Z</time></trkpt><trkpt lat="45.7653176" lon="11.0071997"><ele>158.66666666666666</ele><time>2026-04-25T14:54:54.432Z</time></trkpt><trkpt lat="45.7655231" lon="11.0072354"><ele>156.0</ele><time>2026-04-25T14:54:55.431Z</time></trkpt><trkpt lat="45.7657299" lon="11.0072782"><ele>156.0</ele><time>2026-04-25T14:54:56.431Z</time></trkpt><trkpt lat="45.7659382" lon="11.00733"><ele>156.0</ele><time>2026-04-25T14:54:57.431Z</time></trkpt><trkpt lat="45.7661438" lon="11.0073811"><ele>156.0</ele><time>2026-04-25T14:54:58.431Z</time></trkpt><trkpt lat="45.7663477" lon="11.0074359"><ele>155.66666666666666</ele><time>2026-04-25T14:54:59.432Z</time></trkpt><trkpt lat="45.7665531" lon="11.0074905"><ele>155.33333333333331</ele><time>2026-04-25T14:55:00.431Z</time></trkpt><trkpt lat="45.7667611" lon="11.0075501"><ele>155.0</ele><time>2026-04-25T14:55:01.431Z</time></trkpt><trkpt lat="45.7669647" lon="11.0076216"><ele>152.66666666666666</ele><time>2026-04-25T14:55:02.431Z</time></trkpt><trkpt lat="45.7671611" lon="11.0077109"><ele>150.33333333333334</ele><time>2026-04-25T14:55:03.431Z</time></trkpt><trkpt lat="45.7673458" lon="11.0078329"><ele>148.0</ele><time>2026-04-25T14:55:04.432Z</time></trkpt><trkpt lat="45.7675203" lon="11.0079966"><ele>148.0</ele><time>2026-04-25T14:55:05.432Z</time></trkpt><trkpt lat="45.7676855" lon="11.0081853"><ele>148.0</ele><time>2026-04-25T14:55:06.431Z</time></trkpt><trkpt lat="45.767842" lon="11.0083696"><ele>148.0</ele><time>2026-04-25T14:55:07.431Z</time></trkpt><trkpt lat="45.7679939" lon="11.0085308"><ele>148.33333333333334</ele><time>2026-04-25T14:55:08.432Z</time></trkpt><trkpt lat="45.7681387" lon="11.0086748"><ele>148.66666666666666</ele><time>2026-04-25T14:55:09.431Z</time></trkpt><trkpt lat="45.7682662" lon="11.0088041"><ele>149.0</ele><time>2026-04-25T14:55:10.431Z</time></trkpt><trkpt lat="45.7683729" lon="11.0089246"><ele>149.0</ele><time>2026-04-25T14:55:11.432Z</time></trkpt><trkpt lat="45.7684689" lon="11.0090398"><ele>149.0</ele><time>2026-04-25T14:55:12.431Z</time></trkpt><trkpt lat="45.7685418" lon="11.0091717"><ele>149.0</ele><time>2026-04-25T14:55:13.432Z</time></trkpt><trkpt lat="45.7686233" lon="11.0092775"><ele>149.0</ele><time>2026-04-25T14:55:14.431Z</time></trkpt><trkpt lat="45.7687384" lon="11.0093638"><ele>148.33333333333331</ele><time>2026-04-25T14:55:15.431Z</time></trkpt><trkpt lat="45.7688952" lon="11.0094573"><ele>147.66666666666666</ele><time>2026-04-25T14:55:16.431Z</time></trkpt><trkpt lat="45.7690802" lon="11.0096148"><ele>147.0</ele><time>2026-04-25T14:55:17.431Z</time></trkpt><trkpt lat="45.769254" lon="11.0097912"><ele>146.33333333333334</ele><time>2026-04-25T14:55:18.431Z</time></trkpt><trkpt lat="45.7694174" lon="11.0099642"><ele>145.66666666666669</ele><time>2026-04-25T14:55:19.432Z</time></trkpt><trkpt lat="45.7696025" lon="11.010125"><ele>145.0</ele><time>2026-04-25T14:55:20.431Z</time></trkpt><trkpt lat="45.7697927" lon="11.0102828"><ele>145.0</ele><time>2026-04-25T14:55:21.431Z</time></trkpt><trkpt lat="45.7699899" lon="11.0104364"><ele>145.0</ele><time>2026-04-25T14:55:22.431Z</time></trkpt><trkpt lat="45.7701922" lon="11.010597"><ele>145.5</ele><time>2026-04-25T14:55:23.431Z</time></trkpt><trkpt lat="45.7704046" lon="11.010765"><ele>146.0</ele><time>2026-04-25T14:55:24.432Z</time></trkpt><trkpt lat="45.770627" lon="11.0109359"><ele>146.0</ele><time>2026-04-25T14:55:25.432Z</time></trkpt><trkpt lat="45.7708528" lon="11.0111058"><ele>146.0</ele><time>2026-04-25T14:55:26.431Z</time></trkpt><trkpt lat="45.7710784" lon="11.011273"><ele>144.0</ele><time>2026-04-25T14:55:27.431Z</time></trkpt><trkpt lat="45.7713031" lon="11.0114399"><ele>142.0</ele><time>2026-04-25T14:55:28.431Z</time></trkpt><trkpt lat="45.7715267" lon="11.0116094"><ele>142.5</ele><time>2026-04-25T14:55:29.432Z</time></trkpt><trkpt lat="45.7717528" lon="11.0117855"><ele>143.0</ele><time>2026-04-25T14:55:30.431Z</time></trkpt><trkpt lat="45.7719892" lon="11.011958"><ele>143.0</ele><time>2026-04-25T14:55:31.431Z</time></trkpt><trkpt lat="45.7722328" lon="11.0121183"><ele>143.0</ele><time>2026-04-25T14:55:32.432Z</time></trkpt><trkpt lat="45.7724828" lon="11.0122478"><ele>143.0</ele><time>2026-04-25T14:55:33.431Z</time></trkpt><trkpt lat="45.7727375" lon="11.0123675"><ele>143.0</ele><time>2026-04-25T14:55:34.432Z</time></trkpt><trkpt lat="45.7729963" lon="11.0124792"><ele>145.0</ele><time>2026-04-25T14:55:35.431Z</time></trkpt><trkpt lat="45.7732574" lon="11.0125826"><ele>147.0</ele><time>2026-04-25T14:55:36.431Z</time></trkpt><trkpt lat="45.7735225" lon="11.0126839"><ele>147.0</ele><time>2026-04-25T14:55:37.432Z</time></trkpt><trkpt lat="45.7737885" lon="11.012787"><ele>147.0</ele><time>2026-04-25T14:55:38.432Z</time></trkpt><trkpt lat="45.7740557" lon="11.0128968"><ele>147.0</ele><time>2026-04-25T14:55:39.432Z</time></trkpt><trkpt lat="45.7743209" lon="11.0130048"><ele>147.0</ele><time>2026-04-25T14:55:40.432Z</time></trkpt><trkpt lat="45.7745897" lon="11.0131102"><ele>147.5</ele><time>2026-04-25T14:55:41.431Z</time></trkpt><trkpt lat="45.7748591" lon="11.0132173"><ele>148.0</ele><time>2026-04-25T14:55:42.432Z</time></trkpt><trkpt lat="45.7751283" lon="11.0133252"><ele>147.0</ele><time>2026-04-25T14:55:43.432Z</time></trkpt><trkpt lat="45.7753946" lon="11.0134322"><ele>146.0</ele><time>2026-04-25T14:55:44.432Z</time></trkpt><trkpt lat="45.7756546" lon="11.0135363"><ele>146.0</ele><time>2026-04-25T14:55:45.432Z</time></trkpt><trkpt lat="45.77591" lon="11.0136356"><ele>146.0</ele><time>2026-04-25T14:55:46.433Z</time></trkpt><trkpt lat="45.7761618" lon="11.0137353"><ele>145.5</ele><time>2026-04-25T14:55:47.432Z</time></trkpt><trkpt lat="45.7764097" lon="11.013835"><ele>145.0</ele><time>2026-04-25T14:55:48.433Z</time></trkpt><trkpt lat="45.7766547" lon="11.0139333"><ele>144.5</ele><time>2026-04-25T14:55:49.432Z</time></trkpt><trkpt lat="45.7768986" lon="11.0140299"><ele>144.0</ele><time>2026-04-25T14:55:50.432Z</time></trkpt><trkpt lat="45.777138" lon="11.0141259"><ele>145.5</ele><time>2026-04-25T14:55:51.432Z</time></trkpt><trkpt lat="45.7773729" lon="11.0142227"><ele>147.0</ele><time>2026-04-25T14:55:52.432Z</time></trkpt><trkpt lat="45.777605" lon="11.0143119"><ele>148.0</ele><time>2026-04-25T14:55:53.432Z</time></trkpt><trkpt lat="45.7778365" lon="11.0143943"><ele>149.0</ele><time>2026-04-25T14:55:54.432Z</time></trkpt><trkpt lat="45.7780653" lon="11.0144757"><ele>149.0</ele><time>2026-04-25T14:55:55.432Z</time></trkpt><trkpt lat="45.778287" lon="11.014565"><ele>149.0</ele><time>2026-04-25T14:55:56.432Z</time></trkpt><trkpt lat="45.7785044" lon="11.0146607"><ele>147.0</ele><time>2026-04-25T14:55:57.432Z</time></trkpt><trkpt lat="45.7787173" lon="11.0147636"><ele>145.0</ele><time>2026-04-25T14:55:58.432Z</time></trkpt><trkpt lat="45.7789295" lon="11.0148828"><ele>146.0</ele><time>2026-04-25T14:55:59.433Z</time></trkpt><trkpt lat="45.779142" lon="11.0150055"><ele>147.0</ele><time>2026-04-25T14:56:00.432Z</time></trkpt><trkpt lat="45.7793606" lon="11.0151253"><ele>147.5</ele><time>2026-04-25T14:56:01.433Z</time></trkpt><trkpt lat="45.7795919" lon="11.0152366"><ele>148.0</ele><time>2026-04-25T14:56:02.433Z</time></trkpt><trkpt lat="45.7798333" lon="11.015348"><ele>148.0</ele><time>2026-04-25T14:56:03.433Z</time></trkpt><trkpt lat="45.7800796" lon="11.0154631"><ele>148.0</ele><time>2026-04-25T14:56:04.432Z</time></trkpt><trkpt lat="45.7803211" lon="11.015578"><ele>147.0</ele><time>2026-04-25T14:56:05.432Z</time></trkpt><trkpt lat="45.7805536" lon="11.0156877"><ele>146.0</ele><time>2026-04-25T14:56:06.432Z</time></trkpt><trkpt lat="45.7807745" lon="11.0157906"><ele>146.66666666666666</ele><time>2026-04-25T14:56:07.433Z</time></trkpt><trkpt lat="45.7809853" lon="11.0158912"><ele>147.33333333333334</ele><time>2026-04-25T14:56:08.432Z</time></trkpt><trkpt lat="45.7811964" lon="11.0159907"><ele>148.0</ele><time>2026-04-25T14:56:09.432Z</time></trkpt><trkpt lat="45.7814101" lon="11.0160944"><ele>148.0</ele><time>2026-04-25T14:56:10.432Z</time></trkpt><trkpt lat="45.781628" lon="11.0162008"><ele>148.0</ele><time>2026-04-25T14:56:11.433Z</time></trkpt><trkpt lat="45.7818495" lon="11.0163072"><ele>148.0</ele><time>2026-04-25T14:56:12.432Z</time></trkpt><trkpt lat="45.7820713" lon="11.0164139"><ele>148.0</ele><time>2026-04-25T14:56:13.434Z</time></trkpt><trkpt lat="45.7822922" lon="11.0165184"><ele>148.0</ele><time>2026-04-25T14:56:14.432Z</time></trkpt><trkpt lat="45.7825153" lon="11.0166265"><ele>148.0</ele><time>2026-04-25T14:56:15.433Z</time></trkpt><trkpt lat="45.7827341" lon="11.0167598"><ele>149.5</ele><time>2026-04-25T14:56:16.433Z</time></trkpt><trkpt lat="45.7829478" lon="11.0169131"><ele>151.0</ele><time>2026-04-25T14:56:17.433Z</time></trkpt><trkpt lat="45.7831587" lon="11.0170733"><ele>151.0</ele><time>2026-04-25T14:56:18.432Z</time></trkpt><trkpt lat="45.7833706" lon="11.0172302"><ele>151.0</ele><time>2026-04-25T14:56:19.432Z</time></trkpt><trkpt lat="45.78358" lon="11.0173891"><ele>150.5</ele><time>2026-04-25T14:56:20.432Z</time></trkpt><trkpt lat="45.7837882" lon="11.0175559"><ele>150.0</ele><time>2026-04-25T14:56:21.433Z</time></trkpt><trkpt lat="45.7839872" lon="11.0177422"><ele>150.0</ele><time>2026-04-25T14:56:22.433Z</time></trkpt><trkpt lat="45.7841788" lon="11.0179374"><ele>150.0</ele><time>2026-04-25T14:56:23.432Z</time></trkpt><trkpt lat="45.7843771" lon="11.0181248"><ele>150.0</ele><time>2026-04-25T14:56:24.433Z</time></trkpt><trkpt lat="45.7845844" lon="11.0182864"><ele>150.0</ele><time>2026-04-25T14:56:25.432Z</time></trkpt><trkpt lat="45.7848065" lon="11.018432"><ele>150.5</ele><time>2026-04-25T14:56:26.432Z</time></trkpt><trkpt lat="45.7850372" lon="11.0185536"><ele>151.0</ele><time>2026-04-25T14:56:27.432Z</time></trkpt><trkpt lat="45.7852661" lon="11.0186698"><ele>151.0</ele><time>2026-04-25T14:56:28.432Z</time></trkpt><trkpt lat="45.785488" lon="11.0187933"><ele>151.0</ele><time>2026-04-25T14:56:29.432Z</time></trkpt><trkpt lat="45.7857063" lon="11.0189359"><ele>151.0</ele><time>2026-04-25T14:56:30.433Z</time></trkpt><trkpt lat="45.7859182" lon="11.0191094"><ele>151.0</ele><time>2026-04-25T14:56:31.433Z</time></trkpt><trkpt lat="45.7861232" lon="11.0193231"><ele>151.0</ele><time>2026-04-25T14:56:32.432Z</time></trkpt><trkpt lat="45.7863271" lon="11.0195366"><ele>151.0</ele><time>2026-04-25T14:56:33.432Z</time></trkpt><trkpt lat="45.7865304" lon="11.0197583"><ele>151.0</ele><time>2026-04-25T14:56:34.432Z</time></trkpt><trkpt lat="45.7867358" lon="11.0199694"><ele>151.0</ele><time>2026-04-25T14:56:35.432Z</time></trkpt><trkpt lat="45.7869435" lon="11.0201837"><ele>151.5</ele><time>2026-04-25T14:56:36.432Z</time></trkpt><trkpt lat="45.7871502" lon="11.0204037"><ele>152.0</ele><time>2026-04-25T14:56:37.432Z</time></trkpt><trkpt lat="45.7873524" lon="11.020619"><ele>152.0</ele><time>2026-04-25T14:56:38.432Z</time></trkpt><trkpt lat="45.7875545" lon="11.0208247"><ele>152.0</ele><time>2026-04-25T14:56:39.432Z</time></trkpt><trkpt lat="45.7877595" lon="11.0210142"><ele>152.0</ele><time>2026-04-25T14:56:40.432Z</time></trkpt><trkpt lat="45.787965" lon="11.0211783"><ele>152.0</ele><time>2026-04-25T14:56:41.433Z</time></trkpt><trkpt lat="45.7881744" lon="11.0213028"><ele>152.0</ele><time>2026-04-25T14:56:42.432Z</time></trkpt><trkpt lat="45.788386" lon="11.0213703"><ele>152.0</ele><time>2026-04-25T14:56:43.433Z</time></trkpt><trkpt lat="45.7886111" lon="11.0213969"><ele>152.0</ele><time>2026-04-25T14:56:44.433Z</time></trkpt><trkpt lat="45.7888405" lon="11.0213838"><ele>151.5</ele><time>2026-04-25T14:56:45.433Z</time></trkpt><trkpt lat="45.7890809" lon="11.0213395"><ele>151.0</ele><time>2026-04-25T14:56:46.433Z</time></trkpt><trkpt lat="45.7893279" lon="11.02128"><ele>151.5</ele><time>2026-04-25T14:56:47.434Z</time></trkpt><trkpt lat="45.789581" lon="11.0212141"><ele>152.0</ele><time>2026-04-25T14:56:48.434Z</time></trkpt><trkpt lat="45.789834" lon="11.0211497"><ele>152.0</ele><time>2026-04-25T14:56:49.434Z</time></trkpt><trkpt lat="45.7900838" lon="11.0210837"><ele>152.0</ele><time>2026-04-25T14:56:50.433Z</time></trkpt><trkpt lat="45.7903227" lon="11.0210333"><ele>153.0</ele><time>2026-04-25T14:56:51.433Z</time></trkpt><trkpt lat="45.790555" lon="11.0210017"><ele>154.0</ele><time>2026-04-25T14:56:52.433Z</time></trkpt><trkpt lat="45.7907933" lon="11.0210033"><ele>153.0</ele><time>2026-04-25T14:56:53.433Z</time></trkpt><trkpt lat="45.7910419" lon="11.0210374"><ele>152.0</ele><time>2026-04-25T14:56:54.433Z</time></trkpt><trkpt lat="45.7912964" lon="11.0210964"><ele>152.0</ele><time>2026-04-25T14:56:55.434Z</time></trkpt><trkpt lat="45.7915522" lon="11.0211653"><ele>152.0</ele><time>2026-04-25T14:56:56.433Z</time></trkpt><trkpt lat="45.7918065" lon="11.0212358"><ele>151.0</ele><time>2026-04-25T14:56:57.433Z</time></trkpt><trkpt lat="45.7920595" lon="11.0213077"><ele>150.0</ele><time>2026-04-25T14:56:58.432Z</time></trkpt><trkpt lat="45.7923141" lon="11.0213741"><ele>150.0</ele><time>2026-04-25T14:56:59.434Z</time></trkpt><trkpt lat="45.7925723" lon="11.0214378"><ele>150.0</ele><time>2026-04-25T14:57:00.433Z</time></trkpt><trkpt lat="45.7928348" lon="11.021501"><ele>148.5</ele><time>2026-04-25T14:57:01.433Z</time></trkpt><trkpt lat="45.7931002" lon="11.0215622"><ele>147.0</ele><time>2026-04-25T14:57:02.434Z</time></trkpt><trkpt lat="45.7933659" lon="11.0216245"><ele>148.0</ele><time>2026-04-25T14:57:03.433Z</time></trkpt><trkpt lat="45.7936325" lon="11.0216885"><ele>149.0</ele><time>2026-04-25T14:57:04.434Z</time></trkpt><trkpt lat="45.7939013" lon="11.0217517"><ele>149.0</ele><time>2026-04-25T14:57:05.433Z</time></trkpt><trkpt lat="45.7941689" lon="11.0218152"><ele>149.0</ele><time>2026-04-25T14:57:06.433Z</time></trkpt><trkpt lat="45.7944394" lon="11.0218736"><ele>149.5</ele><time>2026-04-25T14:57:07.433Z</time></trkpt><trkpt lat="45.7947086" lon="11.0219237"><ele>150.0</ele><time>2026-04-25T14:57:08.434Z</time></trkpt><trkpt lat="45.7949761" lon="11.0219561"><ele>149.0</ele><time>2026-04-25T14:57:09.433Z</time></trkpt><trkpt lat="45.7952435" lon="11.0219676"><ele>148.0</ele><time>2026-04-25T14:57:10.434Z</time></trkpt><trkpt lat="45.79551" lon="11.0219645"><ele>148.0</ele><time>2026-04-25T14:57:11.434Z</time></trkpt><trkpt lat="45.7957766" lon="11.0219519"><ele>148.0</ele><time>2026-04-25T14:57:12.433Z</time></trkpt><trkpt lat="45.7960415" lon="11.0219387"><ele>149.0</ele><time>2026-04-25T14:57:13.433Z</time></trkpt><trkpt lat="45.7963034" lon="11.0219276"><ele>150.0</ele><time>2026-04-25T14:57:14.433Z</time></trkpt><trkpt lat="45.7965603" lon="11.0219084"><ele>150.0</ele><time>2026-04-25T14:57:15.434Z</time></trkpt><trkpt lat="45.7968127" lon="11.0218667"><ele>150.0</ele><time>2026-04-25T14:57:16.433Z</time></trkpt><trkpt lat="45.7970686" lon="11.0217886"><ele>149.5</ele><time>2026-04-25T14:57:17.433Z</time></trkpt><trkpt lat="45.7973185" lon="11.0216899"><ele>149.0</ele><time>2026-04-25T14:57:18.433Z</time></trkpt><trkpt lat="45.7975662" lon="11.0215832"><ele>149.0</ele><time>2026-04-25T14:57:19.434Z</time></trkpt><trkpt lat="45.7978109" lon="11.0214798"><ele>149.0</ele><time>2026-04-25T14:57:20.434Z</time></trkpt><trkpt lat="45.7980559" lon="11.0213797"><ele>149.0</ele><time>2026-04-25T14:57:21.433Z</time></trkpt><trkpt lat="45.798303" lon="11.0212737"><ele>149.0</ele><time>2026-04-25T14:57:22.433Z</time></trkpt><trkpt lat="45.7985469" lon="11.0211572"><ele>148.0</ele><time>2026-04-25T14:57:23.433Z</time></trkpt><trkpt lat="45.7987872" lon="11.0210269"><ele>147.0</ele><time>2026-04-25T14:57:24.434Z</time></trkpt><trkpt lat="45.7990267" lon="11.0208844"><ele>147.5</ele><time>2026-04-25T14:57:25.433Z</time></trkpt><trkpt lat="45.7992656" lon="11.0207384"><ele>148.0</ele><time>2026-04-25T14:57:26.434Z</time></trkpt><trkpt lat="45.7995033" lon="11.020592"><ele>148.5</ele><time>2026-04-25T14:57:27.433Z</time></trkpt><trkpt lat="45.7997421" lon="11.0204481"><ele>149.0</ele><time>2026-04-25T14:57:28.433Z</time></trkpt><trkpt lat="45.7999819" lon="11.020306"><ele>148.5</ele><time>2026-04-25T14:57:29.433Z</time></trkpt><trkpt lat="45.8002211" lon="11.0201647"><ele>148.0</ele><time>2026-04-25T14:57:30.434Z</time></trkpt><trkpt lat="45.8004582" lon="11.0200243"><ele>147.5</ele><time>2026-04-25T14:57:31.433Z</time></trkpt><trkpt lat="45.8006959" lon="11.0198802"><ele>147.0</ele><time>2026-04-25T14:57:32.433Z</time></trkpt><trkpt lat="45.8009322" lon="11.0197351"><ele>147.0</ele><time>2026-04-25T14:57:33.433Z</time></trkpt><trkpt lat="45.8011673" lon="11.0195951"><ele>147.0</ele><time>2026-04-25T14:57:34.433Z</time></trkpt><trkpt lat="45.8014053" lon="11.0194623"><ele>147.0</ele><time>2026-04-25T14:57:35.433Z</time></trkpt><trkpt lat="45.8016476" lon="11.019343"><ele>147.0</ele><time>2026-04-25T14:57:36.434Z</time></trkpt><trkpt lat="45.8018929" lon="11.0192488"><ele>147.5</ele><time>2026-04-25T14:57:37.433Z</time></trkpt><trkpt lat="45.8021416" lon="11.0191751"><ele>148.0</ele><time>2026-04-25T14:57:38.434Z</time></trkpt><trkpt lat="45.8023881" lon="11.0191136"><ele>148.0</ele><time>2026-04-25T14:57:39.433Z</time></trkpt><trkpt lat="45.8026293" lon="11.0190553"><ele>148.0</ele><time>2026-04-25T14:57:40.433Z</time></trkpt><trkpt lat="45.8028675" lon="11.0189886"><ele>148.0</ele><time>2026-04-25T14:57:41.433Z</time></trkpt><trkpt lat="45.8031015" lon="11.0189158"><ele>148.0</ele><time>2026-04-25T14:57:42.433Z</time></trkpt><trkpt lat="45.8033314" lon="11.0188439"><ele>147.33333333333334</ele><time>2026-04-25T14:57:43.434Z</time></trkpt><trkpt lat="45.8035541" lon="11.0187778"><ele>146.66666666666666</ele><time>2026-04-25T14:57:44.433Z</time></trkpt><trkpt lat="45.8037637" lon="11.0187176"><ele>146.0</ele><time>2026-04-25T14:57:45.433Z</time></trkpt><trkpt lat="45.8039597" lon="11.0186598"><ele>146.0</ele><time>2026-04-25T14:57:46.434Z</time></trkpt><trkpt lat="45.8041451" lon="11.0186052"><ele>146.0</ele><time>2026-04-25T14:57:47.434Z</time></trkpt><trkpt lat="45.8043166" lon="11.0185548"><ele>146.0</ele><time>2026-04-25T14:57:48.434Z</time></trkpt><trkpt lat="45.8044754" lon="11.0185068"><ele>146.5</ele><time>2026-04-25T14:57:49.433Z</time></trkpt><trkpt lat="45.8046235" lon="11.0184587"><ele>147.0</ele><time>2026-04-25T14:57:50.434Z</time></trkpt><trkpt lat="45.8047675" lon="11.0184132"><ele>147.5</ele><time>2026-04-25T14:57:51.433Z</time></trkpt><trkpt lat="45.8049061" lon="11.0183743"><ele>148.0</ele><time>2026-04-25T14:57:52.434Z</time></trkpt><trkpt lat="45.8050322" lon="11.0183425"><ele>148.16666666666669</ele><time>2026-04-25T14:57:53.434Z</time></trkpt><trkpt lat="45.8051342" lon="11.0183171"><ele>148.33333333333334</ele><time>2026-04-25T14:57:54.435Z</time></trkpt><trkpt lat="45.805215" lon="11.0182963"><ele>148.5</ele><time>2026-04-25T14:57:55.434Z</time></trkpt><trkpt lat="45.8052822" lon="11.0182796"><ele>148.66666666666666</ele><time>2026-04-25T14:57:56.434Z</time></trkpt><trkpt lat="45.8053492" lon="11.0182724"><ele>148.83333333333331</ele><time>2026-04-25T14:57:57.434Z</time></trkpt><trkpt lat="45.8054317" lon="11.0182932"><ele>149.0</ele><time>2026-04-25T14:57:58.434Z</time></trkpt><trkpt lat="45.8055172" lon="11.0182968"><ele>149.0</ele><time>2026-04-25T14:57:59.435Z</time></trkpt><trkpt lat="45.8056258" lon="11.0182718"><ele>149.0</ele><time>2026-04-25T14:58:00.434Z</time></trkpt><trkpt lat="45.8057638" lon="11.0181884"><ele>149.0</ele><time>2026-04-25T14:58:01.434Z</time></trkpt><trkpt lat="45.8059028" lon="11.0180707"><ele>149.0</ele><time>2026-04-25T14:58:02.434Z</time></trkpt><trkpt lat="45.8060354" lon="11.0179567"><ele>149.25</ele><time>2026-04-25T14:58:03.435Z</time></trkpt><trkpt lat="45.8061576" lon="11.0178613"><ele>149.5</ele><time>2026-04-25T14:58:04.435Z</time></trkpt><trkpt lat="45.8062775" lon="11.0177676"><ele>149.75</ele><time>2026-04-25T14:58:05.434Z</time></trkpt><trkpt lat="45.8063908" lon="11.0176676"><ele>150.0</ele><time>2026-04-25T14:58:06.434Z</time></trkpt><trkpt lat="45.8065088" lon="11.0175539"><ele>149.66666666666666</ele><time>2026-04-25T14:58:07.435Z</time></trkpt><trkpt lat="45.8066321" lon="11.0174371"><ele>149.33333333333331</ele><time>2026-04-25T14:58:08.434Z</time></trkpt><trkpt lat="45.8067641" lon="11.0173094"><ele>149.0</ele><time>2026-04-25T14:58:09.434Z</time></trkpt><trkpt lat="45.8069189" lon="11.0171709"><ele>149.0</ele><time>2026-04-25T14:58:10.435Z</time></trkpt><trkpt lat="45.8070814" lon="11.0170247"><ele>149.0</ele><time>2026-04-25T14:58:11.434Z</time></trkpt><trkpt lat="45.807236" lon="11.0168757"><ele>149.0</ele><time>2026-04-25T14:58:12.435Z</time></trkpt><trkpt lat="45.8073833" lon="11.016762"><ele>149.0</ele><time>2026-04-25T14:58:13.434Z</time></trkpt><trkpt lat="45.8075143" lon="11.0166682"><ele>149.0</ele><time>2026-04-25T14:58:14.435Z</time></trkpt><trkpt lat="45.8076372" lon="11.0165777"><ele>149.0</ele><time>2026-04-25T14:58:15.435Z</time></trkpt><trkpt lat="45.8077525" lon="11.0164847"><ele>149.0</ele><time>2026-04-25T14:58:16.435Z</time></trkpt><trkpt lat="45.8078654" lon="11.0163852"><ele>149.25</ele><time>2026-04-25T14:58:17.434Z</time></trkpt><trkpt lat="45.8079728" lon="11.0162856"><ele>149.5</ele><time>2026-04-25T14:58:18.434Z</time></trkpt><trkpt lat="45.8080675" lon="11.0161834"><ele>149.75</ele><time>2026-04-25T14:58:19.434Z</time></trkpt><trkpt lat="45.8081588" lon="11.0160861"><ele>150.0</ele><time>2026-04-25T14:58:20.435Z</time></trkpt><trkpt lat="45.8082449" lon="11.0159987"><ele>150.0</ele><time>2026-04-25T14:58:21.434Z</time></trkpt><trkpt lat="45.8083277" lon="11.0159201"><ele>150.0</ele><time>2026-04-25T14:58:22.434Z</time></trkpt><trkpt lat="45.8084072" lon="11.0158443"><ele>150.0</ele><time>2026-04-25T14:58:23.434Z</time></trkpt><trkpt lat="45.808474" lon="11.015778"><ele>150.0</ele><time>2026-04-25T14:58:24.435Z</time></trkpt><trkpt lat="45.8085313" lon="11.0157217"><ele>150.0</ele><time>2026-04-25T14:58:25.434Z</time></trkpt><trkpt lat="45.8086041" lon="11.0156362"><ele>150.0</ele><time>2026-04-25T14:58:27.434Z</time></trkpt><trkpt lat="45.8086548" lon="11.0155686"><ele>150.0</ele><time>2026-04-25T14:58:57.435Z</time></trkpt><trkpt lat="45.8087486" lon="11.0154547"><ele>150.0</ele><time>2026-04-25T14:58:58.435Z</time></trkpt><trkpt lat="45.8088697" lon="11.0153225"><ele>150.0</ele><time>2026-04-25T14:58:59.435Z</time></trkpt><trkpt lat="45.8089932" lon="11.0152027"><ele>150.0</ele><time>2026-04-25T14:59:00.434Z</time></trkpt><trkpt lat="45.8091251" lon="11.0150796"><ele>150.33333333333334</ele><time>2026-04-25T14:59:01.434Z</time></trkpt><trkpt lat="45.8092614" lon="11.0149628"><ele>150.66666666666669</ele><time>2026-04-25T14:59:02.436Z</time></trkpt><trkpt lat="45.8093986" lon="11.0148343"><ele>151.0</ele><time>2026-04-25T14:59:03.435Z</time></trkpt><trkpt lat="45.8095386" lon="11.0147029"><ele>151.0</ele><time>2026-04-25T14:59:04.435Z</time></trkpt><trkpt lat="45.8096804" lon="11.0145723"><ele>151.0</ele><time>2026-04-25T14:59:05.436Z</time></trkpt><trkpt lat="45.8098295" lon="11.0144421"><ele>151.0</ele><time>2026-04-25T14:59:06.435Z</time></trkpt><trkpt lat="45.8099832" lon="11.0143208"><ele>151.0</ele><time>2026-04-25T14:59:07.436Z</time></trkpt><trkpt lat="45.8101373" lon="11.0141991"><ele>151.0</ele><time>2026-04-25T14:59:08.436Z</time></trkpt><trkpt lat="45.8102937" lon="11.0140773"><ele>151.0</ele><time>2026-04-25T14:59:09.435Z</time></trkpt><trkpt lat="45.8104541" lon="11.0139621"><ele>151.33333333333334</ele><time>2026-04-25T14:59:10.436Z</time></trkpt><trkpt lat="45.8106201" lon="11.0138581"><ele>151.66666666666666</ele><time>2026-04-25T14:59:11.435Z</time></trkpt><trkpt lat="45.8107976" lon="11.0137745"><ele>152.0</ele><time>2026-04-25T14:59:12.436Z</time></trkpt><trkpt lat="45.8109921" lon="11.013712"><ele>152.0</ele><time>2026-04-25T14:59:13.435Z</time></trkpt><trkpt lat="45.8111885" lon="11.013641"><ele>152.0</ele><time>2026-04-25T14:59:14.435Z</time></trkpt><trkpt lat="45.8113869" lon="11.0135633"><ele>152.0</ele><time>2026-04-25T14:59:15.435Z</time></trkpt><trkpt lat="45.8115775" lon="11.0134726"><ele>152.0</ele><time>2026-04-25T14:59:16.435Z</time></trkpt><trkpt lat="45.8117682" lon="11.0133835"><ele>152.0</ele><time>2026-04-25T14:59:17.435Z</time></trkpt><trkpt lat="45.8119513" lon="11.0132941"><ele>152.0</ele><time>2026-04-25T14:59:18.435Z</time></trkpt><trkpt lat="45.8121392" lon="11.0132177"><ele>152.33333333333331</ele><time>2026-04-25T14:59:19.435Z</time></trkpt><trkpt lat="45.8123366" lon="11.013153"><ele>152.66666666666666</ele><time>2026-04-25T14:59:20.435Z</time></trkpt><trkpt lat="45.8125521" lon="11.0130811"><ele>153.0</ele><time>2026-04-25T14:59:21.435Z</time></trkpt><trkpt lat="45.8127698" lon="11.0130069"><ele>154.5</ele><time>2026-04-25T14:59:22.435Z</time></trkpt><trkpt lat="45.8129939" lon="11.0129277"><ele>156.0</ele><time>2026-04-25T14:59:23.435Z</time></trkpt><trkpt lat="45.8132254" lon="11.0128561"><ele>156.0</ele><time>2026-04-25T14:59:24.435Z</time></trkpt><trkpt lat="45.8134503" lon="11.0127852"><ele>156.0</ele><time>2026-04-25T14:59:25.437Z</time></trkpt><trkpt lat="45.8136803" lon="11.0127103"><ele>158.5</ele><time>2026-04-25T14:59:26.436Z</time></trkpt><trkpt lat="45.8139131" lon="11.0126336"><ele>161.0</ele><time>2026-04-25T14:59:27.435Z</time></trkpt><trkpt lat="45.8141491" lon="11.0125506"><ele>156.0</ele><time>2026-04-25T14:59:28.435Z</time></trkpt><trkpt lat="45.8143828" lon="11.0124681"><ele>151.0</ele><time>2026-04-25T14:59:29.435Z</time></trkpt><trkpt lat="45.8146156" lon="11.0123896"><ele>151.0</ele><time>2026-04-25T14:59:30.435Z</time></trkpt><trkpt lat="45.8148483" lon="11.012318"><ele>151.0</ele><time>2026-04-25T14:59:31.435Z</time></trkpt><trkpt lat="45.8150795" lon="11.0122441"><ele>151.0</ele><time>2026-04-25T14:59:32.435Z</time></trkpt><trkpt lat="45.8153119" lon="11.0121729"><ele>151.0</ele><time>2026-04-25T14:59:33.436Z</time></trkpt><trkpt lat="45.815549" lon="11.0121063"><ele>151.0</ele><time>2026-04-25T14:59:34.436Z</time></trkpt><trkpt lat="45.8157841" lon="11.0120392"><ele>151.0</ele><time>2026-04-25T14:59:35.435Z</time></trkpt><trkpt lat="45.8160215" lon="11.0119742"><ele>153.0</ele><time>2026-04-25T14:59:36.436Z</time></trkpt><trkpt lat="45.8162582" lon="11.0119039"><ele>155.0</ele><time>2026-04-25T14:59:37.436Z</time></trkpt><trkpt lat="45.8164935" lon="11.0118321"><ele>155.0</ele><time>2026-04-25T14:59:38.435Z</time></trkpt><trkpt lat="45.816729" lon="11.0117662"><ele>155.0</ele><time>2026-04-25T14:59:39.436Z</time></trkpt><trkpt lat="45.8169686" lon="11.0117072"><ele>153.5</ele><time>2026-04-25T14:59:40.436Z</time></trkpt><trkpt lat="45.8172033" lon="11.011641"><ele>152.0</ele><time>2026-04-25T14:59:41.435Z</time></trkpt><trkpt lat="45.8174371" lon="11.011564"><ele>153.0</ele><time>2026-04-25T14:59:42.435Z</time></trkpt><trkpt lat="45.8176691" lon="11.0114789"><ele>154.0</ele><time>2026-04-25T14:59:43.435Z</time></trkpt><trkpt lat="45.8179017" lon="11.0113897"><ele>154.0</ele><time>2026-04-25T14:59:44.435Z</time></trkpt><trkpt lat="45.8181345" lon="11.0113007"><ele>154.0</ele><time>2026-04-25T14:59:45.437Z</time></trkpt><trkpt lat="45.8183695" lon="11.0112204"><ele>154.0</ele><time>2026-04-25T14:59:46.436Z</time></trkpt><trkpt lat="45.8186086" lon="11.0111517"><ele>154.0</ele><time>2026-04-25T14:59:47.437Z</time></trkpt><trkpt lat="45.8188534" lon="11.0110875"><ele>154.0</ele><time>2026-04-25T14:59:48.437Z</time></trkpt><trkpt lat="45.819105" lon="11.0110226"><ele>154.0</ele><time>2026-04-25T14:59:49.437Z</time></trkpt><trkpt lat="45.8193632" lon="11.0109623"><ele>156.0</ele><time>2026-04-25T14:59:50.436Z</time></trkpt><trkpt lat="45.819636" lon="11.0109098"><ele>158.0</ele><time>2026-04-25T14:59:51.436Z</time></trkpt><trkpt lat="45.8199213" lon="11.0108694"><ele>160.0</ele><time>2026-04-25T14:59:52.436Z</time></trkpt><trkpt lat="45.8202122" lon="11.0108404"><ele>162.0</ele><time>2026-04-25T14:59:53.436Z</time></trkpt><trkpt lat="45.8204981" lon="11.0108138"><ele>157.0</ele><time>2026-04-25T14:59:54.435Z</time></trkpt><trkpt lat="45.8207775" lon="11.0107864"><ele>152.0</ele><time>2026-04-25T14:59:55.436Z</time></trkpt><trkpt lat="45.8210563" lon="11.0107598"><ele>152.0</ele><time>2026-04-25T14:59:56.436Z</time></trkpt><trkpt lat="45.8213379" lon="11.0107332"><ele>152.0</ele><time>2026-04-25T14:59:57.436Z</time></trkpt><trkpt lat="45.8216194" lon="11.0107074"><ele>152.5</ele><time>2026-04-25T14:59:58.436Z</time></trkpt><trkpt lat="45.8218989" lon="11.0106836"><ele>153.0</ele><time>2026-04-25T14:59:59.437Z</time></trkpt><trkpt lat="45.8221779" lon="11.0106577"><ele>153.0</ele><time>2026-04-25T15:00:00.436Z</time></trkpt><trkpt lat="45.822454" lon="11.0106332"><ele>153.0</ele><time>2026-04-25T15:00:01.436Z</time></trkpt><trkpt lat="45.8227291" lon="11.0106148"><ele>155.0</ele><time>2026-04-25T15:00:02.435Z</time></trkpt><trkpt lat="45.8229993" lon="11.0106029"><ele>157.0</ele><time>2026-04-25T15:00:03.436Z</time></trkpt><trkpt lat="45.8232667" lon="11.0106052"><ele>157.0</ele><time>2026-04-25T15:00:04.437Z</time></trkpt><trkpt lat="45.8235464" lon="11.0106426"><ele>157.0</ele><time>2026-04-25T15:00:05.436Z</time></trkpt><trkpt lat="45.8238292" lon="11.0107022"><ele>157.0</ele><time>2026-04-25T15:00:06.436Z</time></trkpt><trkpt lat="45.824098" lon="11.010757"><ele>157.0</ele><time>2026-04-25T15:00:07.436Z</time></trkpt><trkpt lat="45.8243707" lon="11.0108001"><ele>157.5</ele><time>2026-04-25T15:00:08.436Z</time></trkpt><trkpt lat="45.8246603" lon="11.0108475"><ele>158.0</ele><time>2026-04-25T15:00:09.437Z</time></trkpt><trkpt lat="45.8249452" lon="11.0108888"><ele>160.5</ele><time>2026-04-25T15:00:10.436Z</time></trkpt><trkpt lat="45.8252242" lon="11.0109226"><ele>163.0</ele><time>2026-04-25T15:00:11.436Z</time></trkpt><trkpt lat="45.8255035" lon="11.0109553"><ele>163.0</ele><time>2026-04-25T15:00:12.436Z</time></trkpt><trkpt lat="45.8257796" lon="11.0109931"><ele>163.0</ele><time>2026-04-25T15:00:13.436Z</time></trkpt><trkpt lat="45.8260552" lon="11.0110306"><ele>162.5</ele><time>2026-04-25T15:00:14.436Z</time></trkpt><trkpt lat="45.8263325" lon="11.0110654"><ele>162.0</ele><time>2026-04-25T15:00:15.436Z</time></trkpt><trkpt lat="45.826607" lon="11.0111018"><ele>161.5</ele><time>2026-04-25T15:00:16.436Z</time></trkpt><trkpt lat="45.8268823" lon="11.0111395"><ele>161.0</ele><time>2026-04-25T15:00:17.437Z</time></trkpt><trkpt lat="45.8271602" lon="11.0111779"><ele>161.0</ele><time>2026-04-25T15:00:18.436Z</time></trkpt><trkpt lat="45.8274367" lon="11.0112167"><ele>161.0</ele><time>2026-04-25T15:00:19.437Z</time></trkpt><trkpt lat="45.8277114" lon="11.0112546"><ele>163.0</ele><time>2026-04-25T15:00:20.437Z</time></trkpt><trkpt lat="45.8279842" lon="11.0112939"><ele>165.0</ele><time>2026-04-25T15:00:21.436Z</time></trkpt><trkpt lat="45.8282573" lon="11.0113287"><ele>166.0</ele><time>2026-04-25T15:00:22.437Z</time></trkpt><trkpt lat="45.8285261" lon="11.0113623"><ele>167.0</ele><time>2026-04-25T15:00:23.436Z</time></trkpt><trkpt lat="45.8287922" lon="11.0113996"><ele>167.0</ele><time>2026-04-25T15:00:24.436Z</time></trkpt><trkpt lat="45.8290576" lon="11.0114399"><ele>167.0</ele><time>2026-04-25T15:00:25.436Z</time></trkpt><trkpt lat="45.8293088" lon="11.0114758"><ele>168.5</ele><time>2026-04-25T15:00:26.436Z</time></trkpt><trkpt lat="45.8295457" lon="11.0114984"><ele>170.0</ele><time>2026-04-25T15:00:27.437Z</time></trkpt><trkpt lat="45.8297776" lon="11.0115008"><ele>170.0</ele><time>2026-04-25T15:00:28.436Z</time></trkpt><trkpt lat="45.8300145" lon="11.0114767"><ele>170.0</ele><time>2026-04-25T15:00:29.436Z</time></trkpt><trkpt lat="45.830268" lon="11.0114092"><ele>170.0</ele><time>2026-04-25T15:00:30.437Z</time></trkpt><trkpt lat="45.8305404" lon="11.0112869"><ele>170.0</ele><time>2026-04-25T15:00:31.436Z</time></trkpt><trkpt lat="45.8308103" lon="11.0111352"><ele>169.5</ele><time>2026-04-25T15:00:32.437Z</time></trkpt><trkpt lat="45.8310676" lon="11.0109609"><ele>169.0</ele><time>2026-04-25T15:00:33.436Z</time></trkpt><trkpt lat="45.8313216" lon="11.0108051"><ele>169.0</ele><time>2026-04-25T15:00:34.437Z</time></trkpt><trkpt lat="45.8315739" lon="11.010664"><ele>169.0</ele><time>2026-04-25T15:00:35.436Z</time></trkpt><trkpt lat="45.8318213" lon="11.010542"><ele>165.5</ele><time>2026-04-25T15:00:36.436Z</time></trkpt><trkpt lat="45.8320695" lon="11.0104441"><ele>162.0</ele><time>2026-04-25T15:00:37.436Z</time></trkpt><trkpt lat="45.8323182" lon="11.0103886"><ele>162.0</ele><time>2026-04-25T15:00:38.436Z</time></trkpt><trkpt lat="45.8325723" lon="11.010371"><ele>162.0</ele><time>2026-04-25T15:00:39.437Z</time></trkpt><trkpt lat="45.832822" lon="11.0103783"><ele>162.5</ele><time>2026-04-25T15:00:40.436Z</time></trkpt><trkpt lat="45.8330589" lon="11.0103836"><ele>163.0</ele><time>2026-04-25T15:00:41.436Z</time></trkpt><trkpt lat="45.8332904" lon="11.0103731"><ele>163.5</ele><time>2026-04-25T15:00:42.436Z</time></trkpt><trkpt lat="45.8335272" lon="11.0103531"><ele>164.0</ele><time>2026-04-25T15:00:43.436Z</time></trkpt><trkpt lat="45.8337638" lon="11.0103428"><ele>164.0</ele><time>2026-04-25T15:00:44.436Z</time></trkpt><trkpt lat="45.8340037" lon="11.0103502"><ele>164.0</ele><time>2026-04-25T15:00:45.436Z</time></trkpt><trkpt lat="45.8342491" lon="11.0103756"><ele>163.5</ele><time>2026-04-25T15:00:46.436Z</time></trkpt><trkpt lat="45.834501" lon="11.010426"><ele>163.0</ele><time>2026-04-25T15:00:47.437Z</time></trkpt><trkpt lat="45.8347582" lon="11.0104825"><ele>163.0</ele><time>2026-04-25T15:00:48.438Z</time></trkpt><trkpt lat="45.8350185" lon="11.0105372"><ele>163.0</ele><time>2026-04-25T15:00:49.437Z</time></trkpt><trkpt lat="45.8352791" lon="11.0105852"><ele>163.0</ele><time>2026-04-25T15:00:50.436Z</time></trkpt><trkpt lat="45.8355387" lon="11.0106308"><ele>163.0</ele><time>2026-04-25T15:00:51.438Z</time></trkpt><trkpt lat="45.8357986" lon="11.0106783"><ele>162.0</ele><time>2026-04-25T15:00:52.438Z</time></trkpt><trkpt lat="45.8360543" lon="11.010724"><ele>161.0</ele><time>2026-04-25T15:00:53.438Z</time></trkpt><trkpt lat="45.8363065" lon="11.010761"><ele>161.0</ele><time>2026-04-25T15:00:54.437Z</time></trkpt><trkpt lat="45.8365536" lon="11.0107869"><ele>161.0</ele><time>2026-04-25T15:00:55.436Z</time></trkpt><trkpt lat="45.8368003" lon="11.0108038"><ele>159.5</ele><time>2026-04-25T15:00:56.437Z</time></trkpt><trkpt lat="45.8370512" lon="11.0108153"><ele>158.0</ele><time>2026-04-25T15:00:57.437Z</time></trkpt><trkpt lat="45.837302" lon="11.0108221"><ele>161.5</ele><time>2026-04-25T15:00:58.436Z</time></trkpt><trkpt lat="45.8375538" lon="11.0108302"><ele>165.0</ele><time>2026-04-25T15:00:59.436Z</time></trkpt><trkpt lat="45.8378029" lon="11.010842"><ele>166.0</ele><time>2026-04-25T15:01:00.436Z</time></trkpt><trkpt lat="45.8380452" lon="11.0108544"><ele>167.0</ele><time>2026-04-25T15:01:01.437Z</time></trkpt><trkpt lat="45.8382765" lon="11.0108664"><ele>167.5</ele><time>2026-04-25T15:01:02.436Z</time></trkpt><trkpt lat="45.8385071" lon="11.010879"><ele>168.0</ele><time>2026-04-25T15:01:03.436Z</time></trkpt><trkpt lat="45.8387462" lon="11.0109017"><ele>168.0</ele><time>2026-04-25T15:01:04.437Z</time></trkpt><trkpt lat="45.8389877" lon="11.0109397"><ele>168.0</ele><time>2026-04-25T15:01:05.438Z</time></trkpt><trkpt lat="45.8392389" lon="11.011002"><ele>168.0</ele><time>2026-04-25T15:01:06.437Z</time></trkpt><trkpt lat="45.8394966" lon="11.0111056"><ele>168.0</ele><time>2026-04-25T15:01:07.437Z</time></trkpt><trkpt lat="45.83976" lon="11.0112388"><ele>168.0</ele><time>2026-04-25T15:01:08.437Z</time></trkpt><trkpt lat="45.8400209" lon="11.0113659"><ele>168.0</ele><time>2026-04-25T15:01:09.437Z</time></trkpt><trkpt lat="45.840285" lon="11.011489"><ele>171.0</ele><time>2026-04-25T15:01:10.437Z</time></trkpt><trkpt lat="45.8405381" lon="11.0116053"><ele>174.0</ele><time>2026-04-25T15:01:11.438Z</time></trkpt><trkpt lat="45.8407938" lon="11.0117236"><ele>176.0</ele><time>2026-04-25T15:01:12.438Z</time></trkpt><trkpt lat="45.8410551" lon="11.0118391"><ele>178.0</ele><time>2026-04-25T15:01:13.437Z</time></trkpt><trkpt lat="45.8413206" lon="11.0119505"><ele>178.0</ele><time>2026-04-25T15:01:14.438Z</time></trkpt><trkpt lat="45.8415719" lon="11.0120591"><ele>178.0</ele><time>2026-04-25T15:01:15.437Z</time></trkpt><trkpt lat="45.8418266" lon="11.0121624"><ele>179.5</ele><time>2026-04-25T15:01:16.438Z</time></trkpt><trkpt lat="45.8420863" lon="11.0122431"><ele>181.0</ele><time>2026-04-25T15:01:17.438Z</time></trkpt><trkpt lat="45.8423531" lon="11.0122956"><ele>181.0</ele><time>2026-04-25T15:01:18.438Z</time></trkpt><trkpt lat="45.8426226" lon="11.0123204"><ele>181.0</ele><time>2026-04-25T15:01:19.437Z</time></trkpt><trkpt lat="45.842894" lon="11.0123291"><ele>180.5</ele><time>2026-04-25T15:01:20.437Z</time></trkpt><trkpt lat="45.8431619" lon="11.01234"><ele>180.0</ele><time>2026-04-25T15:01:21.437Z</time></trkpt><trkpt lat="45.8434247" lon="11.0123595"><ele>176.5</ele><time>2026-04-25T15:01:22.438Z</time></trkpt><trkpt lat="45.8436878" lon="11.0123806"><ele>173.0</ele><time>2026-04-25T15:01:23.437Z</time></trkpt><trkpt lat="45.8439448" lon="11.0124039"><ele>173.0</ele><time>2026-04-25T15:01:24.437Z</time></trkpt><trkpt lat="45.8441942" lon="11.0124281"><ele>173.0</ele><time>2026-04-25T15:01:25.437Z</time></trkpt><trkpt lat="45.8444336" lon="11.0124497"><ele>169.0</ele><time>2026-04-25T15:01:26.437Z</time></trkpt><trkpt lat="45.8446645" lon="11.0124692"><ele>165.0</ele><time>2026-04-25T15:01:27.438Z</time></trkpt><trkpt lat="45.8448967" lon="11.0124884"><ele>172.0</ele><time>2026-04-25T15:01:28.437Z</time></trkpt><trkpt lat="45.8451377" lon="11.0125138"><ele>179.0</ele><time>2026-04-25T15:01:29.437Z</time></trkpt><trkpt lat="45.8453971" lon="11.0125468"><ele>179.0</ele><time>2026-04-25T15:01:30.437Z</time></trkpt><trkpt lat="45.8456654" lon="11.0125999"><ele>179.0</ele><time>2026-04-25T15:01:31.437Z</time></trkpt><trkpt lat="45.8459342" lon="11.0126412"><ele>175.5</ele><time>2026-04-25T15:01:32.438Z</time></trkpt><trkpt lat="45.8462071" lon="11.0126732"><ele>172.0</ele><time>2026-04-25T15:01:33.437Z</time></trkpt><trkpt lat="45.846477" lon="11.0127002"><ele>172.0</ele><time>2026-04-25T15:01:34.438Z</time></trkpt><trkpt lat="45.8467366" lon="11.0127228"><ele>172.0</ele><time>2026-04-25T15:01:35.437Z</time></trkpt><trkpt lat="45.8470001" lon="11.0127507"><ele>173.0</ele><time>2026-04-25T15:01:36.437Z</time></trkpt><trkpt lat="45.847263" lon="11.0127812"><ele>174.0</ele><time>2026-04-25T15:01:37.437Z</time></trkpt><trkpt lat="45.8475223" lon="11.012813"><ele>173.0</ele><time>2026-04-25T15:01:38.437Z</time></trkpt><trkpt lat="45.8477775" lon="11.0128449"><ele>172.0</ele><time>2026-04-25T15:01:39.437Z</time></trkpt><trkpt lat="45.8480261" lon="11.0128768"><ele>172.0</ele><time>2026-04-25T15:01:40.437Z</time></trkpt><trkpt lat="45.8482686" lon="11.012909"><ele>172.0</ele><time>2026-04-25T15:01:41.438Z</time></trkpt><trkpt lat="45.8485039" lon="11.0129383"><ele>173.0</ele><time>2026-04-25T15:01:42.438Z</time></trkpt><trkpt lat="45.8487335" lon="11.0129636"><ele>174.0</ele><time>2026-04-25T15:01:43.437Z</time></trkpt><trkpt lat="45.848959" lon="11.0129847"><ele>174.0</ele><time>2026-04-25T15:01:44.438Z</time></trkpt><trkpt lat="45.8491819" lon="11.0130067"><ele>174.0</ele><time>2026-04-25T15:01:45.437Z</time></trkpt><trkpt lat="45.8493994" lon="11.0130271"><ele>174.0</ele><time>2026-04-25T15:01:46.437Z</time></trkpt><trkpt lat="45.8496081" lon="11.0130483"><ele>174.33333333333334</ele><time>2026-04-25T15:01:47.438Z</time></trkpt><trkpt lat="45.8498041" lon="11.0130703"><ele>174.66666666666669</ele><time>2026-04-25T15:01:48.438Z</time></trkpt><trkpt lat="45.8499813" lon="11.0130915"><ele>175.0</ele><time>2026-04-25T15:01:49.438Z</time></trkpt><trkpt lat="45.8501337" lon="11.0131139"><ele>175.2</ele><time>2026-04-25T15:01:50.439Z</time></trkpt><trkpt lat="45.8502645" lon="11.0131453"><ele>175.4</ele><time>2026-04-25T15:01:51.437Z</time></trkpt><trkpt lat="45.8503693" lon="11.0131874"><ele>175.60000000000002</ele><time>2026-04-25T15:01:52.438Z</time></trkpt><trkpt lat="45.8504372" lon="11.0132331"><ele>175.8</ele><time>2026-04-25T15:01:53.438Z</time></trkpt><trkpt lat="45.8505164" lon="11.0132885"><ele>176.0</ele><time>2026-04-25T15:01:54.437Z</time></trkpt><trkpt lat="45.850622" lon="11.0133243"><ele>176.0</ele><time>2026-04-25T15:01:55.439Z</time></trkpt><trkpt lat="45.8507321" lon="11.0133174"><ele>176.0</ele><time>2026-04-25T15:01:56.439Z</time></trkpt><trkpt lat="45.8508431" lon="11.0132544"><ele>176.0</ele><time>2026-04-25T15:01:57.438Z</time></trkpt><trkpt lat="45.850948" lon="11.0131331"><ele>176.0</ele><time>2026-04-25T15:01:58.437Z</time></trkpt><trkpt lat="45.8510737" lon="11.0130543"><ele>176.0</ele><time>2026-04-25T15:01:59.437Z</time></trkpt><trkpt lat="45.851249" lon="11.0130468"><ele>176.0</ele><time>2026-04-25T15:02:00.438Z</time></trkpt><trkpt lat="45.8514368" lon="11.0130753"><ele>176.0</ele><time>2026-04-25T15:02:01.437Z</time></trkpt><trkpt lat="45.8516228" lon="11.0131009"><ele>176.66666666666666</ele><time>2026-04-25T15:02:02.438Z</time></trkpt><trkpt lat="45.8517971" lon="11.0131082"><ele>177.33333333333334</ele><time>2026-04-25T15:02:03.438Z</time></trkpt><trkpt lat="45.851984" lon="11.01313"><ele>178.0</ele><time>2026-04-25T15:02:04.439Z</time></trkpt><trkpt lat="45.8521849" lon="11.013183"><ele>178.0</ele><time>2026-04-25T15:02:05.438Z</time></trkpt><trkpt lat="45.852378" lon="11.0132881"><ele>178.0</ele><time>2026-04-25T15:02:06.438Z</time></trkpt><trkpt lat="45.8525588" lon="11.0134249"><ele>178.0</ele><time>2026-04-25T15:02:07.438Z</time></trkpt><trkpt lat="45.8527282" lon="11.0135862"><ele>177.33333333333334</ele><time>2026-04-25T15:02:08.44Z</time></trkpt><trkpt lat="45.8528911" lon="11.0137769"><ele>176.66666666666666</ele><time>2026-04-25T15:02:09.438Z</time></trkpt><trkpt lat="45.8530466" lon="11.0139967"><ele>176.0</ele><time>2026-04-25T15:02:10.438Z</time></trkpt><trkpt lat="45.8531948" lon="11.0142294"><ele>176.0</ele><time>2026-04-25T15:02:11.439Z</time></trkpt><trkpt lat="45.8533412" lon="11.0144664"><ele>176.0</ele><time>2026-04-25T15:02:12.439Z</time></trkpt><trkpt lat="45.8534854" lon="11.014702"><ele>176.0</ele><time>2026-04-25T15:02:13.438Z</time></trkpt><trkpt lat="45.85364" lon="11.0149571"><ele>174.5</ele><time>2026-04-25T15:02:14.439Z</time></trkpt><trkpt lat="45.8537967" lon="11.0152247"><ele>173.0</ele><time>2026-04-25T15:02:15.438Z</time></trkpt><trkpt lat="45.8539469" lon="11.0154967"><ele>173.0</ele><time>2026-04-25T15:02:16.438Z</time></trkpt><trkpt lat="45.8540863" lon="11.0157861"><ele>173.0</ele><time>2026-04-25T15:02:17.438Z</time></trkpt><trkpt lat="45.8542119" lon="11.0160834"><ele>174.0</ele><time>2026-04-25T15:02:18.439Z</time></trkpt><trkpt lat="45.854309" lon="11.0163691"><ele>175.0</ele><time>2026-04-25T15:02:19.438Z</time></trkpt><trkpt lat="45.8543852" lon="11.0166357"><ele>176.0</ele><time>2026-04-25T15:02:20.439Z</time></trkpt><trkpt lat="45.854467" lon="11.0168982"><ele>176.0</ele><time>2026-04-25T15:02:21.438Z</time></trkpt><trkpt lat="45.8545556" lon="11.017167"><ele>176.0</ele><time>2026-04-25T15:02:22.438Z</time></trkpt><trkpt lat="45.8546522" lon="11.0174436"><ele>176.0</ele><time>2026-04-25T15:02:23.439Z</time></trkpt><trkpt lat="45.8547555" lon="11.0177286"><ele>175.0</ele><time>2026-04-25T15:02:24.438Z</time></trkpt><trkpt lat="45.8548669" lon="11.0180184"><ele>174.0</ele><time>2026-04-25T15:02:25.438Z</time></trkpt><trkpt lat="45.8549867" lon="11.0183078"><ele>173.0</ele><time>2026-04-25T15:02:26.439Z</time></trkpt><trkpt lat="45.8551264" lon="11.0185953"><ele>172.0</ele><time>2026-04-25T15:02:27.438Z</time></trkpt><trkpt lat="45.8552835" lon="11.0188544"><ele>172.0</ele><time>2026-04-25T15:02:28.438Z</time></trkpt><trkpt lat="45.8554539" lon="11.019089"><ele>172.0</ele><time>2026-04-25T15:02:29.438Z</time></trkpt><trkpt lat="45.8556368" lon="11.0192966"><ele>173.0</ele><time>2026-04-25T15:02:30.438Z</time></trkpt><trkpt lat="45.855822" lon="11.0194763"><ele>174.0</ele><time>2026-04-25T15:02:31.438Z</time></trkpt><trkpt lat="45.8560063" lon="11.0196292"><ele>175.0</ele><time>2026-04-25T15:02:32.438Z</time></trkpt><trkpt lat="45.8561843" lon="11.0197559"><ele>175.0</ele><time>2026-04-25T15:02:33.439Z</time></trkpt><trkpt lat="45.8563608" lon="11.019856"><ele>175.0</ele><time>2026-04-25T15:02:34.439Z</time></trkpt><trkpt lat="45.8565445" lon="11.0199304"><ele>175.0</ele><time>2026-04-25T15:02:35.439Z</time></trkpt><trkpt lat="45.8567204" lon="11.0200052"><ele>177.0</ele><time>2026-04-25T15:02:36.438Z</time></trkpt><trkpt lat="45.8568847" lon="11.0200901"><ele>179.0</ele><time>2026-04-25T15:02:37.438Z</time></trkpt><trkpt lat="45.8570436" lon="11.0201822"><ele>181.0</ele><time>2026-04-25T15:02:38.439Z</time></trkpt><trkpt lat="45.8571932" lon="11.0202742"><ele>181.0</ele><time>2026-04-25T15:02:39.439Z</time></trkpt><trkpt lat="45.8573385" lon="11.0203763"><ele>181.0</ele><time>2026-04-25T15:02:40.439Z</time></trkpt><trkpt lat="45.8574832" lon="11.0204952"><ele>181.0</ele><time>2026-04-25T15:02:41.439Z</time></trkpt><trkpt lat="45.857625" lon="11.0206305"><ele>182.33333333333334</ele><time>2026-04-25T15:02:42.439Z</time></trkpt><trkpt lat="45.857766" lon="11.0207752"><ele>183.66666666666666</ele><time>2026-04-25T15:02:43.44Z</time></trkpt><trkpt lat="45.8579023" lon="11.0209301"><ele>185.0</ele><time>2026-04-25T15:02:44.44Z</time></trkpt><trkpt lat="45.8580335" lon="11.0210926"><ele>185.33333333333331</ele><time>2026-04-25T15:02:45.439Z</time></trkpt><trkpt lat="45.8581553" lon="11.0212689"><ele>185.66666666666666</ele><time>2026-04-25T15:02:46.44Z</time></trkpt><trkpt lat="45.8582756" lon="11.0214705"><ele>186.0</ele><time>2026-04-25T15:02:47.44Z</time></trkpt><trkpt lat="45.8584037" lon="11.0217015"><ele>184.0</ele><time>2026-04-25T15:02:48.44Z</time></trkpt><trkpt lat="45.8585447" lon="11.0219618"><ele>182.0</ele><time>2026-04-25T15:02:49.439Z</time></trkpt><trkpt lat="45.8586944" lon="11.0222464"><ele>183.5</ele><time>2026-04-25T15:02:50.44Z</time></trkpt><trkpt lat="45.8588406" lon="11.0225413"><ele>185.0</ele><time>2026-04-25T15:02:51.439Z</time></trkpt><trkpt lat="45.8589875" lon="11.0228294"><ele>185.0</ele><time>2026-04-25T15:02:52.439Z</time></trkpt><trkpt lat="45.859135" lon="11.0231316"><ele>185.0</ele><time>2026-04-25T15:02:53.438Z</time></trkpt><trkpt lat="45.8592847" lon="11.0234318"><ele>180.0</ele><time>2026-04-25T15:02:54.44Z</time></trkpt><trkpt lat="45.8594312" lon="11.0237299"><ele>175.0</ele><time>2026-04-25T15:02:55.438Z</time></trkpt><trkpt lat="45.8595755" lon="11.0240281"><ele>176.0</ele><time>2026-04-25T15:02:56.439Z</time></trkpt><trkpt lat="45.8597162" lon="11.0243209"><ele>177.0</ele><time>2026-04-25T15:02:57.439Z</time></trkpt><trkpt lat="45.8598576" lon="11.0246027"><ele>177.0</ele><time>2026-04-25T15:02:58.439Z</time></trkpt><trkpt lat="45.8600065" lon="11.0248719"><ele>177.0</ele><time>2026-04-25T15:02:59.439Z</time></trkpt><trkpt lat="45.8601638" lon="11.0251352"><ele>175.5</ele><time>2026-04-25T15:03:00.44Z</time></trkpt><trkpt lat="45.8603331" lon="11.0253847"><ele>174.0</ele><time>2026-04-25T15:03:01.439Z</time></trkpt><trkpt lat="45.8605121" lon="11.0256111"><ele>175.66666666666666</ele><time>2026-04-25T15:03:02.44Z</time></trkpt><trkpt lat="45.8606918" lon="11.0258136"><ele>177.33333333333331</ele><time>2026-04-25T15:03:03.439Z</time></trkpt><trkpt lat="45.860872" lon="11.0259961"><ele>179.0</ele><time>2026-04-25T15:03:04.439Z</time></trkpt><trkpt lat="45.8610489" lon="11.0261643"><ele>179.0</ele><time>2026-04-25T15:03:05.439Z</time></trkpt><trkpt lat="45.8612277" lon="11.0263195"><ele>179.0</ele><time>2026-04-25T15:03:06.44Z</time></trkpt><trkpt lat="45.8614048" lon="11.0264592"><ele>179.0</ele><time>2026-04-25T15:03:07.44Z</time></trkpt><trkpt lat="45.8615788" lon="11.0265827"><ele>179.66666666666666</ele><time>2026-04-25T15:03:08.44Z</time></trkpt><trkpt lat="45.8617489" lon="11.0266919"><ele>180.33333333333334</ele><time>2026-04-25T15:03:09.439Z</time></trkpt><trkpt lat="45.8619161" lon="11.026794"><ele>181.0</ele><time>2026-04-25T15:03:10.44Z</time></trkpt><trkpt lat="45.8620763" lon="11.0268903"><ele>179.0</ele><time>2026-04-25T15:03:11.439Z</time></trkpt><trkpt lat="45.8622303" lon="11.0269908"><ele>177.0</ele><time>2026-04-25T15:03:12.44Z</time></trkpt><trkpt lat="45.8623801" lon="11.0270855"><ele>175.0</ele><time>2026-04-25T15:03:13.44Z</time></trkpt><trkpt lat="45.8625168" lon="11.0271804"><ele>175.5</ele><time>2026-04-25T15:03:14.44Z</time></trkpt><trkpt lat="45.8626481" lon="11.0272719"><ele>176.0</ele><time>2026-04-25T15:03:15.44Z</time></trkpt><trkpt lat="45.8627731" lon="11.0273615"><ele>176.5</ele><time>2026-04-25T15:03:16.439Z</time></trkpt><trkpt lat="45.8628891" lon="11.0274473"><ele>177.0</ele><time>2026-04-25T15:03:17.439Z</time></trkpt><trkpt lat="45.8629892" lon="11.0275307"><ele>177.0</ele><time>2026-04-25T15:03:18.439Z</time></trkpt><trkpt lat="45.8630744" lon="11.0276071"><ele>177.0</ele><time>2026-04-25T15:03:19.439Z</time></trkpt><trkpt lat="45.8631285" lon="11.0276689"><ele>177.0</ele><time>2026-04-25T15:03:20.439Z</time></trkpt><trkpt lat="45.8631791" lon="11.0277657"><ele>177.0</ele><time>2026-04-25T15:03:22.439Z</time></trkpt><trkpt lat="45.8632328" lon="11.0278572"><ele>177.0</ele><time>2026-04-25T15:03:23.439Z</time></trkpt><trkpt lat="45.8633105" lon="11.0279399"><ele>177.0</ele><time>2026-04-25T15:03:24.439Z</time></trkpt><trkpt lat="45.8634041" lon="11.0279896"><ele>177.25</ele><time>2026-04-25T15:03:25.439Z</time></trkpt><trkpt lat="45.8635079" lon="11.028029"><ele>177.5</ele><time>2026-04-25T15:03:26.441Z</time></trkpt><trkpt lat="45.8636136" lon="11.0281146"><ele>177.75</ele><time>2026-04-25T15:03:27.439Z</time></trkpt><trkpt lat="45.8637074" lon="11.0282452"><ele>178.0</ele><time>2026-04-25T15:03:28.44Z</time></trkpt><trkpt lat="45.8638047" lon="11.0284057"><ele>178.0</ele><time>2026-04-25T15:03:29.439Z</time></trkpt><trkpt lat="45.8639069" lon="11.0285812"><ele>178.0</ele><time>2026-04-25T15:03:30.439Z</time></trkpt><trkpt lat="45.8640149" lon="11.0287557"><ele>178.0</ele><time>2026-04-25T15:03:31.441Z</time></trkpt><trkpt lat="45.8641255" lon="11.0289192"><ele>178.0</ele><time>2026-04-25T15:03:32.44Z</time></trkpt><trkpt lat="45.86423" lon="11.0290798"><ele>178.0</ele><time>2026-04-25T15:03:33.439Z</time></trkpt><trkpt lat="45.8643341" lon="11.0292247"><ele>178.0</ele><time>2026-04-25T15:03:34.441Z</time></trkpt><trkpt lat="45.8644294" lon="11.0293645"><ele>178.0</ele><time>2026-04-25T15:03:35.44Z</time></trkpt><trkpt lat="45.8645237" lon="11.029503"><ele>177.25</ele><time>2026-04-25T15:03:36.441Z</time></trkpt><trkpt lat="45.8646164" lon="11.0296333"><ele>176.5</ele><time>2026-04-25T15:03:37.44Z</time></trkpt><trkpt lat="45.8647051" lon="11.0297558"><ele>175.75</ele><time>2026-04-25T15:03:38.439Z</time></trkpt><trkpt lat="45.8647876" lon="11.0298643"><ele>175.0</ele><time>2026-04-25T15:03:39.44Z</time></trkpt><trkpt lat="45.8648678" lon="11.029957"><ele>175.25</ele><time>2026-04-25T15:03:40.44Z</time></trkpt><trkpt lat="45.8649527" lon="11.0300453"><ele>175.5</ele><time>2026-04-25T15:03:41.439Z</time></trkpt><trkpt lat="45.8650539" lon="11.0301408"><ele>175.75</ele><time>2026-04-25T15:03:42.44Z</time></trkpt><trkpt lat="45.8651779" lon="11.0302372"><ele>176.0</ele><time>2026-04-25T15:03:43.439Z</time></trkpt><trkpt lat="45.8653357" lon="11.0303059"><ele>176.0</ele><time>2026-04-25T15:03:44.44Z</time></trkpt><trkpt lat="45.8655143" lon="11.0303462"><ele>176.0</ele><time>2026-04-25T15:03:45.44Z</time></trkpt><trkpt lat="45.8656832" lon="11.0303636"><ele>176.0</ele><time>2026-04-25T15:03:46.44Z</time></trkpt><trkpt lat="45.8658482" lon="11.0303866"><ele>176.5</ele><time>2026-04-25T15:03:47.44Z</time></trkpt><trkpt lat="45.866004" lon="11.0304171"><ele>177.0</ele><time>2026-04-25T15:03:48.44Z</time></trkpt><trkpt lat="45.866149" lon="11.0304514"><ele>177.5</ele><time>2026-04-25T15:03:49.439Z</time></trkpt><trkpt lat="45.8662806" lon="11.0304819"><ele>178.0</ele><time>2026-04-25T15:03:50.439Z</time></trkpt><trkpt lat="45.8664081" lon="11.0305138"><ele>178.0</ele><time>2026-04-25T15:03:51.439Z</time></trkpt><trkpt lat="45.8665396" lon="11.0305518"><ele>178.0</ele><time>2026-04-25T15:03:52.44Z</time></trkpt><trkpt lat="45.8666573" lon="11.0306186"><ele>178.0</ele><time>2026-04-25T15:03:53.441Z</time></trkpt><trkpt lat="45.8667761" lon="11.0307088"><ele>178.0</ele><time>2026-04-25T15:03:54.441Z</time></trkpt><trkpt lat="45.8669176" lon="11.0307856"><ele>179.0</ele><time>2026-04-25T15:03:55.44Z</time></trkpt><trkpt lat="45.867074" lon="11.0308618"><ele>180.0</ele><time>2026-04-25T15:03:56.439Z</time></trkpt><trkpt lat="45.8672283" lon="11.0309092"><ele>181.0</ele><time>2026-04-25T15:03:57.441Z</time></trkpt><trkpt lat="45.8673727" lon="11.0309426"><ele>181.0</ele><time>2026-04-25T15:03:58.439Z</time></trkpt><trkpt lat="45.8675086" lon="11.0309781"><ele>181.0</ele><time>2026-04-25T15:03:59.44Z</time></trkpt><trkpt lat="45.8676308" lon="11.0310038"><ele>181.0</ele><time>2026-04-25T15:04:00.44Z</time></trkpt><trkpt lat="45.8677631" lon="11.031026"><ele>181.0</ele><time>2026-04-25T15:04:01.44Z</time></trkpt><trkpt lat="45.8679127" lon="11.0310499"><ele>181.25</ele><time>2026-04-25T15:04:02.44Z</time></trkpt><trkpt lat="45.8680558" lon="11.0310773"><ele>181.5</ele><time>2026-04-25T15:04:03.44Z</time></trkpt><trkpt lat="45.8681939" lon="11.0311096"><ele>181.75</ele><time>2026-04-25T15:04:04.441Z</time></trkpt><trkpt lat="45.8683278" lon="11.031145"><ele>182.0</ele><time>2026-04-25T15:04:05.44Z</time></trkpt><trkpt lat="45.8684542" lon="11.0311759"><ele>182.25</ele><time>2026-04-25T15:04:06.44Z</time></trkpt><trkpt lat="45.8685863" lon="11.0311918"><ele>182.5</ele><time>2026-04-25T15:04:07.44Z</time></trkpt><trkpt lat="45.8687153" lon="11.0311981"><ele>182.75</ele><time>2026-04-25T15:04:08.44Z</time></trkpt><trkpt lat="45.8688454" lon="11.0311853"><ele>183.0</ele><time>2026-04-25T15:04:09.44Z</time></trkpt><trkpt lat="45.8689663" lon="11.031167"><ele>183.0</ele><time>2026-04-25T15:04:10.441Z</time></trkpt><trkpt lat="45.8690824" lon="11.0311496"><ele>183.0</ele><time>2026-04-25T15:04:11.44Z</time></trkpt><trkpt lat="45.8691941" lon="11.0311384"><ele>183.0</ele><time>2026-04-25T15:04:12.441Z</time></trkpt><trkpt lat="45.8692997" lon="11.0311239"><ele>183.0</ele><time>2026-04-25T15:04:13.441Z</time></trkpt><trkpt lat="45.8694119" lon="11.0311136"><ele>183.0</ele><time>2026-04-25T15:04:14.44Z</time></trkpt><trkpt lat="45.8695268" lon="11.0311038"><ele>182.75</ele><time>2026-04-25T15:04:15.44Z</time></trkpt><trkpt lat="45.8696424" lon="11.0310942"><ele>182.5</ele><time>2026-04-25T15:04:16.44Z</time></trkpt><trkpt lat="45.8697597" lon="11.0310947"><ele>182.25</ele><time>2026-04-25T15:04:17.441Z</time></trkpt><trkpt lat="45.8698721" lon="11.0310989"><ele>182.0</ele><time>2026-04-25T15:04:18.44Z</time></trkpt><trkpt lat="45.8699777" lon="11.0311024"><ele>182.0</ele><time>2026-04-25T15:04:19.44Z</time></trkpt><trkpt lat="45.8700836" lon="11.0311147"><ele>182.0</ele><time>2026-04-25T15:04:20.44Z</time></trkpt><trkpt lat="45.8701749" lon="11.0311193"><ele>182.0</ele><time>2026-04-25T15:04:21.44Z</time></trkpt><trkpt lat="45.870262" lon="11.0311213"><ele>182.0</ele><time>2026-04-25T15:04:22.441Z</time></trkpt><trkpt lat="45.8703483" lon="11.0311199"><ele>182.0</ele><time>2026-04-25T15:04:23.44Z</time></trkpt><trkpt lat="45.8704438" lon="11.031121"><ele>182.0</ele><time>2026-04-25T15:04:24.441Z</time></trkpt><trkpt lat="45.8705535" lon="11.0311241"><ele>182.0</ele><time>2026-04-25T15:04:25.441Z</time></trkpt><trkpt lat="45.8706754" lon="11.0311322"><ele>182.0</ele><time>2026-04-25T15:04:26.441Z</time></trkpt><trkpt lat="45.8707941" lon="11.0311402"><ele>182.0</ele><time>2026-04-25T15:04:27.44Z</time></trkpt><trkpt lat="45.8709043" lon="11.0311491"><ele>182.2</ele><time>2026-04-25T15:04:28.441Z</time></trkpt><trkpt lat="45.8710111" lon="11.0311601"><ele>182.39999999999998</ele><time>2026-04-25T15:04:29.44Z</time></trkpt><trkpt lat="45.8711203" lon="11.0311692"><ele>182.60000000000002</ele><time>2026-04-25T15:04:30.44Z</time></trkpt><trkpt lat="45.8712305" lon="11.0311785"><ele>182.8</ele><time>2026-04-25T15:04:31.44Z</time></trkpt><trkpt lat="45.871345" lon="11.0311861"><ele>183.0</ele><time>2026-04-25T15:04:32.441Z</time></trkpt><trkpt lat="45.8714508" lon="11.0311915"><ele>183.0</ele><time>2026-04-25T15:04:33.44Z</time></trkpt><trkpt lat="45.8715536" lon="11.0312022"><ele>183.0</ele><time>2026-04-25T15:04:34.441Z</time></trkpt><trkpt lat="45.8716519" lon="11.0312178"><ele>183.0</ele><time>2026-04-25T15:04:35.441Z</time></trkpt><trkpt lat="45.8717459" lon="11.0312375"><ele>183.0</ele><time>2026-04-25T15:04:36.44Z</time></trkpt><trkpt lat="45.8718375" lon="11.0312561"><ele>183.0</ele><time>2026-04-25T15:04:37.441Z</time></trkpt><trkpt lat="45.8719261" lon="11.0312788"><ele>182.60000000000002</ele><time>2026-04-25T15:04:38.441Z</time></trkpt><trkpt lat="45.8720136" lon="11.0313041"><ele>182.20000000000002</ele><time>2026-04-25T15:04:39.44Z</time></trkpt><trkpt lat="45.8721" lon="11.0313273"><ele>181.8</ele><time>2026-04-25T15:04:40.441Z</time></trkpt><trkpt lat="45.8721944" lon="11.0313463"><ele>181.4</ele><time>2026-04-25T15:04:41.441Z</time></trkpt><trkpt lat="45.8722929" lon="11.0313628"><ele>181.0</ele><time>2026-04-25T15:04:42.44Z</time></trkpt><trkpt lat="45.8723909" lon="11.0313802"><ele>181.0</ele><time>2026-04-25T15:04:43.44Z</time></trkpt><trkpt lat="45.8724776" lon="11.0313928"><ele>181.0</ele><time>2026-04-25T15:04:44.44Z</time></trkpt><trkpt lat="45.8725474" lon="11.0314024"><ele>181.0</ele><time>2026-04-25T15:04:45.441Z</time></trkpt><trkpt lat="45.8726354" lon="11.0314084"><ele>181.0</ele><time>2026-04-25T15:04:47.441Z</time></trkpt><trkpt lat="45.8727094" lon="11.0314261"><ele>181.0</ele><time>2026-04-25T15:04:49.44Z</time></trkpt><trkpt lat="45.8727954" lon="11.0314462"><ele>181.0</ele><time>2026-04-25T15:04:51.441Z</time></trkpt><trkpt lat="45.8728781" lon="11.0314794"><ele>180.8</ele><time>2026-04-25T15:04:52.442Z</time></trkpt><trkpt lat="45.8729682" lon="11.0314965"><ele>180.60000000000002</ele><time>2026-04-25T15:04:53.44Z</time></trkpt><trkpt lat="45.8730719" lon="11.0315089"><ele>180.4</ele><time>2026-04-25T15:04:54.441Z</time></trkpt><trkpt lat="45.8731754" lon="11.0315215"><ele>180.2</ele><time>2026-04-25T15:04:55.441Z</time></trkpt><trkpt lat="45.873275" lon="11.0315366"><ele>180.0</ele><time>2026-04-25T15:04:56.442Z</time></trkpt><trkpt lat="45.8733704" lon="11.0315504"><ele>180.33333333333334</ele><time>2026-04-25T15:04:57.442Z</time></trkpt><trkpt lat="45.8734605" lon="11.0315576"><ele>180.66666666666666</ele><time>2026-04-25T15:04:58.442Z</time></trkpt><trkpt lat="45.873541" lon="11.0315589"><ele>181.0</ele><time>2026-04-25T15:04:59.441Z</time></trkpt><trkpt lat="45.8736118" lon="11.0315609"><ele>181.33333333333331</ele><time>2026-04-25T15:05:00.442Z</time></trkpt><trkpt lat="45.8736818" lon="11.0315665"><ele>181.66666666666666</ele><time>2026-04-25T15:05:01.441Z</time></trkpt><trkpt lat="45.8737532" lon="11.0315768"><ele>182.0</ele><time>2026-04-25T15:05:02.441Z</time></trkpt><trkpt lat="45.8738298" lon="11.0315886"><ele>182.0</ele><time>2026-04-25T15:05:03.442Z</time></trkpt><trkpt lat="45.8739078" lon="11.0316006"><ele>182.0</ele><time>2026-04-25T15:05:04.442Z</time></trkpt><trkpt lat="45.8739885" lon="11.0316108"><ele>182.0</ele><time>2026-04-25T15:05:05.442Z</time></trkpt><trkpt lat="45.8740658" lon="11.03162"><ele>182.0</ele><time>2026-04-25T15:05:06.441Z</time></trkpt><trkpt lat="45.8741387" lon="11.0316282"><ele>182.0</ele><time>2026-04-25T15:05:07.441Z</time></trkpt><trkpt lat="45.8742085" lon="11.0316329"><ele>182.0</ele><time>2026-04-25T15:05:08.441Z</time></trkpt><trkpt lat="45.8742721" lon="11.0316413"><ele>182.0</ele><time>2026-04-25T15:05:09.441Z</time></trkpt><trkpt lat="45.8743646" lon="11.0316597"><ele>182.2</ele><time>2026-04-25T15:05:11.441Z</time></trkpt><trkpt lat="45.8744528" lon="11.0316546"><ele>182.39999999999998</ele><time>2026-04-25T15:05:16.441Z</time></trkpt><trkpt lat="45.8745504" lon="11.0316748"><ele>182.60000000000002</ele><time>2026-04-25T15:05:18.441Z</time></trkpt><trkpt lat="45.8746763" lon="11.0316982"><ele>182.8</ele><time>2026-04-25T15:05:20.441Z</time></trkpt><trkpt lat="45.8747432" lon="11.0317123"><ele>183.0</ele><time>2026-04-25T15:05:21.441Z</time></trkpt><trkpt lat="45.8748162" lon="11.0317274"><ele>183.0</ele><time>2026-04-25T15:05:22.441Z</time></trkpt><trkpt lat="45.8748876" lon="11.0317401"><ele>183.0</ele><time>2026-04-25T15:05:23.442Z</time></trkpt><trkpt lat="45.874957" lon="11.0317526"><ele>183.0</ele><time>2026-04-25T15:05:24.441Z</time></trkpt><trkpt lat="45.8750276" lon="11.0317663"><ele>183.0</ele><time>2026-04-25T15:05:25.441Z</time></trkpt><trkpt lat="45.8750988" lon="11.0317786"><ele>183.0</ele><time>2026-04-25T15:05:26.441Z</time></trkpt><trkpt lat="45.8751697" lon="11.03179"><ele>183.0</ele><time>2026-04-25T15:05:27.442Z</time></trkpt><trkpt lat="45.8752379" lon="11.031803"><ele>183.0</ele><time>2026-04-25T15:05:28.441Z</time></trkpt><trkpt lat="45.8753064" lon="11.0318168"><ele>183.28571428571428</ele><time>2026-04-25T15:05:29.441Z</time></trkpt><trkpt lat="45.8753806" lon="11.0318286"><ele>183.57142857142858</ele><time>2026-04-25T15:05:30.442Z</time></trkpt><trkpt lat="45.8754582" lon="11.0318413"><ele>183.85714285714283</ele><time>2026-04-25T15:05:31.442Z</time></trkpt><trkpt lat="45.8755369" lon="11.0318531"><ele>184.14285714285714</ele><time>2026-04-25T15:05:32.442Z</time></trkpt><trkpt lat="45.8756054" lon="11.0318613"><ele>184.42857142857142</ele><time>2026-04-25T15:05:33.441Z</time></trkpt><trkpt lat="45.8756691" lon="11.0318693"><ele>184.7142857142857</ele><time>2026-04-25T15:05:34.441Z</time></trkpt><trkpt lat="45.8757341" lon="11.0318822"><ele>185.0</ele><time>2026-04-25T15:05:35.441Z</time></trkpt><trkpt lat="45.8758588" lon="11.0319048"><ele>185.0</ele><time>2026-04-25T15:05:37.442Z</time></trkpt><trkpt lat="45.8759289" lon="11.0319168"><ele>185.0</ele><time>2026-04-25T15:05:38.442Z</time></trkpt><trkpt lat="45.8760067" lon="11.0319329"><ele>185.0</ele><time>2026-04-25T15:05:39.441Z</time></trkpt><trkpt lat="45.8760879" lon="11.0319473"><ele>185.0</ele><time>2026-04-25T15:05:40.441Z</time></trkpt><trkpt lat="45.8761665" lon="11.0319616"><ele>185.0</ele><time>2026-04-25T15:05:41.442Z</time></trkpt><trkpt lat="45.8762409" lon="11.031972"><ele>185.0</ele><time>2026-04-25T15:05:42.442Z</time></trkpt><trkpt lat="45.8763091" lon="11.0319808"><ele>185.14285714285714</ele><time>2026-04-25T15:05:43.441Z</time></trkpt><trkpt lat="45.8763753" lon="11.0319908"><ele>185.28571428571428</ele><time>2026-04-25T15:05:44.441Z</time></trkpt><trkpt lat="45.8764415" lon="11.0319986"><ele>185.42857142857144</ele><time>2026-04-25T15:05:45.442Z</time></trkpt><trkpt lat="45.8765113" lon="11.0320077"><ele>185.57142857142856</ele><time>2026-04-25T15:05:46.442Z</time></trkpt><trkpt lat="45.8765826" lon="11.0320187"><ele>185.71428571428572</ele><time>2026-04-25T15:05:47.442Z</time></trkpt><trkpt lat="45.8766529" lon="11.03203"><ele>185.85714285714286</ele><time>2026-04-25T15:05:48.443Z</time></trkpt><trkpt lat="45.8767223" lon="11.0320432"><ele>186.0</ele><time>2026-04-25T15:05:49.442Z</time></trkpt><trkpt lat="45.8767846" lon="11.0320639"><ele>185.66666666666666</ele><time>2026-04-25T15:05:50.443Z</time></trkpt><trkpt lat="45.8768549" lon="11.0320882"><ele>185.33333333333334</ele><time>2026-04-25T15:05:51.442Z</time></trkpt><trkpt lat="45.8769431" lon="11.0321616"><ele>185.0</ele><time>2026-04-25T15:05:53.443Z</time></trkpt><trkpt lat="45.8770039" lon="11.0322455"><ele>184.66666666666669</ele><time>2026-04-25T15:05:55.443Z</time></trkpt><trkpt lat="45.8770654" lon="11.0322692"><ele>184.33333333333334</ele><time>2026-04-25T15:05:56.442Z</time></trkpt><trkpt lat="45.8771324" lon="11.0322548"><ele>184.0</ele><time>2026-04-25T15:05:57.441Z</time></trkpt><trkpt lat="45.8771997" lon="11.0321976"><ele>184.0</ele><time>2026-04-25T15:05:58.442Z</time></trkpt><trkpt lat="45.877267" lon="11.0321027"><ele>184.0</ele><time>2026-04-25T15:05:59.442Z</time></trkpt><trkpt lat="45.8773352" lon="11.0320294"><ele>184.0</ele><time>2026-04-25T15:06:00.442Z</time></trkpt><trkpt lat="45.8774124" lon="11.0319827"><ele>184.0</ele><time>2026-04-25T15:06:01.442Z</time></trkpt><trkpt lat="45.8775019" lon="11.0319633"><ele>184.0</ele><time>2026-04-25T15:06:02.443Z</time></trkpt><trkpt lat="45.8776229" lon="11.0319803"><ele>184.5</ele><time>2026-04-25T15:06:03.443Z</time></trkpt><trkpt lat="45.8777415" lon="11.0319898"><ele>185.0</ele><time>2026-04-25T15:06:04.443Z</time></trkpt><trkpt lat="45.8778628" lon="11.0319854"><ele>185.5</ele><time>2026-04-25T15:06:05.442Z</time></trkpt><trkpt lat="45.8779918" lon="11.0319726"><ele>186.0</ele><time>2026-04-25T15:06:06.442Z</time></trkpt><trkpt lat="45.8781215" lon="11.0319555"><ele>186.0</ele><time>2026-04-25T15:06:07.442Z</time></trkpt><trkpt lat="45.8782548" lon="11.0319395"><ele>186.0</ele><time>2026-04-25T15:06:08.443Z</time></trkpt><trkpt lat="45.8783957" lon="11.0319281"><ele>186.0</ele><time>2026-04-25T15:06:09.442Z</time></trkpt><trkpt lat="45.8785425" lon="11.0319201"><ele>186.0</ele><time>2026-04-25T15:06:10.443Z</time></trkpt><trkpt lat="45.878703" lon="11.0319117"><ele>186.33333333333334</ele><time>2026-04-25T15:06:11.443Z</time></trkpt><trkpt lat="45.8788756" lon="11.0318988"><ele>186.66666666666669</ele><time>2026-04-25T15:06:12.442Z</time></trkpt><trkpt lat="45.8790698" lon="11.0318846"><ele>187.0</ele><time>2026-04-25T15:06:13.442Z</time></trkpt><trkpt lat="45.8792627" lon="11.0318782"><ele>186.0</ele><time>2026-04-25T15:06:14.443Z</time></trkpt><trkpt lat="45.8794413" lon="11.0318788"><ele>185.0</ele><time>2026-04-25T15:06:15.443Z</time></trkpt><trkpt lat="45.8796019" lon="11.0318776"><ele>184.0</ele><time>2026-04-25T15:06:16.442Z</time></trkpt><trkpt lat="45.8797564" lon="11.0318697"><ele>184.0</ele><time>2026-04-25T15:06:17.443Z</time></trkpt><trkpt lat="45.8799062" lon="11.0318595"><ele>184.0</ele><time>2026-04-25T15:06:18.443Z</time></trkpt><trkpt lat="45.8800431" lon="11.0318459"><ele>184.0</ele><time>2026-04-25T15:06:19.442Z</time></trkpt><trkpt lat="45.880162" lon="11.0318273"><ele>184.0</ele><time>2026-04-25T15:06:20.442Z</time></trkpt><trkpt lat="45.8802546" lon="11.0318056"><ele>184.0</ele><time>2026-04-25T15:06:21.442Z</time></trkpt><trkpt lat="45.8803209" lon="11.0317941"><ele>184.0</ele><time>2026-04-25T15:06:22.443Z</time></trkpt><trkpt lat="45.8803867" lon="11.0318085"><ele>184.0</ele><time>2026-04-25T15:06:23.442Z</time></trkpt><trkpt lat="45.8804506" lon="11.0318557"><ele>184.0</ele><time>2026-04-25T15:06:24.443Z</time></trkpt><trkpt lat="45.8805264" lon="11.0319102"><ele>184.0</ele><time>2026-04-25T15:06:25.443Z</time></trkpt><trkpt lat="45.8806041" lon="11.0319283"><ele>184.0</ele><time>2026-04-25T15:06:26.443Z</time></trkpt><trkpt lat="45.8806762" lon="11.0319005"><ele>184.0</ele><time>2026-04-25T15:06:27.443Z</time></trkpt><trkpt lat="45.8807444" lon="11.0318295"><ele>184.0</ele><time>2026-04-25T15:06:28.442Z</time></trkpt><trkpt lat="45.8808087" lon="11.0317729"><ele>184.0</ele><time>2026-04-25T15:06:29.442Z</time></trkpt><trkpt lat="45.8808753" lon="11.0317513"><ele>184.0</ele><time>2026-04-25T15:06:30.442Z</time></trkpt><trkpt lat="45.8809539" lon="11.0317769"><ele>184.0</ele><time>2026-04-25T15:06:31.442Z</time></trkpt><trkpt lat="45.881046" lon="11.0318162"><ele>184.0</ele><time>2026-04-25T15:06:32.443Z</time></trkpt><trkpt lat="45.8811556" lon="11.0318538"><ele>184.0</ele><time>2026-04-25T15:06:33.443Z</time></trkpt><trkpt lat="45.8812732" lon="11.0318883"><ele>184.0</ele><time>2026-04-25T15:06:34.442Z</time></trkpt><trkpt lat="45.8813856" lon="11.031927"><ele>184.0</ele><time>2026-04-25T15:06:35.442Z</time></trkpt><trkpt lat="45.8814941" lon="11.0319714"><ele>184.0</ele><time>2026-04-25T15:06:36.443Z</time></trkpt><trkpt lat="45.8816263" lon="11.0320205"><ele>184.0</ele><time>2026-04-25T15:06:37.442Z</time></trkpt><trkpt lat="45.8817864" lon="11.0320811"><ele>183.33333333333334</ele><time>2026-04-25T15:06:38.442Z</time></trkpt><trkpt lat="45.8819533" lon="11.0321444"><ele>182.66666666666666</ele><time>2026-04-25T15:06:39.443Z</time></trkpt><trkpt lat="45.8821283" lon="11.0322167"><ele>182.0</ele><time>2026-04-25T15:06:40.442Z</time></trkpt><trkpt lat="45.882304" lon="11.0322902"><ele>182.0</ele><time>2026-04-25T15:06:41.442Z</time></trkpt><trkpt lat="45.882485" lon="11.0323586"><ele>182.0</ele><time>2026-04-25T15:06:42.444Z</time></trkpt><trkpt lat="45.882665" lon="11.0324148"><ele>182.0</ele><time>2026-04-25T15:06:43.442Z</time></trkpt><trkpt lat="45.8828442" lon="11.0324632"><ele>182.33333333333331</ele><time>2026-04-25T15:06:44.442Z</time></trkpt><trkpt lat="45.8830197" lon="11.0325007"><ele>182.66666666666666</ele><time>2026-04-25T15:06:45.443Z</time></trkpt><trkpt lat="45.8831915" lon="11.0325302"><ele>183.0</ele><time>2026-04-25T15:06:46.443Z</time></trkpt><trkpt lat="45.8833639" lon="11.0325589"><ele>183.66666666666666</ele><time>2026-04-25T15:06:47.443Z</time></trkpt><trkpt lat="45.8835434" lon="11.0325928"><ele>184.33333333333331</ele><time>2026-04-25T15:06:48.443Z</time></trkpt><trkpt lat="45.8837278" lon="11.0326257"><ele>185.0</ele><time>2026-04-25T15:06:49.443Z</time></trkpt><trkpt lat="45.8839123" lon="11.0326562"><ele>185.0</ele><time>2026-04-25T15:06:50.443Z</time></trkpt><trkpt lat="45.8840959" lon="11.0326837"><ele>185.0</ele><time>2026-04-25T15:06:51.443Z</time></trkpt><trkpt lat="45.8842823" lon="11.032715"><ele>185.0</ele><time>2026-04-25T15:06:52.444Z</time></trkpt><trkpt lat="45.8844701" lon="11.0327485"><ele>185.33333333333331</ele><time>2026-04-25T15:06:53.442Z</time></trkpt><trkpt lat="45.8846571" lon="11.032778"><ele>185.66666666666666</ele><time>2026-04-25T15:06:54.443Z</time></trkpt><trkpt lat="45.8848331" lon="11.0328056"><ele>186.0</ele><time>2026-04-25T15:06:55.443Z</time></trkpt><trkpt lat="45.8850036" lon="11.0328393"><ele>186.0</ele><time>2026-04-25T15:06:56.443Z</time></trkpt><trkpt lat="45.8851747" lon="11.0328695"><ele>186.0</ele><time>2026-04-25T15:06:57.444Z</time></trkpt><trkpt lat="45.8853434" lon="11.0328924"><ele>186.0</ele><time>2026-04-25T15:06:58.444Z</time></trkpt><trkpt lat="45.88552" lon="11.0329156"><ele>186.0</ele><time>2026-04-25T15:06:59.443Z</time></trkpt><trkpt lat="45.8856939" lon="11.0329472"><ele>186.0</ele><time>2026-04-25T15:07:00.443Z</time></trkpt><trkpt lat="45.8858563" lon="11.0329792"><ele>186.0</ele><time>2026-04-25T15:07:01.443Z</time></trkpt><trkpt lat="45.8860098" lon="11.0330091"><ele>186.5</ele><time>2026-04-25T15:07:02.443Z</time></trkpt><trkpt lat="45.8861467" lon="11.0330363"><ele>187.0</ele><time>2026-04-25T15:07:03.443Z</time></trkpt><trkpt lat="45.8862679" lon="11.0330574"><ele>187.5</ele><time>2026-04-25T15:07:04.443Z</time></trkpt><trkpt lat="45.8863772" lon="11.0330679"><ele>188.0</ele><time>2026-04-25T15:07:05.443Z</time></trkpt><trkpt lat="45.8864607" lon="11.0330766"><ele>188.0</ele><time>2026-04-25T15:07:06.444Z</time></trkpt><trkpt lat="45.8865466" lon="11.0331404"><ele>188.0</ele><time>2026-04-25T15:07:08.443Z</time></trkpt><trkpt lat="45.8866189" lon="11.0332903"><ele>188.0</ele><time>2026-04-25T15:07:10.444Z</time></trkpt><trkpt lat="45.8866795" lon="11.0333174"><ele>188.0</ele><time>2026-04-25T15:07:11.443Z</time></trkpt><trkpt lat="45.8867561" lon="11.033282"><ele>188.0</ele><time>2026-04-25T15:07:12.444Z</time></trkpt><trkpt lat="45.8868493" lon="11.0332139"><ele>188.75</ele><time>2026-04-25T15:07:13.443Z</time></trkpt><trkpt lat="45.8869522" lon="11.0331582"><ele>189.5</ele><time>2026-04-25T15:07:14.444Z</time></trkpt><trkpt lat="45.8870691" lon="11.0331519"><ele>190.25</ele><time>2026-04-25T15:07:15.443Z</time></trkpt><trkpt lat="45.8872137" lon="11.0331977"><ele>191.0</ele><time>2026-04-25T15:07:16.443Z</time></trkpt><trkpt lat="45.8873582" lon="11.0332446"><ele>191.0</ele><time>2026-04-25T15:07:17.444Z</time></trkpt><trkpt lat="45.8875171" lon="11.0332851"><ele>191.0</ele><time>2026-04-25T15:07:18.444Z</time></trkpt><trkpt lat="45.8876706" lon="11.0333302"><ele>191.0</ele><time>2026-04-25T15:07:19.443Z</time></trkpt><trkpt lat="45.8878255" lon="11.0333803"><ele>190.66666666666666</ele><time>2026-04-25T15:07:20.444Z</time></trkpt><trkpt lat="45.8879799" lon="11.0334441"><ele>190.33333333333334</ele><time>2026-04-25T15:07:21.444Z</time></trkpt><trkpt lat="45.8881699" lon="11.0335305"><ele>190.0</ele><time>2026-04-25T15:07:22.443Z</time></trkpt><trkpt lat="45.8883411" lon="11.0336189"><ele>190.0</ele><time>2026-04-25T15:07:23.444Z</time></trkpt><trkpt lat="45.8885029" lon="11.0336962"><ele>190.0</ele><time>2026-04-25T15:07:24.444Z</time></trkpt><trkpt lat="45.888678" lon="11.0337598"><ele>190.0</ele><time>2026-04-25T15:07:25.444Z</time></trkpt><trkpt lat="45.8888611" lon="11.0338042"><ele>190.0</ele><time>2026-04-25T15:07:26.443Z</time></trkpt><trkpt lat="45.8890538" lon="11.0338405"><ele>190.0</ele><time>2026-04-25T15:07:27.444Z</time></trkpt><trkpt lat="45.8892366" lon="11.0338695"><ele>190.0</ele><time>2026-04-25T15:07:28.443Z</time></trkpt><trkpt lat="45.8894106" lon="11.0338934"><ele>190.0</ele><time>2026-04-25T15:07:29.443Z</time></trkpt><trkpt lat="45.8895735" lon="11.033924"><ele>190.0</ele><time>2026-04-25T15:07:30.443Z</time></trkpt><trkpt lat="45.8897271" lon="11.0339596"><ele>190.0</ele><time>2026-04-25T15:07:31.443Z</time></trkpt><trkpt lat="45.8898826" lon="11.0339927"><ele>190.0</ele><time>2026-04-25T15:07:32.443Z</time></trkpt><trkpt lat="45.8900309" lon="11.034023"><ele>190.0</ele><time>2026-04-25T15:07:33.443Z</time></trkpt><trkpt lat="45.8901758" lon="11.0340512"><ele>190.0</ele><time>2026-04-25T15:07:34.444Z</time></trkpt><trkpt lat="45.8903065" lon="11.0340937"><ele>190.0</ele><time>2026-04-25T15:07:35.444Z</time></trkpt><trkpt lat="45.8904268" lon="11.0341511"><ele>190.0</ele><time>2026-04-25T15:07:36.443Z</time></trkpt><trkpt lat="45.8905374" lon="11.0342269"><ele>190.0</ele><time>2026-04-25T15:07:37.444Z</time></trkpt><trkpt lat="45.89063" lon="11.0343104"><ele>190.0</ele><time>2026-04-25T15:07:38.444Z</time></trkpt><trkpt lat="45.8907044" lon="11.0343844"><ele>190.0</ele><time>2026-04-25T15:07:39.443Z</time></trkpt><trkpt lat="45.8907594" lon="11.0344509"><ele>190.0</ele><time>2026-04-25T15:07:40.444Z</time></trkpt><trkpt lat="45.8908192" lon="11.0345864"><ele>190.0</ele><time>2026-04-25T15:07:42.444Z</time></trkpt><trkpt lat="45.8908319" lon="11.0346993"><ele>190.0</ele><time>2026-04-25T15:07:43.444Z</time></trkpt><trkpt lat="45.8908424" lon="11.0348283"><ele>190.0</ele><time>2026-04-25T15:07:44.444Z</time></trkpt><trkpt lat="45.8908735" lon="11.0349277"><ele>190.0</ele><time>2026-04-25T15:07:45.443Z</time></trkpt><trkpt lat="45.8909381" lon="11.0349743"><ele>190.0</ele><time>2026-04-25T15:07:46.445Z</time></trkpt><trkpt lat="45.8910307" lon="11.0349305"><ele>190.0</ele><time>2026-04-25T15:07:47.443Z</time></trkpt><trkpt lat="45.8911084" lon="11.0348642"><ele>190.0</ele><time>2026-04-25T15:07:48.443Z</time></trkpt><trkpt lat="45.8911859" lon="11.0347534"><ele>190.0</ele><time>2026-04-25T15:07:49.445Z</time></trkpt><trkpt lat="45.8912596" lon="11.0346261"><ele>190.0</ele><time>2026-04-25T15:07:50.444Z</time></trkpt><trkpt lat="45.8913263" lon="11.0345241"><ele>190.0</ele><time>2026-04-25T15:07:51.444Z</time></trkpt><trkpt lat="45.8913865" lon="11.034455"><ele>190.0</ele><time>2026-04-25T15:07:52.444Z</time></trkpt><trkpt lat="45.8914553" lon="11.0344072"><ele>190.0</ele><time>2026-04-25T15:07:53.443Z</time></trkpt><trkpt lat="45.8915303" lon="11.0343845"><ele>190.0</ele><time>2026-04-25T15:07:54.445Z</time></trkpt><trkpt lat="45.8916114" lon="11.0343711"><ele>190.0</ele><time>2026-04-25T15:07:55.444Z</time></trkpt><trkpt lat="45.8916997" lon="11.0343602"><ele>190.0</ele><time>2026-04-25T15:07:56.444Z</time></trkpt><trkpt lat="45.891824" lon="11.0344003"><ele>190.0</ele><time>2026-04-25T15:07:57.444Z</time></trkpt><trkpt lat="45.8919121" lon="11.0343855"><ele>189.5</ele><time>2026-04-25T15:07:58.443Z</time></trkpt><trkpt lat="45.8920281" lon="11.034378"><ele>189.0</ele><time>2026-04-25T15:07:59.444Z</time></trkpt><trkpt lat="45.8921604" lon="11.0343687"><ele>188.5</ele><time>2026-04-25T15:08:00.445Z</time></trkpt><trkpt lat="45.8922943" lon="11.0343597"><ele>188.0</ele><time>2026-04-25T15:08:01.445Z</time></trkpt><trkpt lat="45.8924266" lon="11.0343469"><ele>188.0</ele><time>2026-04-25T15:08:02.445Z</time></trkpt><trkpt lat="45.8925663" lon="11.0343367"><ele>188.0</ele><time>2026-04-25T15:08:03.444Z</time></trkpt><trkpt lat="45.8927138" lon="11.0343266"><ele>188.0</ele><time>2026-04-25T15:08:04.444Z</time></trkpt><trkpt lat="45.8928618" lon="11.034317"><ele>188.0</ele><time>2026-04-25T15:08:05.445Z</time></trkpt><trkpt lat="45.8930146" lon="11.0343056"><ele>188.0</ele><time>2026-04-25T15:08:06.445Z</time></trkpt><trkpt lat="45.8931741" lon="11.0342932"><ele>188.0</ele><time>2026-04-25T15:08:07.445Z</time></trkpt><trkpt lat="45.8933486" lon="11.0342769"><ele>188.0</ele><time>2026-04-25T15:08:08.445Z</time></trkpt><trkpt lat="45.8935341" lon="11.0342654"><ele>187.66666666666666</ele><time>2026-04-25T15:08:09.444Z</time></trkpt><trkpt lat="45.8937128" lon="11.0342606"><ele>187.33333333333334</ele><time>2026-04-25T15:08:10.445Z</time></trkpt><trkpt lat="45.8938741" lon="11.0342578"><ele>187.0</ele><time>2026-04-25T15:08:11.445Z</time></trkpt><trkpt lat="45.8940223" lon="11.0342602"><ele>187.0</ele><time>2026-04-25T15:08:12.444Z</time></trkpt><trkpt lat="45.8941688" lon="11.0342685"><ele>187.0</ele><time>2026-04-25T15:08:13.444Z</time></trkpt><trkpt lat="45.8943275" lon="11.0342954"><ele>187.0</ele><time>2026-04-25T15:08:14.444Z</time></trkpt><trkpt lat="45.8945081" lon="11.034339"><ele>187.0</ele><time>2026-04-25T15:08:15.445Z</time></trkpt><trkpt lat="45.8947099" lon="11.0343899"><ele>187.0</ele><time>2026-04-25T15:08:16.445Z</time></trkpt><trkpt lat="45.8949201" lon="11.0344522"><ele>187.0</ele><time>2026-04-25T15:08:17.445Z</time></trkpt><trkpt lat="45.8951101" lon="11.0344998"><ele>186.0</ele><time>2026-04-25T15:08:18.444Z</time></trkpt><trkpt lat="45.8952859" lon="11.0345423"><ele>185.0</ele><time>2026-04-25T15:08:19.444Z</time></trkpt><trkpt lat="45.8954449" lon="11.0345733"><ele>184.0</ele><time>2026-04-25T15:08:20.446Z</time></trkpt><trkpt lat="45.8955948" lon="11.0345991"><ele>184.0</ele><time>2026-04-25T15:08:21.444Z</time></trkpt><trkpt lat="45.8957364" lon="11.0346276"><ele>184.0</ele><time>2026-04-25T15:08:22.444Z</time></trkpt><trkpt lat="45.8958679" lon="11.0346592"><ele>184.0</ele><time>2026-04-25T15:08:23.444Z</time></trkpt><trkpt lat="45.8959981" lon="11.034685"><ele>184.0</ele><time>2026-04-25T15:08:24.445Z</time></trkpt><trkpt lat="45.8961388" lon="11.034724"><ele>184.0</ele><time>2026-04-25T15:08:25.444Z</time></trkpt><trkpt lat="45.8962631" lon="11.034744"><ele>184.0</ele><time>2026-04-25T15:08:26.445Z</time></trkpt><trkpt lat="45.8963849" lon="11.0347719"><ele>184.0</ele><time>2026-04-25T15:08:27.444Z</time></trkpt><trkpt lat="45.8964964" lon="11.0347926"><ele>184.0</ele><time>2026-04-25T15:08:28.445Z</time></trkpt><trkpt lat="45.8966018" lon="11.0348108"><ele>184.0</ele><time>2026-04-25T15:08:29.445Z</time></trkpt><trkpt lat="45.896703" lon="11.0348271"><ele>184.0</ele><time>2026-04-25T15:08:30.444Z</time></trkpt><trkpt lat="45.896802" lon="11.0348461"><ele>184.0</ele><time>2026-04-25T15:08:31.444Z</time></trkpt><trkpt lat="45.8969035" lon="11.0348699"><ele>184.0</ele><time>2026-04-25T15:08:32.446Z</time></trkpt><trkpt lat="45.8969967" lon="11.0348861"><ele>184.0</ele><time>2026-04-25T15:08:33.444Z</time></trkpt><trkpt lat="45.8970868" lon="11.0349093"><ele>183.79999999999998</ele><time>2026-04-25T15:08:34.446Z</time></trkpt><trkpt lat="45.8971676" lon="11.0349344"><ele>183.6</ele><time>2026-04-25T15:08:35.444Z</time></trkpt><trkpt lat="45.897235" lon="11.0349524"><ele>183.4</ele><time>2026-04-25T15:08:36.444Z</time></trkpt><trkpt lat="45.8973593" lon="11.0349765"><ele>183.2</ele><time>2026-04-25T15:08:38.444Z</time></trkpt><trkpt lat="45.8974471" lon="11.0349967"><ele>183.0</ele><time>2026-04-25T15:08:39.445Z</time></trkpt><trkpt lat="45.897541" lon="11.0350224"><ele>183.0</ele><time>2026-04-25T15:08:40.445Z</time></trkpt><trkpt lat="45.8976408" lon="11.0350495"><ele>183.0</ele><time>2026-04-25T15:08:41.445Z</time></trkpt><trkpt lat="45.8977408" lon="11.0350717"><ele>183.0</ele><time>2026-04-25T15:08:42.446Z</time></trkpt><trkpt lat="45.8978416" lon="11.03509"><ele>183.0</ele><time>2026-04-25T15:08:43.444Z</time></trkpt><trkpt lat="45.897949" lon="11.0351077"><ele>183.0</ele><time>2026-04-25T15:08:44.445Z</time></trkpt><trkpt lat="45.8980576" lon="11.0351282"><ele>183.0</ele><time>2026-04-25T15:08:45.445Z</time></trkpt><trkpt lat="45.898169" lon="11.0351491"><ele>183.0</ele><time>2026-04-25T15:08:46.445Z</time></trkpt><trkpt lat="45.898283" lon="11.0351702"><ele>183.0</ele><time>2026-04-25T15:08:47.445Z</time></trkpt><trkpt lat="45.8983941" lon="11.0351896"><ele>183.0</ele><time>2026-04-25T15:08:48.444Z</time></trkpt><trkpt lat="45.8985044" lon="11.0352118"><ele>182.4</ele><time>2026-04-25T15:08:49.444Z</time></trkpt><trkpt lat="45.8986115" lon="11.0352327"><ele>181.8</ele><time>2026-04-25T15:08:50.445Z</time></trkpt><trkpt lat="45.8987115" lon="11.0352557"><ele>181.2</ele><time>2026-04-25T15:08:51.445Z</time></trkpt><trkpt lat="45.8988" lon="11.035277"><ele>180.6</ele><time>2026-04-25T15:08:52.445Z</time></trkpt><trkpt lat="45.8988855" lon="11.0352967"><ele>180.0</ele><time>2026-04-25T15:08:53.445Z</time></trkpt><trkpt lat="45.8989719" lon="11.0353129"><ele>180.0</ele><time>2026-04-25T15:08:54.445Z</time></trkpt><trkpt lat="45.8990617" lon="11.0353353"><ele>180.0</ele><time>2026-04-25T15:08:55.445Z</time></trkpt><trkpt lat="45.8991596" lon="11.0353639"><ele>180.0</ele><time>2026-04-25T15:08:56.445Z</time></trkpt><trkpt lat="45.8992687" lon="11.0353978"><ele>180.0</ele><time>2026-04-25T15:08:57.445Z</time></trkpt><trkpt lat="45.8993728" lon="11.0354241"><ele>180.0</ele><time>2026-04-25T15:08:58.445Z</time></trkpt><trkpt lat="45.8994797" lon="11.03545"><ele>179.4</ele><time>2026-04-25T15:08:59.445Z</time></trkpt><trkpt lat="45.8995869" lon="11.0354797"><ele>178.8</ele><time>2026-04-25T15:09:00.445Z</time></trkpt><trkpt lat="45.8996953" lon="11.0355062"><ele>178.2</ele><time>2026-04-25T15:09:01.445Z</time></trkpt><trkpt lat="45.8997985" lon="11.0355307"><ele>177.6</ele><time>2026-04-25T15:09:02.445Z</time></trkpt><trkpt lat="45.8999019" lon="11.035555"><ele>177.0</ele><time>2026-04-25T15:09:03.445Z</time></trkpt><trkpt lat="45.9000193" lon="11.0355794"><ele>176.0</ele><time>2026-04-25T15:09:04.445Z</time></trkpt><trkpt lat="45.9001579" lon="11.0356043"><ele>175.0</ele><time>2026-04-25T15:09:05.445Z</time></trkpt><trkpt lat="45.9003012" lon="11.0356281"><ele>174.0</ele><time>2026-04-25T15:09:06.445Z</time></trkpt><trkpt lat="45.9004454" lon="11.0356555"><ele>173.0</ele><time>2026-04-25T15:09:07.446Z</time></trkpt><trkpt lat="45.9005999" lon="11.0356924"><ele>173.0</ele><time>2026-04-25T15:09:08.445Z</time></trkpt><trkpt lat="45.9007591" lon="11.0357295"><ele>173.0</ele><time>2026-04-25T15:09:09.446Z</time></trkpt><trkpt lat="45.9009255" lon="11.0357679"><ele>173.0</ele><time>2026-04-25T15:09:10.446Z</time></trkpt><trkpt lat="45.9010949" lon="11.0358012"><ele>174.33333333333331</ele><time>2026-04-25T15:09:11.446Z</time></trkpt><trkpt lat="45.9012635" lon="11.0358333"><ele>175.66666666666666</ele><time>2026-04-25T15:09:12.445Z</time></trkpt><trkpt lat="45.9014269" lon="11.0358674"><ele>177.0</ele><time>2026-04-25T15:09:13.445Z</time></trkpt><trkpt lat="45.901587" lon="11.0359025"><ele>177.0</ele><time>2026-04-25T15:09:14.446Z</time></trkpt><trkpt lat="45.901755" lon="11.0359337"><ele>177.0</ele><time>2026-04-25T15:09:15.446Z</time></trkpt><trkpt lat="45.9019388" lon="11.0359637"><ele>177.0</ele><time>2026-04-25T15:09:16.445Z</time></trkpt><trkpt lat="45.902139" lon="11.0360016"><ele>177.0</ele><time>2026-04-25T15:09:17.445Z</time></trkpt><trkpt lat="45.9023316" lon="11.0360448"><ele>177.0</ele><time>2026-04-25T15:09:18.445Z</time></trkpt><trkpt lat="45.9025083" lon="11.036089"><ele>177.0</ele><time>2026-04-25T15:09:19.445Z</time></trkpt><trkpt lat="45.9026774" lon="11.0361294"><ele>177.66666666666666</ele><time>2026-04-25T15:09:20.445Z</time></trkpt><trkpt lat="45.9028438" lon="11.0361662"><ele>178.33333333333331</ele><time>2026-04-25T15:09:21.446Z</time></trkpt><trkpt lat="45.9030047" lon="11.0361987"><ele>179.0</ele><time>2026-04-25T15:09:22.446Z</time></trkpt><trkpt lat="45.9031523" lon="11.0362292"><ele>179.0</ele><time>2026-04-25T15:09:23.445Z</time></trkpt><trkpt lat="45.9032875" lon="11.0362579"><ele>179.0</ele><time>2026-04-25T15:09:24.445Z</time></trkpt><trkpt lat="45.9034154" lon="11.036286"><ele>179.0</ele><time>2026-04-25T15:09:25.447Z</time></trkpt><trkpt lat="45.9035382" lon="11.0363157"><ele>179.0</ele><time>2026-04-25T15:09:26.445Z</time></trkpt><trkpt lat="45.9036572" lon="11.036349"><ele>179.0</ele><time>2026-04-25T15:09:27.445Z</time></trkpt><trkpt lat="45.9037731" lon="11.0363889"><ele>179.0</ele><time>2026-04-25T15:09:28.446Z</time></trkpt><trkpt lat="45.9038821" lon="11.0364353"><ele>179.0</ele><time>2026-04-25T15:09:29.445Z</time></trkpt><trkpt lat="45.9039782" lon="11.0364832"><ele>179.0</ele><time>2026-04-25T15:09:30.445Z</time></trkpt><trkpt lat="45.9040539" lon="11.0365301"><ele>179.0</ele><time>2026-04-25T15:09:31.447Z</time></trkpt><trkpt lat="45.9041245" lon="11.0365845"><ele>179.79999999999998</ele><time>2026-04-25T15:09:32.445Z</time></trkpt><trkpt lat="45.9042045" lon="11.0366595"><ele>180.6</ele><time>2026-04-25T15:09:33.446Z</time></trkpt><trkpt lat="45.9042864" lon="11.036743"><ele>181.4</ele><time>2026-04-25T15:09:34.446Z</time></trkpt><trkpt lat="45.9043705" lon="11.0368303"><ele>182.2</ele><time>2026-04-25T15:09:35.445Z</time></trkpt><trkpt lat="45.9044546" lon="11.0369246"><ele>183.0</ele><time>2026-04-25T15:09:36.445Z</time></trkpt><trkpt lat="45.9045373" lon="11.0370268"><ele>183.2</ele><time>2026-04-25T15:09:37.445Z</time></trkpt><trkpt lat="45.9046181" lon="11.0371243"><ele>183.4</ele><time>2026-04-25T15:09:38.446Z</time></trkpt><trkpt lat="45.9046967" lon="11.0372164"><ele>183.6</ele><time>2026-04-25T15:09:39.446Z</time></trkpt><trkpt lat="45.9047735" lon="11.0373078"><ele>183.79999999999998</ele><time>2026-04-25T15:09:40.445Z</time></trkpt><trkpt lat="45.9048527" lon="11.0374027"><ele>184.0</ele><time>2026-04-25T15:09:41.446Z</time></trkpt><trkpt lat="45.9049335" lon="11.0375012"><ele>184.6</ele><time>2026-04-25T15:09:42.446Z</time></trkpt><trkpt lat="45.9050168" lon="11.0376057"><ele>185.2</ele><time>2026-04-25T15:09:43.445Z</time></trkpt><trkpt lat="45.9050993" lon="11.0377097"><ele>185.79999999999998</ele><time>2026-04-25T15:09:44.447Z</time></trkpt><trkpt lat="45.9051788" lon="11.0378081"><ele>186.39999999999998</ele><time>2026-04-25T15:09:45.447Z</time></trkpt><trkpt lat="45.9052581" lon="11.0379015"><ele>187.0</ele><time>2026-04-25T15:09:46.446Z</time></trkpt><trkpt lat="45.9053371" lon="11.0380016"><ele>187.2</ele><time>2026-04-25T15:09:47.447Z</time></trkpt><trkpt lat="45.9054185" lon="11.0380934"><ele>187.39999999999998</ele><time>2026-04-25T15:09:48.446Z</time></trkpt><trkpt lat="45.9055014" lon="11.0381914"><ele>187.60000000000002</ele><time>2026-04-25T15:09:49.446Z</time></trkpt><trkpt lat="45.905584" lon="11.03829"><ele>187.8</ele><time>2026-04-25T15:09:50.446Z</time></trkpt><trkpt lat="45.9056633" lon="11.0383841"><ele>188.0</ele><time>2026-04-25T15:09:51.445Z</time></trkpt><trkpt lat="45.9057401" lon="11.038475"><ele>188.0</ele><time>2026-04-25T15:09:52.447Z</time></trkpt><trkpt lat="45.9058177" lon="11.0385693"><ele>188.0</ele><time>2026-04-25T15:09:53.446Z</time></trkpt><trkpt lat="45.905897" lon="11.0386688"><ele>188.0</ele><time>2026-04-25T15:09:54.445Z</time></trkpt><trkpt lat="45.9059788" lon="11.0387682"><ele>188.0</ele><time>2026-04-25T15:09:55.446Z</time></trkpt><trkpt lat="45.9060652" lon="11.0388653"><ele>188.0</ele><time>2026-04-25T15:09:56.446Z</time></trkpt><trkpt lat="45.9061566" lon="11.0389651"><ele>189.0</ele><time>2026-04-25T15:09:57.446Z</time></trkpt><trkpt lat="45.9062443" lon="11.039065"><ele>190.0</ele><time>2026-04-25T15:09:58.446Z</time></trkpt><trkpt lat="45.906328" lon="11.0391609"><ele>191.0</ele><time>2026-04-25T15:09:59.447Z</time></trkpt><trkpt lat="45.9064102" lon="11.0392543"><ele>192.0</ele><time>2026-04-25T15:10:00.446Z</time></trkpt><trkpt lat="45.9064938" lon="11.039345"><ele>193.0</ele><time>2026-04-25T15:10:01.447Z</time></trkpt><trkpt lat="45.9065759" lon="11.0394358"><ele>193.0</ele><time>2026-04-25T15:10:02.446Z</time></trkpt><trkpt lat="45.9066569" lon="11.0395354"><ele>193.0</ele><time>2026-04-25T15:10:03.446Z</time></trkpt><trkpt lat="45.9067382" lon="11.0396332"><ele>193.0</ele><time>2026-04-25T15:10:04.447Z</time></trkpt><trkpt lat="45.9068217" lon="11.0397325"><ele>193.0</ele><time>2026-04-25T15:10:05.446Z</time></trkpt><trkpt lat="45.9069058" lon="11.0398253"><ele>193.0</ele><time>2026-04-25T15:10:06.447Z</time></trkpt><trkpt lat="45.9069818" lon="11.0399052"><ele>194.2</ele><time>2026-04-25T15:10:07.446Z</time></trkpt><trkpt lat="45.907057" lon="11.039976"><ele>195.4</ele><time>2026-04-25T15:10:08.446Z</time></trkpt><trkpt lat="45.9071356" lon="11.0400439"><ele>196.6</ele><time>2026-04-25T15:10:09.446Z</time></trkpt><trkpt lat="45.9072145" lon="11.0401097"><ele>197.79999999999998</ele><time>2026-04-25T15:10:10.446Z</time></trkpt><trkpt lat="45.9072958" lon="11.0401694"><ele>199.0</ele><time>2026-04-25T15:10:11.448Z</time></trkpt><trkpt lat="45.9073772" lon="11.040224"><ele>198.99999999999997</ele><time>2026-04-25T15:10:12.446Z</time></trkpt><trkpt lat="45.9074596" lon="11.0402766"><ele>199.0</ele><time>2026-04-25T15:10:13.446Z</time></trkpt><trkpt lat="45.907545" lon="11.0403275"><ele>199.0</ele><time>2026-04-25T15:10:14.446Z</time></trkpt><trkpt lat="45.9076281" lon="11.0403737"><ele>199.0</ele><time>2026-04-25T15:10:15.446Z</time></trkpt><trkpt lat="45.9077067" lon="11.0404129"><ele>198.99999999999997</ele><time>2026-04-25T15:10:16.446Z</time></trkpt><trkpt lat="45.9077749" lon="11.0404472"><ele>199.0</ele><time>2026-04-25T15:10:17.446Z</time></trkpt><trkpt lat="45.9078864" lon="11.0404995"><ele>198.6</ele><time>2026-04-25T15:10:19.446Z</time></trkpt><trkpt lat="45.9079896" lon="11.0405541"><ele>198.2</ele><time>2026-04-25T15:10:21.446Z</time></trkpt><trkpt lat="45.9080878" lon="11.0406131"><ele>197.79999999999998</ele><time>2026-04-25T15:10:23.447Z</time></trkpt><trkpt lat="45.9081742" lon="11.0406885"><ele>197.39999999999998</ele><time>2026-04-25T15:10:25.446Z</time></trkpt><trkpt lat="45.9082495" lon="11.0407914"><ele>197.0</ele><time>2026-04-25T15:10:27.447Z</time></trkpt><trkpt lat="45.9083297" lon="11.0408568"><ele>198.16666666666669</ele><time>2026-04-25T15:10:29.447Z</time></trkpt><trkpt lat="45.9083989" lon="11.0408495"><ele>199.33333333333334</ele><time>2026-04-25T15:10:30.448Z</time></trkpt><trkpt lat="45.9084756" lon="11.040823"><ele>200.5</ele><time>2026-04-25T15:10:31.446Z</time></trkpt><trkpt lat="45.9085917" lon="11.0408356"><ele>201.66666666666669</ele><time>2026-04-25T15:10:33.446Z</time></trkpt><trkpt lat="45.9086651" lon="11.0408818"><ele>202.83333333333334</ele><time>2026-04-25T15:10:34.446Z</time></trkpt><trkpt lat="45.9087521" lon="11.0409529"><ele>204.0</ele><time>2026-04-25T15:10:35.448Z</time></trkpt><trkpt lat="45.9088419" lon="11.0410152"><ele>204.0</ele><time>2026-04-25T15:10:36.447Z</time></trkpt><trkpt lat="45.9089253" lon="11.0410584"><ele>204.0</ele><time>2026-04-25T15:10:37.448Z</time></trkpt><trkpt lat="45.9090124" lon="11.0410908"><ele>204.0</ele><time>2026-04-25T15:10:38.447Z</time></trkpt><trkpt lat="45.909101" lon="11.0411275"><ele>204.0</ele><time>2026-04-25T15:10:39.448Z</time></trkpt><trkpt lat="45.9091879" lon="11.0411676"><ele>204.0</ele><time>2026-04-25T15:10:40.45Z</time></trkpt><trkpt lat="45.9092769" lon="11.04121"><ele>204.0</ele><time>2026-04-25T15:10:41.447Z</time></trkpt><trkpt lat="45.9093647" lon="11.0412559"><ele>204.0</ele><time>2026-04-25T15:10:42.446Z</time></trkpt><trkpt lat="45.9094493" lon="11.0413008"><ele>204.0</ele><time>2026-04-25T15:10:43.447Z</time></trkpt><trkpt lat="45.9095317" lon="11.0413482"><ele>204.0</ele><time>2026-04-25T15:10:44.448Z</time></trkpt><trkpt lat="45.9096129" lon="11.0414011"><ele>204.0</ele><time>2026-04-25T15:10:45.447Z</time></trkpt><trkpt lat="45.9096988" lon="11.0414589"><ele>204.0</ele><time>2026-04-25T15:10:46.447Z</time></trkpt><trkpt lat="45.9097918" lon="11.0415181"><ele>204.0</ele><time>2026-04-25T15:10:47.446Z</time></trkpt><trkpt lat="45.9098975" lon="11.0415821"><ele>204.0</ele><time>2026-04-25T15:10:48.446Z</time></trkpt><trkpt lat="45.9100164" lon="11.0416532"><ele>204.0</ele><time>2026-04-25T15:10:49.447Z</time></trkpt><trkpt lat="45.9101585" lon="11.0417352"><ele>204.33333333333331</ele><time>2026-04-25T15:10:50.447Z</time></trkpt><trkpt lat="45.9103124" lon="11.0418159"><ele>204.66666666666666</ele><time>2026-04-25T15:10:51.448Z</time></trkpt><trkpt lat="45.910465" lon="11.0418845"><ele>205.0</ele><time>2026-04-25T15:10:52.447Z</time></trkpt><trkpt lat="45.9106107" lon="11.0419387"><ele>205.0</ele><time>2026-04-25T15:10:53.447Z</time></trkpt><trkpt lat="45.9107485" lon="11.0419902"><ele>205.0</ele><time>2026-04-25T15:10:54.448Z</time></trkpt><trkpt lat="45.9108784" lon="11.0420522"><ele>205.0</ele><time>2026-04-25T15:10:55.447Z</time></trkpt><trkpt lat="45.9110098" lon="11.0421395"><ele>205.0</ele><time>2026-04-25T15:10:56.447Z</time></trkpt><trkpt lat="45.9111552" lon="11.0422507"><ele>205.0</ele><time>2026-04-25T15:10:57.447Z</time></trkpt><trkpt lat="45.9113123" lon="11.0423869"><ele>205.0</ele><time>2026-04-25T15:10:58.447Z</time></trkpt><trkpt lat="45.9114725" lon="11.0425393"><ele>205.0</ele><time>2026-04-25T15:10:59.447Z</time></trkpt><trkpt lat="45.9116265" lon="11.0427081"><ele>203.66666666666666</ele><time>2026-04-25T15:11:00.447Z</time></trkpt><trkpt lat="45.9117685" lon="11.0429036"><ele>202.33333333333331</ele><time>2026-04-25T15:11:01.447Z</time></trkpt><trkpt lat="45.9119004" lon="11.0431225"><ele>201.0</ele><time>2026-04-25T15:11:02.447Z</time></trkpt><trkpt lat="45.9120267" lon="11.0433448"><ele>201.0</ele><time>2026-04-25T15:11:03.447Z</time></trkpt><trkpt lat="45.9121568" lon="11.0435481"><ele>201.0</ele><time>2026-04-25T15:11:04.447Z</time></trkpt><trkpt lat="45.9122957" lon="11.0437246"><ele>201.0</ele><time>2026-04-25T15:11:05.447Z</time></trkpt><trkpt lat="45.9124381" lon="11.0438708"><ele>201.0</ele><time>2026-04-25T15:11:06.447Z</time></trkpt><trkpt lat="45.9125825" lon="11.0439876"><ele>201.0</ele><time>2026-04-25T15:11:07.448Z</time></trkpt><trkpt lat="45.9127173" lon="11.0441004"><ele>201.0</ele><time>2026-04-25T15:11:08.448Z</time></trkpt><trkpt lat="45.9128396" lon="11.0442287"><ele>201.0</ele><time>2026-04-25T15:11:09.447Z</time></trkpt><trkpt lat="45.9129638" lon="11.0443914"><ele>201.0</ele><time>2026-04-25T15:11:10.447Z</time></trkpt><trkpt lat="45.9130898" lon="11.0445838"><ele>201.0</ele><time>2026-04-25T15:11:11.447Z</time></trkpt><trkpt lat="45.9132166" lon="11.0447904"><ele>200.66666666666669</ele><time>2026-04-25T15:11:12.448Z</time></trkpt><trkpt lat="45.9133556" lon="11.0449884"><ele>200.33333333333334</ele><time>2026-04-25T15:11:13.448Z</time></trkpt><trkpt lat="45.9135127" lon="11.0451878"><ele>200.0</ele><time>2026-04-25T15:11:14.448Z</time></trkpt><trkpt lat="45.9136787" lon="11.0453791"><ele>200.0</ele><time>2026-04-25T15:11:15.448Z</time></trkpt><trkpt lat="45.913845" lon="11.0455543"><ele>200.0</ele><time>2026-04-25T15:11:16.447Z</time></trkpt><trkpt lat="45.9140129" lon="11.0457272"><ele>200.0</ele><time>2026-04-25T15:11:17.448Z</time></trkpt><trkpt lat="45.9141797" lon="11.0459076"><ele>198.0</ele><time>2026-04-25T15:11:18.447Z</time></trkpt><trkpt lat="45.9143381" lon="11.0460986"><ele>196.0</ele><time>2026-04-25T15:11:19.448Z</time></trkpt><trkpt lat="45.914479" lon="11.0462962"><ele>194.0</ele><time>2026-04-25T15:11:20.448Z</time></trkpt><trkpt lat="45.914597" lon="11.0465264"><ele>194.0</ele><time>2026-04-25T15:11:21.448Z</time></trkpt><trkpt lat="45.9146904" lon="11.0467943"><ele>194.0</ele><time>2026-04-25T15:11:22.448Z</time></trkpt><trkpt lat="45.9147713" lon="11.0470693"><ele>194.0</ele><time>2026-04-25T15:11:23.449Z</time></trkpt><trkpt lat="45.9148616" lon="11.0473469"><ele>197.0</ele><time>2026-04-25T15:11:24.448Z</time></trkpt><trkpt lat="45.914978" lon="11.0476257"><ele>200.0</ele><time>2026-04-25T15:11:25.447Z</time></trkpt><trkpt lat="45.9151225" lon="11.0478875"><ele>197.5</ele><time>2026-04-25T15:11:26.449Z</time></trkpt><trkpt lat="45.9152895" lon="11.0481212"><ele>195.0</ele><time>2026-04-25T15:11:27.448Z</time></trkpt><trkpt lat="45.9154607" lon="11.0483532"><ele>195.0</ele><time>2026-04-25T15:11:28.448Z</time></trkpt><trkpt lat="45.9156428" lon="11.0485534"><ele>195.0</ele><time>2026-04-25T15:11:29.449Z</time></trkpt><trkpt lat="45.9158347" lon="11.0487387"><ele>192.33333333333334</ele><time>2026-04-25T15:11:30.447Z</time></trkpt><trkpt lat="45.916016" lon="11.0489276"><ele>189.66666666666669</ele><time>2026-04-25T15:11:31.448Z</time></trkpt><trkpt lat="45.9161707" lon="11.0491505"><ele>187.0</ele><time>2026-04-25T15:11:32.448Z</time></trkpt><trkpt lat="45.9163063" lon="11.0494174"><ele>187.0</ele><time>2026-04-25T15:11:33.447Z</time></trkpt><trkpt lat="45.9164142" lon="11.0497051"><ele>187.0</ele><time>2026-04-25T15:11:34.448Z</time></trkpt><trkpt lat="45.916489" lon="11.0500185"><ele>188.0</ele><time>2026-04-25T15:11:35.449Z</time></trkpt><trkpt lat="45.9165343" lon="11.0503453"><ele>189.0</ele><time>2026-04-25T15:11:36.448Z</time></trkpt><trkpt lat="45.9165604" lon="11.0506776"><ele>189.33333333333334</ele><time>2026-04-25T15:11:37.448Z</time></trkpt><trkpt lat="45.916586" lon="11.0510046"><ele>189.66666666666669</ele><time>2026-04-25T15:11:38.449Z</time></trkpt><trkpt lat="45.9166222" lon="11.0513108"><ele>190.0</ele><time>2026-04-25T15:11:39.447Z</time></trkpt><trkpt lat="45.91669" lon="11.0516153"><ele>185.0</ele><time>2026-04-25T15:11:40.448Z</time></trkpt><trkpt lat="45.9167777" lon="11.0519168"><ele>180.0</ele><time>2026-04-25T15:11:41.447Z</time></trkpt><trkpt lat="45.9168679" lon="11.0522125"><ele>181.33333333333334</ele><time>2026-04-25T15:11:42.448Z</time></trkpt><trkpt lat="45.9169354" lon="11.052507"><ele>182.66666666666669</ele><time>2026-04-25T15:11:43.449Z</time></trkpt><trkpt lat="45.9169865" lon="11.0527963"><ele>184.0</ele><time>2026-04-25T15:11:44.449Z</time></trkpt><trkpt lat="45.9170195" lon="11.0530818"><ele>184.66666666666669</ele><time>2026-04-25T15:11:45.449Z</time></trkpt><trkpt lat="45.9170433" lon="11.0533655"><ele>185.33333333333334</ele><time>2026-04-25T15:11:46.448Z</time></trkpt><trkpt lat="45.9170592" lon="11.053643"><ele>186.0</ele><time>2026-04-25T15:11:47.448Z</time></trkpt><trkpt lat="45.917073" lon="11.0539228"><ele>185.66666666666666</ele><time>2026-04-25T15:11:48.448Z</time></trkpt><trkpt lat="45.9170901" lon="11.0542136"><ele>185.33333333333331</ele><time>2026-04-25T15:11:49.447Z</time></trkpt><trkpt lat="45.9171133" lon="11.0545182"><ele>185.0</ele><time>2026-04-25T15:11:50.449Z</time></trkpt><trkpt lat="45.9171334" lon="11.0548246"><ele>184.66666666666666</ele><time>2026-04-25T15:11:51.449Z</time></trkpt><trkpt lat="45.9171504" lon="11.0551345"><ele>184.33333333333334</ele><time>2026-04-25T15:11:52.448Z</time></trkpt><trkpt lat="45.9171689" lon="11.0554482"><ele>184.0</ele><time>2026-04-25T15:11:53.447Z</time></trkpt><trkpt lat="45.9171869" lon="11.0557595"><ele>184.33333333333334</ele><time>2026-04-25T15:11:54.448Z</time></trkpt><trkpt lat="45.91721" lon="11.0560741"><ele>184.66666666666666</ele><time>2026-04-25T15:11:55.449Z</time></trkpt><trkpt lat="45.9172295" lon="11.0563852"><ele>185.0</ele><time>2026-04-25T15:11:56.448Z</time></trkpt><trkpt lat="45.9172483" lon="11.0566966"><ele>185.0</ele><time>2026-04-25T15:11:57.449Z</time></trkpt><trkpt lat="45.9172586" lon="11.0570071"><ele>185.0</ele><time>2026-04-25T15:11:58.448Z</time></trkpt><trkpt lat="45.9172604" lon="11.0573122"><ele>185.0</ele><time>2026-04-25T15:11:59.448Z</time></trkpt><trkpt lat="45.9172603" lon="11.0576181"><ele>184.66666666666666</ele><time>2026-04-25T15:12:00.449Z</time></trkpt><trkpt lat="45.9172581" lon="11.0579253"><ele>184.33333333333334</ele><time>2026-04-25T15:12:01.449Z</time></trkpt><trkpt lat="45.9172561" lon="11.0582334"><ele>184.0</ele><time>2026-04-25T15:12:02.448Z</time></trkpt><trkpt lat="45.9172565" lon="11.0585429"><ele>185.0</ele><time>2026-04-25T15:12:03.448Z</time></trkpt><trkpt lat="45.9172602" lon="11.0588571"><ele>186.0</ele><time>2026-04-25T15:12:04.449Z</time></trkpt><trkpt lat="45.9172643" lon="11.0591702"><ele>187.0</ele><time>2026-04-25T15:12:05.448Z</time></trkpt><trkpt lat="45.9172688" lon="11.0594851"><ele>187.0</ele><time>2026-04-25T15:12:06.448Z</time></trkpt><trkpt lat="45.9172714" lon="11.0597965"><ele>187.0</ele><time>2026-04-25T15:12:07.448Z</time></trkpt><trkpt lat="45.9172723" lon="11.0601034"><ele>187.0</ele><time>2026-04-25T15:12:08.448Z</time></trkpt><trkpt lat="45.917275" lon="11.0604084"><ele>186.66666666666669</ele><time>2026-04-25T15:12:09.449Z</time></trkpt><trkpt lat="45.917283" lon="11.0607123"><ele>186.33333333333334</ele><time>2026-04-25T15:12:10.448Z</time></trkpt><trkpt lat="45.9173001" lon="11.0610149"><ele>186.0</ele><time>2026-04-25T15:12:11.449Z</time></trkpt><trkpt lat="45.9173254" lon="11.0613139"><ele>186.0</ele><time>2026-04-25T15:12:12.448Z</time></trkpt><trkpt lat="45.9173637" lon="11.0616046"><ele>186.0</ele><time>2026-04-25T15:12:13.448Z</time></trkpt><trkpt lat="45.9174168" lon="11.0618899"><ele>186.0</ele><time>2026-04-25T15:12:14.448Z</time></trkpt><trkpt lat="45.9174773" lon="11.062168"><ele>186.0</ele><time>2026-04-25T15:12:15.448Z</time></trkpt><trkpt lat="45.9175418" lon="11.0624367"><ele>186.0</ele><time>2026-04-25T15:12:16.449Z</time></trkpt><trkpt lat="45.9176086" lon="11.0627026"><ele>186.0</ele><time>2026-04-25T15:12:17.448Z</time></trkpt><trkpt lat="45.9176781" lon="11.0629729"><ele>185.33333333333334</ele><time>2026-04-25T15:12:18.448Z</time></trkpt><trkpt lat="45.9177453" lon="11.0632467"><ele>184.66666666666669</ele><time>2026-04-25T15:12:19.448Z</time></trkpt><trkpt lat="45.9178022" lon="11.0635328"><ele>184.0</ele><time>2026-04-25T15:12:20.448Z</time></trkpt><trkpt lat="45.917847" lon="11.0638333"><ele>183.5</ele><time>2026-04-25T15:12:21.449Z</time></trkpt><trkpt lat="45.9178738" lon="11.064155"><ele>183.0</ele><time>2026-04-25T15:12:22.449Z</time></trkpt><trkpt lat="45.9178924" lon="11.0644874"><ele>183.0</ele><time>2026-04-25T15:12:23.448Z</time></trkpt><trkpt lat="45.9179114" lon="11.0648209"><ele>183.0</ele><time>2026-04-25T15:12:24.448Z</time></trkpt><trkpt lat="45.9179345" lon="11.065141"><ele>183.0</ele><time>2026-04-25T15:12:25.449Z</time></trkpt><trkpt lat="45.9179626" lon="11.0654521"><ele>183.0</ele><time>2026-04-25T15:12:26.449Z</time></trkpt><trkpt lat="45.9179908" lon="11.06574"><ele>183.0</ele><time>2026-04-25T15:12:27.448Z</time></trkpt><trkpt lat="45.9180174" lon="11.0660175"><ele>183.0</ele><time>2026-04-25T15:12:28.449Z</time></trkpt><trkpt lat="45.9180361" lon="11.0662992"><ele>183.0</ele><time>2026-04-25T15:12:29.449Z</time></trkpt><trkpt lat="45.9180297" lon="11.0665812"><ele>183.0</ele><time>2026-04-25T15:12:30.449Z</time></trkpt><trkpt lat="45.9180109" lon="11.0668903"><ele>181.66666666666666</ele><time>2026-04-25T15:12:31.448Z</time></trkpt><trkpt lat="45.9179643" lon="11.0671924"><ele>180.33333333333331</ele><time>2026-04-25T15:12:32.449Z</time></trkpt><trkpt lat="45.9179031" lon="11.0674918"><ele>179.0</ele><time>2026-04-25T15:12:33.448Z</time></trkpt><trkpt lat="45.9178197" lon="11.0677811"><ele>178.5</ele><time>2026-04-25T15:12:34.449Z</time></trkpt><trkpt lat="45.9177501" lon="11.0680957"><ele>178.0</ele><time>2026-04-25T15:12:35.449Z</time></trkpt><trkpt lat="45.9176874" lon="11.06842"><ele>177.5</ele><time>2026-04-25T15:12:36.449Z</time></trkpt><trkpt lat="45.9176265" lon="11.0687435"><ele>177.0</ele><time>2026-04-25T15:12:37.45Z</time></trkpt><trkpt lat="45.9175664" lon="11.0690623"><ele>176.66666666666666</ele><time>2026-04-25T15:12:38.448Z</time></trkpt><trkpt lat="45.9175061" lon="11.0693764"><ele>176.33333333333331</ele><time>2026-04-25T15:12:39.449Z</time></trkpt><trkpt lat="45.9174447" lon="11.0696806"><ele>176.0</ele><time>2026-04-25T15:12:40.449Z</time></trkpt><trkpt lat="45.9173856" lon="11.0699806"><ele>175.33333333333331</ele><time>2026-04-25T15:12:41.45Z</time></trkpt><trkpt lat="45.9173282" lon="11.0702774"><ele>174.66666666666666</ele><time>2026-04-25T15:12:42.45Z</time></trkpt><trkpt lat="45.917273" lon="11.0705681"><ele>174.0</ele><time>2026-04-25T15:12:43.449Z</time></trkpt><trkpt lat="45.9172204" lon="11.070857"><ele>174.0</ele><time>2026-04-25T15:12:44.449Z</time></trkpt><trkpt lat="45.9171738" lon="11.0711444"><ele>174.0</ele><time>2026-04-25T15:12:45.45Z</time></trkpt><trkpt lat="45.917139" lon="11.0714327"><ele>174.0</ele><time>2026-04-25T15:12:46.448Z</time></trkpt><trkpt lat="45.9171179" lon="11.0717244"><ele>174.0</ele><time>2026-04-25T15:12:47.449Z</time></trkpt><trkpt lat="45.9171106" lon="11.0720149"><ele>174.0</ele><time>2026-04-25T15:12:48.45Z</time></trkpt><trkpt lat="45.9171126" lon="11.0723026"><ele>174.0</ele><time>2026-04-25T15:12:49.449Z</time></trkpt><trkpt lat="45.9171158" lon="11.0725784"><ele>174.0</ele><time>2026-04-25T15:12:50.449Z</time></trkpt><trkpt lat="45.9171199" lon="11.0728378"><ele>174.0</ele><time>2026-04-25T15:12:51.449Z</time></trkpt><trkpt lat="45.9171284" lon="11.0730872"><ele>174.0</ele><time>2026-04-25T15:12:52.449Z</time></trkpt><trkpt lat="45.9171523" lon="11.0733348"><ele>174.33333333333334</ele><time>2026-04-25T15:12:53.449Z</time></trkpt><trkpt lat="45.9172062" lon="11.0735757"><ele>174.66666666666669</ele><time>2026-04-25T15:12:54.449Z</time></trkpt><trkpt lat="45.9172885" lon="11.0738056"><ele>175.0</ele><time>2026-04-25T15:12:55.45Z</time></trkpt><trkpt lat="45.9173867" lon="11.0740141"><ele>175.0</ele><time>2026-04-25T15:12:56.449Z</time></trkpt><trkpt lat="45.9174921" lon="11.0742039"><ele>175.0</ele><time>2026-04-25T15:12:57.449Z</time></trkpt><trkpt lat="45.9175951" lon="11.0743667"><ele>175.0</ele><time>2026-04-25T15:12:58.449Z</time></trkpt><trkpt lat="45.9176961" lon="11.0745364"><ele>175.0</ele><time>2026-04-25T15:12:59.449Z</time></trkpt><trkpt lat="45.9177928" lon="11.0747251"><ele>175.0</ele><time>2026-04-25T15:13:00.45Z</time></trkpt><trkpt lat="45.917873" lon="11.074949"><ele>175.0</ele><time>2026-04-25T15:13:01.449Z</time></trkpt><trkpt lat="45.9179389" lon="11.0751966"><ele>175.0</ele><time>2026-04-25T15:13:02.449Z</time></trkpt><trkpt lat="45.9179829" lon="11.0754582"><ele>175.0</ele><time>2026-04-25T15:13:03.449Z</time></trkpt><trkpt lat="45.9180114" lon="11.0757289"><ele>175.0</ele><time>2026-04-25T15:13:04.449Z</time></trkpt><trkpt lat="45.9180277" lon="11.075995"><ele>175.0</ele><time>2026-04-25T15:13:05.449Z</time></trkpt><trkpt lat="45.9180376" lon="11.0762668"><ele>175.0</ele><time>2026-04-25T15:13:06.449Z</time></trkpt><trkpt lat="45.9180389" lon="11.0765359"><ele>175.0</ele><time>2026-04-25T15:13:07.449Z</time></trkpt><trkpt lat="45.9180307" lon="11.0768019"><ele>175.0</ele><time>2026-04-25T15:13:08.449Z</time></trkpt><trkpt lat="45.9180183" lon="11.0770549"><ele>175.0</ele><time>2026-04-25T15:13:09.45Z</time></trkpt><trkpt lat="45.9180129" lon="11.0773072"><ele>175.0</ele><time>2026-04-25T15:13:10.449Z</time></trkpt><trkpt lat="45.9180031" lon="11.077555"><ele>175.0</ele><time>2026-04-25T15:13:11.449Z</time></trkpt><trkpt lat="45.9179905" lon="11.0777983"><ele>175.0</ele><time>2026-04-25T15:13:12.449Z</time></trkpt><trkpt lat="45.9179779" lon="11.0780392"><ele>175.0</ele><time>2026-04-25T15:13:13.449Z</time></trkpt><trkpt lat="45.9179678" lon="11.0782751"><ele>175.33333333333334</ele><time>2026-04-25T15:13:14.449Z</time></trkpt><trkpt lat="45.9179588" lon="11.0785152"><ele>175.66666666666666</ele><time>2026-04-25T15:13:15.449Z</time></trkpt><trkpt lat="45.9179519" lon="11.0787594"><ele>176.0</ele><time>2026-04-25T15:13:16.449Z</time></trkpt><trkpt lat="45.9179517" lon="11.0790137"><ele>176.66666666666666</ele><time>2026-04-25T15:13:17.449Z</time></trkpt><trkpt lat="45.917963" lon="11.0792762"><ele>177.33333333333334</ele><time>2026-04-25T15:13:18.45Z</time></trkpt><trkpt lat="45.9179926" lon="11.0795381"><ele>178.0</ele><time>2026-04-25T15:13:19.449Z</time></trkpt><trkpt lat="45.9180369" lon="11.0798029"><ele>178.0</ele><time>2026-04-25T15:13:20.449Z</time></trkpt><trkpt lat="45.9180905" lon="11.0800593"><ele>178.0</ele><time>2026-04-25T15:13:21.449Z</time></trkpt><trkpt lat="45.9181558" lon="11.0802994"><ele>178.0</ele><time>2026-04-25T15:13:22.45Z</time></trkpt><trkpt lat="45.9182313" lon="11.0805324"><ele>178.0</ele><time>2026-04-25T15:13:23.449Z</time></trkpt><trkpt lat="45.9183092" lon="11.0807541"><ele>178.0</ele><time>2026-04-25T15:13:24.449Z</time></trkpt><trkpt lat="45.9183889" lon="11.0809661"><ele>178.0</ele><time>2026-04-25T15:13:25.449Z</time></trkpt><trkpt lat="45.918461" lon="11.0811813"><ele>177.66666666666669</ele><time>2026-04-25T15:13:26.449Z</time></trkpt><trkpt lat="45.9185297" lon="11.0814048"><ele>177.33333333333334</ele><time>2026-04-25T15:13:27.449Z</time></trkpt><trkpt lat="45.9185993" lon="11.0816332"><ele>177.0</ele><time>2026-04-25T15:13:28.45Z</time></trkpt><trkpt lat="45.9186692" lon="11.0818587"><ele>176.33333333333334</ele><time>2026-04-25T15:13:29.449Z</time></trkpt><trkpt lat="45.9187396" lon="11.0820785"><ele>175.66666666666669</ele><time>2026-04-25T15:13:30.449Z</time></trkpt><trkpt lat="45.9188105" lon="11.0823002"><ele>175.0</ele><time>2026-04-25T15:13:31.449Z</time></trkpt><trkpt lat="45.9188799" lon="11.0825218"><ele>175.0</ele><time>2026-04-25T15:13:32.45Z</time></trkpt><trkpt lat="45.918947" lon="11.0827425"><ele>175.0</ele><time>2026-04-25T15:13:33.45Z</time></trkpt><trkpt lat="45.9190159" lon="11.0829679"><ele>175.0</ele><time>2026-04-25T15:13:34.45Z</time></trkpt><trkpt lat="45.9190812" lon="11.0831979"><ele>175.0</ele><time>2026-04-25T15:13:35.45Z</time></trkpt><trkpt lat="45.9191423" lon="11.0834335"><ele>175.0</ele><time>2026-04-25T15:13:36.449Z</time></trkpt><trkpt lat="45.9191965" lon="11.0836741"><ele>175.0</ele><time>2026-04-25T15:13:37.45Z</time></trkpt><trkpt lat="45.9192429" lon="11.0839148"><ele>175.33333333333334</ele><time>2026-04-25T15:13:38.45Z</time></trkpt><trkpt lat="45.9192782" lon="11.0841544"><ele>175.66666666666666</ele><time>2026-04-25T15:13:39.45Z</time></trkpt><trkpt lat="45.9193039" lon="11.0844007"><ele>176.0</ele><time>2026-04-25T15:13:40.45Z</time></trkpt><trkpt lat="45.9193291" lon="11.0846483"><ele>176.0</ele><time>2026-04-25T15:13:41.449Z</time></trkpt><trkpt lat="45.9193595" lon="11.0848891"><ele>176.0</ele><time>2026-04-25T15:13:42.449Z</time></trkpt><trkpt lat="45.9193931" lon="11.0851227"><ele>176.0</ele><time>2026-04-25T15:13:43.45Z</time></trkpt><trkpt lat="45.9194242" lon="11.0853534"><ele>176.0</ele><time>2026-04-25T15:13:44.45Z</time></trkpt><trkpt lat="45.9194558" lon="11.0855831"><ele>176.0</ele><time>2026-04-25T15:13:45.45Z</time></trkpt><trkpt lat="45.9194866" lon="11.0858091"><ele>176.0</ele><time>2026-04-25T15:13:46.451Z</time></trkpt><trkpt lat="45.9195166" lon="11.0860266"><ele>175.75</ele><time>2026-04-25T15:13:47.449Z</time></trkpt><trkpt lat="45.9195449" lon="11.0862382"><ele>175.5</ele><time>2026-04-25T15:13:48.45Z</time></trkpt><trkpt lat="45.9195746" lon="11.0864476"><ele>175.25</ele><time>2026-04-25T15:13:49.45Z</time></trkpt><trkpt lat="45.9196081" lon="11.0866574"><ele>175.0</ele><time>2026-04-25T15:13:50.451Z</time></trkpt><trkpt lat="45.9196478" lon="11.0868692"><ele>175.0</ele><time>2026-04-25T15:13:51.45Z</time></trkpt><trkpt lat="45.9196968" lon="11.0870802"><ele>175.0</ele><time>2026-04-25T15:13:52.45Z</time></trkpt><trkpt lat="45.9197529" lon="11.0872912"><ele>175.0</ele><time>2026-04-25T15:13:53.45Z</time></trkpt><trkpt lat="45.9198152" lon="11.0874994"><ele>175.66666666666669</ele><time>2026-04-25T15:13:54.45Z</time></trkpt><trkpt lat="45.9198846" lon="11.08771"><ele>176.33333333333334</ele><time>2026-04-25T15:13:55.451Z</time></trkpt><trkpt lat="45.9199648" lon="11.0879211"><ele>177.0</ele><time>2026-04-25T15:13:56.45Z</time></trkpt><trkpt lat="45.9200433" lon="11.0881335"><ele>176.33333333333334</ele><time>2026-04-25T15:13:57.45Z</time></trkpt><trkpt lat="45.9201188" lon="11.0883523"><ele>175.66666666666669</ele><time>2026-04-25T15:13:58.45Z</time></trkpt><trkpt lat="45.9201922" lon="11.0885707"><ele>175.0</ele><time>2026-04-25T15:13:59.45Z</time></trkpt><trkpt lat="45.9202691" lon="11.0887861"><ele>175.0</ele><time>2026-04-25T15:14:00.45Z</time></trkpt><trkpt lat="45.9203559" lon="11.0889878"><ele>175.0</ele><time>2026-04-25T15:14:01.45Z</time></trkpt><trkpt lat="45.9204474" lon="11.0891757"><ele>175.0</ele><time>2026-04-25T15:14:02.45Z</time></trkpt><trkpt lat="45.9205402" lon="11.089355"><ele>175.66666666666669</ele><time>2026-04-25T15:14:03.45Z</time></trkpt><trkpt lat="45.9206306" lon="11.0895333"><ele>176.33333333333334</ele><time>2026-04-25T15:14:04.45Z</time></trkpt><trkpt lat="45.920724" lon="11.0897145"><ele>177.0</ele><time>2026-04-25T15:14:05.451Z</time></trkpt><trkpt lat="45.9208157" lon="11.0899026"><ele>176.33333333333334</ele><time>2026-04-25T15:14:06.45Z</time></trkpt><trkpt lat="45.9209089" lon="11.0900967"><ele>175.66666666666669</ele><time>2026-04-25T15:14:07.452Z</time></trkpt><trkpt lat="45.9210057" lon="11.0902901"><ele>175.0</ele><time>2026-04-25T15:14:08.45Z</time></trkpt><trkpt lat="45.9211073" lon="11.0904777"><ele>175.0</ele><time>2026-04-25T15:14:09.45Z</time></trkpt><trkpt lat="45.9212191" lon="11.0906545"><ele>175.0</ele><time>2026-04-25T15:14:10.45Z</time></trkpt><trkpt lat="45.9213421" lon="11.0908291"><ele>175.0</ele><time>2026-04-25T15:14:11.45Z</time></trkpt><trkpt lat="45.92147" lon="11.0909996"><ele>175.33333333333334</ele><time>2026-04-25T15:14:12.45Z</time></trkpt><trkpt lat="45.9216038" lon="11.0911686"><ele>175.66666666666666</ele><time>2026-04-25T15:14:13.451Z</time></trkpt><trkpt lat="45.9217368" lon="11.0913311"><ele>176.0</ele><time>2026-04-25T15:14:14.45Z</time></trkpt><trkpt lat="45.9218734" lon="11.0914956"><ele>179.0</ele><time>2026-04-25T15:14:15.45Z</time></trkpt><trkpt lat="45.9220138" lon="11.0916556"><ele>182.0</ele><time>2026-04-25T15:14:16.45Z</time></trkpt><trkpt lat="45.9221613" lon="11.0918085"><ele>185.0</ele><time>2026-04-25T15:14:17.45Z</time></trkpt><trkpt lat="45.9223149" lon="11.0919559"><ele>185.0</ele><time>2026-04-25T15:14:18.452Z</time></trkpt><trkpt lat="45.9224749" lon="11.0920938"><ele>185.0</ele><time>2026-04-25T15:14:19.451Z</time></trkpt><trkpt lat="45.9226366" lon="11.0922213"><ele>185.0</ele><time>2026-04-25T15:14:20.45Z</time></trkpt><trkpt lat="45.9228029" lon="11.0923305"><ele>186.33333333333331</ele><time>2026-04-25T15:14:21.451Z</time></trkpt><trkpt lat="45.9229679" lon="11.0924165"><ele>187.66666666666666</ele><time>2026-04-25T15:14:22.451Z</time></trkpt><trkpt lat="45.923118" lon="11.0924879"><ele>189.0</ele><time>2026-04-25T15:14:23.45Z</time></trkpt><trkpt lat="45.9232627" lon="11.0925502"><ele>187.33333333333334</ele><time>2026-04-25T15:14:24.451Z</time></trkpt><trkpt lat="45.9234044" lon="11.0926109"><ele>185.66666666666669</ele><time>2026-04-25T15:14:25.45Z</time></trkpt><trkpt lat="45.9235519" lon="11.0926652"><ele>184.0</ele><time>2026-04-25T15:14:26.452Z</time></trkpt><trkpt lat="45.9237028" lon="11.0927114"><ele>184.0</ele><time>2026-04-25T15:14:27.45Z</time></trkpt><trkpt lat="45.9238591" lon="11.0927513"><ele>184.0</ele><time>2026-04-25T15:14:28.45Z</time></trkpt><trkpt lat="45.9240205" lon="11.092789"><ele>184.0</ele><time>2026-04-25T15:14:29.451Z</time></trkpt><trkpt lat="45.9241842" lon="11.0928297"><ele>182.66666666666669</ele><time>2026-04-25T15:14:30.45Z</time></trkpt><trkpt lat="45.9243483" lon="11.0928765"><ele>181.33333333333334</ele><time>2026-04-25T15:14:31.45Z</time></trkpt><trkpt lat="45.9245144" lon="11.0929221"><ele>180.0</ele><time>2026-04-25T15:14:32.45Z</time></trkpt><trkpt lat="45.9246849" lon="11.0929677"><ele>180.0</ele><time>2026-04-25T15:14:33.45Z</time></trkpt><trkpt lat="45.9248494" lon="11.0930113"><ele>180.0</ele><time>2026-04-25T15:14:34.451Z</time></trkpt><trkpt lat="45.925012" lon="11.0930547"><ele>180.0</ele><time>2026-04-25T15:14:35.451Z</time></trkpt><trkpt lat="45.9251684" lon="11.0930958"><ele>179.33333333333334</ele><time>2026-04-25T15:14:36.451Z</time></trkpt><trkpt lat="45.9253244" lon="11.0931339"><ele>178.66666666666669</ele><time>2026-04-25T15:14:37.451Z</time></trkpt><trkpt lat="45.9254794" lon="11.0931668"><ele>178.0</ele><time>2026-04-25T15:14:38.451Z</time></trkpt><trkpt lat="45.9256324" lon="11.0931936"><ele>178.0</ele><time>2026-04-25T15:14:39.45Z</time></trkpt><trkpt lat="45.9257852" lon="11.0932125"><ele>178.0</ele><time>2026-04-25T15:14:40.451Z</time></trkpt><trkpt lat="45.9259412" lon="11.0932242"><ele>178.0</ele><time>2026-04-25T15:14:41.452Z</time></trkpt><trkpt lat="45.9261034" lon="11.0932302"><ele>178.66666666666669</ele><time>2026-04-25T15:14:42.451Z</time></trkpt><trkpt lat="45.9262716" lon="11.0932297"><ele>179.33333333333334</ele><time>2026-04-25T15:14:43.451Z</time></trkpt><trkpt lat="45.9264427" lon="11.0932258"><ele>180.0</ele><time>2026-04-25T15:14:44.451Z</time></trkpt><trkpt lat="45.9266119" lon="11.0932184"><ele>180.66666666666666</ele><time>2026-04-25T15:14:45.451Z</time></trkpt><trkpt lat="45.926774" lon="11.0932102"><ele>181.33333333333331</ele><time>2026-04-25T15:14:46.451Z</time></trkpt><trkpt lat="45.9269315" lon="11.0932018"><ele>182.0</ele><time>2026-04-25T15:14:47.451Z</time></trkpt><trkpt lat="45.9270872" lon="11.0931934"><ele>182.0</ele><time>2026-04-25T15:14:48.45Z</time></trkpt><trkpt lat="45.9272443" lon="11.0931877"><ele>182.0</ele><time>2026-04-25T15:14:49.452Z</time></trkpt><trkpt lat="45.9274024" lon="11.093184"><ele>182.0</ele><time>2026-04-25T15:14:50.452Z</time></trkpt><trkpt lat="45.9275593" lon="11.0931831"><ele>183.66666666666666</ele><time>2026-04-25T15:14:51.452Z</time></trkpt><trkpt lat="45.9277164" lon="11.0931798"><ele>185.33333333333334</ele><time>2026-04-25T15:14:52.452Z</time></trkpt><trkpt lat="45.9278749" lon="11.093173"><ele>187.0</ele><time>2026-04-25T15:14:53.452Z</time></trkpt><trkpt lat="45.9280367" lon="11.0931671"><ele>187.0</ele><time>2026-04-25T15:14:54.451Z</time></trkpt><trkpt lat="45.9282025" lon="11.0931623"><ele>187.0</ele><time>2026-04-25T15:14:55.451Z</time></trkpt><trkpt lat="45.9283717" lon="11.0931569"><ele>187.0</ele><time>2026-04-25T15:14:56.451Z</time></trkpt><trkpt lat="45.9285436" lon="11.0931515"><ele>189.0</ele><time>2026-04-25T15:14:57.451Z</time></trkpt><trkpt lat="45.9287144" lon="11.0931455"><ele>191.0</ele><time>2026-04-25T15:14:58.451Z</time></trkpt><trkpt lat="45.9288791" lon="11.0931396"><ele>193.0</ele><time>2026-04-25T15:14:59.451Z</time></trkpt><trkpt lat="45.9290345" lon="11.0931333"><ele>193.0</ele><time>2026-04-25T15:15:00.452Z</time></trkpt><trkpt lat="45.9291813" lon="11.0931284"><ele>193.0</ele><time>2026-04-25T15:15:01.451Z</time></trkpt><trkpt lat="45.9293219" lon="11.0931298"><ele>193.0</ele><time>2026-04-25T15:15:02.452Z</time></trkpt><trkpt lat="45.9294601" lon="11.0931342"><ele>193.0</ele><time>2026-04-25T15:15:03.451Z</time></trkpt><trkpt lat="45.9295949" lon="11.0931466"><ele>193.75</ele><time>2026-04-25T15:15:04.451Z</time></trkpt><trkpt lat="45.9297319" lon="11.0931595"><ele>194.5</ele><time>2026-04-25T15:15:05.451Z</time></trkpt><trkpt lat="45.9298751" lon="11.0931771"><ele>195.25</ele><time>2026-04-25T15:15:06.452Z</time></trkpt><trkpt lat="45.9300214" lon="11.0932119"><ele>196.0</ele><time>2026-04-25T15:15:07.451Z</time></trkpt><trkpt lat="45.930172" lon="11.0932719"><ele>196.33333333333331</ele><time>2026-04-25T15:15:08.452Z</time></trkpt><trkpt lat="45.9303234" lon="11.0933615"><ele>196.66666666666669</ele><time>2026-04-25T15:15:09.451Z</time></trkpt><trkpt lat="45.9304872" lon="11.0934843"><ele>197.0</ele><time>2026-04-25T15:15:10.451Z</time></trkpt><trkpt lat="45.9306329" lon="11.0935984"><ele>197.0</ele><time>2026-04-25T15:15:11.452Z</time></trkpt><trkpt lat="45.9307706" lon="11.0937114"><ele>197.0</ele><time>2026-04-25T15:15:12.451Z</time></trkpt><trkpt lat="45.9309089" lon="11.0938223"><ele>197.0</ele><time>2026-04-25T15:15:13.452Z</time></trkpt><trkpt lat="45.9310432" lon="11.0939349"><ele>195.66666666666669</ele><time>2026-04-25T15:15:14.451Z</time></trkpt><trkpt lat="45.9311815" lon="11.094046"><ele>194.33333333333331</ele><time>2026-04-25T15:15:15.452Z</time></trkpt><trkpt lat="45.9313235" lon="11.0941587"><ele>193.0</ele><time>2026-04-25T15:15:16.452Z</time></trkpt><trkpt lat="45.9314692" lon="11.09427"><ele>192.33333333333331</ele><time>2026-04-25T15:15:17.453Z</time></trkpt><trkpt lat="45.9316153" lon="11.0943767"><ele>191.66666666666666</ele><time>2026-04-25T15:15:18.453Z</time></trkpt><trkpt lat="45.9317591" lon="11.0944836"><ele>191.0</ele><time>2026-04-25T15:15:19.451Z</time></trkpt><trkpt lat="45.9318978" lon="11.0945888"><ele>190.66666666666666</ele><time>2026-04-25T15:15:20.453Z</time></trkpt><trkpt lat="45.9320362" lon="11.0946947"><ele>190.33333333333334</ele><time>2026-04-25T15:15:21.451Z</time></trkpt><trkpt lat="45.932175" lon="11.0947995"><ele>190.0</ele><time>2026-04-25T15:15:22.451Z</time></trkpt><trkpt lat="45.9323111" lon="11.0949007"><ele>190.0</ele><time>2026-04-25T15:15:23.452Z</time></trkpt><trkpt lat="45.9324381" lon="11.0949947"><ele>190.0</ele><time>2026-04-25T15:15:24.452Z</time></trkpt><trkpt lat="45.9325593" lon="11.0950874"><ele>190.0</ele><time>2026-04-25T15:15:25.452Z</time></trkpt><trkpt lat="45.9326774" lon="11.0951799"><ele>190.0</ele><time>2026-04-25T15:15:26.452Z</time></trkpt><trkpt lat="45.9327941" lon="11.0952719"><ele>190.25</ele><time>2026-04-25T15:15:27.452Z</time></trkpt><trkpt lat="45.9329106" lon="11.0953587"><ele>190.5</ele><time>2026-04-25T15:15:28.452Z</time></trkpt><trkpt lat="45.9330241" lon="11.0954415"><ele>190.75</ele><time>2026-04-25T15:15:29.453Z</time></trkpt><trkpt lat="45.9331308" lon="11.0955202"><ele>191.0</ele><time>2026-04-25T15:15:30.452Z</time></trkpt><trkpt lat="45.9332298" lon="11.095594"><ele>191.0</ele><time>2026-04-25T15:15:31.452Z</time></trkpt><trkpt lat="45.9333231" lon="11.0956623"><ele>191.0</ele><time>2026-04-25T15:15:32.451Z</time></trkpt><trkpt lat="45.9334331" lon="11.0957278"><ele>191.0</ele><time>2026-04-25T15:15:33.451Z</time></trkpt><trkpt lat="45.933561" lon="11.0957865"><ele>191.0</ele><time>2026-04-25T15:15:34.452Z</time></trkpt><trkpt lat="45.9337035" lon="11.0958374"><ele>191.33333333333331</ele><time>2026-04-25T15:15:35.452Z</time></trkpt><trkpt lat="45.9338526" lon="11.0958766"><ele>191.66666666666666</ele><time>2026-04-25T15:15:36.452Z</time></trkpt><trkpt lat="45.9340029" lon="11.0959061"><ele>192.0</ele><time>2026-04-25T15:15:37.451Z</time></trkpt><trkpt lat="45.9341555" lon="11.0959297"><ele>191.66666666666666</ele><time>2026-04-25T15:15:38.453Z</time></trkpt><trkpt lat="45.9343109" lon="11.0959578"><ele>191.33333333333331</ele><time>2026-04-25T15:15:39.452Z</time></trkpt><trkpt lat="45.9344689" lon="11.0959976"><ele>191.0</ele><time>2026-04-25T15:15:40.453Z</time></trkpt><trkpt lat="45.9346334" lon="11.096031"><ele>191.0</ele><time>2026-04-25T15:15:41.451Z</time></trkpt><trkpt lat="45.9347963" lon="11.0960673"><ele>191.0</ele><time>2026-04-25T15:15:42.453Z</time></trkpt><trkpt lat="45.9349591" lon="11.0961051"><ele>191.0</ele><time>2026-04-25T15:15:43.453Z</time></trkpt><trkpt lat="45.9351294" lon="11.0961443"><ele>190.33333333333331</ele><time>2026-04-25T15:15:44.452Z</time></trkpt><trkpt lat="45.9353186" lon="11.0961844"><ele>189.66666666666666</ele><time>2026-04-25T15:15:45.452Z</time></trkpt><trkpt lat="45.9355267" lon="11.0962327"><ele>189.0</ele><time>2026-04-25T15:15:46.452Z</time></trkpt><trkpt lat="45.9357481" lon="11.0962969"><ele>187.66666666666666</ele><time>2026-04-25T15:15:47.452Z</time></trkpt><trkpt lat="45.9359662" lon="11.0963643"><ele>186.33333333333331</ele><time>2026-04-25T15:15:48.452Z</time></trkpt><trkpt lat="45.9361802" lon="11.0964216"><ele>185.0</ele><time>2026-04-25T15:15:49.453Z</time></trkpt><trkpt lat="45.9363994" lon="11.0964718"><ele>185.0</ele><time>2026-04-25T15:15:50.453Z</time></trkpt><trkpt lat="45.9366173" lon="11.0965162"><ele>185.0</ele><time>2026-04-25T15:15:51.452Z</time></trkpt><trkpt lat="45.9368316" lon="11.096562"><ele>185.0</ele><time>2026-04-25T15:15:52.452Z</time></trkpt><trkpt lat="45.9370472" lon="11.0966048"><ele>184.33333333333331</ele><time>2026-04-25T15:15:53.452Z</time></trkpt><trkpt lat="45.9372636" lon="11.0966497"><ele>183.66666666666666</ele><time>2026-04-25T15:15:54.452Z</time></trkpt><trkpt lat="45.9374772" lon="11.0967004"><ele>183.0</ele><time>2026-04-25T15:15:55.452Z</time></trkpt><trkpt lat="45.9376871" lon="11.0967611"><ele>182.66666666666666</ele><time>2026-04-25T15:15:56.452Z</time></trkpt><trkpt lat="45.9378943" lon="11.0968338"><ele>182.33333333333331</ele><time>2026-04-25T15:15:57.452Z</time></trkpt><trkpt lat="45.9380999" lon="11.0969222"><ele>182.0</ele><time>2026-04-25T15:15:58.452Z</time></trkpt><trkpt lat="45.9383058" lon="11.0970375"><ele>181.66666666666666</ele><time>2026-04-25T15:15:59.452Z</time></trkpt><trkpt lat="45.9385055" lon="11.0971894"><ele>181.33333333333334</ele><time>2026-04-25T15:16:00.452Z</time></trkpt><trkpt lat="45.9386851" lon="11.0973768"><ele>181.0</ele><time>2026-04-25T15:16:01.452Z</time></trkpt><trkpt lat="45.9388574" lon="11.0975939"><ele>181.0</ele><time>2026-04-25T15:16:02.452Z</time></trkpt><trkpt lat="45.9390233" lon="11.0978266"><ele>181.0</ele><time>2026-04-25T15:16:03.453Z</time></trkpt><trkpt lat="45.9391898" lon="11.0980622"><ele>180.0</ele><time>2026-04-25T15:16:04.452Z</time></trkpt><trkpt lat="45.9393657" lon="11.0983012"><ele>179.0</ele><time>2026-04-25T15:16:05.452Z</time></trkpt><trkpt lat="45.9395451" lon="11.0985289"><ele>179.0</ele><time>2026-04-25T15:16:06.453Z</time></trkpt><trkpt lat="45.9397299" lon="11.098751"><ele>179.0</ele><time>2026-04-25T15:16:07.452Z</time></trkpt><trkpt lat="45.9399151" lon="11.0989707"><ele>179.0</ele><time>2026-04-25T15:16:08.452Z</time></trkpt><trkpt lat="45.9400999" lon="11.0991883"><ele>179.0</ele><time>2026-04-25T15:16:09.453Z</time></trkpt><trkpt lat="45.9402867" lon="11.0994013"><ele>179.0</ele><time>2026-04-25T15:16:10.452Z</time></trkpt><trkpt lat="45.9404828" lon="11.0996034"><ele>179.0</ele><time>2026-04-25T15:16:11.453Z</time></trkpt><trkpt lat="45.9406871" lon="11.0997951"><ele>178.0</ele><time>2026-04-25T15:16:12.452Z</time></trkpt><trkpt lat="45.9408919" lon="11.0999755"><ele>177.0</ele><time>2026-04-25T15:16:13.452Z</time></trkpt><trkpt lat="45.9411" lon="11.1001444"><ele>177.0</ele><time>2026-04-25T15:16:14.452Z</time></trkpt><trkpt lat="45.9413115" lon="11.1002981"><ele>177.0</ele><time>2026-04-25T15:16:15.453Z</time></trkpt><trkpt lat="45.9415228" lon="11.1004432"><ele>177.0</ele><time>2026-04-25T15:16:16.453Z</time></trkpt><trkpt lat="45.9417366" lon="11.1005861"><ele>177.0</ele><time>2026-04-25T15:16:17.453Z</time></trkpt><trkpt lat="45.9419504" lon="11.1007182"><ele>178.5</ele><time>2026-04-25T15:16:18.452Z</time></trkpt><trkpt lat="45.9421607" lon="11.1008536"><ele>180.0</ele><time>2026-04-25T15:16:19.454Z</time></trkpt><trkpt lat="45.9423702" lon="11.1009925"><ele>179.5</ele><time>2026-04-25T15:16:20.453Z</time></trkpt><trkpt lat="45.9425775" lon="11.1011319"><ele>179.0</ele><time>2026-04-25T15:16:21.452Z</time></trkpt><trkpt lat="45.942784" lon="11.1012703"><ele>179.0</ele><time>2026-04-25T15:16:22.452Z</time></trkpt><trkpt lat="45.9429913" lon="11.1014056"><ele>179.0</ele><time>2026-04-25T15:16:23.452Z</time></trkpt><trkpt lat="45.9431998" lon="11.1015407"><ele>179.5</ele><time>2026-04-25T15:16:24.453Z</time></trkpt><trkpt lat="45.9434091" lon="11.1016773"><ele>180.0</ele><time>2026-04-25T15:16:25.452Z</time></trkpt><trkpt lat="45.9436155" lon="11.1018141"><ele>180.0</ele><time>2026-04-25T15:16:26.452Z</time></trkpt><trkpt lat="45.9438115" lon="11.1019438"><ele>180.0</ele><time>2026-04-25T15:16:27.452Z</time></trkpt><trkpt lat="45.9439936" lon="11.1020623"><ele>180.0</ele><time>2026-04-25T15:16:28.452Z</time></trkpt><trkpt lat="45.944162" lon="11.1021731"><ele>179.0</ele><time>2026-04-25T15:16:29.454Z</time></trkpt><trkpt lat="45.9443212" lon="11.1022787"><ele>178.0</ele><time>2026-04-25T15:16:30.454Z</time></trkpt><trkpt lat="45.9444737" lon="11.1023789"><ele>177.0</ele><time>2026-04-25T15:16:31.454Z</time></trkpt><trkpt lat="45.9446182" lon="11.1024771"><ele>179.0</ele><time>2026-04-25T15:16:32.453Z</time></trkpt><trkpt lat="45.9447539" lon="11.1025737"><ele>181.0</ele><time>2026-04-25T15:16:33.453Z</time></trkpt><trkpt lat="45.9448923" lon="11.1026723"><ele>183.0</ele><time>2026-04-25T15:16:34.453Z</time></trkpt><trkpt lat="45.945036" lon="11.1027739"><ele>182.0</ele><time>2026-04-25T15:16:35.453Z</time></trkpt><trkpt lat="45.945186" lon="11.1028776"><ele>181.0</ele><time>2026-04-25T15:16:36.453Z</time></trkpt><trkpt lat="45.9453407" lon="11.1029863"><ele>180.0</ele><time>2026-04-25T15:16:37.453Z</time></trkpt><trkpt lat="45.9455011" lon="11.1030989"><ele>180.0</ele><time>2026-04-25T15:16:38.454Z</time></trkpt><trkpt lat="45.9456762" lon="11.1032202"><ele>180.0</ele><time>2026-04-25T15:16:39.453Z</time></trkpt><trkpt lat="45.9458729" lon="11.1033598"><ele>180.0</ele><time>2026-04-25T15:16:40.453Z</time></trkpt><trkpt lat="45.9460941" lon="11.1035168"><ele>181.5</ele><time>2026-04-25T15:16:41.453Z</time></trkpt><trkpt lat="45.9463378" lon="11.1036937"><ele>183.0</ele><time>2026-04-25T15:16:42.453Z</time></trkpt><trkpt lat="45.9465912" lon="11.1038767"><ele>182.0</ele><time>2026-04-25T15:16:43.453Z</time></trkpt><trkpt lat="45.9468377" lon="11.1040542"><ele>181.0</ele><time>2026-04-25T15:16:44.454Z</time></trkpt><trkpt lat="45.9470595" lon="11.1042168"><ele>181.66666666666669</ele><time>2026-04-25T15:16:45.452Z</time></trkpt><trkpt lat="45.9472614" lon="11.1043647"><ele>182.33333333333334</ele><time>2026-04-25T15:16:46.453Z</time></trkpt><trkpt lat="45.9474373" lon="11.1045009"><ele>183.0</ele><time>2026-04-25T15:16:47.453Z</time></trkpt><trkpt lat="45.9475922" lon="11.1046215"><ele>183.0</ele><time>2026-04-25T15:16:48.453Z</time></trkpt><trkpt lat="45.9477253" lon="11.1047317"><ele>183.0</ele><time>2026-04-25T15:16:49.453Z</time></trkpt><trkpt lat="45.9478512" lon="11.1048384"><ele>183.0</ele><time>2026-04-25T15:16:50.453Z</time></trkpt><trkpt lat="45.9479769" lon="11.1049473"><ele>183.0</ele><time>2026-04-25T15:16:51.453Z</time></trkpt><trkpt lat="45.94811" lon="11.1050669"><ele>183.66666666666666</ele><time>2026-04-25T15:16:52.453Z</time></trkpt><trkpt lat="45.9482735" lon="11.1052111"><ele>184.33333333333331</ele><time>2026-04-25T15:16:53.454Z</time></trkpt><trkpt lat="45.9484542" lon="11.1053712"><ele>185.0</ele><time>2026-04-25T15:16:54.453Z</time></trkpt><trkpt lat="45.9486393" lon="11.1055403"><ele>185.0</ele><time>2026-04-25T15:16:55.453Z</time></trkpt><trkpt lat="45.9488141" lon="11.1057"><ele>185.0</ele><time>2026-04-25T15:16:56.453Z</time></trkpt><trkpt lat="45.9489764" lon="11.1058413"><ele>185.0</ele><time>2026-04-25T15:16:57.454Z</time></trkpt><trkpt lat="45.9491364" lon="11.1059756"><ele>185.33333333333331</ele><time>2026-04-25T15:16:58.454Z</time></trkpt><trkpt lat="45.9492957" lon="11.1061102"><ele>185.66666666666666</ele><time>2026-04-25T15:16:59.453Z</time></trkpt><trkpt lat="45.9494498" lon="11.1062404"><ele>186.0</ele><time>2026-04-25T15:17:00.453Z</time></trkpt><trkpt lat="45.949594" lon="11.1063665"><ele>186.0</ele><time>2026-04-25T15:17:01.453Z</time></trkpt><trkpt lat="45.9497324" lon="11.1065007"><ele>186.0</ele><time>2026-04-25T15:17:02.453Z</time></trkpt><trkpt lat="45.9498578" lon="11.106639"><ele>186.0</ele><time>2026-04-25T15:17:03.454Z</time></trkpt><trkpt lat="45.9499697" lon="11.106795"><ele>186.0</ele><time>2026-04-25T15:17:04.453Z</time></trkpt><trkpt lat="45.9500613" lon="11.1069634"><ele>186.0</ele><time>2026-04-25T15:17:05.453Z</time></trkpt><trkpt lat="45.9501627" lon="11.1070955"><ele>186.0</ele><time>2026-04-25T15:17:06.454Z</time></trkpt><trkpt lat="45.9502736" lon="11.1072059"><ele>186.0</ele><time>2026-04-25T15:17:07.454Z</time></trkpt><trkpt lat="45.9503896" lon="11.1072995"><ele>186.0</ele><time>2026-04-25T15:17:08.453Z</time></trkpt><trkpt lat="45.9505049" lon="11.1073902"><ele>186.0</ele><time>2026-04-25T15:17:09.453Z</time></trkpt><trkpt lat="45.9506257" lon="11.1074866"><ele>186.0</ele><time>2026-04-25T15:17:10.453Z</time></trkpt><trkpt lat="45.9507603" lon="11.1075979"><ele>186.0</ele><time>2026-04-25T15:17:11.453Z</time></trkpt><trkpt lat="45.9509169" lon="11.1077266"><ele>186.33333333333334</ele><time>2026-04-25T15:17:12.453Z</time></trkpt><trkpt lat="45.9510967" lon="11.1078816"><ele>186.66666666666669</ele><time>2026-04-25T15:17:13.453Z</time></trkpt><trkpt lat="45.9512888" lon="11.1080669"><ele>187.0</ele><time>2026-04-25T15:17:14.454Z</time></trkpt><trkpt lat="45.9514839" lon="11.1082586"><ele>187.33333333333334</ele><time>2026-04-25T15:17:15.454Z</time></trkpt><trkpt lat="45.9516751" lon="11.1084359"><ele>187.66666666666666</ele><time>2026-04-25T15:17:16.453Z</time></trkpt><trkpt lat="45.9518561" lon="11.1085929"><ele>188.0</ele><time>2026-04-25T15:17:17.454Z</time></trkpt><trkpt lat="45.9520231" lon="11.108736"><ele>188.0</ele><time>2026-04-25T15:17:18.453Z</time></trkpt><trkpt lat="45.9521781" lon="11.1088679"><ele>188.0</ele><time>2026-04-25T15:17:19.454Z</time></trkpt><trkpt lat="45.9523267" lon="11.1089986"><ele>188.0</ele><time>2026-04-25T15:17:20.454Z</time></trkpt><trkpt lat="45.9524726" lon="11.1091266"><ele>186.66666666666666</ele><time>2026-04-25T15:17:21.454Z</time></trkpt><trkpt lat="45.9526135" lon="11.109247"><ele>185.33333333333334</ele><time>2026-04-25T15:17:22.453Z</time></trkpt><trkpt lat="45.9527562" lon="11.1093624"><ele>184.0</ele><time>2026-04-25T15:17:23.454Z</time></trkpt><trkpt lat="45.9529036" lon="11.1094675"><ele>184.0</ele><time>2026-04-25T15:17:24.454Z</time></trkpt><trkpt lat="45.953054" lon="11.1095669"><ele>184.0</ele><time>2026-04-25T15:17:25.454Z</time></trkpt><trkpt lat="45.9532055" lon="11.1096571"><ele>184.0</ele><time>2026-04-25T15:17:26.453Z</time></trkpt><trkpt lat="45.9533623" lon="11.1097279"><ele>183.0</ele><time>2026-04-25T15:17:27.454Z</time></trkpt><trkpt lat="45.9535186" lon="11.1097847"><ele>182.0</ele><time>2026-04-25T15:17:28.454Z</time></trkpt><trkpt lat="45.953688" lon="11.1098247"><ele>181.0</ele><time>2026-04-25T15:17:29.454Z</time></trkpt><trkpt lat="45.9538602" lon="11.1098478"><ele>181.0</ele><time>2026-04-25T15:17:30.454Z</time></trkpt><trkpt lat="45.95403" lon="11.1098546"><ele>181.0</ele><time>2026-04-25T15:17:31.453Z</time></trkpt><trkpt lat="45.9541997" lon="11.1098528"><ele>181.0</ele><time>2026-04-25T15:17:32.454Z</time></trkpt><trkpt lat="45.9543698" lon="11.1098438"><ele>181.33333333333334</ele><time>2026-04-25T15:17:33.453Z</time></trkpt><trkpt lat="45.9545441" lon="11.1098416"><ele>181.66666666666666</ele><time>2026-04-25T15:17:34.454Z</time></trkpt><trkpt lat="45.9547217" lon="11.1098445"><ele>182.0</ele><time>2026-04-25T15:17:35.455Z</time></trkpt><trkpt lat="45.9548983" lon="11.1098401"><ele>182.33333333333331</ele><time>2026-04-25T15:17:36.453Z</time></trkpt><trkpt lat="45.9550715" lon="11.1098367"><ele>182.66666666666666</ele><time>2026-04-25T15:17:37.455Z</time></trkpt><trkpt lat="45.9552446" lon="11.1098305"><ele>183.0</ele><time>2026-04-25T15:17:38.455Z</time></trkpt><trkpt lat="45.9554212" lon="11.1098244"><ele>183.0</ele><time>2026-04-25T15:17:39.453Z</time></trkpt><trkpt lat="45.955605" lon="11.1098246"><ele>183.0</ele><time>2026-04-25T15:17:40.454Z</time></trkpt><trkpt lat="45.9558033" lon="11.1098239"><ele>183.0</ele><time>2026-04-25T15:17:41.453Z</time></trkpt><trkpt lat="45.9560213" lon="11.1098133"><ele>182.5</ele><time>2026-04-25T15:17:42.453Z</time></trkpt><trkpt lat="45.9562528" lon="11.1098032"><ele>182.0</ele><time>2026-04-25T15:17:43.455Z</time></trkpt><trkpt lat="45.956477" lon="11.1097949"><ele>182.0</ele><time>2026-04-25T15:17:44.454Z</time></trkpt><trkpt lat="45.9566814" lon="11.1097817"><ele>182.0</ele><time>2026-04-25T15:17:45.454Z</time></trkpt><trkpt lat="45.9568643" lon="11.1097776"><ele>182.0</ele><time>2026-04-25T15:17:46.454Z</time></trkpt><trkpt lat="45.9570257" lon="11.1097978"><ele>184.0</ele><time>2026-04-25T15:17:47.455Z</time></trkpt><trkpt lat="45.9571795" lon="11.1098125"><ele>186.0</ele><time>2026-04-25T15:17:48.455Z</time></trkpt><trkpt lat="45.9575194" lon="11.1099262"><ele>188.0</ele><time>2026-04-25T15:17:50.454Z</time></trkpt><trkpt lat="45.9577233" lon="11.1099927"><ele>190.0</ele><time>2026-04-25T15:17:51.455Z</time></trkpt><trkpt lat="45.9579151" lon="11.1100231"><ele>192.0</ele><time>2026-04-25T15:17:52.455Z</time></trkpt><trkpt lat="45.9581235" lon="11.1100726"><ele>192.0</ele><time>2026-04-25T15:17:53.454Z</time></trkpt><trkpt lat="45.9583278" lon="11.1100955"><ele>192.0</ele><time>2026-04-25T15:17:54.454Z</time></trkpt><trkpt lat="45.9585263" lon="11.1101358"><ele>192.0</ele><time>2026-04-25T15:17:55.454Z</time></trkpt><trkpt lat="45.958736" lon="11.1101616"><ele>193.0</ele><time>2026-04-25T15:17:56.454Z</time></trkpt><trkpt lat="45.9589344" lon="11.1101801"><ele>194.0</ele><time>2026-04-25T15:17:57.455Z</time></trkpt><trkpt lat="45.9591296" lon="11.1101981"><ele>195.0</ele><time>2026-04-25T15:17:58.454Z</time></trkpt><trkpt lat="45.9593306" lon="11.110218"><ele>195.0</ele><time>2026-04-25T15:17:59.455Z</time></trkpt><trkpt lat="45.9595433" lon="11.1102351"><ele>195.0</ele><time>2026-04-25T15:18:00.455Z</time></trkpt><trkpt lat="45.959752" lon="11.1102545"><ele>195.0</ele><time>2026-04-25T15:18:01.454Z</time></trkpt><trkpt lat="45.9599571" lon="11.1102767"><ele>195.33333333333331</ele><time>2026-04-25T15:18:02.454Z</time></trkpt><trkpt lat="45.9601586" lon="11.1102996"><ele>195.66666666666666</ele><time>2026-04-25T15:18:03.454Z</time></trkpt><trkpt lat="45.9603604" lon="11.1103197"><ele>196.0</ele><time>2026-04-25T15:18:04.454Z</time></trkpt><trkpt lat="45.9605599" lon="11.1103342"><ele>196.0</ele><time>2026-04-25T15:18:05.455Z</time></trkpt><trkpt lat="45.9607506" lon="11.1103489"><ele>196.0</ele><time>2026-04-25T15:18:06.454Z</time></trkpt><trkpt lat="45.9609361" lon="11.1103672"><ele>196.0</ele><time>2026-04-25T15:18:07.454Z</time></trkpt><trkpt lat="45.9611218" lon="11.1103943"><ele>193.66666666666666</ele><time>2026-04-25T15:18:08.454Z</time></trkpt><trkpt lat="45.9613111" lon="11.1104298"><ele>191.33333333333331</ele><time>2026-04-25T15:18:09.455Z</time></trkpt><trkpt lat="45.9614939" lon="11.1104837"><ele>189.0</ele><time>2026-04-25T15:18:10.455Z</time></trkpt><trkpt lat="45.961667" lon="11.1105658"><ele>191.0</ele><time>2026-04-25T15:18:11.454Z</time></trkpt><trkpt lat="45.96184" lon="11.1106638"><ele>193.0</ele><time>2026-04-25T15:18:12.454Z</time></trkpt><trkpt lat="45.9620155" lon="11.1107692"><ele>195.0</ele><time>2026-04-25T15:18:13.455Z</time></trkpt><trkpt lat="45.9621952" lon="11.1108757"><ele>195.0</ele><time>2026-04-25T15:18:14.454Z</time></trkpt><trkpt lat="45.9623697" lon="11.1109782"><ele>195.0</ele><time>2026-04-25T15:18:15.454Z</time></trkpt><trkpt lat="45.9625437" lon="11.1110752"><ele>195.0</ele><time>2026-04-25T15:18:16.454Z</time></trkpt><trkpt lat="45.962719" lon="11.1111689"><ele>193.0</ele><time>2026-04-25T15:18:17.455Z</time></trkpt><trkpt lat="45.9628943" lon="11.1112619"><ele>191.0</ele><time>2026-04-25T15:18:18.454Z</time></trkpt><trkpt lat="45.9630581" lon="11.1113486"><ele>189.0</ele><time>2026-04-25T15:18:19.454Z</time></trkpt><trkpt lat="45.9632165" lon="11.111435"><ele>187.66666666666666</ele><time>2026-04-25T15:18:20.455Z</time></trkpt><trkpt lat="45.9633871" lon="11.1115117"><ele>186.33333333333331</ele><time>2026-04-25T15:18:21.454Z</time></trkpt><trkpt lat="45.9635639" lon="11.1115834"><ele>185.0</ele><time>2026-04-25T15:18:22.455Z</time></trkpt><trkpt lat="45.963741" lon="11.1116401"><ele>190.0</ele><time>2026-04-25T15:18:23.455Z</time></trkpt><trkpt lat="45.963921" lon="11.1116903"><ele>195.0</ele><time>2026-04-25T15:18:24.455Z</time></trkpt><trkpt lat="45.9641044" lon="11.1117432"><ele>200.0</ele><time>2026-04-25T15:18:25.456Z</time></trkpt><trkpt lat="45.9642853" lon="11.1117962"><ele>200.0</ele><time>2026-04-25T15:18:26.455Z</time></trkpt><trkpt lat="45.9644686" lon="11.1118543"><ele>200.0</ele><time>2026-04-25T15:18:27.454Z</time></trkpt><trkpt lat="45.9646673" lon="11.1119076"><ele>200.0</ele><time>2026-04-25T15:18:28.455Z</time></trkpt><trkpt lat="45.9648748" lon="11.1119715"><ele>196.66666666666669</ele><time>2026-04-25T15:18:29.456Z</time></trkpt><trkpt lat="45.9650696" lon="11.1120411"><ele>193.33333333333334</ele><time>2026-04-25T15:18:30.455Z</time></trkpt><trkpt lat="45.9652578" lon="11.1121041"><ele>190.0</ele><time>2026-04-25T15:18:31.456Z</time></trkpt><trkpt lat="45.9654397" lon="11.1121607"><ele>190.0</ele><time>2026-04-25T15:18:32.455Z</time></trkpt><trkpt lat="45.9656178" lon="11.1122218"><ele>190.0</ele><time>2026-04-25T15:18:33.455Z</time></trkpt><trkpt lat="45.9657986" lon="11.1122855"><ele>190.0</ele><time>2026-04-25T15:18:34.456Z</time></trkpt><trkpt lat="45.9659925" lon="11.1123427"><ele>191.66666666666669</ele><time>2026-04-25T15:18:35.455Z</time></trkpt><trkpt lat="45.9661902" lon="11.1123929"><ele>193.33333333333334</ele><time>2026-04-25T15:18:36.456Z</time></trkpt><trkpt lat="45.966388" lon="11.1124312"><ele>195.0</ele><time>2026-04-25T15:18:37.455Z</time></trkpt><trkpt lat="45.9665851" lon="11.1124443"><ele>191.0</ele><time>2026-04-25T15:18:38.455Z</time></trkpt><trkpt lat="45.9667794" lon="11.1124401"><ele>187.0</ele><time>2026-04-25T15:18:39.455Z</time></trkpt><trkpt lat="45.9669764" lon="11.1124231"><ele>183.0</ele><time>2026-04-25T15:18:40.456Z</time></trkpt><trkpt lat="45.9671738" lon="11.1124007"><ele>182.0</ele><time>2026-04-25T15:18:41.455Z</time></trkpt><trkpt lat="45.967366" lon="11.1123696"><ele>181.0</ele><time>2026-04-25T15:18:42.456Z</time></trkpt><trkpt lat="45.9675493" lon="11.1123325"><ele>180.0</ele><time>2026-04-25T15:18:43.456Z</time></trkpt><trkpt lat="45.967733" lon="11.1122881"><ele>179.33333333333334</ele><time>2026-04-25T15:18:44.456Z</time></trkpt><trkpt lat="45.9679216" lon="11.1122403"><ele>178.66666666666669</ele><time>2026-04-25T15:18:45.455Z</time></trkpt><trkpt lat="45.968121" lon="11.1121937"><ele>178.0</ele><time>2026-04-25T15:18:46.455Z</time></trkpt><trkpt lat="45.9683356" lon="11.1121435"><ele>178.0</ele><time>2026-04-25T15:18:47.455Z</time></trkpt><trkpt lat="45.9685513" lon="11.1121088"><ele>178.0</ele><time>2026-04-25T15:18:48.455Z</time></trkpt><trkpt lat="45.9687668" lon="11.1120953"><ele>178.0</ele><time>2026-04-25T15:18:49.455Z</time></trkpt><trkpt lat="45.9689845" lon="11.1121087"><ele>178.0</ele><time>2026-04-25T15:18:50.455Z</time></trkpt><trkpt lat="45.9692055" lon="11.112143"><ele>178.0</ele><time>2026-04-25T15:18:51.457Z</time></trkpt><trkpt lat="45.9694292" lon="11.1121912"><ele>178.0</ele><time>2026-04-25T15:18:52.456Z</time></trkpt><trkpt lat="45.9696531" lon="11.112251"><ele>178.0</ele><time>2026-04-25T15:18:53.455Z</time></trkpt><trkpt lat="45.9698741" lon="11.1123213"><ele>178.0</ele><time>2026-04-25T15:18:54.455Z</time></trkpt><trkpt lat="45.9700902" lon="11.112394"><ele>178.0</ele><time>2026-04-25T15:18:55.456Z</time></trkpt><trkpt lat="45.9703014" lon="11.1124647"><ele>178.33333333333334</ele><time>2026-04-25T15:18:56.456Z</time></trkpt><trkpt lat="45.9705105" lon="11.112527"><ele>178.66666666666666</ele><time>2026-04-25T15:18:57.456Z</time></trkpt><trkpt lat="45.9707154" lon="11.112589"><ele>179.0</ele><time>2026-04-25T15:18:58.456Z</time></trkpt><trkpt lat="45.9709241" lon="11.1126532"><ele>180.0</ele><time>2026-04-25T15:18:59.455Z</time></trkpt><trkpt lat="45.9711396" lon="11.1127238"><ele>181.0</ele><time>2026-04-25T15:19:00.455Z</time></trkpt><trkpt lat="45.9713496" lon="11.1127808"><ele>182.0</ele><time>2026-04-25T15:19:01.455Z</time></trkpt><trkpt lat="45.9715915" lon="11.1128361"><ele>181.0</ele><time>2026-04-25T15:19:02.456Z</time></trkpt><trkpt lat="45.9718397" lon="11.1129241"><ele>180.0</ele><time>2026-04-25T15:19:03.455Z</time></trkpt><trkpt lat="45.972105" lon="11.1130109"><ele>180.0</ele><time>2026-04-25T15:19:04.456Z</time></trkpt><trkpt lat="45.9723331" lon="11.1130831"><ele>180.0</ele><time>2026-04-25T15:19:05.455Z</time></trkpt><trkpt lat="45.9725346" lon="11.1131403"><ele>180.0</ele><time>2026-04-25T15:19:06.456Z</time></trkpt><trkpt lat="45.9727316" lon="11.1131753"><ele>180.33333333333334</ele><time>2026-04-25T15:19:07.456Z</time></trkpt><trkpt lat="45.9729219" lon="11.1131867"><ele>180.66666666666669</ele><time>2026-04-25T15:19:08.456Z</time></trkpt><trkpt lat="45.973136" lon="11.1132087"><ele>181.0</ele><time>2026-04-25T15:19:09.455Z</time></trkpt><trkpt lat="45.9733697" lon="11.1132427"><ele>182.5</ele><time>2026-04-25T15:19:10.456Z</time></trkpt><trkpt lat="45.9736024" lon="11.1132896"><ele>184.0</ele><time>2026-04-25T15:19:11.455Z</time></trkpt><trkpt lat="45.9738153" lon="11.1133289"><ele>184.0</ele><time>2026-04-25T15:19:12.456Z</time></trkpt><trkpt lat="45.9740275" lon="11.1133795"><ele>184.0</ele><time>2026-04-25T15:19:13.457Z</time></trkpt><trkpt lat="45.9742318" lon="11.1134103"><ele>184.0</ele><time>2026-04-25T15:19:14.455Z</time></trkpt><trkpt lat="45.9744403" lon="11.1134379"><ele>184.0</ele><time>2026-04-25T15:19:15.455Z</time></trkpt><trkpt lat="45.9746469" lon="11.1134625"><ele>184.0</ele><time>2026-04-25T15:19:16.455Z</time></trkpt><trkpt lat="45.9748485" lon="11.1134857"><ele>184.0</ele><time>2026-04-25T15:19:17.455Z</time></trkpt><trkpt lat="45.9750453" lon="11.1135106"><ele>184.0</ele><time>2026-04-25T15:19:18.456Z</time></trkpt><trkpt lat="45.9752388" lon="11.1135355"><ele>184.0</ele><time>2026-04-25T15:19:19.456Z</time></trkpt><trkpt lat="45.9754298" lon="11.1135584"><ele>184.0</ele><time>2026-04-25T15:19:20.456Z</time></trkpt><trkpt lat="45.9756246" lon="11.1136009"><ele>184.0</ele><time>2026-04-25T15:19:21.456Z</time></trkpt><trkpt lat="45.9758136" lon="11.1136371"><ele>184.0</ele><time>2026-04-25T15:19:22.457Z</time></trkpt><trkpt lat="45.9760043" lon="11.1136751"><ele>184.0</ele><time>2026-04-25T15:19:23.457Z</time></trkpt><trkpt lat="45.9761947" lon="11.1137204"><ele>183.33333333333334</ele><time>2026-04-25T15:19:24.456Z</time></trkpt><trkpt lat="45.9763813" lon="11.1137715"><ele>182.66666666666666</ele><time>2026-04-25T15:19:25.456Z</time></trkpt><trkpt lat="45.9765609" lon="11.1138339"><ele>182.0</ele><time>2026-04-25T15:19:26.456Z</time></trkpt><trkpt lat="45.9767384" lon="11.1139107"><ele>182.33333333333331</ele><time>2026-04-25T15:19:27.457Z</time></trkpt><trkpt lat="45.9769159" lon="11.114004"><ele>182.66666666666666</ele><time>2026-04-25T15:19:28.456Z</time></trkpt><trkpt lat="45.9770872" lon="11.1141063"><ele>183.0</ele><time>2026-04-25T15:19:29.456Z</time></trkpt><trkpt lat="45.9772519" lon="11.114207"><ele>183.0</ele><time>2026-04-25T15:19:30.455Z</time></trkpt><trkpt lat="45.9774157" lon="11.1143022"><ele>183.0</ele><time>2026-04-25T15:19:31.456Z</time></trkpt><trkpt lat="45.9775786" lon="11.1143919"><ele>183.0</ele><time>2026-04-25T15:19:32.456Z</time></trkpt><trkpt lat="45.9777388" lon="11.1144821"><ele>182.66666666666666</ele><time>2026-04-25T15:19:33.456Z</time></trkpt><trkpt lat="45.9779" lon="11.1145695"><ele>182.33333333333331</ele><time>2026-04-25T15:19:34.456Z</time></trkpt><trkpt lat="45.9780673" lon="11.1146444"><ele>182.0</ele><time>2026-04-25T15:19:35.456Z</time></trkpt><trkpt lat="45.9782384" lon="11.1147089"><ele>182.66666666666666</ele><time>2026-04-25T15:19:36.456Z</time></trkpt><trkpt lat="45.9784141" lon="11.114767"><ele>183.33333333333334</ele><time>2026-04-25T15:19:37.456Z</time></trkpt><trkpt lat="45.978594" lon="11.1148244"><ele>184.0</ele><time>2026-04-25T15:19:38.455Z</time></trkpt><trkpt lat="45.9787764" lon="11.1148796"><ele>183.66666666666669</ele><time>2026-04-25T15:19:39.457Z</time></trkpt><trkpt lat="45.9789543" lon="11.1149326"><ele>183.33333333333334</ele><time>2026-04-25T15:19:40.457Z</time></trkpt><trkpt lat="45.9791265" lon="11.1149839"><ele>183.0</ele><time>2026-04-25T15:19:41.456Z</time></trkpt><trkpt lat="45.9793027" lon="11.1150307"><ele>183.0</ele><time>2026-04-25T15:19:42.456Z</time></trkpt><trkpt lat="45.9794804" lon="11.1150765"><ele>183.0</ele><time>2026-04-25T15:19:43.456Z</time></trkpt><trkpt lat="45.9796557" lon="11.1151221"><ele>183.0</ele><time>2026-04-25T15:19:44.456Z</time></trkpt><trkpt lat="45.9798271" lon="11.1151667"><ele>183.0</ele><time>2026-04-25T15:19:45.456Z</time></trkpt><trkpt lat="45.9799976" lon="11.1152108"><ele>183.0</ele><time>2026-04-25T15:19:46.457Z</time></trkpt><trkpt lat="45.9801708" lon="11.1152556"><ele>183.0</ele><time>2026-04-25T15:19:47.457Z</time></trkpt><trkpt lat="45.9803509" lon="11.1153073"><ele>182.66666666666666</ele><time>2026-04-25T15:19:48.457Z</time></trkpt><trkpt lat="45.9805295" lon="11.1153552"><ele>182.33333333333331</ele><time>2026-04-25T15:19:49.456Z</time></trkpt><trkpt lat="45.9807034" lon="11.115402"><ele>182.0</ele><time>2026-04-25T15:19:50.458Z</time></trkpt><trkpt lat="45.9808765" lon="11.1154501"><ele>181.66666666666666</ele><time>2026-04-25T15:19:51.457Z</time></trkpt><trkpt lat="45.981046" lon="11.1154982"><ele>181.33333333333334</ele><time>2026-04-25T15:19:52.456Z</time></trkpt><trkpt lat="45.9812165" lon="11.1155379"><ele>181.0</ele><time>2026-04-25T15:19:53.456Z</time></trkpt><trkpt lat="45.981392" lon="11.1155556"><ele>181.0</ele><time>2026-04-25T15:19:54.456Z</time></trkpt><trkpt lat="45.9815707" lon="11.115552"><ele>181.0</ele><time>2026-04-25T15:19:55.456Z</time></trkpt><trkpt lat="45.9817489" lon="11.1155325"><ele>181.0</ele><time>2026-04-25T15:19:56.456Z</time></trkpt><trkpt lat="45.9819219" lon="11.1155"><ele>180.66666666666669</ele><time>2026-04-25T15:19:57.457Z</time></trkpt><trkpt lat="45.9820942" lon="11.1154507"><ele>180.33333333333334</ele><time>2026-04-25T15:19:58.457Z</time></trkpt><trkpt lat="45.9822661" lon="11.1153814"><ele>180.0</ele><time>2026-04-25T15:19:59.456Z</time></trkpt><trkpt lat="45.9824395" lon="11.1152897"><ele>180.0</ele><time>2026-04-25T15:20:00.457Z</time></trkpt><trkpt lat="45.9826122" lon="11.1151809"><ele>180.0</ele><time>2026-04-25T15:20:01.456Z</time></trkpt><trkpt lat="45.9827836" lon="11.1150656"><ele>180.0</ele><time>2026-04-25T15:20:02.456Z</time></trkpt><trkpt lat="45.9829543" lon="11.1149452"><ele>180.33333333333334</ele><time>2026-04-25T15:20:03.456Z</time></trkpt><trkpt lat="45.9831216" lon="11.1148219"><ele>180.66666666666669</ele><time>2026-04-25T15:20:04.457Z</time></trkpt><trkpt lat="45.9832886" lon="11.1146943"><ele>181.0</ele><time>2026-04-25T15:20:05.456Z</time></trkpt><trkpt lat="45.9834554" lon="11.1145658"><ele>181.0</ele><time>2026-04-25T15:20:06.456Z</time></trkpt><trkpt lat="45.9836284" lon="11.1144448"><ele>181.0</ele><time>2026-04-25T15:20:07.457Z</time></trkpt><trkpt lat="45.983809" lon="11.114342"><ele>181.0</ele><time>2026-04-25T15:20:08.457Z</time></trkpt><trkpt lat="45.9839944" lon="11.1142623"><ele>181.0</ele><time>2026-04-25T15:20:09.456Z</time></trkpt><trkpt lat="45.9841808" lon="11.1142044"><ele>181.0</ele><time>2026-04-25T15:20:10.456Z</time></trkpt><trkpt lat="45.9843695" lon="11.1141633"><ele>181.0</ele><time>2026-04-25T15:20:11.458Z</time></trkpt><trkpt lat="45.9845641" lon="11.1141421"><ele>181.0</ele><time>2026-04-25T15:20:12.457Z</time></trkpt><trkpt lat="45.984758" lon="11.1141444"><ele>181.0</ele><time>2026-04-25T15:20:13.457Z</time></trkpt><trkpt lat="45.9849481" lon="11.1141705"><ele>181.0</ele><time>2026-04-25T15:20:14.458Z</time></trkpt><trkpt lat="45.9851369" lon="11.1142147"><ele>181.0</ele><time>2026-04-25T15:20:15.457Z</time></trkpt><trkpt lat="45.9853223" lon="11.1142824"><ele>181.0</ele><time>2026-04-25T15:20:16.457Z</time></trkpt><trkpt lat="45.9855057" lon="11.1143666"><ele>181.0</ele><time>2026-04-25T15:20:17.457Z</time></trkpt><trkpt lat="45.9856855" lon="11.1144612"><ele>179.66666666666669</ele><time>2026-04-25T15:20:18.456Z</time></trkpt><trkpt lat="45.9858582" lon="11.1145767"><ele>178.33333333333334</ele><time>2026-04-25T15:20:19.457Z</time></trkpt><trkpt lat="45.9860278" lon="11.1147107"><ele>177.0</ele><time>2026-04-25T15:20:20.457Z</time></trkpt><trkpt lat="45.9861923" lon="11.1148649"><ele>177.66666666666666</ele><time>2026-04-25T15:20:21.456Z</time></trkpt><trkpt lat="45.9863488" lon="11.115029"><ele>178.33333333333331</ele><time>2026-04-25T15:20:22.457Z</time></trkpt><trkpt lat="45.9865011" lon="11.115193"><ele>179.0</ele><time>2026-04-25T15:20:23.457Z</time></trkpt><trkpt lat="45.9866569" lon="11.115346"><ele>179.66666666666666</ele><time>2026-04-25T15:20:24.457Z</time></trkpt><trkpt lat="45.9868167" lon="11.1154949"><ele>180.33333333333334</ele><time>2026-04-25T15:20:25.458Z</time></trkpt><trkpt lat="45.986979" lon="11.1156452"><ele>181.0</ele><time>2026-04-25T15:20:26.457Z</time></trkpt><trkpt lat="45.9871395" lon="11.1157966"><ele>181.33333333333334</ele><time>2026-04-25T15:20:27.457Z</time></trkpt><trkpt lat="45.9872942" lon="11.1159407"><ele>181.66666666666666</ele><time>2026-04-25T15:20:28.457Z</time></trkpt><trkpt lat="45.9874472" lon="11.1160824"><ele>182.0</ele><time>2026-04-25T15:20:29.457Z</time></trkpt><trkpt lat="45.9876079" lon="11.1162318"><ele>182.0</ele><time>2026-04-25T15:20:30.457Z</time></trkpt><trkpt lat="45.9877921" lon="11.1163942"><ele>182.0</ele><time>2026-04-25T15:20:31.457Z</time></trkpt><trkpt lat="45.9880015" lon="11.1165816"><ele>181.0</ele><time>2026-04-25T15:20:32.456Z</time></trkpt><trkpt lat="45.9882238" lon="11.1167953"><ele>180.0</ele><time>2026-04-25T15:20:33.456Z</time></trkpt><trkpt lat="45.9884547" lon="11.1170454"><ele>179.5</ele><time>2026-04-25T15:20:34.457Z</time></trkpt><trkpt lat="45.9886804" lon="11.1172878"><ele>179.0</ele><time>2026-04-25T15:20:35.457Z</time></trkpt><trkpt lat="45.988902" lon="11.1175002"><ele>179.5</ele><time>2026-04-25T15:20:36.457Z</time></trkpt><trkpt lat="45.9891235" lon="11.1177063"><ele>180.0</ele><time>2026-04-25T15:20:37.456Z</time></trkpt><trkpt lat="45.989346" lon="11.1179124"><ele>180.0</ele><time>2026-04-25T15:20:38.457Z</time></trkpt><trkpt lat="45.9895713" lon="11.1181248"><ele>180.0</ele><time>2026-04-25T15:20:39.457Z</time></trkpt><trkpt lat="45.9897987" lon="11.1183344"><ele>180.5</ele><time>2026-04-25T15:20:40.458Z</time></trkpt><trkpt lat="45.9900299" lon="11.1185376"><ele>181.0</ele><time>2026-04-25T15:20:41.458Z</time></trkpt><trkpt lat="45.9902672" lon="11.1187369"><ele>181.0</ele><time>2026-04-25T15:20:42.458Z</time></trkpt><trkpt lat="45.9905053" lon="11.118928"><ele>181.0</ele><time>2026-04-25T15:20:43.458Z</time></trkpt><trkpt lat="45.9907489" lon="11.1191112"><ele>180.5</ele><time>2026-04-25T15:20:44.458Z</time></trkpt><trkpt lat="45.9909989" lon="11.1192858"><ele>180.0</ele><time>2026-04-25T15:20:45.457Z</time></trkpt><trkpt lat="45.9912486" lon="11.1194579"><ele>180.0</ele><time>2026-04-25T15:20:46.457Z</time></trkpt><trkpt lat="45.991498" lon="11.1196256"><ele>180.0</ele><time>2026-04-25T15:20:47.457Z</time></trkpt><trkpt lat="45.9917423" lon="11.1197879"><ele>180.0</ele><time>2026-04-25T15:20:48.457Z</time></trkpt><trkpt lat="45.9919814" lon="11.1199447"><ele>180.0</ele><time>2026-04-25T15:20:49.457Z</time></trkpt><trkpt lat="45.992212" lon="11.1200989"><ele>180.0</ele><time>2026-04-25T15:20:50.457Z</time></trkpt><trkpt lat="45.9924346" lon="11.1202536"><ele>180.0</ele><time>2026-04-25T15:20:51.457Z</time></trkpt><trkpt lat="45.9926536" lon="11.1204056"><ele>180.5</ele><time>2026-04-25T15:20:52.457Z</time></trkpt><trkpt lat="45.9928684" lon="11.1205541"><ele>181.0</ele><time>2026-04-25T15:20:53.458Z</time></trkpt><trkpt lat="45.9930805" lon="11.1207"><ele>181.33333333333334</ele><time>2026-04-25T15:20:54.457Z</time></trkpt><trkpt lat="45.9932868" lon="11.1208423"><ele>181.66666666666666</ele><time>2026-04-25T15:20:55.457Z</time></trkpt><trkpt lat="45.9934855" lon="11.1209748"><ele>182.0</ele><time>2026-04-25T15:20:56.458Z</time></trkpt><trkpt lat="45.9936758" lon="11.1210948"><ele>182.0</ele><time>2026-04-25T15:20:57.457Z</time></trkpt><trkpt lat="45.9938591" lon="11.1212008"><ele>182.0</ele><time>2026-04-25T15:20:58.457Z</time></trkpt><trkpt lat="45.9940414" lon="11.121306"><ele>182.0</ele><time>2026-04-25T15:20:59.457Z</time></trkpt><trkpt lat="45.9942234" lon="11.1214106"><ele>181.66666666666666</ele><time>2026-04-25T15:21:00.457Z</time></trkpt><trkpt lat="45.9944091" lon="11.1215133"><ele>181.33333333333334</ele><time>2026-04-25T15:21:01.457Z</time></trkpt><trkpt lat="45.9945993" lon="11.1216123"><ele>181.0</ele><time>2026-04-25T15:21:02.457Z</time></trkpt><trkpt lat="45.9947934" lon="11.1217095"><ele>181.0</ele><time>2026-04-25T15:21:03.458Z</time></trkpt><trkpt lat="45.9949951" lon="11.1218041"><ele>181.0</ele><time>2026-04-25T15:21:04.458Z</time></trkpt><trkpt lat="45.9952023" lon="11.1218934"><ele>181.0</ele><time>2026-04-25T15:21:05.457Z</time></trkpt><trkpt lat="45.9954076" lon="11.1219771"><ele>181.0</ele><time>2026-04-25T15:21:06.458Z</time></trkpt><trkpt lat="45.9956071" lon="11.1220504"><ele>181.0</ele><time>2026-04-25T15:21:07.457Z</time></trkpt><trkpt lat="45.9957956" lon="11.1221165"><ele>181.0</ele><time>2026-04-25T15:21:08.457Z</time></trkpt><trkpt lat="45.9959806" lon="11.1221819"><ele>181.0</ele><time>2026-04-25T15:21:09.459Z</time></trkpt><trkpt lat="45.9961712" lon="11.1222476"><ele>181.0</ele><time>2026-04-25T15:21:10.458Z</time></trkpt><trkpt lat="45.9963656" lon="11.1223063"><ele>181.0</ele><time>2026-04-25T15:21:11.458Z</time></trkpt><trkpt lat="45.9965684" lon="11.1223556"><ele>181.33333333333334</ele><time>2026-04-25T15:21:12.459Z</time></trkpt><trkpt lat="45.99678" lon="11.1223996"><ele>181.66666666666666</ele><time>2026-04-25T15:21:13.458Z</time></trkpt><trkpt lat="45.9969955" lon="11.1224445"><ele>182.0</ele><time>2026-04-25T15:21:14.458Z</time></trkpt><trkpt lat="45.9971975" lon="11.1224898"><ele>182.0</ele><time>2026-04-25T15:21:15.457Z</time></trkpt><trkpt lat="45.9973666" lon="11.1225217"><ele>182.0</ele><time>2026-04-25T15:21:16.458Z</time></trkpt><trkpt lat="45.9975516" lon="11.1225577"><ele>182.0</ele><time>2026-04-25T15:21:17.457Z</time></trkpt><trkpt lat="45.9977707" lon="11.1226067"><ele>181.5</ele><time>2026-04-25T15:21:18.457Z</time></trkpt><trkpt lat="45.9980012" lon="11.1226566"><ele>181.0</ele><time>2026-04-25T15:21:19.458Z</time></trkpt><trkpt lat="45.9982191" lon="11.1226934"><ele>180.66666666666669</ele><time>2026-04-25T15:21:20.457Z</time></trkpt><trkpt lat="45.9984259" lon="11.1227237"><ele>180.33333333333334</ele><time>2026-04-25T15:21:21.458Z</time></trkpt><trkpt lat="45.998613" lon="11.12275"><ele>180.0</ele><time>2026-04-25T15:21:22.458Z</time></trkpt><trkpt lat="45.9987975" lon="11.1227738"><ele>180.0</ele><time>2026-04-25T15:21:23.457Z</time></trkpt><trkpt lat="45.9989837" lon="11.1227949"><ele>180.0</ele><time>2026-04-25T15:21:24.458Z</time></trkpt><trkpt lat="45.999172" lon="11.122816"><ele>180.0</ele><time>2026-04-25T15:21:25.459Z</time></trkpt><trkpt lat="45.9993626" lon="11.122839"><ele>180.33333333333334</ele><time>2026-04-25T15:21:26.457Z</time></trkpt><trkpt lat="45.9995523" lon="11.1228688"><ele>180.66666666666669</ele><time>2026-04-25T15:21:27.458Z</time></trkpt><trkpt lat="45.9997378" lon="11.122895"><ele>181.0</ele><time>2026-04-25T15:21:28.458Z</time></trkpt><trkpt lat="45.9999159" lon="11.1229196"><ele>181.0</ele><time>2026-04-25T15:21:29.457Z</time></trkpt><trkpt lat="46.0000877" lon="11.1229448"><ele>181.0</ele><time>2026-04-25T15:21:30.458Z</time></trkpt><trkpt lat="46.0002616" lon="11.122977"><ele>181.0</ele><time>2026-04-25T15:21:31.458Z</time></trkpt><trkpt lat="46.0004282" lon="11.1230023"><ele>181.0</ele><time>2026-04-25T15:21:32.458Z</time></trkpt><trkpt lat="46.0006009" lon="11.1230286"><ele>181.0</ele><time>2026-04-25T15:21:33.458Z</time></trkpt><trkpt lat="46.0007816" lon="11.1230518"><ele>181.0</ele><time>2026-04-25T15:21:34.458Z</time></trkpt><trkpt lat="46.0009661" lon="11.1230748"><ele>180.33333333333334</ele><time>2026-04-25T15:21:35.458Z</time></trkpt><trkpt lat="46.0011505" lon="11.1230958"><ele>179.66666666666666</ele><time>2026-04-25T15:21:36.458Z</time></trkpt><trkpt lat="46.0013317" lon="11.1231193"><ele>179.0</ele><time>2026-04-25T15:21:37.458Z</time></trkpt><trkpt lat="46.0015122" lon="11.1231454"><ele>179.0</ele><time>2026-04-25T15:21:38.459Z</time></trkpt><trkpt lat="46.0016925" lon="11.1231701"><ele>179.0</ele><time>2026-04-25T15:21:39.458Z</time></trkpt><trkpt lat="46.0018739" lon="11.1231932"><ele>179.0</ele><time>2026-04-25T15:21:40.458Z</time></trkpt><trkpt lat="46.0020506" lon="11.1232152"><ele>179.66666666666666</ele><time>2026-04-25T15:21:41.458Z</time></trkpt><trkpt lat="46.002222" lon="11.1232376"><ele>180.33333333333334</ele><time>2026-04-25T15:21:42.459Z</time></trkpt><trkpt lat="46.0023901" lon="11.1232614"><ele>181.0</ele><time>2026-04-25T15:21:43.458Z</time></trkpt><trkpt lat="46.0025544" lon="11.1232849"><ele>181.0</ele><time>2026-04-25T15:21:44.458Z</time></trkpt><trkpt lat="46.0027193" lon="11.1233088"><ele>181.0</ele><time>2026-04-25T15:21:45.459Z</time></trkpt><trkpt lat="46.0028919" lon="11.1233337"><ele>181.0</ele><time>2026-04-25T15:21:46.458Z</time></trkpt><trkpt lat="46.0030711" lon="11.1233585"><ele>181.0</ele><time>2026-04-25T15:21:47.459Z</time></trkpt><trkpt lat="46.0032521" lon="11.1233824"><ele>181.0</ele><time>2026-04-25T15:21:48.459Z</time></trkpt><trkpt lat="46.0034338" lon="11.1234078"><ele>181.0</ele><time>2026-04-25T15:21:49.458Z</time></trkpt><trkpt lat="46.0036141" lon="11.1234324"><ele>181.0</ele><time>2026-04-25T15:21:50.459Z</time></trkpt><trkpt lat="46.003792" lon="11.1234552"><ele>181.0</ele><time>2026-04-25T15:21:51.459Z</time></trkpt><trkpt lat="46.0039704" lon="11.1234784"><ele>181.0</ele><time>2026-04-25T15:21:52.458Z</time></trkpt><trkpt lat="46.0041554" lon="11.1235065"><ele>182.0</ele><time>2026-04-25T15:21:53.458Z</time></trkpt><trkpt lat="46.0043366" lon="11.1235339"><ele>183.0</ele><time>2026-04-25T15:21:54.458Z</time></trkpt><trkpt lat="46.0045127" lon="11.1235586"><ele>184.0</ele><time>2026-04-25T15:21:55.458Z</time></trkpt><trkpt lat="46.0046805" lon="11.1235827"><ele>184.0</ele><time>2026-04-25T15:21:56.458Z</time></trkpt><trkpt lat="46.0048474" lon="11.1236072"><ele>184.0</ele><time>2026-04-25T15:21:57.459Z</time></trkpt><trkpt lat="46.0050135" lon="11.1236347"><ele>184.0</ele><time>2026-04-25T15:21:58.459Z</time></trkpt><trkpt lat="46.005181" lon="11.1236591"><ele>183.33333333333334</ele><time>2026-04-25T15:21:59.459Z</time></trkpt><trkpt lat="46.0053442" lon="11.1236845"><ele>182.66666666666666</ele><time>2026-04-25T15:22:00.458Z</time></trkpt><trkpt lat="46.0055017" lon="11.1237082"><ele>182.0</ele><time>2026-04-25T15:22:01.458Z</time></trkpt><trkpt lat="46.0056583" lon="11.1237301"><ele>182.0</ele><time>2026-04-25T15:22:02.458Z</time></trkpt><trkpt lat="46.0058193" lon="11.1237512"><ele>182.0</ele><time>2026-04-25T15:22:03.458Z</time></trkpt><trkpt lat="46.0059883" lon="11.1237751"><ele>182.0</ele><time>2026-04-25T15:22:04.458Z</time></trkpt><trkpt lat="46.0061628" lon="11.1238023"><ele>181.66666666666666</ele><time>2026-04-25T15:22:05.458Z</time></trkpt><trkpt lat="46.0063366" lon="11.1238307"><ele>181.33333333333334</ele><time>2026-04-25T15:22:06.459Z</time></trkpt><trkpt lat="46.00651" lon="11.1238553"><ele>181.0</ele><time>2026-04-25T15:22:07.458Z</time></trkpt><trkpt lat="46.006683" lon="11.1238701"><ele>181.0</ele><time>2026-04-25T15:22:08.459Z</time></trkpt><trkpt lat="46.0068542" lon="11.1238783"><ele>181.0</ele><time>2026-04-25T15:22:09.459Z</time></trkpt><trkpt lat="46.0070255" lon="11.1238898"><ele>181.0</ele><time>2026-04-25T15:22:10.458Z</time></trkpt><trkpt lat="46.0071966" lon="11.1239045"><ele>181.0</ele><time>2026-04-25T15:22:11.458Z</time></trkpt><trkpt lat="46.0073749" lon="11.1239276"><ele>181.0</ele><time>2026-04-25T15:22:12.459Z</time></trkpt><trkpt lat="46.0075649" lon="11.1239602"><ele>181.0</ele><time>2026-04-25T15:22:13.458Z</time></trkpt><trkpt lat="46.0077623" lon="11.1240133"><ele>181.0</ele><time>2026-04-25T15:22:14.458Z</time></trkpt><trkpt lat="46.0079633" lon="11.1240984"><ele>181.0</ele><time>2026-04-25T15:22:15.458Z</time></trkpt><trkpt lat="46.0081626" lon="11.1242011"><ele>181.0</ele><time>2026-04-25T15:22:16.459Z</time></trkpt><trkpt lat="46.0083591" lon="11.1243261"><ele>181.0</ele><time>2026-04-25T15:22:17.459Z</time></trkpt><trkpt lat="46.0085606" lon="11.1244683"><ele>181.0</ele><time>2026-04-25T15:22:18.46Z</time></trkpt><trkpt lat="46.0087691" lon="11.1246258"><ele>181.0</ele><time>2026-04-25T15:22:19.46Z</time></trkpt><trkpt lat="46.0089862" lon="11.1247809"><ele>181.0</ele><time>2026-04-25T15:22:20.458Z</time></trkpt><trkpt lat="46.0092082" lon="11.1249164"><ele>181.5</ele><time>2026-04-25T15:22:21.46Z</time></trkpt><trkpt lat="46.0094305" lon="11.1250304"><ele>182.0</ele><time>2026-04-25T15:22:22.458Z</time></trkpt><trkpt lat="46.0096658" lon="11.1251367"><ele>182.0</ele><time>2026-04-25T15:22:23.458Z</time></trkpt><trkpt lat="46.0098905" lon="11.1252263"><ele>182.0</ele><time>2026-04-25T15:22:24.46Z</time></trkpt><trkpt lat="46.0101185" lon="11.1253115"><ele>181.5</ele><time>2026-04-25T15:22:25.459Z</time></trkpt><trkpt lat="46.0103606" lon="11.125406"><ele>181.0</ele><time>2026-04-25T15:22:26.459Z</time></trkpt><trkpt lat="46.0106144" lon="11.1254979"><ele>180.5</ele><time>2026-04-25T15:22:27.46Z</time></trkpt><trkpt lat="46.0108803" lon="11.1255866"><ele>180.0</ele><time>2026-04-25T15:22:28.459Z</time></trkpt><trkpt lat="46.0111498" lon="11.1256796"><ele>180.0</ele><time>2026-04-25T15:22:29.459Z</time></trkpt><trkpt lat="46.0114169" lon="11.1257793"><ele>180.0</ele><time>2026-04-25T15:22:30.459Z</time></trkpt><trkpt lat="46.0116842" lon="11.1258825"><ele>180.0</ele><time>2026-04-25T15:22:31.46Z</time></trkpt><trkpt lat="46.0119471" lon="11.1259894"><ele>180.0</ele><time>2026-04-25T15:22:32.459Z</time></trkpt><trkpt lat="46.012205" lon="11.1260877"><ele>180.0</ele><time>2026-04-25T15:22:33.459Z</time></trkpt><trkpt lat="46.0124642" lon="11.1261749"><ele>180.0</ele><time>2026-04-25T15:22:34.459Z</time></trkpt><trkpt lat="46.0127147" lon="11.1262463"><ele>180.5</ele><time>2026-04-25T15:22:35.459Z</time></trkpt><trkpt lat="46.0129687" lon="11.1263084"><ele>181.0</ele><time>2026-04-25T15:22:36.46Z</time></trkpt><trkpt lat="46.0132349" lon="11.1263718"><ele>180.5</ele><time>2026-04-25T15:22:37.459Z</time></trkpt><trkpt lat="46.0135157" lon="11.1264485"><ele>180.0</ele><time>2026-04-25T15:22:38.459Z</time></trkpt><trkpt lat="46.0138032" lon="11.1265328"><ele>180.5</ele><time>2026-04-25T15:22:39.459Z</time></trkpt><trkpt lat="46.0140907" lon="11.1266048"><ele>181.0</ele><time>2026-04-25T15:22:40.46Z</time></trkpt><trkpt lat="46.0143772" lon="11.1266682"><ele>181.5</ele><time>2026-04-25T15:22:41.46Z</time></trkpt><trkpt lat="46.0146678" lon="11.1267362"><ele>182.0</ele><time>2026-04-25T15:22:42.46Z</time></trkpt><trkpt lat="46.0149579" lon="11.1268039"><ele>182.0</ele><time>2026-04-25T15:22:43.459Z</time></trkpt><trkpt lat="46.0152491" lon="11.1268722"><ele>182.0</ele><time>2026-04-25T15:22:44.459Z</time></trkpt><trkpt lat="46.0155451" lon="11.1269401"><ele>181.5</ele><time>2026-04-25T15:22:45.46Z</time></trkpt><trkpt lat="46.0158414" lon="11.1270084"><ele>181.0</ele><time>2026-04-25T15:22:46.459Z</time></trkpt><trkpt lat="46.0161389" lon="11.127079"><ele>181.0</ele><time>2026-04-25T15:22:47.459Z</time></trkpt><trkpt lat="46.016442" lon="11.1271519"><ele>181.0</ele><time>2026-04-25T15:22:48.46Z</time></trkpt><trkpt lat="46.016755" lon="11.127229"><ele>181.5</ele><time>2026-04-25T15:22:49.459Z</time></trkpt><trkpt lat="46.0170772" lon="11.1273063"><ele>182.0</ele><time>2026-04-25T15:22:50.459Z</time></trkpt><trkpt lat="46.0174058" lon="11.1273828"><ele>182.0</ele><time>2026-04-25T15:22:51.46Z</time></trkpt><trkpt lat="46.0177402" lon="11.1274577"><ele>182.0</ele><time>2026-04-25T15:22:52.459Z</time></trkpt><trkpt lat="46.0180773" lon="11.1275338"><ele>181.5</ele><time>2026-04-25T15:22:53.46Z</time></trkpt><trkpt lat="46.0184143" lon="11.1276019"><ele>181.0</ele><time>2026-04-25T15:22:54.459Z</time></trkpt><trkpt lat="46.0187488" lon="11.1276597"><ele>181.0</ele><time>2026-04-25T15:22:55.46Z</time></trkpt><trkpt lat="46.0190831" lon="11.1277085"><ele>181.0</ele><time>2026-04-25T15:22:56.459Z</time></trkpt><trkpt lat="46.0194175" lon="11.1277489"><ele>181.0</ele><time>2026-04-25T15:22:57.46Z</time></trkpt><trkpt lat="46.019755" lon="11.1277764"><ele>181.0</ele><time>2026-04-25T15:22:58.459Z</time></trkpt><trkpt lat="46.0200871" lon="11.1277959"><ele>182.0</ele><time>2026-04-25T15:22:59.459Z</time></trkpt><trkpt lat="46.0204123" lon="11.1278068"><ele>183.0</ele><time>2026-04-25T15:23:00.459Z</time></trkpt><trkpt lat="46.0207346" lon="11.127812"><ele>183.0</ele><time>2026-04-25T15:23:01.46Z</time></trkpt><trkpt lat="46.021058" lon="11.1278112"><ele>183.0</ele><time>2026-04-25T15:23:02.46Z</time></trkpt><trkpt lat="46.02138" lon="11.127808"><ele>183.5</ele><time>2026-04-25T15:23:03.459Z</time></trkpt><trkpt lat="46.0217" lon="11.127806"><ele>184.0</ele><time>2026-04-25T15:23:04.46Z</time></trkpt><trkpt lat="46.0220176" lon="11.1278036"><ele>184.0</ele><time>2026-04-25T15:23:05.46Z</time></trkpt><trkpt lat="46.0223302" lon="11.127799"><ele>184.0</ele><time>2026-04-25T15:23:06.459Z</time></trkpt><trkpt lat="46.0226368" lon="11.1277917"><ele>184.0</ele><time>2026-04-25T15:23:07.46Z</time></trkpt><trkpt lat="46.0229417" lon="11.1277802"><ele>184.0</ele><time>2026-04-25T15:23:08.46Z</time></trkpt><trkpt lat="46.0232493" lon="11.1277693"><ele>183.0</ele><time>2026-04-25T15:23:09.459Z</time></trkpt><trkpt lat="46.0235621" lon="11.1277616"><ele>182.0</ele><time>2026-04-25T15:23:10.46Z</time></trkpt><trkpt lat="46.0238789" lon="11.1277609"><ele>182.5</ele><time>2026-04-25T15:23:11.46Z</time></trkpt><trkpt lat="46.0241954" lon="11.1277643"><ele>183.0</ele><time>2026-04-25T15:23:12.459Z</time></trkpt><trkpt lat="46.02451" lon="11.1277662"><ele>183.0</ele><time>2026-04-25T15:23:13.461Z</time></trkpt><trkpt lat="46.0248245" lon="11.1277661"><ele>183.0</ele><time>2026-04-25T15:23:14.46Z</time></trkpt><trkpt lat="46.025138" lon="11.1277664"><ele>183.5</ele><time>2026-04-25T15:23:15.46Z</time></trkpt><trkpt lat="46.0254543" lon="11.1277671"><ele>184.0</ele><time>2026-04-25T15:23:16.46Z</time></trkpt><trkpt lat="46.0257694" lon="11.1277674"><ele>183.5</ele><time>2026-04-25T15:23:17.461Z</time></trkpt><trkpt lat="46.0260825" lon="11.1277669"><ele>183.0</ele><time>2026-04-25T15:23:18.46Z</time></trkpt><trkpt lat="46.0263978" lon="11.1277669"><ele>183.5</ele><time>2026-04-25T15:23:19.461Z</time></trkpt><trkpt lat="46.0267139" lon="11.1277692"><ele>184.0</ele><time>2026-04-25T15:23:20.459Z</time></trkpt><trkpt lat="46.0270318" lon="11.1277711"><ele>184.0</ele><time>2026-04-25T15:23:21.461Z</time></trkpt><trkpt lat="46.0273523" lon="11.1277713"><ele>184.0</ele><time>2026-04-25T15:23:22.46Z</time></trkpt><trkpt lat="46.0276744" lon="11.1277745"><ele>183.5</ele><time>2026-04-25T15:23:23.46Z</time></trkpt><trkpt lat="46.027997" lon="11.1277889"><ele>183.0</ele><time>2026-04-25T15:23:24.459Z</time></trkpt><trkpt lat="46.028319" lon="11.1278018"><ele>182.5</ele><time>2026-04-25T15:23:25.459Z</time></trkpt><trkpt lat="46.0286407" lon="11.1278059"><ele>182.0</ele><time>2026-04-25T15:23:26.461Z</time></trkpt><trkpt lat="46.028959" lon="11.1278053"><ele>183.5</ele><time>2026-04-25T15:23:27.461Z</time></trkpt><trkpt lat="46.0292765" lon="11.1278004"><ele>185.0</ele><time>2026-04-25T15:23:28.46Z</time></trkpt><trkpt lat="46.0295867" lon="11.1278014"><ele>185.0</ele><time>2026-04-25T15:23:29.461Z</time></trkpt><trkpt lat="46.0298956" lon="11.1278038"><ele>185.0</ele><time>2026-04-25T15:23:30.461Z</time></trkpt><trkpt lat="46.0302013" lon="11.1278054"><ele>186.0</ele><time>2026-04-25T15:23:31.46Z</time></trkpt><trkpt lat="46.0305046" lon="11.1278061"><ele>187.0</ele><time>2026-04-25T15:23:32.46Z</time></trkpt><trkpt lat="46.0308" lon="11.1278037"><ele>184.5</ele><time>2026-04-25T15:23:33.46Z</time></trkpt><trkpt lat="46.0310837" lon="11.1277991"><ele>182.0</ele><time>2026-04-25T15:23:34.46Z</time></trkpt><trkpt lat="46.0313613" lon="11.1277912"><ele>182.0</ele><time>2026-04-25T15:23:35.461Z</time></trkpt><trkpt lat="46.0316246" lon="11.1277614"><ele>182.0</ele><time>2026-04-25T15:23:36.46Z</time></trkpt><trkpt lat="46.0318782" lon="11.127711"><ele>183.5</ele><time>2026-04-25T15:23:37.46Z</time></trkpt><trkpt lat="46.0321158" lon="11.1276492"><ele>185.0</ele><time>2026-04-25T15:23:38.46Z</time></trkpt><trkpt lat="46.0323351" lon="11.127575"><ele>185.0</ele><time>2026-04-25T15:23:39.461Z</time></trkpt><trkpt lat="46.0325392" lon="11.1274898"><ele>185.0</ele><time>2026-04-25T15:23:40.461Z</time></trkpt><trkpt lat="46.0327272" lon="11.1274016"><ele>185.0</ele><time>2026-04-25T15:23:41.46Z</time></trkpt><trkpt lat="46.0329005" lon="11.1273207"><ele>184.33333333333331</ele><time>2026-04-25T15:23:42.46Z</time></trkpt><trkpt lat="46.0330602" lon="11.1272506"><ele>183.66666666666666</ele><time>2026-04-25T15:23:43.46Z</time></trkpt><trkpt lat="46.0332115" lon="11.1271847"><ele>183.0</ele><time>2026-04-25T15:23:44.46Z</time></trkpt><trkpt lat="46.0333539" lon="11.127116"><ele>183.0</ele><time>2026-04-25T15:23:45.46Z</time></trkpt><trkpt lat="46.0334891" lon="11.1270382"><ele>183.0</ele><time>2026-04-25T15:23:46.461Z</time></trkpt><trkpt lat="46.0336196" lon="11.1269502"><ele>183.0</ele><time>2026-04-25T15:23:47.46Z</time></trkpt><trkpt lat="46.0337441" lon="11.1268519"><ele>183.0</ele><time>2026-04-25T15:23:48.46Z</time></trkpt><trkpt lat="46.0338518" lon="11.1267527"><ele>183.0</ele><time>2026-04-25T15:23:49.46Z</time></trkpt><trkpt lat="46.0339464" lon="11.1266592"><ele>183.0</ele><time>2026-04-25T15:23:50.46Z</time></trkpt><trkpt lat="46.0340302" lon="11.1265792"><ele>183.0</ele><time>2026-04-25T15:23:51.461Z</time></trkpt><trkpt lat="46.0341021" lon="11.1265189"><ele>183.0</ele><time>2026-04-25T15:23:52.46Z</time></trkpt><trkpt lat="46.0342069" lon="11.126484"><ele>183.0</ele><time>2026-04-25T15:23:54.46Z</time></trkpt><trkpt lat="46.0343489" lon="11.1265197"><ele>183.4</ele><time>2026-04-25T15:23:56.461Z</time></trkpt><trkpt lat="46.0344547" lon="11.1265192"><ele>183.8</ele><time>2026-04-25T15:23:57.46Z</time></trkpt><trkpt lat="46.0345638" lon="11.1264733"><ele>184.2</ele><time>2026-04-25T15:23:58.461Z</time></trkpt><trkpt lat="46.0346571" lon="11.1264102"><ele>184.6</ele><time>2026-04-25T15:23:59.461Z</time></trkpt><trkpt lat="46.0347331" lon="11.1263557"><ele>185.0</ele><time>2026-04-25T15:24:00.46Z</time></trkpt><trkpt lat="46.0348082" lon="11.126336"><ele>185.0</ele><time>2026-04-25T15:24:01.461Z</time></trkpt><trkpt lat="46.0348875" lon="11.1263553"><ele>185.0</ele><time>2026-04-25T15:24:02.461Z</time></trkpt><trkpt lat="46.0349467" lon="11.1264323"><ele>185.0</ele><time>2026-04-25T15:24:03.46Z</time></trkpt><trkpt lat="46.0350014" lon="11.1265318"><ele>185.0</ele><time>2026-04-25T15:24:04.461Z</time></trkpt><trkpt lat="46.0350403" lon="11.1266611"><ele>185.0</ele><time>2026-04-25T15:24:05.462Z</time></trkpt><trkpt lat="46.0350598" lon="11.1268"><ele>185.0</ele><time>2026-04-25T15:24:06.46Z</time></trkpt><trkpt lat="46.0350558" lon="11.1269478"><ele>185.25</ele><time>2026-04-25T15:24:07.462Z</time></trkpt><trkpt lat="46.0350274" lon="11.1270987"><ele>185.5</ele><time>2026-04-25T15:24:08.46Z</time></trkpt><trkpt lat="46.0349712" lon="11.127244"><ele>185.75</ele><time>2026-04-25T15:24:09.46Z</time></trkpt><trkpt lat="46.0348974" lon="11.1273803"><ele>186.0</ele><time>2026-04-25T15:24:10.461Z</time></trkpt><trkpt lat="46.0348283" lon="11.1275185"><ele>186.0</ele><time>2026-04-25T15:24:11.461Z</time></trkpt><trkpt lat="46.0347643" lon="11.127653"><ele>186.0</ele><time>2026-04-25T15:24:12.462Z</time></trkpt><trkpt lat="46.0347027" lon="11.1277864"><ele>186.0</ele><time>2026-04-25T15:24:13.461Z</time></trkpt><trkpt lat="46.0346438" lon="11.1279056"><ele>186.0</ele><time>2026-04-25T15:24:14.46Z</time></trkpt><trkpt lat="46.0345891" lon="11.1280191"><ele>186.0</ele><time>2026-04-25T15:24:15.461Z</time></trkpt><trkpt lat="46.0345345" lon="11.128133"><ele>186.0</ele><time>2026-04-25T15:24:16.462Z</time></trkpt><trkpt lat="46.0344768" lon="11.1282514"><ele>186.0</ele><time>2026-04-25T15:24:17.46Z</time></trkpt><trkpt lat="46.0344169" lon="11.1283788"><ele>186.0</ele><time>2026-04-25T15:24:18.461Z</time></trkpt><trkpt lat="46.0343551" lon="11.1285105"><ele>186.0</ele><time>2026-04-25T15:24:19.462Z</time></trkpt><trkpt lat="46.0342904" lon="11.1286474"><ele>186.0</ele><time>2026-04-25T15:24:20.461Z</time></trkpt><trkpt lat="46.0342233" lon="11.1287859"><ele>186.0</ele><time>2026-04-25T15:24:21.461Z</time></trkpt><trkpt lat="46.0341593" lon="11.1289167"><ele>186.0</ele><time>2026-04-25T15:24:22.46Z</time></trkpt><trkpt lat="46.0341008" lon="11.1290323"><ele>186.0</ele><time>2026-04-25T15:24:23.461Z</time></trkpt><trkpt lat="46.0340454" lon="11.1291443"><ele>186.0</ele><time>2026-04-25T15:24:24.461Z</time></trkpt><trkpt lat="46.0339867" lon="11.1292656"><ele>186.0</ele><time>2026-04-25T15:24:25.461Z</time></trkpt><trkpt lat="46.0339242" lon="11.1293979"><ele>185.75</ele><time>2026-04-25T15:24:26.46Z</time></trkpt><trkpt lat="46.0338561" lon="11.1295407"><ele>185.5</ele><time>2026-04-25T15:24:27.462Z</time></trkpt><trkpt lat="46.0337826" lon="11.129692"><ele>185.25</ele><time>2026-04-25T15:24:28.462Z</time></trkpt><trkpt lat="46.0337049" lon="11.1298505"><ele>185.0</ele><time>2026-04-25T15:24:29.461Z</time></trkpt><trkpt lat="46.0336293" lon="11.1300076"><ele>185.5</ele><time>2026-04-25T15:24:30.462Z</time></trkpt><trkpt lat="46.0335574" lon="11.1301569"><ele>186.0</ele><time>2026-04-25T15:24:31.461Z</time></trkpt><trkpt lat="46.0334884" lon="11.1302975"><ele>186.5</ele><time>2026-04-25T15:24:32.461Z</time></trkpt><trkpt lat="46.0334193" lon="11.1304304"><ele>187.0</ele><time>2026-04-25T15:24:33.461Z</time></trkpt><trkpt lat="46.0333545" lon="11.1305583"><ele>186.8</ele><time>2026-04-25T15:24:34.462Z</time></trkpt><trkpt lat="46.0332919" lon="11.1306857"><ele>186.6</ele><time>2026-04-25T15:24:35.461Z</time></trkpt><trkpt lat="46.0332322" lon="11.1308145"><ele>186.4</ele><time>2026-04-25T15:24:36.461Z</time></trkpt><trkpt lat="46.033172" lon="11.1309436"><ele>186.20000000000002</ele><time>2026-04-25T15:24:37.461Z</time></trkpt><trkpt lat="46.033112" lon="11.1310683"><ele>186.0</ele><time>2026-04-25T15:24:38.461Z</time></trkpt><trkpt lat="46.0330531" lon="11.1311841"><ele>186.00000000000003</ele><time>2026-04-25T15:24:39.461Z</time></trkpt><trkpt lat="46.0329946" lon="11.1312831"><ele>186.0</ele><time>2026-04-25T15:24:40.461Z</time></trkpt><trkpt lat="46.0329393" lon="11.1313623"><ele>186.0</ele><time>2026-04-25T15:24:41.462Z</time></trkpt><trkpt lat="46.032883" lon="11.1314234"><ele>186.0</ele><time>2026-04-25T15:24:42.462Z</time></trkpt><trkpt lat="46.0328234" lon="11.1314756"><ele>186.0</ele><time>2026-04-25T15:24:43.461Z</time></trkpt><trkpt lat="46.0327603" lon="11.131525"><ele>186.00000000000003</ele><time>2026-04-25T15:24:44.461Z</time></trkpt><trkpt lat="46.0326974" lon="11.1315653"><ele>186.0</ele><time>2026-04-25T15:24:45.461Z</time></trkpt><trkpt lat="46.0326173" lon="11.1316197"><ele>185.60000000000002</ele><time>2026-04-25T15:24:47.462Z</time></trkpt><trkpt lat="46.0325524" lon="11.1316681"><ele>185.2</ele><time>2026-04-25T15:24:50.461Z</time></trkpt><trkpt lat="46.032476" lon="11.1317162"><ele>184.8</ele><time>2026-04-25T15:24:53.462Z</time></trkpt><trkpt lat="46.0323584" lon="11.1318385"><ele>184.39999999999998</ele><time>2026-04-25T15:24:55.461Z</time></trkpt><trkpt lat="46.0323099" lon="11.1319611"><ele>184.0</ele><time>2026-04-25T15:24:56.462Z</time></trkpt><trkpt lat="46.0323077" lon="11.1320711"><ele>184.0</ele><time>2026-04-25T15:24:57.462Z</time></trkpt><trkpt lat="46.0323313" lon="11.1321799"><ele>184.0</ele><time>2026-04-25T15:24:58.462Z</time></trkpt><trkpt lat="46.0323976" lon="11.1322654"><ele>184.0</ele><time>2026-04-25T15:24:59.461Z</time></trkpt><trkpt lat="46.0324819" lon="11.1323545"><ele>184.0</ele><time>2026-04-25T15:25:00.461Z</time></trkpt><trkpt lat="46.0325645" lon="11.1324374"><ele>184.0</ele><time>2026-04-25T15:25:01.462Z</time></trkpt><trkpt lat="46.0326266" lon="11.1325249"><ele>185.0</ele><time>2026-04-25T15:25:02.461Z</time></trkpt><trkpt lat="46.0326892" lon="11.1326105"><ele>186.0</ele><time>2026-04-25T15:25:03.462Z</time></trkpt><trkpt lat="46.0327761" lon="11.1326607"><ele>187.0</ele><time>2026-04-25T15:25:04.462Z</time></trkpt><trkpt lat="46.0329016" lon="11.1326556"><ele>188.0</ele><time>2026-04-25T15:25:05.462Z</time></trkpt><trkpt lat="46.0330334" lon="11.1326389"><ele>189.0</ele><time>2026-04-25T15:25:06.462Z</time></trkpt><trkpt lat="46.0331654" lon="11.1326283"><ele>189.0</ele><time>2026-04-25T15:25:07.462Z</time></trkpt><trkpt lat="46.0333041" lon="11.1326216"><ele>189.0</ele><time>2026-04-25T15:25:08.461Z</time></trkpt><trkpt lat="46.03346" lon="11.1326201"><ele>189.0</ele><time>2026-04-25T15:25:09.461Z</time></trkpt><trkpt lat="46.0336225" lon="11.1326392"><ele>188.66666666666666</ele><time>2026-04-25T15:25:10.462Z</time></trkpt><trkpt lat="46.03378" lon="11.1326814"><ele>188.33333333333331</ele><time>2026-04-25T15:25:11.461Z</time></trkpt><trkpt lat="46.0339342" lon="11.1327436"><ele>188.0</ele><time>2026-04-25T15:25:12.462Z</time></trkpt><trkpt lat="46.0340901" lon="11.1328159"><ele>189.0</ele><time>2026-04-25T15:25:13.461Z</time></trkpt><trkpt lat="46.0342558" lon="11.1329052"><ele>190.0</ele><time>2026-04-25T15:25:14.462Z</time></trkpt><trkpt lat="46.0344224" lon="11.1329977"><ele>191.0</ele><time>2026-04-25T15:25:15.461Z</time></trkpt><trkpt lat="46.0345865" lon="11.1330887"><ele>191.0</ele><time>2026-04-25T15:25:16.462Z</time></trkpt><trkpt lat="46.0347434" lon="11.1331717"><ele>191.0</ele><time>2026-04-25T15:25:17.463Z</time></trkpt><trkpt lat="46.0349004" lon="11.1332327"><ele>191.0</ele><time>2026-04-25T15:25:18.462Z</time></trkpt><trkpt lat="46.0350659" lon="11.1332762"><ele>197.66666666666666</ele><time>2026-04-25T15:25:19.462Z</time></trkpt><trkpt lat="46.0352391" lon="11.1332888"><ele>204.33333333333331</ele><time>2026-04-25T15:25:20.462Z</time></trkpt><trkpt lat="46.0354287" lon="11.1332933"><ele>211.0</ele><time>2026-04-25T15:25:21.462Z</time></trkpt><trkpt lat="46.035597" lon="11.1332664"><ele>211.0</ele><time>2026-04-25T15:25:22.462Z</time></trkpt><trkpt lat="46.035758" lon="11.1332581"><ele>211.0</ele><time>2026-04-25T15:25:23.462Z</time></trkpt><trkpt lat="46.0359209" lon="11.1332905"><ele>211.0</ele><time>2026-04-25T15:25:24.462Z</time></trkpt><trkpt lat="46.0360799" lon="11.1333535"><ele>210.66666666666666</ele><time>2026-04-25T15:25:25.463Z</time></trkpt><trkpt lat="46.036234" lon="11.1334292"><ele>210.33333333333331</ele><time>2026-04-25T15:25:26.462Z</time></trkpt><trkpt lat="46.0363789" lon="11.1335086"><ele>210.0</ele><time>2026-04-25T15:25:27.463Z</time></trkpt><trkpt lat="46.0365109" lon="11.133574"><ele>210.0</ele><time>2026-04-25T15:25:28.462Z</time></trkpt><trkpt lat="46.0366266" lon="11.1336233"><ele>210.0</ele><time>2026-04-25T15:25:29.462Z</time></trkpt><trkpt lat="46.0367243" lon="11.1336596"><ele>210.0</ele><time>2026-04-25T15:25:30.463Z</time></trkpt><trkpt lat="46.0368112" lon="11.1336849"><ele>210.0</ele><time>2026-04-25T15:25:31.463Z</time></trkpt><trkpt lat="46.0368937" lon="11.1336983"><ele>210.0</ele><time>2026-04-25T15:25:32.462Z</time></trkpt><trkpt lat="46.0369727" lon="11.1336978"><ele>210.42857142857142</ele><time>2026-04-25T15:25:33.462Z</time></trkpt><trkpt lat="46.0370405" lon="11.1337026"><ele>210.85714285714286</ele><time>2026-04-25T15:25:34.462Z</time></trkpt><trkpt lat="46.0371037" lon="11.1337102"><ele>211.28571428571428</ele><time>2026-04-25T15:25:35.462Z</time></trkpt><trkpt lat="46.0371704" lon="11.1337413"><ele>211.71428571428572</ele><time>2026-04-25T15:25:36.463Z</time></trkpt><trkpt lat="46.0372403" lon="11.1337884"><ele>212.14285714285714</ele><time>2026-04-25T15:25:37.462Z</time></trkpt><trkpt lat="46.0373092" lon="11.1338259"><ele>212.57142857142856</ele><time>2026-04-25T15:25:38.463Z</time></trkpt><trkpt lat="46.0373778" lon="11.133849"><ele>213.0</ele><time>2026-04-25T15:25:39.463Z</time></trkpt><trkpt lat="46.0374504" lon="11.1338725"><ele>213.2</ele><time>2026-04-25T15:25:40.462Z</time></trkpt><trkpt lat="46.0375315" lon="11.1339042"><ele>213.4</ele><time>2026-04-25T15:25:41.462Z</time></trkpt><trkpt lat="46.0376215" lon="11.1339523"><ele>213.59999999999997</ele><time>2026-04-25T15:25:42.463Z</time></trkpt><trkpt lat="46.0377129" lon="11.1340151"><ele>213.79999999999998</ele><time>2026-04-25T15:25:43.463Z</time></trkpt><trkpt lat="46.0378017" lon="11.1340877"><ele>214.0</ele><time>2026-04-25T15:25:44.462Z</time></trkpt><trkpt lat="46.0378839" lon="11.1341595"><ele>215.2</ele><time>2026-04-25T15:25:45.463Z</time></trkpt><trkpt lat="46.0379709" lon="11.134237"><ele>216.39999999999998</ele><time>2026-04-25T15:25:46.462Z</time></trkpt><trkpt lat="46.0380577" lon="11.1343137"><ele>217.6</ele><time>2026-04-25T15:25:47.462Z</time></trkpt><trkpt lat="46.0381406" lon="11.1343847"><ele>218.8</ele><time>2026-04-25T15:25:48.462Z</time></trkpt><trkpt lat="46.0382125" lon="11.1344437"><ele>220.0</ele><time>2026-04-25T15:25:49.462Z</time></trkpt><trkpt lat="46.0382863" lon="11.134504"><ele>220.83333333333331</ele><time>2026-04-25T15:25:50.463Z</time></trkpt><trkpt lat="46.0383543" lon="11.1345617"><ele>221.66666666666666</ele><time>2026-04-25T15:25:51.462Z</time></trkpt><trkpt lat="46.0384253" lon="11.1346228"><ele>222.5</ele><time>2026-04-25T15:25:52.462Z</time></trkpt><trkpt lat="46.0385028" lon="11.1346868"><ele>223.33333333333331</ele><time>2026-04-25T15:25:53.462Z</time></trkpt><trkpt lat="46.038573" lon="11.1347429"><ele>224.16666666666666</ele><time>2026-04-25T15:25:54.463Z</time></trkpt><trkpt lat="46.0386456" lon="11.1348028"><ele>225.0</ele><time>2026-04-25T15:25:55.464Z</time></trkpt><trkpt lat="46.0387145" lon="11.1348754"><ele>226.2</ele><time>2026-04-25T15:25:56.463Z</time></trkpt><trkpt lat="46.0387867" lon="11.1349598"><ele>227.4</ele><time>2026-04-25T15:25:57.463Z</time></trkpt><trkpt lat="46.0388592" lon="11.1350669"><ele>228.60000000000002</ele><time>2026-04-25T15:25:58.462Z</time></trkpt><trkpt lat="46.0389417" lon="11.1351743"><ele>229.8</ele><time>2026-04-25T15:25:59.462Z</time></trkpt><trkpt lat="46.0390336" lon="11.1352693"><ele>231.0</ele><time>2026-04-25T15:26:00.462Z</time></trkpt><trkpt lat="46.0391099" lon="11.1353537"><ele>231.0</ele><time>2026-04-25T15:26:01.463Z</time></trkpt><trkpt lat="46.0391726" lon="11.1354221"><ele>231.0</ele><time>2026-04-25T15:26:02.462Z</time></trkpt><trkpt lat="46.0392592" lon="11.1355252"><ele>231.0</ele><time>2026-04-25T15:26:04.463Z</time></trkpt><trkpt lat="46.0393131" lon="11.1355975"><ele>231.0</ele><time>2026-04-25T15:26:06.464Z</time></trkpt><trkpt lat="46.0393535" lon="11.1356764"><ele>231.0</ele><time>2026-04-25T15:26:09.463Z</time></trkpt><trkpt lat="46.039403" lon="11.1358111"><ele>231.0</ele><time>2026-04-25T15:26:11.462Z</time></trkpt><trkpt lat="46.0394332" lon="11.1359065"><ele>232.16666666666666</ele><time>2026-04-25T15:26:12.463Z</time></trkpt><trkpt lat="46.0394583" lon="11.1360144"><ele>233.33333333333331</ele><time>2026-04-25T15:26:13.462Z</time></trkpt><trkpt lat="46.0394776" lon="11.1361231"><ele>234.5</ele><time>2026-04-25T15:26:14.464Z</time></trkpt><trkpt lat="46.0394987" lon="11.1362365"><ele>235.66666666666666</ele><time>2026-04-25T15:26:15.463Z</time></trkpt><trkpt lat="46.0395226" lon="11.1363517"><ele>236.83333333333331</ele><time>2026-04-25T15:26:16.463Z</time></trkpt><trkpt lat="46.0395533" lon="11.1364775"><ele>238.0</ele><time>2026-04-25T15:26:17.464Z</time></trkpt><trkpt lat="46.0395843" lon="11.1366066"><ele>240.25</ele><time>2026-04-25T15:26:18.463Z</time></trkpt><trkpt lat="46.0396194" lon="11.1367629"><ele>242.5</ele><time>2026-04-25T15:26:19.464Z</time></trkpt><trkpt lat="46.0396516" lon="11.1369152"><ele>244.75</ele><time>2026-04-25T15:26:20.464Z</time></trkpt><trkpt lat="46.0396928" lon="11.1370875"><ele>247.0</ele><time>2026-04-25T15:26:21.464Z</time></trkpt><trkpt lat="46.0397324" lon="11.1372487"><ele>246.99999999999997</ele><time>2026-04-25T15:26:22.463Z</time></trkpt><trkpt lat="46.0397623" lon="11.1373679"><ele>247.0</ele><time>2026-04-25T15:26:23.463Z</time></trkpt><trkpt lat="46.0397793" lon="11.1374929"><ele>247.0</ele><time>2026-04-25T15:26:24.464Z</time></trkpt><trkpt lat="46.039783" lon="11.1376178"><ele>247.0</ele><time>2026-04-25T15:26:25.463Z</time></trkpt><trkpt lat="46.0397636" lon="11.1377495"><ele>246.99999999999997</ele><time>2026-04-25T15:26:26.463Z</time></trkpt><trkpt lat="46.0397122" lon="11.1378559"><ele>247.0</ele><time>2026-04-25T15:26:27.463Z</time></trkpt><trkpt lat="46.0396272" lon="11.1379052"><ele>248.39999999999998</ele><time>2026-04-25T15:26:28.464Z</time></trkpt><trkpt lat="46.0395261" lon="11.1379149"><ele>249.79999999999998</ele><time>2026-04-25T15:26:29.463Z</time></trkpt><trkpt lat="46.0394295" lon="11.1378903"><ele>251.2</ele><time>2026-04-25T15:26:30.463Z</time></trkpt><trkpt lat="46.0393319" lon="11.137841"><ele>252.6</ele><time>2026-04-25T15:26:31.463Z</time></trkpt><trkpt lat="46.0392259" lon="11.1377814"><ele>254.0</ele><time>2026-04-25T15:26:32.464Z</time></trkpt><trkpt lat="46.0391194" lon="11.1377391"><ele>254.2</ele><time>2026-04-25T15:26:33.464Z</time></trkpt><trkpt lat="46.039023" lon="11.1377184"><ele>254.39999999999998</ele><time>2026-04-25T15:26:34.464Z</time></trkpt><trkpt lat="46.0389308" lon="11.1377241"><ele>254.6</ele><time>2026-04-25T15:26:35.463Z</time></trkpt><trkpt lat="46.0388404" lon="11.1377686"><ele>254.8</ele><time>2026-04-25T15:26:36.463Z</time></trkpt><trkpt lat="46.0387547" lon="11.1378635"><ele>255.0</ele><time>2026-04-25T15:26:37.463Z</time></trkpt><trkpt lat="46.0386844" lon="11.138004"><ele>255.0</ele><time>2026-04-25T15:26:38.463Z</time></trkpt><trkpt lat="46.0386375" lon="11.1381702"><ele>255.0</ele><time>2026-04-25T15:26:39.464Z</time></trkpt><trkpt lat="46.0386028" lon="11.1383337"><ele>255.0</ele><time>2026-04-25T15:26:40.463Z</time></trkpt><trkpt lat="46.0385931" lon="11.1385295"><ele>255.0</ele><time>2026-04-25T15:26:41.464Z</time></trkpt><trkpt lat="46.0385873" lon="11.1387358"><ele>257.0</ele><time>2026-04-25T15:26:42.464Z</time></trkpt><trkpt lat="46.0385738" lon="11.1389251"><ele>259.0</ele><time>2026-04-25T15:26:43.463Z</time></trkpt><trkpt lat="46.0385669" lon="11.1391092"><ele>261.0</ele><time>2026-04-25T15:26:44.464Z</time></trkpt><trkpt lat="46.0385651" lon="11.1392823"><ele>263.0</ele><time>2026-04-25T15:26:45.463Z</time></trkpt><trkpt lat="46.0385742" lon="11.1394567"><ele>265.25</ele><time>2026-04-25T15:26:46.463Z</time></trkpt><trkpt lat="46.0386035" lon="11.1396411"><ele>267.5</ele><time>2026-04-25T15:26:47.464Z</time></trkpt><trkpt lat="46.0386664" lon="11.1398222"><ele>269.75</ele><time>2026-04-25T15:26:48.463Z</time></trkpt><trkpt lat="46.0387541" lon="11.1399768"><ele>272.0</ele><time>2026-04-25T15:26:49.464Z</time></trkpt><trkpt lat="46.0388596" lon="11.1401018"><ele>272.5</ele><time>2026-04-25T15:26:50.464Z</time></trkpt><trkpt lat="46.0389744" lon="11.1402099"><ele>273.0</ele><time>2026-04-25T15:26:51.464Z</time></trkpt><trkpt lat="46.0390881" lon="11.1403166"><ele>273.5</ele><time>2026-04-25T15:26:52.463Z</time></trkpt><trkpt lat="46.0391993" lon="11.1404326"><ele>274.0</ele><time>2026-04-25T15:26:53.463Z</time></trkpt><trkpt lat="46.0393033" lon="11.1405478"><ele>274.0</ele><time>2026-04-25T15:26:54.463Z</time></trkpt><trkpt lat="46.0393906" lon="11.1406471"><ele>274.0</ele><time>2026-04-25T15:26:55.463Z</time></trkpt><trkpt lat="46.0394625" lon="11.1407284"><ele>274.0</ele><time>2026-04-25T15:26:56.463Z</time></trkpt><trkpt lat="46.039523" lon="11.1408004"><ele>274.0</ele><time>2026-04-25T15:26:57.463Z</time></trkpt><trkpt lat="46.0395735" lon="11.1408619"><ele>274.0</ele><time>2026-04-25T15:26:58.463Z</time></trkpt><trkpt lat="46.039629" lon="11.1409285"><ele>274.0</ele><time>2026-04-25T15:26:59.463Z</time></trkpt><trkpt lat="46.0396976" lon="11.1410087"><ele>275.8</ele><time>2026-04-25T15:27:00.463Z</time></trkpt><trkpt lat="46.0397881" lon="11.1410826"><ele>277.59999999999997</ele><time>2026-04-25T15:27:01.464Z</time></trkpt><trkpt lat="46.0398763" lon="11.1411623"><ele>279.4</ele><time>2026-04-25T15:27:02.464Z</time></trkpt><trkpt lat="46.0399731" lon="11.1412257"><ele>281.2</ele><time>2026-04-25T15:27:03.464Z</time></trkpt><trkpt lat="46.0400869" lon="11.1412651"><ele>283.0</ele><time>2026-04-25T15:27:04.464Z</time></trkpt><trkpt lat="46.0402003" lon="11.1412792"><ele>283.0</ele><time>2026-04-25T15:27:05.464Z</time></trkpt><trkpt lat="46.0403269" lon="11.1412741"><ele>283.0</ele><time>2026-04-25T15:27:06.465Z</time></trkpt><trkpt lat="46.0404687" lon="11.1412632"><ele>283.0</ele><time>2026-04-25T15:27:07.464Z</time></trkpt><trkpt lat="46.0406111" lon="11.1412515"><ele>283.0</ele><time>2026-04-25T15:27:08.465Z</time></trkpt><trkpt lat="46.0407477" lon="11.141238"><ele>282.5</ele><time>2026-04-25T15:27:09.465Z</time></trkpt><trkpt lat="46.0408831" lon="11.1412124"><ele>282.0</ele><time>2026-04-25T15:27:10.465Z</time></trkpt><trkpt lat="46.0409997" lon="11.1411528"><ele>281.5</ele><time>2026-04-25T15:27:11.464Z</time></trkpt><trkpt lat="46.041108" lon="11.1410537"><ele>281.0</ele><time>2026-04-25T15:27:12.464Z</time></trkpt><trkpt lat="46.0412323" lon="11.1409246"><ele>281.0</ele><time>2026-04-25T15:27:13.464Z</time></trkpt><trkpt lat="46.0413425" lon="11.1407859"><ele>281.0</ele><time>2026-04-25T15:27:14.463Z</time></trkpt><trkpt lat="46.0414324" lon="11.1406398"><ele>281.0</ele><time>2026-04-25T15:27:15.465Z</time></trkpt><trkpt lat="46.0415155" lon="11.1405007"><ele>281.0</ele><time>2026-04-25T15:27:16.464Z</time></trkpt><trkpt lat="46.0415882" lon="11.140369"><ele>279.40000000000003</ele><time>2026-04-25T15:27:17.464Z</time></trkpt><trkpt lat="46.0416647" lon="11.140256"><ele>277.8</ele><time>2026-04-25T15:27:18.464Z</time></trkpt><trkpt lat="46.0417391" lon="11.1401549"><ele>276.20000000000005</ele><time>2026-04-25T15:27:19.464Z</time></trkpt><trkpt lat="46.041813" lon="11.140063"><ele>274.6</ele><time>2026-04-25T15:27:20.465Z</time></trkpt><trkpt lat="46.041886" lon="11.1399748"><ele>273.0</ele><time>2026-04-25T15:27:21.464Z</time></trkpt><trkpt lat="46.0419574" lon="11.1398824"><ele>272.4</ele><time>2026-04-25T15:27:22.464Z</time></trkpt><trkpt lat="46.0420252" lon="11.1397883"><ele>271.8</ele><time>2026-04-25T15:27:23.464Z</time></trkpt><trkpt lat="46.0420971" lon="11.1396942"><ele>271.2</ele><time>2026-04-25T15:27:24.465Z</time></trkpt><trkpt lat="46.0421698" lon="11.139592"><ele>270.6</ele><time>2026-04-25T15:27:25.465Z</time></trkpt><trkpt lat="46.0422446" lon="11.139484"><ele>270.0</ele><time>2026-04-25T15:27:26.464Z</time></trkpt><trkpt lat="46.0423247" lon="11.1393712"><ele>270.0</ele><time>2026-04-25T15:27:27.465Z</time></trkpt><trkpt lat="46.0424103" lon="11.1392535"><ele>270.0</ele><time>2026-04-25T15:27:28.464Z</time></trkpt><trkpt lat="46.0424944" lon="11.1391448"><ele>270.0</ele><time>2026-04-25T15:27:29.465Z</time></trkpt><trkpt lat="46.0425772" lon="11.1390497"><ele>270.0</ele><time>2026-04-25T15:27:30.464Z</time></trkpt><trkpt lat="46.0426629" lon="11.1389759"><ele>270.0</ele><time>2026-04-25T15:27:31.464Z</time></trkpt><trkpt lat="46.0427499" lon="11.1389205"><ele>270.6666666666667</ele><time>2026-04-25T15:27:32.465Z</time></trkpt><trkpt lat="46.0428468" lon="11.1388943"><ele>271.3333333333333</ele><time>2026-04-25T15:27:33.465Z</time></trkpt><trkpt lat="46.0429284" lon="11.1388695"><ele>272.0</ele><time>2026-04-25T15:27:34.465Z</time></trkpt><trkpt lat="46.0429996" lon="11.1388339"><ele>272.66666666666663</ele><time>2026-04-25T15:27:35.464Z</time></trkpt><trkpt lat="46.0430795" lon="11.1388045"><ele>273.3333333333333</ele><time>2026-04-25T15:27:36.464Z</time></trkpt><trkpt lat="46.0431639" lon="11.1387829"><ele>274.0</ele><time>2026-04-25T15:27:37.464Z</time></trkpt><trkpt lat="46.043262" lon="11.1387795"><ele>273.59999999999997</ele><time>2026-04-25T15:27:38.465Z</time></trkpt><trkpt lat="46.0433574" lon="11.1387741"><ele>273.2</ele><time>2026-04-25T15:27:39.465Z</time></trkpt><trkpt lat="46.0434513" lon="11.1387687"><ele>272.79999999999995</ele><time>2026-04-25T15:27:40.464Z</time></trkpt><trkpt lat="46.0435466" lon="11.1387607"><ele>272.4</ele><time>2026-04-25T15:27:41.465Z</time></trkpt><trkpt lat="46.0436404" lon="11.1387498"><ele>272.0</ele><time>2026-04-25T15:27:42.464Z</time></trkpt><trkpt lat="46.0437348" lon="11.1387419"><ele>272.0</ele><time>2026-04-25T15:27:43.467Z</time></trkpt><trkpt lat="46.043831" lon="11.1387391"><ele>272.0</ele><time>2026-04-25T15:27:44.464Z</time></trkpt><trkpt lat="46.0439267" lon="11.1387275"><ele>272.0</ele><time>2026-04-25T15:27:45.464Z</time></trkpt><trkpt lat="46.0440152" lon="11.1386994"><ele>272.0</ele><time>2026-04-25T15:27:46.465Z</time></trkpt><trkpt lat="46.0441085" lon="11.1386692"><ele>272.0</ele><time>2026-04-25T15:27:47.464Z</time></trkpt><trkpt lat="46.0442038" lon="11.1386431"><ele>272.4</ele><time>2026-04-25T15:27:48.464Z</time></trkpt><trkpt lat="46.0443004" lon="11.1386327"><ele>272.79999999999995</ele><time>2026-04-25T15:27:49.464Z</time></trkpt><trkpt lat="46.0443964" lon="11.1386299"><ele>273.2</ele><time>2026-04-25T15:27:50.464Z</time></trkpt><trkpt lat="46.044493" lon="11.1386284"><ele>273.59999999999997</ele><time>2026-04-25T15:27:51.465Z</time></trkpt><trkpt lat="46.0445856" lon="11.1386185"><ele>274.0</ele><time>2026-04-25T15:27:52.464Z</time></trkpt><trkpt lat="46.044676" lon="11.1385967"><ele>274.0</ele><time>2026-04-25T15:27:53.464Z</time></trkpt><trkpt lat="46.0447657" lon="11.1385651"><ele>274.0</ele><time>2026-04-25T15:27:54.465Z</time></trkpt><trkpt lat="46.0448547" lon="11.1385254"><ele>274.0</ele><time>2026-04-25T15:27:55.464Z</time></trkpt><trkpt lat="46.044944" lon="11.138484"><ele>274.0</ele><time>2026-04-25T15:27:56.464Z</time></trkpt><trkpt lat="46.0450332" lon="11.1384487"><ele>274.0</ele><time>2026-04-25T15:27:57.464Z</time></trkpt><trkpt lat="46.0451209" lon="11.1384285"><ele>274.0</ele><time>2026-04-25T15:27:58.464Z</time></trkpt><trkpt lat="46.0452044" lon="11.1384214"><ele>274.0</ele><time>2026-04-25T15:27:59.465Z</time></trkpt><trkpt lat="46.0452903" lon="11.1384277"><ele>274.0</ele><time>2026-04-25T15:28:00.464Z</time></trkpt><trkpt lat="46.0453765" lon="11.1384478"><ele>274.0</ele><time>2026-04-25T15:28:01.465Z</time></trkpt><trkpt lat="46.0454586" lon="11.1384666"><ele>274.0</ele><time>2026-04-25T15:28:02.465Z</time></trkpt><trkpt lat="46.0455346" lon="11.1384812"><ele>274.0</ele><time>2026-04-25T15:28:03.465Z</time></trkpt><trkpt lat="46.0456025" lon="11.1384913"><ele>274.0</ele><time>2026-04-25T15:28:04.465Z</time></trkpt><trkpt lat="46.0457209" lon="11.1385092"><ele>274.0</ele><time>2026-04-25T15:28:06.466Z</time></trkpt><trkpt lat="46.0457838" lon="11.1385984"><ele>274.0</ele><time>2026-04-25T15:28:10.464Z</time></trkpt><trkpt lat="46.0458358" lon="11.1386521"><ele>274.0</ele><time>2026-04-25T15:28:11.465Z</time></trkpt><trkpt lat="46.0459137" lon="11.1386999"><ele>274.0</ele><time>2026-04-25T15:28:12.465Z</time></trkpt><trkpt lat="46.046012" lon="11.1387092"><ele>274.0</ele><time>2026-04-25T15:28:13.465Z</time></trkpt><trkpt lat="46.046119" lon="11.1386773"><ele>274.0</ele><time>2026-04-25T15:28:14.464Z</time></trkpt><trkpt lat="46.0462323" lon="11.1386127"><ele>274.0</ele><time>2026-04-25T15:28:15.465Z</time></trkpt><trkpt lat="46.0463356" lon="11.1385828"><ele>274.0</ele><time>2026-04-25T15:28:16.465Z</time></trkpt><trkpt lat="46.0464431" lon="11.1385737"><ele>274.0</ele><time>2026-04-25T15:28:17.466Z</time></trkpt><trkpt lat="46.0465536" lon="11.138551"><ele>274.2</ele><time>2026-04-25T15:28:18.465Z</time></trkpt><trkpt lat="46.0466482" lon="11.1384931"><ele>274.4</ele><time>2026-04-25T15:28:19.465Z</time></trkpt><trkpt lat="46.0467336" lon="11.138407"><ele>274.6</ele><time>2026-04-25T15:28:20.465Z</time></trkpt><trkpt lat="46.0468104" lon="11.1382889"><ele>274.8</ele><time>2026-04-25T15:28:21.466Z</time></trkpt><trkpt lat="46.0468763" lon="11.1381537"><ele>275.0</ele><time>2026-04-25T15:28:22.466Z</time></trkpt><trkpt lat="46.0469477" lon="11.1380279"><ele>274.2</ele><time>2026-04-25T15:28:23.465Z</time></trkpt><trkpt lat="46.0470251" lon="11.1379191"><ele>273.4</ele><time>2026-04-25T15:28:24.465Z</time></trkpt><trkpt lat="46.0471075" lon="11.1378358"><ele>272.6</ele><time>2026-04-25T15:28:25.465Z</time></trkpt><trkpt lat="46.0471945" lon="11.1377801"><ele>271.8</ele><time>2026-04-25T15:28:26.465Z</time></trkpt><trkpt lat="46.0472783" lon="11.1377373"><ele>271.0</ele><time>2026-04-25T15:28:27.465Z</time></trkpt><trkpt lat="46.0473661" lon="11.1377124"><ele>271.0</ele><time>2026-04-25T15:28:28.465Z</time></trkpt><trkpt lat="46.0474516" lon="11.1376991"><ele>271.0</ele><time>2026-04-25T15:28:29.466Z</time></trkpt><trkpt lat="46.0475352" lon="11.137691"><ele>271.0</ele><time>2026-04-25T15:28:30.466Z</time></trkpt><trkpt lat="46.047612" lon="11.1376835"><ele>271.0</ele><time>2026-04-25T15:28:31.465Z</time></trkpt><trkpt lat="46.0476919" lon="11.1376685"><ele>271.0</ele><time>2026-04-25T15:28:32.466Z</time></trkpt><trkpt lat="46.0477741" lon="11.1376512"><ele>271.0</ele><time>2026-04-25T15:28:33.465Z</time></trkpt><trkpt lat="46.0478516" lon="11.1376281"><ele>269.66666666666663</ele><time>2026-04-25T15:28:34.466Z</time></trkpt><trkpt lat="46.0479329" lon="11.1376045"><ele>268.3333333333333</ele><time>2026-04-25T15:28:35.466Z</time></trkpt><trkpt lat="46.0480153" lon="11.1375735"><ele>267.0</ele><time>2026-04-25T15:28:36.466Z</time></trkpt><trkpt lat="46.0480961" lon="11.1375464"><ele>265.6666666666667</ele><time>2026-04-25T15:28:37.466Z</time></trkpt><trkpt lat="46.04817" lon="11.1375121"><ele>264.33333333333337</ele><time>2026-04-25T15:28:38.466Z</time></trkpt><trkpt lat="46.0482375" lon="11.1374764"><ele>263.0</ele><time>2026-04-25T15:28:39.466Z</time></trkpt><trkpt lat="46.0483179" lon="11.1374319"><ele>261.0</ele><time>2026-04-25T15:28:40.465Z</time></trkpt><trkpt lat="46.0484049" lon="11.13738"><ele>259.0</ele><time>2026-04-25T15:28:41.465Z</time></trkpt><trkpt lat="46.0484916" lon="11.1373276"><ele>257.0</ele><time>2026-04-25T15:28:42.465Z</time></trkpt><trkpt lat="46.04858" lon="11.1372698"><ele>255.0</ele><time>2026-04-25T15:28:43.465Z</time></trkpt><trkpt lat="46.048669" lon="11.1372175"><ele>253.0</ele><time>2026-04-25T15:28:44.465Z</time></trkpt><trkpt lat="46.0487627" lon="11.1371636"><ele>253.0</ele><time>2026-04-25T15:28:45.465Z</time></trkpt><trkpt lat="46.0488706" lon="11.1371393"><ele>253.0</ele><time>2026-04-25T15:28:46.466Z</time></trkpt><trkpt lat="46.0489759" lon="11.1371234"><ele>253.0</ele><time>2026-04-25T15:28:47.466Z</time></trkpt><trkpt lat="46.0490702" lon="11.1371343"><ele>253.0</ele><time>2026-04-25T15:28:48.465Z</time></trkpt><trkpt lat="46.0491525" lon="11.137158"><ele>253.0</ele><time>2026-04-25T15:28:49.465Z</time></trkpt><trkpt lat="46.0492224" lon="11.1371804"><ele>252.66666666666666</ele><time>2026-04-25T15:28:50.465Z</time></trkpt><trkpt lat="46.0492889" lon="11.1371987"><ele>252.33333333333331</ele><time>2026-04-25T15:28:51.465Z</time></trkpt><trkpt lat="46.0493536" lon="11.1372109"><ele>252.0</ele><time>2026-04-25T15:28:52.466Z</time></trkpt><trkpt lat="46.0494445" lon="11.1372205"><ele>251.66666666666669</ele><time>2026-04-25T15:28:54.467Z</time></trkpt><trkpt lat="46.0495245" lon="11.1372416"><ele>251.33333333333334</ele><time>2026-04-25T15:28:58.466Z</time></trkpt><trkpt lat="46.0496094" lon="11.1372595"><ele>251.0</ele><time>2026-04-25T15:29:00.465Z</time></trkpt><trkpt lat="46.0496728" lon="11.1372696"><ele>251.00000000000003</ele><time>2026-04-25T15:29:01.466Z</time></trkpt><trkpt lat="46.0497488" lon="11.1372814"><ele>251.0</ele><time>2026-04-25T15:29:02.466Z</time></trkpt><trkpt lat="46.0498296" lon="11.1372941"><ele>251.0</ele><time>2026-04-25T15:29:03.466Z</time></trkpt><trkpt lat="46.0499115" lon="11.137309"><ele>251.0</ele><time>2026-04-25T15:29:04.465Z</time></trkpt><trkpt lat="46.0499863" lon="11.1373151"><ele>251.00000000000003</ele><time>2026-04-25T15:29:05.465Z</time></trkpt><trkpt lat="46.0500758" lon="11.1373214"><ele>251.0</ele><time>2026-04-25T15:29:06.467Z</time></trkpt><trkpt lat="46.0501761" lon="11.137335"><ele>250.20000000000002</ele><time>2026-04-25T15:29:07.466Z</time></trkpt><trkpt lat="46.0502688" lon="11.1373473"><ele>249.40000000000003</ele><time>2026-04-25T15:29:08.465Z</time></trkpt><trkpt lat="46.0503598" lon="11.1373548"><ele>248.6</ele><time>2026-04-25T15:29:09.466Z</time></trkpt><trkpt lat="46.0504568" lon="11.1373652"><ele>247.8</ele><time>2026-04-25T15:29:10.466Z</time></trkpt><trkpt lat="46.0505573" lon="11.1373773"><ele>247.0</ele><time>2026-04-25T15:29:11.467Z</time></trkpt><trkpt lat="46.0506637" lon="11.137393"><ele>248.6</ele><time>2026-04-25T15:29:12.466Z</time></trkpt><trkpt lat="46.0507736" lon="11.1374098"><ele>250.2</ele><time>2026-04-25T15:29:13.466Z</time></trkpt><trkpt lat="46.0508786" lon="11.1374238"><ele>251.8</ele><time>2026-04-25T15:29:14.467Z</time></trkpt><trkpt lat="46.0509765" lon="11.1374436"><ele>253.4</ele><time>2026-04-25T15:29:15.467Z</time></trkpt><trkpt lat="46.0510633" lon="11.1374628"><ele>255.0</ele><time>2026-04-25T15:29:16.467Z</time></trkpt><trkpt lat="46.0511366" lon="11.1374756"><ele>255.0</ele><time>2026-04-25T15:29:17.467Z</time></trkpt><trkpt lat="46.0512055" lon="11.1374713"><ele>255.00000000000003</ele><time>2026-04-25T15:29:18.467Z</time></trkpt><trkpt lat="46.0512707" lon="11.1374423"><ele>255.0</ele><time>2026-04-25T15:29:19.466Z</time></trkpt><trkpt lat="46.0513296" lon="11.1373931"><ele>255.0</ele><time>2026-04-25T15:29:20.466Z</time></trkpt><trkpt lat="46.051384" lon="11.1373211"><ele>255.00000000000003</ele><time>2026-04-25T15:29:21.466Z</time></trkpt><trkpt lat="46.0514251" lon="11.1372303"><ele>255.0</ele><time>2026-04-25T15:29:22.466Z</time></trkpt><trkpt lat="46.0514635" lon="11.1371282"><ele>255.0</ele><time>2026-04-25T15:29:23.466Z</time></trkpt><trkpt lat="46.0514945" lon="11.1370325"><ele>253.0</ele><time>2026-04-25T15:29:24.466Z</time></trkpt><trkpt lat="46.0515513" lon="11.1369324"><ele>251.0</ele><time>2026-04-25T15:29:26.466Z</time></trkpt><trkpt lat="46.0516652" lon="11.1369342"><ele>249.0</ele><time>2026-04-25T15:29:28.467Z</time></trkpt><trkpt lat="46.051767" lon="11.1369413"><ele>247.0</ele><time>2026-04-25T15:29:29.467Z</time></trkpt><trkpt lat="46.0518885" lon="11.1369447"><ele>245.0</ele><time>2026-04-25T15:29:30.466Z</time></trkpt><trkpt lat="46.0520063" lon="11.1369376"><ele>245.00000000000003</ele><time>2026-04-25T15:29:31.466Z</time></trkpt><trkpt lat="46.0521064" lon="11.1369321"><ele>245.0</ele><time>2026-04-25T15:29:32.466Z</time></trkpt><trkpt lat="46.052202" lon="11.1369269"><ele>245.0</ele><time>2026-04-25T15:29:33.467Z</time></trkpt><trkpt lat="46.0522881" lon="11.1369286"><ele>245.0</ele><time>2026-04-25T15:29:34.466Z</time></trkpt><trkpt lat="46.0523692" lon="11.1369347"><ele>245.00000000000003</ele><time>2026-04-25T15:29:35.467Z</time></trkpt><trkpt lat="46.0524478" lon="11.136951"><ele>245.0</ele><time>2026-04-25T15:29:36.467Z</time></trkpt><trkpt lat="46.0525305" lon="11.1369832"><ele>244.50000000000003</ele><time>2026-04-25T15:29:37.466Z</time></trkpt><trkpt lat="46.0526197" lon="11.1370398"><ele>244.0</ele><time>2026-04-25T15:29:38.466Z</time></trkpt><trkpt lat="46.0526949" lon="11.1370914"><ele>243.5</ele><time>2026-04-25T15:29:39.467Z</time></trkpt><trkpt lat="46.052765" lon="11.1371344"><ele>243.0</ele><time>2026-04-25T15:29:40.467Z</time></trkpt><trkpt lat="46.0528318" lon="11.1371759"><ele>242.50000000000003</ele><time>2026-04-25T15:29:41.467Z</time></trkpt><trkpt lat="46.0529066" lon="11.1372293"><ele>242.0</ele><time>2026-04-25T15:29:42.467Z</time></trkpt><trkpt lat="46.0530006" lon="11.1372993"><ele>242.00000000000003</ele><time>2026-04-25T15:29:44.467Z</time></trkpt><trkpt lat="46.0530359" lon="11.1373819"><ele>242.0</ele><time>2026-04-25T15:29:47.466Z</time></trkpt><trkpt lat="46.0530328" lon="11.1375074"><ele>242.0</ele><time>2026-04-25T15:29:49.466Z</time></trkpt><trkpt lat="46.0529617" lon="11.1375745"><ele>242.0</ele><time>2026-04-25T15:29:51.467Z</time></trkpt><trkpt lat="46.0528766" lon="11.1375885"><ele>242.00000000000003</ele><time>2026-04-25T15:29:53.466Z</time></trkpt><trkpt lat="46.0528061" lon="11.1376019"><ele>242.0</ele><time>2026-04-25T15:29:54.467Z</time></trkpt><trkpt lat="46.0527229" lon="11.1376349"><ele>244.2</ele><time>2026-04-25T15:29:55.467Z</time></trkpt><trkpt lat="46.0526246" lon="11.1376721"><ele>246.39999999999998</ele><time>2026-04-25T15:29:56.467Z</time></trkpt><trkpt lat="46.0525094" lon="11.1377005"><ele>248.60000000000002</ele><time>2026-04-25T15:29:57.468Z</time></trkpt><trkpt lat="46.0523989" lon="11.1377244"><ele>250.8</ele><time>2026-04-25T15:29:58.467Z</time></trkpt><trkpt lat="46.052297" lon="11.1377489"><ele>253.0</ele><time>2026-04-25T15:29:59.467Z</time></trkpt><trkpt lat="46.052194" lon="11.1377711"><ele>252.99999999999997</ele><time>2026-04-25T15:30:00.468Z</time></trkpt><trkpt lat="46.0521016" lon="11.1377878"><ele>253.0</ele><time>2026-04-25T15:30:01.467Z</time></trkpt><trkpt lat="46.0520085" lon="11.1378072"><ele>253.0</ele><time>2026-04-25T15:30:02.467Z</time></trkpt><trkpt lat="46.0519234" lon="11.1378274"><ele>253.0</ele><time>2026-04-25T15:30:03.466Z</time></trkpt><trkpt lat="46.0518487" lon="11.1378462"><ele>252.99999999999997</ele><time>2026-04-25T15:30:04.467Z</time></trkpt><trkpt lat="46.051786" lon="11.1378559"><ele>253.0</ele><time>2026-04-25T15:30:05.467Z</time></trkpt><trkpt lat="46.0517022" lon="11.1378718"><ele>253.0</ele><time>2026-04-25T15:30:07.468Z</time></trkpt><trkpt lat="46.0517191" lon="11.1379865"><ele>253.0</ele><time>2026-04-25T15:30:11.467Z</time></trkpt><trkpt lat="46.0518337" lon="11.1380955"><ele>253.0</ele><time>2026-04-25T15:30:13.468Z</time></trkpt><trkpt lat="46.0519143" lon="11.1381921"><ele>253.0</ele><time>2026-04-25T15:30:14.467Z</time></trkpt><trkpt lat="46.0520131" lon="11.1382968"><ele>253.0</ele><time>2026-04-25T15:30:15.468Z</time></trkpt><trkpt lat="46.0520995" lon="11.1383684"><ele>254.60000000000002</ele><time>2026-04-25T15:30:16.467Z</time></trkpt><trkpt lat="46.0521911" lon="11.1384033"><ele>256.20000000000005</ele><time>2026-04-25T15:30:17.468Z</time></trkpt><trkpt lat="46.0522956" lon="11.1384126"><ele>257.8</ele><time>2026-04-25T15:30:18.467Z</time></trkpt><trkpt lat="46.0524035" lon="11.1384061"><ele>259.40000000000003</ele><time>2026-04-25T15:30:19.468Z</time></trkpt><trkpt lat="46.0525066" lon="11.1383872"><ele>261.0</ele><time>2026-04-25T15:30:20.467Z</time></trkpt><trkpt lat="46.05261" lon="11.1383701"><ele>262.0</ele><time>2026-04-25T15:30:21.468Z</time></trkpt><trkpt lat="46.0527062" lon="11.1383525"><ele>263.0</ele><time>2026-04-25T15:30:22.467Z</time></trkpt><trkpt lat="46.0528021" lon="11.1383454"><ele>264.0</ele><time>2026-04-25T15:30:23.467Z</time></trkpt><trkpt lat="46.0528955" lon="11.1383432"><ele>265.0</ele><time>2026-04-25T15:30:24.467Z</time></trkpt><trkpt lat="46.0529799" lon="11.1383419"><ele>266.0</ele><time>2026-04-25T15:30:25.467Z</time></trkpt><trkpt lat="46.0530487" lon="11.1383369"><ele>267.0</ele><time>2026-04-25T15:30:26.467Z</time></trkpt><trkpt lat="46.0531195" lon="11.1383547"><ele>267.0</ele><time>2026-04-25T15:30:28.468Z</time></trkpt><trkpt lat="46.0531776" lon="11.1384629"><ele>267.0</ele><time>2026-04-25T15:30:30.467Z</time></trkpt><trkpt lat="46.053198" lon="11.1386325"><ele>267.0</ele><time>2026-04-25T15:30:32.468Z</time></trkpt><trkpt lat="46.0532029" lon="11.1387557"><ele>267.0</ele><time>2026-04-25T15:30:34.467Z</time></trkpt><trkpt lat="46.0531276" lon="11.1387855"><ele>267.0</ele><time>2026-04-25T15:30:37.468Z</time></trkpt><trkpt lat="46.053042" lon="11.1387576"><ele>267.0</ele><time>2026-04-25T15:30:38.467Z</time></trkpt><trkpt lat="46.0529514" lon="11.138742"><ele>267.0</ele><time>2026-04-25T15:30:39.468Z</time></trkpt><trkpt lat="46.052883" lon="11.1387356"><ele>267.0</ele><time>2026-04-25T15:30:40.467Z</time></trkpt><trkpt lat="46.0528127" lon="11.1387218"><ele>267.0</ele><time>2026-04-25T15:30:42.468Z</time></trkpt><trkpt lat="46.0528082" lon="11.1388551"><ele>267.0</ele><time>2026-04-25T15:30:46.467Z</time></trkpt><trkpt lat="46.0528127" lon="11.1389519"><ele>267.0</ele><time>2026-04-25T15:30:49.467Z</time></trkpt><trkpt lat="46.0528735" lon="11.1389949"><ele>267.0</ele><time>2026-04-25T15:30:52.469Z</time></trkpt><trkpt lat="46.0530938" lon="11.1387926"><ele>267.0</ele><time>2026-04-25T15:31:11.794Z</time></trkpt></trkseg></trk></gpx>